<?xml version="1.0" encoding="UTF-8" standalone="no" ?>
<gpx xmlns="http://www.topografix.com/GPX/1/1" xmlns:xsi="http://www.w3.org/2001/XMLSchema-instance" xsi:schemaLocation="http://www.topografix.com/GPX/1/1 http://www.topografix.com/GPX/1/1/gpx.xsd" version="1.1" creator="VisuGPX - https://www.visugpx.com">
  <metadata>
    <name>83 - D - Ampus</name>
    <desc><![CDATA[83 - D - Ampus - circuit des curiosités - Englugi]]></desc>
  </metadata>
  <trk>
    <name><![CDATA[Ampus - Borie aqueduc noria englugi vierge dolmen 2026-02-22-01]]></name>
    <trkseg>
      <trkpt lat="43.58742" lon="6.38372">
        <ele>634.1</ele>
        <time>2026-02-22T08:05:22Z</time>
      </trkpt>
      <trkpt lat="43.58742" lon="6.38372">
        <ele>634.1</ele>
        <time>2026-02-22T08:05:23Z</time>
      </trkpt>
      <trkpt lat="43.58741" lon="6.38372">
        <ele>634.1</ele>
        <time>2026-02-22T08:05:24Z</time>
      </trkpt>
      <trkpt lat="43.58741" lon="6.38372">
        <ele>634.1</ele>
        <time>2026-02-22T08:05:25Z</time>
      </trkpt>
      <trkpt lat="43.58741" lon="6.38372">
        <ele>634.1</ele>
        <time>2026-02-22T08:05:26Z</time>
      </trkpt>
      <trkpt lat="43.5874" lon="6.38372">
        <ele>634.1</ele>
        <time>2026-02-22T08:05:27Z</time>
      </trkpt>
      <trkpt lat="43.5874" lon="6.38372">
        <ele>634.1</ele>
        <time>2026-02-22T08:05:28Z</time>
      </trkpt>
      <trkpt lat="43.58741" lon="6.38372">
        <ele>634.1</ele>
        <time>2026-02-22T08:05:29Z</time>
      </trkpt>
      <trkpt lat="43.58741" lon="6.38372">
        <ele>634.1</ele>
        <time>2026-02-22T08:05:30Z</time>
      </trkpt>
      <trkpt lat="43.58741" lon="6.38372">
        <ele>634.1</ele>
        <time>2026-02-22T08:05:31Z</time>
      </trkpt>
      <trkpt lat="43.58741" lon="6.38372">
        <ele>634.1</ele>
        <time>2026-02-22T08:05:32Z</time>
      </trkpt>
      <trkpt lat="43.58741" lon="6.38372">
        <ele>634.1</ele>
        <time>2026-02-22T08:05:33Z</time>
      </trkpt>
      <trkpt lat="43.58741" lon="6.38372">
        <ele>633.9</ele>
        <time>2026-02-22T08:05:34Z</time>
      </trkpt>
      <trkpt lat="43.5874" lon="6.38372">
        <ele>633.8</ele>
        <time>2026-02-22T08:05:35Z</time>
      </trkpt>
      <trkpt lat="43.5874" lon="6.38372">
        <ele>633.7</ele>
        <time>2026-02-22T08:05:36Z</time>
      </trkpt>
      <trkpt lat="43.5874" lon="6.38372">
        <ele>633.7</ele>
        <time>2026-02-22T08:05:37Z</time>
      </trkpt>
      <trkpt lat="43.5874" lon="6.38372">
        <ele>633.7</ele>
        <time>2026-02-22T08:05:38Z</time>
      </trkpt>
      <trkpt lat="43.5874" lon="6.38372">
        <ele>633.7</ele>
        <time>2026-02-22T08:05:39Z</time>
      </trkpt>
      <trkpt lat="43.5874" lon="6.3837">
        <ele>633.7</ele>
        <time>2026-02-22T08:05:40Z</time>
      </trkpt>
      <trkpt lat="43.58741" lon="6.38369">
        <ele>633.7</ele>
        <time>2026-02-22T08:05:41Z</time>
      </trkpt>
      <trkpt lat="43.58741" lon="6.38369">
        <ele>633.6</ele>
        <time>2026-02-22T08:05:42Z</time>
      </trkpt>
      <trkpt lat="43.58742" lon="6.38369">
        <ele>633.7</ele>
        <time>2026-02-22T08:05:43Z</time>
      </trkpt>
      <trkpt lat="43.58742" lon="6.38369">
        <ele>633.7</ele>
        <time>2026-02-22T08:05:44Z</time>
      </trkpt>
      <trkpt lat="43.58742" lon="6.38369">
        <ele>633.7</ele>
        <time>2026-02-22T08:05:45Z</time>
      </trkpt>
      <trkpt lat="43.58741" lon="6.3837">
        <ele>633.7</ele>
        <time>2026-02-22T08:05:46Z</time>
      </trkpt>
      <trkpt lat="43.58741" lon="6.3837">
        <ele>633.7</ele>
        <time>2026-02-22T08:05:47Z</time>
      </trkpt>
      <trkpt lat="43.58742" lon="6.3837">
        <ele>633.7</ele>
        <time>2026-02-22T08:05:48Z</time>
      </trkpt>
      <trkpt lat="43.58743" lon="6.3837">
        <ele>633.7</ele>
        <time>2026-02-22T08:05:49Z</time>
      </trkpt>
      <trkpt lat="43.58743" lon="6.38371">
        <ele>633.8</ele>
        <time>2026-02-22T08:05:50Z</time>
      </trkpt>
      <trkpt lat="43.58743" lon="6.38371">
        <ele>633.8</ele>
        <time>2026-02-22T08:05:51Z</time>
      </trkpt>
      <trkpt lat="43.58744" lon="6.3837">
        <ele>633.8</ele>
        <time>2026-02-22T08:05:52Z</time>
      </trkpt>
      <trkpt lat="43.58744" lon="6.38369">
        <ele>633.8</ele>
        <time>2026-02-22T08:05:53Z</time>
      </trkpt>
      <trkpt lat="43.58743" lon="6.38369">
        <ele>633.8</ele>
        <time>2026-02-22T08:05:54Z</time>
      </trkpt>
      <trkpt lat="43.58745" lon="6.38368">
        <ele>633.8</ele>
        <time>2026-02-22T08:05:55Z</time>
      </trkpt>
      <trkpt lat="43.58746" lon="6.38368">
        <ele>633.8</ele>
        <time>2026-02-22T08:05:56Z</time>
      </trkpt>
      <trkpt lat="43.58745" lon="6.3837">
        <ele>633.8</ele>
        <time>2026-02-22T08:05:57Z</time>
      </trkpt>
      <trkpt lat="43.58743" lon="6.38371">
        <ele>633.9</ele>
        <time>2026-02-22T08:05:58Z</time>
      </trkpt>
      <trkpt lat="43.58744" lon="6.38371">
        <ele>633.9</ele>
        <time>2026-02-22T08:05:59Z</time>
      </trkpt>
      <trkpt lat="43.58744" lon="6.38371">
        <ele>634.1</ele>
        <time>2026-02-22T08:06:00Z</time>
      </trkpt>
      <trkpt lat="43.58744" lon="6.38371">
        <ele>634.1</ele>
        <time>2026-02-22T08:06:01Z</time>
      </trkpt>
      <trkpt lat="43.58744" lon="6.38371">
        <ele>634.1</ele>
        <time>2026-02-22T08:06:02Z</time>
      </trkpt>
      <trkpt lat="43.58744" lon="6.38371">
        <ele>634.1</ele>
        <time>2026-02-22T08:06:03Z</time>
      </trkpt>
      <trkpt lat="43.58744" lon="6.38371">
        <ele>634.1</ele>
        <time>2026-02-22T08:06:04Z</time>
      </trkpt>
      <trkpt lat="43.58745" lon="6.38372">
        <ele>634</ele>
        <time>2026-02-22T08:06:05Z</time>
      </trkpt>
      <trkpt lat="43.58745" lon="6.38373">
        <ele>634</ele>
        <time>2026-02-22T08:06:06Z</time>
      </trkpt>
      <trkpt lat="43.58744" lon="6.38373">
        <ele>633.9</ele>
        <time>2026-02-22T08:06:07Z</time>
      </trkpt>
      <trkpt lat="43.58745" lon="6.38372">
        <ele>633.8</ele>
        <time>2026-02-22T08:06:08Z</time>
      </trkpt>
      <trkpt lat="43.58746" lon="6.38371">
        <ele>633.7</ele>
        <time>2026-02-22T08:06:09Z</time>
      </trkpt>
      <trkpt lat="43.58746" lon="6.38371">
        <ele>633.7</ele>
        <time>2026-02-22T08:06:10Z</time>
      </trkpt>
      <trkpt lat="43.58746" lon="6.3837">
        <ele>633.6</ele>
        <time>2026-02-22T08:06:11Z</time>
      </trkpt>
      <trkpt lat="43.58745" lon="6.3837">
        <ele>633.6</ele>
        <time>2026-02-22T08:06:12Z</time>
      </trkpt>
      <trkpt lat="43.58745" lon="6.3837">
        <ele>633.5</ele>
        <time>2026-02-22T08:06:13Z</time>
      </trkpt>
      <trkpt lat="43.58745" lon="6.38369">
        <ele>633.5</ele>
        <time>2026-02-22T08:06:14Z</time>
      </trkpt>
      <trkpt lat="43.58745" lon="6.38369">
        <ele>633.6</ele>
        <time>2026-02-22T08:06:15Z</time>
      </trkpt>
      <trkpt lat="43.58744" lon="6.38369">
        <ele>633.6</ele>
        <time>2026-02-22T08:06:16Z</time>
      </trkpt>
      <trkpt lat="43.58745" lon="6.38369">
        <ele>633.7</ele>
        <time>2026-02-22T08:06:17Z</time>
      </trkpt>
      <trkpt lat="43.58745" lon="6.38368">
        <ele>633.7</ele>
        <time>2026-02-22T08:06:18Z</time>
      </trkpt>
      <trkpt lat="43.58745" lon="6.38368">
        <ele>633.7</ele>
        <time>2026-02-22T08:06:19Z</time>
      </trkpt>
      <trkpt lat="43.58745" lon="6.38367">
        <ele>633.7</ele>
        <time>2026-02-22T08:06:20Z</time>
      </trkpt>
      <trkpt lat="43.58745" lon="6.38367">
        <ele>633.7</ele>
        <time>2026-02-22T08:06:21Z</time>
      </trkpt>
      <trkpt lat="43.58744" lon="6.38367">
        <ele>633.8</ele>
        <time>2026-02-22T08:06:22Z</time>
      </trkpt>
      <trkpt lat="43.58745" lon="6.38367">
        <ele>633.8</ele>
        <time>2026-02-22T08:06:23Z</time>
      </trkpt>
      <trkpt lat="43.58745" lon="6.38367">
        <ele>633.8</ele>
        <time>2026-02-22T08:06:24Z</time>
      </trkpt>
      <trkpt lat="43.58746" lon="6.38368">
        <ele>633.9</ele>
        <time>2026-02-22T08:06:25Z</time>
      </trkpt>
      <trkpt lat="43.58747" lon="6.38367">
        <ele>633.8</ele>
        <time>2026-02-22T08:06:26Z</time>
      </trkpt>
      <trkpt lat="43.58748" lon="6.38368">
        <ele>633.8</ele>
        <time>2026-02-22T08:06:27Z</time>
      </trkpt>
      <trkpt lat="43.58749" lon="6.38368">
        <ele>633.8</ele>
        <time>2026-02-22T08:06:28Z</time>
      </trkpt>
      <trkpt lat="43.58749" lon="6.38368">
        <ele>633.8</ele>
        <time>2026-02-22T08:06:29Z</time>
      </trkpt>
      <trkpt lat="43.58749" lon="6.38368">
        <ele>633.8</ele>
        <time>2026-02-22T08:06:30Z</time>
      </trkpt>
      <trkpt lat="43.5875" lon="6.38368">
        <ele>633.8</ele>
        <time>2026-02-22T08:06:31Z</time>
      </trkpt>
      <trkpt lat="43.5875" lon="6.38369">
        <ele>633.8</ele>
        <time>2026-02-22T08:06:32Z</time>
      </trkpt>
      <trkpt lat="43.5875" lon="6.38369">
        <ele>633.8</ele>
        <time>2026-02-22T08:06:33Z</time>
      </trkpt>
      <trkpt lat="43.58748" lon="6.3837">
        <ele>633.8</ele>
        <time>2026-02-22T08:06:34Z</time>
      </trkpt>
      <trkpt lat="43.58748" lon="6.3837">
        <ele>633.8</ele>
        <time>2026-02-22T08:06:35Z</time>
      </trkpt>
      <trkpt lat="43.58746" lon="6.3837">
        <ele>633.8</ele>
        <time>2026-02-22T08:06:36Z</time>
      </trkpt>
      <trkpt lat="43.58746" lon="6.38369">
        <ele>633.7</ele>
        <time>2026-02-22T08:06:37Z</time>
      </trkpt>
      <trkpt lat="43.58746" lon="6.38369">
        <ele>633.6</ele>
        <time>2026-02-22T08:06:38Z</time>
      </trkpt>
      <trkpt lat="43.58746" lon="6.38369">
        <ele>633.6</ele>
        <time>2026-02-22T08:06:39Z</time>
      </trkpt>
      <trkpt lat="43.58746" lon="6.38369">
        <ele>633.6</ele>
        <time>2026-02-22T08:06:40Z</time>
      </trkpt>
      <trkpt lat="43.58746" lon="6.38369">
        <ele>633.5</ele>
        <time>2026-02-22T08:06:41Z</time>
      </trkpt>
      <trkpt lat="43.58746" lon="6.38369">
        <ele>633.5</ele>
        <time>2026-02-22T08:06:42Z</time>
      </trkpt>
      <trkpt lat="43.58746" lon="6.38369">
        <ele>633.4</ele>
        <time>2026-02-22T08:06:43Z</time>
      </trkpt>
      <trkpt lat="43.58745" lon="6.38369">
        <ele>633.4</ele>
        <time>2026-02-22T08:06:44Z</time>
      </trkpt>
      <trkpt lat="43.58744" lon="6.38369">
        <ele>633.4</ele>
        <time>2026-02-22T08:06:45Z</time>
      </trkpt>
      <trkpt lat="43.58744" lon="6.38369">
        <ele>633.3</ele>
        <time>2026-02-22T08:06:46Z</time>
      </trkpt>
      <trkpt lat="43.58744" lon="6.38368">
        <ele>633.3</ele>
        <time>2026-02-22T08:06:47Z</time>
      </trkpt>
      <trkpt lat="43.58741" lon="6.38369">
        <ele>633.3</ele>
        <time>2026-02-22T08:06:48Z</time>
      </trkpt>
      <trkpt lat="43.58741" lon="6.38369">
        <ele>633.2</ele>
        <time>2026-02-22T08:06:49Z</time>
      </trkpt>
      <trkpt lat="43.58743" lon="6.38367">
        <ele>633.3</ele>
        <time>2026-02-22T08:06:50Z</time>
      </trkpt>
      <trkpt lat="43.58743" lon="6.38365">
        <ele>633.4</ele>
        <time>2026-02-22T08:06:51Z</time>
      </trkpt>
      <trkpt lat="43.58743" lon="6.38365">
        <ele>633.4</ele>
        <time>2026-02-22T08:06:52Z</time>
      </trkpt>
      <trkpt lat="43.58743" lon="6.38364">
        <ele>633.4</ele>
        <time>2026-02-22T08:06:53Z</time>
      </trkpt>
      <trkpt lat="43.58743" lon="6.38364">
        <ele>633.5</ele>
        <time>2026-02-22T08:06:54Z</time>
      </trkpt>
      <trkpt lat="43.58744" lon="6.38364">
        <ele>633.5</ele>
        <time>2026-02-22T08:06:55Z</time>
      </trkpt>
      <trkpt lat="43.58744" lon="6.38364">
        <ele>633.5</ele>
        <time>2026-02-22T08:06:56Z</time>
      </trkpt>
      <trkpt lat="43.58744" lon="6.38364">
        <ele>633.5</ele>
        <time>2026-02-22T08:06:57Z</time>
      </trkpt>
      <trkpt lat="43.58744" lon="6.38364">
        <ele>633.6</ele>
        <time>2026-02-22T08:06:58Z</time>
      </trkpt>
      <trkpt lat="43.58744" lon="6.38364">
        <ele>633.6</ele>
        <time>2026-02-22T08:06:59Z</time>
      </trkpt>
      <trkpt lat="43.58744" lon="6.38364">
        <ele>633.7</ele>
        <time>2026-02-22T08:07:00Z</time>
      </trkpt>
      <trkpt lat="43.58745" lon="6.38364">
        <ele>633.8</ele>
        <time>2026-02-22T08:07:01Z</time>
      </trkpt>
      <trkpt lat="43.58745" lon="6.38364">
        <ele>633.8</ele>
        <time>2026-02-22T08:07:02Z</time>
      </trkpt>
      <trkpt lat="43.58745" lon="6.38364">
        <ele>633.9</ele>
        <time>2026-02-22T08:07:03Z</time>
      </trkpt>
      <trkpt lat="43.58744" lon="6.38364">
        <ele>633.9</ele>
        <time>2026-02-22T08:07:04Z</time>
      </trkpt>
      <trkpt lat="43.58743" lon="6.38365">
        <ele>634</ele>
        <time>2026-02-22T08:07:05Z</time>
      </trkpt>
      <trkpt lat="43.58743" lon="6.38365">
        <ele>634</ele>
        <time>2026-02-22T08:07:06Z</time>
      </trkpt>
      <trkpt lat="43.58743" lon="6.38365">
        <ele>634.1</ele>
        <time>2026-02-22T08:07:07Z</time>
      </trkpt>
      <trkpt lat="43.58743" lon="6.38366">
        <ele>634.1</ele>
        <time>2026-02-22T08:07:08Z</time>
      </trkpt>
      <trkpt lat="43.58743" lon="6.38366">
        <ele>634.1</ele>
        <time>2026-02-22T08:07:09Z</time>
      </trkpt>
      <trkpt lat="43.58743" lon="6.38366">
        <ele>634.1</ele>
        <time>2026-02-22T08:07:10Z</time>
      </trkpt>
      <trkpt lat="43.58744" lon="6.38366">
        <ele>634</ele>
        <time>2026-02-22T08:07:11Z</time>
      </trkpt>
      <trkpt lat="43.58744" lon="6.38366">
        <ele>634</ele>
        <time>2026-02-22T08:07:12Z</time>
      </trkpt>
      <trkpt lat="43.58743" lon="6.38367">
        <ele>634</ele>
        <time>2026-02-22T08:07:13Z</time>
      </trkpt>
      <trkpt lat="43.58743" lon="6.38368">
        <ele>634</ele>
        <time>2026-02-22T08:07:14Z</time>
      </trkpt>
      <trkpt lat="43.58743" lon="6.38368">
        <ele>634</ele>
        <time>2026-02-22T08:07:15Z</time>
      </trkpt>
      <trkpt lat="43.58743" lon="6.38367">
        <ele>633.9</ele>
        <time>2026-02-22T08:07:16Z</time>
      </trkpt>
      <trkpt lat="43.58743" lon="6.38368">
        <ele>633.9</ele>
        <time>2026-02-22T08:07:17Z</time>
      </trkpt>
      <trkpt lat="43.58743" lon="6.38368">
        <ele>633.9</ele>
        <time>2026-02-22T08:07:18Z</time>
      </trkpt>
      <trkpt lat="43.58744" lon="6.38367">
        <ele>633.8</ele>
        <time>2026-02-22T08:07:19Z</time>
      </trkpt>
      <trkpt lat="43.58744" lon="6.38367">
        <ele>633.7</ele>
        <time>2026-02-22T08:07:20Z</time>
      </trkpt>
      <trkpt lat="43.58744" lon="6.38367">
        <ele>633.7</ele>
        <time>2026-02-22T08:07:21Z</time>
      </trkpt>
      <trkpt lat="43.58744" lon="6.38367">
        <ele>633.7</ele>
        <time>2026-02-22T08:07:22Z</time>
      </trkpt>
      <trkpt lat="43.58745" lon="6.38367">
        <ele>633.7</ele>
        <time>2026-02-22T08:07:23Z</time>
      </trkpt>
      <trkpt lat="43.58744" lon="6.38368">
        <ele>633.8</ele>
        <time>2026-02-22T08:07:24Z</time>
      </trkpt>
      <trkpt lat="43.58744" lon="6.38368">
        <ele>633.8</ele>
        <time>2026-02-22T08:07:25Z</time>
      </trkpt>
      <trkpt lat="43.58744" lon="6.38368">
        <ele>633.9</ele>
        <time>2026-02-22T08:07:26Z</time>
      </trkpt>
      <trkpt lat="43.58745" lon="6.38367">
        <ele>633.9</ele>
        <time>2026-02-22T08:07:27Z</time>
      </trkpt>
      <trkpt lat="43.58745" lon="6.38367">
        <ele>633.8</ele>
        <time>2026-02-22T08:07:28Z</time>
      </trkpt>
      <trkpt lat="43.58745" lon="6.38368">
        <ele>633.9</ele>
        <time>2026-02-22T08:07:29Z</time>
      </trkpt>
      <trkpt lat="43.58746" lon="6.38368">
        <ele>633.9</ele>
        <time>2026-02-22T08:07:30Z</time>
      </trkpt>
      <trkpt lat="43.58745" lon="6.38368">
        <ele>633.9</ele>
        <time>2026-02-22T08:07:31Z</time>
      </trkpt>
      <trkpt lat="43.58745" lon="6.38369">
        <ele>633.8</ele>
        <time>2026-02-22T08:07:32Z</time>
      </trkpt>
      <trkpt lat="43.58745" lon="6.38369">
        <ele>633.8</ele>
        <time>2026-02-22T08:07:33Z</time>
      </trkpt>
      <trkpt lat="43.58745" lon="6.38369">
        <ele>633.9</ele>
        <time>2026-02-22T08:07:34Z</time>
      </trkpt>
      <trkpt lat="43.58745" lon="6.38369">
        <ele>633.9</ele>
        <time>2026-02-22T08:07:35Z</time>
      </trkpt>
      <trkpt lat="43.58745" lon="6.38369">
        <ele>633.8</ele>
        <time>2026-02-22T08:07:36Z</time>
      </trkpt>
      <trkpt lat="43.58745" lon="6.3837">
        <ele>633.8</ele>
        <time>2026-02-22T08:07:37Z</time>
      </trkpt>
      <trkpt lat="43.58744" lon="6.3837">
        <ele>633.8</ele>
        <time>2026-02-22T08:07:38Z</time>
      </trkpt>
      <trkpt lat="43.58744" lon="6.3837">
        <ele>633.8</ele>
        <time>2026-02-22T08:07:39Z</time>
      </trkpt>
      <trkpt lat="43.58744" lon="6.3837">
        <ele>633.9</ele>
        <time>2026-02-22T08:07:40Z</time>
      </trkpt>
      <trkpt lat="43.58744" lon="6.3837">
        <ele>633.9</ele>
        <time>2026-02-22T08:07:41Z</time>
      </trkpt>
      <trkpt lat="43.58744" lon="6.3837">
        <ele>633.9</ele>
        <time>2026-02-22T08:07:42Z</time>
      </trkpt>
      <trkpt lat="43.58743" lon="6.3837">
        <ele>633.9</ele>
        <time>2026-02-22T08:07:43Z</time>
      </trkpt>
      <trkpt lat="43.58743" lon="6.3837">
        <ele>633.8</ele>
        <time>2026-02-22T08:07:44Z</time>
      </trkpt>
      <trkpt lat="43.58743" lon="6.3837">
        <ele>633.9</ele>
        <time>2026-02-22T08:07:45Z</time>
      </trkpt>
      <trkpt lat="43.58743" lon="6.3837">
        <ele>633.9</ele>
        <time>2026-02-22T08:07:46Z</time>
      </trkpt>
      <trkpt lat="43.58744" lon="6.3837">
        <ele>633.9</ele>
        <time>2026-02-22T08:07:47Z</time>
      </trkpt>
      <trkpt lat="43.58744" lon="6.3837">
        <ele>633.9</ele>
        <time>2026-02-22T08:07:48Z</time>
      </trkpt>
      <trkpt lat="43.58744" lon="6.3837">
        <ele>633.9</ele>
        <time>2026-02-22T08:07:49Z</time>
      </trkpt>
      <trkpt lat="43.58744" lon="6.3837">
        <ele>633.7</ele>
        <time>2026-02-22T08:07:50Z</time>
      </trkpt>
      <trkpt lat="43.58744" lon="6.3837">
        <ele>633.7</ele>
        <time>2026-02-22T08:07:51Z</time>
      </trkpt>
      <trkpt lat="43.58744" lon="6.38371">
        <ele>633.7</ele>
        <time>2026-02-22T08:07:52Z</time>
      </trkpt>
      <trkpt lat="43.58744" lon="6.38371">
        <ele>633.6</ele>
        <time>2026-02-22T08:07:53Z</time>
      </trkpt>
      <trkpt lat="43.58744" lon="6.38371">
        <ele>633.5</ele>
        <time>2026-02-22T08:07:54Z</time>
      </trkpt>
      <trkpt lat="43.58745" lon="6.3837">
        <ele>633.4</ele>
        <time>2026-02-22T08:07:55Z</time>
      </trkpt>
      <trkpt lat="43.58744" lon="6.3837">
        <ele>633.4</ele>
        <time>2026-02-22T08:07:56Z</time>
      </trkpt>
      <trkpt lat="43.58744" lon="6.3837">
        <ele>633.4</ele>
        <time>2026-02-22T08:07:57Z</time>
      </trkpt>
      <trkpt lat="43.58745" lon="6.38369">
        <ele>633.4</ele>
        <time>2026-02-22T08:07:58Z</time>
      </trkpt>
      <trkpt lat="43.58745" lon="6.38369">
        <ele>633.4</ele>
        <time>2026-02-22T08:07:59Z</time>
      </trkpt>
      <trkpt lat="43.58744" lon="6.3837">
        <ele>633.4</ele>
        <time>2026-02-22T08:08:00Z</time>
      </trkpt>
      <trkpt lat="43.58744" lon="6.3837">
        <ele>633.4</ele>
        <time>2026-02-22T08:08:01Z</time>
      </trkpt>
      <trkpt lat="43.58744" lon="6.38369">
        <ele>633.4</ele>
        <time>2026-02-22T08:08:02Z</time>
      </trkpt>
      <trkpt lat="43.58744" lon="6.38369">
        <ele>633.4</ele>
        <time>2026-02-22T08:08:03Z</time>
      </trkpt>
      <trkpt lat="43.58744" lon="6.38369">
        <ele>633.4</ele>
        <time>2026-02-22T08:08:04Z</time>
      </trkpt>
      <trkpt lat="43.58744" lon="6.38369">
        <ele>633.4</ele>
        <time>2026-02-22T08:08:05Z</time>
      </trkpt>
      <trkpt lat="43.58744" lon="6.38368">
        <ele>633.5</ele>
        <time>2026-02-22T08:08:06Z</time>
      </trkpt>
      <trkpt lat="43.58745" lon="6.38369">
        <ele>633.5</ele>
        <time>2026-02-22T08:08:07Z</time>
      </trkpt>
      <trkpt lat="43.58745" lon="6.38368">
        <ele>633.5</ele>
        <time>2026-02-22T08:08:08Z</time>
      </trkpt>
      <trkpt lat="43.58745" lon="6.38367">
        <ele>633.5</ele>
        <time>2026-02-22T08:08:09Z</time>
      </trkpt>
      <trkpt lat="43.58745" lon="6.38368">
        <ele>633.4</ele>
        <time>2026-02-22T08:08:10Z</time>
      </trkpt>
      <trkpt lat="43.58745" lon="6.38368">
        <ele>633.4</ele>
        <time>2026-02-22T08:08:11Z</time>
      </trkpt>
      <trkpt lat="43.58745" lon="6.38368">
        <ele>633.4</ele>
        <time>2026-02-22T08:08:12Z</time>
      </trkpt>
      <trkpt lat="43.58745" lon="6.38368">
        <ele>633.4</ele>
        <time>2026-02-22T08:08:13Z</time>
      </trkpt>
      <trkpt lat="43.58746" lon="6.3837">
        <ele>633.4</ele>
        <time>2026-02-22T08:08:14Z</time>
      </trkpt>
      <trkpt lat="43.58746" lon="6.3837">
        <ele>633.5</ele>
        <time>2026-02-22T08:08:15Z</time>
      </trkpt>
      <trkpt lat="43.58746" lon="6.38371">
        <ele>633.5</ele>
        <time>2026-02-22T08:08:16Z</time>
      </trkpt>
      <trkpt lat="43.58746" lon="6.38373">
        <ele>633.4</ele>
        <time>2026-02-22T08:08:17Z</time>
      </trkpt>
      <trkpt lat="43.58746" lon="6.38374">
        <ele>633.4</ele>
        <time>2026-02-22T08:08:18Z</time>
      </trkpt>
      <trkpt lat="43.58746" lon="6.38375">
        <ele>633.4</ele>
        <time>2026-02-22T08:08:19Z</time>
      </trkpt>
      <trkpt lat="43.58748" lon="6.38375">
        <ele>633.4</ele>
        <time>2026-02-22T08:08:20Z</time>
      </trkpt>
      <trkpt lat="43.58749" lon="6.38375">
        <ele>633.4</ele>
        <time>2026-02-22T08:08:21Z</time>
      </trkpt>
      <trkpt lat="43.58751" lon="6.38374">
        <ele>633.4</ele>
        <time>2026-02-22T08:08:22Z</time>
      </trkpt>
      <trkpt lat="43.58753" lon="6.38374">
        <ele>633.3</ele>
        <time>2026-02-22T08:08:23Z</time>
      </trkpt>
      <trkpt lat="43.58753" lon="6.38373">
        <ele>633.4</ele>
        <time>2026-02-22T08:08:24Z</time>
      </trkpt>
      <trkpt lat="43.58754" lon="6.38374">
        <ele>633.3</ele>
        <time>2026-02-22T08:08:25Z</time>
      </trkpt>
      <trkpt lat="43.58754" lon="6.38374">
        <ele>633.3</ele>
        <time>2026-02-22T08:08:26Z</time>
      </trkpt>
      <trkpt lat="43.58755" lon="6.38373">
        <ele>633.3</ele>
        <time>2026-02-22T08:08:27Z</time>
      </trkpt>
      <trkpt lat="43.58756" lon="6.38373">
        <ele>633.2</ele>
        <time>2026-02-22T08:08:28Z</time>
      </trkpt>
      <trkpt lat="43.58757" lon="6.38373">
        <ele>633.1</ele>
        <time>2026-02-22T08:08:29Z</time>
      </trkpt>
      <trkpt lat="43.58758" lon="6.38373">
        <ele>632.9</ele>
        <time>2026-02-22T08:08:30Z</time>
      </trkpt>
      <trkpt lat="43.58759" lon="6.38373">
        <ele>632.8</ele>
        <time>2026-02-22T08:08:31Z</time>
      </trkpt>
      <trkpt lat="43.5876" lon="6.38373">
        <ele>632.6</ele>
        <time>2026-02-22T08:08:32Z</time>
      </trkpt>
      <trkpt lat="43.5876" lon="6.38373">
        <ele>632.5</ele>
        <time>2026-02-22T08:08:33Z</time>
      </trkpt>
      <trkpt lat="43.58761" lon="6.38373">
        <ele>632.4</ele>
        <time>2026-02-22T08:08:34Z</time>
      </trkpt>
      <trkpt lat="43.58762" lon="6.38372">
        <ele>632.2</ele>
        <time>2026-02-22T08:08:35Z</time>
      </trkpt>
      <trkpt lat="43.58763" lon="6.38372">
        <ele>632.1</ele>
        <time>2026-02-22T08:08:36Z</time>
      </trkpt>
      <trkpt lat="43.58763" lon="6.38372">
        <ele>631.9</ele>
        <time>2026-02-22T08:08:37Z</time>
      </trkpt>
      <trkpt lat="43.58765" lon="6.38372">
        <ele>631.7</ele>
        <time>2026-02-22T08:08:38Z</time>
      </trkpt>
      <trkpt lat="43.58766" lon="6.38374">
        <ele>631.5</ele>
        <time>2026-02-22T08:08:39Z</time>
      </trkpt>
      <trkpt lat="43.58768" lon="6.38374">
        <ele>631.3</ele>
        <time>2026-02-22T08:08:40Z</time>
      </trkpt>
      <trkpt lat="43.58769" lon="6.38373">
        <ele>631.1</ele>
        <time>2026-02-22T08:08:41Z</time>
      </trkpt>
      <trkpt lat="43.58769" lon="6.38373">
        <ele>631</ele>
        <time>2026-02-22T08:08:42Z</time>
      </trkpt>
      <trkpt lat="43.5877" lon="6.38372">
        <ele>630.9</ele>
        <time>2026-02-22T08:08:43Z</time>
      </trkpt>
      <trkpt lat="43.58771" lon="6.38372">
        <ele>630.9</ele>
        <time>2026-02-22T08:08:44Z</time>
      </trkpt>
      <trkpt lat="43.58772" lon="6.38372">
        <ele>630.8</ele>
        <time>2026-02-22T08:08:45Z</time>
      </trkpt>
      <trkpt lat="43.58773" lon="6.38371">
        <ele>630.7</ele>
        <time>2026-02-22T08:08:46Z</time>
      </trkpt>
      <trkpt lat="43.58775" lon="6.38372">
        <ele>630.5</ele>
        <time>2026-02-22T08:08:47Z</time>
      </trkpt>
      <trkpt lat="43.58775" lon="6.3837">
        <ele>630.4</ele>
        <time>2026-02-22T08:08:48Z</time>
      </trkpt>
      <trkpt lat="43.58773" lon="6.38365">
        <ele>630.3</ele>
        <time>2026-02-22T08:08:49Z</time>
      </trkpt>
      <trkpt lat="43.58772" lon="6.38363">
        <ele>630.4</ele>
        <time>2026-02-22T08:08:50Z</time>
      </trkpt>
      <trkpt lat="43.58772" lon="6.38363">
        <ele>630.3</ele>
        <time>2026-02-22T08:08:51Z</time>
      </trkpt>
      <trkpt lat="43.58772" lon="6.38363">
        <ele>630.3</ele>
        <time>2026-02-22T08:08:52Z</time>
      </trkpt>
      <trkpt lat="43.58772" lon="6.38364">
        <ele>630.3</ele>
        <time>2026-02-22T08:08:53Z</time>
      </trkpt>
      <trkpt lat="43.58773" lon="6.38364">
        <ele>630.3</ele>
        <time>2026-02-22T08:08:54Z</time>
      </trkpt>
      <trkpt lat="43.58775" lon="6.38364">
        <ele>630.2</ele>
        <time>2026-02-22T08:08:55Z</time>
      </trkpt>
      <trkpt lat="43.58776" lon="6.38363">
        <ele>630.1</ele>
        <time>2026-02-22T08:08:56Z</time>
      </trkpt>
      <trkpt lat="43.58777" lon="6.38363">
        <ele>630</ele>
        <time>2026-02-22T08:08:57Z</time>
      </trkpt>
      <trkpt lat="43.58779" lon="6.38363">
        <ele>629.8</ele>
        <time>2026-02-22T08:08:58Z</time>
      </trkpt>
      <trkpt lat="43.5878" lon="6.38363">
        <ele>629.6</ele>
        <time>2026-02-22T08:08:59Z</time>
      </trkpt>
      <trkpt lat="43.58782" lon="6.38362">
        <ele>629.5</ele>
        <time>2026-02-22T08:09:00Z</time>
      </trkpt>
      <trkpt lat="43.58783" lon="6.38362">
        <ele>629.4</ele>
        <time>2026-02-22T08:09:01Z</time>
      </trkpt>
      <trkpt lat="43.58784" lon="6.38362">
        <ele>629.3</ele>
        <time>2026-02-22T08:09:02Z</time>
      </trkpt>
      <trkpt lat="43.58786" lon="6.38361">
        <ele>629.2</ele>
        <time>2026-02-22T08:09:03Z</time>
      </trkpt>
      <trkpt lat="43.58787" lon="6.3836">
        <ele>629.1</ele>
        <time>2026-02-22T08:09:04Z</time>
      </trkpt>
      <trkpt lat="43.58789" lon="6.38359">
        <ele>629.1</ele>
        <time>2026-02-22T08:09:05Z</time>
      </trkpt>
      <trkpt lat="43.58789" lon="6.38356">
        <ele>629.1</ele>
        <time>2026-02-22T08:09:06Z</time>
      </trkpt>
      <trkpt lat="43.58791" lon="6.38353">
        <ele>629.1</ele>
        <time>2026-02-22T08:09:07Z</time>
      </trkpt>
      <trkpt lat="43.58792" lon="6.38353">
        <ele>629.2</ele>
        <time>2026-02-22T08:09:08Z</time>
      </trkpt>
      <trkpt lat="43.58792" lon="6.38353">
        <ele>629.2</ele>
        <time>2026-02-22T08:09:09Z</time>
      </trkpt>
      <trkpt lat="43.58793" lon="6.38353">
        <ele>629.2</ele>
        <time>2026-02-22T08:09:10Z</time>
      </trkpt>
      <trkpt lat="43.58794" lon="6.38352">
        <ele>629.2</ele>
        <time>2026-02-22T08:09:11Z</time>
      </trkpt>
      <trkpt lat="43.58795" lon="6.38352">
        <ele>629.2</ele>
        <time>2026-02-22T08:09:12Z</time>
      </trkpt>
      <trkpt lat="43.58795" lon="6.38351">
        <ele>629.1</ele>
        <time>2026-02-22T08:09:13Z</time>
      </trkpt>
      <trkpt lat="43.58796" lon="6.3835">
        <ele>629</ele>
        <time>2026-02-22T08:09:14Z</time>
      </trkpt>
      <trkpt lat="43.58797" lon="6.38351">
        <ele>628.9</ele>
        <time>2026-02-22T08:09:15Z</time>
      </trkpt>
      <trkpt lat="43.58799" lon="6.38351">
        <ele>628.8</ele>
        <time>2026-02-22T08:09:16Z</time>
      </trkpt>
      <trkpt lat="43.588" lon="6.38351">
        <ele>628.7</ele>
        <time>2026-02-22T08:09:17Z</time>
      </trkpt>
      <trkpt lat="43.588" lon="6.38351">
        <ele>628.6</ele>
        <time>2026-02-22T08:09:18Z</time>
      </trkpt>
      <trkpt lat="43.58802" lon="6.38351">
        <ele>628.6</ele>
        <time>2026-02-22T08:09:19Z</time>
      </trkpt>
      <trkpt lat="43.58803" lon="6.38351">
        <ele>628.4</ele>
        <time>2026-02-22T08:09:20Z</time>
      </trkpt>
      <trkpt lat="43.58804" lon="6.3835">
        <ele>628.3</ele>
        <time>2026-02-22T08:09:21Z</time>
      </trkpt>
      <trkpt lat="43.58805" lon="6.38349">
        <ele>628.2</ele>
        <time>2026-02-22T08:09:22Z</time>
      </trkpt>
      <trkpt lat="43.58806" lon="6.38349">
        <ele>628.1</ele>
        <time>2026-02-22T08:09:23Z</time>
      </trkpt>
      <trkpt lat="43.58807" lon="6.3835">
        <ele>627.9</ele>
        <time>2026-02-22T08:09:24Z</time>
      </trkpt>
      <trkpt lat="43.58808" lon="6.38349">
        <ele>627.7</ele>
        <time>2026-02-22T08:09:25Z</time>
      </trkpt>
      <trkpt lat="43.58808" lon="6.38346">
        <ele>627.7</ele>
        <time>2026-02-22T08:09:26Z</time>
      </trkpt>
      <trkpt lat="43.58808" lon="6.38344">
        <ele>627.6</ele>
        <time>2026-02-22T08:09:27Z</time>
      </trkpt>
      <trkpt lat="43.58809" lon="6.38344">
        <ele>627.6</ele>
        <time>2026-02-22T08:09:28Z</time>
      </trkpt>
      <trkpt lat="43.58811" lon="6.38342">
        <ele>627.5</ele>
        <time>2026-02-22T08:09:29Z</time>
      </trkpt>
      <trkpt lat="43.58811" lon="6.38341">
        <ele>627.4</ele>
        <time>2026-02-22T08:09:30Z</time>
      </trkpt>
      <trkpt lat="43.58812" lon="6.38341">
        <ele>627.4</ele>
        <time>2026-02-22T08:09:31Z</time>
      </trkpt>
      <trkpt lat="43.58814" lon="6.38341">
        <ele>627.3</ele>
        <time>2026-02-22T08:09:32Z</time>
      </trkpt>
      <trkpt lat="43.58816" lon="6.3834">
        <ele>627.2</ele>
        <time>2026-02-22T08:09:33Z</time>
      </trkpt>
      <trkpt lat="43.58817" lon="6.38339">
        <ele>627.1</ele>
        <time>2026-02-22T08:09:34Z</time>
      </trkpt>
      <trkpt lat="43.58818" lon="6.38339">
        <ele>627.1</ele>
        <time>2026-02-22T08:09:35Z</time>
      </trkpt>
      <trkpt lat="43.58819" lon="6.38338">
        <ele>626.9</ele>
        <time>2026-02-22T08:09:36Z</time>
      </trkpt>
      <trkpt lat="43.5882" lon="6.38338">
        <ele>626.8</ele>
        <time>2026-02-22T08:09:37Z</time>
      </trkpt>
      <trkpt lat="43.5882" lon="6.38336">
        <ele>626.7</ele>
        <time>2026-02-22T08:09:38Z</time>
      </trkpt>
      <trkpt lat="43.58821" lon="6.38335">
        <ele>626.6</ele>
        <time>2026-02-22T08:09:39Z</time>
      </trkpt>
      <trkpt lat="43.58821" lon="6.38334">
        <ele>626.6</ele>
        <time>2026-02-22T08:09:40Z</time>
      </trkpt>
      <trkpt lat="43.58822" lon="6.38333">
        <ele>626.5</ele>
        <time>2026-02-22T08:09:41Z</time>
      </trkpt>
      <trkpt lat="43.58823" lon="6.38331">
        <ele>626.4</ele>
        <time>2026-02-22T08:09:42Z</time>
      </trkpt>
      <trkpt lat="43.58824" lon="6.3833">
        <ele>626.3</ele>
        <time>2026-02-22T08:09:43Z</time>
      </trkpt>
      <trkpt lat="43.58824" lon="6.38329">
        <ele>626.4</ele>
        <time>2026-02-22T08:09:44Z</time>
      </trkpt>
      <trkpt lat="43.58825" lon="6.38328">
        <ele>626.4</ele>
        <time>2026-02-22T08:09:45Z</time>
      </trkpt>
      <trkpt lat="43.58826" lon="6.38327">
        <ele>626.3</ele>
        <time>2026-02-22T08:09:46Z</time>
      </trkpt>
      <trkpt lat="43.58827" lon="6.38327">
        <ele>626.3</ele>
        <time>2026-02-22T08:09:47Z</time>
      </trkpt>
      <trkpt lat="43.58828" lon="6.38327">
        <ele>626.2</ele>
        <time>2026-02-22T08:09:48Z</time>
      </trkpt>
      <trkpt lat="43.58829" lon="6.38327">
        <ele>626.2</ele>
        <time>2026-02-22T08:09:49Z</time>
      </trkpt>
      <trkpt lat="43.58831" lon="6.38327">
        <ele>626.3</ele>
        <time>2026-02-22T08:09:50Z</time>
      </trkpt>
      <trkpt lat="43.58831" lon="6.38326">
        <ele>626.4</ele>
        <time>2026-02-22T08:09:51Z</time>
      </trkpt>
      <trkpt lat="43.58832" lon="6.38326">
        <ele>626.5</ele>
        <time>2026-02-22T08:09:52Z</time>
      </trkpt>
      <trkpt lat="43.58833" lon="6.38325">
        <ele>626.5</ele>
        <time>2026-02-22T08:09:53Z</time>
      </trkpt>
      <trkpt lat="43.58834" lon="6.38325">
        <ele>626.4</ele>
        <time>2026-02-22T08:09:54Z</time>
      </trkpt>
      <trkpt lat="43.58835" lon="6.38324">
        <ele>626.4</ele>
        <time>2026-02-22T08:09:55Z</time>
      </trkpt>
      <trkpt lat="43.58835" lon="6.38323">
        <ele>626.4</ele>
        <time>2026-02-22T08:09:56Z</time>
      </trkpt>
      <trkpt lat="43.58836" lon="6.38323">
        <ele>626.4</ele>
        <time>2026-02-22T08:09:57Z</time>
      </trkpt>
      <trkpt lat="43.58837" lon="6.38322">
        <ele>626.4</ele>
        <time>2026-02-22T08:09:58Z</time>
      </trkpt>
      <trkpt lat="43.58837" lon="6.38322">
        <ele>626.4</ele>
        <time>2026-02-22T08:09:59Z</time>
      </trkpt>
      <trkpt lat="43.58839" lon="6.38322">
        <ele>626.4</ele>
        <time>2026-02-22T08:10:00Z</time>
      </trkpt>
      <trkpt lat="43.58839" lon="6.38322">
        <ele>626.4</ele>
        <time>2026-02-22T08:10:01Z</time>
      </trkpt>
      <trkpt lat="43.5884" lon="6.38321">
        <ele>626.3</ele>
        <time>2026-02-22T08:10:02Z</time>
      </trkpt>
      <trkpt lat="43.58841" lon="6.38321">
        <ele>626.3</ele>
        <time>2026-02-22T08:10:03Z</time>
      </trkpt>
      <trkpt lat="43.58841" lon="6.38321">
        <ele>626.3</ele>
        <time>2026-02-22T08:10:04Z</time>
      </trkpt>
      <trkpt lat="43.58842" lon="6.3832">
        <ele>626.3</ele>
        <time>2026-02-22T08:10:05Z</time>
      </trkpt>
      <trkpt lat="43.58843" lon="6.38319">
        <ele>626.3</ele>
        <time>2026-02-22T08:10:06Z</time>
      </trkpt>
      <trkpt lat="43.58844" lon="6.38318">
        <ele>626.3</ele>
        <time>2026-02-22T08:10:07Z</time>
      </trkpt>
      <trkpt lat="43.58845" lon="6.38318">
        <ele>626.2</ele>
        <time>2026-02-22T08:10:08Z</time>
      </trkpt>
      <trkpt lat="43.58846" lon="6.38317">
        <ele>626.2</ele>
        <time>2026-02-22T08:10:09Z</time>
      </trkpt>
      <trkpt lat="43.58847" lon="6.38316">
        <ele>626.2</ele>
        <time>2026-02-22T08:10:10Z</time>
      </trkpt>
      <trkpt lat="43.58848" lon="6.38315">
        <ele>626.2</ele>
        <time>2026-02-22T08:10:11Z</time>
      </trkpt>
      <trkpt lat="43.58849" lon="6.38315">
        <ele>626.1</ele>
        <time>2026-02-22T08:10:12Z</time>
      </trkpt>
      <trkpt lat="43.5885" lon="6.38314">
        <ele>626.1</ele>
        <time>2026-02-22T08:10:13Z</time>
      </trkpt>
      <trkpt lat="43.58851" lon="6.38314">
        <ele>626.1</ele>
        <time>2026-02-22T08:10:14Z</time>
      </trkpt>
      <trkpt lat="43.58851" lon="6.38314">
        <ele>626.1</ele>
        <time>2026-02-22T08:10:15Z</time>
      </trkpt>
      <trkpt lat="43.58852" lon="6.38314">
        <ele>626.1</ele>
        <time>2026-02-22T08:10:16Z</time>
      </trkpt>
      <trkpt lat="43.58854" lon="6.38314">
        <ele>626.1</ele>
        <time>2026-02-22T08:10:17Z</time>
      </trkpt>
      <trkpt lat="43.58854" lon="6.38315">
        <ele>626</ele>
        <time>2026-02-22T08:10:18Z</time>
      </trkpt>
      <trkpt lat="43.58856" lon="6.38314">
        <ele>626</ele>
        <time>2026-02-22T08:10:19Z</time>
      </trkpt>
      <trkpt lat="43.58857" lon="6.38313">
        <ele>625.9</ele>
        <time>2026-02-22T08:10:20Z</time>
      </trkpt>
      <trkpt lat="43.58858" lon="6.38311">
        <ele>625.9</ele>
        <time>2026-02-22T08:10:21Z</time>
      </trkpt>
      <trkpt lat="43.58859" lon="6.38308">
        <ele>625.9</ele>
        <time>2026-02-22T08:10:22Z</time>
      </trkpt>
      <trkpt lat="43.5886" lon="6.38306">
        <ele>625.8</ele>
        <time>2026-02-22T08:10:23Z</time>
      </trkpt>
      <trkpt lat="43.5886" lon="6.38304">
        <ele>625.7</ele>
        <time>2026-02-22T08:10:24Z</time>
      </trkpt>
      <trkpt lat="43.5886" lon="6.38304">
        <ele>625.6</ele>
        <time>2026-02-22T08:10:25Z</time>
      </trkpt>
      <trkpt lat="43.5886" lon="6.38303">
        <ele>625.5</ele>
        <time>2026-02-22T08:10:26Z</time>
      </trkpt>
      <trkpt lat="43.5886" lon="6.38302">
        <ele>625.3</ele>
        <time>2026-02-22T08:10:27Z</time>
      </trkpt>
      <trkpt lat="43.5886" lon="6.38301">
        <ele>625.1</ele>
        <time>2026-02-22T08:10:28Z</time>
      </trkpt>
      <trkpt lat="43.58859" lon="6.38299">
        <ele>625</ele>
        <time>2026-02-22T08:10:29Z</time>
      </trkpt>
      <trkpt lat="43.58859" lon="6.38298">
        <ele>624.9</ele>
        <time>2026-02-22T08:10:30Z</time>
      </trkpt>
      <trkpt lat="43.58859" lon="6.38297">
        <ele>624.7</ele>
        <time>2026-02-22T08:10:31Z</time>
      </trkpt>
      <trkpt lat="43.58859" lon="6.38296">
        <ele>624.6</ele>
        <time>2026-02-22T08:10:32Z</time>
      </trkpt>
      <trkpt lat="43.58859" lon="6.38295">
        <ele>624.5</ele>
        <time>2026-02-22T08:10:33Z</time>
      </trkpt>
      <trkpt lat="43.58858" lon="6.38294">
        <ele>624.4</ele>
        <time>2026-02-22T08:10:34Z</time>
      </trkpt>
      <trkpt lat="43.58857" lon="6.38293">
        <ele>624.3</ele>
        <time>2026-02-22T08:10:35Z</time>
      </trkpt>
      <trkpt lat="43.58857" lon="6.38292">
        <ele>624.1</ele>
        <time>2026-02-22T08:10:36Z</time>
      </trkpt>
      <trkpt lat="43.58857" lon="6.38291">
        <ele>624</ele>
        <time>2026-02-22T08:10:37Z</time>
      </trkpt>
      <trkpt lat="43.58857" lon="6.3829">
        <ele>623.9</ele>
        <time>2026-02-22T08:10:38Z</time>
      </trkpt>
      <trkpt lat="43.58857" lon="6.38288">
        <ele>623.8</ele>
        <time>2026-02-22T08:10:39Z</time>
      </trkpt>
      <trkpt lat="43.58857" lon="6.38287">
        <ele>623.6</ele>
        <time>2026-02-22T08:10:40Z</time>
      </trkpt>
      <trkpt lat="43.58858" lon="6.38285">
        <ele>623.4</ele>
        <time>2026-02-22T08:10:41Z</time>
      </trkpt>
      <trkpt lat="43.58858" lon="6.38284">
        <ele>623.3</ele>
        <time>2026-02-22T08:10:42Z</time>
      </trkpt>
      <trkpt lat="43.58858" lon="6.38283">
        <ele>623.2</ele>
        <time>2026-02-22T08:10:43Z</time>
      </trkpt>
      <trkpt lat="43.58859" lon="6.38282">
        <ele>623.1</ele>
        <time>2026-02-22T08:10:44Z</time>
      </trkpt>
      <trkpt lat="43.58859" lon="6.38281">
        <ele>622.9</ele>
        <time>2026-02-22T08:10:45Z</time>
      </trkpt>
      <trkpt lat="43.5886" lon="6.38279">
        <ele>622.8</ele>
        <time>2026-02-22T08:10:46Z</time>
      </trkpt>
      <trkpt lat="43.58859" lon="6.38278">
        <ele>622.6</ele>
        <time>2026-02-22T08:10:47Z</time>
      </trkpt>
      <trkpt lat="43.58859" lon="6.38276">
        <ele>622.5</ele>
        <time>2026-02-22T08:10:48Z</time>
      </trkpt>
      <trkpt lat="43.58861" lon="6.38275">
        <ele>622.4</ele>
        <time>2026-02-22T08:10:49Z</time>
      </trkpt>
      <trkpt lat="43.58861" lon="6.38275">
        <ele>622.3</ele>
        <time>2026-02-22T08:10:50Z</time>
      </trkpt>
      <trkpt lat="43.5886" lon="6.38274">
        <ele>622.1</ele>
        <time>2026-02-22T08:10:51Z</time>
      </trkpt>
      <trkpt lat="43.5886" lon="6.38273">
        <ele>622</ele>
        <time>2026-02-22T08:10:52Z</time>
      </trkpt>
      <trkpt lat="43.5886" lon="6.38273">
        <ele>622</ele>
        <time>2026-02-22T08:10:53Z</time>
      </trkpt>
      <trkpt lat="43.58861" lon="6.38271">
        <ele>621.9</ele>
        <time>2026-02-22T08:10:54Z</time>
      </trkpt>
      <trkpt lat="43.58861" lon="6.38271">
        <ele>621.8</ele>
        <time>2026-02-22T08:10:55Z</time>
      </trkpt>
      <trkpt lat="43.58862" lon="6.3827">
        <ele>621.8</ele>
        <time>2026-02-22T08:10:56Z</time>
      </trkpt>
      <trkpt lat="43.58863" lon="6.38268">
        <ele>621.7</ele>
        <time>2026-02-22T08:10:57Z</time>
      </trkpt>
      <trkpt lat="43.58863" lon="6.38266">
        <ele>621.7</ele>
        <time>2026-02-22T08:10:58Z</time>
      </trkpt>
      <trkpt lat="43.58864" lon="6.38264">
        <ele>621.6</ele>
        <time>2026-02-22T08:10:59Z</time>
      </trkpt>
      <trkpt lat="43.58864" lon="6.38263">
        <ele>621.6</ele>
        <time>2026-02-22T08:11:00Z</time>
      </trkpt>
      <trkpt lat="43.58864" lon="6.38262">
        <ele>621.7</ele>
        <time>2026-02-22T08:11:01Z</time>
      </trkpt>
      <trkpt lat="43.58864" lon="6.38261">
        <ele>621.7</ele>
        <time>2026-02-22T08:11:02Z</time>
      </trkpt>
      <trkpt lat="43.58865" lon="6.3826">
        <ele>621.6</ele>
        <time>2026-02-22T08:11:03Z</time>
      </trkpt>
      <trkpt lat="43.58866" lon="6.38259">
        <ele>621.5</ele>
        <time>2026-02-22T08:11:04Z</time>
      </trkpt>
      <trkpt lat="43.58867" lon="6.38258">
        <ele>621.5</ele>
        <time>2026-02-22T08:11:05Z</time>
      </trkpt>
      <trkpt lat="43.58867" lon="6.38257">
        <ele>621.5</ele>
        <time>2026-02-22T08:11:06Z</time>
      </trkpt>
      <trkpt lat="43.58869" lon="6.38256">
        <ele>621.5</ele>
        <time>2026-02-22T08:11:07Z</time>
      </trkpt>
      <trkpt lat="43.58869" lon="6.38254">
        <ele>621.6</ele>
        <time>2026-02-22T08:11:08Z</time>
      </trkpt>
      <trkpt lat="43.58869" lon="6.3825">
        <ele>621.7</ele>
        <time>2026-02-22T08:11:09Z</time>
      </trkpt>
      <trkpt lat="43.58868" lon="6.38246">
        <ele>621.8</ele>
        <time>2026-02-22T08:11:10Z</time>
      </trkpt>
      <trkpt lat="43.58868" lon="6.38244">
        <ele>621.9</ele>
        <time>2026-02-22T08:11:11Z</time>
      </trkpt>
      <trkpt lat="43.5887" lon="6.38242">
        <ele>621.8</ele>
        <time>2026-02-22T08:11:12Z</time>
      </trkpt>
      <trkpt lat="43.5887" lon="6.38241">
        <ele>621.9</ele>
        <time>2026-02-22T08:11:13Z</time>
      </trkpt>
      <trkpt lat="43.58871" lon="6.38241">
        <ele>622</ele>
        <time>2026-02-22T08:11:14Z</time>
      </trkpt>
      <trkpt lat="43.58871" lon="6.3824">
        <ele>622.1</ele>
        <time>2026-02-22T08:11:15Z</time>
      </trkpt>
      <trkpt lat="43.58872" lon="6.38239">
        <ele>622.1</ele>
        <time>2026-02-22T08:11:16Z</time>
      </trkpt>
      <trkpt lat="43.58872" lon="6.38237">
        <ele>622.2</ele>
        <time>2026-02-22T08:11:17Z</time>
      </trkpt>
      <trkpt lat="43.58872" lon="6.38236">
        <ele>622.2</ele>
        <time>2026-02-22T08:11:18Z</time>
      </trkpt>
      <trkpt lat="43.58872" lon="6.38235">
        <ele>622.4</ele>
        <time>2026-02-22T08:11:19Z</time>
      </trkpt>
      <trkpt lat="43.58873" lon="6.38233">
        <ele>622.7</ele>
        <time>2026-02-22T08:11:20Z</time>
      </trkpt>
      <trkpt lat="43.58873" lon="6.38232">
        <ele>622.8</ele>
        <time>2026-02-22T08:11:21Z</time>
      </trkpt>
      <trkpt lat="43.58873" lon="6.38231">
        <ele>622.8</ele>
        <time>2026-02-22T08:11:22Z</time>
      </trkpt>
      <trkpt lat="43.58873" lon="6.38229">
        <ele>622.9</ele>
        <time>2026-02-22T08:11:23Z</time>
      </trkpt>
      <trkpt lat="43.58873" lon="6.38228">
        <ele>622.9</ele>
        <time>2026-02-22T08:11:24Z</time>
      </trkpt>
      <trkpt lat="43.58873" lon="6.38227">
        <ele>623</ele>
        <time>2026-02-22T08:11:25Z</time>
      </trkpt>
      <trkpt lat="43.58874" lon="6.38225">
        <ele>623.2</ele>
        <time>2026-02-22T08:11:26Z</time>
      </trkpt>
      <trkpt lat="43.58874" lon="6.38224">
        <ele>623.3</ele>
        <time>2026-02-22T08:11:27Z</time>
      </trkpt>
      <trkpt lat="43.58874" lon="6.38222">
        <ele>623.4</ele>
        <time>2026-02-22T08:11:28Z</time>
      </trkpt>
      <trkpt lat="43.58874" lon="6.38221">
        <ele>623.4</ele>
        <time>2026-02-22T08:11:29Z</time>
      </trkpt>
      <trkpt lat="43.58874" lon="6.3822">
        <ele>623.6</ele>
        <time>2026-02-22T08:11:30Z</time>
      </trkpt>
      <trkpt lat="43.58874" lon="6.38219">
        <ele>623.7</ele>
        <time>2026-02-22T08:11:31Z</time>
      </trkpt>
      <trkpt lat="43.58874" lon="6.38218">
        <ele>623.8</ele>
        <time>2026-02-22T08:11:32Z</time>
      </trkpt>
      <trkpt lat="43.58875" lon="6.38217">
        <ele>623.9</ele>
        <time>2026-02-22T08:11:33Z</time>
      </trkpt>
      <trkpt lat="43.58875" lon="6.38215">
        <ele>624.1</ele>
        <time>2026-02-22T08:11:34Z</time>
      </trkpt>
      <trkpt lat="43.58874" lon="6.38214">
        <ele>624.3</ele>
        <time>2026-02-22T08:11:35Z</time>
      </trkpt>
      <trkpt lat="43.58874" lon="6.38212">
        <ele>624.4</ele>
        <time>2026-02-22T08:11:36Z</time>
      </trkpt>
      <trkpt lat="43.58874" lon="6.38211">
        <ele>624.6</ele>
        <time>2026-02-22T08:11:37Z</time>
      </trkpt>
      <trkpt lat="43.58875" lon="6.3821">
        <ele>624.5</ele>
        <time>2026-02-22T08:11:38Z</time>
      </trkpt>
      <trkpt lat="43.58875" lon="6.38208">
        <ele>624.6</ele>
        <time>2026-02-22T08:11:39Z</time>
      </trkpt>
      <trkpt lat="43.58875" lon="6.38207">
        <ele>624.7</ele>
        <time>2026-02-22T08:11:40Z</time>
      </trkpt>
      <trkpt lat="43.58874" lon="6.38205">
        <ele>624.8</ele>
        <time>2026-02-22T08:11:41Z</time>
      </trkpt>
      <trkpt lat="43.58875" lon="6.38204">
        <ele>624.9</ele>
        <time>2026-02-22T08:11:42Z</time>
      </trkpt>
      <trkpt lat="43.58874" lon="6.38202">
        <ele>625</ele>
        <time>2026-02-22T08:11:43Z</time>
      </trkpt>
      <trkpt lat="43.58875" lon="6.38201">
        <ele>625.1</ele>
        <time>2026-02-22T08:11:44Z</time>
      </trkpt>
      <trkpt lat="43.58875" lon="6.382">
        <ele>625.1</ele>
        <time>2026-02-22T08:11:45Z</time>
      </trkpt>
      <trkpt lat="43.58875" lon="6.38198">
        <ele>625.1</ele>
        <time>2026-02-22T08:11:46Z</time>
      </trkpt>
      <trkpt lat="43.58875" lon="6.38197">
        <ele>625.3</ele>
        <time>2026-02-22T08:11:47Z</time>
      </trkpt>
      <trkpt lat="43.58876" lon="6.38195">
        <ele>625.5</ele>
        <time>2026-02-22T08:11:48Z</time>
      </trkpt>
      <trkpt lat="43.58876" lon="6.38195">
        <ele>625.6</ele>
        <time>2026-02-22T08:11:49Z</time>
      </trkpt>
      <trkpt lat="43.58876" lon="6.38194">
        <ele>625.7</ele>
        <time>2026-02-22T08:11:50Z</time>
      </trkpt>
      <trkpt lat="43.58876" lon="6.38193">
        <ele>625.8</ele>
        <time>2026-02-22T08:11:51Z</time>
      </trkpt>
      <trkpt lat="43.58876" lon="6.38192">
        <ele>625.7</ele>
        <time>2026-02-22T08:11:52Z</time>
      </trkpt>
      <trkpt lat="43.58876" lon="6.3819">
        <ele>625.6</ele>
        <time>2026-02-22T08:11:53Z</time>
      </trkpt>
      <trkpt lat="43.58876" lon="6.38189">
        <ele>625.6</ele>
        <time>2026-02-22T08:11:54Z</time>
      </trkpt>
      <trkpt lat="43.58877" lon="6.38188">
        <ele>625.7</ele>
        <time>2026-02-22T08:11:55Z</time>
      </trkpt>
      <trkpt lat="43.58877" lon="6.38186">
        <ele>625.9</ele>
        <time>2026-02-22T08:11:56Z</time>
      </trkpt>
      <trkpt lat="43.58877" lon="6.38184">
        <ele>626</ele>
        <time>2026-02-22T08:11:57Z</time>
      </trkpt>
      <trkpt lat="43.58877" lon="6.38183">
        <ele>626.1</ele>
        <time>2026-02-22T08:11:58Z</time>
      </trkpt>
      <trkpt lat="43.58876" lon="6.38182">
        <ele>626.2</ele>
        <time>2026-02-22T08:11:59Z</time>
      </trkpt>
      <trkpt lat="43.58875" lon="6.3818">
        <ele>626.3</ele>
        <time>2026-02-22T08:12:00Z</time>
      </trkpt>
      <trkpt lat="43.58875" lon="6.38178">
        <ele>626.4</ele>
        <time>2026-02-22T08:12:01Z</time>
      </trkpt>
      <trkpt lat="43.58875" lon="6.38177">
        <ele>626.5</ele>
        <time>2026-02-22T08:12:02Z</time>
      </trkpt>
      <trkpt lat="43.58874" lon="6.38176">
        <ele>626.6</ele>
        <time>2026-02-22T08:12:03Z</time>
      </trkpt>
      <trkpt lat="43.58874" lon="6.38175">
        <ele>626.6</ele>
        <time>2026-02-22T08:12:04Z</time>
      </trkpt>
      <trkpt lat="43.58876" lon="6.38173">
        <ele>626.7</ele>
        <time>2026-02-22T08:12:05Z</time>
      </trkpt>
      <trkpt lat="43.58876" lon="6.38171">
        <ele>626.8</ele>
        <time>2026-02-22T08:12:06Z</time>
      </trkpt>
      <trkpt lat="43.58875" lon="6.38169">
        <ele>626.8</ele>
        <time>2026-02-22T08:12:07Z</time>
      </trkpt>
      <trkpt lat="43.58875" lon="6.38167">
        <ele>626.8</ele>
        <time>2026-02-22T08:12:08Z</time>
      </trkpt>
      <trkpt lat="43.58874" lon="6.38165">
        <ele>626.8</ele>
        <time>2026-02-22T08:12:09Z</time>
      </trkpt>
      <trkpt lat="43.58875" lon="6.38164">
        <ele>627</ele>
        <time>2026-02-22T08:12:10Z</time>
      </trkpt>
      <trkpt lat="43.58876" lon="6.38162">
        <ele>627.1</ele>
        <time>2026-02-22T08:12:11Z</time>
      </trkpt>
      <trkpt lat="43.58876" lon="6.3816">
        <ele>627.1</ele>
        <time>2026-02-22T08:12:12Z</time>
      </trkpt>
      <trkpt lat="43.58876" lon="6.38159">
        <ele>627.2</ele>
        <time>2026-02-22T08:12:13Z</time>
      </trkpt>
      <trkpt lat="43.58875" lon="6.38157">
        <ele>627.2</ele>
        <time>2026-02-22T08:12:14Z</time>
      </trkpt>
      <trkpt lat="43.58875" lon="6.38156">
        <ele>627.2</ele>
        <time>2026-02-22T08:12:15Z</time>
      </trkpt>
      <trkpt lat="43.58876" lon="6.38154">
        <ele>627.3</ele>
        <time>2026-02-22T08:12:16Z</time>
      </trkpt>
      <trkpt lat="43.58876" lon="6.38153">
        <ele>627.3</ele>
        <time>2026-02-22T08:12:17Z</time>
      </trkpt>
      <trkpt lat="43.58876" lon="6.38151">
        <ele>627.3</ele>
        <time>2026-02-22T08:12:18Z</time>
      </trkpt>
      <trkpt lat="43.58875" lon="6.3815">
        <ele>627.4</ele>
        <time>2026-02-22T08:12:19Z</time>
      </trkpt>
      <trkpt lat="43.58876" lon="6.38148">
        <ele>627.4</ele>
        <time>2026-02-22T08:12:20Z</time>
      </trkpt>
      <trkpt lat="43.58877" lon="6.38147">
        <ele>627.4</ele>
        <time>2026-02-22T08:12:21Z</time>
      </trkpt>
      <trkpt lat="43.58876" lon="6.38145">
        <ele>627.4</ele>
        <time>2026-02-22T08:12:22Z</time>
      </trkpt>
      <trkpt lat="43.58877" lon="6.38144">
        <ele>627.5</ele>
        <time>2026-02-22T08:12:23Z</time>
      </trkpt>
      <trkpt lat="43.58877" lon="6.38143">
        <ele>627.5</ele>
        <time>2026-02-22T08:12:24Z</time>
      </trkpt>
      <trkpt lat="43.58877" lon="6.38141">
        <ele>627.5</ele>
        <time>2026-02-22T08:12:25Z</time>
      </trkpt>
      <trkpt lat="43.58877" lon="6.3814">
        <ele>627.6</ele>
        <time>2026-02-22T08:12:26Z</time>
      </trkpt>
      <trkpt lat="43.58877" lon="6.38138">
        <ele>627.6</ele>
        <time>2026-02-22T08:12:27Z</time>
      </trkpt>
      <trkpt lat="43.58877" lon="6.38136">
        <ele>627.7</ele>
        <time>2026-02-22T08:12:28Z</time>
      </trkpt>
      <trkpt lat="43.58877" lon="6.38135">
        <ele>627.7</ele>
        <time>2026-02-22T08:12:29Z</time>
      </trkpt>
      <trkpt lat="43.58876" lon="6.38134">
        <ele>627.8</ele>
        <time>2026-02-22T08:12:30Z</time>
      </trkpt>
      <trkpt lat="43.58877" lon="6.38132">
        <ele>627.9</ele>
        <time>2026-02-22T08:12:31Z</time>
      </trkpt>
      <trkpt lat="43.58877" lon="6.3813">
        <ele>628</ele>
        <time>2026-02-22T08:12:32Z</time>
      </trkpt>
      <trkpt lat="43.58878" lon="6.38128">
        <ele>628.1</ele>
        <time>2026-02-22T08:12:33Z</time>
      </trkpt>
      <trkpt lat="43.58879" lon="6.38125">
        <ele>628.1</ele>
        <time>2026-02-22T08:12:34Z</time>
      </trkpt>
      <trkpt lat="43.58879" lon="6.38125">
        <ele>628.1</ele>
        <time>2026-02-22T08:12:35Z</time>
      </trkpt>
      <trkpt lat="43.58879" lon="6.38124">
        <ele>628.3</ele>
        <time>2026-02-22T08:12:36Z</time>
      </trkpt>
      <trkpt lat="43.58879" lon="6.38123">
        <ele>628.4</ele>
        <time>2026-02-22T08:12:37Z</time>
      </trkpt>
      <trkpt lat="43.5888" lon="6.38122">
        <ele>628.4</ele>
        <time>2026-02-22T08:12:38Z</time>
      </trkpt>
      <trkpt lat="43.58881" lon="6.38121">
        <ele>628.4</ele>
        <time>2026-02-22T08:12:39Z</time>
      </trkpt>
      <trkpt lat="43.58882" lon="6.38121">
        <ele>628.5</ele>
        <time>2026-02-22T08:12:40Z</time>
      </trkpt>
      <trkpt lat="43.58883" lon="6.3812">
        <ele>628.5</ele>
        <time>2026-02-22T08:12:41Z</time>
      </trkpt>
      <trkpt lat="43.58883" lon="6.38119">
        <ele>628.6</ele>
        <time>2026-02-22T08:12:42Z</time>
      </trkpt>
      <trkpt lat="43.58884" lon="6.38118">
        <ele>628.6</ele>
        <time>2026-02-22T08:12:43Z</time>
      </trkpt>
      <trkpt lat="43.58885" lon="6.38117">
        <ele>628.7</ele>
        <time>2026-02-22T08:12:44Z</time>
      </trkpt>
      <trkpt lat="43.58885" lon="6.38116">
        <ele>628.7</ele>
        <time>2026-02-22T08:12:45Z</time>
      </trkpt>
      <trkpt lat="43.58886" lon="6.38115">
        <ele>628.8</ele>
        <time>2026-02-22T08:12:46Z</time>
      </trkpt>
      <trkpt lat="43.58887" lon="6.38114">
        <ele>628.9</ele>
        <time>2026-02-22T08:12:47Z</time>
      </trkpt>
      <trkpt lat="43.58887" lon="6.38112">
        <ele>628.9</ele>
        <time>2026-02-22T08:12:48Z</time>
      </trkpt>
      <trkpt lat="43.58887" lon="6.38109">
        <ele>629</ele>
        <time>2026-02-22T08:12:49Z</time>
      </trkpt>
      <trkpt lat="43.58886" lon="6.38104">
        <ele>628.9</ele>
        <time>2026-02-22T08:12:50Z</time>
      </trkpt>
      <trkpt lat="43.58884" lon="6.38102">
        <ele>629.1</ele>
        <time>2026-02-22T08:12:51Z</time>
      </trkpt>
      <trkpt lat="43.58885" lon="6.381">
        <ele>629.2</ele>
        <time>2026-02-22T08:12:52Z</time>
      </trkpt>
      <trkpt lat="43.58885" lon="6.381">
        <ele>629.3</ele>
        <time>2026-02-22T08:12:53Z</time>
      </trkpt>
      <trkpt lat="43.58885" lon="6.38099">
        <ele>629.3</ele>
        <time>2026-02-22T08:12:54Z</time>
      </trkpt>
      <trkpt lat="43.58886" lon="6.38099">
        <ele>629.2</ele>
        <time>2026-02-22T08:12:55Z</time>
      </trkpt>
      <trkpt lat="43.58886" lon="6.38098">
        <ele>629.2</ele>
        <time>2026-02-22T08:12:56Z</time>
      </trkpt>
      <trkpt lat="43.58887" lon="6.38098">
        <ele>629.1</ele>
        <time>2026-02-22T08:12:57Z</time>
      </trkpt>
      <trkpt lat="43.58887" lon="6.38097">
        <ele>629.1</ele>
        <time>2026-02-22T08:12:58Z</time>
      </trkpt>
      <trkpt lat="43.58887" lon="6.38097">
        <ele>629</ele>
        <time>2026-02-22T08:12:59Z</time>
      </trkpt>
      <trkpt lat="43.58887" lon="6.38097">
        <ele>629</ele>
        <time>2026-02-22T08:13:00Z</time>
      </trkpt>
      <trkpt lat="43.58886" lon="6.38097">
        <ele>628.9</ele>
        <time>2026-02-22T08:13:01Z</time>
      </trkpt>
      <trkpt lat="43.58887" lon="6.38096">
        <ele>628.9</ele>
        <time>2026-02-22T08:13:02Z</time>
      </trkpt>
      <trkpt lat="43.58889" lon="6.38096">
        <ele>628.9</ele>
        <time>2026-02-22T08:13:03Z</time>
      </trkpt>
      <trkpt lat="43.58889" lon="6.38095">
        <ele>628.9</ele>
        <time>2026-02-22T08:13:04Z</time>
      </trkpt>
      <trkpt lat="43.5889" lon="6.38095">
        <ele>628.8</ele>
        <time>2026-02-22T08:13:05Z</time>
      </trkpt>
      <trkpt lat="43.5889" lon="6.38095">
        <ele>628.8</ele>
        <time>2026-02-22T08:13:06Z</time>
      </trkpt>
      <trkpt lat="43.58891" lon="6.38095">
        <ele>628.8</ele>
        <time>2026-02-22T08:13:07Z</time>
      </trkpt>
      <trkpt lat="43.58891" lon="6.38095">
        <ele>628.7</ele>
        <time>2026-02-22T08:13:08Z</time>
      </trkpt>
      <trkpt lat="43.58891" lon="6.38094">
        <ele>628.7</ele>
        <time>2026-02-22T08:13:09Z</time>
      </trkpt>
      <trkpt lat="43.58892" lon="6.38094">
        <ele>628.6</ele>
        <time>2026-02-22T08:13:10Z</time>
      </trkpt>
      <trkpt lat="43.58893" lon="6.38094">
        <ele>628.6</ele>
        <time>2026-02-22T08:13:11Z</time>
      </trkpt>
      <trkpt lat="43.58893" lon="6.38094">
        <ele>628.5</ele>
        <time>2026-02-22T08:13:12Z</time>
      </trkpt>
      <trkpt lat="43.58893" lon="6.38094">
        <ele>628.4</ele>
        <time>2026-02-22T08:13:13Z</time>
      </trkpt>
      <trkpt lat="43.58894" lon="6.38094">
        <ele>628.4</ele>
        <time>2026-02-22T08:13:14Z</time>
      </trkpt>
      <trkpt lat="43.58895" lon="6.38095">
        <ele>628.3</ele>
        <time>2026-02-22T08:13:15Z</time>
      </trkpt>
      <trkpt lat="43.58895" lon="6.38095">
        <ele>628.3</ele>
        <time>2026-02-22T08:13:16Z</time>
      </trkpt>
      <trkpt lat="43.58895" lon="6.38095">
        <ele>628.3</ele>
        <time>2026-02-22T08:13:17Z</time>
      </trkpt>
      <trkpt lat="43.58895" lon="6.38094">
        <ele>628.2</ele>
        <time>2026-02-22T08:13:18Z</time>
      </trkpt>
      <trkpt lat="43.58896" lon="6.38094">
        <ele>628.2</ele>
        <time>2026-02-22T08:13:19Z</time>
      </trkpt>
      <trkpt lat="43.58896" lon="6.38094">
        <ele>628.1</ele>
        <time>2026-02-22T08:13:20Z</time>
      </trkpt>
      <trkpt lat="43.58896" lon="6.38093">
        <ele>628.1</ele>
        <time>2026-02-22T08:13:21Z</time>
      </trkpt>
      <trkpt lat="43.58895" lon="6.38094">
        <ele>628.1</ele>
        <time>2026-02-22T08:13:22Z</time>
      </trkpt>
      <trkpt lat="43.58895" lon="6.38094">
        <ele>628</ele>
        <time>2026-02-22T08:13:23Z</time>
      </trkpt>
      <trkpt lat="43.58895" lon="6.38093">
        <ele>628</ele>
        <time>2026-02-22T08:13:24Z</time>
      </trkpt>
      <trkpt lat="43.58895" lon="6.38093">
        <ele>628</ele>
        <time>2026-02-22T08:13:25Z</time>
      </trkpt>
      <trkpt lat="43.58894" lon="6.38093">
        <ele>628</ele>
        <time>2026-02-22T08:13:26Z</time>
      </trkpt>
      <trkpt lat="43.58893" lon="6.38093">
        <ele>628</ele>
        <time>2026-02-22T08:13:27Z</time>
      </trkpt>
      <trkpt lat="43.58893" lon="6.38093">
        <ele>628.1</ele>
        <time>2026-02-22T08:13:28Z</time>
      </trkpt>
      <trkpt lat="43.58894" lon="6.38094">
        <ele>628.1</ele>
        <time>2026-02-22T08:13:29Z</time>
      </trkpt>
      <trkpt lat="43.58894" lon="6.38094">
        <ele>628.2</ele>
        <time>2026-02-22T08:13:30Z</time>
      </trkpt>
      <trkpt lat="43.58894" lon="6.38094">
        <ele>628.3</ele>
        <time>2026-02-22T08:13:31Z</time>
      </trkpt>
      <trkpt lat="43.58894" lon="6.38095">
        <ele>628.3</ele>
        <time>2026-02-22T08:13:32Z</time>
      </trkpt>
      <trkpt lat="43.58893" lon="6.38095">
        <ele>628.2</ele>
        <time>2026-02-22T08:13:33Z</time>
      </trkpt>
      <trkpt lat="43.58893" lon="6.38096">
        <ele>628.1</ele>
        <time>2026-02-22T08:13:34Z</time>
      </trkpt>
      <trkpt lat="43.58894" lon="6.38096">
        <ele>628.2</ele>
        <time>2026-02-22T08:13:35Z</time>
      </trkpt>
      <trkpt lat="43.58894" lon="6.38096">
        <ele>628.1</ele>
        <time>2026-02-22T08:13:36Z</time>
      </trkpt>
      <trkpt lat="43.58894" lon="6.38096">
        <ele>628</ele>
        <time>2026-02-22T08:13:37Z</time>
      </trkpt>
      <trkpt lat="43.58894" lon="6.38096">
        <ele>628.1</ele>
        <time>2026-02-22T08:13:38Z</time>
      </trkpt>
      <trkpt lat="43.58894" lon="6.38096">
        <ele>628.2</ele>
        <time>2026-02-22T08:13:39Z</time>
      </trkpt>
      <trkpt lat="43.58894" lon="6.38096">
        <ele>628.2</ele>
        <time>2026-02-22T08:13:40Z</time>
      </trkpt>
      <trkpt lat="43.58894" lon="6.38095">
        <ele>628.2</ele>
        <time>2026-02-22T08:13:41Z</time>
      </trkpt>
      <trkpt lat="43.58894" lon="6.38095">
        <ele>628.3</ele>
        <time>2026-02-22T08:13:42Z</time>
      </trkpt>
      <trkpt lat="43.58892" lon="6.38096">
        <ele>628.3</ele>
        <time>2026-02-22T08:13:43Z</time>
      </trkpt>
      <trkpt lat="43.58892" lon="6.38095">
        <ele>628.4</ele>
        <time>2026-02-22T08:13:44Z</time>
      </trkpt>
      <trkpt lat="43.58892" lon="6.38095">
        <ele>628.4</ele>
        <time>2026-02-22T08:13:45Z</time>
      </trkpt>
      <trkpt lat="43.58892" lon="6.38095">
        <ele>628.4</ele>
        <time>2026-02-22T08:13:46Z</time>
      </trkpt>
      <trkpt lat="43.58891" lon="6.38095">
        <ele>628.5</ele>
        <time>2026-02-22T08:13:47Z</time>
      </trkpt>
      <trkpt lat="43.58891" lon="6.38096">
        <ele>628.5</ele>
        <time>2026-02-22T08:13:48Z</time>
      </trkpt>
      <trkpt lat="43.58891" lon="6.38095">
        <ele>628.5</ele>
        <time>2026-02-22T08:13:49Z</time>
      </trkpt>
      <trkpt lat="43.58892" lon="6.38095">
        <ele>628.5</ele>
        <time>2026-02-22T08:13:50Z</time>
      </trkpt>
      <trkpt lat="43.58892" lon="6.38095">
        <ele>628.5</ele>
        <time>2026-02-22T08:13:51Z</time>
      </trkpt>
      <trkpt lat="43.58892" lon="6.38095">
        <ele>628.5</ele>
        <time>2026-02-22T08:13:52Z</time>
      </trkpt>
      <trkpt lat="43.58893" lon="6.38095">
        <ele>628.6</ele>
        <time>2026-02-22T08:13:53Z</time>
      </trkpt>
      <trkpt lat="43.5889" lon="6.38098">
        <ele>628.5</ele>
        <time>2026-02-22T08:13:54Z</time>
      </trkpt>
      <trkpt lat="43.58891" lon="6.38098">
        <ele>628.4</ele>
        <time>2026-02-22T08:13:55Z</time>
      </trkpt>
      <trkpt lat="43.58891" lon="6.38098">
        <ele>628.4</ele>
        <time>2026-02-22T08:13:56Z</time>
      </trkpt>
      <trkpt lat="43.58891" lon="6.38097">
        <ele>628.4</ele>
        <time>2026-02-22T08:13:57Z</time>
      </trkpt>
      <trkpt lat="43.58892" lon="6.38097">
        <ele>628.4</ele>
        <time>2026-02-22T08:13:58Z</time>
      </trkpt>
      <trkpt lat="43.58892" lon="6.38097">
        <ele>628.3</ele>
        <time>2026-02-22T08:13:59Z</time>
      </trkpt>
      <trkpt lat="43.58892" lon="6.38098">
        <ele>628.3</ele>
        <time>2026-02-22T08:14:00Z</time>
      </trkpt>
      <trkpt lat="43.58892" lon="6.38098">
        <ele>628.3</ele>
        <time>2026-02-22T08:14:01Z</time>
      </trkpt>
      <trkpt lat="43.58892" lon="6.38098">
        <ele>628.3</ele>
        <time>2026-02-22T08:14:02Z</time>
      </trkpt>
      <trkpt lat="43.58892" lon="6.38097">
        <ele>628.3</ele>
        <time>2026-02-22T08:14:03Z</time>
      </trkpt>
      <trkpt lat="43.58892" lon="6.38097">
        <ele>628.3</ele>
        <time>2026-02-22T08:14:04Z</time>
      </trkpt>
      <trkpt lat="43.58892" lon="6.38096">
        <ele>628.3</ele>
        <time>2026-02-22T08:14:05Z</time>
      </trkpt>
      <trkpt lat="43.58892" lon="6.38096">
        <ele>628.3</ele>
        <time>2026-02-22T08:14:06Z</time>
      </trkpt>
      <trkpt lat="43.58892" lon="6.38097">
        <ele>628.2</ele>
        <time>2026-02-22T08:14:07Z</time>
      </trkpt>
      <trkpt lat="43.58892" lon="6.38097">
        <ele>628.2</ele>
        <time>2026-02-22T08:14:08Z</time>
      </trkpt>
      <trkpt lat="43.58891" lon="6.38099">
        <ele>628.2</ele>
        <time>2026-02-22T08:14:09Z</time>
      </trkpt>
      <trkpt lat="43.58891" lon="6.38099">
        <ele>628.2</ele>
        <time>2026-02-22T08:14:10Z</time>
      </trkpt>
      <trkpt lat="43.58891" lon="6.38098">
        <ele>628.2</ele>
        <time>2026-02-22T08:14:11Z</time>
      </trkpt>
      <trkpt lat="43.58891" lon="6.38098">
        <ele>628.1</ele>
        <time>2026-02-22T08:14:12Z</time>
      </trkpt>
      <trkpt lat="43.58891" lon="6.38097">
        <ele>628.1</ele>
        <time>2026-02-22T08:14:13Z</time>
      </trkpt>
      <trkpt lat="43.58892" lon="6.38097">
        <ele>628.1</ele>
        <time>2026-02-22T08:14:14Z</time>
      </trkpt>
      <trkpt lat="43.58893" lon="6.38096">
        <ele>628.1</ele>
        <time>2026-02-22T08:14:15Z</time>
      </trkpt>
      <trkpt lat="43.58894" lon="6.38095">
        <ele>628.1</ele>
        <time>2026-02-22T08:14:16Z</time>
      </trkpt>
      <trkpt lat="43.58894" lon="6.38094">
        <ele>628</ele>
        <time>2026-02-22T08:14:17Z</time>
      </trkpt>
      <trkpt lat="43.58895" lon="6.38093">
        <ele>628</ele>
        <time>2026-02-22T08:14:18Z</time>
      </trkpt>
      <trkpt lat="43.58895" lon="6.38093">
        <ele>628</ele>
        <time>2026-02-22T08:14:19Z</time>
      </trkpt>
      <trkpt lat="43.58896" lon="6.38092">
        <ele>627.9</ele>
        <time>2026-02-22T08:14:20Z</time>
      </trkpt>
      <trkpt lat="43.58897" lon="6.38092">
        <ele>627.9</ele>
        <time>2026-02-22T08:14:21Z</time>
      </trkpt>
      <trkpt lat="43.58898" lon="6.38092">
        <ele>627.8</ele>
        <time>2026-02-22T08:14:22Z</time>
      </trkpt>
      <trkpt lat="43.58898" lon="6.38091">
        <ele>627.8</ele>
        <time>2026-02-22T08:14:23Z</time>
      </trkpt>
      <trkpt lat="43.58899" lon="6.3809">
        <ele>627.7</ele>
        <time>2026-02-22T08:14:24Z</time>
      </trkpt>
      <trkpt lat="43.589" lon="6.38089">
        <ele>627.6</ele>
        <time>2026-02-22T08:14:25Z</time>
      </trkpt>
      <trkpt lat="43.58901" lon="6.38088">
        <ele>627.5</ele>
        <time>2026-02-22T08:14:26Z</time>
      </trkpt>
      <trkpt lat="43.58902" lon="6.38087">
        <ele>627.6</ele>
        <time>2026-02-22T08:14:27Z</time>
      </trkpt>
      <trkpt lat="43.58903" lon="6.38085">
        <ele>627.6</ele>
        <time>2026-02-22T08:14:28Z</time>
      </trkpt>
      <trkpt lat="43.58903" lon="6.38083">
        <ele>627.6</ele>
        <time>2026-02-22T08:14:29Z</time>
      </trkpt>
      <trkpt lat="43.58904" lon="6.38081">
        <ele>627.6</ele>
        <time>2026-02-22T08:14:30Z</time>
      </trkpt>
      <trkpt lat="43.58905" lon="6.38079">
        <ele>627.6</ele>
        <time>2026-02-22T08:14:31Z</time>
      </trkpt>
      <trkpt lat="43.58906" lon="6.38078">
        <ele>627.6</ele>
        <time>2026-02-22T08:14:32Z</time>
      </trkpt>
      <trkpt lat="43.58907" lon="6.38077">
        <ele>627.4</ele>
        <time>2026-02-22T08:14:33Z</time>
      </trkpt>
      <trkpt lat="43.58908" lon="6.38075">
        <ele>627.4</ele>
        <time>2026-02-22T08:14:34Z</time>
      </trkpt>
      <trkpt lat="43.58907" lon="6.38074">
        <ele>627.2</ele>
        <time>2026-02-22T08:14:35Z</time>
      </trkpt>
      <trkpt lat="43.58908" lon="6.38071">
        <ele>627.1</ele>
        <time>2026-02-22T08:14:36Z</time>
      </trkpt>
      <trkpt lat="43.58908" lon="6.3807">
        <ele>627</ele>
        <time>2026-02-22T08:14:37Z</time>
      </trkpt>
      <trkpt lat="43.58908" lon="6.38068">
        <ele>626.9</ele>
        <time>2026-02-22T08:14:38Z</time>
      </trkpt>
      <trkpt lat="43.58909" lon="6.38067">
        <ele>626.9</ele>
        <time>2026-02-22T08:14:39Z</time>
      </trkpt>
      <trkpt lat="43.5891" lon="6.38066">
        <ele>626.8</ele>
        <time>2026-02-22T08:14:40Z</time>
      </trkpt>
      <trkpt lat="43.5891" lon="6.38064">
        <ele>626.8</ele>
        <time>2026-02-22T08:14:41Z</time>
      </trkpt>
      <trkpt lat="43.58911" lon="6.38063">
        <ele>626.8</ele>
        <time>2026-02-22T08:14:42Z</time>
      </trkpt>
      <trkpt lat="43.58913" lon="6.38061">
        <ele>626.6</ele>
        <time>2026-02-22T08:14:43Z</time>
      </trkpt>
      <trkpt lat="43.58913" lon="6.3806">
        <ele>626.6</ele>
        <time>2026-02-22T08:14:44Z</time>
      </trkpt>
      <trkpt lat="43.58914" lon="6.3806">
        <ele>626.7</ele>
        <time>2026-02-22T08:14:45Z</time>
      </trkpt>
      <trkpt lat="43.58915" lon="6.38059">
        <ele>626.7</ele>
        <time>2026-02-22T08:14:46Z</time>
      </trkpt>
      <trkpt lat="43.58916" lon="6.38059">
        <ele>626.7</ele>
        <time>2026-02-22T08:14:47Z</time>
      </trkpt>
      <trkpt lat="43.58918" lon="6.38059">
        <ele>626.7</ele>
        <time>2026-02-22T08:14:48Z</time>
      </trkpt>
      <trkpt lat="43.58919" lon="6.38059">
        <ele>626.7</ele>
        <time>2026-02-22T08:14:49Z</time>
      </trkpt>
      <trkpt lat="43.58919" lon="6.38058">
        <ele>626.7</ele>
        <time>2026-02-22T08:14:50Z</time>
      </trkpt>
      <trkpt lat="43.5892" lon="6.38058">
        <ele>626.8</ele>
        <time>2026-02-22T08:14:51Z</time>
      </trkpt>
      <trkpt lat="43.58921" lon="6.38058">
        <ele>626.8</ele>
        <time>2026-02-22T08:14:52Z</time>
      </trkpt>
      <trkpt lat="43.58922" lon="6.38058">
        <ele>626.8</ele>
        <time>2026-02-22T08:14:53Z</time>
      </trkpt>
      <trkpt lat="43.58923" lon="6.38058">
        <ele>626.8</ele>
        <time>2026-02-22T08:14:54Z</time>
      </trkpt>
      <trkpt lat="43.58924" lon="6.38058">
        <ele>626.9</ele>
        <time>2026-02-22T08:14:55Z</time>
      </trkpt>
      <trkpt lat="43.58925" lon="6.38058">
        <ele>627</ele>
        <time>2026-02-22T08:14:56Z</time>
      </trkpt>
      <trkpt lat="43.58926" lon="6.38057">
        <ele>627.1</ele>
        <time>2026-02-22T08:14:57Z</time>
      </trkpt>
      <trkpt lat="43.58926" lon="6.38055">
        <ele>627.1</ele>
        <time>2026-02-22T08:14:58Z</time>
      </trkpt>
      <trkpt lat="43.58926" lon="6.38055">
        <ele>627.2</ele>
        <time>2026-02-22T08:14:59Z</time>
      </trkpt>
      <trkpt lat="43.58926" lon="6.38054">
        <ele>627.3</ele>
        <time>2026-02-22T08:15:00Z</time>
      </trkpt>
      <trkpt lat="43.58926" lon="6.38054">
        <ele>627.4</ele>
        <time>2026-02-22T08:15:01Z</time>
      </trkpt>
      <trkpt lat="43.58926" lon="6.38054">
        <ele>627.4</ele>
        <time>2026-02-22T08:15:02Z</time>
      </trkpt>
      <trkpt lat="43.58928" lon="6.38054">
        <ele>627.6</ele>
        <time>2026-02-22T08:15:03Z</time>
      </trkpt>
      <trkpt lat="43.5893" lon="6.38054">
        <ele>627.8</ele>
        <time>2026-02-22T08:15:04Z</time>
      </trkpt>
      <trkpt lat="43.58932" lon="6.38055">
        <ele>627.9</ele>
        <time>2026-02-22T08:15:05Z</time>
      </trkpt>
      <trkpt lat="43.58934" lon="6.38054">
        <ele>628.1</ele>
        <time>2026-02-22T08:15:06Z</time>
      </trkpt>
      <trkpt lat="43.58935" lon="6.38054">
        <ele>628.3</ele>
        <time>2026-02-22T08:15:07Z</time>
      </trkpt>
      <trkpt lat="43.58936" lon="6.38054">
        <ele>628.4</ele>
        <time>2026-02-22T08:15:08Z</time>
      </trkpt>
      <trkpt lat="43.58937" lon="6.38054">
        <ele>628.7</ele>
        <time>2026-02-22T08:15:09Z</time>
      </trkpt>
      <trkpt lat="43.5894" lon="6.38052">
        <ele>628.8</ele>
        <time>2026-02-22T08:15:10Z</time>
      </trkpt>
      <trkpt lat="43.58941" lon="6.38051">
        <ele>629</ele>
        <time>2026-02-22T08:15:11Z</time>
      </trkpt>
      <trkpt lat="43.58942" lon="6.3805">
        <ele>629.1</ele>
        <time>2026-02-22T08:15:12Z</time>
      </trkpt>
      <trkpt lat="43.58944" lon="6.38049">
        <ele>629</ele>
        <time>2026-02-22T08:15:13Z</time>
      </trkpt>
      <trkpt lat="43.58945" lon="6.38049">
        <ele>629.1</ele>
        <time>2026-02-22T08:15:14Z</time>
      </trkpt>
      <trkpt lat="43.58946" lon="6.3805">
        <ele>629.1</ele>
        <time>2026-02-22T08:15:15Z</time>
      </trkpt>
      <trkpt lat="43.58944" lon="6.38049">
        <ele>629.2</ele>
        <time>2026-02-22T08:15:16Z</time>
      </trkpt>
      <trkpt lat="43.58945" lon="6.38048">
        <ele>629.2</ele>
        <time>2026-02-22T08:15:17Z</time>
      </trkpt>
      <trkpt lat="43.58947" lon="6.38047">
        <ele>629.2</ele>
        <time>2026-02-22T08:15:18Z</time>
      </trkpt>
      <trkpt lat="43.58948" lon="6.38046">
        <ele>629.2</ele>
        <time>2026-02-22T08:15:19Z</time>
      </trkpt>
      <trkpt lat="43.58949" lon="6.38045">
        <ele>629.2</ele>
        <time>2026-02-22T08:15:20Z</time>
      </trkpt>
      <trkpt lat="43.58949" lon="6.38044">
        <ele>629.3</ele>
        <time>2026-02-22T08:15:21Z</time>
      </trkpt>
      <trkpt lat="43.5895" lon="6.38043">
        <ele>629.3</ele>
        <time>2026-02-22T08:15:22Z</time>
      </trkpt>
      <trkpt lat="43.58951" lon="6.38042">
        <ele>629.4</ele>
        <time>2026-02-22T08:15:23Z</time>
      </trkpt>
      <trkpt lat="43.58952" lon="6.38041">
        <ele>629.5</ele>
        <time>2026-02-22T08:15:24Z</time>
      </trkpt>
      <trkpt lat="43.58952" lon="6.3804">
        <ele>629.4</ele>
        <time>2026-02-22T08:15:25Z</time>
      </trkpt>
      <trkpt lat="43.58953" lon="6.38038">
        <ele>629.5</ele>
        <time>2026-02-22T08:15:26Z</time>
      </trkpt>
      <trkpt lat="43.58953" lon="6.38036">
        <ele>629.6</ele>
        <time>2026-02-22T08:15:27Z</time>
      </trkpt>
      <trkpt lat="43.58953" lon="6.38036">
        <ele>629.7</ele>
        <time>2026-02-22T08:15:28Z</time>
      </trkpt>
      <trkpt lat="43.58954" lon="6.38035">
        <ele>629.7</ele>
        <time>2026-02-22T08:15:29Z</time>
      </trkpt>
      <trkpt lat="43.58955" lon="6.38035">
        <ele>629.8</ele>
        <time>2026-02-22T08:15:30Z</time>
      </trkpt>
      <trkpt lat="43.58955" lon="6.38034">
        <ele>629.8</ele>
        <time>2026-02-22T08:15:31Z</time>
      </trkpt>
      <trkpt lat="43.58956" lon="6.38034">
        <ele>629.9</ele>
        <time>2026-02-22T08:15:32Z</time>
      </trkpt>
      <trkpt lat="43.58957" lon="6.38033">
        <ele>629.9</ele>
        <time>2026-02-22T08:15:33Z</time>
      </trkpt>
      <trkpt lat="43.58959" lon="6.38032">
        <ele>630</ele>
        <time>2026-02-22T08:15:34Z</time>
      </trkpt>
      <trkpt lat="43.58961" lon="6.3803">
        <ele>630.1</ele>
        <time>2026-02-22T08:15:35Z</time>
      </trkpt>
      <trkpt lat="43.58961" lon="6.38027">
        <ele>630.2</ele>
        <time>2026-02-22T08:15:36Z</time>
      </trkpt>
      <trkpt lat="43.58962" lon="6.38026">
        <ele>630.4</ele>
        <time>2026-02-22T08:15:37Z</time>
      </trkpt>
      <trkpt lat="43.58962" lon="6.38023">
        <ele>630.6</ele>
        <time>2026-02-22T08:15:38Z</time>
      </trkpt>
      <trkpt lat="43.58964" lon="6.38023">
        <ele>630.8</ele>
        <time>2026-02-22T08:15:39Z</time>
      </trkpt>
      <trkpt lat="43.58965" lon="6.38022">
        <ele>630.9</ele>
        <time>2026-02-22T08:15:40Z</time>
      </trkpt>
      <trkpt lat="43.58966" lon="6.38021">
        <ele>631.1</ele>
        <time>2026-02-22T08:15:41Z</time>
      </trkpt>
      <trkpt lat="43.58967" lon="6.3802">
        <ele>631.2</ele>
        <time>2026-02-22T08:15:42Z</time>
      </trkpt>
      <trkpt lat="43.58967" lon="6.38019">
        <ele>631.4</ele>
        <time>2026-02-22T08:15:43Z</time>
      </trkpt>
      <trkpt lat="43.58967" lon="6.38019">
        <ele>631.6</ele>
        <time>2026-02-22T08:15:44Z</time>
      </trkpt>
      <trkpt lat="43.58967" lon="6.38016">
        <ele>631.7</ele>
        <time>2026-02-22T08:15:45Z</time>
      </trkpt>
      <trkpt lat="43.58966" lon="6.38016">
        <ele>631.7</ele>
        <time>2026-02-22T08:15:46Z</time>
      </trkpt>
      <trkpt lat="43.58966" lon="6.38015">
        <ele>631.7</ele>
        <time>2026-02-22T08:15:47Z</time>
      </trkpt>
      <trkpt lat="43.58966" lon="6.38016">
        <ele>631.7</ele>
        <time>2026-02-22T08:15:48Z</time>
      </trkpt>
      <trkpt lat="43.58965" lon="6.38016">
        <ele>631.7</ele>
        <time>2026-02-22T08:15:49Z</time>
      </trkpt>
      <trkpt lat="43.58965" lon="6.38016">
        <ele>631.7</ele>
        <time>2026-02-22T08:15:50Z</time>
      </trkpt>
      <trkpt lat="43.58964" lon="6.38017">
        <ele>631.8</ele>
        <time>2026-02-22T08:15:51Z</time>
      </trkpt>
      <trkpt lat="43.58964" lon="6.38017">
        <ele>631.6</ele>
        <time>2026-02-22T08:15:52Z</time>
      </trkpt>
      <trkpt lat="43.58964" lon="6.38017">
        <ele>631.6</ele>
        <time>2026-02-22T08:15:53Z</time>
      </trkpt>
      <trkpt lat="43.58964" lon="6.38018">
        <ele>631.4</ele>
        <time>2026-02-22T08:15:54Z</time>
      </trkpt>
      <trkpt lat="43.58964" lon="6.38019">
        <ele>631.3</ele>
        <time>2026-02-22T08:15:55Z</time>
      </trkpt>
      <trkpt lat="43.58963" lon="6.38019">
        <ele>631.1</ele>
        <time>2026-02-22T08:15:56Z</time>
      </trkpt>
      <trkpt lat="43.58962" lon="6.3802">
        <ele>630.9</ele>
        <time>2026-02-22T08:15:57Z</time>
      </trkpt>
      <trkpt lat="43.58962" lon="6.38021">
        <ele>630.7</ele>
        <time>2026-02-22T08:15:58Z</time>
      </trkpt>
      <trkpt lat="43.58963" lon="6.38021">
        <ele>630.5</ele>
        <time>2026-02-22T08:15:59Z</time>
      </trkpt>
      <trkpt lat="43.58965" lon="6.38023">
        <ele>630.4</ele>
        <time>2026-02-22T08:16:00Z</time>
      </trkpt>
      <trkpt lat="43.58965" lon="6.38023">
        <ele>630.3</ele>
        <time>2026-02-22T08:16:01Z</time>
      </trkpt>
      <trkpt lat="43.58966" lon="6.38023">
        <ele>630.2</ele>
        <time>2026-02-22T08:16:02Z</time>
      </trkpt>
      <trkpt lat="43.58966" lon="6.38022">
        <ele>630.1</ele>
        <time>2026-02-22T08:16:03Z</time>
      </trkpt>
      <trkpt lat="43.58965" lon="6.38023">
        <ele>630.1</ele>
        <time>2026-02-22T08:16:04Z</time>
      </trkpt>
      <trkpt lat="43.58965" lon="6.38023">
        <ele>630</ele>
        <time>2026-02-22T08:16:05Z</time>
      </trkpt>
      <trkpt lat="43.58966" lon="6.38024">
        <ele>630</ele>
        <time>2026-02-22T08:16:06Z</time>
      </trkpt>
      <trkpt lat="43.58966" lon="6.38024">
        <ele>629.9</ele>
        <time>2026-02-22T08:16:07Z</time>
      </trkpt>
      <trkpt lat="43.58966" lon="6.38024">
        <ele>630</ele>
        <time>2026-02-22T08:16:08Z</time>
      </trkpt>
      <trkpt lat="43.58968" lon="6.38026">
        <ele>630</ele>
        <time>2026-02-22T08:16:09Z</time>
      </trkpt>
      <trkpt lat="43.58968" lon="6.38025">
        <ele>630.1</ele>
        <time>2026-02-22T08:16:10Z</time>
      </trkpt>
      <trkpt lat="43.5897" lon="6.38024">
        <ele>630.2</ele>
        <time>2026-02-22T08:16:11Z</time>
      </trkpt>
      <trkpt lat="43.58971" lon="6.38024">
        <ele>630.3</ele>
        <time>2026-02-22T08:16:12Z</time>
      </trkpt>
      <trkpt lat="43.58971" lon="6.38024">
        <ele>630.3</ele>
        <time>2026-02-22T08:16:13Z</time>
      </trkpt>
      <trkpt lat="43.58972" lon="6.38025">
        <ele>630.3</ele>
        <time>2026-02-22T08:16:14Z</time>
      </trkpt>
      <trkpt lat="43.58973" lon="6.38025">
        <ele>630.2</ele>
        <time>2026-02-22T08:16:15Z</time>
      </trkpt>
      <trkpt lat="43.58975" lon="6.38025">
        <ele>630.3</ele>
        <time>2026-02-22T08:16:16Z</time>
      </trkpt>
      <trkpt lat="43.58977" lon="6.38026">
        <ele>630.2</ele>
        <time>2026-02-22T08:16:17Z</time>
      </trkpt>
      <trkpt lat="43.58978" lon="6.38025">
        <ele>630.1</ele>
        <time>2026-02-22T08:16:18Z</time>
      </trkpt>
      <trkpt lat="43.58978" lon="6.38025">
        <ele>630</ele>
        <time>2026-02-22T08:16:19Z</time>
      </trkpt>
      <trkpt lat="43.5898" lon="6.38025">
        <ele>629.9</ele>
        <time>2026-02-22T08:16:20Z</time>
      </trkpt>
      <trkpt lat="43.5898" lon="6.38024">
        <ele>629.8</ele>
        <time>2026-02-22T08:16:21Z</time>
      </trkpt>
      <trkpt lat="43.58982" lon="6.38021">
        <ele>629.8</ele>
        <time>2026-02-22T08:16:22Z</time>
      </trkpt>
      <trkpt lat="43.58983" lon="6.38019">
        <ele>629.8</ele>
        <time>2026-02-22T08:16:23Z</time>
      </trkpt>
      <trkpt lat="43.58983" lon="6.38018">
        <ele>629.8</ele>
        <time>2026-02-22T08:16:24Z</time>
      </trkpt>
      <trkpt lat="43.58984" lon="6.38017">
        <ele>629.8</ele>
        <time>2026-02-22T08:16:25Z</time>
      </trkpt>
      <trkpt lat="43.58985" lon="6.38016">
        <ele>629.8</ele>
        <time>2026-02-22T08:16:26Z</time>
      </trkpt>
      <trkpt lat="43.58986" lon="6.38015">
        <ele>629.7</ele>
        <time>2026-02-22T08:16:27Z</time>
      </trkpt>
      <trkpt lat="43.58987" lon="6.38014">
        <ele>629.8</ele>
        <time>2026-02-22T08:16:28Z</time>
      </trkpt>
      <trkpt lat="43.58988" lon="6.38014">
        <ele>629.8</ele>
        <time>2026-02-22T08:16:29Z</time>
      </trkpt>
      <trkpt lat="43.5899" lon="6.38014">
        <ele>629.8</ele>
        <time>2026-02-22T08:16:30Z</time>
      </trkpt>
      <trkpt lat="43.58991" lon="6.38014">
        <ele>629.8</ele>
        <time>2026-02-22T08:16:31Z</time>
      </trkpt>
      <trkpt lat="43.58992" lon="6.38014">
        <ele>629.8</ele>
        <time>2026-02-22T08:16:32Z</time>
      </trkpt>
      <trkpt lat="43.58993" lon="6.38013">
        <ele>629.8</ele>
        <time>2026-02-22T08:16:33Z</time>
      </trkpt>
      <trkpt lat="43.58995" lon="6.38013">
        <ele>629.8</ele>
        <time>2026-02-22T08:16:34Z</time>
      </trkpt>
      <trkpt lat="43.58995" lon="6.38012">
        <ele>629.8</ele>
        <time>2026-02-22T08:16:35Z</time>
      </trkpt>
      <trkpt lat="43.58995" lon="6.38012">
        <ele>629.7</ele>
        <time>2026-02-22T08:16:36Z</time>
      </trkpt>
      <trkpt lat="43.58996" lon="6.38012">
        <ele>629.7</ele>
        <time>2026-02-22T08:16:37Z</time>
      </trkpt>
      <trkpt lat="43.58997" lon="6.38012">
        <ele>629.7</ele>
        <time>2026-02-22T08:16:38Z</time>
      </trkpt>
      <trkpt lat="43.58998" lon="6.38011">
        <ele>629.7</ele>
        <time>2026-02-22T08:16:39Z</time>
      </trkpt>
      <trkpt lat="43.58999" lon="6.3801">
        <ele>629.7</ele>
        <time>2026-02-22T08:16:40Z</time>
      </trkpt>
      <trkpt lat="43.59001" lon="6.38009">
        <ele>629.7</ele>
        <time>2026-02-22T08:16:41Z</time>
      </trkpt>
      <trkpt lat="43.59002" lon="6.38009">
        <ele>629.7</ele>
        <time>2026-02-22T08:16:42Z</time>
      </trkpt>
      <trkpt lat="43.59003" lon="6.38008">
        <ele>629.8</ele>
        <time>2026-02-22T08:16:43Z</time>
      </trkpt>
      <trkpt lat="43.59003" lon="6.38006">
        <ele>629.9</ele>
        <time>2026-02-22T08:16:44Z</time>
      </trkpt>
      <trkpt lat="43.59004" lon="6.38006">
        <ele>630</ele>
        <time>2026-02-22T08:16:45Z</time>
      </trkpt>
      <trkpt lat="43.59004" lon="6.38005">
        <ele>630.1</ele>
        <time>2026-02-22T08:16:46Z</time>
      </trkpt>
      <trkpt lat="43.59005" lon="6.38005">
        <ele>630.1</ele>
        <time>2026-02-22T08:16:47Z</time>
      </trkpt>
      <trkpt lat="43.59008" lon="6.38005">
        <ele>630.2</ele>
        <time>2026-02-22T08:16:48Z</time>
      </trkpt>
      <trkpt lat="43.59011" lon="6.38005">
        <ele>630.2</ele>
        <time>2026-02-22T08:16:49Z</time>
      </trkpt>
      <trkpt lat="43.59012" lon="6.38004">
        <ele>630.1</ele>
        <time>2026-02-22T08:16:50Z</time>
      </trkpt>
      <trkpt lat="43.59013" lon="6.38004">
        <ele>630.1</ele>
        <time>2026-02-22T08:16:51Z</time>
      </trkpt>
      <trkpt lat="43.59015" lon="6.38003">
        <ele>630.1</ele>
        <time>2026-02-22T08:16:52Z</time>
      </trkpt>
      <trkpt lat="43.59015" lon="6.38">
        <ele>630.1</ele>
        <time>2026-02-22T08:16:53Z</time>
      </trkpt>
      <trkpt lat="43.59016" lon="6.37998">
        <ele>630.1</ele>
        <time>2026-02-22T08:16:54Z</time>
      </trkpt>
      <trkpt lat="43.59017" lon="6.37998">
        <ele>630.1</ele>
        <time>2026-02-22T08:16:55Z</time>
      </trkpt>
      <trkpt lat="43.59018" lon="6.37997">
        <ele>630.1</ele>
        <time>2026-02-22T08:16:56Z</time>
      </trkpt>
      <trkpt lat="43.59019" lon="6.37995">
        <ele>629.9</ele>
        <time>2026-02-22T08:16:57Z</time>
      </trkpt>
      <trkpt lat="43.5902" lon="6.37994">
        <ele>629.8</ele>
        <time>2026-02-22T08:16:58Z</time>
      </trkpt>
      <trkpt lat="43.5902" lon="6.37994">
        <ele>629.8</ele>
        <time>2026-02-22T08:16:59Z</time>
      </trkpt>
      <trkpt lat="43.59021" lon="6.37994">
        <ele>629.7</ele>
        <time>2026-02-22T08:17:00Z</time>
      </trkpt>
      <trkpt lat="43.59021" lon="6.37993">
        <ele>629.5</ele>
        <time>2026-02-22T08:17:01Z</time>
      </trkpt>
      <trkpt lat="43.59021" lon="6.37992">
        <ele>629.4</ele>
        <time>2026-02-22T08:17:02Z</time>
      </trkpt>
      <trkpt lat="43.59022" lon="6.37991">
        <ele>629.4</ele>
        <time>2026-02-22T08:17:03Z</time>
      </trkpt>
      <trkpt lat="43.59023" lon="6.37991">
        <ele>629.4</ele>
        <time>2026-02-22T08:17:04Z</time>
      </trkpt>
      <trkpt lat="43.59024" lon="6.37989">
        <ele>629.3</ele>
        <time>2026-02-22T08:17:05Z</time>
      </trkpt>
      <trkpt lat="43.59025" lon="6.37989">
        <ele>629.1</ele>
        <time>2026-02-22T08:17:06Z</time>
      </trkpt>
      <trkpt lat="43.59025" lon="6.37986">
        <ele>628.9</ele>
        <time>2026-02-22T08:17:07Z</time>
      </trkpt>
      <trkpt lat="43.59025" lon="6.37984">
        <ele>628.8</ele>
        <time>2026-02-22T08:17:08Z</time>
      </trkpt>
      <trkpt lat="43.59026" lon="6.37984">
        <ele>628.7</ele>
        <time>2026-02-22T08:17:09Z</time>
      </trkpt>
      <trkpt lat="43.59027" lon="6.37983">
        <ele>628.8</ele>
        <time>2026-02-22T08:17:10Z</time>
      </trkpt>
      <trkpt lat="43.59027" lon="6.37982">
        <ele>628.8</ele>
        <time>2026-02-22T08:17:11Z</time>
      </trkpt>
      <trkpt lat="43.59028" lon="6.37981">
        <ele>628.8</ele>
        <time>2026-02-22T08:17:12Z</time>
      </trkpt>
      <trkpt lat="43.59028" lon="6.37979">
        <ele>628.7</ele>
        <time>2026-02-22T08:17:13Z</time>
      </trkpt>
      <trkpt lat="43.59028" lon="6.37977">
        <ele>628.8</ele>
        <time>2026-02-22T08:17:14Z</time>
      </trkpt>
      <trkpt lat="43.59028" lon="6.37974">
        <ele>628.8</ele>
        <time>2026-02-22T08:17:15Z</time>
      </trkpt>
      <trkpt lat="43.5903" lon="6.37974">
        <ele>628.8</ele>
        <time>2026-02-22T08:17:16Z</time>
      </trkpt>
      <trkpt lat="43.59031" lon="6.37973">
        <ele>628.8</ele>
        <time>2026-02-22T08:17:17Z</time>
      </trkpt>
      <trkpt lat="43.59032" lon="6.37971">
        <ele>628.8</ele>
        <time>2026-02-22T08:17:18Z</time>
      </trkpt>
      <trkpt lat="43.59032" lon="6.37969">
        <ele>628.8</ele>
        <time>2026-02-22T08:17:19Z</time>
      </trkpt>
      <trkpt lat="43.59031" lon="6.37969">
        <ele>628.7</ele>
        <time>2026-02-22T08:17:20Z</time>
      </trkpt>
      <trkpt lat="43.59033" lon="6.37967">
        <ele>628.7</ele>
        <time>2026-02-22T08:17:21Z</time>
      </trkpt>
      <trkpt lat="43.59033" lon="6.37966">
        <ele>628.8</ele>
        <time>2026-02-22T08:17:22Z</time>
      </trkpt>
      <trkpt lat="43.59034" lon="6.37964">
        <ele>628.7</ele>
        <time>2026-02-22T08:17:23Z</time>
      </trkpt>
      <trkpt lat="43.59035" lon="6.37963">
        <ele>628.7</ele>
        <time>2026-02-22T08:17:24Z</time>
      </trkpt>
      <trkpt lat="43.59034" lon="6.3796">
        <ele>628.7</ele>
        <time>2026-02-22T08:17:25Z</time>
      </trkpt>
      <trkpt lat="43.59036" lon="6.37959">
        <ele>628.6</ele>
        <time>2026-02-22T08:17:26Z</time>
      </trkpt>
      <trkpt lat="43.59036" lon="6.37957">
        <ele>628.6</ele>
        <time>2026-02-22T08:17:27Z</time>
      </trkpt>
      <trkpt lat="43.59036" lon="6.37956">
        <ele>628.6</ele>
        <time>2026-02-22T08:17:28Z</time>
      </trkpt>
      <trkpt lat="43.59038" lon="6.37954">
        <ele>628.6</ele>
        <time>2026-02-22T08:17:29Z</time>
      </trkpt>
      <trkpt lat="43.59039" lon="6.37953">
        <ele>628.6</ele>
        <time>2026-02-22T08:17:30Z</time>
      </trkpt>
      <trkpt lat="43.59039" lon="6.37952">
        <ele>628.6</ele>
        <time>2026-02-22T08:17:31Z</time>
      </trkpt>
      <trkpt lat="43.5904" lon="6.3795">
        <ele>628.6</ele>
        <time>2026-02-22T08:17:32Z</time>
      </trkpt>
      <trkpt lat="43.59042" lon="6.37949">
        <ele>628.6</ele>
        <time>2026-02-22T08:17:33Z</time>
      </trkpt>
      <trkpt lat="43.59042" lon="6.37947">
        <ele>628.6</ele>
        <time>2026-02-22T08:17:34Z</time>
      </trkpt>
      <trkpt lat="43.59042" lon="6.37946">
        <ele>628.7</ele>
        <time>2026-02-22T08:17:35Z</time>
      </trkpt>
      <trkpt lat="43.59044" lon="6.37943">
        <ele>628.6</ele>
        <time>2026-02-22T08:17:36Z</time>
      </trkpt>
      <trkpt lat="43.59044" lon="6.37942">
        <ele>628.5</ele>
        <time>2026-02-22T08:17:37Z</time>
      </trkpt>
      <trkpt lat="43.59044" lon="6.37941">
        <ele>628.3</ele>
        <time>2026-02-22T08:17:38Z</time>
      </trkpt>
      <trkpt lat="43.59045" lon="6.3794">
        <ele>628.3</ele>
        <time>2026-02-22T08:17:39Z</time>
      </trkpt>
      <trkpt lat="43.59045" lon="6.37937">
        <ele>628.3</ele>
        <time>2026-02-22T08:17:40Z</time>
      </trkpt>
      <trkpt lat="43.59045" lon="6.37936">
        <ele>628.3</ele>
        <time>2026-02-22T08:17:41Z</time>
      </trkpt>
      <trkpt lat="43.59045" lon="6.37934">
        <ele>628.3</ele>
        <time>2026-02-22T08:17:42Z</time>
      </trkpt>
      <trkpt lat="43.59046" lon="6.37933">
        <ele>628.2</ele>
        <time>2026-02-22T08:17:43Z</time>
      </trkpt>
      <trkpt lat="43.59047" lon="6.37933">
        <ele>628.2</ele>
        <time>2026-02-22T08:17:44Z</time>
      </trkpt>
      <trkpt lat="43.59048" lon="6.37932">
        <ele>628.1</ele>
        <time>2026-02-22T08:17:45Z</time>
      </trkpt>
      <trkpt lat="43.5905" lon="6.3793">
        <ele>628.1</ele>
        <time>2026-02-22T08:17:46Z</time>
      </trkpt>
      <trkpt lat="43.5905" lon="6.37928">
        <ele>628</ele>
        <time>2026-02-22T08:17:47Z</time>
      </trkpt>
      <trkpt lat="43.5905" lon="6.37927">
        <ele>627.9</ele>
        <time>2026-02-22T08:17:48Z</time>
      </trkpt>
      <trkpt lat="43.59051" lon="6.37926">
        <ele>627.8</ele>
        <time>2026-02-22T08:17:49Z</time>
      </trkpt>
      <trkpt lat="43.59052" lon="6.37925">
        <ele>627.7</ele>
        <time>2026-02-22T08:17:50Z</time>
      </trkpt>
      <trkpt lat="43.59052" lon="6.37924">
        <ele>627.7</ele>
        <time>2026-02-22T08:17:51Z</time>
      </trkpt>
      <trkpt lat="43.59053" lon="6.37923">
        <ele>627.6</ele>
        <time>2026-02-22T08:17:52Z</time>
      </trkpt>
      <trkpt lat="43.59054" lon="6.37921">
        <ele>627.5</ele>
        <time>2026-02-22T08:17:53Z</time>
      </trkpt>
      <trkpt lat="43.59054" lon="6.3792">
        <ele>627.4</ele>
        <time>2026-02-22T08:17:54Z</time>
      </trkpt>
      <trkpt lat="43.59055" lon="6.37919">
        <ele>627.4</ele>
        <time>2026-02-22T08:17:55Z</time>
      </trkpt>
      <trkpt lat="43.59056" lon="6.37918">
        <ele>627.4</ele>
        <time>2026-02-22T08:17:56Z</time>
      </trkpt>
      <trkpt lat="43.59057" lon="6.37918">
        <ele>627.4</ele>
        <time>2026-02-22T08:17:57Z</time>
      </trkpt>
      <trkpt lat="43.59057" lon="6.37916">
        <ele>627.2</ele>
        <time>2026-02-22T08:17:58Z</time>
      </trkpt>
      <trkpt lat="43.59057" lon="6.37915">
        <ele>627.1</ele>
        <time>2026-02-22T08:17:59Z</time>
      </trkpt>
      <trkpt lat="43.59058" lon="6.37914">
        <ele>627</ele>
        <time>2026-02-22T08:18:00Z</time>
      </trkpt>
      <trkpt lat="43.59059" lon="6.37914">
        <ele>626.9</ele>
        <time>2026-02-22T08:18:01Z</time>
      </trkpt>
      <trkpt lat="43.5906" lon="6.37914">
        <ele>626.8</ele>
        <time>2026-02-22T08:18:02Z</time>
      </trkpt>
      <trkpt lat="43.5906" lon="6.37913">
        <ele>626.7</ele>
        <time>2026-02-22T08:18:03Z</time>
      </trkpt>
      <trkpt lat="43.59062" lon="6.37912">
        <ele>626.6</ele>
        <time>2026-02-22T08:18:04Z</time>
      </trkpt>
      <trkpt lat="43.59063" lon="6.37913">
        <ele>626.5</ele>
        <time>2026-02-22T08:18:05Z</time>
      </trkpt>
      <trkpt lat="43.59064" lon="6.37912">
        <ele>626.4</ele>
        <time>2026-02-22T08:18:06Z</time>
      </trkpt>
      <trkpt lat="43.59065" lon="6.37913">
        <ele>626.5</ele>
        <time>2026-02-22T08:18:07Z</time>
      </trkpt>
      <trkpt lat="43.59067" lon="6.37913">
        <ele>626.6</ele>
        <time>2026-02-22T08:18:08Z</time>
      </trkpt>
      <trkpt lat="43.59069" lon="6.37913">
        <ele>626.7</ele>
        <time>2026-02-22T08:18:09Z</time>
      </trkpt>
      <trkpt lat="43.5907" lon="6.37912">
        <ele>626.8</ele>
        <time>2026-02-22T08:18:10Z</time>
      </trkpt>
      <trkpt lat="43.5907" lon="6.37912">
        <ele>626.8</ele>
        <time>2026-02-22T08:18:11Z</time>
      </trkpt>
      <trkpt lat="43.59071" lon="6.37912">
        <ele>626.8</ele>
        <time>2026-02-22T08:18:12Z</time>
      </trkpt>
      <trkpt lat="43.59072" lon="6.37912">
        <ele>626.9</ele>
        <time>2026-02-22T08:18:13Z</time>
      </trkpt>
      <trkpt lat="43.59073" lon="6.37911">
        <ele>626.9</ele>
        <time>2026-02-22T08:18:14Z</time>
      </trkpt>
      <trkpt lat="43.59073" lon="6.37909">
        <ele>627</ele>
        <time>2026-02-22T08:18:15Z</time>
      </trkpt>
      <trkpt lat="43.59073" lon="6.37908">
        <ele>627</ele>
        <time>2026-02-22T08:18:16Z</time>
      </trkpt>
      <trkpt lat="43.59074" lon="6.37907">
        <ele>627.1</ele>
        <time>2026-02-22T08:18:17Z</time>
      </trkpt>
      <trkpt lat="43.59074" lon="6.37906">
        <ele>627.1</ele>
        <time>2026-02-22T08:18:18Z</time>
      </trkpt>
      <trkpt lat="43.59074" lon="6.37904">
        <ele>627.2</ele>
        <time>2026-02-22T08:18:19Z</time>
      </trkpt>
      <trkpt lat="43.59074" lon="6.37899">
        <ele>627.2</ele>
        <time>2026-02-22T08:18:20Z</time>
      </trkpt>
      <trkpt lat="43.59075" lon="6.37898">
        <ele>627.3</ele>
        <time>2026-02-22T08:18:21Z</time>
      </trkpt>
      <trkpt lat="43.59075" lon="6.37896">
        <ele>627.4</ele>
        <time>2026-02-22T08:18:22Z</time>
      </trkpt>
      <trkpt lat="43.59076" lon="6.37893">
        <ele>627.5</ele>
        <time>2026-02-22T08:18:23Z</time>
      </trkpt>
      <trkpt lat="43.59077" lon="6.37892">
        <ele>627.5</ele>
        <time>2026-02-22T08:18:24Z</time>
      </trkpt>
      <trkpt lat="43.59078" lon="6.3789">
        <ele>627.5</ele>
        <time>2026-02-22T08:18:25Z</time>
      </trkpt>
      <trkpt lat="43.59079" lon="6.37889">
        <ele>627.6</ele>
        <time>2026-02-22T08:18:26Z</time>
      </trkpt>
      <trkpt lat="43.59079" lon="6.37888">
        <ele>627.6</ele>
        <time>2026-02-22T08:18:27Z</time>
      </trkpt>
      <trkpt lat="43.5908" lon="6.37887">
        <ele>627.6</ele>
        <time>2026-02-22T08:18:28Z</time>
      </trkpt>
      <trkpt lat="43.59081" lon="6.37886">
        <ele>627.7</ele>
        <time>2026-02-22T08:18:29Z</time>
      </trkpt>
      <trkpt lat="43.59082" lon="6.37884">
        <ele>627.8</ele>
        <time>2026-02-22T08:18:30Z</time>
      </trkpt>
      <trkpt lat="43.59082" lon="6.37882">
        <ele>627.8</ele>
        <time>2026-02-22T08:18:31Z</time>
      </trkpt>
      <trkpt lat="43.59082" lon="6.3788">
        <ele>628</ele>
        <time>2026-02-22T08:18:32Z</time>
      </trkpt>
      <trkpt lat="43.59083" lon="6.37879">
        <ele>628.1</ele>
        <time>2026-02-22T08:18:33Z</time>
      </trkpt>
      <trkpt lat="43.59083" lon="6.37877">
        <ele>628.2</ele>
        <time>2026-02-22T08:18:34Z</time>
      </trkpt>
      <trkpt lat="43.59084" lon="6.37876">
        <ele>628.3</ele>
        <time>2026-02-22T08:18:35Z</time>
      </trkpt>
      <trkpt lat="43.59085" lon="6.37874">
        <ele>628.3</ele>
        <time>2026-02-22T08:18:36Z</time>
      </trkpt>
      <trkpt lat="43.59085" lon="6.37873">
        <ele>628.3</ele>
        <time>2026-02-22T08:18:37Z</time>
      </trkpt>
      <trkpt lat="43.59086" lon="6.37872">
        <ele>628.4</ele>
        <time>2026-02-22T08:18:38Z</time>
      </trkpt>
      <trkpt lat="43.59087" lon="6.37871">
        <ele>628.4</ele>
        <time>2026-02-22T08:18:39Z</time>
      </trkpt>
      <trkpt lat="43.59087" lon="6.3787">
        <ele>628.4</ele>
        <time>2026-02-22T08:18:40Z</time>
      </trkpt>
      <trkpt lat="43.59087" lon="6.37868">
        <ele>628.4</ele>
        <time>2026-02-22T08:18:41Z</time>
      </trkpt>
      <trkpt lat="43.59087" lon="6.37866">
        <ele>628.4</ele>
        <time>2026-02-22T08:18:42Z</time>
      </trkpt>
      <trkpt lat="43.59088" lon="6.37865">
        <ele>628.5</ele>
        <time>2026-02-22T08:18:43Z</time>
      </trkpt>
      <trkpt lat="43.59089" lon="6.37864">
        <ele>628.4</ele>
        <time>2026-02-22T08:18:44Z</time>
      </trkpt>
      <trkpt lat="43.5909" lon="6.37862">
        <ele>628.4</ele>
        <time>2026-02-22T08:18:45Z</time>
      </trkpt>
      <trkpt lat="43.5909" lon="6.37861">
        <ele>628.4</ele>
        <time>2026-02-22T08:18:46Z</time>
      </trkpt>
      <trkpt lat="43.59091" lon="6.3786">
        <ele>628.4</ele>
        <time>2026-02-22T08:18:47Z</time>
      </trkpt>
      <trkpt lat="43.59092" lon="6.3786">
        <ele>628.3</ele>
        <time>2026-02-22T08:18:48Z</time>
      </trkpt>
      <trkpt lat="43.59092" lon="6.37858">
        <ele>628.3</ele>
        <time>2026-02-22T08:18:49Z</time>
      </trkpt>
      <trkpt lat="43.59094" lon="6.37857">
        <ele>628.2</ele>
        <time>2026-02-22T08:18:50Z</time>
      </trkpt>
      <trkpt lat="43.59095" lon="6.37857">
        <ele>628.1</ele>
        <time>2026-02-22T08:18:51Z</time>
      </trkpt>
      <trkpt lat="43.59096" lon="6.37856">
        <ele>628</ele>
        <time>2026-02-22T08:18:52Z</time>
      </trkpt>
      <trkpt lat="43.59097" lon="6.37854">
        <ele>628</ele>
        <time>2026-02-22T08:18:53Z</time>
      </trkpt>
      <trkpt lat="43.59097" lon="6.37853">
        <ele>628</ele>
        <time>2026-02-22T08:18:54Z</time>
      </trkpt>
      <trkpt lat="43.59098" lon="6.37852">
        <ele>628</ele>
        <time>2026-02-22T08:18:55Z</time>
      </trkpt>
      <trkpt lat="43.59097" lon="6.3785">
        <ele>627.9</ele>
        <time>2026-02-22T08:18:56Z</time>
      </trkpt>
      <trkpt lat="43.59098" lon="6.37849">
        <ele>627.8</ele>
        <time>2026-02-22T08:18:57Z</time>
      </trkpt>
      <trkpt lat="43.59099" lon="6.37848">
        <ele>627.7</ele>
        <time>2026-02-22T08:18:58Z</time>
      </trkpt>
      <trkpt lat="43.59099" lon="6.37847">
        <ele>627.5</ele>
        <time>2026-02-22T08:18:59Z</time>
      </trkpt>
      <trkpt lat="43.591" lon="6.37846">
        <ele>627.3</ele>
        <time>2026-02-22T08:19:00Z</time>
      </trkpt>
      <trkpt lat="43.59101" lon="6.37845">
        <ele>627.2</ele>
        <time>2026-02-22T08:19:01Z</time>
      </trkpt>
      <trkpt lat="43.59102" lon="6.37844">
        <ele>627</ele>
        <time>2026-02-22T08:19:02Z</time>
      </trkpt>
      <trkpt lat="43.59103" lon="6.37843">
        <ele>626.9</ele>
        <time>2026-02-22T08:19:03Z</time>
      </trkpt>
      <trkpt lat="43.59103" lon="6.37842">
        <ele>626.8</ele>
        <time>2026-02-22T08:19:04Z</time>
      </trkpt>
      <trkpt lat="43.59104" lon="6.3784">
        <ele>626.7</ele>
        <time>2026-02-22T08:19:05Z</time>
      </trkpt>
      <trkpt lat="43.59105" lon="6.37839">
        <ele>626.7</ele>
        <time>2026-02-22T08:19:06Z</time>
      </trkpt>
      <trkpt lat="43.59106" lon="6.37838">
        <ele>626.6</ele>
        <time>2026-02-22T08:19:07Z</time>
      </trkpt>
      <trkpt lat="43.59106" lon="6.37837">
        <ele>626.5</ele>
        <time>2026-02-22T08:19:08Z</time>
      </trkpt>
      <trkpt lat="43.59108" lon="6.37836">
        <ele>626.5</ele>
        <time>2026-02-22T08:19:09Z</time>
      </trkpt>
      <trkpt lat="43.59109" lon="6.37835">
        <ele>626.3</ele>
        <time>2026-02-22T08:19:10Z</time>
      </trkpt>
      <trkpt lat="43.59109" lon="6.37833">
        <ele>626.2</ele>
        <time>2026-02-22T08:19:11Z</time>
      </trkpt>
      <trkpt lat="43.5911" lon="6.37832">
        <ele>626.1</ele>
        <time>2026-02-22T08:19:12Z</time>
      </trkpt>
      <trkpt lat="43.59111" lon="6.37831">
        <ele>625.9</ele>
        <time>2026-02-22T08:19:13Z</time>
      </trkpt>
      <trkpt lat="43.59111" lon="6.37829">
        <ele>625.8</ele>
        <time>2026-02-22T08:19:14Z</time>
      </trkpt>
      <trkpt lat="43.59111" lon="6.37828">
        <ele>625.7</ele>
        <time>2026-02-22T08:19:15Z</time>
      </trkpt>
      <trkpt lat="43.59111" lon="6.37826">
        <ele>625.6</ele>
        <time>2026-02-22T08:19:16Z</time>
      </trkpt>
      <trkpt lat="43.59112" lon="6.37826">
        <ele>625.6</ele>
        <time>2026-02-22T08:19:17Z</time>
      </trkpt>
      <trkpt lat="43.59113" lon="6.37826">
        <ele>625.6</ele>
        <time>2026-02-22T08:19:18Z</time>
      </trkpt>
      <trkpt lat="43.59113" lon="6.37826">
        <ele>625.6</ele>
        <time>2026-02-22T08:19:19Z</time>
      </trkpt>
      <trkpt lat="43.59114" lon="6.37827">
        <ele>625.5</ele>
        <time>2026-02-22T08:19:20Z</time>
      </trkpt>
      <trkpt lat="43.59115" lon="6.37827">
        <ele>625.4</ele>
        <time>2026-02-22T08:19:21Z</time>
      </trkpt>
      <trkpt lat="43.59117" lon="6.37827">
        <ele>625.3</ele>
        <time>2026-02-22T08:19:22Z</time>
      </trkpt>
      <trkpt lat="43.59117" lon="6.37828">
        <ele>625.3</ele>
        <time>2026-02-22T08:19:23Z</time>
      </trkpt>
      <trkpt lat="43.59118" lon="6.37828">
        <ele>625.2</ele>
        <time>2026-02-22T08:19:24Z</time>
      </trkpt>
      <trkpt lat="43.59119" lon="6.37827">
        <ele>625.2</ele>
        <time>2026-02-22T08:19:25Z</time>
      </trkpt>
      <trkpt lat="43.5912" lon="6.37827">
        <ele>625.1</ele>
        <time>2026-02-22T08:19:26Z</time>
      </trkpt>
      <trkpt lat="43.59121" lon="6.37827">
        <ele>625.1</ele>
        <time>2026-02-22T08:19:27Z</time>
      </trkpt>
      <trkpt lat="43.59122" lon="6.37827">
        <ele>625</ele>
        <time>2026-02-22T08:19:28Z</time>
      </trkpt>
      <trkpt lat="43.59123" lon="6.37827">
        <ele>624.9</ele>
        <time>2026-02-22T08:19:29Z</time>
      </trkpt>
      <trkpt lat="43.59124" lon="6.37828">
        <ele>624.9</ele>
        <time>2026-02-22T08:19:30Z</time>
      </trkpt>
      <trkpt lat="43.59125" lon="6.37828">
        <ele>624.8</ele>
        <time>2026-02-22T08:19:31Z</time>
      </trkpt>
      <trkpt lat="43.59126" lon="6.37828">
        <ele>624.8</ele>
        <time>2026-02-22T08:19:32Z</time>
      </trkpt>
      <trkpt lat="43.59126" lon="6.37829">
        <ele>624.8</ele>
        <time>2026-02-22T08:19:33Z</time>
      </trkpt>
      <trkpt lat="43.59128" lon="6.37829">
        <ele>624.9</ele>
        <time>2026-02-22T08:19:34Z</time>
      </trkpt>
      <trkpt lat="43.59129" lon="6.37828">
        <ele>624.9</ele>
        <time>2026-02-22T08:19:35Z</time>
      </trkpt>
      <trkpt lat="43.5913" lon="6.37828">
        <ele>624.9</ele>
        <time>2026-02-22T08:19:36Z</time>
      </trkpt>
      <trkpt lat="43.59131" lon="6.37828">
        <ele>625</ele>
        <time>2026-02-22T08:19:37Z</time>
      </trkpt>
      <trkpt lat="43.59132" lon="6.37827">
        <ele>625</ele>
        <time>2026-02-22T08:19:38Z</time>
      </trkpt>
      <trkpt lat="43.59133" lon="6.37825">
        <ele>625</ele>
        <time>2026-02-22T08:19:39Z</time>
      </trkpt>
      <trkpt lat="43.59134" lon="6.37825">
        <ele>625</ele>
        <time>2026-02-22T08:19:40Z</time>
      </trkpt>
      <trkpt lat="43.59135" lon="6.37824">
        <ele>625</ele>
        <time>2026-02-22T08:19:41Z</time>
      </trkpt>
      <trkpt lat="43.59137" lon="6.37823">
        <ele>625.2</ele>
        <time>2026-02-22T08:19:42Z</time>
      </trkpt>
      <trkpt lat="43.59138" lon="6.37822">
        <ele>625.1</ele>
        <time>2026-02-22T08:19:43Z</time>
      </trkpt>
      <trkpt lat="43.59139" lon="6.3782">
        <ele>625.1</ele>
        <time>2026-02-22T08:19:44Z</time>
      </trkpt>
      <trkpt lat="43.5914" lon="6.37819">
        <ele>625</ele>
        <time>2026-02-22T08:19:45Z</time>
      </trkpt>
      <trkpt lat="43.5914" lon="6.37817">
        <ele>625</ele>
        <time>2026-02-22T08:19:46Z</time>
      </trkpt>
      <trkpt lat="43.59141" lon="6.37818">
        <ele>625</ele>
        <time>2026-02-22T08:19:47Z</time>
      </trkpt>
      <trkpt lat="43.59142" lon="6.37816">
        <ele>624.9</ele>
        <time>2026-02-22T08:19:48Z</time>
      </trkpt>
      <trkpt lat="43.59142" lon="6.37815">
        <ele>624.9</ele>
        <time>2026-02-22T08:19:49Z</time>
      </trkpt>
      <trkpt lat="43.59143" lon="6.37813">
        <ele>624.9</ele>
        <time>2026-02-22T08:19:50Z</time>
      </trkpt>
      <trkpt lat="43.59144" lon="6.37813">
        <ele>624.9</ele>
        <time>2026-02-22T08:19:51Z</time>
      </trkpt>
      <trkpt lat="43.59145" lon="6.37812">
        <ele>624.9</ele>
        <time>2026-02-22T08:19:52Z</time>
      </trkpt>
      <trkpt lat="43.59146" lon="6.37811">
        <ele>624.9</ele>
        <time>2026-02-22T08:19:53Z</time>
      </trkpt>
      <trkpt lat="43.59147" lon="6.3781">
        <ele>624.9</ele>
        <time>2026-02-22T08:19:54Z</time>
      </trkpt>
      <trkpt lat="43.59147" lon="6.37809">
        <ele>624.9</ele>
        <time>2026-02-22T08:19:55Z</time>
      </trkpt>
      <trkpt lat="43.59148" lon="6.37809">
        <ele>624.9</ele>
        <time>2026-02-22T08:19:56Z</time>
      </trkpt>
      <trkpt lat="43.59149" lon="6.37808">
        <ele>624.9</ele>
        <time>2026-02-22T08:19:57Z</time>
      </trkpt>
      <trkpt lat="43.59149" lon="6.37805">
        <ele>624.9</ele>
        <time>2026-02-22T08:19:58Z</time>
      </trkpt>
      <trkpt lat="43.5915" lon="6.37804">
        <ele>625</ele>
        <time>2026-02-22T08:19:59Z</time>
      </trkpt>
      <trkpt lat="43.5915" lon="6.37804">
        <ele>625.1</ele>
        <time>2026-02-22T08:20:00Z</time>
      </trkpt>
      <trkpt lat="43.59151" lon="6.37803">
        <ele>625.2</ele>
        <time>2026-02-22T08:20:01Z</time>
      </trkpt>
      <trkpt lat="43.59151" lon="6.37802">
        <ele>625.2</ele>
        <time>2026-02-22T08:20:02Z</time>
      </trkpt>
      <trkpt lat="43.59152" lon="6.37801">
        <ele>625.3</ele>
        <time>2026-02-22T08:20:03Z</time>
      </trkpt>
      <trkpt lat="43.59153" lon="6.378">
        <ele>625.3</ele>
        <time>2026-02-22T08:20:04Z</time>
      </trkpt>
      <trkpt lat="43.59153" lon="6.37799">
        <ele>625.3</ele>
        <time>2026-02-22T08:20:05Z</time>
      </trkpt>
      <trkpt lat="43.59154" lon="6.37798">
        <ele>625.3</ele>
        <time>2026-02-22T08:20:06Z</time>
      </trkpt>
      <trkpt lat="43.59155" lon="6.37797">
        <ele>625.3</ele>
        <time>2026-02-22T08:20:07Z</time>
      </trkpt>
      <trkpt lat="43.59156" lon="6.37796">
        <ele>625.2</ele>
        <time>2026-02-22T08:20:08Z</time>
      </trkpt>
      <trkpt lat="43.59156" lon="6.37793">
        <ele>625.2</ele>
        <time>2026-02-22T08:20:09Z</time>
      </trkpt>
      <trkpt lat="43.59157" lon="6.37793">
        <ele>625.2</ele>
        <time>2026-02-22T08:20:10Z</time>
      </trkpt>
      <trkpt lat="43.59157" lon="6.37791">
        <ele>625.2</ele>
        <time>2026-02-22T08:20:11Z</time>
      </trkpt>
      <trkpt lat="43.59158" lon="6.3779">
        <ele>625.2</ele>
        <time>2026-02-22T08:20:12Z</time>
      </trkpt>
      <trkpt lat="43.59159" lon="6.37789">
        <ele>625.1</ele>
        <time>2026-02-22T08:20:13Z</time>
      </trkpt>
      <trkpt lat="43.5916" lon="6.37787">
        <ele>625.2</ele>
        <time>2026-02-22T08:20:14Z</time>
      </trkpt>
      <trkpt lat="43.5916" lon="6.37786">
        <ele>625.2</ele>
        <time>2026-02-22T08:20:15Z</time>
      </trkpt>
      <trkpt lat="43.59161" lon="6.37784">
        <ele>625.2</ele>
        <time>2026-02-22T08:20:16Z</time>
      </trkpt>
      <trkpt lat="43.59162" lon="6.37782">
        <ele>625.3</ele>
        <time>2026-02-22T08:20:17Z</time>
      </trkpt>
      <trkpt lat="43.59162" lon="6.3778">
        <ele>625.3</ele>
        <time>2026-02-22T08:20:18Z</time>
      </trkpt>
      <trkpt lat="43.59163" lon="6.37779">
        <ele>625.3</ele>
        <time>2026-02-22T08:20:19Z</time>
      </trkpt>
      <trkpt lat="43.59163" lon="6.37777">
        <ele>625.2</ele>
        <time>2026-02-22T08:20:20Z</time>
      </trkpt>
      <trkpt lat="43.59164" lon="6.37776">
        <ele>625.2</ele>
        <time>2026-02-22T08:20:21Z</time>
      </trkpt>
      <trkpt lat="43.59164" lon="6.37775">
        <ele>625.4</ele>
        <time>2026-02-22T08:20:22Z</time>
      </trkpt>
      <trkpt lat="43.59164" lon="6.37774">
        <ele>625.3</ele>
        <time>2026-02-22T08:20:23Z</time>
      </trkpt>
      <trkpt lat="43.59165" lon="6.37773">
        <ele>625.3</ele>
        <time>2026-02-22T08:20:24Z</time>
      </trkpt>
      <trkpt lat="43.59166" lon="6.37771">
        <ele>625.2</ele>
        <time>2026-02-22T08:20:25Z</time>
      </trkpt>
      <trkpt lat="43.59166" lon="6.3777">
        <ele>625.2</ele>
        <time>2026-02-22T08:20:26Z</time>
      </trkpt>
      <trkpt lat="43.59167" lon="6.37769">
        <ele>625.2</ele>
        <time>2026-02-22T08:20:27Z</time>
      </trkpt>
      <trkpt lat="43.59168" lon="6.37768">
        <ele>625.1</ele>
        <time>2026-02-22T08:20:28Z</time>
      </trkpt>
      <trkpt lat="43.59168" lon="6.37768">
        <ele>625.1</ele>
        <time>2026-02-22T08:20:29Z</time>
      </trkpt>
      <trkpt lat="43.59169" lon="6.37767">
        <ele>625</ele>
        <time>2026-02-22T08:20:30Z</time>
      </trkpt>
      <trkpt lat="43.5917" lon="6.37766">
        <ele>624.9</ele>
        <time>2026-02-22T08:20:31Z</time>
      </trkpt>
      <trkpt lat="43.59171" lon="6.37765">
        <ele>624.9</ele>
        <time>2026-02-22T08:20:32Z</time>
      </trkpt>
      <trkpt lat="43.59172" lon="6.37763">
        <ele>625</ele>
        <time>2026-02-22T08:20:33Z</time>
      </trkpt>
      <trkpt lat="43.59172" lon="6.37762">
        <ele>625</ele>
        <time>2026-02-22T08:20:34Z</time>
      </trkpt>
      <trkpt lat="43.59173" lon="6.3776">
        <ele>624.9</ele>
        <time>2026-02-22T08:20:35Z</time>
      </trkpt>
      <trkpt lat="43.59173" lon="6.37759">
        <ele>624.9</ele>
        <time>2026-02-22T08:20:36Z</time>
      </trkpt>
      <trkpt lat="43.59174" lon="6.37757">
        <ele>624.9</ele>
        <time>2026-02-22T08:20:37Z</time>
      </trkpt>
      <trkpt lat="43.59175" lon="6.37755">
        <ele>624.8</ele>
        <time>2026-02-22T08:20:38Z</time>
      </trkpt>
      <trkpt lat="43.59176" lon="6.37755">
        <ele>624.8</ele>
        <time>2026-02-22T08:20:39Z</time>
      </trkpt>
      <trkpt lat="43.59176" lon="6.37753">
        <ele>624.7</ele>
        <time>2026-02-22T08:20:40Z</time>
      </trkpt>
      <trkpt lat="43.59177" lon="6.37752">
        <ele>624.7</ele>
        <time>2026-02-22T08:20:41Z</time>
      </trkpt>
      <trkpt lat="43.59178" lon="6.37751">
        <ele>624.7</ele>
        <time>2026-02-22T08:20:42Z</time>
      </trkpt>
      <trkpt lat="43.59179" lon="6.3775">
        <ele>624.6</ele>
        <time>2026-02-22T08:20:43Z</time>
      </trkpt>
      <trkpt lat="43.59179" lon="6.37749">
        <ele>624.6</ele>
        <time>2026-02-22T08:20:44Z</time>
      </trkpt>
      <trkpt lat="43.5918" lon="6.37748">
        <ele>624.5</ele>
        <time>2026-02-22T08:20:45Z</time>
      </trkpt>
      <trkpt lat="43.59181" lon="6.37746">
        <ele>624.5</ele>
        <time>2026-02-22T08:20:46Z</time>
      </trkpt>
      <trkpt lat="43.59182" lon="6.37745">
        <ele>624.5</ele>
        <time>2026-02-22T08:20:47Z</time>
      </trkpt>
      <trkpt lat="43.59182" lon="6.37744">
        <ele>624.4</ele>
        <time>2026-02-22T08:20:48Z</time>
      </trkpt>
      <trkpt lat="43.59183" lon="6.37743">
        <ele>624.3</ele>
        <time>2026-02-22T08:20:49Z</time>
      </trkpt>
      <trkpt lat="43.59184" lon="6.37742">
        <ele>624.2</ele>
        <time>2026-02-22T08:20:50Z</time>
      </trkpt>
      <trkpt lat="43.59184" lon="6.3774">
        <ele>624.1</ele>
        <time>2026-02-22T08:20:51Z</time>
      </trkpt>
      <trkpt lat="43.59185" lon="6.37739">
        <ele>624.1</ele>
        <time>2026-02-22T08:20:52Z</time>
      </trkpt>
      <trkpt lat="43.59185" lon="6.37738">
        <ele>624</ele>
        <time>2026-02-22T08:20:53Z</time>
      </trkpt>
      <trkpt lat="43.59186" lon="6.37737">
        <ele>624</ele>
        <time>2026-02-22T08:20:54Z</time>
      </trkpt>
      <trkpt lat="43.59186" lon="6.37736">
        <ele>624</ele>
        <time>2026-02-22T08:20:55Z</time>
      </trkpt>
      <trkpt lat="43.59187" lon="6.37734">
        <ele>624</ele>
        <time>2026-02-22T08:20:56Z</time>
      </trkpt>
      <trkpt lat="43.59188" lon="6.37733">
        <ele>623.9</ele>
        <time>2026-02-22T08:20:57Z</time>
      </trkpt>
      <trkpt lat="43.59189" lon="6.37732">
        <ele>623.9</ele>
        <time>2026-02-22T08:20:58Z</time>
      </trkpt>
      <trkpt lat="43.59189" lon="6.3773">
        <ele>623.8</ele>
        <time>2026-02-22T08:20:59Z</time>
      </trkpt>
      <trkpt lat="43.5919" lon="6.37729">
        <ele>623.8</ele>
        <time>2026-02-22T08:21:00Z</time>
      </trkpt>
      <trkpt lat="43.5919" lon="6.37728">
        <ele>623.7</ele>
        <time>2026-02-22T08:21:01Z</time>
      </trkpt>
      <trkpt lat="43.59191" lon="6.37726">
        <ele>623.7</ele>
        <time>2026-02-22T08:21:02Z</time>
      </trkpt>
      <trkpt lat="43.59191" lon="6.37725">
        <ele>623.6</ele>
        <time>2026-02-22T08:21:03Z</time>
      </trkpt>
      <trkpt lat="43.59192" lon="6.37724">
        <ele>623.6</ele>
        <time>2026-02-22T08:21:04Z</time>
      </trkpt>
      <trkpt lat="43.59192" lon="6.37723">
        <ele>623.6</ele>
        <time>2026-02-22T08:21:05Z</time>
      </trkpt>
      <trkpt lat="43.59193" lon="6.37722">
        <ele>623.6</ele>
        <time>2026-02-22T08:21:06Z</time>
      </trkpt>
      <trkpt lat="43.59193" lon="6.37721">
        <ele>623.6</ele>
        <time>2026-02-22T08:21:07Z</time>
      </trkpt>
      <trkpt lat="43.59194" lon="6.3772">
        <ele>623.5</ele>
        <time>2026-02-22T08:21:08Z</time>
      </trkpt>
      <trkpt lat="43.59194" lon="6.37719">
        <ele>623.5</ele>
        <time>2026-02-22T08:21:09Z</time>
      </trkpt>
      <trkpt lat="43.59195" lon="6.37718">
        <ele>623.4</ele>
        <time>2026-02-22T08:21:10Z</time>
      </trkpt>
      <trkpt lat="43.59195" lon="6.37717">
        <ele>623.3</ele>
        <time>2026-02-22T08:21:11Z</time>
      </trkpt>
      <trkpt lat="43.59195" lon="6.37715">
        <ele>623.2</ele>
        <time>2026-02-22T08:21:12Z</time>
      </trkpt>
      <trkpt lat="43.59194" lon="6.37714">
        <ele>623.2</ele>
        <time>2026-02-22T08:21:13Z</time>
      </trkpt>
      <trkpt lat="43.59194" lon="6.37712">
        <ele>623</ele>
        <time>2026-02-22T08:21:14Z</time>
      </trkpt>
      <trkpt lat="43.59194" lon="6.37711">
        <ele>622.8</ele>
        <time>2026-02-22T08:21:15Z</time>
      </trkpt>
      <trkpt lat="43.59194" lon="6.3771">
        <ele>622.7</ele>
        <time>2026-02-22T08:21:16Z</time>
      </trkpt>
      <trkpt lat="43.59194" lon="6.37708">
        <ele>622.5</ele>
        <time>2026-02-22T08:21:17Z</time>
      </trkpt>
      <trkpt lat="43.59194" lon="6.37707">
        <ele>622.3</ele>
        <time>2026-02-22T08:21:18Z</time>
      </trkpt>
      <trkpt lat="43.59194" lon="6.37707">
        <ele>622.2</ele>
        <time>2026-02-22T08:21:19Z</time>
      </trkpt>
      <trkpt lat="43.59194" lon="6.37706">
        <ele>622</ele>
        <time>2026-02-22T08:21:20Z</time>
      </trkpt>
      <trkpt lat="43.59195" lon="6.37705">
        <ele>622</ele>
        <time>2026-02-22T08:21:21Z</time>
      </trkpt>
      <trkpt lat="43.59195" lon="6.37704">
        <ele>621.8</ele>
        <time>2026-02-22T08:21:22Z</time>
      </trkpt>
      <trkpt lat="43.59195" lon="6.37703">
        <ele>621.6</ele>
        <time>2026-02-22T08:21:23Z</time>
      </trkpt>
      <trkpt lat="43.59194" lon="6.37702">
        <ele>621.4</ele>
        <time>2026-02-22T08:21:24Z</time>
      </trkpt>
      <trkpt lat="43.59194" lon="6.37701">
        <ele>621.3</ele>
        <time>2026-02-22T08:21:25Z</time>
      </trkpt>
      <trkpt lat="43.59194" lon="6.37701">
        <ele>621.2</ele>
        <time>2026-02-22T08:21:26Z</time>
      </trkpt>
      <trkpt lat="43.59194" lon="6.37701">
        <ele>621.1</ele>
        <time>2026-02-22T08:21:27Z</time>
      </trkpt>
      <trkpt lat="43.59193" lon="6.377">
        <ele>621</ele>
        <time>2026-02-22T08:21:28Z</time>
      </trkpt>
      <trkpt lat="43.59193" lon="6.377">
        <ele>621</ele>
        <time>2026-02-22T08:21:29Z</time>
      </trkpt>
      <trkpt lat="43.59193" lon="6.37699">
        <ele>621</ele>
        <time>2026-02-22T08:21:30Z</time>
      </trkpt>
      <trkpt lat="43.59192" lon="6.37699">
        <ele>621</ele>
        <time>2026-02-22T08:21:31Z</time>
      </trkpt>
      <trkpt lat="43.59192" lon="6.37698">
        <ele>620.8</ele>
        <time>2026-02-22T08:21:32Z</time>
      </trkpt>
      <trkpt lat="43.59192" lon="6.37698">
        <ele>620.7</ele>
        <time>2026-02-22T08:21:33Z</time>
      </trkpt>
      <trkpt lat="43.59192" lon="6.37697">
        <ele>620.6</ele>
        <time>2026-02-22T08:21:34Z</time>
      </trkpt>
      <trkpt lat="43.59191" lon="6.37697">
        <ele>620.6</ele>
        <time>2026-02-22T08:21:35Z</time>
      </trkpt>
      <trkpt lat="43.59191" lon="6.37697">
        <ele>620.6</ele>
        <time>2026-02-22T08:21:36Z</time>
      </trkpt>
      <trkpt lat="43.59191" lon="6.37697">
        <ele>620.6</ele>
        <time>2026-02-22T08:21:37Z</time>
      </trkpt>
      <trkpt lat="43.5919" lon="6.37696">
        <ele>620.6</ele>
        <time>2026-02-22T08:21:38Z</time>
      </trkpt>
      <trkpt lat="43.5919" lon="6.37696">
        <ele>620.6</ele>
        <time>2026-02-22T08:21:39Z</time>
      </trkpt>
      <trkpt lat="43.59189" lon="6.37695">
        <ele>620.6</ele>
        <time>2026-02-22T08:21:40Z</time>
      </trkpt>
      <trkpt lat="43.59188" lon="6.37695">
        <ele>620.6</ele>
        <time>2026-02-22T08:21:41Z</time>
      </trkpt>
      <trkpt lat="43.59188" lon="6.37695">
        <ele>620.6</ele>
        <time>2026-02-22T08:21:42Z</time>
      </trkpt>
      <trkpt lat="43.59188" lon="6.37694">
        <ele>620.4</ele>
        <time>2026-02-22T08:21:43Z</time>
      </trkpt>
      <trkpt lat="43.59187" lon="6.37694">
        <ele>620.5</ele>
        <time>2026-02-22T08:21:44Z</time>
      </trkpt>
      <trkpt lat="43.59187" lon="6.37694">
        <ele>620.5</ele>
        <time>2026-02-22T08:21:45Z</time>
      </trkpt>
      <trkpt lat="43.59188" lon="6.37693">
        <ele>620.5</ele>
        <time>2026-02-22T08:21:46Z</time>
      </trkpt>
      <trkpt lat="43.59187" lon="6.37692">
        <ele>620.5</ele>
        <time>2026-02-22T08:21:47Z</time>
      </trkpt>
      <trkpt lat="43.59187" lon="6.37692">
        <ele>620.5</ele>
        <time>2026-02-22T08:21:48Z</time>
      </trkpt>
      <trkpt lat="43.59187" lon="6.37692">
        <ele>620.6</ele>
        <time>2026-02-22T08:21:49Z</time>
      </trkpt>
      <trkpt lat="43.59187" lon="6.37692">
        <ele>620.6</ele>
        <time>2026-02-22T08:21:50Z</time>
      </trkpt>
      <trkpt lat="43.59187" lon="6.37692">
        <ele>620.6</ele>
        <time>2026-02-22T08:21:51Z</time>
      </trkpt>
      <trkpt lat="43.59187" lon="6.37692">
        <ele>620.6</ele>
        <time>2026-02-22T08:21:52Z</time>
      </trkpt>
      <trkpt lat="43.59187" lon="6.37692">
        <ele>620.4</ele>
        <time>2026-02-22T08:21:53Z</time>
      </trkpt>
      <trkpt lat="43.59187" lon="6.37692">
        <ele>620.3</ele>
        <time>2026-02-22T08:21:54Z</time>
      </trkpt>
      <trkpt lat="43.59187" lon="6.37692">
        <ele>620.3</ele>
        <time>2026-02-22T08:21:55Z</time>
      </trkpt>
      <trkpt lat="43.59187" lon="6.37692">
        <ele>620.3</ele>
        <time>2026-02-22T08:21:56Z</time>
      </trkpt>
      <trkpt lat="43.59186" lon="6.37692">
        <ele>620.3</ele>
        <time>2026-02-22T08:21:57Z</time>
      </trkpt>
      <trkpt lat="43.59186" lon="6.37692">
        <ele>620.3</ele>
        <time>2026-02-22T08:21:58Z</time>
      </trkpt>
      <trkpt lat="43.59186" lon="6.37693">
        <ele>620.3</ele>
        <time>2026-02-22T08:21:59Z</time>
      </trkpt>
      <trkpt lat="43.59185" lon="6.37692">
        <ele>620.3</ele>
        <time>2026-02-22T08:22:00Z</time>
      </trkpt>
      <trkpt lat="43.59186" lon="6.37691">
        <ele>620.3</ele>
        <time>2026-02-22T08:22:01Z</time>
      </trkpt>
      <trkpt lat="43.59186" lon="6.37691">
        <ele>620.2</ele>
        <time>2026-02-22T08:22:02Z</time>
      </trkpt>
      <trkpt lat="43.59186" lon="6.37692">
        <ele>620.2</ele>
        <time>2026-02-22T08:22:03Z</time>
      </trkpt>
      <trkpt lat="43.59186" lon="6.37692">
        <ele>620.2</ele>
        <time>2026-02-22T08:22:04Z</time>
      </trkpt>
      <trkpt lat="43.59187" lon="6.37692">
        <ele>620.2</ele>
        <time>2026-02-22T08:22:05Z</time>
      </trkpt>
      <trkpt lat="43.59187" lon="6.37692">
        <ele>620</ele>
        <time>2026-02-22T08:22:06Z</time>
      </trkpt>
      <trkpt lat="43.59187" lon="6.37692">
        <ele>620.1</ele>
        <time>2026-02-22T08:22:07Z</time>
      </trkpt>
      <trkpt lat="43.59187" lon="6.37692">
        <ele>619.9</ele>
        <time>2026-02-22T08:22:08Z</time>
      </trkpt>
      <trkpt lat="43.59186" lon="6.37692">
        <ele>619.8</ele>
        <time>2026-02-22T08:22:09Z</time>
      </trkpt>
      <trkpt lat="43.59186" lon="6.37691">
        <ele>619.8</ele>
        <time>2026-02-22T08:22:10Z</time>
      </trkpt>
      <trkpt lat="43.59186" lon="6.3769">
        <ele>619.7</ele>
        <time>2026-02-22T08:22:11Z</time>
      </trkpt>
      <trkpt lat="43.59186" lon="6.37689">
        <ele>619.7</ele>
        <time>2026-02-22T08:22:12Z</time>
      </trkpt>
      <trkpt lat="43.59186" lon="6.37689">
        <ele>619.7</ele>
        <time>2026-02-22T08:22:13Z</time>
      </trkpt>
      <trkpt lat="43.59186" lon="6.37689">
        <ele>619.6</ele>
        <time>2026-02-22T08:22:14Z</time>
      </trkpt>
      <trkpt lat="43.59186" lon="6.37688">
        <ele>619.4</ele>
        <time>2026-02-22T08:22:15Z</time>
      </trkpt>
      <trkpt lat="43.59186" lon="6.37687">
        <ele>619.3</ele>
        <time>2026-02-22T08:22:16Z</time>
      </trkpt>
      <trkpt lat="43.59186" lon="6.37686">
        <ele>619.3</ele>
        <time>2026-02-22T08:22:17Z</time>
      </trkpt>
      <trkpt lat="43.59186" lon="6.37685">
        <ele>619.3</ele>
        <time>2026-02-22T08:22:18Z</time>
      </trkpt>
      <trkpt lat="43.59186" lon="6.37684">
        <ele>619.3</ele>
        <time>2026-02-22T08:22:19Z</time>
      </trkpt>
      <trkpt lat="43.59186" lon="6.37682">
        <ele>619.1</ele>
        <time>2026-02-22T08:22:20Z</time>
      </trkpt>
      <trkpt lat="43.59186" lon="6.37681">
        <ele>618.9</ele>
        <time>2026-02-22T08:22:21Z</time>
      </trkpt>
      <trkpt lat="43.59186" lon="6.3768">
        <ele>618.8</ele>
        <time>2026-02-22T08:22:22Z</time>
      </trkpt>
      <trkpt lat="43.59186" lon="6.37679">
        <ele>618.6</ele>
        <time>2026-02-22T08:22:23Z</time>
      </trkpt>
      <trkpt lat="43.59187" lon="6.37679">
        <ele>618.5</ele>
        <time>2026-02-22T08:22:24Z</time>
      </trkpt>
      <trkpt lat="43.59187" lon="6.37678">
        <ele>618.4</ele>
        <time>2026-02-22T08:22:25Z</time>
      </trkpt>
      <trkpt lat="43.59187" lon="6.37677">
        <ele>618.2</ele>
        <time>2026-02-22T08:22:26Z</time>
      </trkpt>
      <trkpt lat="43.59186" lon="6.37678">
        <ele>618</ele>
        <time>2026-02-22T08:22:27Z</time>
      </trkpt>
      <trkpt lat="43.59186" lon="6.37676">
        <ele>617.9</ele>
        <time>2026-02-22T08:22:28Z</time>
      </trkpt>
      <trkpt lat="43.59187" lon="6.37675">
        <ele>617.9</ele>
        <time>2026-02-22T08:22:29Z</time>
      </trkpt>
      <trkpt lat="43.59187" lon="6.37674">
        <ele>617.8</ele>
        <time>2026-02-22T08:22:30Z</time>
      </trkpt>
      <trkpt lat="43.59188" lon="6.37674">
        <ele>617.7</ele>
        <time>2026-02-22T08:22:31Z</time>
      </trkpt>
      <trkpt lat="43.59188" lon="6.37673">
        <ele>617.6</ele>
        <time>2026-02-22T08:22:32Z</time>
      </trkpt>
      <trkpt lat="43.59188" lon="6.37673">
        <ele>617.5</ele>
        <time>2026-02-22T08:22:33Z</time>
      </trkpt>
      <trkpt lat="43.59188" lon="6.37673">
        <ele>617.5</ele>
        <time>2026-02-22T08:22:34Z</time>
      </trkpt>
      <trkpt lat="43.59188" lon="6.37672">
        <ele>617.4</ele>
        <time>2026-02-22T08:22:35Z</time>
      </trkpt>
      <trkpt lat="43.59188" lon="6.37672">
        <ele>617.5</ele>
        <time>2026-02-22T08:22:36Z</time>
      </trkpt>
      <trkpt lat="43.59188" lon="6.3767">
        <ele>617.6</ele>
        <time>2026-02-22T08:22:37Z</time>
      </trkpt>
      <trkpt lat="43.59188" lon="6.37669">
        <ele>617.7</ele>
        <time>2026-02-22T08:22:38Z</time>
      </trkpt>
      <trkpt lat="43.59188" lon="6.37668">
        <ele>617.7</ele>
        <time>2026-02-22T08:22:39Z</time>
      </trkpt>
      <trkpt lat="43.59188" lon="6.37667">
        <ele>617.6</ele>
        <time>2026-02-22T08:22:40Z</time>
      </trkpt>
      <trkpt lat="43.59188" lon="6.37666">
        <ele>617.6</ele>
        <time>2026-02-22T08:22:41Z</time>
      </trkpt>
      <trkpt lat="43.59187" lon="6.37665">
        <ele>617.7</ele>
        <time>2026-02-22T08:22:42Z</time>
      </trkpt>
      <trkpt lat="43.59187" lon="6.37663">
        <ele>617.8</ele>
        <time>2026-02-22T08:22:43Z</time>
      </trkpt>
      <trkpt lat="43.59187" lon="6.37661">
        <ele>617.8</ele>
        <time>2026-02-22T08:22:44Z</time>
      </trkpt>
      <trkpt lat="43.59187" lon="6.37659">
        <ele>617.9</ele>
        <time>2026-02-22T08:22:45Z</time>
      </trkpt>
      <trkpt lat="43.59188" lon="6.37657">
        <ele>617.9</ele>
        <time>2026-02-22T08:22:46Z</time>
      </trkpt>
      <trkpt lat="43.59188" lon="6.37656">
        <ele>618</ele>
        <time>2026-02-22T08:22:47Z</time>
      </trkpt>
      <trkpt lat="43.59189" lon="6.37654">
        <ele>618.3</ele>
        <time>2026-02-22T08:22:48Z</time>
      </trkpt>
      <trkpt lat="43.59189" lon="6.37652">
        <ele>618.4</ele>
        <time>2026-02-22T08:22:49Z</time>
      </trkpt>
      <trkpt lat="43.59189" lon="6.37651">
        <ele>618.5</ele>
        <time>2026-02-22T08:22:50Z</time>
      </trkpt>
      <trkpt lat="43.5919" lon="6.3765">
        <ele>618.6</ele>
        <time>2026-02-22T08:22:51Z</time>
      </trkpt>
      <trkpt lat="43.59189" lon="6.37649">
        <ele>618.6</ele>
        <time>2026-02-22T08:22:52Z</time>
      </trkpt>
      <trkpt lat="43.59189" lon="6.37648">
        <ele>618.6</ele>
        <time>2026-02-22T08:22:53Z</time>
      </trkpt>
      <trkpt lat="43.59188" lon="6.37647">
        <ele>618.8</ele>
        <time>2026-02-22T08:22:54Z</time>
      </trkpt>
      <trkpt lat="43.59188" lon="6.37645">
        <ele>618.9</ele>
        <time>2026-02-22T08:22:55Z</time>
      </trkpt>
      <trkpt lat="43.59188" lon="6.37643">
        <ele>618.9</ele>
        <time>2026-02-22T08:22:56Z</time>
      </trkpt>
      <trkpt lat="43.59188" lon="6.37642">
        <ele>619</ele>
        <time>2026-02-22T08:22:57Z</time>
      </trkpt>
      <trkpt lat="43.59187" lon="6.3764">
        <ele>619</ele>
        <time>2026-02-22T08:22:58Z</time>
      </trkpt>
      <trkpt lat="43.59187" lon="6.37639">
        <ele>619.1</ele>
        <time>2026-02-22T08:22:59Z</time>
      </trkpt>
      <trkpt lat="43.59188" lon="6.37637">
        <ele>619.1</ele>
        <time>2026-02-22T08:23:00Z</time>
      </trkpt>
      <trkpt lat="43.59188" lon="6.37636">
        <ele>619.2</ele>
        <time>2026-02-22T08:23:01Z</time>
      </trkpt>
      <trkpt lat="43.59188" lon="6.37635">
        <ele>619.1</ele>
        <time>2026-02-22T08:23:02Z</time>
      </trkpt>
      <trkpt lat="43.59188" lon="6.37633">
        <ele>619.1</ele>
        <time>2026-02-22T08:23:03Z</time>
      </trkpt>
      <trkpt lat="43.59188" lon="6.37632">
        <ele>619.2</ele>
        <time>2026-02-22T08:23:04Z</time>
      </trkpt>
      <trkpt lat="43.59189" lon="6.37629">
        <ele>619.2</ele>
        <time>2026-02-22T08:23:05Z</time>
      </trkpt>
      <trkpt lat="43.59189" lon="6.37628">
        <ele>619.3</ele>
        <time>2026-02-22T08:23:06Z</time>
      </trkpt>
      <trkpt lat="43.59189" lon="6.37626">
        <ele>619.3</ele>
        <time>2026-02-22T08:23:07Z</time>
      </trkpt>
      <trkpt lat="43.59188" lon="6.37626">
        <ele>619.4</ele>
        <time>2026-02-22T08:23:08Z</time>
      </trkpt>
      <trkpt lat="43.59188" lon="6.37625">
        <ele>619.5</ele>
        <time>2026-02-22T08:23:09Z</time>
      </trkpt>
      <trkpt lat="43.59189" lon="6.37624">
        <ele>619.7</ele>
        <time>2026-02-22T08:23:10Z</time>
      </trkpt>
      <trkpt lat="43.59189" lon="6.37623">
        <ele>619.8</ele>
        <time>2026-02-22T08:23:11Z</time>
      </trkpt>
      <trkpt lat="43.59189" lon="6.37622">
        <ele>620</ele>
        <time>2026-02-22T08:23:12Z</time>
      </trkpt>
      <trkpt lat="43.59189" lon="6.37621">
        <ele>620.1</ele>
        <time>2026-02-22T08:23:13Z</time>
      </trkpt>
      <trkpt lat="43.59189" lon="6.3762">
        <ele>620.3</ele>
        <time>2026-02-22T08:23:14Z</time>
      </trkpt>
      <trkpt lat="43.59188" lon="6.37619">
        <ele>620.4</ele>
        <time>2026-02-22T08:23:15Z</time>
      </trkpt>
      <trkpt lat="43.59188" lon="6.37618">
        <ele>620.6</ele>
        <time>2026-02-22T08:23:16Z</time>
      </trkpt>
      <trkpt lat="43.59188" lon="6.37617">
        <ele>620.8</ele>
        <time>2026-02-22T08:23:17Z</time>
      </trkpt>
      <trkpt lat="43.59187" lon="6.37615">
        <ele>620.9</ele>
        <time>2026-02-22T08:23:18Z</time>
      </trkpt>
      <trkpt lat="43.59188" lon="6.37614">
        <ele>621.1</ele>
        <time>2026-02-22T08:23:19Z</time>
      </trkpt>
      <trkpt lat="43.59188" lon="6.37613">
        <ele>621.2</ele>
        <time>2026-02-22T08:23:20Z</time>
      </trkpt>
      <trkpt lat="43.59189" lon="6.37612">
        <ele>621.4</ele>
        <time>2026-02-22T08:23:21Z</time>
      </trkpt>
      <trkpt lat="43.59189" lon="6.37611">
        <ele>621.6</ele>
        <time>2026-02-22T08:23:22Z</time>
      </trkpt>
      <trkpt lat="43.59189" lon="6.3761">
        <ele>621.8</ele>
        <time>2026-02-22T08:23:23Z</time>
      </trkpt>
      <trkpt lat="43.59189" lon="6.37609">
        <ele>622</ele>
        <time>2026-02-22T08:23:24Z</time>
      </trkpt>
      <trkpt lat="43.59189" lon="6.37608">
        <ele>622.3</ele>
        <time>2026-02-22T08:23:25Z</time>
      </trkpt>
      <trkpt lat="43.59189" lon="6.37607">
        <ele>622.6</ele>
        <time>2026-02-22T08:23:26Z</time>
      </trkpt>
      <trkpt lat="43.59188" lon="6.37605">
        <ele>622.9</ele>
        <time>2026-02-22T08:23:27Z</time>
      </trkpt>
      <trkpt lat="43.59187" lon="6.37604">
        <ele>623</ele>
        <time>2026-02-22T08:23:28Z</time>
      </trkpt>
      <trkpt lat="43.59186" lon="6.37602">
        <ele>623.2</ele>
        <time>2026-02-22T08:23:29Z</time>
      </trkpt>
      <trkpt lat="43.59186" lon="6.37601">
        <ele>623.5</ele>
        <time>2026-02-22T08:23:30Z</time>
      </trkpt>
      <trkpt lat="43.59185" lon="6.37599">
        <ele>623.8</ele>
        <time>2026-02-22T08:23:31Z</time>
      </trkpt>
      <trkpt lat="43.59185" lon="6.37598">
        <ele>624</ele>
        <time>2026-02-22T08:23:32Z</time>
      </trkpt>
      <trkpt lat="43.59184" lon="6.37597">
        <ele>624.3</ele>
        <time>2026-02-22T08:23:33Z</time>
      </trkpt>
      <trkpt lat="43.59184" lon="6.37595">
        <ele>624.6</ele>
        <time>2026-02-22T08:23:34Z</time>
      </trkpt>
      <trkpt lat="43.59184" lon="6.37595">
        <ele>624.7</ele>
        <time>2026-02-22T08:23:35Z</time>
      </trkpt>
      <trkpt lat="43.59183" lon="6.37594">
        <ele>625.2</ele>
        <time>2026-02-22T08:23:36Z</time>
      </trkpt>
      <trkpt lat="43.59183" lon="6.37592">
        <ele>625.4</ele>
        <time>2026-02-22T08:23:37Z</time>
      </trkpt>
      <trkpt lat="43.59182" lon="6.37591">
        <ele>625.6</ele>
        <time>2026-02-22T08:23:38Z</time>
      </trkpt>
      <trkpt lat="43.59182" lon="6.3759">
        <ele>625.8</ele>
        <time>2026-02-22T08:23:39Z</time>
      </trkpt>
      <trkpt lat="43.59181" lon="6.37589">
        <ele>626</ele>
        <time>2026-02-22T08:23:40Z</time>
      </trkpt>
      <trkpt lat="43.59181" lon="6.37588">
        <ele>626.1</ele>
        <time>2026-02-22T08:23:41Z</time>
      </trkpt>
      <trkpt lat="43.59181" lon="6.37588">
        <ele>626.3</ele>
        <time>2026-02-22T08:23:42Z</time>
      </trkpt>
      <trkpt lat="43.5918" lon="6.37587">
        <ele>626.5</ele>
        <time>2026-02-22T08:23:43Z</time>
      </trkpt>
      <trkpt lat="43.5918" lon="6.37586">
        <ele>626.8</ele>
        <time>2026-02-22T08:23:44Z</time>
      </trkpt>
      <trkpt lat="43.59179" lon="6.37585">
        <ele>627</ele>
        <time>2026-02-22T08:23:45Z</time>
      </trkpt>
      <trkpt lat="43.59179" lon="6.37584">
        <ele>627.2</ele>
        <time>2026-02-22T08:23:46Z</time>
      </trkpt>
      <trkpt lat="43.59178" lon="6.37583">
        <ele>627.3</ele>
        <time>2026-02-22T08:23:47Z</time>
      </trkpt>
      <trkpt lat="43.59178" lon="6.37582">
        <ele>627.5</ele>
        <time>2026-02-22T08:23:48Z</time>
      </trkpt>
      <trkpt lat="43.59177" lon="6.37581">
        <ele>627.6</ele>
        <time>2026-02-22T08:23:49Z</time>
      </trkpt>
      <trkpt lat="43.59176" lon="6.3758">
        <ele>627.8</ele>
        <time>2026-02-22T08:23:50Z</time>
      </trkpt>
      <trkpt lat="43.59175" lon="6.37578">
        <ele>627.9</ele>
        <time>2026-02-22T08:23:51Z</time>
      </trkpt>
      <trkpt lat="43.59174" lon="6.37578">
        <ele>628</ele>
        <time>2026-02-22T08:23:52Z</time>
      </trkpt>
      <trkpt lat="43.59173" lon="6.37577">
        <ele>628.1</ele>
        <time>2026-02-22T08:23:53Z</time>
      </trkpt>
      <trkpt lat="43.59173" lon="6.37577">
        <ele>628.3</ele>
        <time>2026-02-22T08:23:54Z</time>
      </trkpt>
      <trkpt lat="43.59172" lon="6.37577">
        <ele>628.4</ele>
        <time>2026-02-22T08:23:55Z</time>
      </trkpt>
      <trkpt lat="43.59172" lon="6.37576">
        <ele>628.5</ele>
        <time>2026-02-22T08:23:56Z</time>
      </trkpt>
      <trkpt lat="43.59172" lon="6.37576">
        <ele>628.6</ele>
        <time>2026-02-22T08:23:57Z</time>
      </trkpt>
      <trkpt lat="43.59171" lon="6.37576">
        <ele>628.8</ele>
        <time>2026-02-22T08:23:58Z</time>
      </trkpt>
      <trkpt lat="43.59171" lon="6.37575">
        <ele>629</ele>
        <time>2026-02-22T08:23:59Z</time>
      </trkpt>
      <trkpt lat="43.59171" lon="6.37574">
        <ele>629.2</ele>
        <time>2026-02-22T08:24:00Z</time>
      </trkpt>
      <trkpt lat="43.5917" lon="6.37573">
        <ele>629.3</ele>
        <time>2026-02-22T08:24:01Z</time>
      </trkpt>
      <trkpt lat="43.5917" lon="6.37573">
        <ele>629.3</ele>
        <time>2026-02-22T08:24:02Z</time>
      </trkpt>
      <trkpt lat="43.59168" lon="6.37573">
        <ele>629.4</ele>
        <time>2026-02-22T08:24:03Z</time>
      </trkpt>
      <trkpt lat="43.59168" lon="6.37572">
        <ele>629.4</ele>
        <time>2026-02-22T08:24:04Z</time>
      </trkpt>
      <trkpt lat="43.59167" lon="6.37572">
        <ele>629.6</ele>
        <time>2026-02-22T08:24:05Z</time>
      </trkpt>
      <trkpt lat="43.59167" lon="6.37571">
        <ele>629.7</ele>
        <time>2026-02-22T08:24:06Z</time>
      </trkpt>
      <trkpt lat="43.59167" lon="6.3757">
        <ele>629.8</ele>
        <time>2026-02-22T08:24:07Z</time>
      </trkpt>
      <trkpt lat="43.59167" lon="6.37569">
        <ele>630</ele>
        <time>2026-02-22T08:24:08Z</time>
      </trkpt>
      <trkpt lat="43.59167" lon="6.37569">
        <ele>630.1</ele>
        <time>2026-02-22T08:24:09Z</time>
      </trkpt>
      <trkpt lat="43.59166" lon="6.37568">
        <ele>630.2</ele>
        <time>2026-02-22T08:24:10Z</time>
      </trkpt>
      <trkpt lat="43.59167" lon="6.37566">
        <ele>630.4</ele>
        <time>2026-02-22T08:24:11Z</time>
      </trkpt>
      <trkpt lat="43.59166" lon="6.37565">
        <ele>630.6</ele>
        <time>2026-02-22T08:24:12Z</time>
      </trkpt>
      <trkpt lat="43.59166" lon="6.37564">
        <ele>630.7</ele>
        <time>2026-02-22T08:24:13Z</time>
      </trkpt>
      <trkpt lat="43.59166" lon="6.37563">
        <ele>630.8</ele>
        <time>2026-02-22T08:24:14Z</time>
      </trkpt>
      <trkpt lat="43.59166" lon="6.37562">
        <ele>630.9</ele>
        <time>2026-02-22T08:24:15Z</time>
      </trkpt>
      <trkpt lat="43.59166" lon="6.37561">
        <ele>631.1</ele>
        <time>2026-02-22T08:24:16Z</time>
      </trkpt>
      <trkpt lat="43.59166" lon="6.3756">
        <ele>631.3</ele>
        <time>2026-02-22T08:24:17Z</time>
      </trkpt>
      <trkpt lat="43.59166" lon="6.3756">
        <ele>631.5</ele>
        <time>2026-02-22T08:24:18Z</time>
      </trkpt>
      <trkpt lat="43.59166" lon="6.37559">
        <ele>631.6</ele>
        <time>2026-02-22T08:24:19Z</time>
      </trkpt>
      <trkpt lat="43.59166" lon="6.37559">
        <ele>631.7</ele>
        <time>2026-02-22T08:24:20Z</time>
      </trkpt>
      <trkpt lat="43.59166" lon="6.37558">
        <ele>631.8</ele>
        <time>2026-02-22T08:24:21Z</time>
      </trkpt>
      <trkpt lat="43.59166" lon="6.37557">
        <ele>632</ele>
        <time>2026-02-22T08:24:22Z</time>
      </trkpt>
      <trkpt lat="43.59166" lon="6.37556">
        <ele>632.1</ele>
        <time>2026-02-22T08:24:23Z</time>
      </trkpt>
      <trkpt lat="43.59166" lon="6.37555">
        <ele>632.2</ele>
        <time>2026-02-22T08:24:24Z</time>
      </trkpt>
      <trkpt lat="43.59167" lon="6.37554">
        <ele>632.4</ele>
        <time>2026-02-22T08:24:25Z</time>
      </trkpt>
      <trkpt lat="43.59167" lon="6.37553">
        <ele>632.6</ele>
        <time>2026-02-22T08:24:26Z</time>
      </trkpt>
      <trkpt lat="43.59167" lon="6.37552">
        <ele>632.7</ele>
        <time>2026-02-22T08:24:27Z</time>
      </trkpt>
      <trkpt lat="43.59168" lon="6.37551">
        <ele>632.8</ele>
        <time>2026-02-22T08:24:28Z</time>
      </trkpt>
      <trkpt lat="43.59168" lon="6.3755">
        <ele>632.8</ele>
        <time>2026-02-22T08:24:29Z</time>
      </trkpt>
      <trkpt lat="43.59169" lon="6.37549">
        <ele>632.9</ele>
        <time>2026-02-22T08:24:30Z</time>
      </trkpt>
      <trkpt lat="43.59169" lon="6.37548">
        <ele>633</ele>
        <time>2026-02-22T08:24:31Z</time>
      </trkpt>
      <trkpt lat="43.59169" lon="6.37546">
        <ele>633.2</ele>
        <time>2026-02-22T08:24:32Z</time>
      </trkpt>
      <trkpt lat="43.59169" lon="6.37545">
        <ele>633.3</ele>
        <time>2026-02-22T08:24:33Z</time>
      </trkpt>
      <trkpt lat="43.59169" lon="6.37543">
        <ele>633.5</ele>
        <time>2026-02-22T08:24:34Z</time>
      </trkpt>
      <trkpt lat="43.5917" lon="6.37542">
        <ele>633.7</ele>
        <time>2026-02-22T08:24:35Z</time>
      </trkpt>
      <trkpt lat="43.5917" lon="6.3754">
        <ele>634</ele>
        <time>2026-02-22T08:24:36Z</time>
      </trkpt>
      <trkpt lat="43.5917" lon="6.37539">
        <ele>634.2</ele>
        <time>2026-02-22T08:24:37Z</time>
      </trkpt>
      <trkpt lat="43.59171" lon="6.37538">
        <ele>634.3</ele>
        <time>2026-02-22T08:24:38Z</time>
      </trkpt>
      <trkpt lat="43.59171" lon="6.37537">
        <ele>634.5</ele>
        <time>2026-02-22T08:24:39Z</time>
      </trkpt>
      <trkpt lat="43.59172" lon="6.37536">
        <ele>634.7</ele>
        <time>2026-02-22T08:24:40Z</time>
      </trkpt>
      <trkpt lat="43.59172" lon="6.37535">
        <ele>634.9</ele>
        <time>2026-02-22T08:24:41Z</time>
      </trkpt>
      <trkpt lat="43.59172" lon="6.37535">
        <ele>635</ele>
        <time>2026-02-22T08:24:42Z</time>
      </trkpt>
      <trkpt lat="43.59173" lon="6.37534">
        <ele>635.1</ele>
        <time>2026-02-22T08:24:43Z</time>
      </trkpt>
      <trkpt lat="43.59173" lon="6.37532">
        <ele>635.3</ele>
        <time>2026-02-22T08:24:44Z</time>
      </trkpt>
      <trkpt lat="43.59174" lon="6.37532">
        <ele>635.5</ele>
        <time>2026-02-22T08:24:45Z</time>
      </trkpt>
      <trkpt lat="43.59174" lon="6.37531">
        <ele>635.6</ele>
        <time>2026-02-22T08:24:46Z</time>
      </trkpt>
      <trkpt lat="43.59174" lon="6.3753">
        <ele>635.7</ele>
        <time>2026-02-22T08:24:47Z</time>
      </trkpt>
      <trkpt lat="43.59175" lon="6.37529">
        <ele>635.8</ele>
        <time>2026-02-22T08:24:48Z</time>
      </trkpt>
      <trkpt lat="43.59175" lon="6.37528">
        <ele>635.9</ele>
        <time>2026-02-22T08:24:49Z</time>
      </trkpt>
      <trkpt lat="43.59176" lon="6.37527">
        <ele>636</ele>
        <time>2026-02-22T08:24:50Z</time>
      </trkpt>
      <trkpt lat="43.59176" lon="6.37526">
        <ele>636</ele>
        <time>2026-02-22T08:24:51Z</time>
      </trkpt>
      <trkpt lat="43.59176" lon="6.37525">
        <ele>636.2</ele>
        <time>2026-02-22T08:24:52Z</time>
      </trkpt>
      <trkpt lat="43.59177" lon="6.37523">
        <ele>636.3</ele>
        <time>2026-02-22T08:24:53Z</time>
      </trkpt>
      <trkpt lat="43.59177" lon="6.37522">
        <ele>636.3</ele>
        <time>2026-02-22T08:24:54Z</time>
      </trkpt>
      <trkpt lat="43.59177" lon="6.3752">
        <ele>636.4</ele>
        <time>2026-02-22T08:24:55Z</time>
      </trkpt>
      <trkpt lat="43.59177" lon="6.37519">
        <ele>636.5</ele>
        <time>2026-02-22T08:24:56Z</time>
      </trkpt>
      <trkpt lat="43.59177" lon="6.37518">
        <ele>636.6</ele>
        <time>2026-02-22T08:24:57Z</time>
      </trkpt>
      <trkpt lat="43.59177" lon="6.37516">
        <ele>636.6</ele>
        <time>2026-02-22T08:24:58Z</time>
      </trkpt>
      <trkpt lat="43.59178" lon="6.37515">
        <ele>636.7</ele>
        <time>2026-02-22T08:24:59Z</time>
      </trkpt>
      <trkpt lat="43.59178" lon="6.37514">
        <ele>636.7</ele>
        <time>2026-02-22T08:25:00Z</time>
      </trkpt>
      <trkpt lat="43.59178" lon="6.37513">
        <ele>636.8</ele>
        <time>2026-02-22T08:25:01Z</time>
      </trkpt>
      <trkpt lat="43.59179" lon="6.37512">
        <ele>636.9</ele>
        <time>2026-02-22T08:25:02Z</time>
      </trkpt>
      <trkpt lat="43.59179" lon="6.3751">
        <ele>636.9</ele>
        <time>2026-02-22T08:25:03Z</time>
      </trkpt>
      <trkpt lat="43.59179" lon="6.3751">
        <ele>637</ele>
        <time>2026-02-22T08:25:04Z</time>
      </trkpt>
      <trkpt lat="43.5918" lon="6.37509">
        <ele>637.1</ele>
        <time>2026-02-22T08:25:05Z</time>
      </trkpt>
      <trkpt lat="43.5918" lon="6.37507">
        <ele>637.2</ele>
        <time>2026-02-22T08:25:06Z</time>
      </trkpt>
      <trkpt lat="43.59181" lon="6.37507">
        <ele>637.3</ele>
        <time>2026-02-22T08:25:07Z</time>
      </trkpt>
      <trkpt lat="43.59182" lon="6.37506">
        <ele>637.4</ele>
        <time>2026-02-22T08:25:08Z</time>
      </trkpt>
      <trkpt lat="43.59183" lon="6.37505">
        <ele>637.5</ele>
        <time>2026-02-22T08:25:09Z</time>
      </trkpt>
      <trkpt lat="43.59183" lon="6.37505">
        <ele>637.5</ele>
        <time>2026-02-22T08:25:10Z</time>
      </trkpt>
      <trkpt lat="43.59184" lon="6.37504">
        <ele>637.7</ele>
        <time>2026-02-22T08:25:11Z</time>
      </trkpt>
      <trkpt lat="43.59184" lon="6.37503">
        <ele>637.8</ele>
        <time>2026-02-22T08:25:12Z</time>
      </trkpt>
      <trkpt lat="43.59184" lon="6.37503">
        <ele>637.9</ele>
        <time>2026-02-22T08:25:13Z</time>
      </trkpt>
      <trkpt lat="43.59184" lon="6.37501">
        <ele>638.1</ele>
        <time>2026-02-22T08:25:14Z</time>
      </trkpt>
      <trkpt lat="43.59184" lon="6.375">
        <ele>638.4</ele>
        <time>2026-02-22T08:25:15Z</time>
      </trkpt>
      <trkpt lat="43.59184" lon="6.37499">
        <ele>638.6</ele>
        <time>2026-02-22T08:25:16Z</time>
      </trkpt>
      <trkpt lat="43.59184" lon="6.37498">
        <ele>638.7</ele>
        <time>2026-02-22T08:25:17Z</time>
      </trkpt>
      <trkpt lat="43.59185" lon="6.37497">
        <ele>638.8</ele>
        <time>2026-02-22T08:25:18Z</time>
      </trkpt>
      <trkpt lat="43.59185" lon="6.37495">
        <ele>638.9</ele>
        <time>2026-02-22T08:25:19Z</time>
      </trkpt>
      <trkpt lat="43.59186" lon="6.37494">
        <ele>639</ele>
        <time>2026-02-22T08:25:20Z</time>
      </trkpt>
      <trkpt lat="43.59186" lon="6.37494">
        <ele>639.2</ele>
        <time>2026-02-22T08:25:21Z</time>
      </trkpt>
      <trkpt lat="43.59186" lon="6.37493">
        <ele>639.2</ele>
        <time>2026-02-22T08:25:22Z</time>
      </trkpt>
      <trkpt lat="43.59187" lon="6.37492">
        <ele>639.4</ele>
        <time>2026-02-22T08:25:23Z</time>
      </trkpt>
      <trkpt lat="43.59187" lon="6.37491">
        <ele>639.6</ele>
        <time>2026-02-22T08:25:24Z</time>
      </trkpt>
      <trkpt lat="43.59187" lon="6.37487">
        <ele>639.7</ele>
        <time>2026-02-22T08:25:25Z</time>
      </trkpt>
      <trkpt lat="43.59186" lon="6.37485">
        <ele>639.9</ele>
        <time>2026-02-22T08:25:26Z</time>
      </trkpt>
      <trkpt lat="43.59186" lon="6.37482">
        <ele>640.1</ele>
        <time>2026-02-22T08:25:27Z</time>
      </trkpt>
      <trkpt lat="43.59187" lon="6.37481">
        <ele>640.3</ele>
        <time>2026-02-22T08:25:28Z</time>
      </trkpt>
      <trkpt lat="43.59186" lon="6.37479">
        <ele>640.4</ele>
        <time>2026-02-22T08:25:29Z</time>
      </trkpt>
      <trkpt lat="43.59186" lon="6.37478">
        <ele>640.6</ele>
        <time>2026-02-22T08:25:30Z</time>
      </trkpt>
      <trkpt lat="43.59186" lon="6.37477">
        <ele>640.8</ele>
        <time>2026-02-22T08:25:31Z</time>
      </trkpt>
      <trkpt lat="43.59186" lon="6.37476">
        <ele>641.1</ele>
        <time>2026-02-22T08:25:32Z</time>
      </trkpt>
      <trkpt lat="43.59185" lon="6.37475">
        <ele>641.4</ele>
        <time>2026-02-22T08:25:33Z</time>
      </trkpt>
      <trkpt lat="43.59185" lon="6.37473">
        <ele>641.6</ele>
        <time>2026-02-22T08:25:34Z</time>
      </trkpt>
      <trkpt lat="43.59185" lon="6.37472">
        <ele>641.9</ele>
        <time>2026-02-22T08:25:35Z</time>
      </trkpt>
      <trkpt lat="43.59185" lon="6.37472">
        <ele>642.1</ele>
        <time>2026-02-22T08:25:36Z</time>
      </trkpt>
      <trkpt lat="43.59185" lon="6.37471">
        <ele>642.3</ele>
        <time>2026-02-22T08:25:37Z</time>
      </trkpt>
      <trkpt lat="43.59184" lon="6.37471">
        <ele>642.6</ele>
        <time>2026-02-22T08:25:38Z</time>
      </trkpt>
      <trkpt lat="43.59184" lon="6.3747">
        <ele>642.8</ele>
        <time>2026-02-22T08:25:39Z</time>
      </trkpt>
      <trkpt lat="43.59184" lon="6.37469">
        <ele>643</ele>
        <time>2026-02-22T08:25:40Z</time>
      </trkpt>
      <trkpt lat="43.59184" lon="6.37468">
        <ele>643.2</ele>
        <time>2026-02-22T08:25:41Z</time>
      </trkpt>
      <trkpt lat="43.59184" lon="6.37467">
        <ele>643.3</ele>
        <time>2026-02-22T08:25:42Z</time>
      </trkpt>
      <trkpt lat="43.59184" lon="6.37466">
        <ele>643.5</ele>
        <time>2026-02-22T08:25:43Z</time>
      </trkpt>
      <trkpt lat="43.59184" lon="6.37465">
        <ele>643.6</ele>
        <time>2026-02-22T08:25:44Z</time>
      </trkpt>
      <trkpt lat="43.59184" lon="6.37464">
        <ele>643.7</ele>
        <time>2026-02-22T08:25:45Z</time>
      </trkpt>
      <trkpt lat="43.59184" lon="6.37464">
        <ele>643.8</ele>
        <time>2026-02-22T08:25:46Z</time>
      </trkpt>
      <trkpt lat="43.59184" lon="6.37463">
        <ele>644</ele>
        <time>2026-02-22T08:25:47Z</time>
      </trkpt>
      <trkpt lat="43.59184" lon="6.37462">
        <ele>644.1</ele>
        <time>2026-02-22T08:25:48Z</time>
      </trkpt>
      <trkpt lat="43.59184" lon="6.37462">
        <ele>644.3</ele>
        <time>2026-02-22T08:25:49Z</time>
      </trkpt>
      <trkpt lat="43.59184" lon="6.37461">
        <ele>644.5</ele>
        <time>2026-02-22T08:25:50Z</time>
      </trkpt>
      <trkpt lat="43.59184" lon="6.3746">
        <ele>644.7</ele>
        <time>2026-02-22T08:25:51Z</time>
      </trkpt>
      <trkpt lat="43.59184" lon="6.3746">
        <ele>644.7</ele>
        <time>2026-02-22T08:25:52Z</time>
      </trkpt>
      <trkpt lat="43.59183" lon="6.37459">
        <ele>644.7</ele>
        <time>2026-02-22T08:25:53Z</time>
      </trkpt>
      <trkpt lat="43.59183" lon="6.37459">
        <ele>644.8</ele>
        <time>2026-02-22T08:25:54Z</time>
      </trkpt>
      <trkpt lat="43.59183" lon="6.37458">
        <ele>644.9</ele>
        <time>2026-02-22T08:25:55Z</time>
      </trkpt>
      <trkpt lat="43.59183" lon="6.37458">
        <ele>645</ele>
        <time>2026-02-22T08:25:56Z</time>
      </trkpt>
      <trkpt lat="43.59183" lon="6.37458">
        <ele>645.1</ele>
        <time>2026-02-22T08:25:57Z</time>
      </trkpt>
      <trkpt lat="43.59183" lon="6.37458">
        <ele>645.2</ele>
        <time>2026-02-22T08:25:58Z</time>
      </trkpt>
      <trkpt lat="43.59183" lon="6.37458">
        <ele>645.3</ele>
        <time>2026-02-22T08:25:59Z</time>
      </trkpt>
      <trkpt lat="43.59182" lon="6.37457">
        <ele>645.4</ele>
        <time>2026-02-22T08:26:00Z</time>
      </trkpt>
      <trkpt lat="43.59182" lon="6.37456">
        <ele>645.4</ele>
        <time>2026-02-22T08:26:01Z</time>
      </trkpt>
      <trkpt lat="43.59183" lon="6.37455">
        <ele>645.4</ele>
        <time>2026-02-22T08:26:02Z</time>
      </trkpt>
      <trkpt lat="43.59183" lon="6.37454">
        <ele>645.4</ele>
        <time>2026-02-22T08:26:03Z</time>
      </trkpt>
      <trkpt lat="43.59183" lon="6.37453">
        <ele>645.3</ele>
        <time>2026-02-22T08:26:04Z</time>
      </trkpt>
      <trkpt lat="43.59183" lon="6.37452">
        <ele>645.2</ele>
        <time>2026-02-22T08:26:05Z</time>
      </trkpt>
      <trkpt lat="43.59182" lon="6.37451">
        <ele>645</ele>
        <time>2026-02-22T08:26:06Z</time>
      </trkpt>
      <trkpt lat="43.59182" lon="6.3745">
        <ele>644.9</ele>
        <time>2026-02-22T08:26:07Z</time>
      </trkpt>
      <trkpt lat="43.59182" lon="6.37448">
        <ele>644.8</ele>
        <time>2026-02-22T08:26:08Z</time>
      </trkpt>
      <trkpt lat="43.59182" lon="6.37448">
        <ele>644.8</ele>
        <time>2026-02-22T08:26:09Z</time>
      </trkpt>
      <trkpt lat="43.59183" lon="6.37448">
        <ele>644.8</ele>
        <time>2026-02-22T08:26:10Z</time>
      </trkpt>
      <trkpt lat="43.59184" lon="6.37449">
        <ele>644.9</ele>
        <time>2026-02-22T08:26:11Z</time>
      </trkpt>
      <trkpt lat="43.59184" lon="6.37448">
        <ele>644.9</ele>
        <time>2026-02-22T08:26:12Z</time>
      </trkpt>
      <trkpt lat="43.59184" lon="6.37448">
        <ele>645</ele>
        <time>2026-02-22T08:26:13Z</time>
      </trkpt>
      <trkpt lat="43.59184" lon="6.37445">
        <ele>645.2</ele>
        <time>2026-02-22T08:26:14Z</time>
      </trkpt>
      <trkpt lat="43.59185" lon="6.37444">
        <ele>645.3</ele>
        <time>2026-02-22T08:26:15Z</time>
      </trkpt>
      <trkpt lat="43.59184" lon="6.37441">
        <ele>645.3</ele>
        <time>2026-02-22T08:26:16Z</time>
      </trkpt>
      <trkpt lat="43.59185" lon="6.37439">
        <ele>645.4</ele>
        <time>2026-02-22T08:26:17Z</time>
      </trkpt>
      <trkpt lat="43.59185" lon="6.37438">
        <ele>645.5</ele>
        <time>2026-02-22T08:26:18Z</time>
      </trkpt>
      <trkpt lat="43.59185" lon="6.37436">
        <ele>645.5</ele>
        <time>2026-02-22T08:26:19Z</time>
      </trkpt>
      <trkpt lat="43.59185" lon="6.37436">
        <ele>645.4</ele>
        <time>2026-02-22T08:26:20Z</time>
      </trkpt>
      <trkpt lat="43.59184" lon="6.37434">
        <ele>645.4</ele>
        <time>2026-02-22T08:26:21Z</time>
      </trkpt>
      <trkpt lat="43.59184" lon="6.37434">
        <ele>645.3</ele>
        <time>2026-02-22T08:26:22Z</time>
      </trkpt>
      <trkpt lat="43.59184" lon="6.37433">
        <ele>645.3</ele>
        <time>2026-02-22T08:26:23Z</time>
      </trkpt>
      <trkpt lat="43.59184" lon="6.37433">
        <ele>645.3</ele>
        <time>2026-02-22T08:26:24Z</time>
      </trkpt>
      <trkpt lat="43.59184" lon="6.37433">
        <ele>645.4</ele>
        <time>2026-02-22T08:26:25Z</time>
      </trkpt>
      <trkpt lat="43.59183" lon="6.37432">
        <ele>645.4</ele>
        <time>2026-02-22T08:26:26Z</time>
      </trkpt>
      <trkpt lat="43.59183" lon="6.37432">
        <ele>645.4</ele>
        <time>2026-02-22T08:26:27Z</time>
      </trkpt>
      <trkpt lat="43.59183" lon="6.37432">
        <ele>645.5</ele>
        <time>2026-02-22T08:26:28Z</time>
      </trkpt>
      <trkpt lat="43.59183" lon="6.37431">
        <ele>645.5</ele>
        <time>2026-02-22T08:26:29Z</time>
      </trkpt>
      <trkpt lat="43.59183" lon="6.37431">
        <ele>645.5</ele>
        <time>2026-02-22T08:26:30Z</time>
      </trkpt>
      <trkpt lat="43.59183" lon="6.37431">
        <ele>645.4</ele>
        <time>2026-02-22T08:26:31Z</time>
      </trkpt>
      <trkpt lat="43.59183" lon="6.37431">
        <ele>645.4</ele>
        <time>2026-02-22T08:26:32Z</time>
      </trkpt>
      <trkpt lat="43.59183" lon="6.37431">
        <ele>645.4</ele>
        <time>2026-02-22T08:26:33Z</time>
      </trkpt>
      <trkpt lat="43.59183" lon="6.37431">
        <ele>645.4</ele>
        <time>2026-02-22T08:26:34Z</time>
      </trkpt>
      <trkpt lat="43.59183" lon="6.37431">
        <ele>645.5</ele>
        <time>2026-02-22T08:26:35Z</time>
      </trkpt>
      <trkpt lat="43.59183" lon="6.37431">
        <ele>645.4</ele>
        <time>2026-02-22T08:26:36Z</time>
      </trkpt>
      <trkpt lat="43.59183" lon="6.37431">
        <ele>645.4</ele>
        <time>2026-02-22T08:26:37Z</time>
      </trkpt>
      <trkpt lat="43.59183" lon="6.37431">
        <ele>645.3</ele>
        <time>2026-02-22T08:26:38Z</time>
      </trkpt>
      <trkpt lat="43.59183" lon="6.37431">
        <ele>645.3</ele>
        <time>2026-02-22T08:26:39Z</time>
      </trkpt>
      <trkpt lat="43.59183" lon="6.37431">
        <ele>645.3</ele>
        <time>2026-02-22T08:26:40Z</time>
      </trkpt>
      <trkpt lat="43.59183" lon="6.37431">
        <ele>645.3</ele>
        <time>2026-02-22T08:26:41Z</time>
      </trkpt>
      <trkpt lat="43.59182" lon="6.37431">
        <ele>645.3</ele>
        <time>2026-02-22T08:26:42Z</time>
      </trkpt>
      <trkpt lat="43.59182" lon="6.37431">
        <ele>645.2</ele>
        <time>2026-02-22T08:26:43Z</time>
      </trkpt>
      <trkpt lat="43.59182" lon="6.37431">
        <ele>645.1</ele>
        <time>2026-02-22T08:26:44Z</time>
      </trkpt>
      <trkpt lat="43.59182" lon="6.37431">
        <ele>645</ele>
        <time>2026-02-22T08:26:45Z</time>
      </trkpt>
      <trkpt lat="43.59182" lon="6.37431">
        <ele>645</ele>
        <time>2026-02-22T08:26:46Z</time>
      </trkpt>
      <trkpt lat="43.59181" lon="6.37431">
        <ele>645</ele>
        <time>2026-02-22T08:26:47Z</time>
      </trkpt>
      <trkpt lat="43.59181" lon="6.37431">
        <ele>644.9</ele>
        <time>2026-02-22T08:26:48Z</time>
      </trkpt>
      <trkpt lat="43.59182" lon="6.37432">
        <ele>644.9</ele>
        <time>2026-02-22T08:26:49Z</time>
      </trkpt>
      <trkpt lat="43.59182" lon="6.37432">
        <ele>644.9</ele>
        <time>2026-02-22T08:26:50Z</time>
      </trkpt>
      <trkpt lat="43.59182" lon="6.37433">
        <ele>644.9</ele>
        <time>2026-02-22T08:26:51Z</time>
      </trkpt>
      <trkpt lat="43.59182" lon="6.37433">
        <ele>644.9</ele>
        <time>2026-02-22T08:26:52Z</time>
      </trkpt>
      <trkpt lat="43.59182" lon="6.37434">
        <ele>644.9</ele>
        <time>2026-02-22T08:26:53Z</time>
      </trkpt>
      <trkpt lat="43.59182" lon="6.37433">
        <ele>644.9</ele>
        <time>2026-02-22T08:26:54Z</time>
      </trkpt>
      <trkpt lat="43.59182" lon="6.37433">
        <ele>644.8</ele>
        <time>2026-02-22T08:26:55Z</time>
      </trkpt>
      <trkpt lat="43.59181" lon="6.37433">
        <ele>644.9</ele>
        <time>2026-02-22T08:26:56Z</time>
      </trkpt>
      <trkpt lat="43.59181" lon="6.37433">
        <ele>644.9</ele>
        <time>2026-02-22T08:26:57Z</time>
      </trkpt>
      <trkpt lat="43.59181" lon="6.37433">
        <ele>644.9</ele>
        <time>2026-02-22T08:26:58Z</time>
      </trkpt>
      <trkpt lat="43.59181" lon="6.37433">
        <ele>644.8</ele>
        <time>2026-02-22T08:26:59Z</time>
      </trkpt>
      <trkpt lat="43.59181" lon="6.37433">
        <ele>644.8</ele>
        <time>2026-02-22T08:27:00Z</time>
      </trkpt>
      <trkpt lat="43.59182" lon="6.37434">
        <ele>644.8</ele>
        <time>2026-02-22T08:27:01Z</time>
      </trkpt>
      <trkpt lat="43.59183" lon="6.37434">
        <ele>644.8</ele>
        <time>2026-02-22T08:27:02Z</time>
      </trkpt>
      <trkpt lat="43.59183" lon="6.37435">
        <ele>644.9</ele>
        <time>2026-02-22T08:27:03Z</time>
      </trkpt>
      <trkpt lat="43.59184" lon="6.37435">
        <ele>645</ele>
        <time>2026-02-22T08:27:04Z</time>
      </trkpt>
      <trkpt lat="43.59184" lon="6.37435">
        <ele>645</ele>
        <time>2026-02-22T08:27:05Z</time>
      </trkpt>
      <trkpt lat="43.59185" lon="6.37435">
        <ele>645</ele>
        <time>2026-02-22T08:27:06Z</time>
      </trkpt>
      <trkpt lat="43.59185" lon="6.37435">
        <ele>645</ele>
        <time>2026-02-22T08:27:07Z</time>
      </trkpt>
      <trkpt lat="43.59185" lon="6.37435">
        <ele>645.1</ele>
        <time>2026-02-22T08:27:08Z</time>
      </trkpt>
      <trkpt lat="43.59185" lon="6.37435">
        <ele>645.1</ele>
        <time>2026-02-22T08:27:09Z</time>
      </trkpt>
      <trkpt lat="43.59185" lon="6.37435">
        <ele>645.1</ele>
        <time>2026-02-22T08:27:10Z</time>
      </trkpt>
      <trkpt lat="43.59186" lon="6.37435">
        <ele>645.1</ele>
        <time>2026-02-22T08:27:11Z</time>
      </trkpt>
      <trkpt lat="43.59186" lon="6.37435">
        <ele>645.1</ele>
        <time>2026-02-22T08:27:12Z</time>
      </trkpt>
      <trkpt lat="43.59186" lon="6.37435">
        <ele>645.1</ele>
        <time>2026-02-22T08:27:13Z</time>
      </trkpt>
      <trkpt lat="43.59186" lon="6.37435">
        <ele>645.2</ele>
        <time>2026-02-22T08:27:14Z</time>
      </trkpt>
      <trkpt lat="43.59186" lon="6.37435">
        <ele>645.2</ele>
        <time>2026-02-22T08:27:15Z</time>
      </trkpt>
      <trkpt lat="43.59186" lon="6.37435">
        <ele>645.2</ele>
        <time>2026-02-22T08:27:16Z</time>
      </trkpt>
      <trkpt lat="43.59186" lon="6.37435">
        <ele>645.2</ele>
        <time>2026-02-22T08:27:17Z</time>
      </trkpt>
      <trkpt lat="43.59186" lon="6.37435">
        <ele>645.2</ele>
        <time>2026-02-22T08:27:18Z</time>
      </trkpt>
      <trkpt lat="43.59186" lon="6.37435">
        <ele>645.2</ele>
        <time>2026-02-22T08:27:19Z</time>
      </trkpt>
      <trkpt lat="43.59186" lon="6.37435">
        <ele>645.2</ele>
        <time>2026-02-22T08:27:20Z</time>
      </trkpt>
      <trkpt lat="43.59186" lon="6.37435">
        <ele>645.2</ele>
        <time>2026-02-22T08:27:21Z</time>
      </trkpt>
      <trkpt lat="43.59186" lon="6.37435">
        <ele>645.1</ele>
        <time>2026-02-22T08:27:22Z</time>
      </trkpt>
      <trkpt lat="43.59186" lon="6.37435">
        <ele>645</ele>
        <time>2026-02-22T08:27:23Z</time>
      </trkpt>
      <trkpt lat="43.59186" lon="6.37435">
        <ele>645</ele>
        <time>2026-02-22T08:27:24Z</time>
      </trkpt>
      <trkpt lat="43.59183" lon="6.37434">
        <ele>645</ele>
        <time>2026-02-22T08:27:25Z</time>
      </trkpt>
      <trkpt lat="43.59181" lon="6.37432">
        <ele>645</ele>
        <time>2026-02-22T08:27:26Z</time>
      </trkpt>
      <trkpt lat="43.5918" lon="6.37432">
        <ele>645.1</ele>
        <time>2026-02-22T08:27:27Z</time>
      </trkpt>
      <trkpt lat="43.5918" lon="6.37432">
        <ele>645.2</ele>
        <time>2026-02-22T08:27:28Z</time>
      </trkpt>
      <trkpt lat="43.59179" lon="6.37431">
        <ele>645.2</ele>
        <time>2026-02-22T08:27:29Z</time>
      </trkpt>
      <trkpt lat="43.5918" lon="6.37431">
        <ele>645.3</ele>
        <time>2026-02-22T08:27:30Z</time>
      </trkpt>
      <trkpt lat="43.5918" lon="6.37431">
        <ele>645.4</ele>
        <time>2026-02-22T08:27:31Z</time>
      </trkpt>
      <trkpt lat="43.59181" lon="6.37433">
        <ele>645.4</ele>
        <time>2026-02-22T08:27:32Z</time>
      </trkpt>
      <trkpt lat="43.59183" lon="6.37434">
        <ele>645.4</ele>
        <time>2026-02-22T08:27:33Z</time>
      </trkpt>
      <trkpt lat="43.59183" lon="6.37434">
        <ele>645.5</ele>
        <time>2026-02-22T08:27:34Z</time>
      </trkpt>
      <trkpt lat="43.59183" lon="6.37434">
        <ele>645.5</ele>
        <time>2026-02-22T08:27:35Z</time>
      </trkpt>
      <trkpt lat="43.59183" lon="6.37434">
        <ele>645.5</ele>
        <time>2026-02-22T08:27:36Z</time>
      </trkpt>
      <trkpt lat="43.59184" lon="6.37435">
        <ele>645.6</ele>
        <time>2026-02-22T08:27:37Z</time>
      </trkpt>
      <trkpt lat="43.59184" lon="6.37435">
        <ele>645.7</ele>
        <time>2026-02-22T08:27:38Z</time>
      </trkpt>
      <trkpt lat="43.59184" lon="6.37435">
        <ele>645.8</ele>
        <time>2026-02-22T08:27:39Z</time>
      </trkpt>
      <trkpt lat="43.59184" lon="6.37435">
        <ele>645.9</ele>
        <time>2026-02-22T08:27:40Z</time>
      </trkpt>
      <trkpt lat="43.59184" lon="6.37435">
        <ele>645.9</ele>
        <time>2026-02-22T08:27:41Z</time>
      </trkpt>
      <trkpt lat="43.59184" lon="6.37435">
        <ele>645.8</ele>
        <time>2026-02-22T08:27:42Z</time>
      </trkpt>
      <trkpt lat="43.59183" lon="6.37435">
        <ele>645.7</ele>
        <time>2026-02-22T08:27:43Z</time>
      </trkpt>
      <trkpt lat="43.59183" lon="6.37435">
        <ele>645.6</ele>
        <time>2026-02-22T08:27:44Z</time>
      </trkpt>
      <trkpt lat="43.59183" lon="6.37435">
        <ele>645.5</ele>
        <time>2026-02-22T08:27:45Z</time>
      </trkpt>
      <trkpt lat="43.59184" lon="6.37435">
        <ele>645.5</ele>
        <time>2026-02-22T08:27:46Z</time>
      </trkpt>
      <trkpt lat="43.59184" lon="6.37435">
        <ele>645.5</ele>
        <time>2026-02-22T08:27:47Z</time>
      </trkpt>
      <trkpt lat="43.59184" lon="6.37435">
        <ele>645.5</ele>
        <time>2026-02-22T08:27:48Z</time>
      </trkpt>
      <trkpt lat="43.59184" lon="6.37435">
        <ele>645.6</ele>
        <time>2026-02-22T08:27:49Z</time>
      </trkpt>
      <trkpt lat="43.59184" lon="6.37435">
        <ele>645.6</ele>
        <time>2026-02-22T08:27:50Z</time>
      </trkpt>
      <trkpt lat="43.59183" lon="6.37434">
        <ele>645.6</ele>
        <time>2026-02-22T08:27:51Z</time>
      </trkpt>
      <trkpt lat="43.59183" lon="6.37434">
        <ele>645.6</ele>
        <time>2026-02-22T08:27:52Z</time>
      </trkpt>
      <trkpt lat="43.59183" lon="6.37434">
        <ele>645.7</ele>
        <time>2026-02-22T08:27:53Z</time>
      </trkpt>
      <trkpt lat="43.59183" lon="6.37434">
        <ele>645.8</ele>
        <time>2026-02-22T08:27:54Z</time>
      </trkpt>
      <trkpt lat="43.59183" lon="6.37434">
        <ele>645.8</ele>
        <time>2026-02-22T08:27:55Z</time>
      </trkpt>
      <trkpt lat="43.59182" lon="6.37433">
        <ele>645.8</ele>
        <time>2026-02-22T08:27:56Z</time>
      </trkpt>
      <trkpt lat="43.59182" lon="6.37432">
        <ele>645.9</ele>
        <time>2026-02-22T08:27:57Z</time>
      </trkpt>
      <trkpt lat="43.59183" lon="6.37432">
        <ele>645.9</ele>
        <time>2026-02-22T08:27:58Z</time>
      </trkpt>
      <trkpt lat="43.59185" lon="6.37432">
        <ele>645.9</ele>
        <time>2026-02-22T08:27:59Z</time>
      </trkpt>
      <trkpt lat="43.59184" lon="6.37432">
        <ele>646</ele>
        <time>2026-02-22T08:28:00Z</time>
      </trkpt>
      <trkpt lat="43.59185" lon="6.37432">
        <ele>646</ele>
        <time>2026-02-22T08:28:01Z</time>
      </trkpt>
      <trkpt lat="43.59185" lon="6.37432">
        <ele>646</ele>
        <time>2026-02-22T08:28:02Z</time>
      </trkpt>
      <trkpt lat="43.59185" lon="6.37433">
        <ele>646</ele>
        <time>2026-02-22T08:28:03Z</time>
      </trkpt>
      <trkpt lat="43.59185" lon="6.37433">
        <ele>645.9</ele>
        <time>2026-02-22T08:28:04Z</time>
      </trkpt>
      <trkpt lat="43.59185" lon="6.37433">
        <ele>645.9</ele>
        <time>2026-02-22T08:28:05Z</time>
      </trkpt>
      <trkpt lat="43.59185" lon="6.37433">
        <ele>645.8</ele>
        <time>2026-02-22T08:28:06Z</time>
      </trkpt>
      <trkpt lat="43.59185" lon="6.37433">
        <ele>645.8</ele>
        <time>2026-02-22T08:28:07Z</time>
      </trkpt>
      <trkpt lat="43.59185" lon="6.37434">
        <ele>645.8</ele>
        <time>2026-02-22T08:28:08Z</time>
      </trkpt>
      <trkpt lat="43.59184" lon="6.37434">
        <ele>645.9</ele>
        <time>2026-02-22T08:28:09Z</time>
      </trkpt>
      <trkpt lat="43.59185" lon="6.37434">
        <ele>645.9</ele>
        <time>2026-02-22T08:28:10Z</time>
      </trkpt>
      <trkpt lat="43.59185" lon="6.37434">
        <ele>645.8</ele>
        <time>2026-02-22T08:28:11Z</time>
      </trkpt>
      <trkpt lat="43.59185" lon="6.37435">
        <ele>645.8</ele>
        <time>2026-02-22T08:28:12Z</time>
      </trkpt>
      <trkpt lat="43.59185" lon="6.37435">
        <ele>645.8</ele>
        <time>2026-02-22T08:28:13Z</time>
      </trkpt>
      <trkpt lat="43.59186" lon="6.37436">
        <ele>645.8</ele>
        <time>2026-02-22T08:28:14Z</time>
      </trkpt>
      <trkpt lat="43.59186" lon="6.37436">
        <ele>645.8</ele>
        <time>2026-02-22T08:28:15Z</time>
      </trkpt>
      <trkpt lat="43.59186" lon="6.37435">
        <ele>645.7</ele>
        <time>2026-02-22T08:28:16Z</time>
      </trkpt>
      <trkpt lat="43.59185" lon="6.37436">
        <ele>645.6</ele>
        <time>2026-02-22T08:28:17Z</time>
      </trkpt>
      <trkpt lat="43.59184" lon="6.37435">
        <ele>645.7</ele>
        <time>2026-02-22T08:28:18Z</time>
      </trkpt>
      <trkpt lat="43.59184" lon="6.37435">
        <ele>645.7</ele>
        <time>2026-02-22T08:28:19Z</time>
      </trkpt>
      <trkpt lat="43.59184" lon="6.37435">
        <ele>645.7</ele>
        <time>2026-02-22T08:28:20Z</time>
      </trkpt>
      <trkpt lat="43.59184" lon="6.37435">
        <ele>645.7</ele>
        <time>2026-02-22T08:28:21Z</time>
      </trkpt>
      <trkpt lat="43.59183" lon="6.37435">
        <ele>645.7</ele>
        <time>2026-02-22T08:28:22Z</time>
      </trkpt>
      <trkpt lat="43.59183" lon="6.37435">
        <ele>645.7</ele>
        <time>2026-02-22T08:28:23Z</time>
      </trkpt>
      <trkpt lat="43.59183" lon="6.37435">
        <ele>645.7</ele>
        <time>2026-02-22T08:28:24Z</time>
      </trkpt>
      <trkpt lat="43.59184" lon="6.37436">
        <ele>645.7</ele>
        <time>2026-02-22T08:28:25Z</time>
      </trkpt>
      <trkpt lat="43.59184" lon="6.37436">
        <ele>645.8</ele>
        <time>2026-02-22T08:28:26Z</time>
      </trkpt>
      <trkpt lat="43.59184" lon="6.37437">
        <ele>645.9</ele>
        <time>2026-02-22T08:28:27Z</time>
      </trkpt>
      <trkpt lat="43.59184" lon="6.37437">
        <ele>645.8</ele>
        <time>2026-02-22T08:28:28Z</time>
      </trkpt>
      <trkpt lat="43.59184" lon="6.37438">
        <ele>645.8</ele>
        <time>2026-02-22T08:28:29Z</time>
      </trkpt>
      <trkpt lat="43.59185" lon="6.37439">
        <ele>645.8</ele>
        <time>2026-02-22T08:28:30Z</time>
      </trkpt>
      <trkpt lat="43.59185" lon="6.37439">
        <ele>645.8</ele>
        <time>2026-02-22T08:28:31Z</time>
      </trkpt>
      <trkpt lat="43.59185" lon="6.37439">
        <ele>645.9</ele>
        <time>2026-02-22T08:28:32Z</time>
      </trkpt>
      <trkpt lat="43.59185" lon="6.3744">
        <ele>645.9</ele>
        <time>2026-02-22T08:28:33Z</time>
      </trkpt>
      <trkpt lat="43.59185" lon="6.37441">
        <ele>645.9</ele>
        <time>2026-02-22T08:28:34Z</time>
      </trkpt>
      <trkpt lat="43.59186" lon="6.3744">
        <ele>645.9</ele>
        <time>2026-02-22T08:28:35Z</time>
      </trkpt>
      <trkpt lat="43.59186" lon="6.3744">
        <ele>645.8</ele>
        <time>2026-02-22T08:28:36Z</time>
      </trkpt>
      <trkpt lat="43.59185" lon="6.3744">
        <ele>645.8</ele>
        <time>2026-02-22T08:28:37Z</time>
      </trkpt>
      <trkpt lat="43.59185" lon="6.37439">
        <ele>645.7</ele>
        <time>2026-02-22T08:28:38Z</time>
      </trkpt>
      <trkpt lat="43.59185" lon="6.37439">
        <ele>645.7</ele>
        <time>2026-02-22T08:28:39Z</time>
      </trkpt>
      <trkpt lat="43.59185" lon="6.3744">
        <ele>645.6</ele>
        <time>2026-02-22T08:28:40Z</time>
      </trkpt>
      <trkpt lat="43.59185" lon="6.3744">
        <ele>645.6</ele>
        <time>2026-02-22T08:28:41Z</time>
      </trkpt>
      <trkpt lat="43.59186" lon="6.3744">
        <ele>645.5</ele>
        <time>2026-02-22T08:28:42Z</time>
      </trkpt>
      <trkpt lat="43.59186" lon="6.3744">
        <ele>645.5</ele>
        <time>2026-02-22T08:28:43Z</time>
      </trkpt>
      <trkpt lat="43.59186" lon="6.3744">
        <ele>645.5</ele>
        <time>2026-02-22T08:28:44Z</time>
      </trkpt>
      <trkpt lat="43.59186" lon="6.3744">
        <ele>645.5</ele>
        <time>2026-02-22T08:28:45Z</time>
      </trkpt>
      <trkpt lat="43.59186" lon="6.37439">
        <ele>645.5</ele>
        <time>2026-02-22T08:28:46Z</time>
      </trkpt>
      <trkpt lat="43.59186" lon="6.37439">
        <ele>645.5</ele>
        <time>2026-02-22T08:28:47Z</time>
      </trkpt>
      <trkpt lat="43.59186" lon="6.37439">
        <ele>645.5</ele>
        <time>2026-02-22T08:28:48Z</time>
      </trkpt>
      <trkpt lat="43.59185" lon="6.37438">
        <ele>645.5</ele>
        <time>2026-02-22T08:28:49Z</time>
      </trkpt>
      <trkpt lat="43.59186" lon="6.37438">
        <ele>645.4</ele>
        <time>2026-02-22T08:28:50Z</time>
      </trkpt>
      <trkpt lat="43.59186" lon="6.37438">
        <ele>645.5</ele>
        <time>2026-02-22T08:28:51Z</time>
      </trkpt>
      <trkpt lat="43.59185" lon="6.37438">
        <ele>645.5</ele>
        <time>2026-02-22T08:28:52Z</time>
      </trkpt>
      <trkpt lat="43.59185" lon="6.37438">
        <ele>645.6</ele>
        <time>2026-02-22T08:28:53Z</time>
      </trkpt>
      <trkpt lat="43.59185" lon="6.37438">
        <ele>645.6</ele>
        <time>2026-02-22T08:28:54Z</time>
      </trkpt>
      <trkpt lat="43.59185" lon="6.37438">
        <ele>645.6</ele>
        <time>2026-02-22T08:28:55Z</time>
      </trkpt>
      <trkpt lat="43.59185" lon="6.37438">
        <ele>645.5</ele>
        <time>2026-02-22T08:28:56Z</time>
      </trkpt>
      <trkpt lat="43.59185" lon="6.37438">
        <ele>645.4</ele>
        <time>2026-02-22T08:28:57Z</time>
      </trkpt>
      <trkpt lat="43.59185" lon="6.37437">
        <ele>645.4</ele>
        <time>2026-02-22T08:28:58Z</time>
      </trkpt>
      <trkpt lat="43.59185" lon="6.37435">
        <ele>645.4</ele>
        <time>2026-02-22T08:28:59Z</time>
      </trkpt>
      <trkpt lat="43.59186" lon="6.37435">
        <ele>645.4</ele>
        <time>2026-02-22T08:29:00Z</time>
      </trkpt>
      <trkpt lat="43.59186" lon="6.37433">
        <ele>645.5</ele>
        <time>2026-02-22T08:29:01Z</time>
      </trkpt>
      <trkpt lat="43.59186" lon="6.37432">
        <ele>645.5</ele>
        <time>2026-02-22T08:29:02Z</time>
      </trkpt>
      <trkpt lat="43.59185" lon="6.37432">
        <ele>645.5</ele>
        <time>2026-02-22T08:29:03Z</time>
      </trkpt>
      <trkpt lat="43.59185" lon="6.37432">
        <ele>645.5</ele>
        <time>2026-02-22T08:29:04Z</time>
      </trkpt>
      <trkpt lat="43.59185" lon="6.37432">
        <ele>645.4</ele>
        <time>2026-02-22T08:29:05Z</time>
      </trkpt>
      <trkpt lat="43.59185" lon="6.37431">
        <ele>645.5</ele>
        <time>2026-02-22T08:29:06Z</time>
      </trkpt>
      <trkpt lat="43.59185" lon="6.37431">
        <ele>645.5</ele>
        <time>2026-02-22T08:29:07Z</time>
      </trkpt>
      <trkpt lat="43.59185" lon="6.3743">
        <ele>645.5</ele>
        <time>2026-02-22T08:29:08Z</time>
      </trkpt>
      <trkpt lat="43.59185" lon="6.3743">
        <ele>645.4</ele>
        <time>2026-02-22T08:29:09Z</time>
      </trkpt>
      <trkpt lat="43.59185" lon="6.3743">
        <ele>645.4</ele>
        <time>2026-02-22T08:29:10Z</time>
      </trkpt>
      <trkpt lat="43.59185" lon="6.37429">
        <ele>645.3</ele>
        <time>2026-02-22T08:29:11Z</time>
      </trkpt>
      <trkpt lat="43.59185" lon="6.3743">
        <ele>645.3</ele>
        <time>2026-02-22T08:29:12Z</time>
      </trkpt>
      <trkpt lat="43.59184" lon="6.3743">
        <ele>645.3</ele>
        <time>2026-02-22T08:29:13Z</time>
      </trkpt>
      <trkpt lat="43.59184" lon="6.37429">
        <ele>645.3</ele>
        <time>2026-02-22T08:29:14Z</time>
      </trkpt>
      <trkpt lat="43.59184" lon="6.37429">
        <ele>645.4</ele>
        <time>2026-02-22T08:29:15Z</time>
      </trkpt>
      <trkpt lat="43.59184" lon="6.37429">
        <ele>645.5</ele>
        <time>2026-02-22T08:29:16Z</time>
      </trkpt>
      <trkpt lat="43.59184" lon="6.37428">
        <ele>645.6</ele>
        <time>2026-02-22T08:29:17Z</time>
      </trkpt>
      <trkpt lat="43.59184" lon="6.37428">
        <ele>645.6</ele>
        <time>2026-02-22T08:29:18Z</time>
      </trkpt>
      <trkpt lat="43.59184" lon="6.37428">
        <ele>645.7</ele>
        <time>2026-02-22T08:29:19Z</time>
      </trkpt>
      <trkpt lat="43.59184" lon="6.37428">
        <ele>645.6</ele>
        <time>2026-02-22T08:29:20Z</time>
      </trkpt>
      <trkpt lat="43.59184" lon="6.37428">
        <ele>645.6</ele>
        <time>2026-02-22T08:29:21Z</time>
      </trkpt>
      <trkpt lat="43.59184" lon="6.37428">
        <ele>645.6</ele>
        <time>2026-02-22T08:29:22Z</time>
      </trkpt>
      <trkpt lat="43.59184" lon="6.37428">
        <ele>645.7</ele>
        <time>2026-02-22T08:29:23Z</time>
      </trkpt>
      <trkpt lat="43.59185" lon="6.37429">
        <ele>645.6</ele>
        <time>2026-02-22T08:29:24Z</time>
      </trkpt>
      <trkpt lat="43.59185" lon="6.37429">
        <ele>645.6</ele>
        <time>2026-02-22T08:29:25Z</time>
      </trkpt>
      <trkpt lat="43.59185" lon="6.37429">
        <ele>645.6</ele>
        <time>2026-02-22T08:29:26Z</time>
      </trkpt>
      <trkpt lat="43.59185" lon="6.37429">
        <ele>645.5</ele>
        <time>2026-02-22T08:29:27Z</time>
      </trkpt>
      <trkpt lat="43.59185" lon="6.37429">
        <ele>645.5</ele>
        <time>2026-02-22T08:29:28Z</time>
      </trkpt>
      <trkpt lat="43.59185" lon="6.37429">
        <ele>645.5</ele>
        <time>2026-02-22T08:29:29Z</time>
      </trkpt>
      <trkpt lat="43.59185" lon="6.37429">
        <ele>645.5</ele>
        <time>2026-02-22T08:29:30Z</time>
      </trkpt>
      <trkpt lat="43.59185" lon="6.37429">
        <ele>645.4</ele>
        <time>2026-02-22T08:29:31Z</time>
      </trkpt>
      <trkpt lat="43.59185" lon="6.37429">
        <ele>645.4</ele>
        <time>2026-02-22T08:29:32Z</time>
      </trkpt>
      <trkpt lat="43.59185" lon="6.37429">
        <ele>645.4</ele>
        <time>2026-02-22T08:29:33Z</time>
      </trkpt>
      <trkpt lat="43.59185" lon="6.37429">
        <ele>645.3</ele>
        <time>2026-02-22T08:29:34Z</time>
      </trkpt>
      <trkpt lat="43.59185" lon="6.37429">
        <ele>645.3</ele>
        <time>2026-02-22T08:29:35Z</time>
      </trkpt>
      <trkpt lat="43.59186" lon="6.37429">
        <ele>645.3</ele>
        <time>2026-02-22T08:29:36Z</time>
      </trkpt>
      <trkpt lat="43.59185" lon="6.37429">
        <ele>645.2</ele>
        <time>2026-02-22T08:29:37Z</time>
      </trkpt>
      <trkpt lat="43.59185" lon="6.37429">
        <ele>645.2</ele>
        <time>2026-02-22T08:29:38Z</time>
      </trkpt>
      <trkpt lat="43.59185" lon="6.37429">
        <ele>645.3</ele>
        <time>2026-02-22T08:29:39Z</time>
      </trkpt>
      <trkpt lat="43.59185" lon="6.37429">
        <ele>645.4</ele>
        <time>2026-02-22T08:29:40Z</time>
      </trkpt>
      <trkpt lat="43.59185" lon="6.3743">
        <ele>645.4</ele>
        <time>2026-02-22T08:29:41Z</time>
      </trkpt>
      <trkpt lat="43.59185" lon="6.3743">
        <ele>645.4</ele>
        <time>2026-02-22T08:29:42Z</time>
      </trkpt>
      <trkpt lat="43.59184" lon="6.37429">
        <ele>645.4</ele>
        <time>2026-02-22T08:29:43Z</time>
      </trkpt>
      <trkpt lat="43.59184" lon="6.37429">
        <ele>645.4</ele>
        <time>2026-02-22T08:29:44Z</time>
      </trkpt>
      <trkpt lat="43.59184" lon="6.37429">
        <ele>645.4</ele>
        <time>2026-02-22T08:29:45Z</time>
      </trkpt>
      <trkpt lat="43.59184" lon="6.37429">
        <ele>645.5</ele>
        <time>2026-02-22T08:29:46Z</time>
      </trkpt>
      <trkpt lat="43.59184" lon="6.37429">
        <ele>645.4</ele>
        <time>2026-02-22T08:29:47Z</time>
      </trkpt>
      <trkpt lat="43.59184" lon="6.37429">
        <ele>645.4</ele>
        <time>2026-02-22T08:29:48Z</time>
      </trkpt>
      <trkpt lat="43.59184" lon="6.37429">
        <ele>645.3</ele>
        <time>2026-02-22T08:29:49Z</time>
      </trkpt>
      <trkpt lat="43.59184" lon="6.37429">
        <ele>645.2</ele>
        <time>2026-02-22T08:29:50Z</time>
      </trkpt>
      <trkpt lat="43.59184" lon="6.37429">
        <ele>645.2</ele>
        <time>2026-02-22T08:29:51Z</time>
      </trkpt>
      <trkpt lat="43.59184" lon="6.37429">
        <ele>645.3</ele>
        <time>2026-02-22T08:29:52Z</time>
      </trkpt>
      <trkpt lat="43.59184" lon="6.37429">
        <ele>645.3</ele>
        <time>2026-02-22T08:29:53Z</time>
      </trkpt>
      <trkpt lat="43.59184" lon="6.37429">
        <ele>645.3</ele>
        <time>2026-02-22T08:29:54Z</time>
      </trkpt>
      <trkpt lat="43.59184" lon="6.37429">
        <ele>645.4</ele>
        <time>2026-02-22T08:29:55Z</time>
      </trkpt>
      <trkpt lat="43.59184" lon="6.37429">
        <ele>645.4</ele>
        <time>2026-02-22T08:29:56Z</time>
      </trkpt>
      <trkpt lat="43.59184" lon="6.37429">
        <ele>645.4</ele>
        <time>2026-02-22T08:29:57Z</time>
      </trkpt>
      <trkpt lat="43.59183" lon="6.37429">
        <ele>645.4</ele>
        <time>2026-02-22T08:29:58Z</time>
      </trkpt>
      <trkpt lat="43.59184" lon="6.37429">
        <ele>645.4</ele>
        <time>2026-02-22T08:29:59Z</time>
      </trkpt>
      <trkpt lat="43.59184" lon="6.37429">
        <ele>645.4</ele>
        <time>2026-02-22T08:30:00Z</time>
      </trkpt>
      <trkpt lat="43.59183" lon="6.37428">
        <ele>645.4</ele>
        <time>2026-02-22T08:30:01Z</time>
      </trkpt>
      <trkpt lat="43.59183" lon="6.37428">
        <ele>645.4</ele>
        <time>2026-02-22T08:30:02Z</time>
      </trkpt>
      <trkpt lat="43.59184" lon="6.37429">
        <ele>645.5</ele>
        <time>2026-02-22T08:30:03Z</time>
      </trkpt>
      <trkpt lat="43.59184" lon="6.37429">
        <ele>645.5</ele>
        <time>2026-02-22T08:30:04Z</time>
      </trkpt>
      <trkpt lat="43.59185" lon="6.37429">
        <ele>645.6</ele>
        <time>2026-02-22T08:30:05Z</time>
      </trkpt>
      <trkpt lat="43.59185" lon="6.37429">
        <ele>645.7</ele>
        <time>2026-02-22T08:30:06Z</time>
      </trkpt>
      <trkpt lat="43.59185" lon="6.37429">
        <ele>645.7</ele>
        <time>2026-02-22T08:30:07Z</time>
      </trkpt>
      <trkpt lat="43.59186" lon="6.37429">
        <ele>645.8</ele>
        <time>2026-02-22T08:30:08Z</time>
      </trkpt>
      <trkpt lat="43.59186" lon="6.37429">
        <ele>645.8</ele>
        <time>2026-02-22T08:30:09Z</time>
      </trkpt>
      <trkpt lat="43.59186" lon="6.37429">
        <ele>645.9</ele>
        <time>2026-02-22T08:30:10Z</time>
      </trkpt>
      <trkpt lat="43.59186" lon="6.37429">
        <ele>646</ele>
        <time>2026-02-22T08:30:11Z</time>
      </trkpt>
      <trkpt lat="43.59186" lon="6.37428">
        <ele>646</ele>
        <time>2026-02-22T08:30:12Z</time>
      </trkpt>
      <trkpt lat="43.59187" lon="6.37428">
        <ele>646</ele>
        <time>2026-02-22T08:30:13Z</time>
      </trkpt>
      <trkpt lat="43.59187" lon="6.37428">
        <ele>645.9</ele>
        <time>2026-02-22T08:30:14Z</time>
      </trkpt>
      <trkpt lat="43.59187" lon="6.37428">
        <ele>645.8</ele>
        <time>2026-02-22T08:30:15Z</time>
      </trkpt>
      <trkpt lat="43.59187" lon="6.37428">
        <ele>645.7</ele>
        <time>2026-02-22T08:30:16Z</time>
      </trkpt>
      <trkpt lat="43.59187" lon="6.37428">
        <ele>645.7</ele>
        <time>2026-02-22T08:30:17Z</time>
      </trkpt>
      <trkpt lat="43.59187" lon="6.37428">
        <ele>645.7</ele>
        <time>2026-02-22T08:30:18Z</time>
      </trkpt>
      <trkpt lat="43.59187" lon="6.37428">
        <ele>645.6</ele>
        <time>2026-02-22T08:30:19Z</time>
      </trkpt>
      <trkpt lat="43.59188" lon="6.37428">
        <ele>645.6</ele>
        <time>2026-02-22T08:30:20Z</time>
      </trkpt>
      <trkpt lat="43.59187" lon="6.37428">
        <ele>645.5</ele>
        <time>2026-02-22T08:30:21Z</time>
      </trkpt>
      <trkpt lat="43.59188" lon="6.37428">
        <ele>645.5</ele>
        <time>2026-02-22T08:30:22Z</time>
      </trkpt>
      <trkpt lat="43.59188" lon="6.37428">
        <ele>645.4</ele>
        <time>2026-02-22T08:30:23Z</time>
      </trkpt>
      <trkpt lat="43.59188" lon="6.37428">
        <ele>645.4</ele>
        <time>2026-02-22T08:30:24Z</time>
      </trkpt>
      <trkpt lat="43.59188" lon="6.37428">
        <ele>645.3</ele>
        <time>2026-02-22T08:30:25Z</time>
      </trkpt>
      <trkpt lat="43.59188" lon="6.37428">
        <ele>645.3</ele>
        <time>2026-02-22T08:30:26Z</time>
      </trkpt>
      <trkpt lat="43.59188" lon="6.37428">
        <ele>645.3</ele>
        <time>2026-02-22T08:30:27Z</time>
      </trkpt>
      <trkpt lat="43.59187" lon="6.37427">
        <ele>645.4</ele>
        <time>2026-02-22T08:30:28Z</time>
      </trkpt>
      <trkpt lat="43.59187" lon="6.37427">
        <ele>645.4</ele>
        <time>2026-02-22T08:30:29Z</time>
      </trkpt>
      <trkpt lat="43.59187" lon="6.37427">
        <ele>645.4</ele>
        <time>2026-02-22T08:30:30Z</time>
      </trkpt>
      <trkpt lat="43.59188" lon="6.37428">
        <ele>645.5</ele>
        <time>2026-02-22T08:30:31Z</time>
      </trkpt>
      <trkpt lat="43.59188" lon="6.37428">
        <ele>645.5</ele>
        <time>2026-02-22T08:30:32Z</time>
      </trkpt>
      <trkpt lat="43.59188" lon="6.37428">
        <ele>645.4</ele>
        <time>2026-02-22T08:30:33Z</time>
      </trkpt>
      <trkpt lat="43.59189" lon="6.37428">
        <ele>645.4</ele>
        <time>2026-02-22T08:30:34Z</time>
      </trkpt>
      <trkpt lat="43.59188" lon="6.37428">
        <ele>645.4</ele>
        <time>2026-02-22T08:30:35Z</time>
      </trkpt>
      <trkpt lat="43.59189" lon="6.37428">
        <ele>645.4</ele>
        <time>2026-02-22T08:30:36Z</time>
      </trkpt>
      <trkpt lat="43.59189" lon="6.37427">
        <ele>645.3</ele>
        <time>2026-02-22T08:30:37Z</time>
      </trkpt>
      <trkpt lat="43.59189" lon="6.37427">
        <ele>645.3</ele>
        <time>2026-02-22T08:30:38Z</time>
      </trkpt>
      <trkpt lat="43.59189" lon="6.37426">
        <ele>645.4</ele>
        <time>2026-02-22T08:30:39Z</time>
      </trkpt>
      <trkpt lat="43.5919" lon="6.37424">
        <ele>645.4</ele>
        <time>2026-02-22T08:30:40Z</time>
      </trkpt>
      <trkpt lat="43.59189" lon="6.37424">
        <ele>645.4</ele>
        <time>2026-02-22T08:30:41Z</time>
      </trkpt>
      <trkpt lat="43.59188" lon="6.37424">
        <ele>645.2</ele>
        <time>2026-02-22T08:30:42Z</time>
      </trkpt>
      <trkpt lat="43.59188" lon="6.37424">
        <ele>645.2</ele>
        <time>2026-02-22T08:30:43Z</time>
      </trkpt>
      <trkpt lat="43.59188" lon="6.37423">
        <ele>645.2</ele>
        <time>2026-02-22T08:30:44Z</time>
      </trkpt>
      <trkpt lat="43.59188" lon="6.37422">
        <ele>645.3</ele>
        <time>2026-02-22T08:30:45Z</time>
      </trkpt>
      <trkpt lat="43.59188" lon="6.37421">
        <ele>645.3</ele>
        <time>2026-02-22T08:30:46Z</time>
      </trkpt>
      <trkpt lat="43.59188" lon="6.3742">
        <ele>645.4</ele>
        <time>2026-02-22T08:30:47Z</time>
      </trkpt>
      <trkpt lat="43.59188" lon="6.37419">
        <ele>645.4</ele>
        <time>2026-02-22T08:30:48Z</time>
      </trkpt>
      <trkpt lat="43.59188" lon="6.37417">
        <ele>645.5</ele>
        <time>2026-02-22T08:30:49Z</time>
      </trkpt>
      <trkpt lat="43.59189" lon="6.37416">
        <ele>645.6</ele>
        <time>2026-02-22T08:30:50Z</time>
      </trkpt>
      <trkpt lat="43.59189" lon="6.37416">
        <ele>645.7</ele>
        <time>2026-02-22T08:30:51Z</time>
      </trkpt>
      <trkpt lat="43.59189" lon="6.37415">
        <ele>645.9</ele>
        <time>2026-02-22T08:30:52Z</time>
      </trkpt>
      <trkpt lat="43.5919" lon="6.37415">
        <ele>646.1</ele>
        <time>2026-02-22T08:30:53Z</time>
      </trkpt>
      <trkpt lat="43.59191" lon="6.37413">
        <ele>646.3</ele>
        <time>2026-02-22T08:30:54Z</time>
      </trkpt>
      <trkpt lat="43.59191" lon="6.37412">
        <ele>646.3</ele>
        <time>2026-02-22T08:30:55Z</time>
      </trkpt>
      <trkpt lat="43.59191" lon="6.37411">
        <ele>646.5</ele>
        <time>2026-02-22T08:30:56Z</time>
      </trkpt>
      <trkpt lat="43.59191" lon="6.3741">
        <ele>646.6</ele>
        <time>2026-02-22T08:30:57Z</time>
      </trkpt>
      <trkpt lat="43.59191" lon="6.37409">
        <ele>646.7</ele>
        <time>2026-02-22T08:30:58Z</time>
      </trkpt>
      <trkpt lat="43.59191" lon="6.37407">
        <ele>646.7</ele>
        <time>2026-02-22T08:30:59Z</time>
      </trkpt>
      <trkpt lat="43.59191" lon="6.37406">
        <ele>646.8</ele>
        <time>2026-02-22T08:31:00Z</time>
      </trkpt>
      <trkpt lat="43.59191" lon="6.37406">
        <ele>646.9</ele>
        <time>2026-02-22T08:31:01Z</time>
      </trkpt>
      <trkpt lat="43.59193" lon="6.37405">
        <ele>647.1</ele>
        <time>2026-02-22T08:31:02Z</time>
      </trkpt>
      <trkpt lat="43.59193" lon="6.37404">
        <ele>647.3</ele>
        <time>2026-02-22T08:31:03Z</time>
      </trkpt>
      <trkpt lat="43.59193" lon="6.37404">
        <ele>647.5</ele>
        <time>2026-02-22T08:31:04Z</time>
      </trkpt>
      <trkpt lat="43.59194" lon="6.37403">
        <ele>647.6</ele>
        <time>2026-02-22T08:31:05Z</time>
      </trkpt>
      <trkpt lat="43.59195" lon="6.37402">
        <ele>647.8</ele>
        <time>2026-02-22T08:31:06Z</time>
      </trkpt>
      <trkpt lat="43.59195" lon="6.37401">
        <ele>648.1</ele>
        <time>2026-02-22T08:31:07Z</time>
      </trkpt>
      <trkpt lat="43.59195" lon="6.37401">
        <ele>648.3</ele>
        <time>2026-02-22T08:31:08Z</time>
      </trkpt>
      <trkpt lat="43.59196" lon="6.374">
        <ele>648.5</ele>
        <time>2026-02-22T08:31:09Z</time>
      </trkpt>
      <trkpt lat="43.59197" lon="6.374">
        <ele>648.7</ele>
        <time>2026-02-22T08:31:10Z</time>
      </trkpt>
      <trkpt lat="43.59198" lon="6.374">
        <ele>648.8</ele>
        <time>2026-02-22T08:31:11Z</time>
      </trkpt>
      <trkpt lat="43.59198" lon="6.37398">
        <ele>649</ele>
        <time>2026-02-22T08:31:12Z</time>
      </trkpt>
      <trkpt lat="43.59198" lon="6.37397">
        <ele>649.1</ele>
        <time>2026-02-22T08:31:13Z</time>
      </trkpt>
      <trkpt lat="43.59199" lon="6.37395">
        <ele>649.2</ele>
        <time>2026-02-22T08:31:14Z</time>
      </trkpt>
      <trkpt lat="43.59199" lon="6.37394">
        <ele>649.4</ele>
        <time>2026-02-22T08:31:15Z</time>
      </trkpt>
      <trkpt lat="43.592" lon="6.37393">
        <ele>649.6</ele>
        <time>2026-02-22T08:31:16Z</time>
      </trkpt>
      <trkpt lat="43.59201" lon="6.37391">
        <ele>649.7</ele>
        <time>2026-02-22T08:31:17Z</time>
      </trkpt>
      <trkpt lat="43.59202" lon="6.3739">
        <ele>649.8</ele>
        <time>2026-02-22T08:31:18Z</time>
      </trkpt>
      <trkpt lat="43.59202" lon="6.37389">
        <ele>649.8</ele>
        <time>2026-02-22T08:31:19Z</time>
      </trkpt>
      <trkpt lat="43.59202" lon="6.37386">
        <ele>649.9</ele>
        <time>2026-02-22T08:31:20Z</time>
      </trkpt>
      <trkpt lat="43.59203" lon="6.37385">
        <ele>650</ele>
        <time>2026-02-22T08:31:21Z</time>
      </trkpt>
      <trkpt lat="43.59203" lon="6.37383">
        <ele>650.1</ele>
        <time>2026-02-22T08:31:22Z</time>
      </trkpt>
      <trkpt lat="43.59204" lon="6.37382">
        <ele>650.2</ele>
        <time>2026-02-22T08:31:23Z</time>
      </trkpt>
      <trkpt lat="43.59204" lon="6.37381">
        <ele>650.3</ele>
        <time>2026-02-22T08:31:24Z</time>
      </trkpt>
      <trkpt lat="43.59205" lon="6.3738">
        <ele>650.5</ele>
        <time>2026-02-22T08:31:25Z</time>
      </trkpt>
      <trkpt lat="43.59205" lon="6.37379">
        <ele>650.7</ele>
        <time>2026-02-22T08:31:26Z</time>
      </trkpt>
      <trkpt lat="43.59206" lon="6.37378">
        <ele>650.8</ele>
        <time>2026-02-22T08:31:27Z</time>
      </trkpt>
      <trkpt lat="43.59205" lon="6.37376">
        <ele>650.9</ele>
        <time>2026-02-22T08:31:28Z</time>
      </trkpt>
      <trkpt lat="43.59205" lon="6.37375">
        <ele>651</ele>
        <time>2026-02-22T08:31:29Z</time>
      </trkpt>
      <trkpt lat="43.59206" lon="6.37374">
        <ele>651.1</ele>
        <time>2026-02-22T08:31:30Z</time>
      </trkpt>
      <trkpt lat="43.59205" lon="6.37371">
        <ele>651.1</ele>
        <time>2026-02-22T08:31:31Z</time>
      </trkpt>
      <trkpt lat="43.59207" lon="6.3737">
        <ele>651.1</ele>
        <time>2026-02-22T08:31:32Z</time>
      </trkpt>
      <trkpt lat="43.59207" lon="6.3737">
        <ele>651.2</ele>
        <time>2026-02-22T08:31:33Z</time>
      </trkpt>
      <trkpt lat="43.59207" lon="6.37369">
        <ele>651.2</ele>
        <time>2026-02-22T08:31:34Z</time>
      </trkpt>
      <trkpt lat="43.59207" lon="6.37368">
        <ele>651.2</ele>
        <time>2026-02-22T08:31:35Z</time>
      </trkpt>
      <trkpt lat="43.59208" lon="6.37367">
        <ele>651.2</ele>
        <time>2026-02-22T08:31:36Z</time>
      </trkpt>
      <trkpt lat="43.59209" lon="6.37366">
        <ele>651.3</ele>
        <time>2026-02-22T08:31:37Z</time>
      </trkpt>
      <trkpt lat="43.59209" lon="6.37365">
        <ele>651.3</ele>
        <time>2026-02-22T08:31:38Z</time>
      </trkpt>
      <trkpt lat="43.5921" lon="6.37365">
        <ele>651.3</ele>
        <time>2026-02-22T08:31:39Z</time>
      </trkpt>
      <trkpt lat="43.59211" lon="6.37363">
        <ele>651.3</ele>
        <time>2026-02-22T08:31:40Z</time>
      </trkpt>
      <trkpt lat="43.59211" lon="6.37362">
        <ele>651.3</ele>
        <time>2026-02-22T08:31:41Z</time>
      </trkpt>
      <trkpt lat="43.59211" lon="6.37361">
        <ele>651.4</ele>
        <time>2026-02-22T08:31:42Z</time>
      </trkpt>
      <trkpt lat="43.59211" lon="6.3736">
        <ele>651.5</ele>
        <time>2026-02-22T08:31:43Z</time>
      </trkpt>
      <trkpt lat="43.59211" lon="6.37359">
        <ele>651.6</ele>
        <time>2026-02-22T08:31:44Z</time>
      </trkpt>
      <trkpt lat="43.59211" lon="6.37357">
        <ele>651.7</ele>
        <time>2026-02-22T08:31:45Z</time>
      </trkpt>
      <trkpt lat="43.59212" lon="6.37356">
        <ele>651.8</ele>
        <time>2026-02-22T08:31:46Z</time>
      </trkpt>
      <trkpt lat="43.59213" lon="6.37355">
        <ele>651.8</ele>
        <time>2026-02-22T08:31:47Z</time>
      </trkpt>
      <trkpt lat="43.59213" lon="6.37354">
        <ele>651.8</ele>
        <time>2026-02-22T08:31:48Z</time>
      </trkpt>
      <trkpt lat="43.59213" lon="6.37353">
        <ele>651.8</ele>
        <time>2026-02-22T08:31:49Z</time>
      </trkpt>
      <trkpt lat="43.59214" lon="6.37352">
        <ele>651.8</ele>
        <time>2026-02-22T08:31:50Z</time>
      </trkpt>
      <trkpt lat="43.59214" lon="6.37351">
        <ele>651.8</ele>
        <time>2026-02-22T08:31:51Z</time>
      </trkpt>
      <trkpt lat="43.59214" lon="6.3735">
        <ele>651.8</ele>
        <time>2026-02-22T08:31:52Z</time>
      </trkpt>
      <trkpt lat="43.59215" lon="6.37349">
        <ele>651.8</ele>
        <time>2026-02-22T08:31:53Z</time>
      </trkpt>
      <trkpt lat="43.59215" lon="6.37349">
        <ele>651.8</ele>
        <time>2026-02-22T08:31:54Z</time>
      </trkpt>
      <trkpt lat="43.59215" lon="6.37348">
        <ele>651.8</ele>
        <time>2026-02-22T08:31:55Z</time>
      </trkpt>
      <trkpt lat="43.59215" lon="6.37347">
        <ele>651.9</ele>
        <time>2026-02-22T08:31:56Z</time>
      </trkpt>
      <trkpt lat="43.59215" lon="6.37346">
        <ele>651.9</ele>
        <time>2026-02-22T08:31:57Z</time>
      </trkpt>
      <trkpt lat="43.59215" lon="6.37346">
        <ele>651.9</ele>
        <time>2026-02-22T08:31:58Z</time>
      </trkpt>
      <trkpt lat="43.59215" lon="6.37345">
        <ele>652</ele>
        <time>2026-02-22T08:31:59Z</time>
      </trkpt>
      <trkpt lat="43.59215" lon="6.37345">
        <ele>652</ele>
        <time>2026-02-22T08:32:00Z</time>
      </trkpt>
      <trkpt lat="43.59216" lon="6.37344">
        <ele>652.1</ele>
        <time>2026-02-22T08:32:01Z</time>
      </trkpt>
      <trkpt lat="43.59216" lon="6.37343">
        <ele>652.2</ele>
        <time>2026-02-22T08:32:02Z</time>
      </trkpt>
      <trkpt lat="43.59218" lon="6.37342">
        <ele>652.3</ele>
        <time>2026-02-22T08:32:03Z</time>
      </trkpt>
      <trkpt lat="43.5922" lon="6.37342">
        <ele>652.5</ele>
        <time>2026-02-22T08:32:04Z</time>
      </trkpt>
      <trkpt lat="43.59221" lon="6.37341">
        <ele>652.5</ele>
        <time>2026-02-22T08:32:05Z</time>
      </trkpt>
      <trkpt lat="43.59221" lon="6.37342">
        <ele>652.6</ele>
        <time>2026-02-22T08:32:06Z</time>
      </trkpt>
      <trkpt lat="43.59221" lon="6.37341">
        <ele>652.6</ele>
        <time>2026-02-22T08:32:07Z</time>
      </trkpt>
      <trkpt lat="43.59221" lon="6.3734">
        <ele>652.6</ele>
        <time>2026-02-22T08:32:08Z</time>
      </trkpt>
      <trkpt lat="43.59221" lon="6.37339">
        <ele>652.5</ele>
        <time>2026-02-22T08:32:09Z</time>
      </trkpt>
      <trkpt lat="43.59221" lon="6.37337">
        <ele>652.5</ele>
        <time>2026-02-22T08:32:10Z</time>
      </trkpt>
      <trkpt lat="43.59222" lon="6.37337">
        <ele>652.8</ele>
        <time>2026-02-22T08:32:11Z</time>
      </trkpt>
      <trkpt lat="43.59223" lon="6.37335">
        <ele>652.7</ele>
        <time>2026-02-22T08:32:12Z</time>
      </trkpt>
      <trkpt lat="43.59223" lon="6.37334">
        <ele>652.6</ele>
        <time>2026-02-22T08:32:13Z</time>
      </trkpt>
      <trkpt lat="43.59224" lon="6.37334">
        <ele>652.5</ele>
        <time>2026-02-22T08:32:14Z</time>
      </trkpt>
      <trkpt lat="43.59224" lon="6.37333">
        <ele>652.4</ele>
        <time>2026-02-22T08:32:15Z</time>
      </trkpt>
      <trkpt lat="43.59224" lon="6.37332">
        <ele>652.3</ele>
        <time>2026-02-22T08:32:16Z</time>
      </trkpt>
      <trkpt lat="43.59225" lon="6.37331">
        <ele>652.2</ele>
        <time>2026-02-22T08:32:17Z</time>
      </trkpt>
      <trkpt lat="43.59225" lon="6.37331">
        <ele>652.1</ele>
        <time>2026-02-22T08:32:18Z</time>
      </trkpt>
      <trkpt lat="43.59225" lon="6.3733">
        <ele>652</ele>
        <time>2026-02-22T08:32:19Z</time>
      </trkpt>
      <trkpt lat="43.59227" lon="6.37327">
        <ele>652</ele>
        <time>2026-02-22T08:32:20Z</time>
      </trkpt>
      <trkpt lat="43.59227" lon="6.37326">
        <ele>651.8</ele>
        <time>2026-02-22T08:32:21Z</time>
      </trkpt>
      <trkpt lat="43.59228" lon="6.37325">
        <ele>651.6</ele>
        <time>2026-02-22T08:32:22Z</time>
      </trkpt>
      <trkpt lat="43.59228" lon="6.37324">
        <ele>651.4</ele>
        <time>2026-02-22T08:32:23Z</time>
      </trkpt>
      <trkpt lat="43.5923" lon="6.37324">
        <ele>651.2</ele>
        <time>2026-02-22T08:32:24Z</time>
      </trkpt>
      <trkpt lat="43.59231" lon="6.37324">
        <ele>651</ele>
        <time>2026-02-22T08:32:25Z</time>
      </trkpt>
      <trkpt lat="43.59231" lon="6.37322">
        <ele>650.9</ele>
        <time>2026-02-22T08:32:26Z</time>
      </trkpt>
      <trkpt lat="43.59231" lon="6.37321">
        <ele>650.7</ele>
        <time>2026-02-22T08:32:27Z</time>
      </trkpt>
      <trkpt lat="43.59231" lon="6.3732">
        <ele>650.4</ele>
        <time>2026-02-22T08:32:28Z</time>
      </trkpt>
      <trkpt lat="43.59232" lon="6.3732">
        <ele>650.2</ele>
        <time>2026-02-22T08:32:29Z</time>
      </trkpt>
      <trkpt lat="43.59232" lon="6.37319">
        <ele>650</ele>
        <time>2026-02-22T08:32:30Z</time>
      </trkpt>
      <trkpt lat="43.59233" lon="6.37319">
        <ele>649.9</ele>
        <time>2026-02-22T08:32:31Z</time>
      </trkpt>
      <trkpt lat="43.59234" lon="6.37318">
        <ele>649.7</ele>
        <time>2026-02-22T08:32:32Z</time>
      </trkpt>
      <trkpt lat="43.59234" lon="6.37317">
        <ele>649.4</ele>
        <time>2026-02-22T08:32:33Z</time>
      </trkpt>
      <trkpt lat="43.59234" lon="6.37316">
        <ele>649.2</ele>
        <time>2026-02-22T08:32:34Z</time>
      </trkpt>
      <trkpt lat="43.59236" lon="6.37315">
        <ele>648.9</ele>
        <time>2026-02-22T08:32:35Z</time>
      </trkpt>
      <trkpt lat="43.59237" lon="6.37313">
        <ele>648.7</ele>
        <time>2026-02-22T08:32:36Z</time>
      </trkpt>
      <trkpt lat="43.59238" lon="6.37312">
        <ele>648.4</ele>
        <time>2026-02-22T08:32:37Z</time>
      </trkpt>
      <trkpt lat="43.59238" lon="6.37312">
        <ele>648.1</ele>
        <time>2026-02-22T08:32:38Z</time>
      </trkpt>
      <trkpt lat="43.59239" lon="6.37313">
        <ele>647.8</ele>
        <time>2026-02-22T08:32:39Z</time>
      </trkpt>
      <trkpt lat="43.59239" lon="6.37313">
        <ele>647.6</ele>
        <time>2026-02-22T08:32:40Z</time>
      </trkpt>
      <trkpt lat="43.5924" lon="6.37312">
        <ele>647.3</ele>
        <time>2026-02-22T08:32:41Z</time>
      </trkpt>
      <trkpt lat="43.59241" lon="6.37311">
        <ele>647.2</ele>
        <time>2026-02-22T08:32:42Z</time>
      </trkpt>
      <trkpt lat="43.59242" lon="6.37311">
        <ele>647</ele>
        <time>2026-02-22T08:32:43Z</time>
      </trkpt>
      <trkpt lat="43.59242" lon="6.37311">
        <ele>646.8</ele>
        <time>2026-02-22T08:32:44Z</time>
      </trkpt>
      <trkpt lat="43.59243" lon="6.37311">
        <ele>646.6</ele>
        <time>2026-02-22T08:32:45Z</time>
      </trkpt>
      <trkpt lat="43.59244" lon="6.3731">
        <ele>646.5</ele>
        <time>2026-02-22T08:32:46Z</time>
      </trkpt>
      <trkpt lat="43.59246" lon="6.37311">
        <ele>646.5</ele>
        <time>2026-02-22T08:32:47Z</time>
      </trkpt>
      <trkpt lat="43.59247" lon="6.3731">
        <ele>646.5</ele>
        <time>2026-02-22T08:32:48Z</time>
      </trkpt>
      <trkpt lat="43.59248" lon="6.3731">
        <ele>646.5</ele>
        <time>2026-02-22T08:32:49Z</time>
      </trkpt>
      <trkpt lat="43.59249" lon="6.37309">
        <ele>646.4</ele>
        <time>2026-02-22T08:32:50Z</time>
      </trkpt>
      <trkpt lat="43.59249" lon="6.37307">
        <ele>646.4</ele>
        <time>2026-02-22T08:32:51Z</time>
      </trkpt>
      <trkpt lat="43.5925" lon="6.37306">
        <ele>646.4</ele>
        <time>2026-02-22T08:32:52Z</time>
      </trkpt>
      <trkpt lat="43.59252" lon="6.37305">
        <ele>646.4</ele>
        <time>2026-02-22T08:32:53Z</time>
      </trkpt>
      <trkpt lat="43.59254" lon="6.37305">
        <ele>646.5</ele>
        <time>2026-02-22T08:32:54Z</time>
      </trkpt>
      <trkpt lat="43.59255" lon="6.37304">
        <ele>646.5</ele>
        <time>2026-02-22T08:32:55Z</time>
      </trkpt>
      <trkpt lat="43.59257" lon="6.37303">
        <ele>646.5</ele>
        <time>2026-02-22T08:32:56Z</time>
      </trkpt>
      <trkpt lat="43.59259" lon="6.37302">
        <ele>646.5</ele>
        <time>2026-02-22T08:32:57Z</time>
      </trkpt>
      <trkpt lat="43.5926" lon="6.37301">
        <ele>646.6</ele>
        <time>2026-02-22T08:32:58Z</time>
      </trkpt>
      <trkpt lat="43.59261" lon="6.37301">
        <ele>646.6</ele>
        <time>2026-02-22T08:32:59Z</time>
      </trkpt>
      <trkpt lat="43.59262" lon="6.373">
        <ele>646.6</ele>
        <time>2026-02-22T08:33:00Z</time>
      </trkpt>
      <trkpt lat="43.59263" lon="6.37299">
        <ele>646.7</ele>
        <time>2026-02-22T08:33:01Z</time>
      </trkpt>
      <trkpt lat="43.59264" lon="6.37299">
        <ele>646.7</ele>
        <time>2026-02-22T08:33:02Z</time>
      </trkpt>
      <trkpt lat="43.59265" lon="6.37298">
        <ele>646.8</ele>
        <time>2026-02-22T08:33:03Z</time>
      </trkpt>
      <trkpt lat="43.59264" lon="6.37297">
        <ele>646.8</ele>
        <time>2026-02-22T08:33:04Z</time>
      </trkpt>
      <trkpt lat="43.59265" lon="6.37297">
        <ele>646.9</ele>
        <time>2026-02-22T08:33:05Z</time>
      </trkpt>
      <trkpt lat="43.59266" lon="6.37296">
        <ele>646.9</ele>
        <time>2026-02-22T08:33:06Z</time>
      </trkpt>
      <trkpt lat="43.59267" lon="6.37295">
        <ele>647</ele>
        <time>2026-02-22T08:33:07Z</time>
      </trkpt>
      <trkpt lat="43.59267" lon="6.37294">
        <ele>647.1</ele>
        <time>2026-02-22T08:33:08Z</time>
      </trkpt>
      <trkpt lat="43.59268" lon="6.37292">
        <ele>647.1</ele>
        <time>2026-02-22T08:33:09Z</time>
      </trkpt>
      <trkpt lat="43.59269" lon="6.37291">
        <ele>647.2</ele>
        <time>2026-02-22T08:33:10Z</time>
      </trkpt>
      <trkpt lat="43.59268" lon="6.37289">
        <ele>647.2</ele>
        <time>2026-02-22T08:33:11Z</time>
      </trkpt>
      <trkpt lat="43.59268" lon="6.37289">
        <ele>647.2</ele>
        <time>2026-02-22T08:33:12Z</time>
      </trkpt>
      <trkpt lat="43.59269" lon="6.37288">
        <ele>647.3</ele>
        <time>2026-02-22T08:33:13Z</time>
      </trkpt>
      <trkpt lat="43.59269" lon="6.37286">
        <ele>647.5</ele>
        <time>2026-02-22T08:33:14Z</time>
      </trkpt>
      <trkpt lat="43.59269" lon="6.37286">
        <ele>647.6</ele>
        <time>2026-02-22T08:33:15Z</time>
      </trkpt>
      <trkpt lat="43.5927" lon="6.37285">
        <ele>647.7</ele>
        <time>2026-02-22T08:33:16Z</time>
      </trkpt>
      <trkpt lat="43.59272" lon="6.37285">
        <ele>647.8</ele>
        <time>2026-02-22T08:33:17Z</time>
      </trkpt>
      <trkpt lat="43.59273" lon="6.37284">
        <ele>647.8</ele>
        <time>2026-02-22T08:33:18Z</time>
      </trkpt>
      <trkpt lat="43.59274" lon="6.37284">
        <ele>647.9</ele>
        <time>2026-02-22T08:33:19Z</time>
      </trkpt>
      <trkpt lat="43.59274" lon="6.37283">
        <ele>647.9</ele>
        <time>2026-02-22T08:33:20Z</time>
      </trkpt>
      <trkpt lat="43.59275" lon="6.37282">
        <ele>648</ele>
        <time>2026-02-22T08:33:21Z</time>
      </trkpt>
      <trkpt lat="43.59276" lon="6.37281">
        <ele>648.1</ele>
        <time>2026-02-22T08:33:22Z</time>
      </trkpt>
      <trkpt lat="43.59277" lon="6.37281">
        <ele>648.1</ele>
        <time>2026-02-22T08:33:23Z</time>
      </trkpt>
      <trkpt lat="43.59278" lon="6.3728">
        <ele>648.2</ele>
        <time>2026-02-22T08:33:24Z</time>
      </trkpt>
      <trkpt lat="43.59278" lon="6.3728">
        <ele>648.2</ele>
        <time>2026-02-22T08:33:25Z</time>
      </trkpt>
      <trkpt lat="43.59279" lon="6.37279">
        <ele>648.4</ele>
        <time>2026-02-22T08:33:26Z</time>
      </trkpt>
      <trkpt lat="43.59279" lon="6.37278">
        <ele>648.5</ele>
        <time>2026-02-22T08:33:27Z</time>
      </trkpt>
      <trkpt lat="43.5928" lon="6.37278">
        <ele>648.5</ele>
        <time>2026-02-22T08:33:28Z</time>
      </trkpt>
      <trkpt lat="43.59281" lon="6.37278">
        <ele>648.6</ele>
        <time>2026-02-22T08:33:29Z</time>
      </trkpt>
      <trkpt lat="43.59282" lon="6.37277">
        <ele>648.7</ele>
        <time>2026-02-22T08:33:30Z</time>
      </trkpt>
      <trkpt lat="43.59283" lon="6.37277">
        <ele>648.8</ele>
        <time>2026-02-22T08:33:31Z</time>
      </trkpt>
      <trkpt lat="43.59284" lon="6.37276">
        <ele>648.8</ele>
        <time>2026-02-22T08:33:32Z</time>
      </trkpt>
      <trkpt lat="43.59285" lon="6.37275">
        <ele>648.8</ele>
        <time>2026-02-22T08:33:33Z</time>
      </trkpt>
      <trkpt lat="43.59285" lon="6.37274">
        <ele>648.9</ele>
        <time>2026-02-22T08:33:34Z</time>
      </trkpt>
      <trkpt lat="43.59286" lon="6.37274">
        <ele>649</ele>
        <time>2026-02-22T08:33:35Z</time>
      </trkpt>
      <trkpt lat="43.59286" lon="6.37274">
        <ele>649</ele>
        <time>2026-02-22T08:33:36Z</time>
      </trkpt>
      <trkpt lat="43.59286" lon="6.37274">
        <ele>649</ele>
        <time>2026-02-22T08:33:37Z</time>
      </trkpt>
      <trkpt lat="43.59286" lon="6.37275">
        <ele>649.1</ele>
        <time>2026-02-22T08:33:38Z</time>
      </trkpt>
      <trkpt lat="43.59286" lon="6.37274">
        <ele>649.1</ele>
        <time>2026-02-22T08:33:39Z</time>
      </trkpt>
      <trkpt lat="43.59287" lon="6.37274">
        <ele>649</ele>
        <time>2026-02-22T08:33:40Z</time>
      </trkpt>
      <trkpt lat="43.59288" lon="6.37273">
        <ele>649</ele>
        <time>2026-02-22T08:33:41Z</time>
      </trkpt>
      <trkpt lat="43.59289" lon="6.37272">
        <ele>649.1</ele>
        <time>2026-02-22T08:33:42Z</time>
      </trkpt>
      <trkpt lat="43.59289" lon="6.37272">
        <ele>649.2</ele>
        <time>2026-02-22T08:33:43Z</time>
      </trkpt>
      <trkpt lat="43.5929" lon="6.3727">
        <ele>649.3</ele>
        <time>2026-02-22T08:33:44Z</time>
      </trkpt>
      <trkpt lat="43.59291" lon="6.37269">
        <ele>649.4</ele>
        <time>2026-02-22T08:33:45Z</time>
      </trkpt>
      <trkpt lat="43.59291" lon="6.37268">
        <ele>649.4</ele>
        <time>2026-02-22T08:33:46Z</time>
      </trkpt>
      <trkpt lat="43.59292" lon="6.37268">
        <ele>649.5</ele>
        <time>2026-02-22T08:33:47Z</time>
      </trkpt>
      <trkpt lat="43.59293" lon="6.37267">
        <ele>649.6</ele>
        <time>2026-02-22T08:33:48Z</time>
      </trkpt>
      <trkpt lat="43.59294" lon="6.37267">
        <ele>649.6</ele>
        <time>2026-02-22T08:33:49Z</time>
      </trkpt>
      <trkpt lat="43.59294" lon="6.37266">
        <ele>649.6</ele>
        <time>2026-02-22T08:33:50Z</time>
      </trkpt>
      <trkpt lat="43.59295" lon="6.37265">
        <ele>649.7</ele>
        <time>2026-02-22T08:33:51Z</time>
      </trkpt>
      <trkpt lat="43.59297" lon="6.37265">
        <ele>649.7</ele>
        <time>2026-02-22T08:33:52Z</time>
      </trkpt>
      <trkpt lat="43.59297" lon="6.37265">
        <ele>649.8</ele>
        <time>2026-02-22T08:33:53Z</time>
      </trkpt>
      <trkpt lat="43.59298" lon="6.37265">
        <ele>649.8</ele>
        <time>2026-02-22T08:33:54Z</time>
      </trkpt>
      <trkpt lat="43.59299" lon="6.37263">
        <ele>649.9</ele>
        <time>2026-02-22T08:33:55Z</time>
      </trkpt>
      <trkpt lat="43.59299" lon="6.37263">
        <ele>650</ele>
        <time>2026-02-22T08:33:56Z</time>
      </trkpt>
      <trkpt lat="43.593" lon="6.37263">
        <ele>650</ele>
        <time>2026-02-22T08:33:57Z</time>
      </trkpt>
      <trkpt lat="43.59301" lon="6.37262">
        <ele>650</ele>
        <time>2026-02-22T08:33:58Z</time>
      </trkpt>
      <trkpt lat="43.59302" lon="6.37262">
        <ele>650.1</ele>
        <time>2026-02-22T08:33:59Z</time>
      </trkpt>
      <trkpt lat="43.59302" lon="6.37261">
        <ele>650.2</ele>
        <time>2026-02-22T08:34:00Z</time>
      </trkpt>
      <trkpt lat="43.59303" lon="6.37261">
        <ele>650.2</ele>
        <time>2026-02-22T08:34:01Z</time>
      </trkpt>
      <trkpt lat="43.59303" lon="6.3726">
        <ele>650.3</ele>
        <time>2026-02-22T08:34:02Z</time>
      </trkpt>
      <trkpt lat="43.59304" lon="6.37259">
        <ele>650.4</ele>
        <time>2026-02-22T08:34:03Z</time>
      </trkpt>
      <trkpt lat="43.59305" lon="6.37258">
        <ele>650.4</ele>
        <time>2026-02-22T08:34:04Z</time>
      </trkpt>
      <trkpt lat="43.59306" lon="6.37258">
        <ele>650.6</ele>
        <time>2026-02-22T08:34:05Z</time>
      </trkpt>
      <trkpt lat="43.59307" lon="6.37257">
        <ele>650.5</ele>
        <time>2026-02-22T08:34:06Z</time>
      </trkpt>
      <trkpt lat="43.59307" lon="6.37256">
        <ele>650.6</ele>
        <time>2026-02-22T08:34:07Z</time>
      </trkpt>
      <trkpt lat="43.59308" lon="6.37256">
        <ele>650.7</ele>
        <time>2026-02-22T08:34:08Z</time>
      </trkpt>
      <trkpt lat="43.59309" lon="6.37255">
        <ele>650.8</ele>
        <time>2026-02-22T08:34:09Z</time>
      </trkpt>
      <trkpt lat="43.5931" lon="6.37255">
        <ele>650.8</ele>
        <time>2026-02-22T08:34:10Z</time>
      </trkpt>
      <trkpt lat="43.59311" lon="6.37255">
        <ele>650.9</ele>
        <time>2026-02-22T08:34:11Z</time>
      </trkpt>
      <trkpt lat="43.59312" lon="6.37254">
        <ele>651</ele>
        <time>2026-02-22T08:34:12Z</time>
      </trkpt>
      <trkpt lat="43.59313" lon="6.37253">
        <ele>651</ele>
        <time>2026-02-22T08:34:13Z</time>
      </trkpt>
      <trkpt lat="43.59314" lon="6.37253">
        <ele>651.1</ele>
        <time>2026-02-22T08:34:14Z</time>
      </trkpt>
      <trkpt lat="43.59314" lon="6.37252">
        <ele>651.1</ele>
        <time>2026-02-22T08:34:15Z</time>
      </trkpt>
      <trkpt lat="43.59315" lon="6.37252">
        <ele>651.2</ele>
        <time>2026-02-22T08:34:16Z</time>
      </trkpt>
      <trkpt lat="43.59316" lon="6.37251">
        <ele>651.2</ele>
        <time>2026-02-22T08:34:17Z</time>
      </trkpt>
      <trkpt lat="43.59317" lon="6.37251">
        <ele>651.3</ele>
        <time>2026-02-22T08:34:18Z</time>
      </trkpt>
      <trkpt lat="43.59318" lon="6.3725">
        <ele>651.4</ele>
        <time>2026-02-22T08:34:19Z</time>
      </trkpt>
      <trkpt lat="43.59319" lon="6.37249">
        <ele>651.6</ele>
        <time>2026-02-22T08:34:20Z</time>
      </trkpt>
      <trkpt lat="43.5932" lon="6.37248">
        <ele>651.7</ele>
        <time>2026-02-22T08:34:21Z</time>
      </trkpt>
      <trkpt lat="43.59321" lon="6.37247">
        <ele>651.9</ele>
        <time>2026-02-22T08:34:22Z</time>
      </trkpt>
      <trkpt lat="43.59322" lon="6.37246">
        <ele>652</ele>
        <time>2026-02-22T08:34:23Z</time>
      </trkpt>
      <trkpt lat="43.59322" lon="6.37246">
        <ele>652.1</ele>
        <time>2026-02-22T08:34:24Z</time>
      </trkpt>
      <trkpt lat="43.59323" lon="6.37246">
        <ele>652.2</ele>
        <time>2026-02-22T08:34:25Z</time>
      </trkpt>
      <trkpt lat="43.59324" lon="6.37245">
        <ele>652.5</ele>
        <time>2026-02-22T08:34:26Z</time>
      </trkpt>
      <trkpt lat="43.59325" lon="6.37244">
        <ele>652.7</ele>
        <time>2026-02-22T08:34:27Z</time>
      </trkpt>
      <trkpt lat="43.59325" lon="6.37244">
        <ele>652.8</ele>
        <time>2026-02-22T08:34:28Z</time>
      </trkpt>
      <trkpt lat="43.59325" lon="6.37244">
        <ele>653</ele>
        <time>2026-02-22T08:34:29Z</time>
      </trkpt>
      <trkpt lat="43.59326" lon="6.37242">
        <ele>653</ele>
        <time>2026-02-22T08:34:30Z</time>
      </trkpt>
      <trkpt lat="43.59326" lon="6.3724">
        <ele>653.2</ele>
        <time>2026-02-22T08:34:31Z</time>
      </trkpt>
      <trkpt lat="43.59326" lon="6.37239">
        <ele>653.3</ele>
        <time>2026-02-22T08:34:32Z</time>
      </trkpt>
      <trkpt lat="43.59326" lon="6.37238">
        <ele>653.3</ele>
        <time>2026-02-22T08:34:33Z</time>
      </trkpt>
      <trkpt lat="43.59327" lon="6.37237">
        <ele>653.3</ele>
        <time>2026-02-22T08:34:34Z</time>
      </trkpt>
      <trkpt lat="43.59327" lon="6.37237">
        <ele>653.4</ele>
        <time>2026-02-22T08:34:35Z</time>
      </trkpt>
      <trkpt lat="43.59326" lon="6.37237">
        <ele>653.4</ele>
        <time>2026-02-22T08:34:36Z</time>
      </trkpt>
      <trkpt lat="43.59326" lon="6.37237">
        <ele>653.4</ele>
        <time>2026-02-22T08:34:37Z</time>
      </trkpt>
      <trkpt lat="43.59326" lon="6.37236">
        <ele>653.3</ele>
        <time>2026-02-22T08:34:38Z</time>
      </trkpt>
      <trkpt lat="43.59327" lon="6.37235">
        <ele>653.3</ele>
        <time>2026-02-22T08:34:39Z</time>
      </trkpt>
      <trkpt lat="43.59328" lon="6.37235">
        <ele>653.2</ele>
        <time>2026-02-22T08:34:40Z</time>
      </trkpt>
      <trkpt lat="43.59328" lon="6.37235">
        <ele>653.2</ele>
        <time>2026-02-22T08:34:41Z</time>
      </trkpt>
      <trkpt lat="43.59329" lon="6.37234">
        <ele>653.2</ele>
        <time>2026-02-22T08:34:42Z</time>
      </trkpt>
      <trkpt lat="43.59329" lon="6.37234">
        <ele>653.2</ele>
        <time>2026-02-22T08:34:43Z</time>
      </trkpt>
      <trkpt lat="43.59329" lon="6.37234">
        <ele>653.3</ele>
        <time>2026-02-22T08:34:44Z</time>
      </trkpt>
      <trkpt lat="43.59329" lon="6.37234">
        <ele>653.3</ele>
        <time>2026-02-22T08:34:45Z</time>
      </trkpt>
      <trkpt lat="43.59328" lon="6.37233">
        <ele>653.2</ele>
        <time>2026-02-22T08:34:46Z</time>
      </trkpt>
      <trkpt lat="43.59328" lon="6.37233">
        <ele>653.2</ele>
        <time>2026-02-22T08:34:47Z</time>
      </trkpt>
      <trkpt lat="43.59328" lon="6.37233">
        <ele>653.3</ele>
        <time>2026-02-22T08:34:48Z</time>
      </trkpt>
      <trkpt lat="43.59328" lon="6.37233">
        <ele>653.4</ele>
        <time>2026-02-22T08:34:49Z</time>
      </trkpt>
      <trkpt lat="43.59329" lon="6.37233">
        <ele>653.5</ele>
        <time>2026-02-22T08:34:50Z</time>
      </trkpt>
      <trkpt lat="43.5933" lon="6.37233">
        <ele>653.5</ele>
        <time>2026-02-22T08:34:51Z</time>
      </trkpt>
      <trkpt lat="43.5933" lon="6.37233">
        <ele>653.5</ele>
        <time>2026-02-22T08:34:52Z</time>
      </trkpt>
      <trkpt lat="43.5933" lon="6.37234">
        <ele>653.4</ele>
        <time>2026-02-22T08:34:53Z</time>
      </trkpt>
      <trkpt lat="43.59329" lon="6.37234">
        <ele>653.4</ele>
        <time>2026-02-22T08:34:54Z</time>
      </trkpt>
      <trkpt lat="43.59329" lon="6.37234">
        <ele>653.5</ele>
        <time>2026-02-22T08:34:55Z</time>
      </trkpt>
      <trkpt lat="43.5933" lon="6.37235">
        <ele>653.4</ele>
        <time>2026-02-22T08:34:56Z</time>
      </trkpt>
      <trkpt lat="43.5933" lon="6.37235">
        <ele>653.3</ele>
        <time>2026-02-22T08:34:57Z</time>
      </trkpt>
      <trkpt lat="43.5933" lon="6.37235">
        <ele>653.3</ele>
        <time>2026-02-22T08:34:58Z</time>
      </trkpt>
      <trkpt lat="43.5933" lon="6.37235">
        <ele>653.2</ele>
        <time>2026-02-22T08:34:59Z</time>
      </trkpt>
      <trkpt lat="43.5933" lon="6.37235">
        <ele>653.2</ele>
        <time>2026-02-22T08:35:00Z</time>
      </trkpt>
      <trkpt lat="43.5933" lon="6.37235">
        <ele>653.2</ele>
        <time>2026-02-22T08:35:01Z</time>
      </trkpt>
      <trkpt lat="43.5933" lon="6.37235">
        <ele>653.3</ele>
        <time>2026-02-22T08:35:02Z</time>
      </trkpt>
      <trkpt lat="43.5933" lon="6.37235">
        <ele>653.2</ele>
        <time>2026-02-22T08:35:03Z</time>
      </trkpt>
      <trkpt lat="43.5933" lon="6.37235">
        <ele>653.2</ele>
        <time>2026-02-22T08:35:04Z</time>
      </trkpt>
      <trkpt lat="43.5933" lon="6.37235">
        <ele>653.1</ele>
        <time>2026-02-22T08:35:05Z</time>
      </trkpt>
      <trkpt lat="43.5933" lon="6.37235">
        <ele>653.1</ele>
        <time>2026-02-22T08:35:06Z</time>
      </trkpt>
      <trkpt lat="43.5933" lon="6.37235">
        <ele>653.1</ele>
        <time>2026-02-22T08:35:07Z</time>
      </trkpt>
      <trkpt lat="43.5933" lon="6.37235">
        <ele>653</ele>
        <time>2026-02-22T08:35:08Z</time>
      </trkpt>
      <trkpt lat="43.59329" lon="6.37235">
        <ele>653</ele>
        <time>2026-02-22T08:35:09Z</time>
      </trkpt>
      <trkpt lat="43.59329" lon="6.37235">
        <ele>653</ele>
        <time>2026-02-22T08:35:10Z</time>
      </trkpt>
      <trkpt lat="43.59329" lon="6.37235">
        <ele>653.1</ele>
        <time>2026-02-22T08:35:11Z</time>
      </trkpt>
      <trkpt lat="43.59329" lon="6.37235">
        <ele>653.2</ele>
        <time>2026-02-22T08:35:12Z</time>
      </trkpt>
      <trkpt lat="43.59329" lon="6.37235">
        <ele>653.2</ele>
        <time>2026-02-22T08:35:13Z</time>
      </trkpt>
      <trkpt lat="43.59329" lon="6.37235">
        <ele>653.1</ele>
        <time>2026-02-22T08:35:14Z</time>
      </trkpt>
      <trkpt lat="43.59329" lon="6.37235">
        <ele>653.1</ele>
        <time>2026-02-22T08:35:15Z</time>
      </trkpt>
      <trkpt lat="43.59328" lon="6.37235">
        <ele>653.1</ele>
        <time>2026-02-22T08:35:16Z</time>
      </trkpt>
      <trkpt lat="43.59328" lon="6.37235">
        <ele>653.1</ele>
        <time>2026-02-22T08:35:17Z</time>
      </trkpt>
      <trkpt lat="43.59328" lon="6.37235">
        <ele>653</ele>
        <time>2026-02-22T08:35:18Z</time>
      </trkpt>
      <trkpt lat="43.59328" lon="6.37235">
        <ele>653</ele>
        <time>2026-02-22T08:35:19Z</time>
      </trkpt>
      <trkpt lat="43.59328" lon="6.37235">
        <ele>652.9</ele>
        <time>2026-02-22T08:35:20Z</time>
      </trkpt>
      <trkpt lat="43.59328" lon="6.37235">
        <ele>652.9</ele>
        <time>2026-02-22T08:35:21Z</time>
      </trkpt>
      <trkpt lat="43.59328" lon="6.37235">
        <ele>652.9</ele>
        <time>2026-02-22T08:35:22Z</time>
      </trkpt>
      <trkpt lat="43.59328" lon="6.37235">
        <ele>652.8</ele>
        <time>2026-02-22T08:35:23Z</time>
      </trkpt>
      <trkpt lat="43.59328" lon="6.37235">
        <ele>652.9</ele>
        <time>2026-02-22T08:35:24Z</time>
      </trkpt>
      <trkpt lat="43.59328" lon="6.37235">
        <ele>652.8</ele>
        <time>2026-02-22T08:35:25Z</time>
      </trkpt>
      <trkpt lat="43.59328" lon="6.37235">
        <ele>652.8</ele>
        <time>2026-02-22T08:35:26Z</time>
      </trkpt>
      <trkpt lat="43.59329" lon="6.37235">
        <ele>652.8</ele>
        <time>2026-02-22T08:35:27Z</time>
      </trkpt>
      <trkpt lat="43.59329" lon="6.37235">
        <ele>652.7</ele>
        <time>2026-02-22T08:35:28Z</time>
      </trkpt>
      <trkpt lat="43.59329" lon="6.37235">
        <ele>652.7</ele>
        <time>2026-02-22T08:35:29Z</time>
      </trkpt>
      <trkpt lat="43.59329" lon="6.37235">
        <ele>652.8</ele>
        <time>2026-02-22T08:35:30Z</time>
      </trkpt>
      <trkpt lat="43.59329" lon="6.37236">
        <ele>652.9</ele>
        <time>2026-02-22T08:35:31Z</time>
      </trkpt>
      <trkpt lat="43.59328" lon="6.37237">
        <ele>652.9</ele>
        <time>2026-02-22T08:35:32Z</time>
      </trkpt>
      <trkpt lat="43.59327" lon="6.37237">
        <ele>653</ele>
        <time>2026-02-22T08:35:33Z</time>
      </trkpt>
      <trkpt lat="43.59327" lon="6.37237">
        <ele>653</ele>
        <time>2026-02-22T08:35:34Z</time>
      </trkpt>
      <trkpt lat="43.59327" lon="6.37237">
        <ele>653</ele>
        <time>2026-02-22T08:35:35Z</time>
      </trkpt>
      <trkpt lat="43.59326" lon="6.37237">
        <ele>653</ele>
        <time>2026-02-22T08:35:36Z</time>
      </trkpt>
      <trkpt lat="43.59326" lon="6.37237">
        <ele>653</ele>
        <time>2026-02-22T08:35:37Z</time>
      </trkpt>
      <trkpt lat="43.59326" lon="6.37237">
        <ele>652.9</ele>
        <time>2026-02-22T08:35:38Z</time>
      </trkpt>
      <trkpt lat="43.59326" lon="6.37237">
        <ele>652.9</ele>
        <time>2026-02-22T08:35:39Z</time>
      </trkpt>
      <trkpt lat="43.59326" lon="6.37237">
        <ele>652.9</ele>
        <time>2026-02-22T08:35:40Z</time>
      </trkpt>
      <trkpt lat="43.59326" lon="6.37237">
        <ele>653</ele>
        <time>2026-02-22T08:35:41Z</time>
      </trkpt>
      <trkpt lat="43.59327" lon="6.37237">
        <ele>653</ele>
        <time>2026-02-22T08:35:42Z</time>
      </trkpt>
      <trkpt lat="43.59327" lon="6.37237">
        <ele>653.1</ele>
        <time>2026-02-22T08:35:43Z</time>
      </trkpt>
      <trkpt lat="43.59327" lon="6.37238">
        <ele>653.2</ele>
        <time>2026-02-22T08:35:44Z</time>
      </trkpt>
      <trkpt lat="43.59327" lon="6.37238">
        <ele>653.2</ele>
        <time>2026-02-22T08:35:45Z</time>
      </trkpt>
      <trkpt lat="43.59328" lon="6.37238">
        <ele>653.1</ele>
        <time>2026-02-22T08:35:46Z</time>
      </trkpt>
      <trkpt lat="43.59329" lon="6.37238">
        <ele>653</ele>
        <time>2026-02-22T08:35:47Z</time>
      </trkpt>
      <trkpt lat="43.59329" lon="6.37238">
        <ele>652.9</ele>
        <time>2026-02-22T08:35:48Z</time>
      </trkpt>
      <trkpt lat="43.59329" lon="6.37238">
        <ele>652.9</ele>
        <time>2026-02-22T08:35:49Z</time>
      </trkpt>
      <trkpt lat="43.59329" lon="6.37237">
        <ele>653</ele>
        <time>2026-02-22T08:35:50Z</time>
      </trkpt>
      <trkpt lat="43.59329" lon="6.37237">
        <ele>652.9</ele>
        <time>2026-02-22T08:35:51Z</time>
      </trkpt>
      <trkpt lat="43.59329" lon="6.37237">
        <ele>652.9</ele>
        <time>2026-02-22T08:35:52Z</time>
      </trkpt>
      <trkpt lat="43.59329" lon="6.37237">
        <ele>652.8</ele>
        <time>2026-02-22T08:35:53Z</time>
      </trkpt>
      <trkpt lat="43.5933" lon="6.37238">
        <ele>652.8</ele>
        <time>2026-02-22T08:35:54Z</time>
      </trkpt>
      <trkpt lat="43.5933" lon="6.37238">
        <ele>652.8</ele>
        <time>2026-02-22T08:35:55Z</time>
      </trkpt>
      <trkpt lat="43.5933" lon="6.37238">
        <ele>652.7</ele>
        <time>2026-02-22T08:35:56Z</time>
      </trkpt>
      <trkpt lat="43.5933" lon="6.37238">
        <ele>652.7</ele>
        <time>2026-02-22T08:35:57Z</time>
      </trkpt>
      <trkpt lat="43.59331" lon="6.37237">
        <ele>652.7</ele>
        <time>2026-02-22T08:35:58Z</time>
      </trkpt>
      <trkpt lat="43.59331" lon="6.37237">
        <ele>652.7</ele>
        <time>2026-02-22T08:35:59Z</time>
      </trkpt>
      <trkpt lat="43.59331" lon="6.37237">
        <ele>652.7</ele>
        <time>2026-02-22T08:36:00Z</time>
      </trkpt>
      <trkpt lat="43.59331" lon="6.37237">
        <ele>652.8</ele>
        <time>2026-02-22T08:36:01Z</time>
      </trkpt>
      <trkpt lat="43.59332" lon="6.37237">
        <ele>652.9</ele>
        <time>2026-02-22T08:36:02Z</time>
      </trkpt>
      <trkpt lat="43.59332" lon="6.37238">
        <ele>653</ele>
        <time>2026-02-22T08:36:03Z</time>
      </trkpt>
      <trkpt lat="43.59332" lon="6.37238">
        <ele>653</ele>
        <time>2026-02-22T08:36:04Z</time>
      </trkpt>
      <trkpt lat="43.59332" lon="6.37237">
        <ele>653</ele>
        <time>2026-02-22T08:36:05Z</time>
      </trkpt>
      <trkpt lat="43.59332" lon="6.37237">
        <ele>653</ele>
        <time>2026-02-22T08:36:06Z</time>
      </trkpt>
      <trkpt lat="43.59332" lon="6.37237">
        <ele>653</ele>
        <time>2026-02-22T08:36:07Z</time>
      </trkpt>
      <trkpt lat="43.59333" lon="6.37237">
        <ele>652.9</ele>
        <time>2026-02-22T08:36:08Z</time>
      </trkpt>
      <trkpt lat="43.59333" lon="6.37237">
        <ele>652.9</ele>
        <time>2026-02-22T08:36:09Z</time>
      </trkpt>
      <trkpt lat="43.59333" lon="6.37237">
        <ele>652.8</ele>
        <time>2026-02-22T08:36:10Z</time>
      </trkpt>
      <trkpt lat="43.59333" lon="6.37237">
        <ele>652.8</ele>
        <time>2026-02-22T08:36:11Z</time>
      </trkpt>
      <trkpt lat="43.59333" lon="6.37237">
        <ele>652.8</ele>
        <time>2026-02-22T08:36:12Z</time>
      </trkpt>
      <trkpt lat="43.59334" lon="6.37237">
        <ele>652.8</ele>
        <time>2026-02-22T08:36:13Z</time>
      </trkpt>
      <trkpt lat="43.59333" lon="6.37237">
        <ele>652.8</ele>
        <time>2026-02-22T08:36:14Z</time>
      </trkpt>
      <trkpt lat="43.59333" lon="6.37236">
        <ele>652.7</ele>
        <time>2026-02-22T08:36:15Z</time>
      </trkpt>
      <trkpt lat="43.59333" lon="6.37236">
        <ele>652.8</ele>
        <time>2026-02-22T08:36:16Z</time>
      </trkpt>
      <trkpt lat="43.59333" lon="6.37236">
        <ele>652.8</ele>
        <time>2026-02-22T08:36:17Z</time>
      </trkpt>
      <trkpt lat="43.59333" lon="6.37236">
        <ele>652.8</ele>
        <time>2026-02-22T08:36:18Z</time>
      </trkpt>
      <trkpt lat="43.59333" lon="6.37236">
        <ele>652.8</ele>
        <time>2026-02-22T08:36:19Z</time>
      </trkpt>
      <trkpt lat="43.59333" lon="6.37236">
        <ele>652.8</ele>
        <time>2026-02-22T08:36:20Z</time>
      </trkpt>
      <trkpt lat="43.59332" lon="6.37236">
        <ele>652.9</ele>
        <time>2026-02-22T08:36:21Z</time>
      </trkpt>
      <trkpt lat="43.59332" lon="6.37236">
        <ele>652.8</ele>
        <time>2026-02-22T08:36:22Z</time>
      </trkpt>
      <trkpt lat="43.59332" lon="6.37236">
        <ele>652.7</ele>
        <time>2026-02-22T08:36:23Z</time>
      </trkpt>
      <trkpt lat="43.59332" lon="6.37236">
        <ele>652.7</ele>
        <time>2026-02-22T08:36:24Z</time>
      </trkpt>
      <trkpt lat="43.59332" lon="6.37236">
        <ele>652.6</ele>
        <time>2026-02-22T08:36:25Z</time>
      </trkpt>
      <trkpt lat="43.59332" lon="6.37236">
        <ele>652.6</ele>
        <time>2026-02-22T08:36:26Z</time>
      </trkpt>
      <trkpt lat="43.59332" lon="6.37236">
        <ele>652.7</ele>
        <time>2026-02-22T08:36:27Z</time>
      </trkpt>
      <trkpt lat="43.59332" lon="6.37236">
        <ele>652.7</ele>
        <time>2026-02-22T08:36:28Z</time>
      </trkpt>
      <trkpt lat="43.59332" lon="6.37236">
        <ele>652.8</ele>
        <time>2026-02-22T08:36:29Z</time>
      </trkpt>
      <trkpt lat="43.59332" lon="6.37236">
        <ele>652.8</ele>
        <time>2026-02-22T08:36:30Z</time>
      </trkpt>
      <trkpt lat="43.59332" lon="6.37236">
        <ele>652.9</ele>
        <time>2026-02-22T08:36:31Z</time>
      </trkpt>
      <trkpt lat="43.59332" lon="6.37237">
        <ele>652.9</ele>
        <time>2026-02-22T08:36:32Z</time>
      </trkpt>
      <trkpt lat="43.59332" lon="6.37236">
        <ele>652.8</ele>
        <time>2026-02-22T08:36:33Z</time>
      </trkpt>
      <trkpt lat="43.59331" lon="6.37237">
        <ele>653</ele>
        <time>2026-02-22T08:36:34Z</time>
      </trkpt>
      <trkpt lat="43.59331" lon="6.37237">
        <ele>652.9</ele>
        <time>2026-02-22T08:36:35Z</time>
      </trkpt>
      <trkpt lat="43.59332" lon="6.37237">
        <ele>652.8</ele>
        <time>2026-02-22T08:36:36Z</time>
      </trkpt>
      <trkpt lat="43.59332" lon="6.37238">
        <ele>652.8</ele>
        <time>2026-02-22T08:36:37Z</time>
      </trkpt>
      <trkpt lat="43.59332" lon="6.37238">
        <ele>652.7</ele>
        <time>2026-02-22T08:36:38Z</time>
      </trkpt>
      <trkpt lat="43.59333" lon="6.37238">
        <ele>652.6</ele>
        <time>2026-02-22T08:36:39Z</time>
      </trkpt>
      <trkpt lat="43.59333" lon="6.37238">
        <ele>652.5</ele>
        <time>2026-02-22T08:36:40Z</time>
      </trkpt>
      <trkpt lat="43.59332" lon="6.37238">
        <ele>652.5</ele>
        <time>2026-02-22T08:36:41Z</time>
      </trkpt>
      <trkpt lat="43.59333" lon="6.37238">
        <ele>652.5</ele>
        <time>2026-02-22T08:36:42Z</time>
      </trkpt>
      <trkpt lat="43.59333" lon="6.37238">
        <ele>652.6</ele>
        <time>2026-02-22T08:36:43Z</time>
      </trkpt>
      <trkpt lat="43.59333" lon="6.37239">
        <ele>652.6</ele>
        <time>2026-02-22T08:36:44Z</time>
      </trkpt>
      <trkpt lat="43.59333" lon="6.37239">
        <ele>652.6</ele>
        <time>2026-02-22T08:36:45Z</time>
      </trkpt>
      <trkpt lat="43.59333" lon="6.37239">
        <ele>652.7</ele>
        <time>2026-02-22T08:36:46Z</time>
      </trkpt>
      <trkpt lat="43.59333" lon="6.3724">
        <ele>652.6</ele>
        <time>2026-02-22T08:36:47Z</time>
      </trkpt>
      <trkpt lat="43.59334" lon="6.37241">
        <ele>652.7</ele>
        <time>2026-02-22T08:36:48Z</time>
      </trkpt>
      <trkpt lat="43.59334" lon="6.37241">
        <ele>652.8</ele>
        <time>2026-02-22T08:36:49Z</time>
      </trkpt>
      <trkpt lat="43.59335" lon="6.37242">
        <ele>652.7</ele>
        <time>2026-02-22T08:36:50Z</time>
      </trkpt>
      <trkpt lat="43.59336" lon="6.37242">
        <ele>652.8</ele>
        <time>2026-02-22T08:36:51Z</time>
      </trkpt>
      <trkpt lat="43.59337" lon="6.37243">
        <ele>652.9</ele>
        <time>2026-02-22T08:36:52Z</time>
      </trkpt>
      <trkpt lat="43.59337" lon="6.37243">
        <ele>652.9</ele>
        <time>2026-02-22T08:36:53Z</time>
      </trkpt>
      <trkpt lat="43.59338" lon="6.37243">
        <ele>652.9</ele>
        <time>2026-02-22T08:36:54Z</time>
      </trkpt>
      <trkpt lat="43.59338" lon="6.37243">
        <ele>652.9</ele>
        <time>2026-02-22T08:36:55Z</time>
      </trkpt>
      <trkpt lat="43.59339" lon="6.37244">
        <ele>653</ele>
        <time>2026-02-22T08:36:56Z</time>
      </trkpt>
      <trkpt lat="43.5934" lon="6.37244">
        <ele>653</ele>
        <time>2026-02-22T08:36:57Z</time>
      </trkpt>
      <trkpt lat="43.5934" lon="6.37245">
        <ele>653</ele>
        <time>2026-02-22T08:36:58Z</time>
      </trkpt>
      <trkpt lat="43.59341" lon="6.37245">
        <ele>652.9</ele>
        <time>2026-02-22T08:36:59Z</time>
      </trkpt>
      <trkpt lat="43.59342" lon="6.37246">
        <ele>653</ele>
        <time>2026-02-22T08:37:00Z</time>
      </trkpt>
      <trkpt lat="43.59343" lon="6.37246">
        <ele>652.9</ele>
        <time>2026-02-22T08:37:01Z</time>
      </trkpt>
      <trkpt lat="43.59344" lon="6.37246">
        <ele>652.9</ele>
        <time>2026-02-22T08:37:02Z</time>
      </trkpt>
      <trkpt lat="43.59344" lon="6.37247">
        <ele>652.9</ele>
        <time>2026-02-22T08:37:03Z</time>
      </trkpt>
      <trkpt lat="43.59345" lon="6.37248">
        <ele>652.9</ele>
        <time>2026-02-22T08:37:04Z</time>
      </trkpt>
      <trkpt lat="43.59346" lon="6.37249">
        <ele>652.9</ele>
        <time>2026-02-22T08:37:05Z</time>
      </trkpt>
      <trkpt lat="43.59347" lon="6.37249">
        <ele>652.9</ele>
        <time>2026-02-22T08:37:06Z</time>
      </trkpt>
      <trkpt lat="43.59347" lon="6.37249">
        <ele>652.9</ele>
        <time>2026-02-22T08:37:07Z</time>
      </trkpt>
      <trkpt lat="43.59348" lon="6.3725">
        <ele>652.9</ele>
        <time>2026-02-22T08:37:08Z</time>
      </trkpt>
      <trkpt lat="43.59348" lon="6.37251">
        <ele>652.8</ele>
        <time>2026-02-22T08:37:09Z</time>
      </trkpt>
      <trkpt lat="43.59348" lon="6.37253">
        <ele>652.7</ele>
        <time>2026-02-22T08:37:10Z</time>
      </trkpt>
      <trkpt lat="43.59349" lon="6.37254">
        <ele>652.7</ele>
        <time>2026-02-22T08:37:11Z</time>
      </trkpt>
      <trkpt lat="43.5935" lon="6.37255">
        <ele>652.6</ele>
        <time>2026-02-22T08:37:12Z</time>
      </trkpt>
      <trkpt lat="43.59351" lon="6.37256">
        <ele>652.5</ele>
        <time>2026-02-22T08:37:13Z</time>
      </trkpt>
      <trkpt lat="43.59352" lon="6.37257">
        <ele>652.5</ele>
        <time>2026-02-22T08:37:14Z</time>
      </trkpt>
      <trkpt lat="43.59352" lon="6.37258">
        <ele>652.5</ele>
        <time>2026-02-22T08:37:15Z</time>
      </trkpt>
      <trkpt lat="43.59353" lon="6.37259">
        <ele>652.4</ele>
        <time>2026-02-22T08:37:16Z</time>
      </trkpt>
      <trkpt lat="43.59354" lon="6.3726">
        <ele>652.4</ele>
        <time>2026-02-22T08:37:17Z</time>
      </trkpt>
      <trkpt lat="43.59355" lon="6.37261">
        <ele>652.5</ele>
        <time>2026-02-22T08:37:18Z</time>
      </trkpt>
      <trkpt lat="43.59356" lon="6.37262">
        <ele>652.5</ele>
        <time>2026-02-22T08:37:19Z</time>
      </trkpt>
      <trkpt lat="43.59356" lon="6.37263">
        <ele>652.5</ele>
        <time>2026-02-22T08:37:20Z</time>
      </trkpt>
      <trkpt lat="43.59357" lon="6.37265">
        <ele>652.5</ele>
        <time>2026-02-22T08:37:21Z</time>
      </trkpt>
      <trkpt lat="43.59358" lon="6.37266">
        <ele>652.5</ele>
        <time>2026-02-22T08:37:22Z</time>
      </trkpt>
      <trkpt lat="43.59358" lon="6.37267">
        <ele>652.4</ele>
        <time>2026-02-22T08:37:23Z</time>
      </trkpt>
      <trkpt lat="43.59358" lon="6.37268">
        <ele>652.5</ele>
        <time>2026-02-22T08:37:24Z</time>
      </trkpt>
      <trkpt lat="43.59359" lon="6.37269">
        <ele>652.4</ele>
        <time>2026-02-22T08:37:25Z</time>
      </trkpt>
      <trkpt lat="43.5936" lon="6.3727">
        <ele>652.3</ele>
        <time>2026-02-22T08:37:26Z</time>
      </trkpt>
      <trkpt lat="43.59361" lon="6.37271">
        <ele>652.4</ele>
        <time>2026-02-22T08:37:27Z</time>
      </trkpt>
      <trkpt lat="43.59362" lon="6.37271">
        <ele>652.4</ele>
        <time>2026-02-22T08:37:28Z</time>
      </trkpt>
      <trkpt lat="43.59362" lon="6.37272">
        <ele>652.4</ele>
        <time>2026-02-22T08:37:29Z</time>
      </trkpt>
      <trkpt lat="43.59363" lon="6.37273">
        <ele>652.5</ele>
        <time>2026-02-22T08:37:30Z</time>
      </trkpt>
      <trkpt lat="43.59363" lon="6.37273">
        <ele>652.4</ele>
        <time>2026-02-22T08:37:31Z</time>
      </trkpt>
      <trkpt lat="43.59364" lon="6.37274">
        <ele>652.5</ele>
        <time>2026-02-22T08:37:32Z</time>
      </trkpt>
      <trkpt lat="43.59365" lon="6.37274">
        <ele>652.5</ele>
        <time>2026-02-22T08:37:33Z</time>
      </trkpt>
      <trkpt lat="43.59366" lon="6.37275">
        <ele>652.6</ele>
        <time>2026-02-22T08:37:34Z</time>
      </trkpt>
      <trkpt lat="43.59368" lon="6.37276">
        <ele>652.7</ele>
        <time>2026-02-22T08:37:35Z</time>
      </trkpt>
      <trkpt lat="43.59368" lon="6.37277">
        <ele>652.7</ele>
        <time>2026-02-22T08:37:36Z</time>
      </trkpt>
      <trkpt lat="43.59369" lon="6.37277">
        <ele>653</ele>
        <time>2026-02-22T08:37:37Z</time>
      </trkpt>
      <trkpt lat="43.59371" lon="6.37278">
        <ele>653</ele>
        <time>2026-02-22T08:37:38Z</time>
      </trkpt>
      <trkpt lat="43.59372" lon="6.37278">
        <ele>653</ele>
        <time>2026-02-22T08:37:39Z</time>
      </trkpt>
      <trkpt lat="43.59373" lon="6.37279">
        <ele>653</ele>
        <time>2026-02-22T08:37:40Z</time>
      </trkpt>
      <trkpt lat="43.59374" lon="6.37279">
        <ele>653</ele>
        <time>2026-02-22T08:37:41Z</time>
      </trkpt>
      <trkpt lat="43.59375" lon="6.3728">
        <ele>653</ele>
        <time>2026-02-22T08:37:42Z</time>
      </trkpt>
      <trkpt lat="43.59376" lon="6.3728">
        <ele>653.2</ele>
        <time>2026-02-22T08:37:43Z</time>
      </trkpt>
      <trkpt lat="43.59377" lon="6.3728">
        <ele>653.3</ele>
        <time>2026-02-22T08:37:44Z</time>
      </trkpt>
      <trkpt lat="43.59378" lon="6.3728">
        <ele>653.4</ele>
        <time>2026-02-22T08:37:45Z</time>
      </trkpt>
      <trkpt lat="43.59378" lon="6.37281">
        <ele>653.5</ele>
        <time>2026-02-22T08:37:46Z</time>
      </trkpt>
      <trkpt lat="43.59379" lon="6.37281">
        <ele>653.5</ele>
        <time>2026-02-22T08:37:47Z</time>
      </trkpt>
      <trkpt lat="43.5938" lon="6.37282">
        <ele>653.5</ele>
        <time>2026-02-22T08:37:48Z</time>
      </trkpt>
      <trkpt lat="43.59381" lon="6.37283">
        <ele>653.6</ele>
        <time>2026-02-22T08:37:49Z</time>
      </trkpt>
      <trkpt lat="43.59381" lon="6.37283">
        <ele>653.7</ele>
        <time>2026-02-22T08:37:50Z</time>
      </trkpt>
      <trkpt lat="43.59382" lon="6.37284">
        <ele>653.9</ele>
        <time>2026-02-22T08:37:51Z</time>
      </trkpt>
      <trkpt lat="43.59382" lon="6.37285">
        <ele>653.8</ele>
        <time>2026-02-22T08:37:52Z</time>
      </trkpt>
      <trkpt lat="43.59382" lon="6.37287">
        <ele>653.9</ele>
        <time>2026-02-22T08:37:53Z</time>
      </trkpt>
      <trkpt lat="43.59382" lon="6.37287">
        <ele>653.8</ele>
        <time>2026-02-22T08:37:54Z</time>
      </trkpt>
      <trkpt lat="43.59384" lon="6.37288">
        <ele>653.7</ele>
        <time>2026-02-22T08:37:55Z</time>
      </trkpt>
      <trkpt lat="43.59387" lon="6.37287">
        <ele>653.7</ele>
        <time>2026-02-22T08:37:56Z</time>
      </trkpt>
      <trkpt lat="43.59389" lon="6.37285">
        <ele>653.7</ele>
        <time>2026-02-22T08:37:57Z</time>
      </trkpt>
      <trkpt lat="43.5939" lon="6.37286">
        <ele>653.6</ele>
        <time>2026-02-22T08:37:58Z</time>
      </trkpt>
      <trkpt lat="43.59391" lon="6.37285">
        <ele>653.6</ele>
        <time>2026-02-22T08:37:59Z</time>
      </trkpt>
      <trkpt lat="43.59392" lon="6.37287">
        <ele>653.6</ele>
        <time>2026-02-22T08:38:00Z</time>
      </trkpt>
      <trkpt lat="43.59392" lon="6.37288">
        <ele>653.5</ele>
        <time>2026-02-22T08:38:01Z</time>
      </trkpt>
      <trkpt lat="43.59393" lon="6.37289">
        <ele>653.6</ele>
        <time>2026-02-22T08:38:02Z</time>
      </trkpt>
      <trkpt lat="43.59394" lon="6.3729">
        <ele>653.6</ele>
        <time>2026-02-22T08:38:03Z</time>
      </trkpt>
      <trkpt lat="43.59395" lon="6.37291">
        <ele>653.4</ele>
        <time>2026-02-22T08:38:04Z</time>
      </trkpt>
      <trkpt lat="43.59396" lon="6.37291">
        <ele>653.3</ele>
        <time>2026-02-22T08:38:05Z</time>
      </trkpt>
      <trkpt lat="43.59396" lon="6.37291">
        <ele>653.3</ele>
        <time>2026-02-22T08:38:06Z</time>
      </trkpt>
      <trkpt lat="43.59396" lon="6.3729">
        <ele>653.4</ele>
        <time>2026-02-22T08:38:07Z</time>
      </trkpt>
      <trkpt lat="43.59396" lon="6.3729">
        <ele>653.4</ele>
        <time>2026-02-22T08:38:08Z</time>
      </trkpt>
      <trkpt lat="43.59396" lon="6.3729">
        <ele>653.4</ele>
        <time>2026-02-22T08:38:09Z</time>
      </trkpt>
      <trkpt lat="43.59395" lon="6.3729">
        <ele>653.3</ele>
        <time>2026-02-22T08:38:10Z</time>
      </trkpt>
      <trkpt lat="43.59395" lon="6.3729">
        <ele>653.2</ele>
        <time>2026-02-22T08:38:11Z</time>
      </trkpt>
      <trkpt lat="43.59396" lon="6.3729">
        <ele>653.1</ele>
        <time>2026-02-22T08:38:12Z</time>
      </trkpt>
      <trkpt lat="43.59396" lon="6.3729">
        <ele>653.1</ele>
        <time>2026-02-22T08:38:13Z</time>
      </trkpt>
      <trkpt lat="43.59395" lon="6.3729">
        <ele>653</ele>
        <time>2026-02-22T08:38:14Z</time>
      </trkpt>
      <trkpt lat="43.59396" lon="6.37291">
        <ele>653</ele>
        <time>2026-02-22T08:38:15Z</time>
      </trkpt>
      <trkpt lat="43.59396" lon="6.37291">
        <ele>652.9</ele>
        <time>2026-02-22T08:38:16Z</time>
      </trkpt>
      <trkpt lat="43.59396" lon="6.37291">
        <ele>652.8</ele>
        <time>2026-02-22T08:38:17Z</time>
      </trkpt>
      <trkpt lat="43.59397" lon="6.37291">
        <ele>652.7</ele>
        <time>2026-02-22T08:38:18Z</time>
      </trkpt>
      <trkpt lat="43.59397" lon="6.37291">
        <ele>652.6</ele>
        <time>2026-02-22T08:38:19Z</time>
      </trkpt>
      <trkpt lat="43.59396" lon="6.37291">
        <ele>652.6</ele>
        <time>2026-02-22T08:38:20Z</time>
      </trkpt>
      <trkpt lat="43.59397" lon="6.37291">
        <ele>652.7</ele>
        <time>2026-02-22T08:38:21Z</time>
      </trkpt>
      <trkpt lat="43.59397" lon="6.37291">
        <ele>652.8</ele>
        <time>2026-02-22T08:38:22Z</time>
      </trkpt>
      <trkpt lat="43.59397" lon="6.37291">
        <ele>652.8</ele>
        <time>2026-02-22T08:38:23Z</time>
      </trkpt>
      <trkpt lat="43.59397" lon="6.37292">
        <ele>652.8</ele>
        <time>2026-02-22T08:38:24Z</time>
      </trkpt>
      <trkpt lat="43.59398" lon="6.37292">
        <ele>652.8</ele>
        <time>2026-02-22T08:38:25Z</time>
      </trkpt>
      <trkpt lat="43.59398" lon="6.37292">
        <ele>652.9</ele>
        <time>2026-02-22T08:38:26Z</time>
      </trkpt>
      <trkpt lat="43.59398" lon="6.37292">
        <ele>652.9</ele>
        <time>2026-02-22T08:38:27Z</time>
      </trkpt>
      <trkpt lat="43.59397" lon="6.37292">
        <ele>652.9</ele>
        <time>2026-02-22T08:38:28Z</time>
      </trkpt>
      <trkpt lat="43.59398" lon="6.37293">
        <ele>653</ele>
        <time>2026-02-22T08:38:29Z</time>
      </trkpt>
      <trkpt lat="43.59398" lon="6.37292">
        <ele>652.9</ele>
        <time>2026-02-22T08:38:30Z</time>
      </trkpt>
      <trkpt lat="43.59398" lon="6.37293">
        <ele>653</ele>
        <time>2026-02-22T08:38:31Z</time>
      </trkpt>
      <trkpt lat="43.59398" lon="6.37293">
        <ele>653</ele>
        <time>2026-02-22T08:38:32Z</time>
      </trkpt>
      <trkpt lat="43.59397" lon="6.37293">
        <ele>652.9</ele>
        <time>2026-02-22T08:38:33Z</time>
      </trkpt>
      <trkpt lat="43.59397" lon="6.37293">
        <ele>652.9</ele>
        <time>2026-02-22T08:38:34Z</time>
      </trkpt>
      <trkpt lat="43.59397" lon="6.37293">
        <ele>653</ele>
        <time>2026-02-22T08:38:35Z</time>
      </trkpt>
      <trkpt lat="43.59397" lon="6.37293">
        <ele>653.1</ele>
        <time>2026-02-22T08:38:36Z</time>
      </trkpt>
      <trkpt lat="43.59397" lon="6.37293">
        <ele>653.1</ele>
        <time>2026-02-22T08:38:37Z</time>
      </trkpt>
      <trkpt lat="43.59397" lon="6.37293">
        <ele>653.1</ele>
        <time>2026-02-22T08:38:38Z</time>
      </trkpt>
      <trkpt lat="43.59397" lon="6.37294">
        <ele>653</ele>
        <time>2026-02-22T08:38:39Z</time>
      </trkpt>
      <trkpt lat="43.59398" lon="6.37295">
        <ele>653</ele>
        <time>2026-02-22T08:38:40Z</time>
      </trkpt>
      <trkpt lat="43.59397" lon="6.37295">
        <ele>653</ele>
        <time>2026-02-22T08:38:41Z</time>
      </trkpt>
      <trkpt lat="43.59397" lon="6.37296">
        <ele>653</ele>
        <time>2026-02-22T08:38:42Z</time>
      </trkpt>
      <trkpt lat="43.59397" lon="6.37296">
        <ele>652.9</ele>
        <time>2026-02-22T08:38:43Z</time>
      </trkpt>
      <trkpt lat="43.59397" lon="6.37297">
        <ele>652.8</ele>
        <time>2026-02-22T08:38:44Z</time>
      </trkpt>
      <trkpt lat="43.59397" lon="6.37298">
        <ele>652.8</ele>
        <time>2026-02-22T08:38:45Z</time>
      </trkpt>
      <trkpt lat="43.59398" lon="6.37299">
        <ele>652.8</ele>
        <time>2026-02-22T08:38:46Z</time>
      </trkpt>
      <trkpt lat="43.59398" lon="6.373">
        <ele>652.7</ele>
        <time>2026-02-22T08:38:47Z</time>
      </trkpt>
      <trkpt lat="43.59398" lon="6.37301">
        <ele>652.7</ele>
        <time>2026-02-22T08:38:48Z</time>
      </trkpt>
      <trkpt lat="43.59398" lon="6.37302">
        <ele>652.7</ele>
        <time>2026-02-22T08:38:49Z</time>
      </trkpt>
      <trkpt lat="43.59398" lon="6.37303">
        <ele>652.7</ele>
        <time>2026-02-22T08:38:50Z</time>
      </trkpt>
      <trkpt lat="43.59398" lon="6.37304">
        <ele>652.6</ele>
        <time>2026-02-22T08:38:51Z</time>
      </trkpt>
      <trkpt lat="43.59398" lon="6.37306">
        <ele>652.5</ele>
        <time>2026-02-22T08:38:52Z</time>
      </trkpt>
      <trkpt lat="43.59398" lon="6.37307">
        <ele>652.4</ele>
        <time>2026-02-22T08:38:53Z</time>
      </trkpt>
      <trkpt lat="43.59399" lon="6.37309">
        <ele>652.4</ele>
        <time>2026-02-22T08:38:54Z</time>
      </trkpt>
      <trkpt lat="43.59399" lon="6.3731">
        <ele>652.6</ele>
        <time>2026-02-22T08:38:55Z</time>
      </trkpt>
      <trkpt lat="43.59399" lon="6.37311">
        <ele>652.7</ele>
        <time>2026-02-22T08:38:56Z</time>
      </trkpt>
      <trkpt lat="43.59399" lon="6.37312">
        <ele>652.6</ele>
        <time>2026-02-22T08:38:57Z</time>
      </trkpt>
      <trkpt lat="43.594" lon="6.37314">
        <ele>652.6</ele>
        <time>2026-02-22T08:38:58Z</time>
      </trkpt>
      <trkpt lat="43.59401" lon="6.37315">
        <ele>652.5</ele>
        <time>2026-02-22T08:38:59Z</time>
      </trkpt>
      <trkpt lat="43.59401" lon="6.37316">
        <ele>652.4</ele>
        <time>2026-02-22T08:39:00Z</time>
      </trkpt>
      <trkpt lat="43.59401" lon="6.37317">
        <ele>652.4</ele>
        <time>2026-02-22T08:39:01Z</time>
      </trkpt>
      <trkpt lat="43.59401" lon="6.37318">
        <ele>652.4</ele>
        <time>2026-02-22T08:39:02Z</time>
      </trkpt>
      <trkpt lat="43.59402" lon="6.37319">
        <ele>652.5</ele>
        <time>2026-02-22T08:39:03Z</time>
      </trkpt>
      <trkpt lat="43.59401" lon="6.37319">
        <ele>652.4</ele>
        <time>2026-02-22T08:39:04Z</time>
      </trkpt>
      <trkpt lat="43.59401" lon="6.3732">
        <ele>652.4</ele>
        <time>2026-02-22T08:39:05Z</time>
      </trkpt>
      <trkpt lat="43.59401" lon="6.37321">
        <ele>652.4</ele>
        <time>2026-02-22T08:39:06Z</time>
      </trkpt>
      <trkpt lat="43.59401" lon="6.37322">
        <ele>652.4</ele>
        <time>2026-02-22T08:39:07Z</time>
      </trkpt>
      <trkpt lat="43.59402" lon="6.37324">
        <ele>652.4</ele>
        <time>2026-02-22T08:39:08Z</time>
      </trkpt>
      <trkpt lat="43.59402" lon="6.37325">
        <ele>652.3</ele>
        <time>2026-02-22T08:39:09Z</time>
      </trkpt>
      <trkpt lat="43.59402" lon="6.37326">
        <ele>652.4</ele>
        <time>2026-02-22T08:39:10Z</time>
      </trkpt>
      <trkpt lat="43.59403" lon="6.37328">
        <ele>652.3</ele>
        <time>2026-02-22T08:39:11Z</time>
      </trkpt>
      <trkpt lat="43.59403" lon="6.37328">
        <ele>652.3</ele>
        <time>2026-02-22T08:39:12Z</time>
      </trkpt>
      <trkpt lat="43.59403" lon="6.37329">
        <ele>652.3</ele>
        <time>2026-02-22T08:39:13Z</time>
      </trkpt>
      <trkpt lat="43.59405" lon="6.3733">
        <ele>652.3</ele>
        <time>2026-02-22T08:39:14Z</time>
      </trkpt>
      <trkpt lat="43.59405" lon="6.3733">
        <ele>652.4</ele>
        <time>2026-02-22T08:39:15Z</time>
      </trkpt>
      <trkpt lat="43.59405" lon="6.3733">
        <ele>652.3</ele>
        <time>2026-02-22T08:39:16Z</time>
      </trkpt>
      <trkpt lat="43.59405" lon="6.3733">
        <ele>652.3</ele>
        <time>2026-02-22T08:39:17Z</time>
      </trkpt>
      <trkpt lat="43.59405" lon="6.3733">
        <ele>652.3</ele>
        <time>2026-02-22T08:39:18Z</time>
      </trkpt>
      <trkpt lat="43.59405" lon="6.37329">
        <ele>652.3</ele>
        <time>2026-02-22T08:39:19Z</time>
      </trkpt>
      <trkpt lat="43.59405" lon="6.37329">
        <ele>652.4</ele>
        <time>2026-02-22T08:39:20Z</time>
      </trkpt>
      <trkpt lat="43.59404" lon="6.37329">
        <ele>652.4</ele>
        <time>2026-02-22T08:39:21Z</time>
      </trkpt>
      <trkpt lat="43.59404" lon="6.37328">
        <ele>652.3</ele>
        <time>2026-02-22T08:39:22Z</time>
      </trkpt>
      <trkpt lat="43.59404" lon="6.37327">
        <ele>652.3</ele>
        <time>2026-02-22T08:39:23Z</time>
      </trkpt>
      <trkpt lat="43.59404" lon="6.37325">
        <ele>652.3</ele>
        <time>2026-02-22T08:39:24Z</time>
      </trkpt>
      <trkpt lat="43.59404" lon="6.37324">
        <ele>652.3</ele>
        <time>2026-02-22T08:39:25Z</time>
      </trkpt>
      <trkpt lat="43.59404" lon="6.37323">
        <ele>652.4</ele>
        <time>2026-02-22T08:39:26Z</time>
      </trkpt>
      <trkpt lat="43.59404" lon="6.37322">
        <ele>652.3</ele>
        <time>2026-02-22T08:39:27Z</time>
      </trkpt>
      <trkpt lat="43.59404" lon="6.37321">
        <ele>652.3</ele>
        <time>2026-02-22T08:39:28Z</time>
      </trkpt>
      <trkpt lat="43.59403" lon="6.3732">
        <ele>652.3</ele>
        <time>2026-02-22T08:39:29Z</time>
      </trkpt>
      <trkpt lat="43.59403" lon="6.37319">
        <ele>652.4</ele>
        <time>2026-02-22T08:39:30Z</time>
      </trkpt>
      <trkpt lat="43.59404" lon="6.37318">
        <ele>652.3</ele>
        <time>2026-02-22T08:39:31Z</time>
      </trkpt>
      <trkpt lat="43.59404" lon="6.37316">
        <ele>652.3</ele>
        <time>2026-02-22T08:39:32Z</time>
      </trkpt>
      <trkpt lat="43.59403" lon="6.37315">
        <ele>652.3</ele>
        <time>2026-02-22T08:39:33Z</time>
      </trkpt>
      <trkpt lat="43.59402" lon="6.37314">
        <ele>652.3</ele>
        <time>2026-02-22T08:39:34Z</time>
      </trkpt>
      <trkpt lat="43.59402" lon="6.37313">
        <ele>652.4</ele>
        <time>2026-02-22T08:39:35Z</time>
      </trkpt>
      <trkpt lat="43.59402" lon="6.37311">
        <ele>652.4</ele>
        <time>2026-02-22T08:39:36Z</time>
      </trkpt>
      <trkpt lat="43.59402" lon="6.3731">
        <ele>652.5</ele>
        <time>2026-02-22T08:39:37Z</time>
      </trkpt>
      <trkpt lat="43.59402" lon="6.37308">
        <ele>652.6</ele>
        <time>2026-02-22T08:39:38Z</time>
      </trkpt>
      <trkpt lat="43.59401" lon="6.37307">
        <ele>652.6</ele>
        <time>2026-02-22T08:39:39Z</time>
      </trkpt>
      <trkpt lat="43.59401" lon="6.37306">
        <ele>652.7</ele>
        <time>2026-02-22T08:39:40Z</time>
      </trkpt>
      <trkpt lat="43.59401" lon="6.37305">
        <ele>652.7</ele>
        <time>2026-02-22T08:39:41Z</time>
      </trkpt>
      <trkpt lat="43.59401" lon="6.37304">
        <ele>652.7</ele>
        <time>2026-02-22T08:39:42Z</time>
      </trkpt>
      <trkpt lat="43.59399" lon="6.37303">
        <ele>652.8</ele>
        <time>2026-02-22T08:39:43Z</time>
      </trkpt>
      <trkpt lat="43.59398" lon="6.37302">
        <ele>652.8</ele>
        <time>2026-02-22T08:39:44Z</time>
      </trkpt>
      <trkpt lat="43.59396" lon="6.373">
        <ele>652.9</ele>
        <time>2026-02-22T08:39:45Z</time>
      </trkpt>
      <trkpt lat="43.59396" lon="6.37298">
        <ele>652.9</ele>
        <time>2026-02-22T08:39:46Z</time>
      </trkpt>
      <trkpt lat="43.59396" lon="6.37297">
        <ele>652.9</ele>
        <time>2026-02-22T08:39:47Z</time>
      </trkpt>
      <trkpt lat="43.59396" lon="6.37296">
        <ele>652.9</ele>
        <time>2026-02-22T08:39:48Z</time>
      </trkpt>
      <trkpt lat="43.59397" lon="6.37295">
        <ele>653</ele>
        <time>2026-02-22T08:39:49Z</time>
      </trkpt>
      <trkpt lat="43.59397" lon="6.37294">
        <ele>653</ele>
        <time>2026-02-22T08:39:50Z</time>
      </trkpt>
      <trkpt lat="43.59396" lon="6.37293">
        <ele>653.1</ele>
        <time>2026-02-22T08:39:51Z</time>
      </trkpt>
      <trkpt lat="43.59396" lon="6.37293">
        <ele>653.1</ele>
        <time>2026-02-22T08:39:52Z</time>
      </trkpt>
      <trkpt lat="43.59396" lon="6.37292">
        <ele>653.1</ele>
        <time>2026-02-22T08:39:53Z</time>
      </trkpt>
      <trkpt lat="43.59396" lon="6.37291">
        <ele>653.1</ele>
        <time>2026-02-22T08:39:54Z</time>
      </trkpt>
      <trkpt lat="43.59396" lon="6.37291">
        <ele>653.1</ele>
        <time>2026-02-22T08:39:55Z</time>
      </trkpt>
      <trkpt lat="43.59395" lon="6.3729">
        <ele>653.1</ele>
        <time>2026-02-22T08:39:56Z</time>
      </trkpt>
      <trkpt lat="43.59396" lon="6.3729">
        <ele>653.1</ele>
        <time>2026-02-22T08:39:57Z</time>
      </trkpt>
      <trkpt lat="43.59396" lon="6.37289">
        <ele>653</ele>
        <time>2026-02-22T08:39:58Z</time>
      </trkpt>
      <trkpt lat="43.59395" lon="6.37288">
        <ele>653.1</ele>
        <time>2026-02-22T08:39:59Z</time>
      </trkpt>
      <trkpt lat="43.59395" lon="6.37287">
        <ele>653.1</ele>
        <time>2026-02-22T08:40:00Z</time>
      </trkpt>
      <trkpt lat="43.59394" lon="6.37286">
        <ele>653.2</ele>
        <time>2026-02-22T08:40:01Z</time>
      </trkpt>
      <trkpt lat="43.59394" lon="6.37285">
        <ele>653.2</ele>
        <time>2026-02-22T08:40:02Z</time>
      </trkpt>
      <trkpt lat="43.59393" lon="6.37285">
        <ele>653.3</ele>
        <time>2026-02-22T08:40:03Z</time>
      </trkpt>
      <trkpt lat="43.59393" lon="6.37284">
        <ele>653.3</ele>
        <time>2026-02-22T08:40:04Z</time>
      </trkpt>
      <trkpt lat="43.59393" lon="6.37282">
        <ele>653.5</ele>
        <time>2026-02-22T08:40:05Z</time>
      </trkpt>
      <trkpt lat="43.59391" lon="6.37281">
        <ele>653.6</ele>
        <time>2026-02-22T08:40:06Z</time>
      </trkpt>
      <trkpt lat="43.59391" lon="6.37281">
        <ele>653.7</ele>
        <time>2026-02-22T08:40:07Z</time>
      </trkpt>
      <trkpt lat="43.5939" lon="6.3728">
        <ele>653.6</ele>
        <time>2026-02-22T08:40:08Z</time>
      </trkpt>
      <trkpt lat="43.5939" lon="6.3728">
        <ele>653.8</ele>
        <time>2026-02-22T08:40:09Z</time>
      </trkpt>
      <trkpt lat="43.5939" lon="6.37279">
        <ele>653.9</ele>
        <time>2026-02-22T08:40:10Z</time>
      </trkpt>
      <trkpt lat="43.59389" lon="6.37279">
        <ele>654</ele>
        <time>2026-02-22T08:40:11Z</time>
      </trkpt>
      <trkpt lat="43.59389" lon="6.37279">
        <ele>653.9</ele>
        <time>2026-02-22T08:40:12Z</time>
      </trkpt>
      <trkpt lat="43.59389" lon="6.37279">
        <ele>653.8</ele>
        <time>2026-02-22T08:40:13Z</time>
      </trkpt>
      <trkpt lat="43.59389" lon="6.37279">
        <ele>653.9</ele>
        <time>2026-02-22T08:40:14Z</time>
      </trkpt>
      <trkpt lat="43.59389" lon="6.37279">
        <ele>653.9</ele>
        <time>2026-02-22T08:40:15Z</time>
      </trkpt>
      <trkpt lat="43.59389" lon="6.37278">
        <ele>653.9</ele>
        <time>2026-02-22T08:40:16Z</time>
      </trkpt>
      <trkpt lat="43.59389" lon="6.37278">
        <ele>654</ele>
        <time>2026-02-22T08:40:17Z</time>
      </trkpt>
      <trkpt lat="43.59389" lon="6.37278">
        <ele>654</ele>
        <time>2026-02-22T08:40:18Z</time>
      </trkpt>
      <trkpt lat="43.59389" lon="6.37278">
        <ele>653.9</ele>
        <time>2026-02-22T08:40:19Z</time>
      </trkpt>
      <trkpt lat="43.59389" lon="6.37278">
        <ele>653.9</ele>
        <time>2026-02-22T08:40:20Z</time>
      </trkpt>
      <trkpt lat="43.59388" lon="6.37278">
        <ele>653.9</ele>
        <time>2026-02-22T08:40:21Z</time>
      </trkpt>
      <trkpt lat="43.59389" lon="6.37278">
        <ele>653.9</ele>
        <time>2026-02-22T08:40:22Z</time>
      </trkpt>
      <trkpt lat="43.59389" lon="6.37278">
        <ele>653.8</ele>
        <time>2026-02-22T08:40:23Z</time>
      </trkpt>
      <trkpt lat="43.5939" lon="6.37277">
        <ele>653.8</ele>
        <time>2026-02-22T08:40:24Z</time>
      </trkpt>
      <trkpt lat="43.5939" lon="6.37277">
        <ele>653.8</ele>
        <time>2026-02-22T08:40:25Z</time>
      </trkpt>
      <trkpt lat="43.59389" lon="6.37276">
        <ele>653.9</ele>
        <time>2026-02-22T08:40:26Z</time>
      </trkpt>
      <trkpt lat="43.59391" lon="6.37275">
        <ele>653.8</ele>
        <time>2026-02-22T08:40:27Z</time>
      </trkpt>
      <trkpt lat="43.59392" lon="6.37276">
        <ele>653.8</ele>
        <time>2026-02-22T08:40:28Z</time>
      </trkpt>
      <trkpt lat="43.59391" lon="6.37276">
        <ele>653.9</ele>
        <time>2026-02-22T08:40:29Z</time>
      </trkpt>
      <trkpt lat="43.59391" lon="6.37276">
        <ele>654</ele>
        <time>2026-02-22T08:40:30Z</time>
      </trkpt>
      <trkpt lat="43.59392" lon="6.37276">
        <ele>654.1</ele>
        <time>2026-02-22T08:40:31Z</time>
      </trkpt>
      <trkpt lat="43.59393" lon="6.37277">
        <ele>654.2</ele>
        <time>2026-02-22T08:40:32Z</time>
      </trkpt>
      <trkpt lat="43.59393" lon="6.37277">
        <ele>654.3</ele>
        <time>2026-02-22T08:40:33Z</time>
      </trkpt>
      <trkpt lat="43.59393" lon="6.37277">
        <ele>654.3</ele>
        <time>2026-02-22T08:40:34Z</time>
      </trkpt>
      <trkpt lat="43.59394" lon="6.37277">
        <ele>654.3</ele>
        <time>2026-02-22T08:40:35Z</time>
      </trkpt>
      <trkpt lat="43.59394" lon="6.37277">
        <ele>654.3</ele>
        <time>2026-02-22T08:40:36Z</time>
      </trkpt>
      <trkpt lat="43.59394" lon="6.37278">
        <ele>654.3</ele>
        <time>2026-02-22T08:40:37Z</time>
      </trkpt>
      <trkpt lat="43.59394" lon="6.37277">
        <ele>654.2</ele>
        <time>2026-02-22T08:40:38Z</time>
      </trkpt>
      <trkpt lat="43.59394" lon="6.37277">
        <ele>654.2</ele>
        <time>2026-02-22T08:40:39Z</time>
      </trkpt>
      <trkpt lat="43.59394" lon="6.37277">
        <ele>654.2</ele>
        <time>2026-02-22T08:40:40Z</time>
      </trkpt>
      <trkpt lat="43.59394" lon="6.37277">
        <ele>654.2</ele>
        <time>2026-02-22T08:40:41Z</time>
      </trkpt>
      <trkpt lat="43.59394" lon="6.37277">
        <ele>654.1</ele>
        <time>2026-02-22T08:40:42Z</time>
      </trkpt>
      <trkpt lat="43.59394" lon="6.37277">
        <ele>654.1</ele>
        <time>2026-02-22T08:40:43Z</time>
      </trkpt>
      <trkpt lat="43.59394" lon="6.37276">
        <ele>654.1</ele>
        <time>2026-02-22T08:40:44Z</time>
      </trkpt>
      <trkpt lat="43.59394" lon="6.37276">
        <ele>654.2</ele>
        <time>2026-02-22T08:40:45Z</time>
      </trkpt>
      <trkpt lat="43.59394" lon="6.37276">
        <ele>654.2</ele>
        <time>2026-02-22T08:40:46Z</time>
      </trkpt>
      <trkpt lat="43.59394" lon="6.37276">
        <ele>654.1</ele>
        <time>2026-02-22T08:40:47Z</time>
      </trkpt>
      <trkpt lat="43.59394" lon="6.37276">
        <ele>654.1</ele>
        <time>2026-02-22T08:40:48Z</time>
      </trkpt>
      <trkpt lat="43.59394" lon="6.37276">
        <ele>654.1</ele>
        <time>2026-02-22T08:40:49Z</time>
      </trkpt>
      <trkpt lat="43.59394" lon="6.37276">
        <ele>654.2</ele>
        <time>2026-02-22T08:40:50Z</time>
      </trkpt>
      <trkpt lat="43.59394" lon="6.37276">
        <ele>654.2</ele>
        <time>2026-02-22T08:40:51Z</time>
      </trkpt>
      <trkpt lat="43.59394" lon="6.37276">
        <ele>654.2</ele>
        <time>2026-02-22T08:40:52Z</time>
      </trkpt>
      <trkpt lat="43.59393" lon="6.37275">
        <ele>654.2</ele>
        <time>2026-02-22T08:40:53Z</time>
      </trkpt>
      <trkpt lat="43.59393" lon="6.37275">
        <ele>654.2</ele>
        <time>2026-02-22T08:40:54Z</time>
      </trkpt>
      <trkpt lat="43.59394" lon="6.37274">
        <ele>654</ele>
        <time>2026-02-22T08:40:55Z</time>
      </trkpt>
      <trkpt lat="43.59394" lon="6.37274">
        <ele>653.9</ele>
        <time>2026-02-22T08:40:56Z</time>
      </trkpt>
      <trkpt lat="43.59393" lon="6.37273">
        <ele>653.8</ele>
        <time>2026-02-22T08:40:57Z</time>
      </trkpt>
      <trkpt lat="43.59393" lon="6.37273">
        <ele>653.7</ele>
        <time>2026-02-22T08:40:58Z</time>
      </trkpt>
      <trkpt lat="43.59393" lon="6.37273">
        <ele>653.7</ele>
        <time>2026-02-22T08:40:59Z</time>
      </trkpt>
      <trkpt lat="43.59393" lon="6.37273">
        <ele>653.6</ele>
        <time>2026-02-22T08:41:00Z</time>
      </trkpt>
      <trkpt lat="43.59393" lon="6.37274">
        <ele>653.7</ele>
        <time>2026-02-22T08:41:01Z</time>
      </trkpt>
      <trkpt lat="43.59394" lon="6.37274">
        <ele>653.9</ele>
        <time>2026-02-22T08:41:02Z</time>
      </trkpt>
      <trkpt lat="43.59395" lon="6.37274">
        <ele>654</ele>
        <time>2026-02-22T08:41:03Z</time>
      </trkpt>
      <trkpt lat="43.59395" lon="6.37273">
        <ele>653.9</ele>
        <time>2026-02-22T08:41:04Z</time>
      </trkpt>
      <trkpt lat="43.59395" lon="6.37273">
        <ele>653.8</ele>
        <time>2026-02-22T08:41:05Z</time>
      </trkpt>
      <trkpt lat="43.59395" lon="6.37272">
        <ele>653.7</ele>
        <time>2026-02-22T08:41:06Z</time>
      </trkpt>
      <trkpt lat="43.59395" lon="6.37271">
        <ele>653.7</ele>
        <time>2026-02-22T08:41:07Z</time>
      </trkpt>
      <trkpt lat="43.59396" lon="6.37267">
        <ele>653.6</ele>
        <time>2026-02-22T08:41:08Z</time>
      </trkpt>
      <trkpt lat="43.59396" lon="6.37267">
        <ele>653.6</ele>
        <time>2026-02-22T08:41:09Z</time>
      </trkpt>
      <trkpt lat="43.59396" lon="6.37266">
        <ele>653.5</ele>
        <time>2026-02-22T08:41:10Z</time>
      </trkpt>
      <trkpt lat="43.59397" lon="6.37265">
        <ele>653.5</ele>
        <time>2026-02-22T08:41:11Z</time>
      </trkpt>
      <trkpt lat="43.59396" lon="6.37264">
        <ele>653.5</ele>
        <time>2026-02-22T08:41:12Z</time>
      </trkpt>
      <trkpt lat="43.59397" lon="6.37264">
        <ele>653.4</ele>
        <time>2026-02-22T08:41:13Z</time>
      </trkpt>
      <trkpt lat="43.59397" lon="6.37263">
        <ele>653.4</ele>
        <time>2026-02-22T08:41:14Z</time>
      </trkpt>
      <trkpt lat="43.59397" lon="6.37262">
        <ele>653.3</ele>
        <time>2026-02-22T08:41:15Z</time>
      </trkpt>
      <trkpt lat="43.59397" lon="6.37261">
        <ele>653.3</ele>
        <time>2026-02-22T08:41:16Z</time>
      </trkpt>
      <trkpt lat="43.59397" lon="6.37261">
        <ele>653.3</ele>
        <time>2026-02-22T08:41:17Z</time>
      </trkpt>
      <trkpt lat="43.59396" lon="6.37261">
        <ele>653.3</ele>
        <time>2026-02-22T08:41:18Z</time>
      </trkpt>
      <trkpt lat="43.59395" lon="6.37261">
        <ele>653.3</ele>
        <time>2026-02-22T08:41:19Z</time>
      </trkpt>
      <trkpt lat="43.59395" lon="6.37262">
        <ele>653.4</ele>
        <time>2026-02-22T08:41:20Z</time>
      </trkpt>
      <trkpt lat="43.59395" lon="6.37263">
        <ele>653.3</ele>
        <time>2026-02-22T08:41:21Z</time>
      </trkpt>
      <trkpt lat="43.59394" lon="6.37264">
        <ele>653.3</ele>
        <time>2026-02-22T08:41:22Z</time>
      </trkpt>
      <trkpt lat="43.59394" lon="6.37264">
        <ele>653.2</ele>
        <time>2026-02-22T08:41:23Z</time>
      </trkpt>
      <trkpt lat="43.59394" lon="6.37266">
        <ele>653.2</ele>
        <time>2026-02-22T08:41:24Z</time>
      </trkpt>
      <trkpt lat="43.59395" lon="6.37268">
        <ele>653.2</ele>
        <time>2026-02-22T08:41:25Z</time>
      </trkpt>
      <trkpt lat="43.59395" lon="6.37269">
        <ele>653.2</ele>
        <time>2026-02-22T08:41:26Z</time>
      </trkpt>
      <trkpt lat="43.59395" lon="6.37269">
        <ele>653.4</ele>
        <time>2026-02-22T08:41:27Z</time>
      </trkpt>
      <trkpt lat="43.59396" lon="6.37269">
        <ele>653.4</ele>
        <time>2026-02-22T08:41:28Z</time>
      </trkpt>
      <trkpt lat="43.59396" lon="6.37269">
        <ele>653.4</ele>
        <time>2026-02-22T08:41:29Z</time>
      </trkpt>
      <trkpt lat="43.59396" lon="6.37269">
        <ele>653.4</ele>
        <time>2026-02-22T08:41:30Z</time>
      </trkpt>
      <trkpt lat="43.59396" lon="6.37268">
        <ele>653.4</ele>
        <time>2026-02-22T08:41:31Z</time>
      </trkpt>
      <trkpt lat="43.59397" lon="6.37268">
        <ele>653.4</ele>
        <time>2026-02-22T08:41:32Z</time>
      </trkpt>
      <trkpt lat="43.59397" lon="6.37268">
        <ele>653.3</ele>
        <time>2026-02-22T08:41:33Z</time>
      </trkpt>
      <trkpt lat="43.59397" lon="6.37267">
        <ele>653.3</ele>
        <time>2026-02-22T08:41:34Z</time>
      </trkpt>
      <trkpt lat="43.59397" lon="6.37267">
        <ele>653.4</ele>
        <time>2026-02-22T08:41:35Z</time>
      </trkpt>
      <trkpt lat="43.59398" lon="6.37267">
        <ele>653.5</ele>
        <time>2026-02-22T08:41:36Z</time>
      </trkpt>
      <trkpt lat="43.59398" lon="6.37268">
        <ele>653.5</ele>
        <time>2026-02-22T08:41:37Z</time>
      </trkpt>
      <trkpt lat="43.59398" lon="6.37268">
        <ele>653.4</ele>
        <time>2026-02-22T08:41:38Z</time>
      </trkpt>
      <trkpt lat="43.59398" lon="6.37268">
        <ele>653.4</ele>
        <time>2026-02-22T08:41:39Z</time>
      </trkpt>
      <trkpt lat="43.59399" lon="6.37268">
        <ele>653.4</ele>
        <time>2026-02-22T08:41:40Z</time>
      </trkpt>
      <trkpt lat="43.59399" lon="6.37268">
        <ele>653.4</ele>
        <time>2026-02-22T08:41:41Z</time>
      </trkpt>
      <trkpt lat="43.594" lon="6.37268">
        <ele>653.3</ele>
        <time>2026-02-22T08:41:42Z</time>
      </trkpt>
      <trkpt lat="43.594" lon="6.37267">
        <ele>653.5</ele>
        <time>2026-02-22T08:41:43Z</time>
      </trkpt>
      <trkpt lat="43.594" lon="6.37267">
        <ele>653.7</ele>
        <time>2026-02-22T08:41:44Z</time>
      </trkpt>
      <trkpt lat="43.59401" lon="6.37265">
        <ele>653.8</ele>
        <time>2026-02-22T08:41:45Z</time>
      </trkpt>
      <trkpt lat="43.59401" lon="6.37265">
        <ele>653.7</ele>
        <time>2026-02-22T08:41:46Z</time>
      </trkpt>
      <trkpt lat="43.59401" lon="6.37264">
        <ele>653.8</ele>
        <time>2026-02-22T08:41:47Z</time>
      </trkpt>
      <trkpt lat="43.594" lon="6.37263">
        <ele>653.8</ele>
        <time>2026-02-22T08:41:48Z</time>
      </trkpt>
      <trkpt lat="43.594" lon="6.37262">
        <ele>653.7</ele>
        <time>2026-02-22T08:41:49Z</time>
      </trkpt>
      <trkpt lat="43.594" lon="6.37262">
        <ele>653.7</ele>
        <time>2026-02-22T08:41:50Z</time>
      </trkpt>
      <trkpt lat="43.594" lon="6.37262">
        <ele>653.7</ele>
        <time>2026-02-22T08:41:51Z</time>
      </trkpt>
      <trkpt lat="43.59399" lon="6.37262">
        <ele>653.8</ele>
        <time>2026-02-22T08:41:52Z</time>
      </trkpt>
      <trkpt lat="43.594" lon="6.37262">
        <ele>653.9</ele>
        <time>2026-02-22T08:41:53Z</time>
      </trkpt>
      <trkpt lat="43.594" lon="6.37261">
        <ele>653.9</ele>
        <time>2026-02-22T08:41:54Z</time>
      </trkpt>
      <trkpt lat="43.594" lon="6.37261">
        <ele>653.7</ele>
        <time>2026-02-22T08:41:55Z</time>
      </trkpt>
      <trkpt lat="43.59401" lon="6.3726">
        <ele>653.7</ele>
        <time>2026-02-22T08:41:56Z</time>
      </trkpt>
      <trkpt lat="43.59401" lon="6.3726">
        <ele>653.6</ele>
        <time>2026-02-22T08:41:57Z</time>
      </trkpt>
      <trkpt lat="43.59402" lon="6.3726">
        <ele>653.6</ele>
        <time>2026-02-22T08:41:58Z</time>
      </trkpt>
      <trkpt lat="43.59402" lon="6.37259">
        <ele>653.7</ele>
        <time>2026-02-22T08:41:59Z</time>
      </trkpt>
      <trkpt lat="43.59403" lon="6.37258">
        <ele>653.5</ele>
        <time>2026-02-22T08:42:00Z</time>
      </trkpt>
      <trkpt lat="43.59404" lon="6.37257">
        <ele>653.6</ele>
        <time>2026-02-22T08:42:01Z</time>
      </trkpt>
      <trkpt lat="43.59404" lon="6.37256">
        <ele>653.7</ele>
        <time>2026-02-22T08:42:02Z</time>
      </trkpt>
      <trkpt lat="43.59405" lon="6.37255">
        <ele>653.7</ele>
        <time>2026-02-22T08:42:03Z</time>
      </trkpt>
      <trkpt lat="43.59405" lon="6.37255">
        <ele>653.6</ele>
        <time>2026-02-22T08:42:04Z</time>
      </trkpt>
      <trkpt lat="43.59405" lon="6.37255">
        <ele>653.7</ele>
        <time>2026-02-22T08:42:05Z</time>
      </trkpt>
      <trkpt lat="43.59405" lon="6.37255">
        <ele>653.7</ele>
        <time>2026-02-22T08:42:06Z</time>
      </trkpt>
      <trkpt lat="43.59405" lon="6.37255">
        <ele>653.6</ele>
        <time>2026-02-22T08:42:07Z</time>
      </trkpt>
      <trkpt lat="43.59406" lon="6.37255">
        <ele>653.6</ele>
        <time>2026-02-22T08:42:08Z</time>
      </trkpt>
      <trkpt lat="43.59406" lon="6.37255">
        <ele>653.6</ele>
        <time>2026-02-22T08:42:09Z</time>
      </trkpt>
      <trkpt lat="43.59407" lon="6.37255">
        <ele>653.7</ele>
        <time>2026-02-22T08:42:10Z</time>
      </trkpt>
      <trkpt lat="43.59407" lon="6.37255">
        <ele>653.8</ele>
        <time>2026-02-22T08:42:11Z</time>
      </trkpt>
      <trkpt lat="43.59407" lon="6.37255">
        <ele>653.8</ele>
        <time>2026-02-22T08:42:12Z</time>
      </trkpt>
      <trkpt lat="43.59407" lon="6.37255">
        <ele>653.9</ele>
        <time>2026-02-22T08:42:13Z</time>
      </trkpt>
      <trkpt lat="43.59408" lon="6.37255">
        <ele>653.9</ele>
        <time>2026-02-22T08:42:14Z</time>
      </trkpt>
      <trkpt lat="43.59408" lon="6.37254">
        <ele>654</ele>
        <time>2026-02-22T08:42:15Z</time>
      </trkpt>
      <trkpt lat="43.59409" lon="6.37254">
        <ele>654.1</ele>
        <time>2026-02-22T08:42:16Z</time>
      </trkpt>
      <trkpt lat="43.59409" lon="6.37254">
        <ele>654.2</ele>
        <time>2026-02-22T08:42:17Z</time>
      </trkpt>
      <trkpt lat="43.59409" lon="6.37253">
        <ele>654.2</ele>
        <time>2026-02-22T08:42:18Z</time>
      </trkpt>
      <trkpt lat="43.59409" lon="6.37253">
        <ele>654.3</ele>
        <time>2026-02-22T08:42:19Z</time>
      </trkpt>
      <trkpt lat="43.59409" lon="6.37253">
        <ele>654.4</ele>
        <time>2026-02-22T08:42:20Z</time>
      </trkpt>
      <trkpt lat="43.5941" lon="6.37254">
        <ele>654.6</ele>
        <time>2026-02-22T08:42:21Z</time>
      </trkpt>
      <trkpt lat="43.59411" lon="6.37253">
        <ele>654.6</ele>
        <time>2026-02-22T08:42:22Z</time>
      </trkpt>
      <trkpt lat="43.59411" lon="6.37253">
        <ele>654.6</ele>
        <time>2026-02-22T08:42:23Z</time>
      </trkpt>
      <trkpt lat="43.5941" lon="6.37251">
        <ele>654.6</ele>
        <time>2026-02-22T08:42:24Z</time>
      </trkpt>
      <trkpt lat="43.5941" lon="6.37251">
        <ele>654.7</ele>
        <time>2026-02-22T08:42:25Z</time>
      </trkpt>
      <trkpt lat="43.5941" lon="6.3725">
        <ele>654.6</ele>
        <time>2026-02-22T08:42:26Z</time>
      </trkpt>
      <trkpt lat="43.59409" lon="6.3725">
        <ele>654.6</ele>
        <time>2026-02-22T08:42:27Z</time>
      </trkpt>
      <trkpt lat="43.59409" lon="6.3725">
        <ele>654.6</ele>
        <time>2026-02-22T08:42:28Z</time>
      </trkpt>
      <trkpt lat="43.59408" lon="6.37249">
        <ele>654.6</ele>
        <time>2026-02-22T08:42:29Z</time>
      </trkpt>
      <trkpt lat="43.59408" lon="6.37249">
        <ele>654.6</ele>
        <time>2026-02-22T08:42:30Z</time>
      </trkpt>
      <trkpt lat="43.59408" lon="6.37248">
        <ele>654.7</ele>
        <time>2026-02-22T08:42:31Z</time>
      </trkpt>
      <trkpt lat="43.59408" lon="6.37248">
        <ele>654.7</ele>
        <time>2026-02-22T08:42:32Z</time>
      </trkpt>
      <trkpt lat="43.59408" lon="6.37248">
        <ele>654.7</ele>
        <time>2026-02-22T08:42:33Z</time>
      </trkpt>
      <trkpt lat="43.59408" lon="6.37247">
        <ele>654.8</ele>
        <time>2026-02-22T08:42:34Z</time>
      </trkpt>
      <trkpt lat="43.59408" lon="6.37247">
        <ele>654.8</ele>
        <time>2026-02-22T08:42:35Z</time>
      </trkpt>
      <trkpt lat="43.59408" lon="6.37247">
        <ele>654.8</ele>
        <time>2026-02-22T08:42:36Z</time>
      </trkpt>
      <trkpt lat="43.59408" lon="6.37247">
        <ele>654.8</ele>
        <time>2026-02-22T08:42:37Z</time>
      </trkpt>
      <trkpt lat="43.59407" lon="6.37247">
        <ele>654.8</ele>
        <time>2026-02-22T08:42:38Z</time>
      </trkpt>
      <trkpt lat="43.59407" lon="6.37247">
        <ele>654.8</ele>
        <time>2026-02-22T08:42:39Z</time>
      </trkpt>
      <trkpt lat="43.59407" lon="6.37246">
        <ele>654.8</ele>
        <time>2026-02-22T08:42:40Z</time>
      </trkpt>
      <trkpt lat="43.59407" lon="6.37246">
        <ele>654.9</ele>
        <time>2026-02-22T08:42:41Z</time>
      </trkpt>
      <trkpt lat="43.59407" lon="6.37246">
        <ele>654.9</ele>
        <time>2026-02-22T08:42:42Z</time>
      </trkpt>
      <trkpt lat="43.59407" lon="6.37246">
        <ele>654.9</ele>
        <time>2026-02-22T08:42:43Z</time>
      </trkpt>
      <trkpt lat="43.59407" lon="6.37246">
        <ele>654.9</ele>
        <time>2026-02-22T08:42:44Z</time>
      </trkpt>
      <trkpt lat="43.59408" lon="6.37245">
        <ele>654.9</ele>
        <time>2026-02-22T08:42:45Z</time>
      </trkpt>
      <trkpt lat="43.59407" lon="6.37246">
        <ele>654.9</ele>
        <time>2026-02-22T08:42:46Z</time>
      </trkpt>
      <trkpt lat="43.59407" lon="6.37246">
        <ele>654.8</ele>
        <time>2026-02-22T08:42:47Z</time>
      </trkpt>
      <trkpt lat="43.59407" lon="6.37245">
        <ele>654.8</ele>
        <time>2026-02-22T08:42:48Z</time>
      </trkpt>
      <trkpt lat="43.59408" lon="6.37245">
        <ele>654.8</ele>
        <time>2026-02-22T08:42:49Z</time>
      </trkpt>
      <trkpt lat="43.59408" lon="6.37245">
        <ele>654.8</ele>
        <time>2026-02-22T08:42:50Z</time>
      </trkpt>
      <trkpt lat="43.59408" lon="6.37245">
        <ele>654.8</ele>
        <time>2026-02-22T08:42:51Z</time>
      </trkpt>
      <trkpt lat="43.59408" lon="6.37245">
        <ele>654.8</ele>
        <time>2026-02-22T08:42:52Z</time>
      </trkpt>
      <trkpt lat="43.59407" lon="6.37245">
        <ele>654.9</ele>
        <time>2026-02-22T08:42:53Z</time>
      </trkpt>
      <trkpt lat="43.59408" lon="6.37245">
        <ele>654.9</ele>
        <time>2026-02-22T08:42:54Z</time>
      </trkpt>
      <trkpt lat="43.59408" lon="6.37245">
        <ele>654.8</ele>
        <time>2026-02-22T08:42:55Z</time>
      </trkpt>
      <trkpt lat="43.59408" lon="6.37245">
        <ele>654.8</ele>
        <time>2026-02-22T08:42:56Z</time>
      </trkpt>
      <trkpt lat="43.59408" lon="6.37245">
        <ele>654.8</ele>
        <time>2026-02-22T08:42:57Z</time>
      </trkpt>
      <trkpt lat="43.59409" lon="6.37245">
        <ele>654.8</ele>
        <time>2026-02-22T08:42:58Z</time>
      </trkpt>
      <trkpt lat="43.59409" lon="6.37245">
        <ele>654.8</ele>
        <time>2026-02-22T08:42:59Z</time>
      </trkpt>
      <trkpt lat="43.59409" lon="6.37246">
        <ele>654.9</ele>
        <time>2026-02-22T08:43:00Z</time>
      </trkpt>
      <trkpt lat="43.5941" lon="6.37246">
        <ele>654.9</ele>
        <time>2026-02-22T08:43:01Z</time>
      </trkpt>
      <trkpt lat="43.5941" lon="6.37245">
        <ele>654.9</ele>
        <time>2026-02-22T08:43:02Z</time>
      </trkpt>
      <trkpt lat="43.5941" lon="6.37245">
        <ele>654.9</ele>
        <time>2026-02-22T08:43:03Z</time>
      </trkpt>
      <trkpt lat="43.5941" lon="6.37244">
        <ele>654.9</ele>
        <time>2026-02-22T08:43:04Z</time>
      </trkpt>
      <trkpt lat="43.5941" lon="6.37244">
        <ele>654.9</ele>
        <time>2026-02-22T08:43:05Z</time>
      </trkpt>
      <trkpt lat="43.59411" lon="6.37243">
        <ele>655</ele>
        <time>2026-02-22T08:43:06Z</time>
      </trkpt>
      <trkpt lat="43.59411" lon="6.37243">
        <ele>654.9</ele>
        <time>2026-02-22T08:43:07Z</time>
      </trkpt>
      <trkpt lat="43.59412" lon="6.37243">
        <ele>654.9</ele>
        <time>2026-02-22T08:43:08Z</time>
      </trkpt>
      <trkpt lat="43.59412" lon="6.37242">
        <ele>655</ele>
        <time>2026-02-22T08:43:09Z</time>
      </trkpt>
      <trkpt lat="43.59413" lon="6.37242">
        <ele>655</ele>
        <time>2026-02-22T08:43:10Z</time>
      </trkpt>
      <trkpt lat="43.59413" lon="6.37242">
        <ele>655.1</ele>
        <time>2026-02-22T08:43:11Z</time>
      </trkpt>
      <trkpt lat="43.59413" lon="6.37241">
        <ele>655.1</ele>
        <time>2026-02-22T08:43:12Z</time>
      </trkpt>
      <trkpt lat="43.59413" lon="6.37241">
        <ele>655.1</ele>
        <time>2026-02-22T08:43:13Z</time>
      </trkpt>
      <trkpt lat="43.59414" lon="6.37241">
        <ele>655.1</ele>
        <time>2026-02-22T08:43:14Z</time>
      </trkpt>
      <trkpt lat="43.59414" lon="6.37241">
        <ele>655.1</ele>
        <time>2026-02-22T08:43:15Z</time>
      </trkpt>
      <trkpt lat="43.59414" lon="6.37241">
        <ele>655.1</ele>
        <time>2026-02-22T08:43:16Z</time>
      </trkpt>
      <trkpt lat="43.59414" lon="6.3724">
        <ele>655.1</ele>
        <time>2026-02-22T08:43:17Z</time>
      </trkpt>
      <trkpt lat="43.59414" lon="6.37239">
        <ele>655.1</ele>
        <time>2026-02-22T08:43:18Z</time>
      </trkpt>
      <trkpt lat="43.59414" lon="6.37237">
        <ele>655</ele>
        <time>2026-02-22T08:43:19Z</time>
      </trkpt>
      <trkpt lat="43.59415" lon="6.37236">
        <ele>655.1</ele>
        <time>2026-02-22T08:43:20Z</time>
      </trkpt>
      <trkpt lat="43.59415" lon="6.37236">
        <ele>655.1</ele>
        <time>2026-02-22T08:43:21Z</time>
      </trkpt>
      <trkpt lat="43.59415" lon="6.37236">
        <ele>655.1</ele>
        <time>2026-02-22T08:43:22Z</time>
      </trkpt>
      <trkpt lat="43.59416" lon="6.37236">
        <ele>655.1</ele>
        <time>2026-02-22T08:43:23Z</time>
      </trkpt>
      <trkpt lat="43.59416" lon="6.37236">
        <ele>655.2</ele>
        <time>2026-02-22T08:43:24Z</time>
      </trkpt>
      <trkpt lat="43.59416" lon="6.37236">
        <ele>655.3</ele>
        <time>2026-02-22T08:43:25Z</time>
      </trkpt>
      <trkpt lat="43.59417" lon="6.37235">
        <ele>655.3</ele>
        <time>2026-02-22T08:43:26Z</time>
      </trkpt>
      <trkpt lat="43.59417" lon="6.37235">
        <ele>655.2</ele>
        <time>2026-02-22T08:43:27Z</time>
      </trkpt>
      <trkpt lat="43.59417" lon="6.37236">
        <ele>655.2</ele>
        <time>2026-02-22T08:43:28Z</time>
      </trkpt>
      <trkpt lat="43.59417" lon="6.37236">
        <ele>655.2</ele>
        <time>2026-02-22T08:43:29Z</time>
      </trkpt>
      <trkpt lat="43.59418" lon="6.37236">
        <ele>655.1</ele>
        <time>2026-02-22T08:43:30Z</time>
      </trkpt>
      <trkpt lat="43.59418" lon="6.37237">
        <ele>655.1</ele>
        <time>2026-02-22T08:43:31Z</time>
      </trkpt>
      <trkpt lat="43.59419" lon="6.37236">
        <ele>655.1</ele>
        <time>2026-02-22T08:43:32Z</time>
      </trkpt>
      <trkpt lat="43.59419" lon="6.37236">
        <ele>655.1</ele>
        <time>2026-02-22T08:43:33Z</time>
      </trkpt>
      <trkpt lat="43.5942" lon="6.37236">
        <ele>655.1</ele>
        <time>2026-02-22T08:43:34Z</time>
      </trkpt>
      <trkpt lat="43.59421" lon="6.37237">
        <ele>655.2</ele>
        <time>2026-02-22T08:43:35Z</time>
      </trkpt>
      <trkpt lat="43.59421" lon="6.37237">
        <ele>655.2</ele>
        <time>2026-02-22T08:43:36Z</time>
      </trkpt>
      <trkpt lat="43.59422" lon="6.37237">
        <ele>655.1</ele>
        <time>2026-02-22T08:43:37Z</time>
      </trkpt>
      <trkpt lat="43.59422" lon="6.37237">
        <ele>655.1</ele>
        <time>2026-02-22T08:43:38Z</time>
      </trkpt>
      <trkpt lat="43.59422" lon="6.37236">
        <ele>655.1</ele>
        <time>2026-02-22T08:43:39Z</time>
      </trkpt>
      <trkpt lat="43.59422" lon="6.37237">
        <ele>655</ele>
        <time>2026-02-22T08:43:40Z</time>
      </trkpt>
      <trkpt lat="43.59423" lon="6.37238">
        <ele>654.9</ele>
        <time>2026-02-22T08:43:41Z</time>
      </trkpt>
      <trkpt lat="43.59423" lon="6.37239">
        <ele>654.9</ele>
        <time>2026-02-22T08:43:42Z</time>
      </trkpt>
      <trkpt lat="43.59423" lon="6.37239">
        <ele>654.9</ele>
        <time>2026-02-22T08:43:43Z</time>
      </trkpt>
      <trkpt lat="43.59424" lon="6.37238">
        <ele>654.9</ele>
        <time>2026-02-22T08:43:44Z</time>
      </trkpt>
      <trkpt lat="43.59424" lon="6.37238">
        <ele>654.9</ele>
        <time>2026-02-22T08:43:45Z</time>
      </trkpt>
      <trkpt lat="43.59424" lon="6.37238">
        <ele>654.8</ele>
        <time>2026-02-22T08:43:46Z</time>
      </trkpt>
      <trkpt lat="43.59424" lon="6.37237">
        <ele>654.8</ele>
        <time>2026-02-22T08:43:47Z</time>
      </trkpt>
      <trkpt lat="43.59424" lon="6.37237">
        <ele>654.7</ele>
        <time>2026-02-22T08:43:48Z</time>
      </trkpt>
      <trkpt lat="43.59425" lon="6.37236">
        <ele>654.7</ele>
        <time>2026-02-22T08:43:49Z</time>
      </trkpt>
      <trkpt lat="43.59424" lon="6.37236">
        <ele>654.7</ele>
        <time>2026-02-22T08:43:50Z</time>
      </trkpt>
      <trkpt lat="43.59424" lon="6.37236">
        <ele>654.7</ele>
        <time>2026-02-22T08:43:51Z</time>
      </trkpt>
      <trkpt lat="43.59424" lon="6.37236">
        <ele>654.7</ele>
        <time>2026-02-22T08:43:52Z</time>
      </trkpt>
      <trkpt lat="43.59424" lon="6.37236">
        <ele>654.6</ele>
        <time>2026-02-22T08:43:53Z</time>
      </trkpt>
      <trkpt lat="43.59425" lon="6.37236">
        <ele>654.7</ele>
        <time>2026-02-22T08:43:54Z</time>
      </trkpt>
      <trkpt lat="43.59424" lon="6.37236">
        <ele>654.6</ele>
        <time>2026-02-22T08:43:55Z</time>
      </trkpt>
      <trkpt lat="43.59424" lon="6.37237">
        <ele>654.6</ele>
        <time>2026-02-22T08:43:56Z</time>
      </trkpt>
      <trkpt lat="43.59424" lon="6.37237">
        <ele>654.7</ele>
        <time>2026-02-22T08:43:57Z</time>
      </trkpt>
      <trkpt lat="43.59424" lon="6.37238">
        <ele>654.8</ele>
        <time>2026-02-22T08:43:58Z</time>
      </trkpt>
      <trkpt lat="43.59424" lon="6.37238">
        <ele>654.8</ele>
        <time>2026-02-22T08:43:59Z</time>
      </trkpt>
      <trkpt lat="43.59423" lon="6.37238">
        <ele>654.8</ele>
        <time>2026-02-22T08:44:00Z</time>
      </trkpt>
      <trkpt lat="43.59424" lon="6.37238">
        <ele>654.9</ele>
        <time>2026-02-22T08:44:01Z</time>
      </trkpt>
      <trkpt lat="43.59424" lon="6.37239">
        <ele>654.9</ele>
        <time>2026-02-22T08:44:02Z</time>
      </trkpt>
      <trkpt lat="43.59425" lon="6.37241">
        <ele>655</ele>
        <time>2026-02-22T08:44:03Z</time>
      </trkpt>
      <trkpt lat="43.59425" lon="6.37241">
        <ele>655.1</ele>
        <time>2026-02-22T08:44:04Z</time>
      </trkpt>
      <trkpt lat="43.59425" lon="6.37242">
        <ele>655.1</ele>
        <time>2026-02-22T08:44:05Z</time>
      </trkpt>
      <trkpt lat="43.59424" lon="6.37242">
        <ele>655</ele>
        <time>2026-02-22T08:44:06Z</time>
      </trkpt>
      <trkpt lat="43.59425" lon="6.37243">
        <ele>655</ele>
        <time>2026-02-22T08:44:07Z</time>
      </trkpt>
      <trkpt lat="43.59425" lon="6.37243">
        <ele>654.9</ele>
        <time>2026-02-22T08:44:08Z</time>
      </trkpt>
      <trkpt lat="43.59425" lon="6.37243">
        <ele>654.7</ele>
        <time>2026-02-22T08:44:09Z</time>
      </trkpt>
      <trkpt lat="43.59425" lon="6.37244">
        <ele>654.6</ele>
        <time>2026-02-22T08:44:10Z</time>
      </trkpt>
      <trkpt lat="43.59425" lon="6.37243">
        <ele>654.6</ele>
        <time>2026-02-22T08:44:11Z</time>
      </trkpt>
      <trkpt lat="43.59426" lon="6.37244">
        <ele>654.6</ele>
        <time>2026-02-22T08:44:12Z</time>
      </trkpt>
      <trkpt lat="43.59426" lon="6.37245">
        <ele>654.6</ele>
        <time>2026-02-22T08:44:13Z</time>
      </trkpt>
      <trkpt lat="43.59427" lon="6.37245">
        <ele>654.6</ele>
        <time>2026-02-22T08:44:14Z</time>
      </trkpt>
      <trkpt lat="43.59428" lon="6.37246">
        <ele>654.4</ele>
        <time>2026-02-22T08:44:15Z</time>
      </trkpt>
      <trkpt lat="43.59429" lon="6.37247">
        <ele>654.4</ele>
        <time>2026-02-22T08:44:16Z</time>
      </trkpt>
      <trkpt lat="43.5943" lon="6.37248">
        <ele>654.4</ele>
        <time>2026-02-22T08:44:17Z</time>
      </trkpt>
      <trkpt lat="43.59431" lon="6.37249">
        <ele>654.4</ele>
        <time>2026-02-22T08:44:18Z</time>
      </trkpt>
      <trkpt lat="43.59431" lon="6.37249">
        <ele>654.4</ele>
        <time>2026-02-22T08:44:19Z</time>
      </trkpt>
      <trkpt lat="43.59431" lon="6.37249">
        <ele>654.5</ele>
        <time>2026-02-22T08:44:20Z</time>
      </trkpt>
      <trkpt lat="43.59432" lon="6.3725">
        <ele>654.5</ele>
        <time>2026-02-22T08:44:21Z</time>
      </trkpt>
      <trkpt lat="43.59432" lon="6.3725">
        <ele>654.6</ele>
        <time>2026-02-22T08:44:22Z</time>
      </trkpt>
      <trkpt lat="43.59432" lon="6.37251">
        <ele>654.6</ele>
        <time>2026-02-22T08:44:23Z</time>
      </trkpt>
      <trkpt lat="43.59432" lon="6.37251">
        <ele>654.6</ele>
        <time>2026-02-22T08:44:24Z</time>
      </trkpt>
      <trkpt lat="43.59432" lon="6.37252">
        <ele>654.6</ele>
        <time>2026-02-22T08:44:25Z</time>
      </trkpt>
      <trkpt lat="43.59432" lon="6.37252">
        <ele>654.6</ele>
        <time>2026-02-22T08:44:26Z</time>
      </trkpt>
      <trkpt lat="43.59431" lon="6.37252">
        <ele>654.6</ele>
        <time>2026-02-22T08:44:27Z</time>
      </trkpt>
      <trkpt lat="43.59431" lon="6.37253">
        <ele>654.5</ele>
        <time>2026-02-22T08:44:28Z</time>
      </trkpt>
      <trkpt lat="43.59431" lon="6.37253">
        <ele>654.5</ele>
        <time>2026-02-22T08:44:29Z</time>
      </trkpt>
      <trkpt lat="43.59431" lon="6.37253">
        <ele>654.5</ele>
        <time>2026-02-22T08:44:30Z</time>
      </trkpt>
      <trkpt lat="43.59431" lon="6.37253">
        <ele>654.5</ele>
        <time>2026-02-22T08:44:31Z</time>
      </trkpt>
      <trkpt lat="43.59431" lon="6.37253">
        <ele>654.5</ele>
        <time>2026-02-22T08:44:32Z</time>
      </trkpt>
      <trkpt lat="43.59431" lon="6.37254">
        <ele>654.5</ele>
        <time>2026-02-22T08:44:33Z</time>
      </trkpt>
      <trkpt lat="43.59432" lon="6.37253">
        <ele>654.5</ele>
        <time>2026-02-22T08:44:34Z</time>
      </trkpt>
      <trkpt lat="43.59432" lon="6.37253">
        <ele>654.5</ele>
        <time>2026-02-22T08:44:35Z</time>
      </trkpt>
      <trkpt lat="43.59433" lon="6.37253">
        <ele>654.5</ele>
        <time>2026-02-22T08:44:36Z</time>
      </trkpt>
      <trkpt lat="43.59433" lon="6.37253">
        <ele>654.5</ele>
        <time>2026-02-22T08:44:37Z</time>
      </trkpt>
      <trkpt lat="43.59433" lon="6.37253">
        <ele>654.5</ele>
        <time>2026-02-22T08:44:38Z</time>
      </trkpt>
      <trkpt lat="43.59433" lon="6.37253">
        <ele>654.6</ele>
        <time>2026-02-22T08:44:39Z</time>
      </trkpt>
      <trkpt lat="43.59433" lon="6.37253">
        <ele>654.6</ele>
        <time>2026-02-22T08:44:40Z</time>
      </trkpt>
      <trkpt lat="43.59433" lon="6.37254">
        <ele>654.6</ele>
        <time>2026-02-22T08:44:41Z</time>
      </trkpt>
      <trkpt lat="43.59433" lon="6.37254">
        <ele>654.6</ele>
        <time>2026-02-22T08:44:42Z</time>
      </trkpt>
      <trkpt lat="43.59433" lon="6.37254">
        <ele>654.7</ele>
        <time>2026-02-22T08:44:43Z</time>
      </trkpt>
      <trkpt lat="43.59433" lon="6.37254">
        <ele>654.7</ele>
        <time>2026-02-22T08:44:44Z</time>
      </trkpt>
      <trkpt lat="43.59433" lon="6.37254">
        <ele>654.8</ele>
        <time>2026-02-22T08:44:45Z</time>
      </trkpt>
      <trkpt lat="43.59434" lon="6.37254">
        <ele>654.8</ele>
        <time>2026-02-22T08:44:46Z</time>
      </trkpt>
      <trkpt lat="43.59434" lon="6.37255">
        <ele>654.9</ele>
        <time>2026-02-22T08:44:47Z</time>
      </trkpt>
      <trkpt lat="43.59433" lon="6.37255">
        <ele>654.9</ele>
        <time>2026-02-22T08:44:48Z</time>
      </trkpt>
      <trkpt lat="43.59433" lon="6.37255">
        <ele>654.9</ele>
        <time>2026-02-22T08:44:49Z</time>
      </trkpt>
      <trkpt lat="43.59433" lon="6.37255">
        <ele>654.9</ele>
        <time>2026-02-22T08:44:50Z</time>
      </trkpt>
      <trkpt lat="43.59433" lon="6.37255">
        <ele>654.8</ele>
        <time>2026-02-22T08:44:51Z</time>
      </trkpt>
      <trkpt lat="43.59433" lon="6.37255">
        <ele>654.8</ele>
        <time>2026-02-22T08:44:52Z</time>
      </trkpt>
      <trkpt lat="43.59433" lon="6.37255">
        <ele>654.7</ele>
        <time>2026-02-22T08:44:53Z</time>
      </trkpt>
      <trkpt lat="43.59433" lon="6.37255">
        <ele>654.7</ele>
        <time>2026-02-22T08:44:54Z</time>
      </trkpt>
      <trkpt lat="43.59433" lon="6.37255">
        <ele>654.7</ele>
        <time>2026-02-22T08:44:55Z</time>
      </trkpt>
      <trkpt lat="43.59433" lon="6.37255">
        <ele>654.6</ele>
        <time>2026-02-22T08:44:56Z</time>
      </trkpt>
      <trkpt lat="43.59433" lon="6.37255">
        <ele>654.6</ele>
        <time>2026-02-22T08:44:57Z</time>
      </trkpt>
      <trkpt lat="43.59433" lon="6.37255">
        <ele>654.6</ele>
        <time>2026-02-22T08:44:58Z</time>
      </trkpt>
      <trkpt lat="43.59434" lon="6.37255">
        <ele>654.6</ele>
        <time>2026-02-22T08:44:59Z</time>
      </trkpt>
      <trkpt lat="43.59434" lon="6.37255">
        <ele>654.6</ele>
        <time>2026-02-22T08:45:00Z</time>
      </trkpt>
      <trkpt lat="43.59434" lon="6.37255">
        <ele>654.6</ele>
        <time>2026-02-22T08:45:01Z</time>
      </trkpt>
      <trkpt lat="43.59434" lon="6.37255">
        <ele>654.6</ele>
        <time>2026-02-22T08:45:02Z</time>
      </trkpt>
      <trkpt lat="43.59434" lon="6.37255">
        <ele>654.5</ele>
        <time>2026-02-22T08:45:03Z</time>
      </trkpt>
      <trkpt lat="43.59434" lon="6.37255">
        <ele>654.6</ele>
        <time>2026-02-22T08:45:04Z</time>
      </trkpt>
      <trkpt lat="43.59434" lon="6.37255">
        <ele>654.5</ele>
        <time>2026-02-22T08:45:05Z</time>
      </trkpt>
      <trkpt lat="43.59434" lon="6.37256">
        <ele>654.4</ele>
        <time>2026-02-22T08:45:06Z</time>
      </trkpt>
      <trkpt lat="43.59434" lon="6.37256">
        <ele>654.4</ele>
        <time>2026-02-22T08:45:07Z</time>
      </trkpt>
      <trkpt lat="43.59434" lon="6.37256">
        <ele>654.4</ele>
        <time>2026-02-22T08:45:08Z</time>
      </trkpt>
      <trkpt lat="43.59434" lon="6.37256">
        <ele>654.5</ele>
        <time>2026-02-22T08:45:09Z</time>
      </trkpt>
      <trkpt lat="43.59434" lon="6.37256">
        <ele>654.5</ele>
        <time>2026-02-22T08:45:10Z</time>
      </trkpt>
      <trkpt lat="43.59434" lon="6.37256">
        <ele>654.4</ele>
        <time>2026-02-22T08:45:11Z</time>
      </trkpt>
      <trkpt lat="43.59434" lon="6.37256">
        <ele>654.5</ele>
        <time>2026-02-22T08:45:12Z</time>
      </trkpt>
      <trkpt lat="43.59434" lon="6.37256">
        <ele>654.5</ele>
        <time>2026-02-22T08:45:13Z</time>
      </trkpt>
      <trkpt lat="43.59434" lon="6.37256">
        <ele>654.5</ele>
        <time>2026-02-22T08:45:14Z</time>
      </trkpt>
      <trkpt lat="43.59433" lon="6.37256">
        <ele>654.5</ele>
        <time>2026-02-22T08:45:15Z</time>
      </trkpt>
      <trkpt lat="43.59433" lon="6.37256">
        <ele>654.5</ele>
        <time>2026-02-22T08:45:16Z</time>
      </trkpt>
      <trkpt lat="43.59433" lon="6.37256">
        <ele>654.6</ele>
        <time>2026-02-22T08:45:17Z</time>
      </trkpt>
      <trkpt lat="43.59432" lon="6.37256">
        <ele>654.6</ele>
        <time>2026-02-22T08:45:18Z</time>
      </trkpt>
      <trkpt lat="43.59432" lon="6.37256">
        <ele>654.6</ele>
        <time>2026-02-22T08:45:19Z</time>
      </trkpt>
      <trkpt lat="43.59432" lon="6.37256">
        <ele>654.6</ele>
        <time>2026-02-22T08:45:20Z</time>
      </trkpt>
      <trkpt lat="43.59432" lon="6.37256">
        <ele>654.7</ele>
        <time>2026-02-22T08:45:21Z</time>
      </trkpt>
      <trkpt lat="43.59432" lon="6.37256">
        <ele>654.8</ele>
        <time>2026-02-22T08:45:22Z</time>
      </trkpt>
      <trkpt lat="43.59432" lon="6.37256">
        <ele>654.9</ele>
        <time>2026-02-22T08:45:23Z</time>
      </trkpt>
      <trkpt lat="43.59432" lon="6.37256">
        <ele>654.9</ele>
        <time>2026-02-22T08:45:24Z</time>
      </trkpt>
      <trkpt lat="43.59432" lon="6.37255">
        <ele>655</ele>
        <time>2026-02-22T08:45:25Z</time>
      </trkpt>
      <trkpt lat="43.59433" lon="6.37255">
        <ele>655</ele>
        <time>2026-02-22T08:45:26Z</time>
      </trkpt>
      <trkpt lat="43.59433" lon="6.37255">
        <ele>655</ele>
        <time>2026-02-22T08:45:27Z</time>
      </trkpt>
      <trkpt lat="43.59433" lon="6.37255">
        <ele>655.1</ele>
        <time>2026-02-22T08:45:28Z</time>
      </trkpt>
      <trkpt lat="43.59432" lon="6.37255">
        <ele>655.1</ele>
        <time>2026-02-22T08:45:29Z</time>
      </trkpt>
      <trkpt lat="43.59432" lon="6.37255">
        <ele>655.1</ele>
        <time>2026-02-22T08:45:30Z</time>
      </trkpt>
      <trkpt lat="43.59432" lon="6.37255">
        <ele>655.1</ele>
        <time>2026-02-22T08:45:31Z</time>
      </trkpt>
      <trkpt lat="43.59432" lon="6.37255">
        <ele>655</ele>
        <time>2026-02-22T08:45:32Z</time>
      </trkpt>
      <trkpt lat="43.59433" lon="6.37255">
        <ele>655</ele>
        <time>2026-02-22T08:45:33Z</time>
      </trkpt>
      <trkpt lat="43.59433" lon="6.37256">
        <ele>654.9</ele>
        <time>2026-02-22T08:45:34Z</time>
      </trkpt>
      <trkpt lat="43.59433" lon="6.37255">
        <ele>654.9</ele>
        <time>2026-02-22T08:45:35Z</time>
      </trkpt>
      <trkpt lat="43.59433" lon="6.37256">
        <ele>654.9</ele>
        <time>2026-02-22T08:45:36Z</time>
      </trkpt>
      <trkpt lat="43.59433" lon="6.37256">
        <ele>654.9</ele>
        <time>2026-02-22T08:45:37Z</time>
      </trkpt>
      <trkpt lat="43.59434" lon="6.37255">
        <ele>655</ele>
        <time>2026-02-22T08:45:38Z</time>
      </trkpt>
      <trkpt lat="43.59434" lon="6.37255">
        <ele>655</ele>
        <time>2026-02-22T08:45:39Z</time>
      </trkpt>
      <trkpt lat="43.59434" lon="6.37256">
        <ele>655</ele>
        <time>2026-02-22T08:45:40Z</time>
      </trkpt>
      <trkpt lat="43.59434" lon="6.37255">
        <ele>655</ele>
        <time>2026-02-22T08:45:41Z</time>
      </trkpt>
      <trkpt lat="43.59434" lon="6.37256">
        <ele>655</ele>
        <time>2026-02-22T08:45:42Z</time>
      </trkpt>
      <trkpt lat="43.59435" lon="6.37255">
        <ele>655</ele>
        <time>2026-02-22T08:45:43Z</time>
      </trkpt>
      <trkpt lat="43.59435" lon="6.37256">
        <ele>655</ele>
        <time>2026-02-22T08:45:44Z</time>
      </trkpt>
      <trkpt lat="43.59435" lon="6.37256">
        <ele>654.9</ele>
        <time>2026-02-22T08:45:45Z</time>
      </trkpt>
      <trkpt lat="43.59435" lon="6.37255">
        <ele>655</ele>
        <time>2026-02-22T08:45:46Z</time>
      </trkpt>
      <trkpt lat="43.59435" lon="6.37255">
        <ele>655</ele>
        <time>2026-02-22T08:45:47Z</time>
      </trkpt>
      <trkpt lat="43.59435" lon="6.37255">
        <ele>655</ele>
        <time>2026-02-22T08:45:48Z</time>
      </trkpt>
      <trkpt lat="43.59435" lon="6.37255">
        <ele>655</ele>
        <time>2026-02-22T08:45:49Z</time>
      </trkpt>
      <trkpt lat="43.59435" lon="6.37255">
        <ele>655.1</ele>
        <time>2026-02-22T08:45:50Z</time>
      </trkpt>
      <trkpt lat="43.59435" lon="6.37255">
        <ele>655</ele>
        <time>2026-02-22T08:45:51Z</time>
      </trkpt>
      <trkpt lat="43.59435" lon="6.37255">
        <ele>654.9</ele>
        <time>2026-02-22T08:45:52Z</time>
      </trkpt>
      <trkpt lat="43.59436" lon="6.37255">
        <ele>654.8</ele>
        <time>2026-02-22T08:45:53Z</time>
      </trkpt>
      <trkpt lat="43.59436" lon="6.37255">
        <ele>654.8</ele>
        <time>2026-02-22T08:45:54Z</time>
      </trkpt>
      <trkpt lat="43.59436" lon="6.37255">
        <ele>654.7</ele>
        <time>2026-02-22T08:45:55Z</time>
      </trkpt>
      <trkpt lat="43.59436" lon="6.37255">
        <ele>654.7</ele>
        <time>2026-02-22T08:45:56Z</time>
      </trkpt>
      <trkpt lat="43.59436" lon="6.37255">
        <ele>654.7</ele>
        <time>2026-02-22T08:45:57Z</time>
      </trkpt>
      <trkpt lat="43.59436" lon="6.37255">
        <ele>654.7</ele>
        <time>2026-02-22T08:45:58Z</time>
      </trkpt>
      <trkpt lat="43.59436" lon="6.37255">
        <ele>654.7</ele>
        <time>2026-02-22T08:45:59Z</time>
      </trkpt>
      <trkpt lat="43.59436" lon="6.37255">
        <ele>654.7</ele>
        <time>2026-02-22T08:46:00Z</time>
      </trkpt>
      <trkpt lat="43.59436" lon="6.37255">
        <ele>654.7</ele>
        <time>2026-02-22T08:46:01Z</time>
      </trkpt>
      <trkpt lat="43.59436" lon="6.37256">
        <ele>654.7</ele>
        <time>2026-02-22T08:46:02Z</time>
      </trkpt>
      <trkpt lat="43.59436" lon="6.37256">
        <ele>654.7</ele>
        <time>2026-02-22T08:46:03Z</time>
      </trkpt>
      <trkpt lat="43.59436" lon="6.37256">
        <ele>654.7</ele>
        <time>2026-02-22T08:46:04Z</time>
      </trkpt>
      <trkpt lat="43.59437" lon="6.37256">
        <ele>654.7</ele>
        <time>2026-02-22T08:46:05Z</time>
      </trkpt>
      <trkpt lat="43.59437" lon="6.37256">
        <ele>654.8</ele>
        <time>2026-02-22T08:46:06Z</time>
      </trkpt>
      <trkpt lat="43.59436" lon="6.37256">
        <ele>654.7</ele>
        <time>2026-02-22T08:46:07Z</time>
      </trkpt>
      <trkpt lat="43.59436" lon="6.37256">
        <ele>654.6</ele>
        <time>2026-02-22T08:46:08Z</time>
      </trkpt>
      <trkpt lat="43.59436" lon="6.37256">
        <ele>654.6</ele>
        <time>2026-02-22T08:46:09Z</time>
      </trkpt>
      <trkpt lat="43.59436" lon="6.37256">
        <ele>654.6</ele>
        <time>2026-02-22T08:46:10Z</time>
      </trkpt>
      <trkpt lat="43.59436" lon="6.37256">
        <ele>654.7</ele>
        <time>2026-02-22T08:46:11Z</time>
      </trkpt>
      <trkpt lat="43.59436" lon="6.37256">
        <ele>654.6</ele>
        <time>2026-02-22T08:46:12Z</time>
      </trkpt>
      <trkpt lat="43.59436" lon="6.37256">
        <ele>654.6</ele>
        <time>2026-02-22T08:46:13Z</time>
      </trkpt>
      <trkpt lat="43.59436" lon="6.37256">
        <ele>654.7</ele>
        <time>2026-02-22T08:46:14Z</time>
      </trkpt>
      <trkpt lat="43.59435" lon="6.37256">
        <ele>654.7</ele>
        <time>2026-02-22T08:46:15Z</time>
      </trkpt>
      <trkpt lat="43.59435" lon="6.37256">
        <ele>654.7</ele>
        <time>2026-02-22T08:46:16Z</time>
      </trkpt>
      <trkpt lat="43.59435" lon="6.37256">
        <ele>654.7</ele>
        <time>2026-02-22T08:46:17Z</time>
      </trkpt>
      <trkpt lat="43.59435" lon="6.37256">
        <ele>654.7</ele>
        <time>2026-02-22T08:46:18Z</time>
      </trkpt>
      <trkpt lat="43.59435" lon="6.37256">
        <ele>654.6</ele>
        <time>2026-02-22T08:46:19Z</time>
      </trkpt>
      <trkpt lat="43.59435" lon="6.37256">
        <ele>654.6</ele>
        <time>2026-02-22T08:46:20Z</time>
      </trkpt>
      <trkpt lat="43.59434" lon="6.37256">
        <ele>654.6</ele>
        <time>2026-02-22T08:46:21Z</time>
      </trkpt>
      <trkpt lat="43.59434" lon="6.37256">
        <ele>654.6</ele>
        <time>2026-02-22T08:46:22Z</time>
      </trkpt>
      <trkpt lat="43.59434" lon="6.37256">
        <ele>654.6</ele>
        <time>2026-02-22T08:46:23Z</time>
      </trkpt>
      <trkpt lat="43.59433" lon="6.37256">
        <ele>654.6</ele>
        <time>2026-02-22T08:46:24Z</time>
      </trkpt>
      <trkpt lat="43.59433" lon="6.37255">
        <ele>654.6</ele>
        <time>2026-02-22T08:46:25Z</time>
      </trkpt>
      <trkpt lat="43.59433" lon="6.37256">
        <ele>654.7</ele>
        <time>2026-02-22T08:46:26Z</time>
      </trkpt>
      <trkpt lat="43.59433" lon="6.37256">
        <ele>654.7</ele>
        <time>2026-02-22T08:46:27Z</time>
      </trkpt>
      <trkpt lat="43.59433" lon="6.37256">
        <ele>654.6</ele>
        <time>2026-02-22T08:46:28Z</time>
      </trkpt>
      <trkpt lat="43.59433" lon="6.37256">
        <ele>654.7</ele>
        <time>2026-02-22T08:46:29Z</time>
      </trkpt>
      <trkpt lat="43.59433" lon="6.37256">
        <ele>654.8</ele>
        <time>2026-02-22T08:46:30Z</time>
      </trkpt>
      <trkpt lat="43.59433" lon="6.37256">
        <ele>654.8</ele>
        <time>2026-02-22T08:46:31Z</time>
      </trkpt>
      <trkpt lat="43.59433" lon="6.37256">
        <ele>654.8</ele>
        <time>2026-02-22T08:46:32Z</time>
      </trkpt>
      <trkpt lat="43.59433" lon="6.37256">
        <ele>654.7</ele>
        <time>2026-02-22T08:46:33Z</time>
      </trkpt>
      <trkpt lat="43.59433" lon="6.37256">
        <ele>654.7</ele>
        <time>2026-02-22T08:46:34Z</time>
      </trkpt>
      <trkpt lat="43.59433" lon="6.37255">
        <ele>654.6</ele>
        <time>2026-02-22T08:46:35Z</time>
      </trkpt>
      <trkpt lat="43.59433" lon="6.37255">
        <ele>654.7</ele>
        <time>2026-02-22T08:46:36Z</time>
      </trkpt>
      <trkpt lat="43.59433" lon="6.37254">
        <ele>654.7</ele>
        <time>2026-02-22T08:46:37Z</time>
      </trkpt>
      <trkpt lat="43.59433" lon="6.37254">
        <ele>654.7</ele>
        <time>2026-02-22T08:46:38Z</time>
      </trkpt>
      <trkpt lat="43.59432" lon="6.37254">
        <ele>654.7</ele>
        <time>2026-02-22T08:46:39Z</time>
      </trkpt>
      <trkpt lat="43.59432" lon="6.37254">
        <ele>654.7</ele>
        <time>2026-02-22T08:46:40Z</time>
      </trkpt>
      <trkpt lat="43.59432" lon="6.37254">
        <ele>654.7</ele>
        <time>2026-02-22T08:46:41Z</time>
      </trkpt>
      <trkpt lat="43.59432" lon="6.37253">
        <ele>654.7</ele>
        <time>2026-02-22T08:46:42Z</time>
      </trkpt>
      <trkpt lat="43.59432" lon="6.37253">
        <ele>654.8</ele>
        <time>2026-02-22T08:46:43Z</time>
      </trkpt>
      <trkpt lat="43.59432" lon="6.37253">
        <ele>654.8</ele>
        <time>2026-02-22T08:46:44Z</time>
      </trkpt>
      <trkpt lat="43.59432" lon="6.37253">
        <ele>654.8</ele>
        <time>2026-02-22T08:46:45Z</time>
      </trkpt>
      <trkpt lat="43.59432" lon="6.37253">
        <ele>654.9</ele>
        <time>2026-02-22T08:46:46Z</time>
      </trkpt>
      <trkpt lat="43.59432" lon="6.37253">
        <ele>654.9</ele>
        <time>2026-02-22T08:46:47Z</time>
      </trkpt>
      <trkpt lat="43.59432" lon="6.37253">
        <ele>654.9</ele>
        <time>2026-02-22T08:46:48Z</time>
      </trkpt>
      <trkpt lat="43.59432" lon="6.37253">
        <ele>654.8</ele>
        <time>2026-02-22T08:46:49Z</time>
      </trkpt>
      <trkpt lat="43.59432" lon="6.37253">
        <ele>654.9</ele>
        <time>2026-02-22T08:46:50Z</time>
      </trkpt>
      <trkpt lat="43.59432" lon="6.37253">
        <ele>654.9</ele>
        <time>2026-02-22T08:46:51Z</time>
      </trkpt>
      <trkpt lat="43.59432" lon="6.37253">
        <ele>654.9</ele>
        <time>2026-02-22T08:46:52Z</time>
      </trkpt>
      <trkpt lat="43.59432" lon="6.37253">
        <ele>654.9</ele>
        <time>2026-02-22T08:46:53Z</time>
      </trkpt>
      <trkpt lat="43.59432" lon="6.37253">
        <ele>654.9</ele>
        <time>2026-02-22T08:46:54Z</time>
      </trkpt>
      <trkpt lat="43.59432" lon="6.37253">
        <ele>655</ele>
        <time>2026-02-22T08:46:55Z</time>
      </trkpt>
      <trkpt lat="43.59432" lon="6.37253">
        <ele>655</ele>
        <time>2026-02-22T08:46:56Z</time>
      </trkpt>
      <trkpt lat="43.59432" lon="6.37253">
        <ele>655</ele>
        <time>2026-02-22T08:46:57Z</time>
      </trkpt>
      <trkpt lat="43.59432" lon="6.37253">
        <ele>655.1</ele>
        <time>2026-02-22T08:46:58Z</time>
      </trkpt>
      <trkpt lat="43.59432" lon="6.37253">
        <ele>655.1</ele>
        <time>2026-02-22T08:46:59Z</time>
      </trkpt>
      <trkpt lat="43.59432" lon="6.37253">
        <ele>655.1</ele>
        <time>2026-02-22T08:47:00Z</time>
      </trkpt>
      <trkpt lat="43.59433" lon="6.37253">
        <ele>655.1</ele>
        <time>2026-02-22T08:47:01Z</time>
      </trkpt>
      <trkpt lat="43.59433" lon="6.37253">
        <ele>655.1</ele>
        <time>2026-02-22T08:47:02Z</time>
      </trkpt>
      <trkpt lat="43.59433" lon="6.37253">
        <ele>655.1</ele>
        <time>2026-02-22T08:47:03Z</time>
      </trkpt>
      <trkpt lat="43.59433" lon="6.37254">
        <ele>655.1</ele>
        <time>2026-02-22T08:47:04Z</time>
      </trkpt>
      <trkpt lat="43.59432" lon="6.37254">
        <ele>655.1</ele>
        <time>2026-02-22T08:47:05Z</time>
      </trkpt>
      <trkpt lat="43.59432" lon="6.37254">
        <ele>655.1</ele>
        <time>2026-02-22T08:47:06Z</time>
      </trkpt>
      <trkpt lat="43.59432" lon="6.37254">
        <ele>655.1</ele>
        <time>2026-02-22T08:47:07Z</time>
      </trkpt>
      <trkpt lat="43.59433" lon="6.37254">
        <ele>655.1</ele>
        <time>2026-02-22T08:47:08Z</time>
      </trkpt>
      <trkpt lat="43.59433" lon="6.37254">
        <ele>654.9</ele>
        <time>2026-02-22T08:47:09Z</time>
      </trkpt>
      <trkpt lat="43.59433" lon="6.37254">
        <ele>655</ele>
        <time>2026-02-22T08:47:10Z</time>
      </trkpt>
      <trkpt lat="43.59433" lon="6.37254">
        <ele>655</ele>
        <time>2026-02-22T08:47:11Z</time>
      </trkpt>
      <trkpt lat="43.59434" lon="6.37254">
        <ele>655</ele>
        <time>2026-02-22T08:47:12Z</time>
      </trkpt>
      <trkpt lat="43.59434" lon="6.37254">
        <ele>655</ele>
        <time>2026-02-22T08:47:13Z</time>
      </trkpt>
      <trkpt lat="43.59434" lon="6.37254">
        <ele>654.9</ele>
        <time>2026-02-22T08:47:14Z</time>
      </trkpt>
      <trkpt lat="43.59434" lon="6.37254">
        <ele>654.9</ele>
        <time>2026-02-22T08:47:15Z</time>
      </trkpt>
      <trkpt lat="43.59434" lon="6.37254">
        <ele>654.8</ele>
        <time>2026-02-22T08:47:16Z</time>
      </trkpt>
      <trkpt lat="43.59434" lon="6.37254">
        <ele>654.8</ele>
        <time>2026-02-22T08:47:17Z</time>
      </trkpt>
      <trkpt lat="43.59434" lon="6.37255">
        <ele>654.8</ele>
        <time>2026-02-22T08:47:18Z</time>
      </trkpt>
      <trkpt lat="43.59434" lon="6.37255">
        <ele>654.8</ele>
        <time>2026-02-22T08:47:19Z</time>
      </trkpt>
      <trkpt lat="43.59434" lon="6.37255">
        <ele>654.8</ele>
        <time>2026-02-22T08:47:20Z</time>
      </trkpt>
      <trkpt lat="43.59435" lon="6.37255">
        <ele>654.8</ele>
        <time>2026-02-22T08:47:21Z</time>
      </trkpt>
      <trkpt lat="43.59435" lon="6.37255">
        <ele>654.8</ele>
        <time>2026-02-22T08:47:22Z</time>
      </trkpt>
      <trkpt lat="43.59436" lon="6.37254">
        <ele>654.8</ele>
        <time>2026-02-22T08:47:23Z</time>
      </trkpt>
      <trkpt lat="43.59436" lon="6.37254">
        <ele>654.8</ele>
        <time>2026-02-22T08:47:24Z</time>
      </trkpt>
      <trkpt lat="43.59436" lon="6.37254">
        <ele>654.8</ele>
        <time>2026-02-22T08:47:25Z</time>
      </trkpt>
      <trkpt lat="43.59436" lon="6.37254">
        <ele>654.8</ele>
        <time>2026-02-22T08:47:26Z</time>
      </trkpt>
      <trkpt lat="43.59436" lon="6.37254">
        <ele>654.7</ele>
        <time>2026-02-22T08:47:27Z</time>
      </trkpt>
      <trkpt lat="43.59436" lon="6.37254">
        <ele>654.7</ele>
        <time>2026-02-22T08:47:28Z</time>
      </trkpt>
      <trkpt lat="43.59436" lon="6.37254">
        <ele>654.7</ele>
        <time>2026-02-22T08:47:29Z</time>
      </trkpt>
      <trkpt lat="43.59436" lon="6.37254">
        <ele>654.7</ele>
        <time>2026-02-22T08:47:30Z</time>
      </trkpt>
      <trkpt lat="43.59436" lon="6.37254">
        <ele>654.7</ele>
        <time>2026-02-22T08:47:31Z</time>
      </trkpt>
      <trkpt lat="43.59436" lon="6.37254">
        <ele>654.7</ele>
        <time>2026-02-22T08:47:32Z</time>
      </trkpt>
      <trkpt lat="43.59436" lon="6.37254">
        <ele>654.7</ele>
        <time>2026-02-22T08:47:33Z</time>
      </trkpt>
      <trkpt lat="43.59436" lon="6.37254">
        <ele>654.7</ele>
        <time>2026-02-22T08:47:34Z</time>
      </trkpt>
      <trkpt lat="43.59436" lon="6.37254">
        <ele>654.7</ele>
        <time>2026-02-22T08:47:35Z</time>
      </trkpt>
      <trkpt lat="43.59436" lon="6.37253">
        <ele>654.6</ele>
        <time>2026-02-22T08:47:36Z</time>
      </trkpt>
      <trkpt lat="43.59436" lon="6.37253">
        <ele>654.6</ele>
        <time>2026-02-22T08:47:37Z</time>
      </trkpt>
      <trkpt lat="43.59436" lon="6.37253">
        <ele>654.6</ele>
        <time>2026-02-22T08:47:38Z</time>
      </trkpt>
      <trkpt lat="43.59436" lon="6.37253">
        <ele>654.7</ele>
        <time>2026-02-22T08:47:39Z</time>
      </trkpt>
      <trkpt lat="43.59437" lon="6.37253">
        <ele>654.7</ele>
        <time>2026-02-22T08:47:40Z</time>
      </trkpt>
      <trkpt lat="43.59437" lon="6.37253">
        <ele>654.7</ele>
        <time>2026-02-22T08:47:41Z</time>
      </trkpt>
      <trkpt lat="43.59437" lon="6.37253">
        <ele>654.6</ele>
        <time>2026-02-22T08:47:42Z</time>
      </trkpt>
      <trkpt lat="43.59437" lon="6.37252">
        <ele>654.6</ele>
        <time>2026-02-22T08:47:43Z</time>
      </trkpt>
      <trkpt lat="43.59436" lon="6.37253">
        <ele>654.6</ele>
        <time>2026-02-22T08:47:44Z</time>
      </trkpt>
      <trkpt lat="43.59436" lon="6.37253">
        <ele>654.6</ele>
        <time>2026-02-22T08:47:45Z</time>
      </trkpt>
      <trkpt lat="43.59435" lon="6.37253">
        <ele>654.6</ele>
        <time>2026-02-22T08:47:46Z</time>
      </trkpt>
      <trkpt lat="43.59435" lon="6.37253">
        <ele>654.6</ele>
        <time>2026-02-22T08:47:47Z</time>
      </trkpt>
      <trkpt lat="43.59434" lon="6.37254">
        <ele>654.7</ele>
        <time>2026-02-22T08:47:48Z</time>
      </trkpt>
      <trkpt lat="43.59435" lon="6.37254">
        <ele>654.7</ele>
        <time>2026-02-22T08:47:49Z</time>
      </trkpt>
      <trkpt lat="43.59435" lon="6.37254">
        <ele>654.7</ele>
        <time>2026-02-22T08:47:50Z</time>
      </trkpt>
      <trkpt lat="43.59435" lon="6.37255">
        <ele>654.7</ele>
        <time>2026-02-22T08:47:51Z</time>
      </trkpt>
      <trkpt lat="43.59435" lon="6.37255">
        <ele>654.7</ele>
        <time>2026-02-22T08:47:52Z</time>
      </trkpt>
      <trkpt lat="43.59435" lon="6.37255">
        <ele>654.7</ele>
        <time>2026-02-22T08:47:53Z</time>
      </trkpt>
      <trkpt lat="43.59435" lon="6.37255">
        <ele>654.7</ele>
        <time>2026-02-22T08:47:54Z</time>
      </trkpt>
      <trkpt lat="43.59436" lon="6.37255">
        <ele>654.8</ele>
        <time>2026-02-22T08:47:55Z</time>
      </trkpt>
      <trkpt lat="43.59436" lon="6.37256">
        <ele>654.8</ele>
        <time>2026-02-22T08:47:56Z</time>
      </trkpt>
      <trkpt lat="43.59436" lon="6.37256">
        <ele>654.8</ele>
        <time>2026-02-22T08:47:57Z</time>
      </trkpt>
      <trkpt lat="43.59436" lon="6.37257">
        <ele>654.8</ele>
        <time>2026-02-22T08:47:58Z</time>
      </trkpt>
      <trkpt lat="43.59436" lon="6.37257">
        <ele>654.7</ele>
        <time>2026-02-22T08:47:59Z</time>
      </trkpt>
      <trkpt lat="43.59436" lon="6.37257">
        <ele>654.7</ele>
        <time>2026-02-22T08:48:00Z</time>
      </trkpt>
      <trkpt lat="43.59436" lon="6.37257">
        <ele>654.7</ele>
        <time>2026-02-22T08:48:01Z</time>
      </trkpt>
      <trkpt lat="43.59436" lon="6.37257">
        <ele>654.7</ele>
        <time>2026-02-22T08:48:02Z</time>
      </trkpt>
      <trkpt lat="43.59436" lon="6.37258">
        <ele>654.8</ele>
        <time>2026-02-22T08:48:03Z</time>
      </trkpt>
      <trkpt lat="43.59436" lon="6.37257">
        <ele>654.8</ele>
        <time>2026-02-22T08:48:04Z</time>
      </trkpt>
      <trkpt lat="43.59436" lon="6.37257">
        <ele>654.9</ele>
        <time>2026-02-22T08:48:05Z</time>
      </trkpt>
      <trkpt lat="43.59437" lon="6.37257">
        <ele>654.9</ele>
        <time>2026-02-22T08:48:06Z</time>
      </trkpt>
      <trkpt lat="43.59437" lon="6.37257">
        <ele>654.9</ele>
        <time>2026-02-22T08:48:07Z</time>
      </trkpt>
      <trkpt lat="43.59437" lon="6.37257">
        <ele>655</ele>
        <time>2026-02-22T08:48:08Z</time>
      </trkpt>
      <trkpt lat="43.59437" lon="6.37257">
        <ele>655</ele>
        <time>2026-02-22T08:48:09Z</time>
      </trkpt>
      <trkpt lat="43.59437" lon="6.37257">
        <ele>655</ele>
        <time>2026-02-22T08:48:10Z</time>
      </trkpt>
      <trkpt lat="43.59437" lon="6.37257">
        <ele>655</ele>
        <time>2026-02-22T08:48:11Z</time>
      </trkpt>
      <trkpt lat="43.59438" lon="6.37257">
        <ele>655</ele>
        <time>2026-02-22T08:48:12Z</time>
      </trkpt>
      <trkpt lat="43.59438" lon="6.37257">
        <ele>655</ele>
        <time>2026-02-22T08:48:13Z</time>
      </trkpt>
      <trkpt lat="43.59438" lon="6.37257">
        <ele>655</ele>
        <time>2026-02-22T08:48:14Z</time>
      </trkpt>
      <trkpt lat="43.59438" lon="6.37257">
        <ele>655</ele>
        <time>2026-02-22T08:48:15Z</time>
      </trkpt>
      <trkpt lat="43.59439" lon="6.37257">
        <ele>655</ele>
        <time>2026-02-22T08:48:16Z</time>
      </trkpt>
      <trkpt lat="43.59439" lon="6.37257">
        <ele>655</ele>
        <time>2026-02-22T08:48:17Z</time>
      </trkpt>
      <trkpt lat="43.59439" lon="6.37257">
        <ele>655</ele>
        <time>2026-02-22T08:48:18Z</time>
      </trkpt>
      <trkpt lat="43.59438" lon="6.37257">
        <ele>655</ele>
        <time>2026-02-22T08:48:19Z</time>
      </trkpt>
      <trkpt lat="43.59437" lon="6.37257">
        <ele>655</ele>
        <time>2026-02-22T08:48:20Z</time>
      </trkpt>
      <trkpt lat="43.59437" lon="6.37258">
        <ele>655.1</ele>
        <time>2026-02-22T08:48:21Z</time>
      </trkpt>
      <trkpt lat="43.59437" lon="6.37258">
        <ele>655.2</ele>
        <time>2026-02-22T08:48:22Z</time>
      </trkpt>
      <trkpt lat="43.59437" lon="6.37258">
        <ele>655.2</ele>
        <time>2026-02-22T08:48:23Z</time>
      </trkpt>
      <trkpt lat="43.59437" lon="6.37258">
        <ele>655.2</ele>
        <time>2026-02-22T08:48:24Z</time>
      </trkpt>
      <trkpt lat="43.59437" lon="6.37258">
        <ele>655.2</ele>
        <time>2026-02-22T08:48:25Z</time>
      </trkpt>
      <trkpt lat="43.59436" lon="6.37259">
        <ele>655.1</ele>
        <time>2026-02-22T08:48:26Z</time>
      </trkpt>
      <trkpt lat="43.59436" lon="6.37259">
        <ele>655</ele>
        <time>2026-02-22T08:48:27Z</time>
      </trkpt>
      <trkpt lat="43.59436" lon="6.37259">
        <ele>654.9</ele>
        <time>2026-02-22T08:48:28Z</time>
      </trkpt>
      <trkpt lat="43.59436" lon="6.37259">
        <ele>654.9</ele>
        <time>2026-02-22T08:48:29Z</time>
      </trkpt>
      <trkpt lat="43.59436" lon="6.37259">
        <ele>654.9</ele>
        <time>2026-02-22T08:48:30Z</time>
      </trkpt>
      <trkpt lat="43.59436" lon="6.37259">
        <ele>654.8</ele>
        <time>2026-02-22T08:48:31Z</time>
      </trkpt>
      <trkpt lat="43.59436" lon="6.37258">
        <ele>654.7</ele>
        <time>2026-02-22T08:48:32Z</time>
      </trkpt>
      <trkpt lat="43.59435" lon="6.37259">
        <ele>654.8</ele>
        <time>2026-02-22T08:48:33Z</time>
      </trkpt>
      <trkpt lat="43.59435" lon="6.37258">
        <ele>654.8</ele>
        <time>2026-02-22T08:48:34Z</time>
      </trkpt>
      <trkpt lat="43.59435" lon="6.37258">
        <ele>654.7</ele>
        <time>2026-02-22T08:48:35Z</time>
      </trkpt>
      <trkpt lat="43.59435" lon="6.37258">
        <ele>654.6</ele>
        <time>2026-02-22T08:48:36Z</time>
      </trkpt>
      <trkpt lat="43.59435" lon="6.37258">
        <ele>654.5</ele>
        <time>2026-02-22T08:48:37Z</time>
      </trkpt>
      <trkpt lat="43.59434" lon="6.37258">
        <ele>654.6</ele>
        <time>2026-02-22T08:48:38Z</time>
      </trkpt>
      <trkpt lat="43.59434" lon="6.37258">
        <ele>654.6</ele>
        <time>2026-02-22T08:48:39Z</time>
      </trkpt>
      <trkpt lat="43.59434" lon="6.37258">
        <ele>654.6</ele>
        <time>2026-02-22T08:48:40Z</time>
      </trkpt>
      <trkpt lat="43.59434" lon="6.37258">
        <ele>654.6</ele>
        <time>2026-02-22T08:48:41Z</time>
      </trkpt>
      <trkpt lat="43.59434" lon="6.37258">
        <ele>654.6</ele>
        <time>2026-02-22T08:48:42Z</time>
      </trkpt>
      <trkpt lat="43.59434" lon="6.37258">
        <ele>654.5</ele>
        <time>2026-02-22T08:48:43Z</time>
      </trkpt>
      <trkpt lat="43.59434" lon="6.37257">
        <ele>654.5</ele>
        <time>2026-02-22T08:48:44Z</time>
      </trkpt>
      <trkpt lat="43.59434" lon="6.37257">
        <ele>654.5</ele>
        <time>2026-02-22T08:48:45Z</time>
      </trkpt>
      <trkpt lat="43.59434" lon="6.37257">
        <ele>654.5</ele>
        <time>2026-02-22T08:48:46Z</time>
      </trkpt>
      <trkpt lat="43.59434" lon="6.37257">
        <ele>654.6</ele>
        <time>2026-02-22T08:48:47Z</time>
      </trkpt>
      <trkpt lat="43.59434" lon="6.37257">
        <ele>654.6</ele>
        <time>2026-02-22T08:48:48Z</time>
      </trkpt>
      <trkpt lat="43.59434" lon="6.37257">
        <ele>654.6</ele>
        <time>2026-02-22T08:48:49Z</time>
      </trkpt>
      <trkpt lat="43.59434" lon="6.37257">
        <ele>654.6</ele>
        <time>2026-02-22T08:48:50Z</time>
      </trkpt>
      <trkpt lat="43.59434" lon="6.37257">
        <ele>654.6</ele>
        <time>2026-02-22T08:48:51Z</time>
      </trkpt>
      <trkpt lat="43.59434" lon="6.37257">
        <ele>654.6</ele>
        <time>2026-02-22T08:48:52Z</time>
      </trkpt>
      <trkpt lat="43.59434" lon="6.37258">
        <ele>654.6</ele>
        <time>2026-02-22T08:48:53Z</time>
      </trkpt>
      <trkpt lat="43.59434" lon="6.37258">
        <ele>654.6</ele>
        <time>2026-02-22T08:48:54Z</time>
      </trkpt>
      <trkpt lat="43.59434" lon="6.37258">
        <ele>654.7</ele>
        <time>2026-02-22T08:48:55Z</time>
      </trkpt>
      <trkpt lat="43.59434" lon="6.37257">
        <ele>654.7</ele>
        <time>2026-02-22T08:48:56Z</time>
      </trkpt>
      <trkpt lat="43.59434" lon="6.37257">
        <ele>654.7</ele>
        <time>2026-02-22T08:48:57Z</time>
      </trkpt>
      <trkpt lat="43.59434" lon="6.37257">
        <ele>654.7</ele>
        <time>2026-02-22T08:48:58Z</time>
      </trkpt>
      <trkpt lat="43.59434" lon="6.37257">
        <ele>654.8</ele>
        <time>2026-02-22T08:48:59Z</time>
      </trkpt>
      <trkpt lat="43.59434" lon="6.37257">
        <ele>654.9</ele>
        <time>2026-02-22T08:49:00Z</time>
      </trkpt>
      <trkpt lat="43.59434" lon="6.37258">
        <ele>654.8</ele>
        <time>2026-02-22T08:49:01Z</time>
      </trkpt>
      <trkpt lat="43.59434" lon="6.37258">
        <ele>654.8</ele>
        <time>2026-02-22T08:49:02Z</time>
      </trkpt>
      <trkpt lat="43.59434" lon="6.37258">
        <ele>654.9</ele>
        <time>2026-02-22T08:49:03Z</time>
      </trkpt>
      <trkpt lat="43.59433" lon="6.37258">
        <ele>654.9</ele>
        <time>2026-02-22T08:49:04Z</time>
      </trkpt>
      <trkpt lat="43.59434" lon="6.37258">
        <ele>654.9</ele>
        <time>2026-02-22T08:49:05Z</time>
      </trkpt>
      <trkpt lat="43.59434" lon="6.37257">
        <ele>654.9</ele>
        <time>2026-02-22T08:49:06Z</time>
      </trkpt>
      <trkpt lat="43.59433" lon="6.37257">
        <ele>654.9</ele>
        <time>2026-02-22T08:49:07Z</time>
      </trkpt>
      <trkpt lat="43.59434" lon="6.37256">
        <ele>654.9</ele>
        <time>2026-02-22T08:49:08Z</time>
      </trkpt>
      <trkpt lat="43.59434" lon="6.37256">
        <ele>654.9</ele>
        <time>2026-02-22T08:49:09Z</time>
      </trkpt>
      <trkpt lat="43.59434" lon="6.37256">
        <ele>654.8</ele>
        <time>2026-02-22T08:49:10Z</time>
      </trkpt>
      <trkpt lat="43.59434" lon="6.37256">
        <ele>654.8</ele>
        <time>2026-02-22T08:49:11Z</time>
      </trkpt>
      <trkpt lat="43.59435" lon="6.37255">
        <ele>654.7</ele>
        <time>2026-02-22T08:49:12Z</time>
      </trkpt>
      <trkpt lat="43.59435" lon="6.37255">
        <ele>654.7</ele>
        <time>2026-02-22T08:49:13Z</time>
      </trkpt>
      <trkpt lat="43.59435" lon="6.37254">
        <ele>654.7</ele>
        <time>2026-02-22T08:49:14Z</time>
      </trkpt>
      <trkpt lat="43.59436" lon="6.37253">
        <ele>654.7</ele>
        <time>2026-02-22T08:49:15Z</time>
      </trkpt>
      <trkpt lat="43.59436" lon="6.37253">
        <ele>654.6</ele>
        <time>2026-02-22T08:49:16Z</time>
      </trkpt>
      <trkpt lat="43.59436" lon="6.37253">
        <ele>654.6</ele>
        <time>2026-02-22T08:49:17Z</time>
      </trkpt>
      <trkpt lat="43.59436" lon="6.37253">
        <ele>654.6</ele>
        <time>2026-02-22T08:49:18Z</time>
      </trkpt>
      <trkpt lat="43.59436" lon="6.37253">
        <ele>654.6</ele>
        <time>2026-02-22T08:49:19Z</time>
      </trkpt>
      <trkpt lat="43.59435" lon="6.37253">
        <ele>654.6</ele>
        <time>2026-02-22T08:49:20Z</time>
      </trkpt>
      <trkpt lat="43.59435" lon="6.37253">
        <ele>654.6</ele>
        <time>2026-02-22T08:49:21Z</time>
      </trkpt>
      <trkpt lat="43.59435" lon="6.37253">
        <ele>654.6</ele>
        <time>2026-02-22T08:49:22Z</time>
      </trkpt>
      <trkpt lat="43.59435" lon="6.37253">
        <ele>654.6</ele>
        <time>2026-02-22T08:49:23Z</time>
      </trkpt>
      <trkpt lat="43.59435" lon="6.37253">
        <ele>654.6</ele>
        <time>2026-02-22T08:49:24Z</time>
      </trkpt>
      <trkpt lat="43.59435" lon="6.37253">
        <ele>654.6</ele>
        <time>2026-02-22T08:49:25Z</time>
      </trkpt>
      <trkpt lat="43.59435" lon="6.37253">
        <ele>654.8</ele>
        <time>2026-02-22T08:49:26Z</time>
      </trkpt>
      <trkpt lat="43.59435" lon="6.37253">
        <ele>654.9</ele>
        <time>2026-02-22T08:49:27Z</time>
      </trkpt>
      <trkpt lat="43.59435" lon="6.37253">
        <ele>654.9</ele>
        <time>2026-02-22T08:49:28Z</time>
      </trkpt>
      <trkpt lat="43.59435" lon="6.37253">
        <ele>654.9</ele>
        <time>2026-02-22T08:49:29Z</time>
      </trkpt>
      <trkpt lat="43.59435" lon="6.37254">
        <ele>654.9</ele>
        <time>2026-02-22T08:49:30Z</time>
      </trkpt>
      <trkpt lat="43.59435" lon="6.37254">
        <ele>654.9</ele>
        <time>2026-02-22T08:49:31Z</time>
      </trkpt>
      <trkpt lat="43.59435" lon="6.37254">
        <ele>654.9</ele>
        <time>2026-02-22T08:49:32Z</time>
      </trkpt>
      <trkpt lat="43.59435" lon="6.37254">
        <ele>654.9</ele>
        <time>2026-02-22T08:49:33Z</time>
      </trkpt>
      <trkpt lat="43.59435" lon="6.37254">
        <ele>654.9</ele>
        <time>2026-02-22T08:49:34Z</time>
      </trkpt>
      <trkpt lat="43.59435" lon="6.37255">
        <ele>654.9</ele>
        <time>2026-02-22T08:49:35Z</time>
      </trkpt>
      <trkpt lat="43.59435" lon="6.37255">
        <ele>654.9</ele>
        <time>2026-02-22T08:49:36Z</time>
      </trkpt>
      <trkpt lat="43.59435" lon="6.37255">
        <ele>654.9</ele>
        <time>2026-02-22T08:49:37Z</time>
      </trkpt>
      <trkpt lat="43.59434" lon="6.37255">
        <ele>654.8</ele>
        <time>2026-02-22T08:49:38Z</time>
      </trkpt>
      <trkpt lat="43.59434" lon="6.37255">
        <ele>654.7</ele>
        <time>2026-02-22T08:49:39Z</time>
      </trkpt>
      <trkpt lat="43.59434" lon="6.37255">
        <ele>654.6</ele>
        <time>2026-02-22T08:49:40Z</time>
      </trkpt>
      <trkpt lat="43.59434" lon="6.37255">
        <ele>654.6</ele>
        <time>2026-02-22T08:49:41Z</time>
      </trkpt>
      <trkpt lat="43.59434" lon="6.37255">
        <ele>654.6</ele>
        <time>2026-02-22T08:49:42Z</time>
      </trkpt>
      <trkpt lat="43.59434" lon="6.37255">
        <ele>654.8</ele>
        <time>2026-02-22T08:49:43Z</time>
      </trkpt>
      <trkpt lat="43.59435" lon="6.37255">
        <ele>654.9</ele>
        <time>2026-02-22T08:49:44Z</time>
      </trkpt>
      <trkpt lat="43.59435" lon="6.37256">
        <ele>655</ele>
        <time>2026-02-22T08:49:45Z</time>
      </trkpt>
      <trkpt lat="43.59435" lon="6.37256">
        <ele>655</ele>
        <time>2026-02-22T08:49:46Z</time>
      </trkpt>
      <trkpt lat="43.59435" lon="6.37256">
        <ele>654.9</ele>
        <time>2026-02-22T08:49:47Z</time>
      </trkpt>
      <trkpt lat="43.59435" lon="6.37256">
        <ele>654.8</ele>
        <time>2026-02-22T08:49:48Z</time>
      </trkpt>
      <trkpt lat="43.59435" lon="6.37256">
        <ele>654.8</ele>
        <time>2026-02-22T08:49:49Z</time>
      </trkpt>
      <trkpt lat="43.59435" lon="6.37256">
        <ele>654.7</ele>
        <time>2026-02-22T08:49:50Z</time>
      </trkpt>
      <trkpt lat="43.59435" lon="6.37256">
        <ele>654.6</ele>
        <time>2026-02-22T08:49:51Z</time>
      </trkpt>
      <trkpt lat="43.59434" lon="6.37256">
        <ele>654.6</ele>
        <time>2026-02-22T08:49:52Z</time>
      </trkpt>
      <trkpt lat="43.59434" lon="6.37257">
        <ele>654.5</ele>
        <time>2026-02-22T08:49:53Z</time>
      </trkpt>
      <trkpt lat="43.59433" lon="6.37257">
        <ele>654.5</ele>
        <time>2026-02-22T08:49:54Z</time>
      </trkpt>
      <trkpt lat="43.59433" lon="6.37257">
        <ele>654.5</ele>
        <time>2026-02-22T08:49:55Z</time>
      </trkpt>
      <trkpt lat="43.59433" lon="6.37257">
        <ele>654.6</ele>
        <time>2026-02-22T08:49:56Z</time>
      </trkpt>
      <trkpt lat="43.59433" lon="6.37256">
        <ele>654.6</ele>
        <time>2026-02-22T08:49:57Z</time>
      </trkpt>
      <trkpt lat="43.59433" lon="6.37256">
        <ele>654.6</ele>
        <time>2026-02-22T08:49:58Z</time>
      </trkpt>
      <trkpt lat="43.59433" lon="6.37256">
        <ele>654.6</ele>
        <time>2026-02-22T08:49:59Z</time>
      </trkpt>
      <trkpt lat="43.59433" lon="6.37256">
        <ele>654.6</ele>
        <time>2026-02-22T08:50:00Z</time>
      </trkpt>
      <trkpt lat="43.59433" lon="6.37257">
        <ele>654.6</ele>
        <time>2026-02-22T08:50:01Z</time>
      </trkpt>
      <trkpt lat="43.59433" lon="6.37258">
        <ele>654.6</ele>
        <time>2026-02-22T08:50:02Z</time>
      </trkpt>
      <trkpt lat="43.59433" lon="6.37258">
        <ele>654.6</ele>
        <time>2026-02-22T08:50:03Z</time>
      </trkpt>
      <trkpt lat="43.59433" lon="6.37259">
        <ele>654.7</ele>
        <time>2026-02-22T08:50:04Z</time>
      </trkpt>
      <trkpt lat="43.59433" lon="6.3726">
        <ele>654.8</ele>
        <time>2026-02-22T08:50:05Z</time>
      </trkpt>
      <trkpt lat="43.59433" lon="6.3726">
        <ele>654.8</ele>
        <time>2026-02-22T08:50:06Z</time>
      </trkpt>
      <trkpt lat="43.59433" lon="6.37261">
        <ele>654.8</ele>
        <time>2026-02-22T08:50:07Z</time>
      </trkpt>
      <trkpt lat="43.59433" lon="6.37261">
        <ele>654.8</ele>
        <time>2026-02-22T08:50:08Z</time>
      </trkpt>
      <trkpt lat="43.59433" lon="6.37261">
        <ele>654.7</ele>
        <time>2026-02-22T08:50:09Z</time>
      </trkpt>
      <trkpt lat="43.59433" lon="6.37261">
        <ele>654.6</ele>
        <time>2026-02-22T08:50:10Z</time>
      </trkpt>
      <trkpt lat="43.59432" lon="6.37262">
        <ele>654.5</ele>
        <time>2026-02-22T08:50:11Z</time>
      </trkpt>
      <trkpt lat="43.59431" lon="6.37263">
        <ele>654.6</ele>
        <time>2026-02-22T08:50:12Z</time>
      </trkpt>
      <trkpt lat="43.59432" lon="6.37263">
        <ele>654.6</ele>
        <time>2026-02-22T08:50:13Z</time>
      </trkpt>
      <trkpt lat="43.59432" lon="6.37263">
        <ele>654.6</ele>
        <time>2026-02-22T08:50:14Z</time>
      </trkpt>
      <trkpt lat="43.59432" lon="6.37263">
        <ele>654.6</ele>
        <time>2026-02-22T08:50:15Z</time>
      </trkpt>
      <trkpt lat="43.59432" lon="6.37263">
        <ele>654.7</ele>
        <time>2026-02-22T08:50:16Z</time>
      </trkpt>
      <trkpt lat="43.59432" lon="6.37263">
        <ele>654.7</ele>
        <time>2026-02-22T08:50:17Z</time>
      </trkpt>
      <trkpt lat="43.59433" lon="6.37262">
        <ele>654.5</ele>
        <time>2026-02-22T08:50:18Z</time>
      </trkpt>
      <trkpt lat="43.59433" lon="6.3726">
        <ele>654.5</ele>
        <time>2026-02-22T08:50:19Z</time>
      </trkpt>
      <trkpt lat="43.59434" lon="6.3726">
        <ele>654.5</ele>
        <time>2026-02-22T08:50:20Z</time>
      </trkpt>
      <trkpt lat="43.59434" lon="6.3726">
        <ele>654.5</ele>
        <time>2026-02-22T08:50:21Z</time>
      </trkpt>
      <trkpt lat="43.59435" lon="6.3726">
        <ele>654.5</ele>
        <time>2026-02-22T08:50:22Z</time>
      </trkpt>
      <trkpt lat="43.59435" lon="6.37261">
        <ele>654.5</ele>
        <time>2026-02-22T08:50:23Z</time>
      </trkpt>
      <trkpt lat="43.59435" lon="6.37261">
        <ele>654.5</ele>
        <time>2026-02-22T08:50:24Z</time>
      </trkpt>
      <trkpt lat="43.59435" lon="6.37261">
        <ele>654.5</ele>
        <time>2026-02-22T08:50:25Z</time>
      </trkpt>
      <trkpt lat="43.59434" lon="6.37261">
        <ele>654.6</ele>
        <time>2026-02-22T08:50:26Z</time>
      </trkpt>
      <trkpt lat="43.59434" lon="6.37262">
        <ele>654.6</ele>
        <time>2026-02-22T08:50:27Z</time>
      </trkpt>
      <trkpt lat="43.59433" lon="6.37262">
        <ele>654.6</ele>
        <time>2026-02-22T08:50:28Z</time>
      </trkpt>
      <trkpt lat="43.59433" lon="6.37262">
        <ele>654.6</ele>
        <time>2026-02-22T08:50:29Z</time>
      </trkpt>
      <trkpt lat="43.59434" lon="6.37262">
        <ele>654.6</ele>
        <time>2026-02-22T08:50:30Z</time>
      </trkpt>
      <trkpt lat="43.59434" lon="6.37262">
        <ele>654.6</ele>
        <time>2026-02-22T08:50:31Z</time>
      </trkpt>
      <trkpt lat="43.59434" lon="6.37263">
        <ele>654.6</ele>
        <time>2026-02-22T08:50:32Z</time>
      </trkpt>
      <trkpt lat="43.59434" lon="6.37263">
        <ele>654.6</ele>
        <time>2026-02-22T08:50:33Z</time>
      </trkpt>
      <trkpt lat="43.59433" lon="6.37264">
        <ele>654.6</ele>
        <time>2026-02-22T08:50:34Z</time>
      </trkpt>
      <trkpt lat="43.59433" lon="6.37264">
        <ele>654.6</ele>
        <time>2026-02-22T08:50:35Z</time>
      </trkpt>
      <trkpt lat="43.59433" lon="6.37264">
        <ele>654.5</ele>
        <time>2026-02-22T08:50:36Z</time>
      </trkpt>
      <trkpt lat="43.59432" lon="6.37264">
        <ele>654.6</ele>
        <time>2026-02-22T08:50:37Z</time>
      </trkpt>
      <trkpt lat="43.59433" lon="6.37264">
        <ele>654.7</ele>
        <time>2026-02-22T08:50:38Z</time>
      </trkpt>
      <trkpt lat="43.59434" lon="6.37264">
        <ele>654.7</ele>
        <time>2026-02-22T08:50:39Z</time>
      </trkpt>
      <trkpt lat="43.59434" lon="6.37265">
        <ele>654.7</ele>
        <time>2026-02-22T08:50:40Z</time>
      </trkpt>
      <trkpt lat="43.59435" lon="6.37265">
        <ele>654.6</ele>
        <time>2026-02-22T08:50:41Z</time>
      </trkpt>
      <trkpt lat="43.59435" lon="6.37265">
        <ele>654.6</ele>
        <time>2026-02-22T08:50:42Z</time>
      </trkpt>
      <trkpt lat="43.59434" lon="6.37265">
        <ele>654.5</ele>
        <time>2026-02-22T08:50:43Z</time>
      </trkpt>
      <trkpt lat="43.59435" lon="6.37266">
        <ele>654.5</ele>
        <time>2026-02-22T08:50:44Z</time>
      </trkpt>
      <trkpt lat="43.59434" lon="6.37267">
        <ele>654.5</ele>
        <time>2026-02-22T08:50:45Z</time>
      </trkpt>
      <trkpt lat="43.59434" lon="6.37268">
        <ele>654.4</ele>
        <time>2026-02-22T08:50:46Z</time>
      </trkpt>
      <trkpt lat="43.59434" lon="6.37269">
        <ele>654.4</ele>
        <time>2026-02-22T08:50:47Z</time>
      </trkpt>
      <trkpt lat="43.59434" lon="6.37269">
        <ele>654.4</ele>
        <time>2026-02-22T08:50:48Z</time>
      </trkpt>
      <trkpt lat="43.59434" lon="6.37269">
        <ele>654.4</ele>
        <time>2026-02-22T08:50:49Z</time>
      </trkpt>
      <trkpt lat="43.59435" lon="6.3727">
        <ele>654.4</ele>
        <time>2026-02-22T08:50:50Z</time>
      </trkpt>
      <trkpt lat="43.59435" lon="6.3727">
        <ele>654.4</ele>
        <time>2026-02-22T08:50:51Z</time>
      </trkpt>
      <trkpt lat="43.59435" lon="6.37271">
        <ele>654.4</ele>
        <time>2026-02-22T08:50:52Z</time>
      </trkpt>
      <trkpt lat="43.59435" lon="6.37272">
        <ele>654.4</ele>
        <time>2026-02-22T08:50:53Z</time>
      </trkpt>
      <trkpt lat="43.59435" lon="6.37273">
        <ele>654.4</ele>
        <time>2026-02-22T08:50:54Z</time>
      </trkpt>
      <trkpt lat="43.59436" lon="6.37272">
        <ele>654.4</ele>
        <time>2026-02-22T08:50:55Z</time>
      </trkpt>
      <trkpt lat="43.59436" lon="6.37272">
        <ele>654.3</ele>
        <time>2026-02-22T08:50:56Z</time>
      </trkpt>
      <trkpt lat="43.59437" lon="6.37272">
        <ele>654.3</ele>
        <time>2026-02-22T08:50:57Z</time>
      </trkpt>
      <trkpt lat="43.59437" lon="6.37272">
        <ele>654.3</ele>
        <time>2026-02-22T08:50:58Z</time>
      </trkpt>
      <trkpt lat="43.59436" lon="6.37271">
        <ele>654.2</ele>
        <time>2026-02-22T08:50:59Z</time>
      </trkpt>
      <trkpt lat="43.59436" lon="6.37271">
        <ele>654.2</ele>
        <time>2026-02-22T08:51:00Z</time>
      </trkpt>
      <trkpt lat="43.59436" lon="6.37272">
        <ele>654.3</ele>
        <time>2026-02-22T08:51:01Z</time>
      </trkpt>
      <trkpt lat="43.59435" lon="6.37273">
        <ele>654.3</ele>
        <time>2026-02-22T08:51:02Z</time>
      </trkpt>
      <trkpt lat="43.59435" lon="6.37274">
        <ele>654.3</ele>
        <time>2026-02-22T08:51:03Z</time>
      </trkpt>
      <trkpt lat="43.59435" lon="6.37274">
        <ele>654.3</ele>
        <time>2026-02-22T08:51:04Z</time>
      </trkpt>
      <trkpt lat="43.59435" lon="6.37275">
        <ele>654.5</ele>
        <time>2026-02-22T08:51:05Z</time>
      </trkpt>
      <trkpt lat="43.59435" lon="6.37276">
        <ele>654.6</ele>
        <time>2026-02-22T08:51:06Z</time>
      </trkpt>
      <trkpt lat="43.59435" lon="6.37276">
        <ele>654.6</ele>
        <time>2026-02-22T08:51:07Z</time>
      </trkpt>
      <trkpt lat="43.59435" lon="6.37276">
        <ele>654.6</ele>
        <time>2026-02-22T08:51:08Z</time>
      </trkpt>
      <trkpt lat="43.59435" lon="6.37276">
        <ele>654.6</ele>
        <time>2026-02-22T08:51:09Z</time>
      </trkpt>
      <trkpt lat="43.59435" lon="6.37276">
        <ele>654.6</ele>
        <time>2026-02-22T08:51:10Z</time>
      </trkpt>
      <trkpt lat="43.59435" lon="6.37276">
        <ele>654.6</ele>
        <time>2026-02-22T08:51:11Z</time>
      </trkpt>
      <trkpt lat="43.59435" lon="6.37277">
        <ele>654.6</ele>
        <time>2026-02-22T08:51:12Z</time>
      </trkpt>
      <trkpt lat="43.59436" lon="6.37277">
        <ele>654.6</ele>
        <time>2026-02-22T08:51:13Z</time>
      </trkpt>
      <trkpt lat="43.59435" lon="6.37277">
        <ele>654.7</ele>
        <time>2026-02-22T08:51:14Z</time>
      </trkpt>
      <trkpt lat="43.59435" lon="6.37277">
        <ele>654.7</ele>
        <time>2026-02-22T08:51:15Z</time>
      </trkpt>
      <trkpt lat="43.59435" lon="6.37277">
        <ele>654.7</ele>
        <time>2026-02-22T08:51:16Z</time>
      </trkpt>
      <trkpt lat="43.59435" lon="6.37276">
        <ele>654.7</ele>
        <time>2026-02-22T08:51:17Z</time>
      </trkpt>
      <trkpt lat="43.59434" lon="6.37276">
        <ele>654.6</ele>
        <time>2026-02-22T08:51:18Z</time>
      </trkpt>
      <trkpt lat="43.59434" lon="6.37276">
        <ele>654.5</ele>
        <time>2026-02-22T08:51:19Z</time>
      </trkpt>
      <trkpt lat="43.59433" lon="6.37277">
        <ele>654.5</ele>
        <time>2026-02-22T08:51:20Z</time>
      </trkpt>
      <trkpt lat="43.59433" lon="6.37277">
        <ele>654.4</ele>
        <time>2026-02-22T08:51:21Z</time>
      </trkpt>
      <trkpt lat="43.59432" lon="6.37277">
        <ele>654.4</ele>
        <time>2026-02-22T08:51:22Z</time>
      </trkpt>
      <trkpt lat="43.59432" lon="6.37278">
        <ele>654.4</ele>
        <time>2026-02-22T08:51:23Z</time>
      </trkpt>
      <trkpt lat="43.59431" lon="6.37278">
        <ele>654.4</ele>
        <time>2026-02-22T08:51:24Z</time>
      </trkpt>
      <trkpt lat="43.59431" lon="6.37278">
        <ele>654.2</ele>
        <time>2026-02-22T08:51:25Z</time>
      </trkpt>
      <trkpt lat="43.5943" lon="6.37279">
        <ele>654.2</ele>
        <time>2026-02-22T08:51:26Z</time>
      </trkpt>
      <trkpt lat="43.59429" lon="6.3728">
        <ele>654.1</ele>
        <time>2026-02-22T08:51:27Z</time>
      </trkpt>
      <trkpt lat="43.59428" lon="6.37281">
        <ele>654.3</ele>
        <time>2026-02-22T08:51:28Z</time>
      </trkpt>
      <trkpt lat="43.59427" lon="6.37282">
        <ele>654.2</ele>
        <time>2026-02-22T08:51:29Z</time>
      </trkpt>
      <trkpt lat="43.59428" lon="6.37282">
        <ele>654.2</ele>
        <time>2026-02-22T08:51:30Z</time>
      </trkpt>
      <trkpt lat="43.59427" lon="6.37282">
        <ele>654.1</ele>
        <time>2026-02-22T08:51:31Z</time>
      </trkpt>
      <trkpt lat="43.59426" lon="6.37283">
        <ele>653.7</ele>
        <time>2026-02-22T08:51:32Z</time>
      </trkpt>
      <trkpt lat="43.59425" lon="6.37284">
        <ele>653.5</ele>
        <time>2026-02-22T08:51:33Z</time>
      </trkpt>
      <trkpt lat="43.59424" lon="6.37285">
        <ele>653.4</ele>
        <time>2026-02-22T08:51:34Z</time>
      </trkpt>
      <trkpt lat="43.59424" lon="6.37286">
        <ele>653.3</ele>
        <time>2026-02-22T08:51:35Z</time>
      </trkpt>
      <trkpt lat="43.59423" lon="6.37286">
        <ele>653.2</ele>
        <time>2026-02-22T08:51:36Z</time>
      </trkpt>
      <trkpt lat="43.59423" lon="6.37285">
        <ele>653.1</ele>
        <time>2026-02-22T08:51:37Z</time>
      </trkpt>
      <trkpt lat="43.59423" lon="6.37285">
        <ele>653.2</ele>
        <time>2026-02-22T08:51:38Z</time>
      </trkpt>
      <trkpt lat="43.59422" lon="6.37286">
        <ele>653.1</ele>
        <time>2026-02-22T08:51:39Z</time>
      </trkpt>
      <trkpt lat="43.59422" lon="6.37286">
        <ele>653</ele>
        <time>2026-02-22T08:51:40Z</time>
      </trkpt>
      <trkpt lat="43.59421" lon="6.37286">
        <ele>653</ele>
        <time>2026-02-22T08:51:41Z</time>
      </trkpt>
      <trkpt lat="43.5942" lon="6.37286">
        <ele>652.9</ele>
        <time>2026-02-22T08:51:42Z</time>
      </trkpt>
      <trkpt lat="43.59419" lon="6.37288">
        <ele>652.8</ele>
        <time>2026-02-22T08:51:43Z</time>
      </trkpt>
      <trkpt lat="43.59418" lon="6.37289">
        <ele>652.8</ele>
        <time>2026-02-22T08:51:44Z</time>
      </trkpt>
      <trkpt lat="43.59418" lon="6.37289">
        <ele>652.7</ele>
        <time>2026-02-22T08:51:45Z</time>
      </trkpt>
      <trkpt lat="43.59417" lon="6.3729">
        <ele>652.6</ele>
        <time>2026-02-22T08:51:46Z</time>
      </trkpt>
      <trkpt lat="43.59416" lon="6.37291">
        <ele>652.6</ele>
        <time>2026-02-22T08:51:47Z</time>
      </trkpt>
      <trkpt lat="43.59416" lon="6.37292">
        <ele>652.5</ele>
        <time>2026-02-22T08:51:48Z</time>
      </trkpt>
      <trkpt lat="43.59415" lon="6.37292">
        <ele>652.5</ele>
        <time>2026-02-22T08:51:49Z</time>
      </trkpt>
      <trkpt lat="43.59415" lon="6.37292">
        <ele>652.5</ele>
        <time>2026-02-22T08:51:50Z</time>
      </trkpt>
      <trkpt lat="43.59415" lon="6.37292">
        <ele>652.6</ele>
        <time>2026-02-22T08:51:51Z</time>
      </trkpt>
      <trkpt lat="43.59414" lon="6.37292">
        <ele>652.6</ele>
        <time>2026-02-22T08:51:52Z</time>
      </trkpt>
      <trkpt lat="43.59413" lon="6.37292">
        <ele>652.7</ele>
        <time>2026-02-22T08:51:53Z</time>
      </trkpt>
      <trkpt lat="43.59413" lon="6.37292">
        <ele>652.7</ele>
        <time>2026-02-22T08:51:54Z</time>
      </trkpt>
      <trkpt lat="43.59412" lon="6.3729">
        <ele>652.8</ele>
        <time>2026-02-22T08:51:55Z</time>
      </trkpt>
      <trkpt lat="43.59412" lon="6.3729">
        <ele>652.8</ele>
        <time>2026-02-22T08:51:56Z</time>
      </trkpt>
      <trkpt lat="43.59411" lon="6.3729">
        <ele>652.8</ele>
        <time>2026-02-22T08:51:57Z</time>
      </trkpt>
      <trkpt lat="43.59411" lon="6.3729">
        <ele>652.7</ele>
        <time>2026-02-22T08:51:58Z</time>
      </trkpt>
      <trkpt lat="43.59411" lon="6.3729">
        <ele>652.7</ele>
        <time>2026-02-22T08:51:59Z</time>
      </trkpt>
      <trkpt lat="43.59411" lon="6.3729">
        <ele>652.7</ele>
        <time>2026-02-22T08:52:00Z</time>
      </trkpt>
      <trkpt lat="43.5941" lon="6.3729">
        <ele>652.7</ele>
        <time>2026-02-22T08:52:01Z</time>
      </trkpt>
      <trkpt lat="43.5941" lon="6.37289">
        <ele>652.6</ele>
        <time>2026-02-22T08:52:02Z</time>
      </trkpt>
      <trkpt lat="43.5941" lon="6.37289">
        <ele>652.6</ele>
        <time>2026-02-22T08:52:03Z</time>
      </trkpt>
      <trkpt lat="43.59409" lon="6.37288">
        <ele>652.6</ele>
        <time>2026-02-22T08:52:04Z</time>
      </trkpt>
      <trkpt lat="43.59409" lon="6.37288">
        <ele>652.5</ele>
        <time>2026-02-22T08:52:05Z</time>
      </trkpt>
      <trkpt lat="43.59408" lon="6.37287">
        <ele>652.6</ele>
        <time>2026-02-22T08:52:06Z</time>
      </trkpt>
      <trkpt lat="43.59408" lon="6.37288">
        <ele>652.5</ele>
        <time>2026-02-22T08:52:07Z</time>
      </trkpt>
      <trkpt lat="43.59407" lon="6.37288">
        <ele>652.5</ele>
        <time>2026-02-22T08:52:08Z</time>
      </trkpt>
      <trkpt lat="43.59406" lon="6.37289">
        <ele>652.5</ele>
        <time>2026-02-22T08:52:09Z</time>
      </trkpt>
      <trkpt lat="43.59406" lon="6.37289">
        <ele>652.5</ele>
        <time>2026-02-22T08:52:10Z</time>
      </trkpt>
      <trkpt lat="43.59406" lon="6.37289">
        <ele>652.5</ele>
        <time>2026-02-22T08:52:11Z</time>
      </trkpt>
      <trkpt lat="43.59406" lon="6.37289">
        <ele>652.6</ele>
        <time>2026-02-22T08:52:12Z</time>
      </trkpt>
      <trkpt lat="43.59406" lon="6.37289">
        <ele>652.5</ele>
        <time>2026-02-22T08:52:13Z</time>
      </trkpt>
      <trkpt lat="43.59406" lon="6.37289">
        <ele>652.5</ele>
        <time>2026-02-22T08:52:14Z</time>
      </trkpt>
      <trkpt lat="43.59405" lon="6.37289">
        <ele>652.5</ele>
        <time>2026-02-22T08:52:15Z</time>
      </trkpt>
      <trkpt lat="43.59405" lon="6.37289">
        <ele>652.5</ele>
        <time>2026-02-22T08:52:16Z</time>
      </trkpt>
      <trkpt lat="43.59404" lon="6.37288">
        <ele>652.5</ele>
        <time>2026-02-22T08:52:17Z</time>
      </trkpt>
      <trkpt lat="43.59403" lon="6.37289">
        <ele>652.5</ele>
        <time>2026-02-22T08:52:18Z</time>
      </trkpt>
      <trkpt lat="43.59402" lon="6.37289">
        <ele>652.6</ele>
        <time>2026-02-22T08:52:19Z</time>
      </trkpt>
      <trkpt lat="43.59402" lon="6.37289">
        <ele>652.6</ele>
        <time>2026-02-22T08:52:20Z</time>
      </trkpt>
      <trkpt lat="43.59401" lon="6.37289">
        <ele>652.6</ele>
        <time>2026-02-22T08:52:21Z</time>
      </trkpt>
      <trkpt lat="43.594" lon="6.37288">
        <ele>652.5</ele>
        <time>2026-02-22T08:52:22Z</time>
      </trkpt>
      <trkpt lat="43.594" lon="6.37288">
        <ele>652.5</ele>
        <time>2026-02-22T08:52:23Z</time>
      </trkpt>
      <trkpt lat="43.594" lon="6.3729">
        <ele>652.5</ele>
        <time>2026-02-22T08:52:24Z</time>
      </trkpt>
      <trkpt lat="43.594" lon="6.37291">
        <ele>652.5</ele>
        <time>2026-02-22T08:52:25Z</time>
      </trkpt>
      <trkpt lat="43.59398" lon="6.37292">
        <ele>652.5</ele>
        <time>2026-02-22T08:52:26Z</time>
      </trkpt>
      <trkpt lat="43.59399" lon="6.37293">
        <ele>652.5</ele>
        <time>2026-02-22T08:52:27Z</time>
      </trkpt>
      <trkpt lat="43.59399" lon="6.37294">
        <ele>652.5</ele>
        <time>2026-02-22T08:52:28Z</time>
      </trkpt>
      <trkpt lat="43.59399" lon="6.37294">
        <ele>652.4</ele>
        <time>2026-02-22T08:52:29Z</time>
      </trkpt>
      <trkpt lat="43.59399" lon="6.37294">
        <ele>652.4</ele>
        <time>2026-02-22T08:52:30Z</time>
      </trkpt>
      <trkpt lat="43.59399" lon="6.37295">
        <ele>652.3</ele>
        <time>2026-02-22T08:52:31Z</time>
      </trkpt>
      <trkpt lat="43.59399" lon="6.37296">
        <ele>652.3</ele>
        <time>2026-02-22T08:52:32Z</time>
      </trkpt>
      <trkpt lat="43.59399" lon="6.37296">
        <ele>652.3</ele>
        <time>2026-02-22T08:52:33Z</time>
      </trkpt>
      <trkpt lat="43.59399" lon="6.37296">
        <ele>652.3</ele>
        <time>2026-02-22T08:52:34Z</time>
      </trkpt>
      <trkpt lat="43.59398" lon="6.37295">
        <ele>652.2</ele>
        <time>2026-02-22T08:52:35Z</time>
      </trkpt>
      <trkpt lat="43.59398" lon="6.37295">
        <ele>652.3</ele>
        <time>2026-02-22T08:52:36Z</time>
      </trkpt>
      <trkpt lat="43.59398" lon="6.37296">
        <ele>652.3</ele>
        <time>2026-02-22T08:52:37Z</time>
      </trkpt>
      <trkpt lat="43.59398" lon="6.37296">
        <ele>652.3</ele>
        <time>2026-02-22T08:52:38Z</time>
      </trkpt>
      <trkpt lat="43.59398" lon="6.37296">
        <ele>652.4</ele>
        <time>2026-02-22T08:52:39Z</time>
      </trkpt>
      <trkpt lat="43.59398" lon="6.37297">
        <ele>652.3</ele>
        <time>2026-02-22T08:52:40Z</time>
      </trkpt>
      <trkpt lat="43.59398" lon="6.37297">
        <ele>652.3</ele>
        <time>2026-02-22T08:52:41Z</time>
      </trkpt>
      <trkpt lat="43.59398" lon="6.37298">
        <ele>652.3</ele>
        <time>2026-02-22T08:52:42Z</time>
      </trkpt>
      <trkpt lat="43.59398" lon="6.37298">
        <ele>652.2</ele>
        <time>2026-02-22T08:52:43Z</time>
      </trkpt>
      <trkpt lat="43.59398" lon="6.37299">
        <ele>652.2</ele>
        <time>2026-02-22T08:52:44Z</time>
      </trkpt>
      <trkpt lat="43.59398" lon="6.37299">
        <ele>652.2</ele>
        <time>2026-02-22T08:52:45Z</time>
      </trkpt>
      <trkpt lat="43.59398" lon="6.373">
        <ele>652.1</ele>
        <time>2026-02-22T08:52:46Z</time>
      </trkpt>
      <trkpt lat="43.59398" lon="6.373">
        <ele>652.1</ele>
        <time>2026-02-22T08:52:47Z</time>
      </trkpt>
      <trkpt lat="43.59398" lon="6.37301">
        <ele>652.1</ele>
        <time>2026-02-22T08:52:48Z</time>
      </trkpt>
      <trkpt lat="43.59398" lon="6.37301">
        <ele>652.2</ele>
        <time>2026-02-22T08:52:49Z</time>
      </trkpt>
      <trkpt lat="43.59399" lon="6.37301">
        <ele>652.1</ele>
        <time>2026-02-22T08:52:50Z</time>
      </trkpt>
      <trkpt lat="43.59399" lon="6.37302">
        <ele>652</ele>
        <time>2026-02-22T08:52:51Z</time>
      </trkpt>
      <trkpt lat="43.59399" lon="6.37302">
        <ele>652.1</ele>
        <time>2026-02-22T08:52:52Z</time>
      </trkpt>
      <trkpt lat="43.59399" lon="6.37303">
        <ele>652.1</ele>
        <time>2026-02-22T08:52:53Z</time>
      </trkpt>
      <trkpt lat="43.59399" lon="6.37303">
        <ele>652.1</ele>
        <time>2026-02-22T08:52:54Z</time>
      </trkpt>
      <trkpt lat="43.59399" lon="6.37303">
        <ele>652.2</ele>
        <time>2026-02-22T08:52:55Z</time>
      </trkpt>
      <trkpt lat="43.59399" lon="6.37304">
        <ele>652.2</ele>
        <time>2026-02-22T08:52:56Z</time>
      </trkpt>
      <trkpt lat="43.59399" lon="6.37304">
        <ele>652.2</ele>
        <time>2026-02-22T08:52:57Z</time>
      </trkpt>
      <trkpt lat="43.59399" lon="6.37304">
        <ele>652.2</ele>
        <time>2026-02-22T08:52:58Z</time>
      </trkpt>
      <trkpt lat="43.59399" lon="6.37305">
        <ele>652.3</ele>
        <time>2026-02-22T08:52:59Z</time>
      </trkpt>
      <trkpt lat="43.59399" lon="6.37304">
        <ele>652.3</ele>
        <time>2026-02-22T08:53:00Z</time>
      </trkpt>
      <trkpt lat="43.59399" lon="6.37304">
        <ele>652.3</ele>
        <time>2026-02-22T08:53:01Z</time>
      </trkpt>
      <trkpt lat="43.59399" lon="6.37305">
        <ele>652.4</ele>
        <time>2026-02-22T08:53:02Z</time>
      </trkpt>
      <trkpt lat="43.59399" lon="6.37305">
        <ele>652.4</ele>
        <time>2026-02-22T08:53:03Z</time>
      </trkpt>
      <trkpt lat="43.59399" lon="6.37305">
        <ele>652.4</ele>
        <time>2026-02-22T08:53:04Z</time>
      </trkpt>
      <trkpt lat="43.59399" lon="6.37305">
        <ele>652.4</ele>
        <time>2026-02-22T08:53:05Z</time>
      </trkpt>
      <trkpt lat="43.59399" lon="6.37305">
        <ele>652.4</ele>
        <time>2026-02-22T08:53:06Z</time>
      </trkpt>
      <trkpt lat="43.59399" lon="6.37305">
        <ele>652.4</ele>
        <time>2026-02-22T08:53:07Z</time>
      </trkpt>
      <trkpt lat="43.59399" lon="6.37305">
        <ele>652.4</ele>
        <time>2026-02-22T08:53:08Z</time>
      </trkpt>
      <trkpt lat="43.59399" lon="6.37306">
        <ele>652.4</ele>
        <time>2026-02-22T08:53:09Z</time>
      </trkpt>
      <trkpt lat="43.59399" lon="6.37306">
        <ele>652.4</ele>
        <time>2026-02-22T08:53:10Z</time>
      </trkpt>
      <trkpt lat="43.59399" lon="6.37306">
        <ele>652.4</ele>
        <time>2026-02-22T08:53:11Z</time>
      </trkpt>
      <trkpt lat="43.59399" lon="6.37306">
        <ele>652.4</ele>
        <time>2026-02-22T08:53:12Z</time>
      </trkpt>
      <trkpt lat="43.59399" lon="6.37306">
        <ele>652.4</ele>
        <time>2026-02-22T08:53:13Z</time>
      </trkpt>
      <trkpt lat="43.59399" lon="6.37307">
        <ele>652.4</ele>
        <time>2026-02-22T08:53:14Z</time>
      </trkpt>
      <trkpt lat="43.59399" lon="6.37307">
        <ele>652.4</ele>
        <time>2026-02-22T08:53:15Z</time>
      </trkpt>
      <trkpt lat="43.59399" lon="6.37307">
        <ele>652.4</ele>
        <time>2026-02-22T08:53:16Z</time>
      </trkpt>
      <trkpt lat="43.59399" lon="6.37307">
        <ele>652.4</ele>
        <time>2026-02-22T08:53:17Z</time>
      </trkpt>
      <trkpt lat="43.59399" lon="6.37307">
        <ele>652.5</ele>
        <time>2026-02-22T08:53:18Z</time>
      </trkpt>
      <trkpt lat="43.59399" lon="6.37307">
        <ele>652.4</ele>
        <time>2026-02-22T08:53:19Z</time>
      </trkpt>
      <trkpt lat="43.59399" lon="6.37307">
        <ele>652.4</ele>
        <time>2026-02-22T08:53:20Z</time>
      </trkpt>
      <trkpt lat="43.59398" lon="6.37306">
        <ele>652.4</ele>
        <time>2026-02-22T08:53:21Z</time>
      </trkpt>
      <trkpt lat="43.59398" lon="6.37306">
        <ele>652.4</ele>
        <time>2026-02-22T08:53:22Z</time>
      </trkpt>
      <trkpt lat="43.59398" lon="6.37306">
        <ele>652.4</ele>
        <time>2026-02-22T08:53:23Z</time>
      </trkpt>
      <trkpt lat="43.59398" lon="6.37306">
        <ele>652.4</ele>
        <time>2026-02-22T08:53:24Z</time>
      </trkpt>
      <trkpt lat="43.59398" lon="6.37306">
        <ele>652.3</ele>
        <time>2026-02-22T08:53:25Z</time>
      </trkpt>
      <trkpt lat="43.59398" lon="6.37306">
        <ele>652.3</ele>
        <time>2026-02-22T08:53:26Z</time>
      </trkpt>
      <trkpt lat="43.59398" lon="6.37306">
        <ele>652.3</ele>
        <time>2026-02-22T08:53:27Z</time>
      </trkpt>
      <trkpt lat="43.59398" lon="6.37305">
        <ele>652.2</ele>
        <time>2026-02-22T08:53:28Z</time>
      </trkpt>
      <trkpt lat="43.59398" lon="6.37305">
        <ele>652.2</ele>
        <time>2026-02-22T08:53:29Z</time>
      </trkpt>
      <trkpt lat="43.59398" lon="6.37305">
        <ele>652.1</ele>
        <time>2026-02-22T08:53:30Z</time>
      </trkpt>
      <trkpt lat="43.59398" lon="6.37305">
        <ele>652.1</ele>
        <time>2026-02-22T08:53:31Z</time>
      </trkpt>
      <trkpt lat="43.59398" lon="6.37304">
        <ele>652.2</ele>
        <time>2026-02-22T08:53:32Z</time>
      </trkpt>
      <trkpt lat="43.59399" lon="6.37303">
        <ele>652.2</ele>
        <time>2026-02-22T08:53:33Z</time>
      </trkpt>
      <trkpt lat="43.59399" lon="6.37304">
        <ele>652.2</ele>
        <time>2026-02-22T08:53:34Z</time>
      </trkpt>
      <trkpt lat="43.59399" lon="6.37305">
        <ele>652.2</ele>
        <time>2026-02-22T08:53:35Z</time>
      </trkpt>
      <trkpt lat="43.59399" lon="6.37305">
        <ele>652.2</ele>
        <time>2026-02-22T08:53:36Z</time>
      </trkpt>
      <trkpt lat="43.594" lon="6.37305">
        <ele>652.2</ele>
        <time>2026-02-22T08:53:37Z</time>
      </trkpt>
      <trkpt lat="43.594" lon="6.37306">
        <ele>652.1</ele>
        <time>2026-02-22T08:53:38Z</time>
      </trkpt>
      <trkpt lat="43.594" lon="6.37306">
        <ele>652.1</ele>
        <time>2026-02-22T08:53:39Z</time>
      </trkpt>
      <trkpt lat="43.594" lon="6.37306">
        <ele>652.1</ele>
        <time>2026-02-22T08:53:40Z</time>
      </trkpt>
      <trkpt lat="43.594" lon="6.37306">
        <ele>652.1</ele>
        <time>2026-02-22T08:53:41Z</time>
      </trkpt>
      <trkpt lat="43.59401" lon="6.37306">
        <ele>652.2</ele>
        <time>2026-02-22T08:53:42Z</time>
      </trkpt>
      <trkpt lat="43.59401" lon="6.37307">
        <ele>652.3</ele>
        <time>2026-02-22T08:53:43Z</time>
      </trkpt>
      <trkpt lat="43.59401" lon="6.37308">
        <ele>652.3</ele>
        <time>2026-02-22T08:53:44Z</time>
      </trkpt>
      <trkpt lat="43.59402" lon="6.37308">
        <ele>652.3</ele>
        <time>2026-02-22T08:53:45Z</time>
      </trkpt>
      <trkpt lat="43.59402" lon="6.37308">
        <ele>652.2</ele>
        <time>2026-02-22T08:53:46Z</time>
      </trkpt>
      <trkpt lat="43.59402" lon="6.37308">
        <ele>652.2</ele>
        <time>2026-02-22T08:53:47Z</time>
      </trkpt>
      <trkpt lat="43.59402" lon="6.37308">
        <ele>652.2</ele>
        <time>2026-02-22T08:53:48Z</time>
      </trkpt>
      <trkpt lat="43.59402" lon="6.37308">
        <ele>652.2</ele>
        <time>2026-02-22T08:53:49Z</time>
      </trkpt>
      <trkpt lat="43.59401" lon="6.37308">
        <ele>652.2</ele>
        <time>2026-02-22T08:53:50Z</time>
      </trkpt>
      <trkpt lat="43.59401" lon="6.37307">
        <ele>652.2</ele>
        <time>2026-02-22T08:53:51Z</time>
      </trkpt>
      <trkpt lat="43.59401" lon="6.37306">
        <ele>652.3</ele>
        <time>2026-02-22T08:53:52Z</time>
      </trkpt>
      <trkpt lat="43.594" lon="6.37306">
        <ele>652.3</ele>
        <time>2026-02-22T08:53:53Z</time>
      </trkpt>
      <trkpt lat="43.594" lon="6.37307">
        <ele>652.3</ele>
        <time>2026-02-22T08:53:54Z</time>
      </trkpt>
      <trkpt lat="43.594" lon="6.37307">
        <ele>652.3</ele>
        <time>2026-02-22T08:53:55Z</time>
      </trkpt>
      <trkpt lat="43.594" lon="6.37308">
        <ele>652.3</ele>
        <time>2026-02-22T08:53:56Z</time>
      </trkpt>
      <trkpt lat="43.594" lon="6.37307">
        <ele>652.3</ele>
        <time>2026-02-22T08:53:57Z</time>
      </trkpt>
      <trkpt lat="43.594" lon="6.37308">
        <ele>652.2</ele>
        <time>2026-02-22T08:53:58Z</time>
      </trkpt>
      <trkpt lat="43.59401" lon="6.37307">
        <ele>652.2</ele>
        <time>2026-02-22T08:53:59Z</time>
      </trkpt>
      <trkpt lat="43.59401" lon="6.37308">
        <ele>652.1</ele>
        <time>2026-02-22T08:54:00Z</time>
      </trkpt>
      <trkpt lat="43.59401" lon="6.37308">
        <ele>652.1</ele>
        <time>2026-02-22T08:54:01Z</time>
      </trkpt>
      <trkpt lat="43.59402" lon="6.37307">
        <ele>652.1</ele>
        <time>2026-02-22T08:54:02Z</time>
      </trkpt>
      <trkpt lat="43.59402" lon="6.37308">
        <ele>652.1</ele>
        <time>2026-02-22T08:54:03Z</time>
      </trkpt>
      <trkpt lat="43.59403" lon="6.37308">
        <ele>652.2</ele>
        <time>2026-02-22T08:54:04Z</time>
      </trkpt>
      <trkpt lat="43.59403" lon="6.37308">
        <ele>652.2</ele>
        <time>2026-02-22T08:54:05Z</time>
      </trkpt>
      <trkpt lat="43.59403" lon="6.37308">
        <ele>652.2</ele>
        <time>2026-02-22T08:54:06Z</time>
      </trkpt>
      <trkpt lat="43.59403" lon="6.37308">
        <ele>652.3</ele>
        <time>2026-02-22T08:54:07Z</time>
      </trkpt>
      <trkpt lat="43.59404" lon="6.37308">
        <ele>652.1</ele>
        <time>2026-02-22T08:54:08Z</time>
      </trkpt>
      <trkpt lat="43.59404" lon="6.37308">
        <ele>652.1</ele>
        <time>2026-02-22T08:54:09Z</time>
      </trkpt>
      <trkpt lat="43.59404" lon="6.37308">
        <ele>652.1</ele>
        <time>2026-02-22T08:54:10Z</time>
      </trkpt>
      <trkpt lat="43.59404" lon="6.37308">
        <ele>652</ele>
        <time>2026-02-22T08:54:11Z</time>
      </trkpt>
      <trkpt lat="43.59404" lon="6.37308">
        <ele>651.9</ele>
        <time>2026-02-22T08:54:12Z</time>
      </trkpt>
      <trkpt lat="43.59404" lon="6.37308">
        <ele>651.8</ele>
        <time>2026-02-22T08:54:13Z</time>
      </trkpt>
      <trkpt lat="43.59404" lon="6.37308">
        <ele>651.9</ele>
        <time>2026-02-22T08:54:14Z</time>
      </trkpt>
      <trkpt lat="43.59405" lon="6.37308">
        <ele>651.9</ele>
        <time>2026-02-22T08:54:15Z</time>
      </trkpt>
      <trkpt lat="43.59405" lon="6.37308">
        <ele>651.9</ele>
        <time>2026-02-22T08:54:16Z</time>
      </trkpt>
      <trkpt lat="43.59405" lon="6.37307">
        <ele>651.9</ele>
        <time>2026-02-22T08:54:17Z</time>
      </trkpt>
      <trkpt lat="43.59405" lon="6.37307">
        <ele>651.9</ele>
        <time>2026-02-22T08:54:18Z</time>
      </trkpt>
      <trkpt lat="43.59404" lon="6.37307">
        <ele>651.9</ele>
        <time>2026-02-22T08:54:19Z</time>
      </trkpt>
      <trkpt lat="43.59404" lon="6.37307">
        <ele>651.9</ele>
        <time>2026-02-22T08:54:20Z</time>
      </trkpt>
      <trkpt lat="43.59404" lon="6.37307">
        <ele>651.9</ele>
        <time>2026-02-22T08:54:21Z</time>
      </trkpt>
      <trkpt lat="43.59405" lon="6.37307">
        <ele>652</ele>
        <time>2026-02-22T08:54:22Z</time>
      </trkpt>
      <trkpt lat="43.59404" lon="6.37308">
        <ele>651.9</ele>
        <time>2026-02-22T08:54:23Z</time>
      </trkpt>
      <trkpt lat="43.59404" lon="6.37308">
        <ele>652</ele>
        <time>2026-02-22T08:54:24Z</time>
      </trkpt>
      <trkpt lat="43.59404" lon="6.37308">
        <ele>652.1</ele>
        <time>2026-02-22T08:54:25Z</time>
      </trkpt>
      <trkpt lat="43.59404" lon="6.37308">
        <ele>652.1</ele>
        <time>2026-02-22T08:54:26Z</time>
      </trkpt>
      <trkpt lat="43.59404" lon="6.37308">
        <ele>652.1</ele>
        <time>2026-02-22T08:54:27Z</time>
      </trkpt>
      <trkpt lat="43.59404" lon="6.37308">
        <ele>652.1</ele>
        <time>2026-02-22T08:54:28Z</time>
      </trkpt>
      <trkpt lat="43.59404" lon="6.37308">
        <ele>652.1</ele>
        <time>2026-02-22T08:54:29Z</time>
      </trkpt>
      <trkpt lat="43.59404" lon="6.37308">
        <ele>652</ele>
        <time>2026-02-22T08:54:30Z</time>
      </trkpt>
      <trkpt lat="43.59404" lon="6.37308">
        <ele>652.1</ele>
        <time>2026-02-22T08:54:31Z</time>
      </trkpt>
      <trkpt lat="43.59404" lon="6.37308">
        <ele>652.1</ele>
        <time>2026-02-22T08:54:32Z</time>
      </trkpt>
      <trkpt lat="43.59404" lon="6.37308">
        <ele>652.1</ele>
        <time>2026-02-22T08:54:33Z</time>
      </trkpt>
      <trkpt lat="43.59404" lon="6.37308">
        <ele>652.1</ele>
        <time>2026-02-22T08:54:34Z</time>
      </trkpt>
      <trkpt lat="43.59404" lon="6.37309">
        <ele>652.1</ele>
        <time>2026-02-22T08:54:35Z</time>
      </trkpt>
      <trkpt lat="43.59404" lon="6.37309">
        <ele>652</ele>
        <time>2026-02-22T08:54:36Z</time>
      </trkpt>
      <trkpt lat="43.59404" lon="6.37309">
        <ele>651.9</ele>
        <time>2026-02-22T08:54:37Z</time>
      </trkpt>
      <trkpt lat="43.59405" lon="6.3731">
        <ele>651.9</ele>
        <time>2026-02-22T08:54:38Z</time>
      </trkpt>
      <trkpt lat="43.59405" lon="6.3731">
        <ele>651.9</ele>
        <time>2026-02-22T08:54:39Z</time>
      </trkpt>
      <trkpt lat="43.59405" lon="6.3731">
        <ele>651.9</ele>
        <time>2026-02-22T08:54:40Z</time>
      </trkpt>
      <trkpt lat="43.59405" lon="6.3731">
        <ele>651.9</ele>
        <time>2026-02-22T08:54:41Z</time>
      </trkpt>
      <trkpt lat="43.59405" lon="6.37309">
        <ele>651.9</ele>
        <time>2026-02-22T08:54:42Z</time>
      </trkpt>
      <trkpt lat="43.59405" lon="6.37309">
        <ele>651.8</ele>
        <time>2026-02-22T08:54:43Z</time>
      </trkpt>
      <trkpt lat="43.59405" lon="6.3731">
        <ele>651.8</ele>
        <time>2026-02-22T08:54:44Z</time>
      </trkpt>
      <trkpt lat="43.59405" lon="6.3731">
        <ele>651.8</ele>
        <time>2026-02-22T08:54:45Z</time>
      </trkpt>
      <trkpt lat="43.59405" lon="6.3731">
        <ele>651.7</ele>
        <time>2026-02-22T08:54:46Z</time>
      </trkpt>
      <trkpt lat="43.59404" lon="6.3731">
        <ele>651.7</ele>
        <time>2026-02-22T08:54:47Z</time>
      </trkpt>
      <trkpt lat="43.59404" lon="6.37311">
        <ele>651.7</ele>
        <time>2026-02-22T08:54:48Z</time>
      </trkpt>
      <trkpt lat="43.59404" lon="6.37312">
        <ele>651.6</ele>
        <time>2026-02-22T08:54:49Z</time>
      </trkpt>
      <trkpt lat="43.59405" lon="6.37312">
        <ele>651.5</ele>
        <time>2026-02-22T08:54:50Z</time>
      </trkpt>
      <trkpt lat="43.59405" lon="6.37312">
        <ele>651.5</ele>
        <time>2026-02-22T08:54:51Z</time>
      </trkpt>
      <trkpt lat="43.59404" lon="6.37313">
        <ele>651.5</ele>
        <time>2026-02-22T08:54:52Z</time>
      </trkpt>
      <trkpt lat="43.59404" lon="6.37313">
        <ele>651.5</ele>
        <time>2026-02-22T08:54:53Z</time>
      </trkpt>
      <trkpt lat="43.59403" lon="6.37314">
        <ele>651.4</ele>
        <time>2026-02-22T08:54:54Z</time>
      </trkpt>
      <trkpt lat="43.59403" lon="6.37315">
        <ele>651.4</ele>
        <time>2026-02-22T08:54:55Z</time>
      </trkpt>
      <trkpt lat="43.59403" lon="6.37316">
        <ele>651.5</ele>
        <time>2026-02-22T08:54:56Z</time>
      </trkpt>
      <trkpt lat="43.59403" lon="6.37317">
        <ele>651.5</ele>
        <time>2026-02-22T08:54:57Z</time>
      </trkpt>
      <trkpt lat="43.59403" lon="6.37318">
        <ele>651.5</ele>
        <time>2026-02-22T08:54:58Z</time>
      </trkpt>
      <trkpt lat="43.59403" lon="6.37319">
        <ele>651.5</ele>
        <time>2026-02-22T08:54:59Z</time>
      </trkpt>
      <trkpt lat="43.59404" lon="6.37321">
        <ele>651.4</ele>
        <time>2026-02-22T08:55:00Z</time>
      </trkpt>
      <trkpt lat="43.59404" lon="6.37322">
        <ele>651.4</ele>
        <time>2026-02-22T08:55:01Z</time>
      </trkpt>
      <trkpt lat="43.59404" lon="6.37323">
        <ele>651.4</ele>
        <time>2026-02-22T08:55:02Z</time>
      </trkpt>
      <trkpt lat="43.59404" lon="6.37324">
        <ele>651.3</ele>
        <time>2026-02-22T08:55:03Z</time>
      </trkpt>
      <trkpt lat="43.59404" lon="6.37325">
        <ele>651.4</ele>
        <time>2026-02-22T08:55:04Z</time>
      </trkpt>
      <trkpt lat="43.59404" lon="6.37327">
        <ele>651.4</ele>
        <time>2026-02-22T08:55:05Z</time>
      </trkpt>
      <trkpt lat="43.59404" lon="6.37329">
        <ele>651.4</ele>
        <time>2026-02-22T08:55:06Z</time>
      </trkpt>
      <trkpt lat="43.59404" lon="6.3733">
        <ele>651.3</ele>
        <time>2026-02-22T08:55:07Z</time>
      </trkpt>
      <trkpt lat="43.59404" lon="6.37332">
        <ele>651.3</ele>
        <time>2026-02-22T08:55:08Z</time>
      </trkpt>
      <trkpt lat="43.59404" lon="6.37333">
        <ele>651.3</ele>
        <time>2026-02-22T08:55:09Z</time>
      </trkpt>
      <trkpt lat="43.59404" lon="6.37334">
        <ele>651.4</ele>
        <time>2026-02-22T08:55:10Z</time>
      </trkpt>
      <trkpt lat="43.59404" lon="6.37335">
        <ele>651.3</ele>
        <time>2026-02-22T08:55:11Z</time>
      </trkpt>
      <trkpt lat="43.59405" lon="6.37337">
        <ele>651.3</ele>
        <time>2026-02-22T08:55:12Z</time>
      </trkpt>
      <trkpt lat="43.59405" lon="6.37338">
        <ele>651.3</ele>
        <time>2026-02-22T08:55:13Z</time>
      </trkpt>
      <trkpt lat="43.59406" lon="6.37339">
        <ele>651.3</ele>
        <time>2026-02-22T08:55:14Z</time>
      </trkpt>
      <trkpt lat="43.59406" lon="6.3734">
        <ele>651.3</ele>
        <time>2026-02-22T08:55:15Z</time>
      </trkpt>
      <trkpt lat="43.59407" lon="6.37341">
        <ele>651.3</ele>
        <time>2026-02-22T08:55:16Z</time>
      </trkpt>
      <trkpt lat="43.59408" lon="6.37342">
        <ele>651.4</ele>
        <time>2026-02-22T08:55:17Z</time>
      </trkpt>
      <trkpt lat="43.59409" lon="6.37343">
        <ele>651.5</ele>
        <time>2026-02-22T08:55:18Z</time>
      </trkpt>
      <trkpt lat="43.5941" lon="6.37343">
        <ele>651.5</ele>
        <time>2026-02-22T08:55:19Z</time>
      </trkpt>
      <trkpt lat="43.59411" lon="6.37344">
        <ele>651.5</ele>
        <time>2026-02-22T08:55:20Z</time>
      </trkpt>
      <trkpt lat="43.59412" lon="6.37345">
        <ele>651.5</ele>
        <time>2026-02-22T08:55:21Z</time>
      </trkpt>
      <trkpt lat="43.59412" lon="6.37344">
        <ele>651.5</ele>
        <time>2026-02-22T08:55:22Z</time>
      </trkpt>
      <trkpt lat="43.59413" lon="6.37344">
        <ele>651.4</ele>
        <time>2026-02-22T08:55:23Z</time>
      </trkpt>
      <trkpt lat="43.59414" lon="6.37343">
        <ele>651.5</ele>
        <time>2026-02-22T08:55:24Z</time>
      </trkpt>
      <trkpt lat="43.59415" lon="6.37343">
        <ele>651.5</ele>
        <time>2026-02-22T08:55:25Z</time>
      </trkpt>
      <trkpt lat="43.59416" lon="6.37343">
        <ele>651.6</ele>
        <time>2026-02-22T08:55:26Z</time>
      </trkpt>
      <trkpt lat="43.59417" lon="6.37343">
        <ele>651.7</ele>
        <time>2026-02-22T08:55:27Z</time>
      </trkpt>
      <trkpt lat="43.59418" lon="6.37343">
        <ele>651.7</ele>
        <time>2026-02-22T08:55:28Z</time>
      </trkpt>
      <trkpt lat="43.59419" lon="6.37343">
        <ele>651.7</ele>
        <time>2026-02-22T08:55:29Z</time>
      </trkpt>
      <trkpt lat="43.5942" lon="6.37343">
        <ele>651.7</ele>
        <time>2026-02-22T08:55:30Z</time>
      </trkpt>
      <trkpt lat="43.59421" lon="6.37345">
        <ele>651.8</ele>
        <time>2026-02-22T08:55:31Z</time>
      </trkpt>
      <trkpt lat="43.59422" lon="6.37345">
        <ele>651.8</ele>
        <time>2026-02-22T08:55:32Z</time>
      </trkpt>
      <trkpt lat="43.59423" lon="6.37346">
        <ele>651.9</ele>
        <time>2026-02-22T08:55:33Z</time>
      </trkpt>
      <trkpt lat="43.59424" lon="6.37346">
        <ele>651.9</ele>
        <time>2026-02-22T08:55:34Z</time>
      </trkpt>
      <trkpt lat="43.59425" lon="6.37347">
        <ele>651.9</ele>
        <time>2026-02-22T08:55:35Z</time>
      </trkpt>
      <trkpt lat="43.59426" lon="6.37347">
        <ele>652</ele>
        <time>2026-02-22T08:55:36Z</time>
      </trkpt>
      <trkpt lat="43.59427" lon="6.37348">
        <ele>652</ele>
        <time>2026-02-22T08:55:37Z</time>
      </trkpt>
      <trkpt lat="43.59428" lon="6.37348">
        <ele>651.9</ele>
        <time>2026-02-22T08:55:38Z</time>
      </trkpt>
      <trkpt lat="43.59429" lon="6.37349">
        <ele>652.1</ele>
        <time>2026-02-22T08:55:39Z</time>
      </trkpt>
      <trkpt lat="43.5943" lon="6.3735">
        <ele>652.3</ele>
        <time>2026-02-22T08:55:40Z</time>
      </trkpt>
      <trkpt lat="43.59431" lon="6.37351">
        <ele>652.4</ele>
        <time>2026-02-22T08:55:41Z</time>
      </trkpt>
      <trkpt lat="43.59432" lon="6.37351">
        <ele>652.6</ele>
        <time>2026-02-22T08:55:42Z</time>
      </trkpt>
      <trkpt lat="43.59432" lon="6.37353">
        <ele>652.7</ele>
        <time>2026-02-22T08:55:43Z</time>
      </trkpt>
      <trkpt lat="43.59433" lon="6.37353">
        <ele>652.8</ele>
        <time>2026-02-22T08:55:44Z</time>
      </trkpt>
      <trkpt lat="43.59434" lon="6.37353">
        <ele>652.9</ele>
        <time>2026-02-22T08:55:45Z</time>
      </trkpt>
      <trkpt lat="43.59435" lon="6.37354">
        <ele>652.9</ele>
        <time>2026-02-22T08:55:46Z</time>
      </trkpt>
      <trkpt lat="43.59436" lon="6.37355">
        <ele>653</ele>
        <time>2026-02-22T08:55:47Z</time>
      </trkpt>
      <trkpt lat="43.59437" lon="6.37356">
        <ele>652.9</ele>
        <time>2026-02-22T08:55:48Z</time>
      </trkpt>
      <trkpt lat="43.59438" lon="6.37357">
        <ele>653</ele>
        <time>2026-02-22T08:55:49Z</time>
      </trkpt>
      <trkpt lat="43.59439" lon="6.37357">
        <ele>653</ele>
        <time>2026-02-22T08:55:50Z</time>
      </trkpt>
      <trkpt lat="43.5944" lon="6.37357">
        <ele>653.1</ele>
        <time>2026-02-22T08:55:51Z</time>
      </trkpt>
      <trkpt lat="43.59441" lon="6.37357">
        <ele>653.2</ele>
        <time>2026-02-22T08:55:52Z</time>
      </trkpt>
      <trkpt lat="43.59442" lon="6.37358">
        <ele>653.3</ele>
        <time>2026-02-22T08:55:53Z</time>
      </trkpt>
      <trkpt lat="43.59443" lon="6.37357">
        <ele>653.3</ele>
        <time>2026-02-22T08:55:54Z</time>
      </trkpt>
      <trkpt lat="43.59444" lon="6.37357">
        <ele>653.3</ele>
        <time>2026-02-22T08:55:55Z</time>
      </trkpt>
      <trkpt lat="43.59445" lon="6.37355">
        <ele>653.3</ele>
        <time>2026-02-22T08:55:56Z</time>
      </trkpt>
      <trkpt lat="43.59445" lon="6.37355">
        <ele>653.2</ele>
        <time>2026-02-22T08:55:57Z</time>
      </trkpt>
      <trkpt lat="43.59446" lon="6.37355">
        <ele>653.2</ele>
        <time>2026-02-22T08:55:58Z</time>
      </trkpt>
      <trkpt lat="43.59446" lon="6.37355">
        <ele>653.2</ele>
        <time>2026-02-22T08:55:59Z</time>
      </trkpt>
      <trkpt lat="43.59447" lon="6.37355">
        <ele>653.3</ele>
        <time>2026-02-22T08:56:00Z</time>
      </trkpt>
      <trkpt lat="43.59448" lon="6.37355">
        <ele>653.3</ele>
        <time>2026-02-22T08:56:01Z</time>
      </trkpt>
      <trkpt lat="43.59449" lon="6.37356">
        <ele>653.4</ele>
        <time>2026-02-22T08:56:02Z</time>
      </trkpt>
      <trkpt lat="43.59449" lon="6.37356">
        <ele>653.4</ele>
        <time>2026-02-22T08:56:03Z</time>
      </trkpt>
      <trkpt lat="43.5945" lon="6.37357">
        <ele>653.6</ele>
        <time>2026-02-22T08:56:04Z</time>
      </trkpt>
      <trkpt lat="43.59451" lon="6.37357">
        <ele>653.6</ele>
        <time>2026-02-22T08:56:05Z</time>
      </trkpt>
      <trkpt lat="43.59451" lon="6.37358">
        <ele>653.7</ele>
        <time>2026-02-22T08:56:06Z</time>
      </trkpt>
      <trkpt lat="43.59452" lon="6.37358">
        <ele>653.7</ele>
        <time>2026-02-22T08:56:07Z</time>
      </trkpt>
      <trkpt lat="43.59453" lon="6.37359">
        <ele>653.7</ele>
        <time>2026-02-22T08:56:08Z</time>
      </trkpt>
      <trkpt lat="43.59454" lon="6.37359">
        <ele>653.8</ele>
        <time>2026-02-22T08:56:09Z</time>
      </trkpt>
      <trkpt lat="43.59455" lon="6.37359">
        <ele>653.7</ele>
        <time>2026-02-22T08:56:10Z</time>
      </trkpt>
      <trkpt lat="43.59456" lon="6.37359">
        <ele>653.7</ele>
        <time>2026-02-22T08:56:11Z</time>
      </trkpt>
      <trkpt lat="43.59456" lon="6.3736">
        <ele>653.8</ele>
        <time>2026-02-22T08:56:12Z</time>
      </trkpt>
      <trkpt lat="43.59457" lon="6.3736">
        <ele>653.9</ele>
        <time>2026-02-22T08:56:13Z</time>
      </trkpt>
      <trkpt lat="43.59458" lon="6.3736">
        <ele>654</ele>
        <time>2026-02-22T08:56:14Z</time>
      </trkpt>
      <trkpt lat="43.59459" lon="6.37361">
        <ele>654</ele>
        <time>2026-02-22T08:56:15Z</time>
      </trkpt>
      <trkpt lat="43.5946" lon="6.37361">
        <ele>654.1</ele>
        <time>2026-02-22T08:56:16Z</time>
      </trkpt>
      <trkpt lat="43.59461" lon="6.37361">
        <ele>654.1</ele>
        <time>2026-02-22T08:56:17Z</time>
      </trkpt>
      <trkpt lat="43.59461" lon="6.37361">
        <ele>654.2</ele>
        <time>2026-02-22T08:56:18Z</time>
      </trkpt>
      <trkpt lat="43.59463" lon="6.37361">
        <ele>654.3</ele>
        <time>2026-02-22T08:56:19Z</time>
      </trkpt>
      <trkpt lat="43.59464" lon="6.37361">
        <ele>654.5</ele>
        <time>2026-02-22T08:56:20Z</time>
      </trkpt>
      <trkpt lat="43.59465" lon="6.37362">
        <ele>654.5</ele>
        <time>2026-02-22T08:56:21Z</time>
      </trkpt>
      <trkpt lat="43.59465" lon="6.37363">
        <ele>654.6</ele>
        <time>2026-02-22T08:56:22Z</time>
      </trkpt>
      <trkpt lat="43.59466" lon="6.37363">
        <ele>654.8</ele>
        <time>2026-02-22T08:56:23Z</time>
      </trkpt>
      <trkpt lat="43.59467" lon="6.37363">
        <ele>654.9</ele>
        <time>2026-02-22T08:56:24Z</time>
      </trkpt>
      <trkpt lat="43.59468" lon="6.37363">
        <ele>655.1</ele>
        <time>2026-02-22T08:56:25Z</time>
      </trkpt>
      <trkpt lat="43.59469" lon="6.37363">
        <ele>655.2</ele>
        <time>2026-02-22T08:56:26Z</time>
      </trkpt>
      <trkpt lat="43.5947" lon="6.37363">
        <ele>655.2</ele>
        <time>2026-02-22T08:56:27Z</time>
      </trkpt>
      <trkpt lat="43.59471" lon="6.37363">
        <ele>655.3</ele>
        <time>2026-02-22T08:56:28Z</time>
      </trkpt>
      <trkpt lat="43.59472" lon="6.37364">
        <ele>655.6</ele>
        <time>2026-02-22T08:56:29Z</time>
      </trkpt>
      <trkpt lat="43.59473" lon="6.37364">
        <ele>655.7</ele>
        <time>2026-02-22T08:56:30Z</time>
      </trkpt>
      <trkpt lat="43.59474" lon="6.37364">
        <ele>655.9</ele>
        <time>2026-02-22T08:56:31Z</time>
      </trkpt>
      <trkpt lat="43.59475" lon="6.37364">
        <ele>655.9</ele>
        <time>2026-02-22T08:56:32Z</time>
      </trkpt>
      <trkpt lat="43.59476" lon="6.37364">
        <ele>656</ele>
        <time>2026-02-22T08:56:33Z</time>
      </trkpt>
      <trkpt lat="43.59477" lon="6.37363">
        <ele>656.1</ele>
        <time>2026-02-22T08:56:34Z</time>
      </trkpt>
      <trkpt lat="43.59478" lon="6.37364">
        <ele>656.2</ele>
        <time>2026-02-22T08:56:35Z</time>
      </trkpt>
      <trkpt lat="43.59479" lon="6.37364">
        <ele>656.3</ele>
        <time>2026-02-22T08:56:36Z</time>
      </trkpt>
      <trkpt lat="43.59479" lon="6.37365">
        <ele>656.4</ele>
        <time>2026-02-22T08:56:37Z</time>
      </trkpt>
      <trkpt lat="43.5948" lon="6.37366">
        <ele>656.4</ele>
        <time>2026-02-22T08:56:38Z</time>
      </trkpt>
      <trkpt lat="43.5948" lon="6.37366">
        <ele>656.6</ele>
        <time>2026-02-22T08:56:39Z</time>
      </trkpt>
      <trkpt lat="43.59481" lon="6.37367">
        <ele>656.7</ele>
        <time>2026-02-22T08:56:40Z</time>
      </trkpt>
      <trkpt lat="43.59481" lon="6.37368">
        <ele>656.8</ele>
        <time>2026-02-22T08:56:41Z</time>
      </trkpt>
      <trkpt lat="43.59482" lon="6.37369">
        <ele>656.9</ele>
        <time>2026-02-22T08:56:42Z</time>
      </trkpt>
      <trkpt lat="43.59482" lon="6.3737">
        <ele>656.9</ele>
        <time>2026-02-22T08:56:43Z</time>
      </trkpt>
      <trkpt lat="43.59483" lon="6.37371">
        <ele>656.9</ele>
        <time>2026-02-22T08:56:44Z</time>
      </trkpt>
      <trkpt lat="43.59483" lon="6.37371">
        <ele>657</ele>
        <time>2026-02-22T08:56:45Z</time>
      </trkpt>
      <trkpt lat="43.59484" lon="6.37372">
        <ele>656.8</ele>
        <time>2026-02-22T08:56:46Z</time>
      </trkpt>
      <trkpt lat="43.59484" lon="6.37373">
        <ele>656.8</ele>
        <time>2026-02-22T08:56:47Z</time>
      </trkpt>
      <trkpt lat="43.59485" lon="6.37373">
        <ele>656.7</ele>
        <time>2026-02-22T08:56:48Z</time>
      </trkpt>
      <trkpt lat="43.59485" lon="6.37374">
        <ele>656.7</ele>
        <time>2026-02-22T08:56:49Z</time>
      </trkpt>
      <trkpt lat="43.59485" lon="6.37374">
        <ele>656.7</ele>
        <time>2026-02-22T08:56:50Z</time>
      </trkpt>
      <trkpt lat="43.59485" lon="6.37374">
        <ele>656.8</ele>
        <time>2026-02-22T08:56:51Z</time>
      </trkpt>
      <trkpt lat="43.59486" lon="6.37375">
        <ele>656.8</ele>
        <time>2026-02-22T08:56:52Z</time>
      </trkpt>
      <trkpt lat="43.59486" lon="6.37376">
        <ele>656.8</ele>
        <time>2026-02-22T08:56:53Z</time>
      </trkpt>
      <trkpt lat="43.59485" lon="6.37378">
        <ele>656.8</ele>
        <time>2026-02-22T08:56:54Z</time>
      </trkpt>
      <trkpt lat="43.59485" lon="6.37379">
        <ele>656.9</ele>
        <time>2026-02-22T08:56:55Z</time>
      </trkpt>
      <trkpt lat="43.59484" lon="6.3738">
        <ele>656.9</ele>
        <time>2026-02-22T08:56:56Z</time>
      </trkpt>
      <trkpt lat="43.59484" lon="6.37381">
        <ele>657</ele>
        <time>2026-02-22T08:56:57Z</time>
      </trkpt>
      <trkpt lat="43.59484" lon="6.37383">
        <ele>657.1</ele>
        <time>2026-02-22T08:56:58Z</time>
      </trkpt>
      <trkpt lat="43.59483" lon="6.37384">
        <ele>657.1</ele>
        <time>2026-02-22T08:56:59Z</time>
      </trkpt>
      <trkpt lat="43.59483" lon="6.37384">
        <ele>657.2</ele>
        <time>2026-02-22T08:57:00Z</time>
      </trkpt>
      <trkpt lat="43.59484" lon="6.37385">
        <ele>657.2</ele>
        <time>2026-02-22T08:57:01Z</time>
      </trkpt>
      <trkpt lat="43.59484" lon="6.37386">
        <ele>657.3</ele>
        <time>2026-02-22T08:57:02Z</time>
      </trkpt>
      <trkpt lat="43.59484" lon="6.37387">
        <ele>657.3</ele>
        <time>2026-02-22T08:57:03Z</time>
      </trkpt>
      <trkpt lat="43.59484" lon="6.37388">
        <ele>657.4</ele>
        <time>2026-02-22T08:57:04Z</time>
      </trkpt>
      <trkpt lat="43.59483" lon="6.3739">
        <ele>657.4</ele>
        <time>2026-02-22T08:57:05Z</time>
      </trkpt>
      <trkpt lat="43.59483" lon="6.3739">
        <ele>657.4</ele>
        <time>2026-02-22T08:57:06Z</time>
      </trkpt>
      <trkpt lat="43.59484" lon="6.37391">
        <ele>657.4</ele>
        <time>2026-02-22T08:57:07Z</time>
      </trkpt>
      <trkpt lat="43.59484" lon="6.37391">
        <ele>657.4</ele>
        <time>2026-02-22T08:57:08Z</time>
      </trkpt>
      <trkpt lat="43.59483" lon="6.37393">
        <ele>657.5</ele>
        <time>2026-02-22T08:57:09Z</time>
      </trkpt>
      <trkpt lat="43.59483" lon="6.37394">
        <ele>657.4</ele>
        <time>2026-02-22T08:57:10Z</time>
      </trkpt>
      <trkpt lat="43.59483" lon="6.37395">
        <ele>657.4</ele>
        <time>2026-02-22T08:57:11Z</time>
      </trkpt>
      <trkpt lat="43.59483" lon="6.37396">
        <ele>657.4</ele>
        <time>2026-02-22T08:57:12Z</time>
      </trkpt>
      <trkpt lat="43.59483" lon="6.37396">
        <ele>657.4</ele>
        <time>2026-02-22T08:57:13Z</time>
      </trkpt>
      <trkpt lat="43.59482" lon="6.37397">
        <ele>657.4</ele>
        <time>2026-02-22T08:57:14Z</time>
      </trkpt>
      <trkpt lat="43.59483" lon="6.37398">
        <ele>657.4</ele>
        <time>2026-02-22T08:57:15Z</time>
      </trkpt>
      <trkpt lat="43.59483" lon="6.374">
        <ele>657.3</ele>
        <time>2026-02-22T08:57:16Z</time>
      </trkpt>
      <trkpt lat="43.59482" lon="6.37401">
        <ele>657.3</ele>
        <time>2026-02-22T08:57:17Z</time>
      </trkpt>
      <trkpt lat="43.59482" lon="6.37403">
        <ele>657.3</ele>
        <time>2026-02-22T08:57:18Z</time>
      </trkpt>
      <trkpt lat="43.59482" lon="6.37404">
        <ele>657.3</ele>
        <time>2026-02-22T08:57:19Z</time>
      </trkpt>
      <trkpt lat="43.59482" lon="6.37406">
        <ele>657.3</ele>
        <time>2026-02-22T08:57:20Z</time>
      </trkpt>
      <trkpt lat="43.59482" lon="6.37407">
        <ele>657.2</ele>
        <time>2026-02-22T08:57:21Z</time>
      </trkpt>
      <trkpt lat="43.59482" lon="6.37408">
        <ele>657.1</ele>
        <time>2026-02-22T08:57:22Z</time>
      </trkpt>
      <trkpt lat="43.59482" lon="6.3741">
        <ele>657.1</ele>
        <time>2026-02-22T08:57:23Z</time>
      </trkpt>
      <trkpt lat="43.59482" lon="6.37411">
        <ele>657.2</ele>
        <time>2026-02-22T08:57:24Z</time>
      </trkpt>
      <trkpt lat="43.59482" lon="6.37412">
        <ele>657.1</ele>
        <time>2026-02-22T08:57:25Z</time>
      </trkpt>
      <trkpt lat="43.59482" lon="6.37414">
        <ele>657.1</ele>
        <time>2026-02-22T08:57:26Z</time>
      </trkpt>
      <trkpt lat="43.59483" lon="6.37415">
        <ele>657.1</ele>
        <time>2026-02-22T08:57:27Z</time>
      </trkpt>
      <trkpt lat="43.59483" lon="6.37417">
        <ele>657.1</ele>
        <time>2026-02-22T08:57:28Z</time>
      </trkpt>
      <trkpt lat="43.59483" lon="6.37418">
        <ele>657.1</ele>
        <time>2026-02-22T08:57:29Z</time>
      </trkpt>
      <trkpt lat="43.59483" lon="6.3742">
        <ele>657.1</ele>
        <time>2026-02-22T08:57:30Z</time>
      </trkpt>
      <trkpt lat="43.59483" lon="6.37421">
        <ele>657</ele>
        <time>2026-02-22T08:57:31Z</time>
      </trkpt>
      <trkpt lat="43.59483" lon="6.37422">
        <ele>657.1</ele>
        <time>2026-02-22T08:57:32Z</time>
      </trkpt>
      <trkpt lat="43.59483" lon="6.37424">
        <ele>657.1</ele>
        <time>2026-02-22T08:57:33Z</time>
      </trkpt>
      <trkpt lat="43.59483" lon="6.37426">
        <ele>657.1</ele>
        <time>2026-02-22T08:57:34Z</time>
      </trkpt>
      <trkpt lat="43.59484" lon="6.37428">
        <ele>657</ele>
        <time>2026-02-22T08:57:35Z</time>
      </trkpt>
      <trkpt lat="43.59483" lon="6.37429">
        <ele>656.9</ele>
        <time>2026-02-22T08:57:36Z</time>
      </trkpt>
      <trkpt lat="43.59483" lon="6.37431">
        <ele>656.9</ele>
        <time>2026-02-22T08:57:37Z</time>
      </trkpt>
      <trkpt lat="43.59483" lon="6.37432">
        <ele>656.8</ele>
        <time>2026-02-22T08:57:38Z</time>
      </trkpt>
      <trkpt lat="43.59483" lon="6.37434">
        <ele>656.8</ele>
        <time>2026-02-22T08:57:39Z</time>
      </trkpt>
      <trkpt lat="43.59482" lon="6.37435">
        <ele>656.9</ele>
        <time>2026-02-22T08:57:40Z</time>
      </trkpt>
      <trkpt lat="43.59482" lon="6.37437">
        <ele>656.8</ele>
        <time>2026-02-22T08:57:41Z</time>
      </trkpt>
      <trkpt lat="43.59482" lon="6.37438">
        <ele>656.8</ele>
        <time>2026-02-22T08:57:42Z</time>
      </trkpt>
      <trkpt lat="43.59481" lon="6.3744">
        <ele>656.7</ele>
        <time>2026-02-22T08:57:43Z</time>
      </trkpt>
      <trkpt lat="43.59481" lon="6.37442">
        <ele>656.8</ele>
        <time>2026-02-22T08:57:44Z</time>
      </trkpt>
      <trkpt lat="43.59481" lon="6.37444">
        <ele>656.8</ele>
        <time>2026-02-22T08:57:45Z</time>
      </trkpt>
      <trkpt lat="43.59482" lon="6.37445">
        <ele>656.7</ele>
        <time>2026-02-22T08:57:46Z</time>
      </trkpt>
      <trkpt lat="43.59483" lon="6.37446">
        <ele>656.6</ele>
        <time>2026-02-22T08:57:47Z</time>
      </trkpt>
      <trkpt lat="43.59483" lon="6.37447">
        <ele>656.5</ele>
        <time>2026-02-22T08:57:48Z</time>
      </trkpt>
      <trkpt lat="43.59484" lon="6.37448">
        <ele>656.6</ele>
        <time>2026-02-22T08:57:49Z</time>
      </trkpt>
      <trkpt lat="43.59484" lon="6.37449">
        <ele>656.6</ele>
        <time>2026-02-22T08:57:50Z</time>
      </trkpt>
      <trkpt lat="43.59484" lon="6.37449">
        <ele>656.6</ele>
        <time>2026-02-22T08:57:51Z</time>
      </trkpt>
      <trkpt lat="43.59484" lon="6.3745">
        <ele>656.6</ele>
        <time>2026-02-22T08:57:52Z</time>
      </trkpt>
      <trkpt lat="43.59485" lon="6.37451">
        <ele>656.5</ele>
        <time>2026-02-22T08:57:53Z</time>
      </trkpt>
      <trkpt lat="43.59485" lon="6.37452">
        <ele>656.6</ele>
        <time>2026-02-22T08:57:54Z</time>
      </trkpt>
      <trkpt lat="43.59485" lon="6.37453">
        <ele>656.6</ele>
        <time>2026-02-22T08:57:55Z</time>
      </trkpt>
      <trkpt lat="43.59485" lon="6.37454">
        <ele>656.5</ele>
        <time>2026-02-22T08:57:56Z</time>
      </trkpt>
      <trkpt lat="43.59485" lon="6.37455">
        <ele>656.5</ele>
        <time>2026-02-22T08:57:57Z</time>
      </trkpt>
      <trkpt lat="43.59486" lon="6.37457">
        <ele>656.5</ele>
        <time>2026-02-22T08:57:58Z</time>
      </trkpt>
      <trkpt lat="43.59486" lon="6.37458">
        <ele>656.5</ele>
        <time>2026-02-22T08:57:59Z</time>
      </trkpt>
      <trkpt lat="43.59486" lon="6.37459">
        <ele>656.6</ele>
        <time>2026-02-22T08:58:00Z</time>
      </trkpt>
      <trkpt lat="43.59485" lon="6.3746">
        <ele>656.6</ele>
        <time>2026-02-22T08:58:01Z</time>
      </trkpt>
      <trkpt lat="43.59486" lon="6.37462">
        <ele>656.6</ele>
        <time>2026-02-22T08:58:02Z</time>
      </trkpt>
      <trkpt lat="43.59485" lon="6.37462">
        <ele>656.6</ele>
        <time>2026-02-22T08:58:03Z</time>
      </trkpt>
      <trkpt lat="43.59486" lon="6.37463">
        <ele>656.6</ele>
        <time>2026-02-22T08:58:04Z</time>
      </trkpt>
      <trkpt lat="43.59486" lon="6.37465">
        <ele>656.5</ele>
        <time>2026-02-22T08:58:05Z</time>
      </trkpt>
      <trkpt lat="43.59485" lon="6.37466">
        <ele>656.4</ele>
        <time>2026-02-22T08:58:06Z</time>
      </trkpt>
      <trkpt lat="43.59485" lon="6.37468">
        <ele>656.4</ele>
        <time>2026-02-22T08:58:07Z</time>
      </trkpt>
      <trkpt lat="43.59484" lon="6.3747">
        <ele>656.4</ele>
        <time>2026-02-22T08:58:08Z</time>
      </trkpt>
      <trkpt lat="43.59484" lon="6.37471">
        <ele>656.4</ele>
        <time>2026-02-22T08:58:09Z</time>
      </trkpt>
      <trkpt lat="43.59485" lon="6.37472">
        <ele>656.4</ele>
        <time>2026-02-22T08:58:10Z</time>
      </trkpt>
      <trkpt lat="43.59485" lon="6.37474">
        <ele>656.4</ele>
        <time>2026-02-22T08:58:11Z</time>
      </trkpt>
      <trkpt lat="43.59485" lon="6.37475">
        <ele>656.3</ele>
        <time>2026-02-22T08:58:12Z</time>
      </trkpt>
      <trkpt lat="43.59484" lon="6.37477">
        <ele>656.3</ele>
        <time>2026-02-22T08:58:13Z</time>
      </trkpt>
      <trkpt lat="43.59484" lon="6.37478">
        <ele>656.3</ele>
        <time>2026-02-22T08:58:14Z</time>
      </trkpt>
      <trkpt lat="43.59484" lon="6.37479">
        <ele>656.3</ele>
        <time>2026-02-22T08:58:15Z</time>
      </trkpt>
      <trkpt lat="43.59484" lon="6.3748">
        <ele>656.3</ele>
        <time>2026-02-22T08:58:16Z</time>
      </trkpt>
      <trkpt lat="43.59485" lon="6.37481">
        <ele>656.2</ele>
        <time>2026-02-22T08:58:17Z</time>
      </trkpt>
      <trkpt lat="43.59486" lon="6.37482">
        <ele>656.1</ele>
        <time>2026-02-22T08:58:18Z</time>
      </trkpt>
      <trkpt lat="43.59486" lon="6.37483">
        <ele>656.1</ele>
        <time>2026-02-22T08:58:19Z</time>
      </trkpt>
      <trkpt lat="43.59487" lon="6.37485">
        <ele>656.1</ele>
        <time>2026-02-22T08:58:20Z</time>
      </trkpt>
      <trkpt lat="43.59488" lon="6.37486">
        <ele>656.1</ele>
        <time>2026-02-22T08:58:21Z</time>
      </trkpt>
      <trkpt lat="43.59489" lon="6.37487">
        <ele>656.1</ele>
        <time>2026-02-22T08:58:22Z</time>
      </trkpt>
      <trkpt lat="43.59489" lon="6.37488">
        <ele>656.1</ele>
        <time>2026-02-22T08:58:23Z</time>
      </trkpt>
      <trkpt lat="43.5949" lon="6.37489">
        <ele>656.1</ele>
        <time>2026-02-22T08:58:24Z</time>
      </trkpt>
      <trkpt lat="43.59491" lon="6.3749">
        <ele>656.1</ele>
        <time>2026-02-22T08:58:25Z</time>
      </trkpt>
      <trkpt lat="43.59491" lon="6.3749">
        <ele>656.1</ele>
        <time>2026-02-22T08:58:26Z</time>
      </trkpt>
      <trkpt lat="43.59492" lon="6.37491">
        <ele>656.2</ele>
        <time>2026-02-22T08:58:27Z</time>
      </trkpt>
      <trkpt lat="43.59493" lon="6.37493">
        <ele>656.2</ele>
        <time>2026-02-22T08:58:28Z</time>
      </trkpt>
      <trkpt lat="43.59494" lon="6.37494">
        <ele>656.3</ele>
        <time>2026-02-22T08:58:29Z</time>
      </trkpt>
      <trkpt lat="43.59495" lon="6.37495">
        <ele>656.3</ele>
        <time>2026-02-22T08:58:30Z</time>
      </trkpt>
      <trkpt lat="43.59495" lon="6.37496">
        <ele>656.4</ele>
        <time>2026-02-22T08:58:31Z</time>
      </trkpt>
      <trkpt lat="43.59496" lon="6.37497">
        <ele>656.4</ele>
        <time>2026-02-22T08:58:32Z</time>
      </trkpt>
      <trkpt lat="43.59497" lon="6.37498">
        <ele>656.4</ele>
        <time>2026-02-22T08:58:33Z</time>
      </trkpt>
      <trkpt lat="43.59498" lon="6.37499">
        <ele>656.4</ele>
        <time>2026-02-22T08:58:34Z</time>
      </trkpt>
      <trkpt lat="43.59499" lon="6.375">
        <ele>656.3</ele>
        <time>2026-02-22T08:58:35Z</time>
      </trkpt>
      <trkpt lat="43.595" lon="6.375">
        <ele>656.3</ele>
        <time>2026-02-22T08:58:36Z</time>
      </trkpt>
      <trkpt lat="43.59501" lon="6.37502">
        <ele>656.3</ele>
        <time>2026-02-22T08:58:37Z</time>
      </trkpt>
      <trkpt lat="43.59502" lon="6.37503">
        <ele>656.2</ele>
        <time>2026-02-22T08:58:38Z</time>
      </trkpt>
      <trkpt lat="43.59503" lon="6.37504">
        <ele>656.2</ele>
        <time>2026-02-22T08:58:39Z</time>
      </trkpt>
      <trkpt lat="43.59503" lon="6.37506">
        <ele>656.3</ele>
        <time>2026-02-22T08:58:40Z</time>
      </trkpt>
      <trkpt lat="43.59504" lon="6.37506">
        <ele>656.4</ele>
        <time>2026-02-22T08:58:41Z</time>
      </trkpt>
      <trkpt lat="43.59506" lon="6.37507">
        <ele>656.4</ele>
        <time>2026-02-22T08:58:42Z</time>
      </trkpt>
      <trkpt lat="43.59507" lon="6.37507">
        <ele>656.5</ele>
        <time>2026-02-22T08:58:43Z</time>
      </trkpt>
      <trkpt lat="43.59508" lon="6.37508">
        <ele>656.4</ele>
        <time>2026-02-22T08:58:44Z</time>
      </trkpt>
      <trkpt lat="43.59508" lon="6.37509">
        <ele>656.4</ele>
        <time>2026-02-22T08:58:45Z</time>
      </trkpt>
      <trkpt lat="43.59509" lon="6.37509">
        <ele>656.3</ele>
        <time>2026-02-22T08:58:46Z</time>
      </trkpt>
      <trkpt lat="43.59509" lon="6.3751">
        <ele>656.3</ele>
        <time>2026-02-22T08:58:47Z</time>
      </trkpt>
      <trkpt lat="43.5951" lon="6.3751">
        <ele>656.3</ele>
        <time>2026-02-22T08:58:48Z</time>
      </trkpt>
      <trkpt lat="43.59511" lon="6.37512">
        <ele>656.4</ele>
        <time>2026-02-22T08:58:49Z</time>
      </trkpt>
      <trkpt lat="43.59512" lon="6.37512">
        <ele>656.5</ele>
        <time>2026-02-22T08:58:50Z</time>
      </trkpt>
      <trkpt lat="43.59514" lon="6.37513">
        <ele>656.5</ele>
        <time>2026-02-22T08:58:51Z</time>
      </trkpt>
      <trkpt lat="43.59514" lon="6.37514">
        <ele>656.6</ele>
        <time>2026-02-22T08:58:52Z</time>
      </trkpt>
      <trkpt lat="43.59515" lon="6.37514">
        <ele>656.7</ele>
        <time>2026-02-22T08:58:53Z</time>
      </trkpt>
      <trkpt lat="43.59517" lon="6.37514">
        <ele>656.8</ele>
        <time>2026-02-22T08:58:54Z</time>
      </trkpt>
      <trkpt lat="43.59518" lon="6.37514">
        <ele>656.8</ele>
        <time>2026-02-22T08:58:55Z</time>
      </trkpt>
      <trkpt lat="43.59519" lon="6.37515">
        <ele>656.8</ele>
        <time>2026-02-22T08:58:56Z</time>
      </trkpt>
      <trkpt lat="43.5952" lon="6.37515">
        <ele>656.8</ele>
        <time>2026-02-22T08:58:57Z</time>
      </trkpt>
      <trkpt lat="43.59521" lon="6.37515">
        <ele>656.9</ele>
        <time>2026-02-22T08:58:58Z</time>
      </trkpt>
      <trkpt lat="43.59522" lon="6.37514">
        <ele>656.9</ele>
        <time>2026-02-22T08:58:59Z</time>
      </trkpt>
      <trkpt lat="43.59523" lon="6.37515">
        <ele>656.8</ele>
        <time>2026-02-22T08:59:00Z</time>
      </trkpt>
      <trkpt lat="43.59524" lon="6.37515">
        <ele>656.8</ele>
        <time>2026-02-22T08:59:01Z</time>
      </trkpt>
      <trkpt lat="43.59525" lon="6.37515">
        <ele>656.9</ele>
        <time>2026-02-22T08:59:02Z</time>
      </trkpt>
      <trkpt lat="43.59526" lon="6.37515">
        <ele>656.9</ele>
        <time>2026-02-22T08:59:03Z</time>
      </trkpt>
      <trkpt lat="43.59528" lon="6.37514">
        <ele>656.9</ele>
        <time>2026-02-22T08:59:04Z</time>
      </trkpt>
      <trkpt lat="43.59529" lon="6.37515">
        <ele>656.8</ele>
        <time>2026-02-22T08:59:05Z</time>
      </trkpt>
      <trkpt lat="43.5953" lon="6.37515">
        <ele>656.8</ele>
        <time>2026-02-22T08:59:06Z</time>
      </trkpt>
      <trkpt lat="43.59532" lon="6.37515">
        <ele>656.9</ele>
        <time>2026-02-22T08:59:07Z</time>
      </trkpt>
      <trkpt lat="43.59533" lon="6.37516">
        <ele>656.9</ele>
        <time>2026-02-22T08:59:08Z</time>
      </trkpt>
      <trkpt lat="43.59534" lon="6.37516">
        <ele>656.9</ele>
        <time>2026-02-22T08:59:09Z</time>
      </trkpt>
      <trkpt lat="43.59535" lon="6.37516">
        <ele>656.9</ele>
        <time>2026-02-22T08:59:10Z</time>
      </trkpt>
      <trkpt lat="43.59536" lon="6.37517">
        <ele>656.9</ele>
        <time>2026-02-22T08:59:11Z</time>
      </trkpt>
      <trkpt lat="43.59537" lon="6.37518">
        <ele>656.8</ele>
        <time>2026-02-22T08:59:12Z</time>
      </trkpt>
      <trkpt lat="43.59538" lon="6.3752">
        <ele>656.6</ele>
        <time>2026-02-22T08:59:13Z</time>
      </trkpt>
      <trkpt lat="43.59539" lon="6.37521">
        <ele>656.5</ele>
        <time>2026-02-22T08:59:14Z</time>
      </trkpt>
      <trkpt lat="43.5954" lon="6.37522">
        <ele>656.5</ele>
        <time>2026-02-22T08:59:15Z</time>
      </trkpt>
      <trkpt lat="43.59541" lon="6.37522">
        <ele>656.5</ele>
        <time>2026-02-22T08:59:16Z</time>
      </trkpt>
      <trkpt lat="43.59542" lon="6.37523">
        <ele>656.4</ele>
        <time>2026-02-22T08:59:17Z</time>
      </trkpt>
      <trkpt lat="43.59542" lon="6.37523">
        <ele>656.3</ele>
        <time>2026-02-22T08:59:18Z</time>
      </trkpt>
      <trkpt lat="43.59543" lon="6.37524">
        <ele>656.3</ele>
        <time>2026-02-22T08:59:19Z</time>
      </trkpt>
      <trkpt lat="43.59544" lon="6.37525">
        <ele>656.3</ele>
        <time>2026-02-22T08:59:20Z</time>
      </trkpt>
      <trkpt lat="43.59545" lon="6.37525">
        <ele>656.2</ele>
        <time>2026-02-22T08:59:21Z</time>
      </trkpt>
      <trkpt lat="43.59546" lon="6.37525">
        <ele>656.2</ele>
        <time>2026-02-22T08:59:22Z</time>
      </trkpt>
      <trkpt lat="43.59547" lon="6.37525">
        <ele>656.2</ele>
        <time>2026-02-22T08:59:23Z</time>
      </trkpt>
      <trkpt lat="43.59548" lon="6.37526">
        <ele>656.1</ele>
        <time>2026-02-22T08:59:24Z</time>
      </trkpt>
      <trkpt lat="43.59548" lon="6.37526">
        <ele>656.1</ele>
        <time>2026-02-22T08:59:25Z</time>
      </trkpt>
      <trkpt lat="43.59548" lon="6.37526">
        <ele>655.9</ele>
        <time>2026-02-22T08:59:26Z</time>
      </trkpt>
      <trkpt lat="43.59551" lon="6.37526">
        <ele>655.8</ele>
        <time>2026-02-22T08:59:27Z</time>
      </trkpt>
      <trkpt lat="43.59553" lon="6.37524">
        <ele>655.7</ele>
        <time>2026-02-22T08:59:28Z</time>
      </trkpt>
      <trkpt lat="43.59555" lon="6.37523">
        <ele>655.6</ele>
        <time>2026-02-22T08:59:29Z</time>
      </trkpt>
      <trkpt lat="43.59555" lon="6.37524">
        <ele>655.5</ele>
        <time>2026-02-22T08:59:30Z</time>
      </trkpt>
      <trkpt lat="43.59556" lon="6.37525">
        <ele>655.4</ele>
        <time>2026-02-22T08:59:31Z</time>
      </trkpt>
      <trkpt lat="43.59556" lon="6.37525">
        <ele>655.3</ele>
        <time>2026-02-22T08:59:32Z</time>
      </trkpt>
      <trkpt lat="43.59557" lon="6.37525">
        <ele>655.2</ele>
        <time>2026-02-22T08:59:33Z</time>
      </trkpt>
      <trkpt lat="43.59557" lon="6.37526">
        <ele>655.1</ele>
        <time>2026-02-22T08:59:34Z</time>
      </trkpt>
      <trkpt lat="43.59558" lon="6.37526">
        <ele>655</ele>
        <time>2026-02-22T08:59:35Z</time>
      </trkpt>
      <trkpt lat="43.59559" lon="6.37526">
        <ele>654.9</ele>
        <time>2026-02-22T08:59:36Z</time>
      </trkpt>
      <trkpt lat="43.59559" lon="6.37527">
        <ele>654.8</ele>
        <time>2026-02-22T08:59:37Z</time>
      </trkpt>
      <trkpt lat="43.5956" lon="6.37527">
        <ele>654.7</ele>
        <time>2026-02-22T08:59:38Z</time>
      </trkpt>
      <trkpt lat="43.59562" lon="6.37527">
        <ele>654.6</ele>
        <time>2026-02-22T08:59:39Z</time>
      </trkpt>
      <trkpt lat="43.59562" lon="6.37527">
        <ele>654.5</ele>
        <time>2026-02-22T08:59:40Z</time>
      </trkpt>
      <trkpt lat="43.59564" lon="6.37528">
        <ele>654.4</ele>
        <time>2026-02-22T08:59:41Z</time>
      </trkpt>
      <trkpt lat="43.59566" lon="6.37528">
        <ele>654.3</ele>
        <time>2026-02-22T08:59:42Z</time>
      </trkpt>
      <trkpt lat="43.59567" lon="6.37529">
        <ele>654.2</ele>
        <time>2026-02-22T08:59:43Z</time>
      </trkpt>
      <trkpt lat="43.59568" lon="6.37528">
        <ele>654</ele>
        <time>2026-02-22T08:59:44Z</time>
      </trkpt>
      <trkpt lat="43.59569" lon="6.37529">
        <ele>653.9</ele>
        <time>2026-02-22T08:59:45Z</time>
      </trkpt>
      <trkpt lat="43.59571" lon="6.37529">
        <ele>653.8</ele>
        <time>2026-02-22T08:59:46Z</time>
      </trkpt>
      <trkpt lat="43.59572" lon="6.3753">
        <ele>653.7</ele>
        <time>2026-02-22T08:59:47Z</time>
      </trkpt>
      <trkpt lat="43.59573" lon="6.3753">
        <ele>653.6</ele>
        <time>2026-02-22T08:59:48Z</time>
      </trkpt>
      <trkpt lat="43.59574" lon="6.37531">
        <ele>653.5</ele>
        <time>2026-02-22T08:59:49Z</time>
      </trkpt>
      <trkpt lat="43.59575" lon="6.37532">
        <ele>653.3</ele>
        <time>2026-02-22T08:59:50Z</time>
      </trkpt>
      <trkpt lat="43.59577" lon="6.37533">
        <ele>653.1</ele>
        <time>2026-02-22T08:59:51Z</time>
      </trkpt>
      <trkpt lat="43.59578" lon="6.37534">
        <ele>653</ele>
        <time>2026-02-22T08:59:52Z</time>
      </trkpt>
      <trkpt lat="43.59579" lon="6.37536">
        <ele>652.8</ele>
        <time>2026-02-22T08:59:53Z</time>
      </trkpt>
      <trkpt lat="43.59581" lon="6.37536">
        <ele>652.9</ele>
        <time>2026-02-22T08:59:54Z</time>
      </trkpt>
      <trkpt lat="43.59582" lon="6.37536">
        <ele>652.8</ele>
        <time>2026-02-22T08:59:55Z</time>
      </trkpt>
      <trkpt lat="43.59583" lon="6.37536">
        <ele>652.9</ele>
        <time>2026-02-22T08:59:56Z</time>
      </trkpt>
      <trkpt lat="43.59584" lon="6.37536">
        <ele>652.8</ele>
        <time>2026-02-22T08:59:57Z</time>
      </trkpt>
      <trkpt lat="43.59585" lon="6.37536">
        <ele>652.8</ele>
        <time>2026-02-22T08:59:58Z</time>
      </trkpt>
      <trkpt lat="43.59586" lon="6.37535">
        <ele>652.7</ele>
        <time>2026-02-22T08:59:59Z</time>
      </trkpt>
      <trkpt lat="43.59587" lon="6.37536">
        <ele>652.6</ele>
        <time>2026-02-22T09:00:00Z</time>
      </trkpt>
      <trkpt lat="43.59589" lon="6.37535">
        <ele>652.5</ele>
        <time>2026-02-22T09:00:01Z</time>
      </trkpt>
      <trkpt lat="43.5959" lon="6.37535">
        <ele>652.5</ele>
        <time>2026-02-22T09:00:02Z</time>
      </trkpt>
      <trkpt lat="43.5959" lon="6.37536">
        <ele>652.5</ele>
        <time>2026-02-22T09:00:03Z</time>
      </trkpt>
      <trkpt lat="43.59592" lon="6.37536">
        <ele>652.2</ele>
        <time>2026-02-22T09:00:04Z</time>
      </trkpt>
      <trkpt lat="43.59592" lon="6.37538">
        <ele>652</ele>
        <time>2026-02-22T09:00:05Z</time>
      </trkpt>
      <trkpt lat="43.59592" lon="6.37537">
        <ele>651.9</ele>
        <time>2026-02-22T09:00:06Z</time>
      </trkpt>
      <trkpt lat="43.59594" lon="6.37536">
        <ele>651.9</ele>
        <time>2026-02-22T09:00:07Z</time>
      </trkpt>
      <trkpt lat="43.59595" lon="6.37536">
        <ele>651.9</ele>
        <time>2026-02-22T09:00:08Z</time>
      </trkpt>
      <trkpt lat="43.59597" lon="6.37534">
        <ele>651.8</ele>
        <time>2026-02-22T09:00:09Z</time>
      </trkpt>
      <trkpt lat="43.59597" lon="6.37534">
        <ele>651.6</ele>
        <time>2026-02-22T09:00:10Z</time>
      </trkpt>
      <trkpt lat="43.59599" lon="6.37534">
        <ele>651.5</ele>
        <time>2026-02-22T09:00:11Z</time>
      </trkpt>
      <trkpt lat="43.59599" lon="6.37534">
        <ele>651.4</ele>
        <time>2026-02-22T09:00:12Z</time>
      </trkpt>
      <trkpt lat="43.596" lon="6.37535">
        <ele>651.3</ele>
        <time>2026-02-22T09:00:13Z</time>
      </trkpt>
      <trkpt lat="43.59601" lon="6.37534">
        <ele>651.3</ele>
        <time>2026-02-22T09:00:14Z</time>
      </trkpt>
      <trkpt lat="43.59601" lon="6.37535">
        <ele>651.3</ele>
        <time>2026-02-22T09:00:15Z</time>
      </trkpt>
      <trkpt lat="43.59603" lon="6.37533">
        <ele>651.2</ele>
        <time>2026-02-22T09:00:16Z</time>
      </trkpt>
      <trkpt lat="43.59604" lon="6.37532">
        <ele>651.1</ele>
        <time>2026-02-22T09:00:17Z</time>
      </trkpt>
      <trkpt lat="43.59605" lon="6.37532">
        <ele>650.9</ele>
        <time>2026-02-22T09:00:18Z</time>
      </trkpt>
      <trkpt lat="43.59606" lon="6.37532">
        <ele>650.8</ele>
        <time>2026-02-22T09:00:19Z</time>
      </trkpt>
      <trkpt lat="43.59607" lon="6.37531">
        <ele>650.6</ele>
        <time>2026-02-22T09:00:20Z</time>
      </trkpt>
      <trkpt lat="43.59608" lon="6.37532">
        <ele>650.5</ele>
        <time>2026-02-22T09:00:21Z</time>
      </trkpt>
      <trkpt lat="43.59609" lon="6.37532">
        <ele>650.5</ele>
        <time>2026-02-22T09:00:22Z</time>
      </trkpt>
      <trkpt lat="43.59609" lon="6.37532">
        <ele>650.4</ele>
        <time>2026-02-22T09:00:23Z</time>
      </trkpt>
      <trkpt lat="43.5961" lon="6.37532">
        <ele>650.3</ele>
        <time>2026-02-22T09:00:24Z</time>
      </trkpt>
      <trkpt lat="43.5961" lon="6.37531">
        <ele>650.3</ele>
        <time>2026-02-22T09:00:25Z</time>
      </trkpt>
      <trkpt lat="43.59611" lon="6.37531">
        <ele>650.3</ele>
        <time>2026-02-22T09:00:26Z</time>
      </trkpt>
      <trkpt lat="43.59612" lon="6.37532">
        <ele>650.2</ele>
        <time>2026-02-22T09:00:27Z</time>
      </trkpt>
      <trkpt lat="43.59613" lon="6.37532">
        <ele>650.1</ele>
        <time>2026-02-22T09:00:28Z</time>
      </trkpt>
      <trkpt lat="43.59613" lon="6.37532">
        <ele>650</ele>
        <time>2026-02-22T09:00:29Z</time>
      </trkpt>
      <trkpt lat="43.59614" lon="6.37532">
        <ele>650</ele>
        <time>2026-02-22T09:00:30Z</time>
      </trkpt>
      <trkpt lat="43.59615" lon="6.37532">
        <ele>649.9</ele>
        <time>2026-02-22T09:00:31Z</time>
      </trkpt>
      <trkpt lat="43.59616" lon="6.37532">
        <ele>649.9</ele>
        <time>2026-02-22T09:00:32Z</time>
      </trkpt>
      <trkpt lat="43.59617" lon="6.37531">
        <ele>649.8</ele>
        <time>2026-02-22T09:00:33Z</time>
      </trkpt>
      <trkpt lat="43.59619" lon="6.37531">
        <ele>649.7</ele>
        <time>2026-02-22T09:00:34Z</time>
      </trkpt>
      <trkpt lat="43.5962" lon="6.37531">
        <ele>649.6</ele>
        <time>2026-02-22T09:00:35Z</time>
      </trkpt>
      <trkpt lat="43.59622" lon="6.37531">
        <ele>649.5</ele>
        <time>2026-02-22T09:00:36Z</time>
      </trkpt>
      <trkpt lat="43.59623" lon="6.37531">
        <ele>649.4</ele>
        <time>2026-02-22T09:00:37Z</time>
      </trkpt>
      <trkpt lat="43.59624" lon="6.3753">
        <ele>649.3</ele>
        <time>2026-02-22T09:00:38Z</time>
      </trkpt>
      <trkpt lat="43.59626" lon="6.3753">
        <ele>649.4</ele>
        <time>2026-02-22T09:00:39Z</time>
      </trkpt>
      <trkpt lat="43.59627" lon="6.37531">
        <ele>649.3</ele>
        <time>2026-02-22T09:00:40Z</time>
      </trkpt>
      <trkpt lat="43.59629" lon="6.37531">
        <ele>649.2</ele>
        <time>2026-02-22T09:00:41Z</time>
      </trkpt>
      <trkpt lat="43.5963" lon="6.37532">
        <ele>649.2</ele>
        <time>2026-02-22T09:00:42Z</time>
      </trkpt>
      <trkpt lat="43.59632" lon="6.37534">
        <ele>649</ele>
        <time>2026-02-22T09:00:43Z</time>
      </trkpt>
      <trkpt lat="43.59633" lon="6.37534">
        <ele>648.9</ele>
        <time>2026-02-22T09:00:44Z</time>
      </trkpt>
      <trkpt lat="43.59635" lon="6.37535">
        <ele>649</ele>
        <time>2026-02-22T09:00:45Z</time>
      </trkpt>
      <trkpt lat="43.59636" lon="6.37536">
        <ele>648.9</ele>
        <time>2026-02-22T09:00:46Z</time>
      </trkpt>
      <trkpt lat="43.59637" lon="6.37536">
        <ele>648.8</ele>
        <time>2026-02-22T09:00:47Z</time>
      </trkpt>
      <trkpt lat="43.59637" lon="6.37537">
        <ele>648.8</ele>
        <time>2026-02-22T09:00:48Z</time>
      </trkpt>
      <trkpt lat="43.59638" lon="6.37538">
        <ele>648.8</ele>
        <time>2026-02-22T09:00:49Z</time>
      </trkpt>
      <trkpt lat="43.59639" lon="6.3754">
        <ele>648.8</ele>
        <time>2026-02-22T09:00:50Z</time>
      </trkpt>
      <trkpt lat="43.5964" lon="6.37539">
        <ele>648.8</ele>
        <time>2026-02-22T09:00:51Z</time>
      </trkpt>
      <trkpt lat="43.5964" lon="6.3754">
        <ele>648.8</ele>
        <time>2026-02-22T09:00:52Z</time>
      </trkpt>
      <trkpt lat="43.5964" lon="6.37541">
        <ele>648.8</ele>
        <time>2026-02-22T09:00:53Z</time>
      </trkpt>
      <trkpt lat="43.59641" lon="6.37542">
        <ele>648.9</ele>
        <time>2026-02-22T09:00:54Z</time>
      </trkpt>
      <trkpt lat="43.59641" lon="6.37543">
        <ele>648.9</ele>
        <time>2026-02-22T09:00:55Z</time>
      </trkpt>
      <trkpt lat="43.59641" lon="6.37544">
        <ele>648.9</ele>
        <time>2026-02-22T09:00:56Z</time>
      </trkpt>
      <trkpt lat="43.59642" lon="6.37545">
        <ele>648.9</ele>
        <time>2026-02-22T09:00:57Z</time>
      </trkpt>
      <trkpt lat="43.59642" lon="6.37547">
        <ele>648.9</ele>
        <time>2026-02-22T09:00:58Z</time>
      </trkpt>
      <trkpt lat="43.59643" lon="6.37548">
        <ele>649</ele>
        <time>2026-02-22T09:00:59Z</time>
      </trkpt>
      <trkpt lat="43.59643" lon="6.37549">
        <ele>649</ele>
        <time>2026-02-22T09:01:00Z</time>
      </trkpt>
      <trkpt lat="43.59643" lon="6.3755">
        <ele>649</ele>
        <time>2026-02-22T09:01:01Z</time>
      </trkpt>
      <trkpt lat="43.59644" lon="6.3755">
        <ele>649</ele>
        <time>2026-02-22T09:01:02Z</time>
      </trkpt>
      <trkpt lat="43.59644" lon="6.3755">
        <ele>648.9</ele>
        <time>2026-02-22T09:01:03Z</time>
      </trkpt>
      <trkpt lat="43.59645" lon="6.37551">
        <ele>649</ele>
        <time>2026-02-22T09:01:04Z</time>
      </trkpt>
      <trkpt lat="43.59645" lon="6.37551">
        <ele>648.9</ele>
        <time>2026-02-22T09:01:05Z</time>
      </trkpt>
      <trkpt lat="43.59645" lon="6.37551">
        <ele>648.9</ele>
        <time>2026-02-22T09:01:06Z</time>
      </trkpt>
      <trkpt lat="43.59645" lon="6.37552">
        <ele>648.8</ele>
        <time>2026-02-22T09:01:07Z</time>
      </trkpt>
      <trkpt lat="43.59645" lon="6.37552">
        <ele>648.8</ele>
        <time>2026-02-22T09:01:08Z</time>
      </trkpt>
      <trkpt lat="43.59645" lon="6.37552">
        <ele>648.8</ele>
        <time>2026-02-22T09:01:09Z</time>
      </trkpt>
      <trkpt lat="43.59645" lon="6.37552">
        <ele>648.7</ele>
        <time>2026-02-22T09:01:10Z</time>
      </trkpt>
      <trkpt lat="43.59645" lon="6.37552">
        <ele>648.7</ele>
        <time>2026-02-22T09:01:11Z</time>
      </trkpt>
      <trkpt lat="43.59645" lon="6.37552">
        <ele>648.8</ele>
        <time>2026-02-22T09:01:12Z</time>
      </trkpt>
      <trkpt lat="43.59645" lon="6.37552">
        <ele>648.9</ele>
        <time>2026-02-22T09:01:13Z</time>
      </trkpt>
      <trkpt lat="43.59645" lon="6.37551">
        <ele>648.9</ele>
        <time>2026-02-22T09:01:14Z</time>
      </trkpt>
      <trkpt lat="43.59645" lon="6.37551">
        <ele>649</ele>
        <time>2026-02-22T09:01:15Z</time>
      </trkpt>
      <trkpt lat="43.59646" lon="6.37551">
        <ele>648.9</ele>
        <time>2026-02-22T09:01:16Z</time>
      </trkpt>
      <trkpt lat="43.59646" lon="6.37551">
        <ele>648.9</ele>
        <time>2026-02-22T09:01:17Z</time>
      </trkpt>
      <trkpt lat="43.59647" lon="6.37551">
        <ele>648.9</ele>
        <time>2026-02-22T09:01:18Z</time>
      </trkpt>
      <trkpt lat="43.59647" lon="6.37552">
        <ele>648.9</ele>
        <time>2026-02-22T09:01:19Z</time>
      </trkpt>
      <trkpt lat="43.59647" lon="6.37552">
        <ele>648.9</ele>
        <time>2026-02-22T09:01:20Z</time>
      </trkpt>
      <trkpt lat="43.59647" lon="6.37551">
        <ele>648.9</ele>
        <time>2026-02-22T09:01:21Z</time>
      </trkpt>
      <trkpt lat="43.59647" lon="6.37551">
        <ele>648.9</ele>
        <time>2026-02-22T09:01:22Z</time>
      </trkpt>
      <trkpt lat="43.59647" lon="6.37551">
        <ele>649</ele>
        <time>2026-02-22T09:01:23Z</time>
      </trkpt>
      <trkpt lat="43.59647" lon="6.37551">
        <ele>648.9</ele>
        <time>2026-02-22T09:01:24Z</time>
      </trkpt>
      <trkpt lat="43.59647" lon="6.37551">
        <ele>649</ele>
        <time>2026-02-22T09:01:25Z</time>
      </trkpt>
      <trkpt lat="43.59647" lon="6.3755">
        <ele>649.1</ele>
        <time>2026-02-22T09:01:26Z</time>
      </trkpt>
      <trkpt lat="43.59647" lon="6.37551">
        <ele>649.1</ele>
        <time>2026-02-22T09:01:27Z</time>
      </trkpt>
      <trkpt lat="43.59648" lon="6.3755">
        <ele>649.2</ele>
        <time>2026-02-22T09:01:28Z</time>
      </trkpt>
      <trkpt lat="43.59648" lon="6.3755">
        <ele>649.2</ele>
        <time>2026-02-22T09:01:29Z</time>
      </trkpt>
      <trkpt lat="43.59648" lon="6.3755">
        <ele>649.2</ele>
        <time>2026-02-22T09:01:30Z</time>
      </trkpt>
      <trkpt lat="43.59648" lon="6.3755">
        <ele>649.2</ele>
        <time>2026-02-22T09:01:31Z</time>
      </trkpt>
      <trkpt lat="43.59648" lon="6.3755">
        <ele>649.2</ele>
        <time>2026-02-22T09:01:32Z</time>
      </trkpt>
      <trkpt lat="43.59648" lon="6.3755">
        <ele>649.2</ele>
        <time>2026-02-22T09:01:33Z</time>
      </trkpt>
      <trkpt lat="43.59649" lon="6.3755">
        <ele>649.3</ele>
        <time>2026-02-22T09:01:34Z</time>
      </trkpt>
      <trkpt lat="43.59649" lon="6.3755">
        <ele>649.1</ele>
        <time>2026-02-22T09:01:35Z</time>
      </trkpt>
      <trkpt lat="43.59649" lon="6.37551">
        <ele>649.1</ele>
        <time>2026-02-22T09:01:36Z</time>
      </trkpt>
      <trkpt lat="43.5965" lon="6.37551">
        <ele>649.1</ele>
        <time>2026-02-22T09:01:37Z</time>
      </trkpt>
      <trkpt lat="43.59651" lon="6.37551">
        <ele>649.2</ele>
        <time>2026-02-22T09:01:38Z</time>
      </trkpt>
      <trkpt lat="43.59651" lon="6.37551">
        <ele>649.1</ele>
        <time>2026-02-22T09:01:39Z</time>
      </trkpt>
      <trkpt lat="43.59651" lon="6.37551">
        <ele>649.1</ele>
        <time>2026-02-22T09:01:40Z</time>
      </trkpt>
      <trkpt lat="43.59651" lon="6.37551">
        <ele>649.1</ele>
        <time>2026-02-22T09:01:41Z</time>
      </trkpt>
      <trkpt lat="43.59651" lon="6.37552">
        <ele>649.1</ele>
        <time>2026-02-22T09:01:42Z</time>
      </trkpt>
      <trkpt lat="43.59652" lon="6.37553">
        <ele>649</ele>
        <time>2026-02-22T09:01:43Z</time>
      </trkpt>
      <trkpt lat="43.59652" lon="6.37554">
        <ele>648.9</ele>
        <time>2026-02-22T09:01:44Z</time>
      </trkpt>
      <trkpt lat="43.59653" lon="6.37555">
        <ele>648.7</ele>
        <time>2026-02-22T09:01:45Z</time>
      </trkpt>
      <trkpt lat="43.59654" lon="6.37556">
        <ele>648.8</ele>
        <time>2026-02-22T09:01:46Z</time>
      </trkpt>
      <trkpt lat="43.59654" lon="6.37557">
        <ele>648.6</ele>
        <time>2026-02-22T09:01:47Z</time>
      </trkpt>
      <trkpt lat="43.59655" lon="6.37557">
        <ele>648.5</ele>
        <time>2026-02-22T09:01:48Z</time>
      </trkpt>
      <trkpt lat="43.59656" lon="6.37558">
        <ele>648.5</ele>
        <time>2026-02-22T09:01:49Z</time>
      </trkpt>
      <trkpt lat="43.59657" lon="6.37559">
        <ele>648.4</ele>
        <time>2026-02-22T09:01:50Z</time>
      </trkpt>
      <trkpt lat="43.59657" lon="6.3756">
        <ele>648.4</ele>
        <time>2026-02-22T09:01:51Z</time>
      </trkpt>
      <trkpt lat="43.59658" lon="6.37561">
        <ele>648.3</ele>
        <time>2026-02-22T09:01:52Z</time>
      </trkpt>
      <trkpt lat="43.59659" lon="6.37561">
        <ele>648.3</ele>
        <time>2026-02-22T09:01:53Z</time>
      </trkpt>
      <trkpt lat="43.5966" lon="6.37562">
        <ele>648.2</ele>
        <time>2026-02-22T09:01:54Z</time>
      </trkpt>
      <trkpt lat="43.59661" lon="6.37563">
        <ele>648.2</ele>
        <time>2026-02-22T09:01:55Z</time>
      </trkpt>
      <trkpt lat="43.59662" lon="6.37564">
        <ele>648.1</ele>
        <time>2026-02-22T09:01:56Z</time>
      </trkpt>
      <trkpt lat="43.59662" lon="6.37565">
        <ele>648</ele>
        <time>2026-02-22T09:01:57Z</time>
      </trkpt>
      <trkpt lat="43.59662" lon="6.37566">
        <ele>647.9</ele>
        <time>2026-02-22T09:01:58Z</time>
      </trkpt>
      <trkpt lat="43.59663" lon="6.37567">
        <ele>647.8</ele>
        <time>2026-02-22T09:01:59Z</time>
      </trkpt>
      <trkpt lat="43.59664" lon="6.37568">
        <ele>647.6</ele>
        <time>2026-02-22T09:02:00Z</time>
      </trkpt>
      <trkpt lat="43.59665" lon="6.37569">
        <ele>647.5</ele>
        <time>2026-02-22T09:02:01Z</time>
      </trkpt>
      <trkpt lat="43.59666" lon="6.37569">
        <ele>647.5</ele>
        <time>2026-02-22T09:02:02Z</time>
      </trkpt>
      <trkpt lat="43.59667" lon="6.3757">
        <ele>647.4</ele>
        <time>2026-02-22T09:02:03Z</time>
      </trkpt>
      <trkpt lat="43.59668" lon="6.3757">
        <ele>647.2</ele>
        <time>2026-02-22T09:02:04Z</time>
      </trkpt>
      <trkpt lat="43.59669" lon="6.37571">
        <ele>647.1</ele>
        <time>2026-02-22T09:02:05Z</time>
      </trkpt>
      <trkpt lat="43.5967" lon="6.37572">
        <ele>647.1</ele>
        <time>2026-02-22T09:02:06Z</time>
      </trkpt>
      <trkpt lat="43.59671" lon="6.37573">
        <ele>647.1</ele>
        <time>2026-02-22T09:02:07Z</time>
      </trkpt>
      <trkpt lat="43.59672" lon="6.37574">
        <ele>647</ele>
        <time>2026-02-22T09:02:08Z</time>
      </trkpt>
      <trkpt lat="43.59673" lon="6.37574">
        <ele>646.9</ele>
        <time>2026-02-22T09:02:09Z</time>
      </trkpt>
      <trkpt lat="43.59674" lon="6.37575">
        <ele>646.7</ele>
        <time>2026-02-22T09:02:10Z</time>
      </trkpt>
      <trkpt lat="43.59674" lon="6.37576">
        <ele>646.6</ele>
        <time>2026-02-22T09:02:11Z</time>
      </trkpt>
      <trkpt lat="43.59675" lon="6.37577">
        <ele>646.5</ele>
        <time>2026-02-22T09:02:12Z</time>
      </trkpt>
      <trkpt lat="43.59675" lon="6.37578">
        <ele>646.4</ele>
        <time>2026-02-22T09:02:13Z</time>
      </trkpt>
      <trkpt lat="43.59676" lon="6.37579">
        <ele>646.3</ele>
        <time>2026-02-22T09:02:14Z</time>
      </trkpt>
      <trkpt lat="43.59677" lon="6.3758">
        <ele>646.2</ele>
        <time>2026-02-22T09:02:15Z</time>
      </trkpt>
      <trkpt lat="43.59678" lon="6.3758">
        <ele>646.1</ele>
        <time>2026-02-22T09:02:16Z</time>
      </trkpt>
      <trkpt lat="43.59679" lon="6.37581">
        <ele>646.1</ele>
        <time>2026-02-22T09:02:17Z</time>
      </trkpt>
      <trkpt lat="43.59681" lon="6.37582">
        <ele>646</ele>
        <time>2026-02-22T09:02:18Z</time>
      </trkpt>
      <trkpt lat="43.59681" lon="6.37582">
        <ele>646</ele>
        <time>2026-02-22T09:02:19Z</time>
      </trkpt>
      <trkpt lat="43.59683" lon="6.37583">
        <ele>645.9</ele>
        <time>2026-02-22T09:02:20Z</time>
      </trkpt>
      <trkpt lat="43.59684" lon="6.37584">
        <ele>645.8</ele>
        <time>2026-02-22T09:02:21Z</time>
      </trkpt>
      <trkpt lat="43.59685" lon="6.37583">
        <ele>645.8</ele>
        <time>2026-02-22T09:02:22Z</time>
      </trkpt>
      <trkpt lat="43.59686" lon="6.37584">
        <ele>645.7</ele>
        <time>2026-02-22T09:02:23Z</time>
      </trkpt>
      <trkpt lat="43.59687" lon="6.37585">
        <ele>645.6</ele>
        <time>2026-02-22T09:02:24Z</time>
      </trkpt>
      <trkpt lat="43.59687" lon="6.37585">
        <ele>645.5</ele>
        <time>2026-02-22T09:02:25Z</time>
      </trkpt>
      <trkpt lat="43.59689" lon="6.37586">
        <ele>645.5</ele>
        <time>2026-02-22T09:02:26Z</time>
      </trkpt>
      <trkpt lat="43.5969" lon="6.37588">
        <ele>645.4</ele>
        <time>2026-02-22T09:02:27Z</time>
      </trkpt>
      <trkpt lat="43.59692" lon="6.3759">
        <ele>645.2</ele>
        <time>2026-02-22T09:02:28Z</time>
      </trkpt>
      <trkpt lat="43.59693" lon="6.3759">
        <ele>645.1</ele>
        <time>2026-02-22T09:02:29Z</time>
      </trkpt>
      <trkpt lat="43.59695" lon="6.37591">
        <ele>645</ele>
        <time>2026-02-22T09:02:30Z</time>
      </trkpt>
      <trkpt lat="43.59696" lon="6.37591">
        <ele>644.9</ele>
        <time>2026-02-22T09:02:31Z</time>
      </trkpt>
      <trkpt lat="43.59697" lon="6.37592">
        <ele>644.7</ele>
        <time>2026-02-22T09:02:32Z</time>
      </trkpt>
      <trkpt lat="43.59698" lon="6.37592">
        <ele>644.6</ele>
        <time>2026-02-22T09:02:33Z</time>
      </trkpt>
      <trkpt lat="43.59699" lon="6.37593">
        <ele>644.5</ele>
        <time>2026-02-22T09:02:34Z</time>
      </trkpt>
      <trkpt lat="43.597" lon="6.37594">
        <ele>644.4</ele>
        <time>2026-02-22T09:02:35Z</time>
      </trkpt>
      <trkpt lat="43.59701" lon="6.37596">
        <ele>644.3</ele>
        <time>2026-02-22T09:02:36Z</time>
      </trkpt>
      <trkpt lat="43.59701" lon="6.37597">
        <ele>644.2</ele>
        <time>2026-02-22T09:02:37Z</time>
      </trkpt>
      <trkpt lat="43.59703" lon="6.37599">
        <ele>644.2</ele>
        <time>2026-02-22T09:02:38Z</time>
      </trkpt>
      <trkpt lat="43.59704" lon="6.376">
        <ele>644.1</ele>
        <time>2026-02-22T09:02:39Z</time>
      </trkpt>
      <trkpt lat="43.59705" lon="6.37601">
        <ele>644</ele>
        <time>2026-02-22T09:02:40Z</time>
      </trkpt>
      <trkpt lat="43.59705" lon="6.37602">
        <ele>643.9</ele>
        <time>2026-02-22T09:02:41Z</time>
      </trkpt>
      <trkpt lat="43.59706" lon="6.37603">
        <ele>643.7</ele>
        <time>2026-02-22T09:02:42Z</time>
      </trkpt>
      <trkpt lat="43.59706" lon="6.37604">
        <ele>643.6</ele>
        <time>2026-02-22T09:02:43Z</time>
      </trkpt>
      <trkpt lat="43.59707" lon="6.37605">
        <ele>643.6</ele>
        <time>2026-02-22T09:02:44Z</time>
      </trkpt>
      <trkpt lat="43.59708" lon="6.37607">
        <ele>643.4</ele>
        <time>2026-02-22T09:02:45Z</time>
      </trkpt>
      <trkpt lat="43.59709" lon="6.37609">
        <ele>643.3</ele>
        <time>2026-02-22T09:02:46Z</time>
      </trkpt>
      <trkpt lat="43.5971" lon="6.3761">
        <ele>643.3</ele>
        <time>2026-02-22T09:02:47Z</time>
      </trkpt>
      <trkpt lat="43.59711" lon="6.37612">
        <ele>643.2</ele>
        <time>2026-02-22T09:02:48Z</time>
      </trkpt>
      <trkpt lat="43.59711" lon="6.37612">
        <ele>643.1</ele>
        <time>2026-02-22T09:02:49Z</time>
      </trkpt>
      <trkpt lat="43.59712" lon="6.37613">
        <ele>643</ele>
        <time>2026-02-22T09:02:50Z</time>
      </trkpt>
      <trkpt lat="43.59712" lon="6.37614">
        <ele>642.9</ele>
        <time>2026-02-22T09:02:51Z</time>
      </trkpt>
      <trkpt lat="43.59713" lon="6.37615">
        <ele>642.8</ele>
        <time>2026-02-22T09:02:52Z</time>
      </trkpt>
      <trkpt lat="43.59714" lon="6.37616">
        <ele>642.7</ele>
        <time>2026-02-22T09:02:53Z</time>
      </trkpt>
      <trkpt lat="43.59715" lon="6.37616">
        <ele>642.6</ele>
        <time>2026-02-22T09:02:54Z</time>
      </trkpt>
      <trkpt lat="43.59716" lon="6.37616">
        <ele>642.6</ele>
        <time>2026-02-22T09:02:55Z</time>
      </trkpt>
      <trkpt lat="43.59719" lon="6.37616">
        <ele>642.5</ele>
        <time>2026-02-22T09:02:56Z</time>
      </trkpt>
      <trkpt lat="43.5972" lon="6.37615">
        <ele>642.5</ele>
        <time>2026-02-22T09:02:57Z</time>
      </trkpt>
      <trkpt lat="43.59721" lon="6.37615">
        <ele>642.2</ele>
        <time>2026-02-22T09:02:58Z</time>
      </trkpt>
      <trkpt lat="43.59722" lon="6.37615">
        <ele>642</ele>
        <time>2026-02-22T09:02:59Z</time>
      </trkpt>
      <trkpt lat="43.59722" lon="6.37615">
        <ele>641.9</ele>
        <time>2026-02-22T09:03:00Z</time>
      </trkpt>
      <trkpt lat="43.59723" lon="6.37616">
        <ele>641.8</ele>
        <time>2026-02-22T09:03:01Z</time>
      </trkpt>
      <trkpt lat="43.59724" lon="6.37618">
        <ele>641.8</ele>
        <time>2026-02-22T09:03:02Z</time>
      </trkpt>
      <trkpt lat="43.59725" lon="6.37619">
        <ele>641.7</ele>
        <time>2026-02-22T09:03:03Z</time>
      </trkpt>
      <trkpt lat="43.59726" lon="6.37622">
        <ele>641.6</ele>
        <time>2026-02-22T09:03:04Z</time>
      </trkpt>
      <trkpt lat="43.59727" lon="6.37623">
        <ele>641.5</ele>
        <time>2026-02-22T09:03:05Z</time>
      </trkpt>
      <trkpt lat="43.59727" lon="6.37624">
        <ele>641.4</ele>
        <time>2026-02-22T09:03:06Z</time>
      </trkpt>
      <trkpt lat="43.59728" lon="6.37625">
        <ele>641.4</ele>
        <time>2026-02-22T09:03:07Z</time>
      </trkpt>
      <trkpt lat="43.59728" lon="6.37626">
        <ele>641.2</ele>
        <time>2026-02-22T09:03:08Z</time>
      </trkpt>
      <trkpt lat="43.59729" lon="6.37627">
        <ele>641.1</ele>
        <time>2026-02-22T09:03:09Z</time>
      </trkpt>
      <trkpt lat="43.59729" lon="6.37629">
        <ele>641</ele>
        <time>2026-02-22T09:03:10Z</time>
      </trkpt>
      <trkpt lat="43.5973" lon="6.3763">
        <ele>640.9</ele>
        <time>2026-02-22T09:03:11Z</time>
      </trkpt>
      <trkpt lat="43.59731" lon="6.37632">
        <ele>640.8</ele>
        <time>2026-02-22T09:03:12Z</time>
      </trkpt>
      <trkpt lat="43.59732" lon="6.37633">
        <ele>640.8</ele>
        <time>2026-02-22T09:03:13Z</time>
      </trkpt>
      <trkpt lat="43.59733" lon="6.37634">
        <ele>640.8</ele>
        <time>2026-02-22T09:03:14Z</time>
      </trkpt>
      <trkpt lat="43.59733" lon="6.37634">
        <ele>640.7</ele>
        <time>2026-02-22T09:03:15Z</time>
      </trkpt>
      <trkpt lat="43.59734" lon="6.37634">
        <ele>640.7</ele>
        <time>2026-02-22T09:03:16Z</time>
      </trkpt>
      <trkpt lat="43.59735" lon="6.37634">
        <ele>640.4</ele>
        <time>2026-02-22T09:03:17Z</time>
      </trkpt>
      <trkpt lat="43.59736" lon="6.37635">
        <ele>640.3</ele>
        <time>2026-02-22T09:03:18Z</time>
      </trkpt>
      <trkpt lat="43.59737" lon="6.37637">
        <ele>640.3</ele>
        <time>2026-02-22T09:03:19Z</time>
      </trkpt>
      <trkpt lat="43.59738" lon="6.37638">
        <ele>640.1</ele>
        <time>2026-02-22T09:03:20Z</time>
      </trkpt>
      <trkpt lat="43.59738" lon="6.3764">
        <ele>640</ele>
        <time>2026-02-22T09:03:21Z</time>
      </trkpt>
      <trkpt lat="43.59738" lon="6.37641">
        <ele>639.9</ele>
        <time>2026-02-22T09:03:22Z</time>
      </trkpt>
      <trkpt lat="43.59738" lon="6.37642">
        <ele>639.9</ele>
        <time>2026-02-22T09:03:23Z</time>
      </trkpt>
      <trkpt lat="43.59738" lon="6.37642">
        <ele>639.9</ele>
        <time>2026-02-22T09:03:24Z</time>
      </trkpt>
      <trkpt lat="43.59737" lon="6.37644">
        <ele>639.8</ele>
        <time>2026-02-22T09:03:25Z</time>
      </trkpt>
      <trkpt lat="43.59737" lon="6.37645">
        <ele>639.9</ele>
        <time>2026-02-22T09:03:26Z</time>
      </trkpt>
      <trkpt lat="43.59736" lon="6.37646">
        <ele>639.9</ele>
        <time>2026-02-22T09:03:27Z</time>
      </trkpt>
      <trkpt lat="43.59736" lon="6.37647">
        <ele>639.9</ele>
        <time>2026-02-22T09:03:28Z</time>
      </trkpt>
      <trkpt lat="43.59737" lon="6.37647">
        <ele>639.9</ele>
        <time>2026-02-22T09:03:29Z</time>
      </trkpt>
      <trkpt lat="43.59736" lon="6.37648">
        <ele>639.8</ele>
        <time>2026-02-22T09:03:30Z</time>
      </trkpt>
      <trkpt lat="43.59736" lon="6.37649">
        <ele>639.7</ele>
        <time>2026-02-22T09:03:31Z</time>
      </trkpt>
      <trkpt lat="43.59737" lon="6.37649">
        <ele>639.7</ele>
        <time>2026-02-22T09:03:32Z</time>
      </trkpt>
      <trkpt lat="43.59737" lon="6.37649">
        <ele>639.7</ele>
        <time>2026-02-22T09:03:33Z</time>
      </trkpt>
      <trkpt lat="43.59736" lon="6.3765">
        <ele>639.7</ele>
        <time>2026-02-22T09:03:34Z</time>
      </trkpt>
      <trkpt lat="43.59736" lon="6.37651">
        <ele>639.7</ele>
        <time>2026-02-22T09:03:35Z</time>
      </trkpt>
      <trkpt lat="43.59736" lon="6.37652">
        <ele>639.7</ele>
        <time>2026-02-22T09:03:36Z</time>
      </trkpt>
      <trkpt lat="43.59735" lon="6.37653">
        <ele>639.6</ele>
        <time>2026-02-22T09:03:37Z</time>
      </trkpt>
      <trkpt lat="43.59735" lon="6.37654">
        <ele>639.6</ele>
        <time>2026-02-22T09:03:38Z</time>
      </trkpt>
      <trkpt lat="43.59734" lon="6.37655">
        <ele>639.6</ele>
        <time>2026-02-22T09:03:39Z</time>
      </trkpt>
      <trkpt lat="43.59733" lon="6.37657">
        <ele>639.6</ele>
        <time>2026-02-22T09:03:40Z</time>
      </trkpt>
      <trkpt lat="43.59733" lon="6.37659">
        <ele>639.6</ele>
        <time>2026-02-22T09:03:41Z</time>
      </trkpt>
      <trkpt lat="43.59732" lon="6.3766">
        <ele>639.5</ele>
        <time>2026-02-22T09:03:42Z</time>
      </trkpt>
      <trkpt lat="43.59732" lon="6.37661">
        <ele>639.5</ele>
        <time>2026-02-22T09:03:43Z</time>
      </trkpt>
      <trkpt lat="43.59732" lon="6.37662">
        <ele>639.4</ele>
        <time>2026-02-22T09:03:44Z</time>
      </trkpt>
      <trkpt lat="43.59731" lon="6.37663">
        <ele>639.4</ele>
        <time>2026-02-22T09:03:45Z</time>
      </trkpt>
      <trkpt lat="43.5973" lon="6.37665">
        <ele>639.4</ele>
        <time>2026-02-22T09:03:46Z</time>
      </trkpt>
      <trkpt lat="43.5973" lon="6.37667">
        <ele>639.4</ele>
        <time>2026-02-22T09:03:47Z</time>
      </trkpt>
      <trkpt lat="43.5973" lon="6.37668">
        <ele>639.3</ele>
        <time>2026-02-22T09:03:48Z</time>
      </trkpt>
      <trkpt lat="43.5973" lon="6.3767">
        <ele>639.2</ele>
        <time>2026-02-22T09:03:49Z</time>
      </trkpt>
      <trkpt lat="43.5973" lon="6.37671">
        <ele>639.1</ele>
        <time>2026-02-22T09:03:50Z</time>
      </trkpt>
      <trkpt lat="43.5973" lon="6.37672">
        <ele>639.1</ele>
        <time>2026-02-22T09:03:51Z</time>
      </trkpt>
      <trkpt lat="43.59731" lon="6.37674">
        <ele>639</ele>
        <time>2026-02-22T09:03:52Z</time>
      </trkpt>
      <trkpt lat="43.59732" lon="6.37676">
        <ele>639</ele>
        <time>2026-02-22T09:03:53Z</time>
      </trkpt>
      <trkpt lat="43.59732" lon="6.37677">
        <ele>639</ele>
        <time>2026-02-22T09:03:54Z</time>
      </trkpt>
      <trkpt lat="43.59732" lon="6.37678">
        <ele>638.9</ele>
        <time>2026-02-22T09:03:55Z</time>
      </trkpt>
      <trkpt lat="43.59733" lon="6.37679">
        <ele>638.7</ele>
        <time>2026-02-22T09:03:56Z</time>
      </trkpt>
      <trkpt lat="43.59733" lon="6.3768">
        <ele>638.6</ele>
        <time>2026-02-22T09:03:57Z</time>
      </trkpt>
      <trkpt lat="43.59734" lon="6.37681">
        <ele>638.5</ele>
        <time>2026-02-22T09:03:58Z</time>
      </trkpt>
      <trkpt lat="43.59734" lon="6.37682">
        <ele>638.5</ele>
        <time>2026-02-22T09:03:59Z</time>
      </trkpt>
      <trkpt lat="43.59735" lon="6.37684">
        <ele>638.4</ele>
        <time>2026-02-22T09:04:00Z</time>
      </trkpt>
      <trkpt lat="43.59736" lon="6.37685">
        <ele>638.4</ele>
        <time>2026-02-22T09:04:01Z</time>
      </trkpt>
      <trkpt lat="43.59737" lon="6.37687">
        <ele>638.4</ele>
        <time>2026-02-22T09:04:02Z</time>
      </trkpt>
      <trkpt lat="43.59738" lon="6.37688">
        <ele>638.3</ele>
        <time>2026-02-22T09:04:03Z</time>
      </trkpt>
      <trkpt lat="43.59739" lon="6.37689">
        <ele>638.3</ele>
        <time>2026-02-22T09:04:04Z</time>
      </trkpt>
      <trkpt lat="43.59739" lon="6.3769">
        <ele>638.2</ele>
        <time>2026-02-22T09:04:05Z</time>
      </trkpt>
      <trkpt lat="43.5974" lon="6.3769">
        <ele>638.1</ele>
        <time>2026-02-22T09:04:06Z</time>
      </trkpt>
      <trkpt lat="43.59741" lon="6.37691">
        <ele>637.9</ele>
        <time>2026-02-22T09:04:07Z</time>
      </trkpt>
      <trkpt lat="43.59741" lon="6.37692">
        <ele>637.8</ele>
        <time>2026-02-22T09:04:08Z</time>
      </trkpt>
      <trkpt lat="43.59743" lon="6.37693">
        <ele>637.7</ele>
        <time>2026-02-22T09:04:09Z</time>
      </trkpt>
      <trkpt lat="43.59745" lon="6.37694">
        <ele>637.6</ele>
        <time>2026-02-22T09:04:10Z</time>
      </trkpt>
      <trkpt lat="43.59746" lon="6.37695">
        <ele>637.5</ele>
        <time>2026-02-22T09:04:11Z</time>
      </trkpt>
      <trkpt lat="43.59746" lon="6.37695">
        <ele>637.3</ele>
        <time>2026-02-22T09:04:12Z</time>
      </trkpt>
      <trkpt lat="43.59747" lon="6.37696">
        <ele>637.2</ele>
        <time>2026-02-22T09:04:13Z</time>
      </trkpt>
      <trkpt lat="43.59748" lon="6.37696">
        <ele>637.1</ele>
        <time>2026-02-22T09:04:14Z</time>
      </trkpt>
      <trkpt lat="43.59749" lon="6.37698">
        <ele>637</ele>
        <time>2026-02-22T09:04:15Z</time>
      </trkpt>
      <trkpt lat="43.59751" lon="6.37699">
        <ele>636.8</ele>
        <time>2026-02-22T09:04:16Z</time>
      </trkpt>
      <trkpt lat="43.59752" lon="6.377">
        <ele>636.8</ele>
        <time>2026-02-22T09:04:17Z</time>
      </trkpt>
      <trkpt lat="43.59753" lon="6.37701">
        <ele>636.7</ele>
        <time>2026-02-22T09:04:18Z</time>
      </trkpt>
      <trkpt lat="43.59753" lon="6.37701">
        <ele>636.7</ele>
        <time>2026-02-22T09:04:19Z</time>
      </trkpt>
      <trkpt lat="43.59754" lon="6.37702">
        <ele>636.6</ele>
        <time>2026-02-22T09:04:20Z</time>
      </trkpt>
      <trkpt lat="43.59755" lon="6.37703">
        <ele>636.5</ele>
        <time>2026-02-22T09:04:21Z</time>
      </trkpt>
      <trkpt lat="43.59756" lon="6.37705">
        <ele>636.4</ele>
        <time>2026-02-22T09:04:22Z</time>
      </trkpt>
      <trkpt lat="43.59757" lon="6.37706">
        <ele>636.3</ele>
        <time>2026-02-22T09:04:23Z</time>
      </trkpt>
      <trkpt lat="43.59757" lon="6.37708">
        <ele>636.2</ele>
        <time>2026-02-22T09:04:24Z</time>
      </trkpt>
      <trkpt lat="43.59757" lon="6.37709">
        <ele>636.1</ele>
        <time>2026-02-22T09:04:25Z</time>
      </trkpt>
      <trkpt lat="43.59757" lon="6.3771">
        <ele>636</ele>
        <time>2026-02-22T09:04:26Z</time>
      </trkpt>
      <trkpt lat="43.59758" lon="6.37711">
        <ele>635.9</ele>
        <time>2026-02-22T09:04:27Z</time>
      </trkpt>
      <trkpt lat="43.59758" lon="6.37712">
        <ele>635.8</ele>
        <time>2026-02-22T09:04:28Z</time>
      </trkpt>
      <trkpt lat="43.59758" lon="6.37714">
        <ele>635.8</ele>
        <time>2026-02-22T09:04:29Z</time>
      </trkpt>
      <trkpt lat="43.59758" lon="6.37716">
        <ele>635.6</ele>
        <time>2026-02-22T09:04:30Z</time>
      </trkpt>
      <trkpt lat="43.59759" lon="6.37717">
        <ele>635.4</ele>
        <time>2026-02-22T09:04:31Z</time>
      </trkpt>
      <trkpt lat="43.5976" lon="6.37718">
        <ele>635.3</ele>
        <time>2026-02-22T09:04:32Z</time>
      </trkpt>
      <trkpt lat="43.5976" lon="6.3772">
        <ele>635.2</ele>
        <time>2026-02-22T09:04:33Z</time>
      </trkpt>
      <trkpt lat="43.59761" lon="6.37721">
        <ele>635.1</ele>
        <time>2026-02-22T09:04:34Z</time>
      </trkpt>
      <trkpt lat="43.59761" lon="6.37721">
        <ele>635</ele>
        <time>2026-02-22T09:04:35Z</time>
      </trkpt>
      <trkpt lat="43.59762" lon="6.37722">
        <ele>635</ele>
        <time>2026-02-22T09:04:36Z</time>
      </trkpt>
      <trkpt lat="43.59762" lon="6.37724">
        <ele>634.9</ele>
        <time>2026-02-22T09:04:37Z</time>
      </trkpt>
      <trkpt lat="43.59763" lon="6.37725">
        <ele>634.9</ele>
        <time>2026-02-22T09:04:38Z</time>
      </trkpt>
      <trkpt lat="43.59764" lon="6.37727">
        <ele>634.8</ele>
        <time>2026-02-22T09:04:39Z</time>
      </trkpt>
      <trkpt lat="43.59765" lon="6.37728">
        <ele>634.7</ele>
        <time>2026-02-22T09:04:40Z</time>
      </trkpt>
      <trkpt lat="43.59766" lon="6.37728">
        <ele>634.6</ele>
        <time>2026-02-22T09:04:41Z</time>
      </trkpt>
      <trkpt lat="43.59767" lon="6.3773">
        <ele>634.5</ele>
        <time>2026-02-22T09:04:42Z</time>
      </trkpt>
      <trkpt lat="43.59768" lon="6.3773">
        <ele>634.4</ele>
        <time>2026-02-22T09:04:43Z</time>
      </trkpt>
      <trkpt lat="43.59769" lon="6.37731">
        <ele>634.3</ele>
        <time>2026-02-22T09:04:44Z</time>
      </trkpt>
      <trkpt lat="43.5977" lon="6.37731">
        <ele>634.2</ele>
        <time>2026-02-22T09:04:45Z</time>
      </trkpt>
      <trkpt lat="43.59771" lon="6.37732">
        <ele>634.1</ele>
        <time>2026-02-22T09:04:46Z</time>
      </trkpt>
      <trkpt lat="43.59771" lon="6.37731">
        <ele>634</ele>
        <time>2026-02-22T09:04:47Z</time>
      </trkpt>
      <trkpt lat="43.59772" lon="6.37732">
        <ele>633.9</ele>
        <time>2026-02-22T09:04:48Z</time>
      </trkpt>
      <trkpt lat="43.59773" lon="6.37732">
        <ele>633.8</ele>
        <time>2026-02-22T09:04:49Z</time>
      </trkpt>
      <trkpt lat="43.59774" lon="6.37732">
        <ele>633.8</ele>
        <time>2026-02-22T09:04:50Z</time>
      </trkpt>
      <trkpt lat="43.59775" lon="6.37733">
        <ele>633.7</ele>
        <time>2026-02-22T09:04:51Z</time>
      </trkpt>
      <trkpt lat="43.59776" lon="6.37733">
        <ele>633.6</ele>
        <time>2026-02-22T09:04:52Z</time>
      </trkpt>
      <trkpt lat="43.59776" lon="6.37733">
        <ele>633.5</ele>
        <time>2026-02-22T09:04:53Z</time>
      </trkpt>
      <trkpt lat="43.59777" lon="6.37734">
        <ele>633.4</ele>
        <time>2026-02-22T09:04:54Z</time>
      </trkpt>
      <trkpt lat="43.59777" lon="6.37735">
        <ele>633.4</ele>
        <time>2026-02-22T09:04:55Z</time>
      </trkpt>
      <trkpt lat="43.59777" lon="6.37736">
        <ele>633.3</ele>
        <time>2026-02-22T09:04:56Z</time>
      </trkpt>
      <trkpt lat="43.59777" lon="6.37737">
        <ele>633.2</ele>
        <time>2026-02-22T09:04:57Z</time>
      </trkpt>
      <trkpt lat="43.59777" lon="6.37737">
        <ele>633.1</ele>
        <time>2026-02-22T09:04:58Z</time>
      </trkpt>
      <trkpt lat="43.59777" lon="6.37738">
        <ele>633</ele>
        <time>2026-02-22T09:04:59Z</time>
      </trkpt>
      <trkpt lat="43.59777" lon="6.37739">
        <ele>633</ele>
        <time>2026-02-22T09:05:00Z</time>
      </trkpt>
      <trkpt lat="43.59777" lon="6.3774">
        <ele>632.9</ele>
        <time>2026-02-22T09:05:01Z</time>
      </trkpt>
      <trkpt lat="43.59777" lon="6.37742">
        <ele>632.7</ele>
        <time>2026-02-22T09:05:02Z</time>
      </trkpt>
      <trkpt lat="43.59776" lon="6.37743">
        <ele>632.6</ele>
        <time>2026-02-22T09:05:03Z</time>
      </trkpt>
      <trkpt lat="43.59776" lon="6.37744">
        <ele>632.5</ele>
        <time>2026-02-22T09:05:04Z</time>
      </trkpt>
      <trkpt lat="43.59776" lon="6.37745">
        <ele>632.3</ele>
        <time>2026-02-22T09:05:05Z</time>
      </trkpt>
      <trkpt lat="43.59776" lon="6.37747">
        <ele>632.2</ele>
        <time>2026-02-22T09:05:06Z</time>
      </trkpt>
      <trkpt lat="43.59777" lon="6.37748">
        <ele>632.1</ele>
        <time>2026-02-22T09:05:07Z</time>
      </trkpt>
      <trkpt lat="43.59777" lon="6.37749">
        <ele>632</ele>
        <time>2026-02-22T09:05:08Z</time>
      </trkpt>
      <trkpt lat="43.59777" lon="6.3775">
        <ele>631.8</ele>
        <time>2026-02-22T09:05:09Z</time>
      </trkpt>
      <trkpt lat="43.59777" lon="6.37751">
        <ele>631.7</ele>
        <time>2026-02-22T09:05:10Z</time>
      </trkpt>
      <trkpt lat="43.59777" lon="6.37752">
        <ele>631.6</ele>
        <time>2026-02-22T09:05:11Z</time>
      </trkpt>
      <trkpt lat="43.59777" lon="6.37753">
        <ele>631.6</ele>
        <time>2026-02-22T09:05:12Z</time>
      </trkpt>
      <trkpt lat="43.59777" lon="6.37753">
        <ele>631.7</ele>
        <time>2026-02-22T09:05:13Z</time>
      </trkpt>
      <trkpt lat="43.59776" lon="6.37753">
        <ele>631.6</ele>
        <time>2026-02-22T09:05:14Z</time>
      </trkpt>
      <trkpt lat="43.59776" lon="6.37753">
        <ele>631.5</ele>
        <time>2026-02-22T09:05:15Z</time>
      </trkpt>
      <trkpt lat="43.59776" lon="6.37753">
        <ele>631.4</ele>
        <time>2026-02-22T09:05:16Z</time>
      </trkpt>
      <trkpt lat="43.59777" lon="6.37752">
        <ele>631.3</ele>
        <time>2026-02-22T09:05:17Z</time>
      </trkpt>
      <trkpt lat="43.59777" lon="6.37752">
        <ele>631.3</ele>
        <time>2026-02-22T09:05:18Z</time>
      </trkpt>
      <trkpt lat="43.59778" lon="6.37753">
        <ele>631.3</ele>
        <time>2026-02-22T09:05:19Z</time>
      </trkpt>
      <trkpt lat="43.59778" lon="6.37753">
        <ele>631.3</ele>
        <time>2026-02-22T09:05:20Z</time>
      </trkpt>
      <trkpt lat="43.59779" lon="6.37753">
        <ele>631.3</ele>
        <time>2026-02-22T09:05:21Z</time>
      </trkpt>
      <trkpt lat="43.59779" lon="6.37753">
        <ele>631.4</ele>
        <time>2026-02-22T09:05:22Z</time>
      </trkpt>
      <trkpt lat="43.59779" lon="6.37753">
        <ele>631.5</ele>
        <time>2026-02-22T09:05:23Z</time>
      </trkpt>
      <trkpt lat="43.59779" lon="6.37754">
        <ele>631.4</ele>
        <time>2026-02-22T09:05:24Z</time>
      </trkpt>
      <trkpt lat="43.5978" lon="6.37754">
        <ele>631.4</ele>
        <time>2026-02-22T09:05:25Z</time>
      </trkpt>
      <trkpt lat="43.5978" lon="6.37754">
        <ele>631.3</ele>
        <time>2026-02-22T09:05:26Z</time>
      </trkpt>
      <trkpt lat="43.59779" lon="6.37754">
        <ele>631.4</ele>
        <time>2026-02-22T09:05:27Z</time>
      </trkpt>
      <trkpt lat="43.59779" lon="6.37754">
        <ele>631.4</ele>
        <time>2026-02-22T09:05:28Z</time>
      </trkpt>
      <trkpt lat="43.59779" lon="6.37754">
        <ele>631.4</ele>
        <time>2026-02-22T09:05:29Z</time>
      </trkpt>
      <trkpt lat="43.59779" lon="6.37754">
        <ele>631.5</ele>
        <time>2026-02-22T09:05:30Z</time>
      </trkpt>
      <trkpt lat="43.5978" lon="6.37753">
        <ele>631.4</ele>
        <time>2026-02-22T09:05:31Z</time>
      </trkpt>
      <trkpt lat="43.5978" lon="6.37753">
        <ele>631.4</ele>
        <time>2026-02-22T09:05:32Z</time>
      </trkpt>
      <trkpt lat="43.5978" lon="6.37754">
        <ele>631.4</ele>
        <time>2026-02-22T09:05:33Z</time>
      </trkpt>
      <trkpt lat="43.5978" lon="6.37754">
        <ele>631.4</ele>
        <time>2026-02-22T09:05:34Z</time>
      </trkpt>
      <trkpt lat="43.59779" lon="6.37754">
        <ele>631.4</ele>
        <time>2026-02-22T09:05:35Z</time>
      </trkpt>
      <trkpt lat="43.59778" lon="6.37755">
        <ele>631.2</ele>
        <time>2026-02-22T09:05:36Z</time>
      </trkpt>
      <trkpt lat="43.59778" lon="6.37756">
        <ele>631.1</ele>
        <time>2026-02-22T09:05:37Z</time>
      </trkpt>
      <trkpt lat="43.59778" lon="6.37756">
        <ele>631.1</ele>
        <time>2026-02-22T09:05:38Z</time>
      </trkpt>
      <trkpt lat="43.59777" lon="6.37756">
        <ele>631</ele>
        <time>2026-02-22T09:05:39Z</time>
      </trkpt>
      <trkpt lat="43.59777" lon="6.37756">
        <ele>630.9</ele>
        <time>2026-02-22T09:05:40Z</time>
      </trkpt>
      <trkpt lat="43.59777" lon="6.37756">
        <ele>630.9</ele>
        <time>2026-02-22T09:05:41Z</time>
      </trkpt>
      <trkpt lat="43.59777" lon="6.37756">
        <ele>630.9</ele>
        <time>2026-02-22T09:05:42Z</time>
      </trkpt>
      <trkpt lat="43.59776" lon="6.37756">
        <ele>630.9</ele>
        <time>2026-02-22T09:05:43Z</time>
      </trkpt>
      <trkpt lat="43.59776" lon="6.37756">
        <ele>630.9</ele>
        <time>2026-02-22T09:05:44Z</time>
      </trkpt>
      <trkpt lat="43.59776" lon="6.37756">
        <ele>630.9</ele>
        <time>2026-02-22T09:05:45Z</time>
      </trkpt>
      <trkpt lat="43.59776" lon="6.37757">
        <ele>630.9</ele>
        <time>2026-02-22T09:05:46Z</time>
      </trkpt>
      <trkpt lat="43.59777" lon="6.37757">
        <ele>630.9</ele>
        <time>2026-02-22T09:05:47Z</time>
      </trkpt>
      <trkpt lat="43.59777" lon="6.37757">
        <ele>631</ele>
        <time>2026-02-22T09:05:48Z</time>
      </trkpt>
      <trkpt lat="43.59777" lon="6.37757">
        <ele>631.1</ele>
        <time>2026-02-22T09:05:49Z</time>
      </trkpt>
      <trkpt lat="43.59777" lon="6.37757">
        <ele>631.1</ele>
        <time>2026-02-22T09:05:50Z</time>
      </trkpt>
      <trkpt lat="43.59777" lon="6.37757">
        <ele>631.1</ele>
        <time>2026-02-22T09:05:51Z</time>
      </trkpt>
      <trkpt lat="43.59777" lon="6.37757">
        <ele>631.2</ele>
        <time>2026-02-22T09:05:52Z</time>
      </trkpt>
      <trkpt lat="43.59777" lon="6.37757">
        <ele>631.2</ele>
        <time>2026-02-22T09:05:53Z</time>
      </trkpt>
      <trkpt lat="43.59777" lon="6.37757">
        <ele>631.2</ele>
        <time>2026-02-22T09:05:54Z</time>
      </trkpt>
      <trkpt lat="43.59777" lon="6.37757">
        <ele>631.2</ele>
        <time>2026-02-22T09:05:55Z</time>
      </trkpt>
      <trkpt lat="43.59777" lon="6.37757">
        <ele>631.1</ele>
        <time>2026-02-22T09:05:56Z</time>
      </trkpt>
      <trkpt lat="43.59777" lon="6.37757">
        <ele>631</ele>
        <time>2026-02-22T09:05:57Z</time>
      </trkpt>
      <trkpt lat="43.59777" lon="6.37757">
        <ele>631</ele>
        <time>2026-02-22T09:05:58Z</time>
      </trkpt>
      <trkpt lat="43.59777" lon="6.37757">
        <ele>631</ele>
        <time>2026-02-22T09:05:59Z</time>
      </trkpt>
      <trkpt lat="43.59777" lon="6.37757">
        <ele>631</ele>
        <time>2026-02-22T09:06:00Z</time>
      </trkpt>
      <trkpt lat="43.59777" lon="6.37757">
        <ele>630.9</ele>
        <time>2026-02-22T09:06:01Z</time>
      </trkpt>
      <trkpt lat="43.59777" lon="6.37756">
        <ele>630.9</ele>
        <time>2026-02-22T09:06:02Z</time>
      </trkpt>
      <trkpt lat="43.59777" lon="6.37756">
        <ele>630.9</ele>
        <time>2026-02-22T09:06:03Z</time>
      </trkpt>
      <trkpt lat="43.59777" lon="6.37756">
        <ele>630.9</ele>
        <time>2026-02-22T09:06:04Z</time>
      </trkpt>
      <trkpt lat="43.59777" lon="6.37757">
        <ele>630.9</ele>
        <time>2026-02-22T09:06:05Z</time>
      </trkpt>
      <trkpt lat="43.59777" lon="6.37757">
        <ele>630.9</ele>
        <time>2026-02-22T09:06:06Z</time>
      </trkpt>
      <trkpt lat="43.59777" lon="6.37757">
        <ele>630.8</ele>
        <time>2026-02-22T09:06:07Z</time>
      </trkpt>
      <trkpt lat="43.59777" lon="6.37757">
        <ele>630.8</ele>
        <time>2026-02-22T09:06:08Z</time>
      </trkpt>
      <trkpt lat="43.59777" lon="6.37757">
        <ele>630.8</ele>
        <time>2026-02-22T09:06:09Z</time>
      </trkpt>
      <trkpt lat="43.59777" lon="6.37757">
        <ele>630.9</ele>
        <time>2026-02-22T09:06:10Z</time>
      </trkpt>
      <trkpt lat="43.59777" lon="6.37757">
        <ele>631</ele>
        <time>2026-02-22T09:06:11Z</time>
      </trkpt>
      <trkpt lat="43.59777" lon="6.37757">
        <ele>631</ele>
        <time>2026-02-22T09:06:12Z</time>
      </trkpt>
      <trkpt lat="43.59777" lon="6.37757">
        <ele>631.1</ele>
        <time>2026-02-22T09:06:13Z</time>
      </trkpt>
      <trkpt lat="43.59777" lon="6.37757">
        <ele>631.2</ele>
        <time>2026-02-22T09:06:14Z</time>
      </trkpt>
      <trkpt lat="43.59777" lon="6.37757">
        <ele>631.2</ele>
        <time>2026-02-22T09:06:15Z</time>
      </trkpt>
      <trkpt lat="43.59777" lon="6.37757">
        <ele>631.2</ele>
        <time>2026-02-22T09:06:16Z</time>
      </trkpt>
      <trkpt lat="43.59777" lon="6.37757">
        <ele>631.2</ele>
        <time>2026-02-22T09:06:17Z</time>
      </trkpt>
      <trkpt lat="43.59777" lon="6.37757">
        <ele>631.1</ele>
        <time>2026-02-22T09:06:18Z</time>
      </trkpt>
      <trkpt lat="43.59777" lon="6.37757">
        <ele>631.1</ele>
        <time>2026-02-22T09:06:19Z</time>
      </trkpt>
      <trkpt lat="43.59777" lon="6.37757">
        <ele>631.1</ele>
        <time>2026-02-22T09:06:20Z</time>
      </trkpt>
      <trkpt lat="43.59777" lon="6.37758">
        <ele>631.2</ele>
        <time>2026-02-22T09:06:21Z</time>
      </trkpt>
      <trkpt lat="43.59777" lon="6.37758">
        <ele>631.2</ele>
        <time>2026-02-22T09:06:22Z</time>
      </trkpt>
      <trkpt lat="43.59777" lon="6.37758">
        <ele>631.2</ele>
        <time>2026-02-22T09:06:23Z</time>
      </trkpt>
      <trkpt lat="43.59777" lon="6.37758">
        <ele>631.1</ele>
        <time>2026-02-22T09:06:24Z</time>
      </trkpt>
      <trkpt lat="43.59777" lon="6.37758">
        <ele>631</ele>
        <time>2026-02-22T09:06:25Z</time>
      </trkpt>
      <trkpt lat="43.59777" lon="6.37758">
        <ele>630.9</ele>
        <time>2026-02-22T09:06:26Z</time>
      </trkpt>
      <trkpt lat="43.59777" lon="6.37758">
        <ele>630.9</ele>
        <time>2026-02-22T09:06:27Z</time>
      </trkpt>
      <trkpt lat="43.59777" lon="6.37758">
        <ele>630.8</ele>
        <time>2026-02-22T09:06:28Z</time>
      </trkpt>
      <trkpt lat="43.59777" lon="6.37758">
        <ele>631</ele>
        <time>2026-02-22T09:06:29Z</time>
      </trkpt>
      <trkpt lat="43.59777" lon="6.37758">
        <ele>631</ele>
        <time>2026-02-22T09:06:30Z</time>
      </trkpt>
      <trkpt lat="43.59777" lon="6.37758">
        <ele>631</ele>
        <time>2026-02-22T09:06:31Z</time>
      </trkpt>
      <trkpt lat="43.59777" lon="6.37758">
        <ele>631.1</ele>
        <time>2026-02-22T09:06:32Z</time>
      </trkpt>
      <trkpt lat="43.59777" lon="6.37758">
        <ele>631.1</ele>
        <time>2026-02-22T09:06:33Z</time>
      </trkpt>
      <trkpt lat="43.59777" lon="6.37758">
        <ele>631.1</ele>
        <time>2026-02-22T09:06:34Z</time>
      </trkpt>
      <trkpt lat="43.59777" lon="6.37758">
        <ele>631.1</ele>
        <time>2026-02-22T09:06:35Z</time>
      </trkpt>
      <trkpt lat="43.59777" lon="6.37758">
        <ele>631.1</ele>
        <time>2026-02-22T09:06:36Z</time>
      </trkpt>
      <trkpt lat="43.59777" lon="6.37758">
        <ele>631.1</ele>
        <time>2026-02-22T09:06:37Z</time>
      </trkpt>
      <trkpt lat="43.59777" lon="6.37759">
        <ele>631</ele>
        <time>2026-02-22T09:06:38Z</time>
      </trkpt>
      <trkpt lat="43.59777" lon="6.37759">
        <ele>631</ele>
        <time>2026-02-22T09:06:39Z</time>
      </trkpt>
      <trkpt lat="43.59777" lon="6.37759">
        <ele>630.9</ele>
        <time>2026-02-22T09:06:40Z</time>
      </trkpt>
      <trkpt lat="43.59777" lon="6.37759">
        <ele>630.9</ele>
        <time>2026-02-22T09:06:41Z</time>
      </trkpt>
      <trkpt lat="43.59777" lon="6.37759">
        <ele>630.9</ele>
        <time>2026-02-22T09:06:42Z</time>
      </trkpt>
      <trkpt lat="43.59777" lon="6.37759">
        <ele>630.9</ele>
        <time>2026-02-22T09:06:43Z</time>
      </trkpt>
      <trkpt lat="43.59777" lon="6.37759">
        <ele>630.9</ele>
        <time>2026-02-22T09:06:44Z</time>
      </trkpt>
      <trkpt lat="43.59777" lon="6.37759">
        <ele>630.9</ele>
        <time>2026-02-22T09:06:45Z</time>
      </trkpt>
      <trkpt lat="43.59777" lon="6.37759">
        <ele>630.9</ele>
        <time>2026-02-22T09:06:46Z</time>
      </trkpt>
      <trkpt lat="43.59777" lon="6.37759">
        <ele>630.9</ele>
        <time>2026-02-22T09:06:47Z</time>
      </trkpt>
      <trkpt lat="43.59777" lon="6.37759">
        <ele>631</ele>
        <time>2026-02-22T09:06:48Z</time>
      </trkpt>
      <trkpt lat="43.59777" lon="6.37759">
        <ele>631</ele>
        <time>2026-02-22T09:06:49Z</time>
      </trkpt>
      <trkpt lat="43.59777" lon="6.37759">
        <ele>631</ele>
        <time>2026-02-22T09:06:50Z</time>
      </trkpt>
      <trkpt lat="43.59778" lon="6.37759">
        <ele>631</ele>
        <time>2026-02-22T09:06:51Z</time>
      </trkpt>
      <trkpt lat="43.59778" lon="6.37759">
        <ele>631</ele>
        <time>2026-02-22T09:06:52Z</time>
      </trkpt>
      <trkpt lat="43.59778" lon="6.37759">
        <ele>631</ele>
        <time>2026-02-22T09:06:53Z</time>
      </trkpt>
      <trkpt lat="43.59778" lon="6.37759">
        <ele>631</ele>
        <time>2026-02-22T09:06:54Z</time>
      </trkpt>
      <trkpt lat="43.59778" lon="6.3776">
        <ele>631</ele>
        <time>2026-02-22T09:06:55Z</time>
      </trkpt>
      <trkpt lat="43.59777" lon="6.3776">
        <ele>631</ele>
        <time>2026-02-22T09:06:56Z</time>
      </trkpt>
      <trkpt lat="43.59777" lon="6.3776">
        <ele>631</ele>
        <time>2026-02-22T09:06:57Z</time>
      </trkpt>
      <trkpt lat="43.59777" lon="6.3776">
        <ele>631.1</ele>
        <time>2026-02-22T09:06:58Z</time>
      </trkpt>
      <trkpt lat="43.59777" lon="6.3776">
        <ele>631.1</ele>
        <time>2026-02-22T09:06:59Z</time>
      </trkpt>
      <trkpt lat="43.59777" lon="6.3776">
        <ele>631.2</ele>
        <time>2026-02-22T09:07:00Z</time>
      </trkpt>
      <trkpt lat="43.59777" lon="6.3776">
        <ele>631.2</ele>
        <time>2026-02-22T09:07:01Z</time>
      </trkpt>
      <trkpt lat="43.59777" lon="6.3776">
        <ele>631.2</ele>
        <time>2026-02-22T09:07:02Z</time>
      </trkpt>
      <trkpt lat="43.59777" lon="6.3776">
        <ele>631.1</ele>
        <time>2026-02-22T09:07:03Z</time>
      </trkpt>
      <trkpt lat="43.59777" lon="6.3776">
        <ele>631.2</ele>
        <time>2026-02-22T09:07:04Z</time>
      </trkpt>
      <trkpt lat="43.59777" lon="6.3776">
        <ele>631.2</ele>
        <time>2026-02-22T09:07:05Z</time>
      </trkpt>
      <trkpt lat="43.59777" lon="6.37759">
        <ele>631.2</ele>
        <time>2026-02-22T09:07:06Z</time>
      </trkpt>
      <trkpt lat="43.59778" lon="6.3776">
        <ele>631.3</ele>
        <time>2026-02-22T09:07:07Z</time>
      </trkpt>
      <trkpt lat="43.59778" lon="6.3776">
        <ele>631.3</ele>
        <time>2026-02-22T09:07:08Z</time>
      </trkpt>
      <trkpt lat="43.59777" lon="6.3776">
        <ele>631.2</ele>
        <time>2026-02-22T09:07:09Z</time>
      </trkpt>
      <trkpt lat="43.59777" lon="6.3776">
        <ele>631.2</ele>
        <time>2026-02-22T09:07:10Z</time>
      </trkpt>
      <trkpt lat="43.59777" lon="6.3776">
        <ele>631.3</ele>
        <time>2026-02-22T09:07:11Z</time>
      </trkpt>
      <trkpt lat="43.59777" lon="6.3776">
        <ele>631.3</ele>
        <time>2026-02-22T09:07:12Z</time>
      </trkpt>
      <trkpt lat="43.59777" lon="6.3776">
        <ele>631.3</ele>
        <time>2026-02-22T09:07:13Z</time>
      </trkpt>
      <trkpt lat="43.59778" lon="6.3776">
        <ele>631.4</ele>
        <time>2026-02-22T09:07:14Z</time>
      </trkpt>
      <trkpt lat="43.59778" lon="6.3776">
        <ele>631.5</ele>
        <time>2026-02-22T09:07:15Z</time>
      </trkpt>
      <trkpt lat="43.59778" lon="6.3776">
        <ele>631.4</ele>
        <time>2026-02-22T09:07:16Z</time>
      </trkpt>
      <trkpt lat="43.59778" lon="6.3776">
        <ele>631.4</ele>
        <time>2026-02-22T09:07:17Z</time>
      </trkpt>
      <trkpt lat="43.59778" lon="6.3776">
        <ele>631.4</ele>
        <time>2026-02-22T09:07:18Z</time>
      </trkpt>
      <trkpt lat="43.59778" lon="6.3776">
        <ele>631.3</ele>
        <time>2026-02-22T09:07:19Z</time>
      </trkpt>
      <trkpt lat="43.59778" lon="6.37761">
        <ele>631.4</ele>
        <time>2026-02-22T09:07:20Z</time>
      </trkpt>
      <trkpt lat="43.59778" lon="6.37761">
        <ele>631.4</ele>
        <time>2026-02-22T09:07:21Z</time>
      </trkpt>
      <trkpt lat="43.59778" lon="6.37761">
        <ele>631.4</ele>
        <time>2026-02-22T09:07:22Z</time>
      </trkpt>
      <trkpt lat="43.59778" lon="6.37761">
        <ele>631.4</ele>
        <time>2026-02-22T09:07:23Z</time>
      </trkpt>
      <trkpt lat="43.59778" lon="6.37761">
        <ele>631.3</ele>
        <time>2026-02-22T09:07:24Z</time>
      </trkpt>
      <trkpt lat="43.59778" lon="6.37761">
        <ele>631.2</ele>
        <time>2026-02-22T09:07:25Z</time>
      </trkpt>
      <trkpt lat="43.59778" lon="6.37761">
        <ele>631.2</ele>
        <time>2026-02-22T09:07:26Z</time>
      </trkpt>
      <trkpt lat="43.59778" lon="6.37761">
        <ele>631.2</ele>
        <time>2026-02-22T09:07:27Z</time>
      </trkpt>
      <trkpt lat="43.59778" lon="6.37761">
        <ele>631.1</ele>
        <time>2026-02-22T09:07:28Z</time>
      </trkpt>
      <trkpt lat="43.59778" lon="6.37761">
        <ele>631.1</ele>
        <time>2026-02-22T09:07:29Z</time>
      </trkpt>
      <trkpt lat="43.59778" lon="6.37761">
        <ele>631</ele>
        <time>2026-02-22T09:07:30Z</time>
      </trkpt>
      <trkpt lat="43.59778" lon="6.37761">
        <ele>631</ele>
        <time>2026-02-22T09:07:31Z</time>
      </trkpt>
      <trkpt lat="43.59778" lon="6.37761">
        <ele>631</ele>
        <time>2026-02-22T09:07:32Z</time>
      </trkpt>
      <trkpt lat="43.59778" lon="6.37761">
        <ele>631</ele>
        <time>2026-02-22T09:07:33Z</time>
      </trkpt>
      <trkpt lat="43.59778" lon="6.37761">
        <ele>631</ele>
        <time>2026-02-22T09:07:34Z</time>
      </trkpt>
      <trkpt lat="43.59778" lon="6.3776">
        <ele>631</ele>
        <time>2026-02-22T09:07:35Z</time>
      </trkpt>
      <trkpt lat="43.59778" lon="6.3776">
        <ele>631.1</ele>
        <time>2026-02-22T09:07:36Z</time>
      </trkpt>
      <trkpt lat="43.59778" lon="6.3776">
        <ele>631.1</ele>
        <time>2026-02-22T09:07:37Z</time>
      </trkpt>
      <trkpt lat="43.59778" lon="6.3776">
        <ele>631.2</ele>
        <time>2026-02-22T09:07:38Z</time>
      </trkpt>
      <trkpt lat="43.59778" lon="6.3776">
        <ele>631.2</ele>
        <time>2026-02-22T09:07:39Z</time>
      </trkpt>
      <trkpt lat="43.59778" lon="6.3776">
        <ele>631.2</ele>
        <time>2026-02-22T09:07:40Z</time>
      </trkpt>
      <trkpt lat="43.59778" lon="6.3776">
        <ele>631.1</ele>
        <time>2026-02-22T09:07:41Z</time>
      </trkpt>
      <trkpt lat="43.59778" lon="6.3776">
        <ele>631.1</ele>
        <time>2026-02-22T09:07:42Z</time>
      </trkpt>
      <trkpt lat="43.59778" lon="6.3776">
        <ele>631.1</ele>
        <time>2026-02-22T09:07:43Z</time>
      </trkpt>
      <trkpt lat="43.59778" lon="6.3776">
        <ele>631.1</ele>
        <time>2026-02-22T09:07:44Z</time>
      </trkpt>
      <trkpt lat="43.59778" lon="6.3776">
        <ele>631</ele>
        <time>2026-02-22T09:07:45Z</time>
      </trkpt>
      <trkpt lat="43.59778" lon="6.3776">
        <ele>631.1</ele>
        <time>2026-02-22T09:07:46Z</time>
      </trkpt>
      <trkpt lat="43.59779" lon="6.3776">
        <ele>631.1</ele>
        <time>2026-02-22T09:07:47Z</time>
      </trkpt>
      <trkpt lat="43.59779" lon="6.3776">
        <ele>631.2</ele>
        <time>2026-02-22T09:07:48Z</time>
      </trkpt>
      <trkpt lat="43.59779" lon="6.3776">
        <ele>631.2</ele>
        <time>2026-02-22T09:07:49Z</time>
      </trkpt>
      <trkpt lat="43.59778" lon="6.3776">
        <ele>631.2</ele>
        <time>2026-02-22T09:07:50Z</time>
      </trkpt>
      <trkpt lat="43.59778" lon="6.3776">
        <ele>631.3</ele>
        <time>2026-02-22T09:07:51Z</time>
      </trkpt>
      <trkpt lat="43.59778" lon="6.3776">
        <ele>631.3</ele>
        <time>2026-02-22T09:07:52Z</time>
      </trkpt>
      <trkpt lat="43.59779" lon="6.3776">
        <ele>631.3</ele>
        <time>2026-02-22T09:07:53Z</time>
      </trkpt>
      <trkpt lat="43.59779" lon="6.37761">
        <ele>631.3</ele>
        <time>2026-02-22T09:07:54Z</time>
      </trkpt>
      <trkpt lat="43.59779" lon="6.37761">
        <ele>631.3</ele>
        <time>2026-02-22T09:07:55Z</time>
      </trkpt>
      <trkpt lat="43.59779" lon="6.37761">
        <ele>631.3</ele>
        <time>2026-02-22T09:07:56Z</time>
      </trkpt>
      <trkpt lat="43.59779" lon="6.37761">
        <ele>631.3</ele>
        <time>2026-02-22T09:07:57Z</time>
      </trkpt>
      <trkpt lat="43.59779" lon="6.37761">
        <ele>631.3</ele>
        <time>2026-02-22T09:07:58Z</time>
      </trkpt>
      <trkpt lat="43.59779" lon="6.37761">
        <ele>631.3</ele>
        <time>2026-02-22T09:07:59Z</time>
      </trkpt>
      <trkpt lat="43.59779" lon="6.37761">
        <ele>631.3</ele>
        <time>2026-02-22T09:08:00Z</time>
      </trkpt>
      <trkpt lat="43.59779" lon="6.37761">
        <ele>631.1</ele>
        <time>2026-02-22T09:08:01Z</time>
      </trkpt>
      <trkpt lat="43.59779" lon="6.37761">
        <ele>631.1</ele>
        <time>2026-02-22T09:08:02Z</time>
      </trkpt>
      <trkpt lat="43.59779" lon="6.37761">
        <ele>631.1</ele>
        <time>2026-02-22T09:08:03Z</time>
      </trkpt>
      <trkpt lat="43.59779" lon="6.37761">
        <ele>631</ele>
        <time>2026-02-22T09:08:04Z</time>
      </trkpt>
      <trkpt lat="43.59779" lon="6.37762">
        <ele>631.1</ele>
        <time>2026-02-22T09:08:05Z</time>
      </trkpt>
      <trkpt lat="43.59779" lon="6.37762">
        <ele>631.2</ele>
        <time>2026-02-22T09:08:06Z</time>
      </trkpt>
      <trkpt lat="43.5978" lon="6.37762">
        <ele>631.1</ele>
        <time>2026-02-22T09:08:07Z</time>
      </trkpt>
      <trkpt lat="43.5978" lon="6.37762">
        <ele>631.1</ele>
        <time>2026-02-22T09:08:08Z</time>
      </trkpt>
      <trkpt lat="43.5978" lon="6.37762">
        <ele>631.1</ele>
        <time>2026-02-22T09:08:09Z</time>
      </trkpt>
      <trkpt lat="43.5978" lon="6.37762">
        <ele>631</ele>
        <time>2026-02-22T09:08:10Z</time>
      </trkpt>
      <trkpt lat="43.5978" lon="6.37762">
        <ele>630.9</ele>
        <time>2026-02-22T09:08:11Z</time>
      </trkpt>
      <trkpt lat="43.5978" lon="6.37762">
        <ele>630.8</ele>
        <time>2026-02-22T09:08:12Z</time>
      </trkpt>
      <trkpt lat="43.59779" lon="6.37761">
        <ele>630.7</ele>
        <time>2026-02-22T09:08:13Z</time>
      </trkpt>
      <trkpt lat="43.59779" lon="6.37761">
        <ele>630.7</ele>
        <time>2026-02-22T09:08:14Z</time>
      </trkpt>
      <trkpt lat="43.59778" lon="6.37762">
        <ele>630.6</ele>
        <time>2026-02-22T09:08:15Z</time>
      </trkpt>
      <trkpt lat="43.59778" lon="6.37762">
        <ele>630.6</ele>
        <time>2026-02-22T09:08:16Z</time>
      </trkpt>
      <trkpt lat="43.59778" lon="6.37763">
        <ele>630.7</ele>
        <time>2026-02-22T09:08:17Z</time>
      </trkpt>
      <trkpt lat="43.59778" lon="6.37763">
        <ele>630.8</ele>
        <time>2026-02-22T09:08:18Z</time>
      </trkpt>
      <trkpt lat="43.59778" lon="6.37763">
        <ele>630.7</ele>
        <time>2026-02-22T09:08:19Z</time>
      </trkpt>
      <trkpt lat="43.59777" lon="6.37764">
        <ele>630.8</ele>
        <time>2026-02-22T09:08:20Z</time>
      </trkpt>
      <trkpt lat="43.59777" lon="6.37765">
        <ele>630.8</ele>
        <time>2026-02-22T09:08:21Z</time>
      </trkpt>
      <trkpt lat="43.59777" lon="6.37765">
        <ele>630.8</ele>
        <time>2026-02-22T09:08:22Z</time>
      </trkpt>
      <trkpt lat="43.59776" lon="6.37766">
        <ele>630.7</ele>
        <time>2026-02-22T09:08:23Z</time>
      </trkpt>
      <trkpt lat="43.59776" lon="6.37766">
        <ele>630.6</ele>
        <time>2026-02-22T09:08:24Z</time>
      </trkpt>
      <trkpt lat="43.59776" lon="6.37766">
        <ele>630.6</ele>
        <time>2026-02-22T09:08:25Z</time>
      </trkpt>
      <trkpt lat="43.59775" lon="6.37767">
        <ele>630.5</ele>
        <time>2026-02-22T09:08:26Z</time>
      </trkpt>
      <trkpt lat="43.59775" lon="6.37767">
        <ele>630.3</ele>
        <time>2026-02-22T09:08:27Z</time>
      </trkpt>
      <trkpt lat="43.59774" lon="6.37768">
        <ele>630.3</ele>
        <time>2026-02-22T09:08:28Z</time>
      </trkpt>
      <trkpt lat="43.59774" lon="6.37767">
        <ele>630.3</ele>
        <time>2026-02-22T09:08:29Z</time>
      </trkpt>
      <trkpt lat="43.59773" lon="6.37767">
        <ele>630.3</ele>
        <time>2026-02-22T09:08:30Z</time>
      </trkpt>
      <trkpt lat="43.59772" lon="6.37766">
        <ele>630.2</ele>
        <time>2026-02-22T09:08:31Z</time>
      </trkpt>
      <trkpt lat="43.59771" lon="6.37765">
        <ele>630.2</ele>
        <time>2026-02-22T09:08:32Z</time>
      </trkpt>
      <trkpt lat="43.5977" lon="6.37765">
        <ele>630.2</ele>
        <time>2026-02-22T09:08:33Z</time>
      </trkpt>
      <trkpt lat="43.59769" lon="6.37765">
        <ele>630.2</ele>
        <time>2026-02-22T09:08:34Z</time>
      </trkpt>
      <trkpt lat="43.59768" lon="6.37765">
        <ele>630.1</ele>
        <time>2026-02-22T09:08:35Z</time>
      </trkpt>
      <trkpt lat="43.59768" lon="6.37765">
        <ele>630</ele>
        <time>2026-02-22T09:08:36Z</time>
      </trkpt>
      <trkpt lat="43.59767" lon="6.37765">
        <ele>630</ele>
        <time>2026-02-22T09:08:37Z</time>
      </trkpt>
      <trkpt lat="43.59766" lon="6.37765">
        <ele>630.2</ele>
        <time>2026-02-22T09:08:38Z</time>
      </trkpt>
      <trkpt lat="43.59766" lon="6.37765">
        <ele>630.3</ele>
        <time>2026-02-22T09:08:39Z</time>
      </trkpt>
      <trkpt lat="43.59765" lon="6.37766">
        <ele>630.3</ele>
        <time>2026-02-22T09:08:40Z</time>
      </trkpt>
      <trkpt lat="43.59764" lon="6.37766">
        <ele>630.3</ele>
        <time>2026-02-22T09:08:41Z</time>
      </trkpt>
      <trkpt lat="43.59764" lon="6.37767">
        <ele>630.2</ele>
        <time>2026-02-22T09:08:42Z</time>
      </trkpt>
      <trkpt lat="43.59764" lon="6.37767">
        <ele>630.2</ele>
        <time>2026-02-22T09:08:43Z</time>
      </trkpt>
      <trkpt lat="43.59763" lon="6.37768">
        <ele>630.1</ele>
        <time>2026-02-22T09:08:44Z</time>
      </trkpt>
      <trkpt lat="43.59763" lon="6.37768">
        <ele>630</ele>
        <time>2026-02-22T09:08:45Z</time>
      </trkpt>
      <trkpt lat="43.59762" lon="6.37769">
        <ele>629.8</ele>
        <time>2026-02-22T09:08:46Z</time>
      </trkpt>
      <trkpt lat="43.59762" lon="6.3777">
        <ele>629.6</ele>
        <time>2026-02-22T09:08:47Z</time>
      </trkpt>
      <trkpt lat="43.59762" lon="6.3777">
        <ele>629.5</ele>
        <time>2026-02-22T09:08:48Z</time>
      </trkpt>
      <trkpt lat="43.59761" lon="6.37771">
        <ele>629.3</ele>
        <time>2026-02-22T09:08:49Z</time>
      </trkpt>
      <trkpt lat="43.59761" lon="6.37772">
        <ele>629.2</ele>
        <time>2026-02-22T09:08:50Z</time>
      </trkpt>
      <trkpt lat="43.5976" lon="6.37772">
        <ele>629.2</ele>
        <time>2026-02-22T09:08:51Z</time>
      </trkpt>
      <trkpt lat="43.5976" lon="6.37773">
        <ele>629.1</ele>
        <time>2026-02-22T09:08:52Z</time>
      </trkpt>
      <trkpt lat="43.59759" lon="6.37773">
        <ele>629</ele>
        <time>2026-02-22T09:08:53Z</time>
      </trkpt>
      <trkpt lat="43.59758" lon="6.37773">
        <ele>629</ele>
        <time>2026-02-22T09:08:54Z</time>
      </trkpt>
      <trkpt lat="43.59757" lon="6.37773">
        <ele>628.9</ele>
        <time>2026-02-22T09:08:55Z</time>
      </trkpt>
      <trkpt lat="43.59756" lon="6.37773">
        <ele>628.8</ele>
        <time>2026-02-22T09:08:56Z</time>
      </trkpt>
      <trkpt lat="43.59756" lon="6.37773">
        <ele>628.7</ele>
        <time>2026-02-22T09:08:57Z</time>
      </trkpt>
      <trkpt lat="43.59755" lon="6.37773">
        <ele>628.7</ele>
        <time>2026-02-22T09:08:58Z</time>
      </trkpt>
      <trkpt lat="43.59754" lon="6.37774">
        <ele>628.7</ele>
        <time>2026-02-22T09:08:59Z</time>
      </trkpt>
      <trkpt lat="43.59753" lon="6.37774">
        <ele>628.7</ele>
        <time>2026-02-22T09:09:00Z</time>
      </trkpt>
      <trkpt lat="43.59752" lon="6.37774">
        <ele>628.6</ele>
        <time>2026-02-22T09:09:01Z</time>
      </trkpt>
      <trkpt lat="43.59751" lon="6.37775">
        <ele>628.6</ele>
        <time>2026-02-22T09:09:02Z</time>
      </trkpt>
      <trkpt lat="43.5975" lon="6.37776">
        <ele>628.5</ele>
        <time>2026-02-22T09:09:03Z</time>
      </trkpt>
      <trkpt lat="43.5975" lon="6.37776">
        <ele>628.4</ele>
        <time>2026-02-22T09:09:04Z</time>
      </trkpt>
      <trkpt lat="43.59749" lon="6.37776">
        <ele>628.3</ele>
        <time>2026-02-22T09:09:05Z</time>
      </trkpt>
      <trkpt lat="43.59748" lon="6.37776">
        <ele>628.2</ele>
        <time>2026-02-22T09:09:06Z</time>
      </trkpt>
      <trkpt lat="43.59747" lon="6.37777">
        <ele>628.2</ele>
        <time>2026-02-22T09:09:07Z</time>
      </trkpt>
      <trkpt lat="43.59746" lon="6.37777">
        <ele>628.2</ele>
        <time>2026-02-22T09:09:08Z</time>
      </trkpt>
      <trkpt lat="43.59745" lon="6.37776">
        <ele>628</ele>
        <time>2026-02-22T09:09:09Z</time>
      </trkpt>
      <trkpt lat="43.59744" lon="6.37776">
        <ele>628</ele>
        <time>2026-02-22T09:09:10Z</time>
      </trkpt>
      <trkpt lat="43.59744" lon="6.37776">
        <ele>628</ele>
        <time>2026-02-22T09:09:11Z</time>
      </trkpt>
      <trkpt lat="43.59743" lon="6.37776">
        <ele>628</ele>
        <time>2026-02-22T09:09:12Z</time>
      </trkpt>
      <trkpt lat="43.59742" lon="6.37776">
        <ele>628</ele>
        <time>2026-02-22T09:09:13Z</time>
      </trkpt>
      <trkpt lat="43.59741" lon="6.37776">
        <ele>628</ele>
        <time>2026-02-22T09:09:14Z</time>
      </trkpt>
      <trkpt lat="43.5974" lon="6.37776">
        <ele>628.1</ele>
        <time>2026-02-22T09:09:15Z</time>
      </trkpt>
      <trkpt lat="43.59739" lon="6.37777">
        <ele>628.1</ele>
        <time>2026-02-22T09:09:16Z</time>
      </trkpt>
      <trkpt lat="43.59738" lon="6.37777">
        <ele>628.1</ele>
        <time>2026-02-22T09:09:17Z</time>
      </trkpt>
      <trkpt lat="43.59737" lon="6.37777">
        <ele>628.1</ele>
        <time>2026-02-22T09:09:18Z</time>
      </trkpt>
      <trkpt lat="43.59736" lon="6.37778">
        <ele>628.1</ele>
        <time>2026-02-22T09:09:19Z</time>
      </trkpt>
      <trkpt lat="43.59735" lon="6.37778">
        <ele>628.1</ele>
        <time>2026-02-22T09:09:20Z</time>
      </trkpt>
      <trkpt lat="43.59735" lon="6.37778">
        <ele>628.1</ele>
        <time>2026-02-22T09:09:21Z</time>
      </trkpt>
      <trkpt lat="43.59734" lon="6.37779">
        <ele>628</ele>
        <time>2026-02-22T09:09:22Z</time>
      </trkpt>
      <trkpt lat="43.59734" lon="6.3778">
        <ele>627.9</ele>
        <time>2026-02-22T09:09:23Z</time>
      </trkpt>
      <trkpt lat="43.59734" lon="6.37781">
        <ele>627.8</ele>
        <time>2026-02-22T09:09:24Z</time>
      </trkpt>
      <trkpt lat="43.59734" lon="6.37782">
        <ele>627.8</ele>
        <time>2026-02-22T09:09:25Z</time>
      </trkpt>
      <trkpt lat="43.59734" lon="6.37783">
        <ele>627.7</ele>
        <time>2026-02-22T09:09:26Z</time>
      </trkpt>
      <trkpt lat="43.59734" lon="6.37784">
        <ele>627.6</ele>
        <time>2026-02-22T09:09:27Z</time>
      </trkpt>
      <trkpt lat="43.59734" lon="6.37785">
        <ele>627.6</ele>
        <time>2026-02-22T09:09:28Z</time>
      </trkpt>
      <trkpt lat="43.59734" lon="6.37786">
        <ele>627.5</ele>
        <time>2026-02-22T09:09:29Z</time>
      </trkpt>
      <trkpt lat="43.59734" lon="6.37787">
        <ele>627.4</ele>
        <time>2026-02-22T09:09:30Z</time>
      </trkpt>
      <trkpt lat="43.59734" lon="6.37787">
        <ele>627.2</ele>
        <time>2026-02-22T09:09:31Z</time>
      </trkpt>
      <trkpt lat="43.59733" lon="6.37788">
        <ele>627.1</ele>
        <time>2026-02-22T09:09:32Z</time>
      </trkpt>
      <trkpt lat="43.59733" lon="6.37789">
        <ele>626.8</ele>
        <time>2026-02-22T09:09:33Z</time>
      </trkpt>
      <trkpt lat="43.59733" lon="6.3779">
        <ele>626.8</ele>
        <time>2026-02-22T09:09:34Z</time>
      </trkpt>
      <trkpt lat="43.59733" lon="6.37791">
        <ele>626.6</ele>
        <time>2026-02-22T09:09:35Z</time>
      </trkpt>
      <trkpt lat="43.59733" lon="6.37791">
        <ele>626.6</ele>
        <time>2026-02-22T09:09:36Z</time>
      </trkpt>
      <trkpt lat="43.59733" lon="6.37792">
        <ele>626.5</ele>
        <time>2026-02-22T09:09:37Z</time>
      </trkpt>
      <trkpt lat="43.59732" lon="6.37793">
        <ele>626.4</ele>
        <time>2026-02-22T09:09:38Z</time>
      </trkpt>
      <trkpt lat="43.59732" lon="6.37794">
        <ele>626.3</ele>
        <time>2026-02-22T09:09:39Z</time>
      </trkpt>
      <trkpt lat="43.59732" lon="6.37794">
        <ele>626.1</ele>
        <time>2026-02-22T09:09:40Z</time>
      </trkpt>
      <trkpt lat="43.59732" lon="6.37795">
        <ele>626</ele>
        <time>2026-02-22T09:09:41Z</time>
      </trkpt>
      <trkpt lat="43.59732" lon="6.37795">
        <ele>625.9</ele>
        <time>2026-02-22T09:09:42Z</time>
      </trkpt>
      <trkpt lat="43.59732" lon="6.37796">
        <ele>625.7</ele>
        <time>2026-02-22T09:09:43Z</time>
      </trkpt>
      <trkpt lat="43.59732" lon="6.37796">
        <ele>625.6</ele>
        <time>2026-02-22T09:09:44Z</time>
      </trkpt>
      <trkpt lat="43.59732" lon="6.37797">
        <ele>625.5</ele>
        <time>2026-02-22T09:09:45Z</time>
      </trkpt>
      <trkpt lat="43.59731" lon="6.37799">
        <ele>625.5</ele>
        <time>2026-02-22T09:09:46Z</time>
      </trkpt>
      <trkpt lat="43.59731" lon="6.378">
        <ele>625.4</ele>
        <time>2026-02-22T09:09:47Z</time>
      </trkpt>
      <trkpt lat="43.59731" lon="6.37801">
        <ele>625.2</ele>
        <time>2026-02-22T09:09:48Z</time>
      </trkpt>
      <trkpt lat="43.59731" lon="6.37802">
        <ele>625.1</ele>
        <time>2026-02-22T09:09:49Z</time>
      </trkpt>
      <trkpt lat="43.59731" lon="6.37803">
        <ele>625.1</ele>
        <time>2026-02-22T09:09:50Z</time>
      </trkpt>
      <trkpt lat="43.59732" lon="6.37804">
        <ele>625</ele>
        <time>2026-02-22T09:09:51Z</time>
      </trkpt>
      <trkpt lat="43.59732" lon="6.37804">
        <ele>624.8</ele>
        <time>2026-02-22T09:09:52Z</time>
      </trkpt>
      <trkpt lat="43.59732" lon="6.37806">
        <ele>624.6</ele>
        <time>2026-02-22T09:09:53Z</time>
      </trkpt>
      <trkpt lat="43.59732" lon="6.37807">
        <ele>624.5</ele>
        <time>2026-02-22T09:09:54Z</time>
      </trkpt>
      <trkpt lat="43.59732" lon="6.37808">
        <ele>624.4</ele>
        <time>2026-02-22T09:09:55Z</time>
      </trkpt>
      <trkpt lat="43.59733" lon="6.37809">
        <ele>624.3</ele>
        <time>2026-02-22T09:09:56Z</time>
      </trkpt>
      <trkpt lat="43.59733" lon="6.37809">
        <ele>624.2</ele>
        <time>2026-02-22T09:09:57Z</time>
      </trkpt>
      <trkpt lat="43.59734" lon="6.37811">
        <ele>624.1</ele>
        <time>2026-02-22T09:09:58Z</time>
      </trkpt>
      <trkpt lat="43.59734" lon="6.37812">
        <ele>624</ele>
        <time>2026-02-22T09:09:59Z</time>
      </trkpt>
      <trkpt lat="43.59734" lon="6.37813">
        <ele>623.9</ele>
        <time>2026-02-22T09:10:00Z</time>
      </trkpt>
      <trkpt lat="43.59734" lon="6.37814">
        <ele>623.9</ele>
        <time>2026-02-22T09:10:01Z</time>
      </trkpt>
      <trkpt lat="43.59735" lon="6.37815">
        <ele>623.8</ele>
        <time>2026-02-22T09:10:02Z</time>
      </trkpt>
      <trkpt lat="43.59735" lon="6.37816">
        <ele>623.8</ele>
        <time>2026-02-22T09:10:03Z</time>
      </trkpt>
      <trkpt lat="43.59735" lon="6.37817">
        <ele>623.8</ele>
        <time>2026-02-22T09:10:04Z</time>
      </trkpt>
      <trkpt lat="43.59735" lon="6.37818">
        <ele>623.7</ele>
        <time>2026-02-22T09:10:05Z</time>
      </trkpt>
      <trkpt lat="43.59735" lon="6.37819">
        <ele>623.7</ele>
        <time>2026-02-22T09:10:06Z</time>
      </trkpt>
      <trkpt lat="43.59735" lon="6.3782">
        <ele>623.6</ele>
        <time>2026-02-22T09:10:07Z</time>
      </trkpt>
      <trkpt lat="43.59735" lon="6.37821">
        <ele>623.5</ele>
        <time>2026-02-22T09:10:08Z</time>
      </trkpt>
      <trkpt lat="43.59735" lon="6.37822">
        <ele>623.5</ele>
        <time>2026-02-22T09:10:09Z</time>
      </trkpt>
      <trkpt lat="43.59735" lon="6.37823">
        <ele>623.4</ele>
        <time>2026-02-22T09:10:10Z</time>
      </trkpt>
      <trkpt lat="43.59735" lon="6.37824">
        <ele>623.3</ele>
        <time>2026-02-22T09:10:11Z</time>
      </trkpt>
      <trkpt lat="43.59735" lon="6.37824">
        <ele>623.3</ele>
        <time>2026-02-22T09:10:12Z</time>
      </trkpt>
      <trkpt lat="43.59735" lon="6.37825">
        <ele>623.2</ele>
        <time>2026-02-22T09:10:13Z</time>
      </trkpt>
      <trkpt lat="43.59736" lon="6.37826">
        <ele>623.1</ele>
        <time>2026-02-22T09:10:14Z</time>
      </trkpt>
      <trkpt lat="43.59736" lon="6.37827">
        <ele>623</ele>
        <time>2026-02-22T09:10:15Z</time>
      </trkpt>
      <trkpt lat="43.59737" lon="6.37828">
        <ele>622.8</ele>
        <time>2026-02-22T09:10:16Z</time>
      </trkpt>
      <trkpt lat="43.59737" lon="6.37828">
        <ele>622.6</ele>
        <time>2026-02-22T09:10:17Z</time>
      </trkpt>
      <trkpt lat="43.59737" lon="6.37829">
        <ele>622.6</ele>
        <time>2026-02-22T09:10:18Z</time>
      </trkpt>
      <trkpt lat="43.59737" lon="6.37829">
        <ele>622.5</ele>
        <time>2026-02-22T09:10:19Z</time>
      </trkpt>
      <trkpt lat="43.59737" lon="6.3783">
        <ele>622.4</ele>
        <time>2026-02-22T09:10:20Z</time>
      </trkpt>
      <trkpt lat="43.59737" lon="6.37831">
        <ele>622.3</ele>
        <time>2026-02-22T09:10:21Z</time>
      </trkpt>
      <trkpt lat="43.59737" lon="6.37831">
        <ele>622.2</ele>
        <time>2026-02-22T09:10:22Z</time>
      </trkpt>
      <trkpt lat="43.59737" lon="6.37831">
        <ele>622</ele>
        <time>2026-02-22T09:10:23Z</time>
      </trkpt>
      <trkpt lat="43.59737" lon="6.37832">
        <ele>621.9</ele>
        <time>2026-02-22T09:10:24Z</time>
      </trkpt>
      <trkpt lat="43.59737" lon="6.37833">
        <ele>621.7</ele>
        <time>2026-02-22T09:10:25Z</time>
      </trkpt>
      <trkpt lat="43.59737" lon="6.37833">
        <ele>621.5</ele>
        <time>2026-02-22T09:10:26Z</time>
      </trkpt>
      <trkpt lat="43.59737" lon="6.37834">
        <ele>621.3</ele>
        <time>2026-02-22T09:10:27Z</time>
      </trkpt>
      <trkpt lat="43.59737" lon="6.37834">
        <ele>621.3</ele>
        <time>2026-02-22T09:10:28Z</time>
      </trkpt>
      <trkpt lat="43.59737" lon="6.37834">
        <ele>621.2</ele>
        <time>2026-02-22T09:10:29Z</time>
      </trkpt>
      <trkpt lat="43.59736" lon="6.37835">
        <ele>621.1</ele>
        <time>2026-02-22T09:10:30Z</time>
      </trkpt>
      <trkpt lat="43.59736" lon="6.37835">
        <ele>620.9</ele>
        <time>2026-02-22T09:10:31Z</time>
      </trkpt>
      <trkpt lat="43.59735" lon="6.37835">
        <ele>620.9</ele>
        <time>2026-02-22T09:10:32Z</time>
      </trkpt>
      <trkpt lat="43.59736" lon="6.37836">
        <ele>620.8</ele>
        <time>2026-02-22T09:10:33Z</time>
      </trkpt>
      <trkpt lat="43.59735" lon="6.37836">
        <ele>620.8</ele>
        <time>2026-02-22T09:10:34Z</time>
      </trkpt>
      <trkpt lat="43.59735" lon="6.37836">
        <ele>620.7</ele>
        <time>2026-02-22T09:10:35Z</time>
      </trkpt>
      <trkpt lat="43.59735" lon="6.37837">
        <ele>620.7</ele>
        <time>2026-02-22T09:10:36Z</time>
      </trkpt>
      <trkpt lat="43.59734" lon="6.37837">
        <ele>620.5</ele>
        <time>2026-02-22T09:10:37Z</time>
      </trkpt>
      <trkpt lat="43.59734" lon="6.37837">
        <ele>620.4</ele>
        <time>2026-02-22T09:10:38Z</time>
      </trkpt>
      <trkpt lat="43.59734" lon="6.37838">
        <ele>620.4</ele>
        <time>2026-02-22T09:10:39Z</time>
      </trkpt>
      <trkpt lat="43.59733" lon="6.37839">
        <ele>620.2</ele>
        <time>2026-02-22T09:10:40Z</time>
      </trkpt>
      <trkpt lat="43.59733" lon="6.37839">
        <ele>620.1</ele>
        <time>2026-02-22T09:10:41Z</time>
      </trkpt>
      <trkpt lat="43.59733" lon="6.3784">
        <ele>620.1</ele>
        <time>2026-02-22T09:10:42Z</time>
      </trkpt>
      <trkpt lat="43.59733" lon="6.3784">
        <ele>619.9</ele>
        <time>2026-02-22T09:10:43Z</time>
      </trkpt>
      <trkpt lat="43.59733" lon="6.37841">
        <ele>619.8</ele>
        <time>2026-02-22T09:10:44Z</time>
      </trkpt>
      <trkpt lat="43.59734" lon="6.37842">
        <ele>619.6</ele>
        <time>2026-02-22T09:10:45Z</time>
      </trkpt>
      <trkpt lat="43.59734" lon="6.37843">
        <ele>619.4</ele>
        <time>2026-02-22T09:10:46Z</time>
      </trkpt>
      <trkpt lat="43.59734" lon="6.37844">
        <ele>619.4</ele>
        <time>2026-02-22T09:10:47Z</time>
      </trkpt>
      <trkpt lat="43.59734" lon="6.37845">
        <ele>619.3</ele>
        <time>2026-02-22T09:10:48Z</time>
      </trkpt>
      <trkpt lat="43.59734" lon="6.37845">
        <ele>619.3</ele>
        <time>2026-02-22T09:10:49Z</time>
      </trkpt>
      <trkpt lat="43.59735" lon="6.37846">
        <ele>619.2</ele>
        <time>2026-02-22T09:10:50Z</time>
      </trkpt>
      <trkpt lat="43.59735" lon="6.37847">
        <ele>619</ele>
        <time>2026-02-22T09:10:51Z</time>
      </trkpt>
      <trkpt lat="43.59735" lon="6.37848">
        <ele>618.8</ele>
        <time>2026-02-22T09:10:52Z</time>
      </trkpt>
      <trkpt lat="43.59736" lon="6.37848">
        <ele>618.7</ele>
        <time>2026-02-22T09:10:53Z</time>
      </trkpt>
      <trkpt lat="43.59736" lon="6.37849">
        <ele>618.5</ele>
        <time>2026-02-22T09:10:54Z</time>
      </trkpt>
      <trkpt lat="43.59736" lon="6.37849">
        <ele>618.5</ele>
        <time>2026-02-22T09:10:55Z</time>
      </trkpt>
      <trkpt lat="43.59736" lon="6.3785">
        <ele>618.5</ele>
        <time>2026-02-22T09:10:56Z</time>
      </trkpt>
      <trkpt lat="43.59737" lon="6.3785">
        <ele>618.4</ele>
        <time>2026-02-22T09:10:57Z</time>
      </trkpt>
      <trkpt lat="43.59737" lon="6.37851">
        <ele>618.3</ele>
        <time>2026-02-22T09:10:58Z</time>
      </trkpt>
      <trkpt lat="43.59736" lon="6.37852">
        <ele>618.1</ele>
        <time>2026-02-22T09:10:59Z</time>
      </trkpt>
      <trkpt lat="43.59736" lon="6.37852">
        <ele>617.9</ele>
        <time>2026-02-22T09:11:00Z</time>
      </trkpt>
      <trkpt lat="43.59736" lon="6.37853">
        <ele>617.8</ele>
        <time>2026-02-22T09:11:01Z</time>
      </trkpt>
      <trkpt lat="43.59736" lon="6.37853">
        <ele>617.7</ele>
        <time>2026-02-22T09:11:02Z</time>
      </trkpt>
      <trkpt lat="43.59736" lon="6.37854">
        <ele>617.6</ele>
        <time>2026-02-22T09:11:03Z</time>
      </trkpt>
      <trkpt lat="43.59736" lon="6.37855">
        <ele>617.4</ele>
        <time>2026-02-22T09:11:04Z</time>
      </trkpt>
      <trkpt lat="43.59736" lon="6.37856">
        <ele>617.3</ele>
        <time>2026-02-22T09:11:05Z</time>
      </trkpt>
      <trkpt lat="43.59736" lon="6.37857">
        <ele>617.1</ele>
        <time>2026-02-22T09:11:06Z</time>
      </trkpt>
      <trkpt lat="43.59736" lon="6.37858">
        <ele>617</ele>
        <time>2026-02-22T09:11:07Z</time>
      </trkpt>
      <trkpt lat="43.59736" lon="6.37859">
        <ele>616.9</ele>
        <time>2026-02-22T09:11:08Z</time>
      </trkpt>
      <trkpt lat="43.59735" lon="6.37859">
        <ele>616.8</ele>
        <time>2026-02-22T09:11:09Z</time>
      </trkpt>
      <trkpt lat="43.59735" lon="6.37859">
        <ele>616.7</ele>
        <time>2026-02-22T09:11:10Z</time>
      </trkpt>
      <trkpt lat="43.59735" lon="6.3786">
        <ele>616.6</ele>
        <time>2026-02-22T09:11:11Z</time>
      </trkpt>
      <trkpt lat="43.59735" lon="6.3786">
        <ele>616.5</ele>
        <time>2026-02-22T09:11:12Z</time>
      </trkpt>
      <trkpt lat="43.59736" lon="6.37861">
        <ele>616.5</ele>
        <time>2026-02-22T09:11:13Z</time>
      </trkpt>
      <trkpt lat="43.59736" lon="6.37861">
        <ele>616.5</ele>
        <time>2026-02-22T09:11:14Z</time>
      </trkpt>
      <trkpt lat="43.59736" lon="6.37861">
        <ele>616.5</ele>
        <time>2026-02-22T09:11:15Z</time>
      </trkpt>
      <trkpt lat="43.59736" lon="6.37861">
        <ele>616.4</ele>
        <time>2026-02-22T09:11:16Z</time>
      </trkpt>
      <trkpt lat="43.59736" lon="6.37861">
        <ele>616.3</ele>
        <time>2026-02-22T09:11:17Z</time>
      </trkpt>
      <trkpt lat="43.59736" lon="6.37861">
        <ele>616.3</ele>
        <time>2026-02-22T09:11:18Z</time>
      </trkpt>
      <trkpt lat="43.59737" lon="6.37862">
        <ele>616.3</ele>
        <time>2026-02-22T09:11:19Z</time>
      </trkpt>
      <trkpt lat="43.59737" lon="6.37862">
        <ele>616.3</ele>
        <time>2026-02-22T09:11:20Z</time>
      </trkpt>
      <trkpt lat="43.59737" lon="6.37862">
        <ele>616.3</ele>
        <time>2026-02-22T09:11:21Z</time>
      </trkpt>
      <trkpt lat="43.59737" lon="6.37862">
        <ele>616.3</ele>
        <time>2026-02-22T09:11:22Z</time>
      </trkpt>
      <trkpt lat="43.59737" lon="6.37863">
        <ele>616.3</ele>
        <time>2026-02-22T09:11:23Z</time>
      </trkpt>
      <trkpt lat="43.59737" lon="6.37863">
        <ele>616.1</ele>
        <time>2026-02-22T09:11:24Z</time>
      </trkpt>
      <trkpt lat="43.59736" lon="6.37863">
        <ele>616</ele>
        <time>2026-02-22T09:11:25Z</time>
      </trkpt>
      <trkpt lat="43.59736" lon="6.37863">
        <ele>616</ele>
        <time>2026-02-22T09:11:26Z</time>
      </trkpt>
      <trkpt lat="43.59736" lon="6.37863">
        <ele>615.8</ele>
        <time>2026-02-22T09:11:27Z</time>
      </trkpt>
      <trkpt lat="43.59735" lon="6.37864">
        <ele>615.7</ele>
        <time>2026-02-22T09:11:28Z</time>
      </trkpt>
      <trkpt lat="43.59734" lon="6.37865">
        <ele>615.6</ele>
        <time>2026-02-22T09:11:29Z</time>
      </trkpt>
      <trkpt lat="43.59734" lon="6.37866">
        <ele>615.5</ele>
        <time>2026-02-22T09:11:30Z</time>
      </trkpt>
      <trkpt lat="43.59734" lon="6.37866">
        <ele>615.4</ele>
        <time>2026-02-22T09:11:31Z</time>
      </trkpt>
      <trkpt lat="43.59733" lon="6.37867">
        <ele>615.3</ele>
        <time>2026-02-22T09:11:32Z</time>
      </trkpt>
      <trkpt lat="43.59732" lon="6.37867">
        <ele>615.2</ele>
        <time>2026-02-22T09:11:33Z</time>
      </trkpt>
      <trkpt lat="43.59732" lon="6.37868">
        <ele>615.2</ele>
        <time>2026-02-22T09:11:34Z</time>
      </trkpt>
      <trkpt lat="43.59732" lon="6.37869">
        <ele>615.1</ele>
        <time>2026-02-22T09:11:35Z</time>
      </trkpt>
      <trkpt lat="43.59731" lon="6.37869">
        <ele>614.8</ele>
        <time>2026-02-22T09:11:36Z</time>
      </trkpt>
      <trkpt lat="43.5973" lon="6.3787">
        <ele>614.6</ele>
        <time>2026-02-22T09:11:37Z</time>
      </trkpt>
      <trkpt lat="43.5973" lon="6.3787">
        <ele>614.4</ele>
        <time>2026-02-22T09:11:38Z</time>
      </trkpt>
      <trkpt lat="43.59729" lon="6.37871">
        <ele>614.2</ele>
        <time>2026-02-22T09:11:39Z</time>
      </trkpt>
      <trkpt lat="43.59729" lon="6.37872">
        <ele>614</ele>
        <time>2026-02-22T09:11:40Z</time>
      </trkpt>
      <trkpt lat="43.59729" lon="6.37872">
        <ele>613.9</ele>
        <time>2026-02-22T09:11:41Z</time>
      </trkpt>
      <trkpt lat="43.59729" lon="6.37873">
        <ele>613.8</ele>
        <time>2026-02-22T09:11:42Z</time>
      </trkpt>
      <trkpt lat="43.59729" lon="6.37873">
        <ele>613.6</ele>
        <time>2026-02-22T09:11:43Z</time>
      </trkpt>
      <trkpt lat="43.59728" lon="6.37874">
        <ele>613.5</ele>
        <time>2026-02-22T09:11:44Z</time>
      </trkpt>
      <trkpt lat="43.59729" lon="6.37875">
        <ele>613.4</ele>
        <time>2026-02-22T09:11:45Z</time>
      </trkpt>
      <trkpt lat="43.59729" lon="6.37875">
        <ele>613.3</ele>
        <time>2026-02-22T09:11:46Z</time>
      </trkpt>
      <trkpt lat="43.59729" lon="6.37876">
        <ele>613.2</ele>
        <time>2026-02-22T09:11:47Z</time>
      </trkpt>
      <trkpt lat="43.59729" lon="6.37876">
        <ele>613.1</ele>
        <time>2026-02-22T09:11:48Z</time>
      </trkpt>
      <trkpt lat="43.59729" lon="6.37876">
        <ele>613</ele>
        <time>2026-02-22T09:11:49Z</time>
      </trkpt>
      <trkpt lat="43.59729" lon="6.37877">
        <ele>612.9</ele>
        <time>2026-02-22T09:11:50Z</time>
      </trkpt>
      <trkpt lat="43.59729" lon="6.37877">
        <ele>612.8</ele>
        <time>2026-02-22T09:11:51Z</time>
      </trkpt>
      <trkpt lat="43.59729" lon="6.37877">
        <ele>612.7</ele>
        <time>2026-02-22T09:11:52Z</time>
      </trkpt>
      <trkpt lat="43.5973" lon="6.37877">
        <ele>612.7</ele>
        <time>2026-02-22T09:11:53Z</time>
      </trkpt>
      <trkpt lat="43.5973" lon="6.37878">
        <ele>612.5</ele>
        <time>2026-02-22T09:11:54Z</time>
      </trkpt>
      <trkpt lat="43.5973" lon="6.37878">
        <ele>612.5</ele>
        <time>2026-02-22T09:11:55Z</time>
      </trkpt>
      <trkpt lat="43.5973" lon="6.37878">
        <ele>612.4</ele>
        <time>2026-02-22T09:11:56Z</time>
      </trkpt>
      <trkpt lat="43.5973" lon="6.37878">
        <ele>612.4</ele>
        <time>2026-02-22T09:11:57Z</time>
      </trkpt>
      <trkpt lat="43.59731" lon="6.37878">
        <ele>612.3</ele>
        <time>2026-02-22T09:11:58Z</time>
      </trkpt>
      <trkpt lat="43.59731" lon="6.37878">
        <ele>612.3</ele>
        <time>2026-02-22T09:11:59Z</time>
      </trkpt>
      <trkpt lat="43.59731" lon="6.37879">
        <ele>612.3</ele>
        <time>2026-02-22T09:12:00Z</time>
      </trkpt>
      <trkpt lat="43.59731" lon="6.37879">
        <ele>612.2</ele>
        <time>2026-02-22T09:12:01Z</time>
      </trkpt>
      <trkpt lat="43.59731" lon="6.37879">
        <ele>612.2</ele>
        <time>2026-02-22T09:12:02Z</time>
      </trkpt>
      <trkpt lat="43.59731" lon="6.37879">
        <ele>612.1</ele>
        <time>2026-02-22T09:12:03Z</time>
      </trkpt>
      <trkpt lat="43.59731" lon="6.37879">
        <ele>612.1</ele>
        <time>2026-02-22T09:12:04Z</time>
      </trkpt>
      <trkpt lat="43.59731" lon="6.37879">
        <ele>612.1</ele>
        <time>2026-02-22T09:12:05Z</time>
      </trkpt>
      <trkpt lat="43.59731" lon="6.37879">
        <ele>612.2</ele>
        <time>2026-02-22T09:12:06Z</time>
      </trkpt>
      <trkpt lat="43.59731" lon="6.37879">
        <ele>612.2</ele>
        <time>2026-02-22T09:12:07Z</time>
      </trkpt>
      <trkpt lat="43.59731" lon="6.37879">
        <ele>612.1</ele>
        <time>2026-02-22T09:12:08Z</time>
      </trkpt>
      <trkpt lat="43.59731" lon="6.3788">
        <ele>612.2</ele>
        <time>2026-02-22T09:12:09Z</time>
      </trkpt>
      <trkpt lat="43.59731" lon="6.3788">
        <ele>612.2</ele>
        <time>2026-02-22T09:12:10Z</time>
      </trkpt>
      <trkpt lat="43.59732" lon="6.3788">
        <ele>612.2</ele>
        <time>2026-02-22T09:12:11Z</time>
      </trkpt>
      <trkpt lat="43.59732" lon="6.3788">
        <ele>612.3</ele>
        <time>2026-02-22T09:12:12Z</time>
      </trkpt>
      <trkpt lat="43.59731" lon="6.3788">
        <ele>612.3</ele>
        <time>2026-02-22T09:12:13Z</time>
      </trkpt>
      <trkpt lat="43.59731" lon="6.3788">
        <ele>612.3</ele>
        <time>2026-02-22T09:12:14Z</time>
      </trkpt>
      <trkpt lat="43.5973" lon="6.3788">
        <ele>612.3</ele>
        <time>2026-02-22T09:12:15Z</time>
      </trkpt>
      <trkpt lat="43.5973" lon="6.37881">
        <ele>612.1</ele>
        <time>2026-02-22T09:12:16Z</time>
      </trkpt>
      <trkpt lat="43.59729" lon="6.37881">
        <ele>611.9</ele>
        <time>2026-02-22T09:12:17Z</time>
      </trkpt>
      <trkpt lat="43.59729" lon="6.37882">
        <ele>611.8</ele>
        <time>2026-02-22T09:12:18Z</time>
      </trkpt>
      <trkpt lat="43.59729" lon="6.37883">
        <ele>611.7</ele>
        <time>2026-02-22T09:12:19Z</time>
      </trkpt>
      <trkpt lat="43.59729" lon="6.37884">
        <ele>611.6</ele>
        <time>2026-02-22T09:12:20Z</time>
      </trkpt>
      <trkpt lat="43.59728" lon="6.37884">
        <ele>611.5</ele>
        <time>2026-02-22T09:12:21Z</time>
      </trkpt>
      <trkpt lat="43.59727" lon="6.37884">
        <ele>611.4</ele>
        <time>2026-02-22T09:12:22Z</time>
      </trkpt>
      <trkpt lat="43.59727" lon="6.37884">
        <ele>611.3</ele>
        <time>2026-02-22T09:12:23Z</time>
      </trkpt>
      <trkpt lat="43.59726" lon="6.37885">
        <ele>611.2</ele>
        <time>2026-02-22T09:12:24Z</time>
      </trkpt>
      <trkpt lat="43.59726" lon="6.37886">
        <ele>611</ele>
        <time>2026-02-22T09:12:25Z</time>
      </trkpt>
      <trkpt lat="43.59726" lon="6.37887">
        <ele>610.9</ele>
        <time>2026-02-22T09:12:26Z</time>
      </trkpt>
      <trkpt lat="43.59725" lon="6.37887">
        <ele>610.9</ele>
        <time>2026-02-22T09:12:27Z</time>
      </trkpt>
      <trkpt lat="43.59725" lon="6.37888">
        <ele>610.8</ele>
        <time>2026-02-22T09:12:28Z</time>
      </trkpt>
      <trkpt lat="43.59726" lon="6.37889">
        <ele>610.6</ele>
        <time>2026-02-22T09:12:29Z</time>
      </trkpt>
      <trkpt lat="43.59726" lon="6.37889">
        <ele>610.5</ele>
        <time>2026-02-22T09:12:30Z</time>
      </trkpt>
      <trkpt lat="43.59726" lon="6.3789">
        <ele>610.4</ele>
        <time>2026-02-22T09:12:31Z</time>
      </trkpt>
      <trkpt lat="43.59726" lon="6.37891">
        <ele>610.2</ele>
        <time>2026-02-22T09:12:32Z</time>
      </trkpt>
      <trkpt lat="43.59726" lon="6.37892">
        <ele>610.1</ele>
        <time>2026-02-22T09:12:33Z</time>
      </trkpt>
      <trkpt lat="43.59726" lon="6.37892">
        <ele>610</ele>
        <time>2026-02-22T09:12:34Z</time>
      </trkpt>
      <trkpt lat="43.59725" lon="6.37893">
        <ele>609.9</ele>
        <time>2026-02-22T09:12:35Z</time>
      </trkpt>
      <trkpt lat="43.59725" lon="6.37894">
        <ele>609.8</ele>
        <time>2026-02-22T09:12:36Z</time>
      </trkpt>
      <trkpt lat="43.59725" lon="6.37894">
        <ele>609.8</ele>
        <time>2026-02-22T09:12:37Z</time>
      </trkpt>
      <trkpt lat="43.59725" lon="6.37895">
        <ele>609.6</ele>
        <time>2026-02-22T09:12:38Z</time>
      </trkpt>
      <trkpt lat="43.59725" lon="6.37896">
        <ele>609.4</ele>
        <time>2026-02-22T09:12:39Z</time>
      </trkpt>
      <trkpt lat="43.59725" lon="6.37897">
        <ele>609.3</ele>
        <time>2026-02-22T09:12:40Z</time>
      </trkpt>
      <trkpt lat="43.59725" lon="6.37897">
        <ele>609.2</ele>
        <time>2026-02-22T09:12:41Z</time>
      </trkpt>
      <trkpt lat="43.59725" lon="6.37898">
        <ele>609</ele>
        <time>2026-02-22T09:12:42Z</time>
      </trkpt>
      <trkpt lat="43.59725" lon="6.37899">
        <ele>608.8</ele>
        <time>2026-02-22T09:12:43Z</time>
      </trkpt>
      <trkpt lat="43.59724" lon="6.379">
        <ele>608.7</ele>
        <time>2026-02-22T09:12:44Z</time>
      </trkpt>
      <trkpt lat="43.59724" lon="6.379">
        <ele>608.5</ele>
        <time>2026-02-22T09:12:45Z</time>
      </trkpt>
      <trkpt lat="43.59724" lon="6.37901">
        <ele>608.3</ele>
        <time>2026-02-22T09:12:46Z</time>
      </trkpt>
      <trkpt lat="43.59724" lon="6.37901">
        <ele>608.2</ele>
        <time>2026-02-22T09:12:47Z</time>
      </trkpt>
      <trkpt lat="43.59724" lon="6.37902">
        <ele>608</ele>
        <time>2026-02-22T09:12:48Z</time>
      </trkpt>
      <trkpt lat="43.59723" lon="6.37902">
        <ele>607.9</ele>
        <time>2026-02-22T09:12:49Z</time>
      </trkpt>
      <trkpt lat="43.59722" lon="6.37903">
        <ele>607.9</ele>
        <time>2026-02-22T09:12:50Z</time>
      </trkpt>
      <trkpt lat="43.59722" lon="6.37903">
        <ele>607.8</ele>
        <time>2026-02-22T09:12:51Z</time>
      </trkpt>
      <trkpt lat="43.59722" lon="6.37904">
        <ele>607.7</ele>
        <time>2026-02-22T09:12:52Z</time>
      </trkpt>
      <trkpt lat="43.59722" lon="6.37905">
        <ele>607.6</ele>
        <time>2026-02-22T09:12:53Z</time>
      </trkpt>
      <trkpt lat="43.59722" lon="6.37906">
        <ele>607.4</ele>
        <time>2026-02-22T09:12:54Z</time>
      </trkpt>
      <trkpt lat="43.59722" lon="6.37907">
        <ele>607.3</ele>
        <time>2026-02-22T09:12:55Z</time>
      </trkpt>
      <trkpt lat="43.59721" lon="6.37907">
        <ele>607.1</ele>
        <time>2026-02-22T09:12:56Z</time>
      </trkpt>
      <trkpt lat="43.59721" lon="6.37908">
        <ele>606.9</ele>
        <time>2026-02-22T09:12:57Z</time>
      </trkpt>
      <trkpt lat="43.59721" lon="6.37909">
        <ele>606.8</ele>
        <time>2026-02-22T09:12:58Z</time>
      </trkpt>
      <trkpt lat="43.59721" lon="6.3791">
        <ele>606.6</ele>
        <time>2026-02-22T09:12:59Z</time>
      </trkpt>
      <trkpt lat="43.59721" lon="6.37911">
        <ele>606.4</ele>
        <time>2026-02-22T09:13:00Z</time>
      </trkpt>
      <trkpt lat="43.59721" lon="6.37912">
        <ele>606.3</ele>
        <time>2026-02-22T09:13:01Z</time>
      </trkpt>
      <trkpt lat="43.59721" lon="6.37913">
        <ele>606.2</ele>
        <time>2026-02-22T09:13:02Z</time>
      </trkpt>
      <trkpt lat="43.59721" lon="6.37914">
        <ele>606.1</ele>
        <time>2026-02-22T09:13:03Z</time>
      </trkpt>
      <trkpt lat="43.5972" lon="6.37915">
        <ele>606</ele>
        <time>2026-02-22T09:13:04Z</time>
      </trkpt>
      <trkpt lat="43.5972" lon="6.37915">
        <ele>606</ele>
        <time>2026-02-22T09:13:05Z</time>
      </trkpt>
      <trkpt lat="43.5972" lon="6.37916">
        <ele>606</ele>
        <time>2026-02-22T09:13:06Z</time>
      </trkpt>
      <trkpt lat="43.5972" lon="6.37917">
        <ele>606</ele>
        <time>2026-02-22T09:13:07Z</time>
      </trkpt>
      <trkpt lat="43.5972" lon="6.37918">
        <ele>605.9</ele>
        <time>2026-02-22T09:13:08Z</time>
      </trkpt>
      <trkpt lat="43.5972" lon="6.37919">
        <ele>605.9</ele>
        <time>2026-02-22T09:13:09Z</time>
      </trkpt>
      <trkpt lat="43.5972" lon="6.37919">
        <ele>605.8</ele>
        <time>2026-02-22T09:13:10Z</time>
      </trkpt>
      <trkpt lat="43.59719" lon="6.3792">
        <ele>605.6</ele>
        <time>2026-02-22T09:13:11Z</time>
      </trkpt>
      <trkpt lat="43.59719" lon="6.37921">
        <ele>605.5</ele>
        <time>2026-02-22T09:13:12Z</time>
      </trkpt>
      <trkpt lat="43.59719" lon="6.37921">
        <ele>605.2</ele>
        <time>2026-02-22T09:13:13Z</time>
      </trkpt>
      <trkpt lat="43.59718" lon="6.37922">
        <ele>605</ele>
        <time>2026-02-22T09:13:14Z</time>
      </trkpt>
      <trkpt lat="43.59717" lon="6.37922">
        <ele>604.9</ele>
        <time>2026-02-22T09:13:15Z</time>
      </trkpt>
      <trkpt lat="43.59717" lon="6.37923">
        <ele>604.7</ele>
        <time>2026-02-22T09:13:16Z</time>
      </trkpt>
      <trkpt lat="43.59716" lon="6.37924">
        <ele>604.6</ele>
        <time>2026-02-22T09:13:17Z</time>
      </trkpt>
      <trkpt lat="43.59715" lon="6.37924">
        <ele>604.4</ele>
        <time>2026-02-22T09:13:18Z</time>
      </trkpt>
      <trkpt lat="43.59715" lon="6.37925">
        <ele>604.3</ele>
        <time>2026-02-22T09:13:19Z</time>
      </trkpt>
      <trkpt lat="43.59715" lon="6.37925">
        <ele>604.2</ele>
        <time>2026-02-22T09:13:20Z</time>
      </trkpt>
      <trkpt lat="43.59714" lon="6.37926">
        <ele>604.1</ele>
        <time>2026-02-22T09:13:21Z</time>
      </trkpt>
      <trkpt lat="43.59714" lon="6.37927">
        <ele>603.9</ele>
        <time>2026-02-22T09:13:22Z</time>
      </trkpt>
      <trkpt lat="43.59713" lon="6.37927">
        <ele>603.8</ele>
        <time>2026-02-22T09:13:23Z</time>
      </trkpt>
      <trkpt lat="43.59713" lon="6.37928">
        <ele>603.7</ele>
        <time>2026-02-22T09:13:24Z</time>
      </trkpt>
      <trkpt lat="43.59713" lon="6.37928">
        <ele>603.6</ele>
        <time>2026-02-22T09:13:25Z</time>
      </trkpt>
      <trkpt lat="43.59712" lon="6.37929">
        <ele>603.5</ele>
        <time>2026-02-22T09:13:26Z</time>
      </trkpt>
      <trkpt lat="43.59712" lon="6.37929">
        <ele>603.3</ele>
        <time>2026-02-22T09:13:27Z</time>
      </trkpt>
      <trkpt lat="43.59712" lon="6.3793">
        <ele>603.2</ele>
        <time>2026-02-22T09:13:28Z</time>
      </trkpt>
      <trkpt lat="43.59711" lon="6.3793">
        <ele>603.1</ele>
        <time>2026-02-22T09:13:29Z</time>
      </trkpt>
      <trkpt lat="43.5971" lon="6.37931">
        <ele>602.9</ele>
        <time>2026-02-22T09:13:30Z</time>
      </trkpt>
      <trkpt lat="43.5971" lon="6.37931">
        <ele>602.7</ele>
        <time>2026-02-22T09:13:31Z</time>
      </trkpt>
      <trkpt lat="43.5971" lon="6.37932">
        <ele>602.5</ele>
        <time>2026-02-22T09:13:32Z</time>
      </trkpt>
      <trkpt lat="43.59709" lon="6.37932">
        <ele>602.4</ele>
        <time>2026-02-22T09:13:33Z</time>
      </trkpt>
      <trkpt lat="43.59709" lon="6.37933">
        <ele>602.2</ele>
        <time>2026-02-22T09:13:34Z</time>
      </trkpt>
      <trkpt lat="43.59709" lon="6.37933">
        <ele>601.9</ele>
        <time>2026-02-22T09:13:35Z</time>
      </trkpt>
      <trkpt lat="43.59708" lon="6.37934">
        <ele>601.6</ele>
        <time>2026-02-22T09:13:36Z</time>
      </trkpt>
      <trkpt lat="43.59708" lon="6.37934">
        <ele>601.4</ele>
        <time>2026-02-22T09:13:37Z</time>
      </trkpt>
      <trkpt lat="43.59707" lon="6.37935">
        <ele>601.3</ele>
        <time>2026-02-22T09:13:38Z</time>
      </trkpt>
      <trkpt lat="43.59707" lon="6.37936">
        <ele>601.1</ele>
        <time>2026-02-22T09:13:39Z</time>
      </trkpt>
      <trkpt lat="43.59707" lon="6.37937">
        <ele>601</ele>
        <time>2026-02-22T09:13:40Z</time>
      </trkpt>
      <trkpt lat="43.59706" lon="6.37938">
        <ele>600.8</ele>
        <time>2026-02-22T09:13:41Z</time>
      </trkpt>
      <trkpt lat="43.59706" lon="6.37939">
        <ele>600.6</ele>
        <time>2026-02-22T09:13:42Z</time>
      </trkpt>
      <trkpt lat="43.59705" lon="6.37939">
        <ele>600.5</ele>
        <time>2026-02-22T09:13:43Z</time>
      </trkpt>
      <trkpt lat="43.59705" lon="6.3794">
        <ele>600.2</ele>
        <time>2026-02-22T09:13:44Z</time>
      </trkpt>
      <trkpt lat="43.59705" lon="6.37941">
        <ele>599.9</ele>
        <time>2026-02-22T09:13:45Z</time>
      </trkpt>
      <trkpt lat="43.59704" lon="6.37942">
        <ele>599.6</ele>
        <time>2026-02-22T09:13:46Z</time>
      </trkpt>
      <trkpt lat="43.59703" lon="6.37943">
        <ele>599.4</ele>
        <time>2026-02-22T09:13:47Z</time>
      </trkpt>
      <trkpt lat="43.59703" lon="6.37944">
        <ele>599.2</ele>
        <time>2026-02-22T09:13:48Z</time>
      </trkpt>
      <trkpt lat="43.59702" lon="6.37945">
        <ele>599.1</ele>
        <time>2026-02-22T09:13:49Z</time>
      </trkpt>
      <trkpt lat="43.59701" lon="6.37946">
        <ele>599</ele>
        <time>2026-02-22T09:13:50Z</time>
      </trkpt>
      <trkpt lat="43.59701" lon="6.37947">
        <ele>598.8</ele>
        <time>2026-02-22T09:13:51Z</time>
      </trkpt>
      <trkpt lat="43.597" lon="6.37947">
        <ele>598.7</ele>
        <time>2026-02-22T09:13:52Z</time>
      </trkpt>
      <trkpt lat="43.597" lon="6.37949">
        <ele>598.6</ele>
        <time>2026-02-22T09:13:53Z</time>
      </trkpt>
      <trkpt lat="43.597" lon="6.37949">
        <ele>598.5</ele>
        <time>2026-02-22T09:13:54Z</time>
      </trkpt>
      <trkpt lat="43.59699" lon="6.3795">
        <ele>598.3</ele>
        <time>2026-02-22T09:13:55Z</time>
      </trkpt>
      <trkpt lat="43.59699" lon="6.37951">
        <ele>598.2</ele>
        <time>2026-02-22T09:13:56Z</time>
      </trkpt>
      <trkpt lat="43.59698" lon="6.37951">
        <ele>598.1</ele>
        <time>2026-02-22T09:13:57Z</time>
      </trkpt>
      <trkpt lat="43.59699" lon="6.37952">
        <ele>598.1</ele>
        <time>2026-02-22T09:13:58Z</time>
      </trkpt>
      <trkpt lat="43.59699" lon="6.37952">
        <ele>598.1</ele>
        <time>2026-02-22T09:13:59Z</time>
      </trkpt>
      <trkpt lat="43.59699" lon="6.37952">
        <ele>598.1</ele>
        <time>2026-02-22T09:14:00Z</time>
      </trkpt>
      <trkpt lat="43.59699" lon="6.37953">
        <ele>598.1</ele>
        <time>2026-02-22T09:14:01Z</time>
      </trkpt>
      <trkpt lat="43.59699" lon="6.37953">
        <ele>598.2</ele>
        <time>2026-02-22T09:14:02Z</time>
      </trkpt>
      <trkpt lat="43.59699" lon="6.37953">
        <ele>598.3</ele>
        <time>2026-02-22T09:14:03Z</time>
      </trkpt>
      <trkpt lat="43.59699" lon="6.37953">
        <ele>598.2</ele>
        <time>2026-02-22T09:14:04Z</time>
      </trkpt>
      <trkpt lat="43.59699" lon="6.37953">
        <ele>598.2</ele>
        <time>2026-02-22T09:14:05Z</time>
      </trkpt>
      <trkpt lat="43.59699" lon="6.37953">
        <ele>598.2</ele>
        <time>2026-02-22T09:14:06Z</time>
      </trkpt>
      <trkpt lat="43.59699" lon="6.37953">
        <ele>598.3</ele>
        <time>2026-02-22T09:14:07Z</time>
      </trkpt>
      <trkpt lat="43.59699" lon="6.37953">
        <ele>598.4</ele>
        <time>2026-02-22T09:14:08Z</time>
      </trkpt>
      <trkpt lat="43.59699" lon="6.37954">
        <ele>598.4</ele>
        <time>2026-02-22T09:14:09Z</time>
      </trkpt>
      <trkpt lat="43.59698" lon="6.37954">
        <ele>598.4</ele>
        <time>2026-02-22T09:14:10Z</time>
      </trkpt>
      <trkpt lat="43.59698" lon="6.37954">
        <ele>598.4</ele>
        <time>2026-02-22T09:14:11Z</time>
      </trkpt>
      <trkpt lat="43.59698" lon="6.37954">
        <ele>598.5</ele>
        <time>2026-02-22T09:14:12Z</time>
      </trkpt>
      <trkpt lat="43.59698" lon="6.37954">
        <ele>598.4</ele>
        <time>2026-02-22T09:14:13Z</time>
      </trkpt>
      <trkpt lat="43.59698" lon="6.37954">
        <ele>598.4</ele>
        <time>2026-02-22T09:14:14Z</time>
      </trkpt>
      <trkpt lat="43.59698" lon="6.37955">
        <ele>598.4</ele>
        <time>2026-02-22T09:14:15Z</time>
      </trkpt>
      <trkpt lat="43.59698" lon="6.37955">
        <ele>598.4</ele>
        <time>2026-02-22T09:14:16Z</time>
      </trkpt>
      <trkpt lat="43.59698" lon="6.37955">
        <ele>598.4</ele>
        <time>2026-02-22T09:14:17Z</time>
      </trkpt>
      <trkpt lat="43.59698" lon="6.37955">
        <ele>598.4</ele>
        <time>2026-02-22T09:14:18Z</time>
      </trkpt>
      <trkpt lat="43.59698" lon="6.37956">
        <ele>598.4</ele>
        <time>2026-02-22T09:14:19Z</time>
      </trkpt>
      <trkpt lat="43.59697" lon="6.37956">
        <ele>598.5</ele>
        <time>2026-02-22T09:14:20Z</time>
      </trkpt>
      <trkpt lat="43.59697" lon="6.37957">
        <ele>598.4</ele>
        <time>2026-02-22T09:14:21Z</time>
      </trkpt>
      <trkpt lat="43.59697" lon="6.37957">
        <ele>598.3</ele>
        <time>2026-02-22T09:14:22Z</time>
      </trkpt>
      <trkpt lat="43.59697" lon="6.37957">
        <ele>598.3</ele>
        <time>2026-02-22T09:14:23Z</time>
      </trkpt>
      <trkpt lat="43.59697" lon="6.37957">
        <ele>598.3</ele>
        <time>2026-02-22T09:14:24Z</time>
      </trkpt>
      <trkpt lat="43.59697" lon="6.37957">
        <ele>598.3</ele>
        <time>2026-02-22T09:14:25Z</time>
      </trkpt>
      <trkpt lat="43.59697" lon="6.37957">
        <ele>598.3</ele>
        <time>2026-02-22T09:14:26Z</time>
      </trkpt>
      <trkpt lat="43.59697" lon="6.37957">
        <ele>598.4</ele>
        <time>2026-02-22T09:14:27Z</time>
      </trkpt>
      <trkpt lat="43.59697" lon="6.37958">
        <ele>598.4</ele>
        <time>2026-02-22T09:14:28Z</time>
      </trkpt>
      <trkpt lat="43.59697" lon="6.37958">
        <ele>598.5</ele>
        <time>2026-02-22T09:14:29Z</time>
      </trkpt>
      <trkpt lat="43.59697" lon="6.37958">
        <ele>598.5</ele>
        <time>2026-02-22T09:14:30Z</time>
      </trkpt>
      <trkpt lat="43.59697" lon="6.37958">
        <ele>598.5</ele>
        <time>2026-02-22T09:14:31Z</time>
      </trkpt>
      <trkpt lat="43.59696" lon="6.37958">
        <ele>598.5</ele>
        <time>2026-02-22T09:14:32Z</time>
      </trkpt>
      <trkpt lat="43.59696" lon="6.37958">
        <ele>598.5</ele>
        <time>2026-02-22T09:14:33Z</time>
      </trkpt>
      <trkpt lat="43.59696" lon="6.37959">
        <ele>598.5</ele>
        <time>2026-02-22T09:14:34Z</time>
      </trkpt>
      <trkpt lat="43.59696" lon="6.37959">
        <ele>598.5</ele>
        <time>2026-02-22T09:14:35Z</time>
      </trkpt>
      <trkpt lat="43.59696" lon="6.37959">
        <ele>598.5</ele>
        <time>2026-02-22T09:14:36Z</time>
      </trkpt>
      <trkpt lat="43.59696" lon="6.37959">
        <ele>598.4</ele>
        <time>2026-02-22T09:14:37Z</time>
      </trkpt>
      <trkpt lat="43.59696" lon="6.37959">
        <ele>598.4</ele>
        <time>2026-02-22T09:14:38Z</time>
      </trkpt>
      <trkpt lat="43.59696" lon="6.37959">
        <ele>598.4</ele>
        <time>2026-02-22T09:14:39Z</time>
      </trkpt>
      <trkpt lat="43.59696" lon="6.37959">
        <ele>598.5</ele>
        <time>2026-02-22T09:14:40Z</time>
      </trkpt>
      <trkpt lat="43.59696" lon="6.37959">
        <ele>598.5</ele>
        <time>2026-02-22T09:14:41Z</time>
      </trkpt>
      <trkpt lat="43.59696" lon="6.37959">
        <ele>598.4</ele>
        <time>2026-02-22T09:14:42Z</time>
      </trkpt>
      <trkpt lat="43.59696" lon="6.37959">
        <ele>598.5</ele>
        <time>2026-02-22T09:14:43Z</time>
      </trkpt>
      <trkpt lat="43.59696" lon="6.37959">
        <ele>598.5</ele>
        <time>2026-02-22T09:14:44Z</time>
      </trkpt>
      <trkpt lat="43.59696" lon="6.37959">
        <ele>598.4</ele>
        <time>2026-02-22T09:14:45Z</time>
      </trkpt>
      <trkpt lat="43.59696" lon="6.37959">
        <ele>598.5</ele>
        <time>2026-02-22T09:14:46Z</time>
      </trkpt>
      <trkpt lat="43.59696" lon="6.37959">
        <ele>598.5</ele>
        <time>2026-02-22T09:14:47Z</time>
      </trkpt>
      <trkpt lat="43.59696" lon="6.37959">
        <ele>598.5</ele>
        <time>2026-02-22T09:14:48Z</time>
      </trkpt>
      <trkpt lat="43.59696" lon="6.37959">
        <ele>598.4</ele>
        <time>2026-02-22T09:14:49Z</time>
      </trkpt>
      <trkpt lat="43.59696" lon="6.37959">
        <ele>598.4</ele>
        <time>2026-02-22T09:14:50Z</time>
      </trkpt>
      <trkpt lat="43.59696" lon="6.37959">
        <ele>598.4</ele>
        <time>2026-02-22T09:14:51Z</time>
      </trkpt>
      <trkpt lat="43.59696" lon="6.37959">
        <ele>598.4</ele>
        <time>2026-02-22T09:14:52Z</time>
      </trkpt>
      <trkpt lat="43.59696" lon="6.3796">
        <ele>598.3</ele>
        <time>2026-02-22T09:14:53Z</time>
      </trkpt>
      <trkpt lat="43.59696" lon="6.3796">
        <ele>598.2</ele>
        <time>2026-02-22T09:14:54Z</time>
      </trkpt>
      <trkpt lat="43.59695" lon="6.37961">
        <ele>598.1</ele>
        <time>2026-02-22T09:14:55Z</time>
      </trkpt>
      <trkpt lat="43.59695" lon="6.37962">
        <ele>598.1</ele>
        <time>2026-02-22T09:14:56Z</time>
      </trkpt>
      <trkpt lat="43.59695" lon="6.37963">
        <ele>598</ele>
        <time>2026-02-22T09:14:57Z</time>
      </trkpt>
      <trkpt lat="43.59695" lon="6.37964">
        <ele>597.9</ele>
        <time>2026-02-22T09:14:58Z</time>
      </trkpt>
      <trkpt lat="43.59696" lon="6.37965">
        <ele>597.8</ele>
        <time>2026-02-22T09:14:59Z</time>
      </trkpt>
      <trkpt lat="43.59695" lon="6.37966">
        <ele>597.7</ele>
        <time>2026-02-22T09:15:00Z</time>
      </trkpt>
      <trkpt lat="43.59696" lon="6.37967">
        <ele>597.6</ele>
        <time>2026-02-22T09:15:01Z</time>
      </trkpt>
      <trkpt lat="43.59696" lon="6.37968">
        <ele>597.6</ele>
        <time>2026-02-22T09:15:02Z</time>
      </trkpt>
      <trkpt lat="43.59696" lon="6.37969">
        <ele>597.4</ele>
        <time>2026-02-22T09:15:03Z</time>
      </trkpt>
      <trkpt lat="43.59696" lon="6.37969">
        <ele>597.3</ele>
        <time>2026-02-22T09:15:04Z</time>
      </trkpt>
      <trkpt lat="43.59696" lon="6.37969">
        <ele>597.3</ele>
        <time>2026-02-22T09:15:05Z</time>
      </trkpt>
      <trkpt lat="43.59696" lon="6.3797">
        <ele>597.2</ele>
        <time>2026-02-22T09:15:06Z</time>
      </trkpt>
      <trkpt lat="43.59696" lon="6.37972">
        <ele>597</ele>
        <time>2026-02-22T09:15:07Z</time>
      </trkpt>
      <trkpt lat="43.59696" lon="6.37972">
        <ele>596.9</ele>
        <time>2026-02-22T09:15:08Z</time>
      </trkpt>
      <trkpt lat="43.59696" lon="6.37973">
        <ele>596.8</ele>
        <time>2026-02-22T09:15:09Z</time>
      </trkpt>
      <trkpt lat="43.59696" lon="6.37974">
        <ele>596.7</ele>
        <time>2026-02-22T09:15:10Z</time>
      </trkpt>
      <trkpt lat="43.59695" lon="6.37975">
        <ele>596.5</ele>
        <time>2026-02-22T09:15:11Z</time>
      </trkpt>
      <trkpt lat="43.59696" lon="6.37976">
        <ele>596.3</ele>
        <time>2026-02-22T09:15:12Z</time>
      </trkpt>
      <trkpt lat="43.59696" lon="6.37978">
        <ele>596.2</ele>
        <time>2026-02-22T09:15:13Z</time>
      </trkpt>
      <trkpt lat="43.59696" lon="6.37979">
        <ele>596</ele>
        <time>2026-02-22T09:15:14Z</time>
      </trkpt>
      <trkpt lat="43.59696" lon="6.37979">
        <ele>595.9</ele>
        <time>2026-02-22T09:15:15Z</time>
      </trkpt>
      <trkpt lat="43.59697" lon="6.3798">
        <ele>595.7</ele>
        <time>2026-02-22T09:15:16Z</time>
      </trkpt>
      <trkpt lat="43.59697" lon="6.37982">
        <ele>595.5</ele>
        <time>2026-02-22T09:15:17Z</time>
      </trkpt>
      <trkpt lat="43.59697" lon="6.37983">
        <ele>595.3</ele>
        <time>2026-02-22T09:15:18Z</time>
      </trkpt>
      <trkpt lat="43.59697" lon="6.37985">
        <ele>595.1</ele>
        <time>2026-02-22T09:15:19Z</time>
      </trkpt>
      <trkpt lat="43.59697" lon="6.37986">
        <ele>595</ele>
        <time>2026-02-22T09:15:20Z</time>
      </trkpt>
      <trkpt lat="43.59698" lon="6.37986">
        <ele>595</ele>
        <time>2026-02-22T09:15:21Z</time>
      </trkpt>
      <trkpt lat="43.59698" lon="6.37987">
        <ele>594.9</ele>
        <time>2026-02-22T09:15:22Z</time>
      </trkpt>
      <trkpt lat="43.59698" lon="6.37989">
        <ele>594.8</ele>
        <time>2026-02-22T09:15:23Z</time>
      </trkpt>
      <trkpt lat="43.59699" lon="6.3799">
        <ele>594.7</ele>
        <time>2026-02-22T09:15:24Z</time>
      </trkpt>
      <trkpt lat="43.59699" lon="6.3799">
        <ele>594.6</ele>
        <time>2026-02-22T09:15:25Z</time>
      </trkpt>
      <trkpt lat="43.59699" lon="6.37991">
        <ele>594.5</ele>
        <time>2026-02-22T09:15:26Z</time>
      </trkpt>
      <trkpt lat="43.59699" lon="6.37992">
        <ele>594.4</ele>
        <time>2026-02-22T09:15:27Z</time>
      </trkpt>
      <trkpt lat="43.597" lon="6.37994">
        <ele>594.3</ele>
        <time>2026-02-22T09:15:28Z</time>
      </trkpt>
      <trkpt lat="43.597" lon="6.37994">
        <ele>594.2</ele>
        <time>2026-02-22T09:15:29Z</time>
      </trkpt>
      <trkpt lat="43.59701" lon="6.37994">
        <ele>594.1</ele>
        <time>2026-02-22T09:15:30Z</time>
      </trkpt>
      <trkpt lat="43.59701" lon="6.37995">
        <ele>594.1</ele>
        <time>2026-02-22T09:15:31Z</time>
      </trkpt>
      <trkpt lat="43.59702" lon="6.37996">
        <ele>594</ele>
        <time>2026-02-22T09:15:32Z</time>
      </trkpt>
      <trkpt lat="43.59703" lon="6.37997">
        <ele>594</ele>
        <time>2026-02-22T09:15:33Z</time>
      </trkpt>
      <trkpt lat="43.59704" lon="6.37997">
        <ele>593.9</ele>
        <time>2026-02-22T09:15:34Z</time>
      </trkpt>
      <trkpt lat="43.59705" lon="6.37998">
        <ele>593.8</ele>
        <time>2026-02-22T09:15:35Z</time>
      </trkpt>
      <trkpt lat="43.59706" lon="6.37998">
        <ele>593.7</ele>
        <time>2026-02-22T09:15:36Z</time>
      </trkpt>
      <trkpt lat="43.59707" lon="6.37998">
        <ele>593.7</ele>
        <time>2026-02-22T09:15:37Z</time>
      </trkpt>
      <trkpt lat="43.59708" lon="6.37998">
        <ele>593.7</ele>
        <time>2026-02-22T09:15:38Z</time>
      </trkpt>
      <trkpt lat="43.59708" lon="6.37998">
        <ele>593.7</ele>
        <time>2026-02-22T09:15:39Z</time>
      </trkpt>
      <trkpt lat="43.59709" lon="6.37999">
        <ele>593.7</ele>
        <time>2026-02-22T09:15:40Z</time>
      </trkpt>
      <trkpt lat="43.5971" lon="6.38">
        <ele>593.5</ele>
        <time>2026-02-22T09:15:41Z</time>
      </trkpt>
      <trkpt lat="43.59711" lon="6.38">
        <ele>593.6</ele>
        <time>2026-02-22T09:15:42Z</time>
      </trkpt>
      <trkpt lat="43.59712" lon="6.38001">
        <ele>593.6</ele>
        <time>2026-02-22T09:15:43Z</time>
      </trkpt>
      <trkpt lat="43.59712" lon="6.38002">
        <ele>593.5</ele>
        <time>2026-02-22T09:15:44Z</time>
      </trkpt>
      <trkpt lat="43.59713" lon="6.38003">
        <ele>593.5</ele>
        <time>2026-02-22T09:15:45Z</time>
      </trkpt>
      <trkpt lat="43.59714" lon="6.38003">
        <ele>593.4</ele>
        <time>2026-02-22T09:15:46Z</time>
      </trkpt>
      <trkpt lat="43.59715" lon="6.38004">
        <ele>593.4</ele>
        <time>2026-02-22T09:15:47Z</time>
      </trkpt>
      <trkpt lat="43.59716" lon="6.38004">
        <ele>593.3</ele>
        <time>2026-02-22T09:15:48Z</time>
      </trkpt>
      <trkpt lat="43.59717" lon="6.38005">
        <ele>593.2</ele>
        <time>2026-02-22T09:15:49Z</time>
      </trkpt>
      <trkpt lat="43.59718" lon="6.38005">
        <ele>593.2</ele>
        <time>2026-02-22T09:15:50Z</time>
      </trkpt>
      <trkpt lat="43.59718" lon="6.38006">
        <ele>593.2</ele>
        <time>2026-02-22T09:15:51Z</time>
      </trkpt>
      <trkpt lat="43.59719" lon="6.38007">
        <ele>593.2</ele>
        <time>2026-02-22T09:15:52Z</time>
      </trkpt>
      <trkpt lat="43.5972" lon="6.38007">
        <ele>593.1</ele>
        <time>2026-02-22T09:15:53Z</time>
      </trkpt>
      <trkpt lat="43.5972" lon="6.38008">
        <ele>593</ele>
        <time>2026-02-22T09:15:54Z</time>
      </trkpt>
      <trkpt lat="43.59721" lon="6.38009">
        <ele>592.8</ele>
        <time>2026-02-22T09:15:55Z</time>
      </trkpt>
      <trkpt lat="43.59722" lon="6.3801">
        <ele>592.7</ele>
        <time>2026-02-22T09:15:56Z</time>
      </trkpt>
      <trkpt lat="43.59723" lon="6.38011">
        <ele>592.7</ele>
        <time>2026-02-22T09:15:57Z</time>
      </trkpt>
      <trkpt lat="43.59724" lon="6.38012">
        <ele>592.6</ele>
        <time>2026-02-22T09:15:58Z</time>
      </trkpt>
      <trkpt lat="43.59725" lon="6.38012">
        <ele>592.5</ele>
        <time>2026-02-22T09:15:59Z</time>
      </trkpt>
      <trkpt lat="43.59725" lon="6.38013">
        <ele>592.5</ele>
        <time>2026-02-22T09:16:00Z</time>
      </trkpt>
      <trkpt lat="43.59725" lon="6.38015">
        <ele>592.3</ele>
        <time>2026-02-22T09:16:01Z</time>
      </trkpt>
      <trkpt lat="43.59726" lon="6.38015">
        <ele>592.2</ele>
        <time>2026-02-22T09:16:02Z</time>
      </trkpt>
      <trkpt lat="43.59726" lon="6.38016">
        <ele>592.1</ele>
        <time>2026-02-22T09:16:03Z</time>
      </trkpt>
      <trkpt lat="43.59726" lon="6.38017">
        <ele>592</ele>
        <time>2026-02-22T09:16:04Z</time>
      </trkpt>
      <trkpt lat="43.59727" lon="6.38018">
        <ele>591.9</ele>
        <time>2026-02-22T09:16:05Z</time>
      </trkpt>
      <trkpt lat="43.59727" lon="6.38019">
        <ele>591.9</ele>
        <time>2026-02-22T09:16:06Z</time>
      </trkpt>
      <trkpt lat="43.59728" lon="6.38019">
        <ele>591.8</ele>
        <time>2026-02-22T09:16:07Z</time>
      </trkpt>
      <trkpt lat="43.59729" lon="6.3802">
        <ele>591.7</ele>
        <time>2026-02-22T09:16:08Z</time>
      </trkpt>
      <trkpt lat="43.59729" lon="6.3802">
        <ele>591.5</ele>
        <time>2026-02-22T09:16:09Z</time>
      </trkpt>
      <trkpt lat="43.59729" lon="6.3802">
        <ele>591.4</ele>
        <time>2026-02-22T09:16:10Z</time>
      </trkpt>
      <trkpt lat="43.59729" lon="6.3802">
        <ele>591.4</ele>
        <time>2026-02-22T09:16:11Z</time>
      </trkpt>
      <trkpt lat="43.59729" lon="6.3802">
        <ele>591.4</ele>
        <time>2026-02-22T09:16:12Z</time>
      </trkpt>
      <trkpt lat="43.5973" lon="6.3802">
        <ele>591.4</ele>
        <time>2026-02-22T09:16:13Z</time>
      </trkpt>
      <trkpt lat="43.5973" lon="6.38021">
        <ele>591.4</ele>
        <time>2026-02-22T09:16:14Z</time>
      </trkpt>
      <trkpt lat="43.5973" lon="6.38021">
        <ele>591.3</ele>
        <time>2026-02-22T09:16:15Z</time>
      </trkpt>
      <trkpt lat="43.5973" lon="6.38021">
        <ele>591.3</ele>
        <time>2026-02-22T09:16:16Z</time>
      </trkpt>
      <trkpt lat="43.5973" lon="6.38021">
        <ele>591.4</ele>
        <time>2026-02-22T09:16:17Z</time>
      </trkpt>
      <trkpt lat="43.59731" lon="6.38022">
        <ele>591.4</ele>
        <time>2026-02-22T09:16:18Z</time>
      </trkpt>
      <trkpt lat="43.59731" lon="6.38022">
        <ele>591.3</ele>
        <time>2026-02-22T09:16:19Z</time>
      </trkpt>
      <trkpt lat="43.59731" lon="6.38022">
        <ele>591.3</ele>
        <time>2026-02-22T09:16:20Z</time>
      </trkpt>
      <trkpt lat="43.59731" lon="6.38022">
        <ele>591.3</ele>
        <time>2026-02-22T09:16:21Z</time>
      </trkpt>
      <trkpt lat="43.59731" lon="6.38022">
        <ele>591.3</ele>
        <time>2026-02-22T09:16:22Z</time>
      </trkpt>
      <trkpt lat="43.59731" lon="6.38022">
        <ele>591.2</ele>
        <time>2026-02-22T09:16:23Z</time>
      </trkpt>
      <trkpt lat="43.59731" lon="6.38022">
        <ele>591.2</ele>
        <time>2026-02-22T09:16:24Z</time>
      </trkpt>
      <trkpt lat="43.59731" lon="6.38023">
        <ele>591.3</ele>
        <time>2026-02-22T09:16:25Z</time>
      </trkpt>
      <trkpt lat="43.59732" lon="6.38023">
        <ele>591.3</ele>
        <time>2026-02-22T09:16:26Z</time>
      </trkpt>
      <trkpt lat="43.59732" lon="6.38023">
        <ele>591.3</ele>
        <time>2026-02-22T09:16:27Z</time>
      </trkpt>
      <trkpt lat="43.59732" lon="6.38024">
        <ele>591.3</ele>
        <time>2026-02-22T09:16:28Z</time>
      </trkpt>
      <trkpt lat="43.59732" lon="6.38024">
        <ele>591.4</ele>
        <time>2026-02-22T09:16:29Z</time>
      </trkpt>
      <trkpt lat="43.59732" lon="6.38024">
        <ele>591.4</ele>
        <time>2026-02-22T09:16:30Z</time>
      </trkpt>
      <trkpt lat="43.59732" lon="6.38024">
        <ele>591.4</ele>
        <time>2026-02-22T09:16:31Z</time>
      </trkpt>
      <trkpt lat="43.59732" lon="6.38024">
        <ele>591.4</ele>
        <time>2026-02-22T09:16:32Z</time>
      </trkpt>
      <trkpt lat="43.59732" lon="6.38024">
        <ele>591.4</ele>
        <time>2026-02-22T09:16:33Z</time>
      </trkpt>
      <trkpt lat="43.59733" lon="6.38024">
        <ele>591.4</ele>
        <time>2026-02-22T09:16:34Z</time>
      </trkpt>
      <trkpt lat="43.59733" lon="6.38025">
        <ele>591.4</ele>
        <time>2026-02-22T09:16:35Z</time>
      </trkpt>
      <trkpt lat="43.59733" lon="6.38025">
        <ele>591.4</ele>
        <time>2026-02-22T09:16:36Z</time>
      </trkpt>
      <trkpt lat="43.59733" lon="6.38025">
        <ele>591.4</ele>
        <time>2026-02-22T09:16:37Z</time>
      </trkpt>
      <trkpt lat="43.59733" lon="6.38025">
        <ele>591.4</ele>
        <time>2026-02-22T09:16:38Z</time>
      </trkpt>
      <trkpt lat="43.59733" lon="6.38025">
        <ele>591.4</ele>
        <time>2026-02-22T09:16:39Z</time>
      </trkpt>
      <trkpt lat="43.59733" lon="6.38025">
        <ele>591.4</ele>
        <time>2026-02-22T09:16:40Z</time>
      </trkpt>
      <trkpt lat="43.59733" lon="6.38025">
        <ele>591.4</ele>
        <time>2026-02-22T09:16:41Z</time>
      </trkpt>
      <trkpt lat="43.59733" lon="6.38025">
        <ele>591.4</ele>
        <time>2026-02-22T09:16:42Z</time>
      </trkpt>
      <trkpt lat="43.59733" lon="6.38025">
        <ele>591.4</ele>
        <time>2026-02-22T09:16:43Z</time>
      </trkpt>
      <trkpt lat="43.59732" lon="6.38025">
        <ele>591.3</ele>
        <time>2026-02-22T09:16:44Z</time>
      </trkpt>
      <trkpt lat="43.59732" lon="6.38025">
        <ele>591.3</ele>
        <time>2026-02-22T09:16:45Z</time>
      </trkpt>
      <trkpt lat="43.59731" lon="6.38025">
        <ele>591.4</ele>
        <time>2026-02-22T09:16:46Z</time>
      </trkpt>
      <trkpt lat="43.59731" lon="6.38025">
        <ele>591.5</ele>
        <time>2026-02-22T09:16:47Z</time>
      </trkpt>
      <trkpt lat="43.59731" lon="6.38025">
        <ele>591.6</ele>
        <time>2026-02-22T09:16:48Z</time>
      </trkpt>
      <trkpt lat="43.59731" lon="6.38025">
        <ele>591.6</ele>
        <time>2026-02-22T09:16:49Z</time>
      </trkpt>
      <trkpt lat="43.59731" lon="6.38025">
        <ele>591.6</ele>
        <time>2026-02-22T09:16:50Z</time>
      </trkpt>
      <trkpt lat="43.59731" lon="6.38024">
        <ele>591.5</ele>
        <time>2026-02-22T09:16:51Z</time>
      </trkpt>
      <trkpt lat="43.59731" lon="6.38023">
        <ele>591.5</ele>
        <time>2026-02-22T09:16:52Z</time>
      </trkpt>
      <trkpt lat="43.59731" lon="6.38023">
        <ele>591.5</ele>
        <time>2026-02-22T09:16:53Z</time>
      </trkpt>
      <trkpt lat="43.59731" lon="6.38023">
        <ele>591.4</ele>
        <time>2026-02-22T09:16:54Z</time>
      </trkpt>
      <trkpt lat="43.59732" lon="6.38023">
        <ele>591.4</ele>
        <time>2026-02-22T09:16:55Z</time>
      </trkpt>
      <trkpt lat="43.59731" lon="6.38023">
        <ele>591.3</ele>
        <time>2026-02-22T09:16:56Z</time>
      </trkpt>
      <trkpt lat="43.59732" lon="6.38023">
        <ele>591.3</ele>
        <time>2026-02-22T09:16:57Z</time>
      </trkpt>
      <trkpt lat="43.59732" lon="6.38023">
        <ele>591.3</ele>
        <time>2026-02-22T09:16:58Z</time>
      </trkpt>
      <trkpt lat="43.59732" lon="6.38024">
        <ele>591.2</ele>
        <time>2026-02-22T09:16:59Z</time>
      </trkpt>
      <trkpt lat="43.59732" lon="6.38024">
        <ele>591.2</ele>
        <time>2026-02-22T09:17:00Z</time>
      </trkpt>
      <trkpt lat="43.59732" lon="6.38024">
        <ele>591.3</ele>
        <time>2026-02-22T09:17:01Z</time>
      </trkpt>
      <trkpt lat="43.59732" lon="6.38025">
        <ele>591.3</ele>
        <time>2026-02-22T09:17:02Z</time>
      </trkpt>
      <trkpt lat="43.59732" lon="6.38025">
        <ele>591.3</ele>
        <time>2026-02-22T09:17:03Z</time>
      </trkpt>
      <trkpt lat="43.59732" lon="6.38025">
        <ele>591.4</ele>
        <time>2026-02-22T09:17:04Z</time>
      </trkpt>
      <trkpt lat="43.59733" lon="6.38025">
        <ele>591.4</ele>
        <time>2026-02-22T09:17:05Z</time>
      </trkpt>
      <trkpt lat="43.59733" lon="6.38025">
        <ele>591.5</ele>
        <time>2026-02-22T09:17:06Z</time>
      </trkpt>
      <trkpt lat="43.59733" lon="6.38026">
        <ele>591.5</ele>
        <time>2026-02-22T09:17:07Z</time>
      </trkpt>
      <trkpt lat="43.59733" lon="6.38025">
        <ele>591.4</ele>
        <time>2026-02-22T09:17:08Z</time>
      </trkpt>
      <trkpt lat="43.59733" lon="6.38025">
        <ele>591.4</ele>
        <time>2026-02-22T09:17:09Z</time>
      </trkpt>
      <trkpt lat="43.59733" lon="6.38025">
        <ele>591.4</ele>
        <time>2026-02-22T09:17:10Z</time>
      </trkpt>
      <trkpt lat="43.59733" lon="6.38025">
        <ele>591.4</ele>
        <time>2026-02-22T09:17:11Z</time>
      </trkpt>
      <trkpt lat="43.59733" lon="6.38025">
        <ele>591.4</ele>
        <time>2026-02-22T09:17:12Z</time>
      </trkpt>
      <trkpt lat="43.59733" lon="6.38026">
        <ele>591.4</ele>
        <time>2026-02-22T09:17:13Z</time>
      </trkpt>
      <trkpt lat="43.59733" lon="6.38026">
        <ele>591.3</ele>
        <time>2026-02-22T09:17:14Z</time>
      </trkpt>
      <trkpt lat="43.59733" lon="6.38026">
        <ele>591.3</ele>
        <time>2026-02-22T09:17:15Z</time>
      </trkpt>
      <trkpt lat="43.59733" lon="6.38026">
        <ele>591.4</ele>
        <time>2026-02-22T09:17:16Z</time>
      </trkpt>
      <trkpt lat="43.59733" lon="6.38026">
        <ele>591.4</ele>
        <time>2026-02-22T09:17:17Z</time>
      </trkpt>
      <trkpt lat="43.59733" lon="6.38026">
        <ele>591.3</ele>
        <time>2026-02-22T09:17:18Z</time>
      </trkpt>
      <trkpt lat="43.59733" lon="6.38026">
        <ele>591.3</ele>
        <time>2026-02-22T09:17:19Z</time>
      </trkpt>
      <trkpt lat="43.59733" lon="6.38026">
        <ele>591.4</ele>
        <time>2026-02-22T09:17:20Z</time>
      </trkpt>
      <trkpt lat="43.59733" lon="6.38026">
        <ele>591.3</ele>
        <time>2026-02-22T09:17:21Z</time>
      </trkpt>
      <trkpt lat="43.59733" lon="6.38026">
        <ele>591.3</ele>
        <time>2026-02-22T09:17:22Z</time>
      </trkpt>
      <trkpt lat="43.59733" lon="6.38026">
        <ele>591.3</ele>
        <time>2026-02-22T09:17:23Z</time>
      </trkpt>
      <trkpt lat="43.59733" lon="6.38026">
        <ele>591.3</ele>
        <time>2026-02-22T09:17:24Z</time>
      </trkpt>
      <trkpt lat="43.59733" lon="6.38026">
        <ele>591.3</ele>
        <time>2026-02-22T09:17:25Z</time>
      </trkpt>
      <trkpt lat="43.59733" lon="6.38026">
        <ele>591.2</ele>
        <time>2026-02-22T09:17:26Z</time>
      </trkpt>
      <trkpt lat="43.59733" lon="6.38026">
        <ele>591.2</ele>
        <time>2026-02-22T09:17:27Z</time>
      </trkpt>
      <trkpt lat="43.59733" lon="6.38027">
        <ele>591.3</ele>
        <time>2026-02-22T09:17:28Z</time>
      </trkpt>
      <trkpt lat="43.59733" lon="6.38026">
        <ele>591.3</ele>
        <time>2026-02-22T09:17:29Z</time>
      </trkpt>
      <trkpt lat="43.59733" lon="6.38026">
        <ele>591.3</ele>
        <time>2026-02-22T09:17:30Z</time>
      </trkpt>
      <trkpt lat="43.59733" lon="6.38026">
        <ele>591.3</ele>
        <time>2026-02-22T09:17:31Z</time>
      </trkpt>
      <trkpt lat="43.59733" lon="6.38026">
        <ele>591.3</ele>
        <time>2026-02-22T09:17:32Z</time>
      </trkpt>
      <trkpt lat="43.59733" lon="6.38026">
        <ele>591.2</ele>
        <time>2026-02-22T09:17:33Z</time>
      </trkpt>
      <trkpt lat="43.59734" lon="6.38027">
        <ele>591.2</ele>
        <time>2026-02-22T09:17:34Z</time>
      </trkpt>
      <trkpt lat="43.59734" lon="6.38028">
        <ele>591.2</ele>
        <time>2026-02-22T09:17:35Z</time>
      </trkpt>
      <trkpt lat="43.59735" lon="6.3803">
        <ele>591.1</ele>
        <time>2026-02-22T09:17:36Z</time>
      </trkpt>
      <trkpt lat="43.59735" lon="6.38031">
        <ele>591.2</ele>
        <time>2026-02-22T09:17:37Z</time>
      </trkpt>
      <trkpt lat="43.59735" lon="6.38032">
        <ele>591.3</ele>
        <time>2026-02-22T09:17:38Z</time>
      </trkpt>
      <trkpt lat="43.59736" lon="6.38033">
        <ele>591.3</ele>
        <time>2026-02-22T09:17:39Z</time>
      </trkpt>
      <trkpt lat="43.59736" lon="6.38034">
        <ele>591.3</ele>
        <time>2026-02-22T09:17:40Z</time>
      </trkpt>
      <trkpt lat="43.59737" lon="6.38034">
        <ele>591.3</ele>
        <time>2026-02-22T09:17:41Z</time>
      </trkpt>
      <trkpt lat="43.59737" lon="6.38035">
        <ele>591.3</ele>
        <time>2026-02-22T09:17:42Z</time>
      </trkpt>
      <trkpt lat="43.59737" lon="6.38036">
        <ele>591.2</ele>
        <time>2026-02-22T09:17:43Z</time>
      </trkpt>
      <trkpt lat="43.59738" lon="6.38037">
        <ele>591.2</ele>
        <time>2026-02-22T09:17:44Z</time>
      </trkpt>
      <trkpt lat="43.59739" lon="6.38038">
        <ele>591.1</ele>
        <time>2026-02-22T09:17:45Z</time>
      </trkpt>
      <trkpt lat="43.59739" lon="6.38039">
        <ele>591.1</ele>
        <time>2026-02-22T09:17:46Z</time>
      </trkpt>
      <trkpt lat="43.5974" lon="6.38041">
        <ele>591</ele>
        <time>2026-02-22T09:17:47Z</time>
      </trkpt>
      <trkpt lat="43.5974" lon="6.38042">
        <ele>590.9</ele>
        <time>2026-02-22T09:17:48Z</time>
      </trkpt>
      <trkpt lat="43.59741" lon="6.38043">
        <ele>590.8</ele>
        <time>2026-02-22T09:17:49Z</time>
      </trkpt>
      <trkpt lat="43.59742" lon="6.38044">
        <ele>590.7</ele>
        <time>2026-02-22T09:17:50Z</time>
      </trkpt>
      <trkpt lat="43.59743" lon="6.38045">
        <ele>590.7</ele>
        <time>2026-02-22T09:17:51Z</time>
      </trkpt>
      <trkpt lat="43.59743" lon="6.38046">
        <ele>590.7</ele>
        <time>2026-02-22T09:17:52Z</time>
      </trkpt>
      <trkpt lat="43.59744" lon="6.38047">
        <ele>590.7</ele>
        <time>2026-02-22T09:17:53Z</time>
      </trkpt>
      <trkpt lat="43.59745" lon="6.38048">
        <ele>590.6</ele>
        <time>2026-02-22T09:17:54Z</time>
      </trkpt>
      <trkpt lat="43.59745" lon="6.38048">
        <ele>590.5</ele>
        <time>2026-02-22T09:17:55Z</time>
      </trkpt>
      <trkpt lat="43.59746" lon="6.38049">
        <ele>590.4</ele>
        <time>2026-02-22T09:17:56Z</time>
      </trkpt>
      <trkpt lat="43.59747" lon="6.3805">
        <ele>590.4</ele>
        <time>2026-02-22T09:17:57Z</time>
      </trkpt>
      <trkpt lat="43.59747" lon="6.38051">
        <ele>590.5</ele>
        <time>2026-02-22T09:17:58Z</time>
      </trkpt>
      <trkpt lat="43.59748" lon="6.38052">
        <ele>590.4</ele>
        <time>2026-02-22T09:17:59Z</time>
      </trkpt>
      <trkpt lat="43.59748" lon="6.38052">
        <ele>590.4</ele>
        <time>2026-02-22T09:18:00Z</time>
      </trkpt>
      <trkpt lat="43.59749" lon="6.38053">
        <ele>590.3</ele>
        <time>2026-02-22T09:18:01Z</time>
      </trkpt>
      <trkpt lat="43.59749" lon="6.38053">
        <ele>590.3</ele>
        <time>2026-02-22T09:18:02Z</time>
      </trkpt>
      <trkpt lat="43.5975" lon="6.38053">
        <ele>590.3</ele>
        <time>2026-02-22T09:18:03Z</time>
      </trkpt>
      <trkpt lat="43.5975" lon="6.38053">
        <ele>590.2</ele>
        <time>2026-02-22T09:18:04Z</time>
      </trkpt>
      <trkpt lat="43.59751" lon="6.38053">
        <ele>590.2</ele>
        <time>2026-02-22T09:18:05Z</time>
      </trkpt>
      <trkpt lat="43.59751" lon="6.38053">
        <ele>590.3</ele>
        <time>2026-02-22T09:18:06Z</time>
      </trkpt>
      <trkpt lat="43.59751" lon="6.38052">
        <ele>590.3</ele>
        <time>2026-02-22T09:18:07Z</time>
      </trkpt>
      <trkpt lat="43.59751" lon="6.38052">
        <ele>590.3</ele>
        <time>2026-02-22T09:18:08Z</time>
      </trkpt>
      <trkpt lat="43.59751" lon="6.38053">
        <ele>590.3</ele>
        <time>2026-02-22T09:18:09Z</time>
      </trkpt>
      <trkpt lat="43.59751" lon="6.38052">
        <ele>590.3</ele>
        <time>2026-02-22T09:18:10Z</time>
      </trkpt>
      <trkpt lat="43.59751" lon="6.38052">
        <ele>590.3</ele>
        <time>2026-02-22T09:18:11Z</time>
      </trkpt>
      <trkpt lat="43.59751" lon="6.38052">
        <ele>590.3</ele>
        <time>2026-02-22T09:18:12Z</time>
      </trkpt>
      <trkpt lat="43.59751" lon="6.38052">
        <ele>590.3</ele>
        <time>2026-02-22T09:18:13Z</time>
      </trkpt>
      <trkpt lat="43.59752" lon="6.38052">
        <ele>590.3</ele>
        <time>2026-02-22T09:18:14Z</time>
      </trkpt>
      <trkpt lat="43.59752" lon="6.38052">
        <ele>590.3</ele>
        <time>2026-02-22T09:18:15Z</time>
      </trkpt>
      <trkpt lat="43.59752" lon="6.38052">
        <ele>590.3</ele>
        <time>2026-02-22T09:18:16Z</time>
      </trkpt>
      <trkpt lat="43.59752" lon="6.38052">
        <ele>590.3</ele>
        <time>2026-02-22T09:18:17Z</time>
      </trkpt>
      <trkpt lat="43.59752" lon="6.38052">
        <ele>590.3</ele>
        <time>2026-02-22T09:18:18Z</time>
      </trkpt>
      <trkpt lat="43.59753" lon="6.38052">
        <ele>590.3</ele>
        <time>2026-02-22T09:18:19Z</time>
      </trkpt>
      <trkpt lat="43.59753" lon="6.38052">
        <ele>590.3</ele>
        <time>2026-02-22T09:18:20Z</time>
      </trkpt>
      <trkpt lat="43.59753" lon="6.38052">
        <ele>590.2</ele>
        <time>2026-02-22T09:18:21Z</time>
      </trkpt>
      <trkpt lat="43.59753" lon="6.38052">
        <ele>590.1</ele>
        <time>2026-02-22T09:18:22Z</time>
      </trkpt>
      <trkpt lat="43.59753" lon="6.38052">
        <ele>590.1</ele>
        <time>2026-02-22T09:18:23Z</time>
      </trkpt>
      <trkpt lat="43.59753" lon="6.38052">
        <ele>590.1</ele>
        <time>2026-02-22T09:18:24Z</time>
      </trkpt>
      <trkpt lat="43.59753" lon="6.38052">
        <ele>590.2</ele>
        <time>2026-02-22T09:18:25Z</time>
      </trkpt>
      <trkpt lat="43.59753" lon="6.38052">
        <ele>590.2</ele>
        <time>2026-02-22T09:18:26Z</time>
      </trkpt>
      <trkpt lat="43.59753" lon="6.38052">
        <ele>590.2</ele>
        <time>2026-02-22T09:18:27Z</time>
      </trkpt>
      <trkpt lat="43.59753" lon="6.38052">
        <ele>590.2</ele>
        <time>2026-02-22T09:18:28Z</time>
      </trkpt>
      <trkpt lat="43.59753" lon="6.38052">
        <ele>590.1</ele>
        <time>2026-02-22T09:18:29Z</time>
      </trkpt>
      <trkpt lat="43.59753" lon="6.38052">
        <ele>590.1</ele>
        <time>2026-02-22T09:18:30Z</time>
      </trkpt>
      <trkpt lat="43.59754" lon="6.38052">
        <ele>590.2</ele>
        <time>2026-02-22T09:18:31Z</time>
      </trkpt>
      <trkpt lat="43.59754" lon="6.38052">
        <ele>590.2</ele>
        <time>2026-02-22T09:18:32Z</time>
      </trkpt>
      <trkpt lat="43.59755" lon="6.38052">
        <ele>590.3</ele>
        <time>2026-02-22T09:18:33Z</time>
      </trkpt>
      <trkpt lat="43.59755" lon="6.38051">
        <ele>590.3</ele>
        <time>2026-02-22T09:18:34Z</time>
      </trkpt>
      <trkpt lat="43.59756" lon="6.38051">
        <ele>590.4</ele>
        <time>2026-02-22T09:18:35Z</time>
      </trkpt>
      <trkpt lat="43.59757" lon="6.38051">
        <ele>590.4</ele>
        <time>2026-02-22T09:18:36Z</time>
      </trkpt>
      <trkpt lat="43.59758" lon="6.3805">
        <ele>590.5</ele>
        <time>2026-02-22T09:18:37Z</time>
      </trkpt>
      <trkpt lat="43.59759" lon="6.38049">
        <ele>590.5</ele>
        <time>2026-02-22T09:18:38Z</time>
      </trkpt>
      <trkpt lat="43.59759" lon="6.38048">
        <ele>590.5</ele>
        <time>2026-02-22T09:18:39Z</time>
      </trkpt>
      <trkpt lat="43.5976" lon="6.38048">
        <ele>590.5</ele>
        <time>2026-02-22T09:18:40Z</time>
      </trkpt>
      <trkpt lat="43.5976" lon="6.38048">
        <ele>590.5</ele>
        <time>2026-02-22T09:18:41Z</time>
      </trkpt>
      <trkpt lat="43.59761" lon="6.38048">
        <ele>590.5</ele>
        <time>2026-02-22T09:18:42Z</time>
      </trkpt>
      <trkpt lat="43.59762" lon="6.38048">
        <ele>590.5</ele>
        <time>2026-02-22T09:18:43Z</time>
      </trkpt>
      <trkpt lat="43.59762" lon="6.38048">
        <ele>590.6</ele>
        <time>2026-02-22T09:18:44Z</time>
      </trkpt>
      <trkpt lat="43.59764" lon="6.38047">
        <ele>590.6</ele>
        <time>2026-02-22T09:18:45Z</time>
      </trkpt>
      <trkpt lat="43.59764" lon="6.38047">
        <ele>590.7</ele>
        <time>2026-02-22T09:18:46Z</time>
      </trkpt>
      <trkpt lat="43.59765" lon="6.38047">
        <ele>590.8</ele>
        <time>2026-02-22T09:18:47Z</time>
      </trkpt>
      <trkpt lat="43.59765" lon="6.38047">
        <ele>590.9</ele>
        <time>2026-02-22T09:18:48Z</time>
      </trkpt>
      <trkpt lat="43.59766" lon="6.38047">
        <ele>591</ele>
        <time>2026-02-22T09:18:49Z</time>
      </trkpt>
      <trkpt lat="43.59767" lon="6.38046">
        <ele>591.1</ele>
        <time>2026-02-22T09:18:50Z</time>
      </trkpt>
      <trkpt lat="43.59767" lon="6.38046">
        <ele>591.1</ele>
        <time>2026-02-22T09:18:51Z</time>
      </trkpt>
      <trkpt lat="43.59768" lon="6.38045">
        <ele>591.1</ele>
        <time>2026-02-22T09:18:52Z</time>
      </trkpt>
      <trkpt lat="43.59769" lon="6.38045">
        <ele>591.2</ele>
        <time>2026-02-22T09:18:53Z</time>
      </trkpt>
      <trkpt lat="43.5977" lon="6.38046">
        <ele>591.2</ele>
        <time>2026-02-22T09:18:54Z</time>
      </trkpt>
      <trkpt lat="43.59771" lon="6.38044">
        <ele>591.3</ele>
        <time>2026-02-22T09:18:55Z</time>
      </trkpt>
      <trkpt lat="43.59772" lon="6.38043">
        <ele>591.4</ele>
        <time>2026-02-22T09:18:56Z</time>
      </trkpt>
      <trkpt lat="43.59773" lon="6.38043">
        <ele>591.4</ele>
        <time>2026-02-22T09:18:57Z</time>
      </trkpt>
      <trkpt lat="43.59774" lon="6.38043">
        <ele>591.6</ele>
        <time>2026-02-22T09:18:58Z</time>
      </trkpt>
      <trkpt lat="43.59774" lon="6.38043">
        <ele>591.7</ele>
        <time>2026-02-22T09:18:59Z</time>
      </trkpt>
      <trkpt lat="43.59775" lon="6.38043">
        <ele>591.7</ele>
        <time>2026-02-22T09:19:00Z</time>
      </trkpt>
      <trkpt lat="43.59776" lon="6.38043">
        <ele>591.8</ele>
        <time>2026-02-22T09:19:01Z</time>
      </trkpt>
      <trkpt lat="43.59777" lon="6.38043">
        <ele>591.9</ele>
        <time>2026-02-22T09:19:02Z</time>
      </trkpt>
      <trkpt lat="43.59778" lon="6.38043">
        <ele>591.9</ele>
        <time>2026-02-22T09:19:03Z</time>
      </trkpt>
      <trkpt lat="43.59779" lon="6.38043">
        <ele>592</ele>
        <time>2026-02-22T09:19:04Z</time>
      </trkpt>
      <trkpt lat="43.5978" lon="6.38043">
        <ele>592.1</ele>
        <time>2026-02-22T09:19:05Z</time>
      </trkpt>
      <trkpt lat="43.59782" lon="6.38043">
        <ele>592.2</ele>
        <time>2026-02-22T09:19:06Z</time>
      </trkpt>
      <trkpt lat="43.59783" lon="6.38043">
        <ele>592.4</ele>
        <time>2026-02-22T09:19:07Z</time>
      </trkpt>
      <trkpt lat="43.59784" lon="6.38043">
        <ele>592.5</ele>
        <time>2026-02-22T09:19:08Z</time>
      </trkpt>
      <trkpt lat="43.59784" lon="6.38043">
        <ele>592.7</ele>
        <time>2026-02-22T09:19:09Z</time>
      </trkpt>
      <trkpt lat="43.59786" lon="6.38042">
        <ele>592.8</ele>
        <time>2026-02-22T09:19:10Z</time>
      </trkpt>
      <trkpt lat="43.59787" lon="6.3804">
        <ele>592.9</ele>
        <time>2026-02-22T09:19:11Z</time>
      </trkpt>
      <trkpt lat="43.59788" lon="6.3804">
        <ele>593</ele>
        <time>2026-02-22T09:19:12Z</time>
      </trkpt>
      <trkpt lat="43.59789" lon="6.38039">
        <ele>593.1</ele>
        <time>2026-02-22T09:19:13Z</time>
      </trkpt>
      <trkpt lat="43.5979" lon="6.38038">
        <ele>593.2</ele>
        <time>2026-02-22T09:19:14Z</time>
      </trkpt>
      <trkpt lat="43.5979" lon="6.38038">
        <ele>593.3</ele>
        <time>2026-02-22T09:19:15Z</time>
      </trkpt>
      <trkpt lat="43.59791" lon="6.38039">
        <ele>593.3</ele>
        <time>2026-02-22T09:19:16Z</time>
      </trkpt>
      <trkpt lat="43.59792" lon="6.38039">
        <ele>593.4</ele>
        <time>2026-02-22T09:19:17Z</time>
      </trkpt>
      <trkpt lat="43.59793" lon="6.38039">
        <ele>593.5</ele>
        <time>2026-02-22T09:19:18Z</time>
      </trkpt>
      <trkpt lat="43.59794" lon="6.38039">
        <ele>593.6</ele>
        <time>2026-02-22T09:19:19Z</time>
      </trkpt>
      <trkpt lat="43.59794" lon="6.38039">
        <ele>593.7</ele>
        <time>2026-02-22T09:19:20Z</time>
      </trkpt>
      <trkpt lat="43.59795" lon="6.38039">
        <ele>593.8</ele>
        <time>2026-02-22T09:19:21Z</time>
      </trkpt>
      <trkpt lat="43.59796" lon="6.38039">
        <ele>593.9</ele>
        <time>2026-02-22T09:19:22Z</time>
      </trkpt>
      <trkpt lat="43.59797" lon="6.38039">
        <ele>594.1</ele>
        <time>2026-02-22T09:19:23Z</time>
      </trkpt>
      <trkpt lat="43.59798" lon="6.38039">
        <ele>594.2</ele>
        <time>2026-02-22T09:19:24Z</time>
      </trkpt>
      <trkpt lat="43.59799" lon="6.38039">
        <ele>594.3</ele>
        <time>2026-02-22T09:19:25Z</time>
      </trkpt>
      <trkpt lat="43.598" lon="6.38039">
        <ele>594.4</ele>
        <time>2026-02-22T09:19:26Z</time>
      </trkpt>
      <trkpt lat="43.598" lon="6.38039">
        <ele>594.4</ele>
        <time>2026-02-22T09:19:27Z</time>
      </trkpt>
      <trkpt lat="43.59801" lon="6.3804">
        <ele>594.5</ele>
        <time>2026-02-22T09:19:28Z</time>
      </trkpt>
      <trkpt lat="43.59802" lon="6.3804">
        <ele>594.5</ele>
        <time>2026-02-22T09:19:29Z</time>
      </trkpt>
      <trkpt lat="43.59803" lon="6.3804">
        <ele>594.6</ele>
        <time>2026-02-22T09:19:30Z</time>
      </trkpt>
      <trkpt lat="43.59803" lon="6.38041">
        <ele>594.6</ele>
        <time>2026-02-22T09:19:31Z</time>
      </trkpt>
      <trkpt lat="43.59804" lon="6.38041">
        <ele>594.7</ele>
        <time>2026-02-22T09:19:32Z</time>
      </trkpt>
      <trkpt lat="43.59804" lon="6.38041">
        <ele>594.8</ele>
        <time>2026-02-22T09:19:33Z</time>
      </trkpt>
      <trkpt lat="43.59805" lon="6.38041">
        <ele>594.8</ele>
        <time>2026-02-22T09:19:34Z</time>
      </trkpt>
      <trkpt lat="43.59806" lon="6.38041">
        <ele>594.9</ele>
        <time>2026-02-22T09:19:35Z</time>
      </trkpt>
      <trkpt lat="43.59807" lon="6.38041">
        <ele>594.9</ele>
        <time>2026-02-22T09:19:36Z</time>
      </trkpt>
      <trkpt lat="43.59808" lon="6.38041">
        <ele>595</ele>
        <time>2026-02-22T09:19:37Z</time>
      </trkpt>
      <trkpt lat="43.59809" lon="6.3804">
        <ele>595</ele>
        <time>2026-02-22T09:19:38Z</time>
      </trkpt>
      <trkpt lat="43.5981" lon="6.38039">
        <ele>595.2</ele>
        <time>2026-02-22T09:19:39Z</time>
      </trkpt>
      <trkpt lat="43.59812" lon="6.38039">
        <ele>595.2</ele>
        <time>2026-02-22T09:19:40Z</time>
      </trkpt>
      <trkpt lat="43.59813" lon="6.38039">
        <ele>595.2</ele>
        <time>2026-02-22T09:19:41Z</time>
      </trkpt>
      <trkpt lat="43.59813" lon="6.38038">
        <ele>595.2</ele>
        <time>2026-02-22T09:19:42Z</time>
      </trkpt>
      <trkpt lat="43.59814" lon="6.38039">
        <ele>595.3</ele>
        <time>2026-02-22T09:19:43Z</time>
      </trkpt>
      <trkpt lat="43.59815" lon="6.3804">
        <ele>595.4</ele>
        <time>2026-02-22T09:19:44Z</time>
      </trkpt>
      <trkpt lat="43.59816" lon="6.38041">
        <ele>595.5</ele>
        <time>2026-02-22T09:19:45Z</time>
      </trkpt>
      <trkpt lat="43.59817" lon="6.38041">
        <ele>595.5</ele>
        <time>2026-02-22T09:19:46Z</time>
      </trkpt>
      <trkpt lat="43.59818" lon="6.38041">
        <ele>595.6</ele>
        <time>2026-02-22T09:19:47Z</time>
      </trkpt>
      <trkpt lat="43.59819" lon="6.38042">
        <ele>595.6</ele>
        <time>2026-02-22T09:19:48Z</time>
      </trkpt>
      <trkpt lat="43.5982" lon="6.38042">
        <ele>595.6</ele>
        <time>2026-02-22T09:19:49Z</time>
      </trkpt>
      <trkpt lat="43.59821" lon="6.38043">
        <ele>595.7</ele>
        <time>2026-02-22T09:19:50Z</time>
      </trkpt>
      <trkpt lat="43.59822" lon="6.38043">
        <ele>595.7</ele>
        <time>2026-02-22T09:19:51Z</time>
      </trkpt>
      <trkpt lat="43.59822" lon="6.38044">
        <ele>595.7</ele>
        <time>2026-02-22T09:19:52Z</time>
      </trkpt>
      <trkpt lat="43.59823" lon="6.38045">
        <ele>595.8</ele>
        <time>2026-02-22T09:19:53Z</time>
      </trkpt>
      <trkpt lat="43.59825" lon="6.38046">
        <ele>595.7</ele>
        <time>2026-02-22T09:19:54Z</time>
      </trkpt>
      <trkpt lat="43.59826" lon="6.38046">
        <ele>595.8</ele>
        <time>2026-02-22T09:19:55Z</time>
      </trkpt>
      <trkpt lat="43.59826" lon="6.38047">
        <ele>595.8</ele>
        <time>2026-02-22T09:19:56Z</time>
      </trkpt>
      <trkpt lat="43.59827" lon="6.38048">
        <ele>595.9</ele>
        <time>2026-02-22T09:19:57Z</time>
      </trkpt>
      <trkpt lat="43.59828" lon="6.38049">
        <ele>595.8</ele>
        <time>2026-02-22T09:19:58Z</time>
      </trkpt>
      <trkpt lat="43.59828" lon="6.3805">
        <ele>595.7</ele>
        <time>2026-02-22T09:19:59Z</time>
      </trkpt>
      <trkpt lat="43.59829" lon="6.38052">
        <ele>595.8</ele>
        <time>2026-02-22T09:20:00Z</time>
      </trkpt>
      <trkpt lat="43.5983" lon="6.38052">
        <ele>595.6</ele>
        <time>2026-02-22T09:20:01Z</time>
      </trkpt>
      <trkpt lat="43.5983" lon="6.38054">
        <ele>595.6</ele>
        <time>2026-02-22T09:20:02Z</time>
      </trkpt>
      <trkpt lat="43.59831" lon="6.38055">
        <ele>595.6</ele>
        <time>2026-02-22T09:20:03Z</time>
      </trkpt>
      <trkpt lat="43.59831" lon="6.38056">
        <ele>595.7</ele>
        <time>2026-02-22T09:20:04Z</time>
      </trkpt>
      <trkpt lat="43.59832" lon="6.38057">
        <ele>595.7</ele>
        <time>2026-02-22T09:20:05Z</time>
      </trkpt>
      <trkpt lat="43.59832" lon="6.38058">
        <ele>595.7</ele>
        <time>2026-02-22T09:20:06Z</time>
      </trkpt>
      <trkpt lat="43.59832" lon="6.38059">
        <ele>595.7</ele>
        <time>2026-02-22T09:20:07Z</time>
      </trkpt>
      <trkpt lat="43.59833" lon="6.3806">
        <ele>595.7</ele>
        <time>2026-02-22T09:20:08Z</time>
      </trkpt>
      <trkpt lat="43.59833" lon="6.38061">
        <ele>595.7</ele>
        <time>2026-02-22T09:20:09Z</time>
      </trkpt>
      <trkpt lat="43.59834" lon="6.38061">
        <ele>595.7</ele>
        <time>2026-02-22T09:20:10Z</time>
      </trkpt>
      <trkpt lat="43.59835" lon="6.38061">
        <ele>595.7</ele>
        <time>2026-02-22T09:20:11Z</time>
      </trkpt>
      <trkpt lat="43.59835" lon="6.38061">
        <ele>595.7</ele>
        <time>2026-02-22T09:20:12Z</time>
      </trkpt>
      <trkpt lat="43.59835" lon="6.38062">
        <ele>595.8</ele>
        <time>2026-02-22T09:20:13Z</time>
      </trkpt>
      <trkpt lat="43.59836" lon="6.38062">
        <ele>595.9</ele>
        <time>2026-02-22T09:20:14Z</time>
      </trkpt>
      <trkpt lat="43.59836" lon="6.38063">
        <ele>595.8</ele>
        <time>2026-02-22T09:20:15Z</time>
      </trkpt>
      <trkpt lat="43.59836" lon="6.38064">
        <ele>595.8</ele>
        <time>2026-02-22T09:20:16Z</time>
      </trkpt>
      <trkpt lat="43.59836" lon="6.38066">
        <ele>595.8</ele>
        <time>2026-02-22T09:20:17Z</time>
      </trkpt>
      <trkpt lat="43.59837" lon="6.38067">
        <ele>595.8</ele>
        <time>2026-02-22T09:20:18Z</time>
      </trkpt>
      <trkpt lat="43.59837" lon="6.38068">
        <ele>595.8</ele>
        <time>2026-02-22T09:20:19Z</time>
      </trkpt>
      <trkpt lat="43.59838" lon="6.3807">
        <ele>595.8</ele>
        <time>2026-02-22T09:20:20Z</time>
      </trkpt>
      <trkpt lat="43.59838" lon="6.38071">
        <ele>595.9</ele>
        <time>2026-02-22T09:20:21Z</time>
      </trkpt>
      <trkpt lat="43.59838" lon="6.38072">
        <ele>596</ele>
        <time>2026-02-22T09:20:22Z</time>
      </trkpt>
      <trkpt lat="43.59839" lon="6.38073">
        <ele>596</ele>
        <time>2026-02-22T09:20:23Z</time>
      </trkpt>
      <trkpt lat="43.59838" lon="6.38074">
        <ele>596</ele>
        <time>2026-02-22T09:20:24Z</time>
      </trkpt>
      <trkpt lat="43.59838" lon="6.38076">
        <ele>596</ele>
        <time>2026-02-22T09:20:25Z</time>
      </trkpt>
      <trkpt lat="43.59839" lon="6.38078">
        <ele>596</ele>
        <time>2026-02-22T09:20:26Z</time>
      </trkpt>
      <trkpt lat="43.59839" lon="6.38079">
        <ele>596</ele>
        <time>2026-02-22T09:20:27Z</time>
      </trkpt>
      <trkpt lat="43.5984" lon="6.3808">
        <ele>596.1</ele>
        <time>2026-02-22T09:20:28Z</time>
      </trkpt>
      <trkpt lat="43.5984" lon="6.38081">
        <ele>596.2</ele>
        <time>2026-02-22T09:20:29Z</time>
      </trkpt>
      <trkpt lat="43.5984" lon="6.38082">
        <ele>596.2</ele>
        <time>2026-02-22T09:20:30Z</time>
      </trkpt>
      <trkpt lat="43.59841" lon="6.38083">
        <ele>596.3</ele>
        <time>2026-02-22T09:20:31Z</time>
      </trkpt>
      <trkpt lat="43.59842" lon="6.38084">
        <ele>596.3</ele>
        <time>2026-02-22T09:20:32Z</time>
      </trkpt>
      <trkpt lat="43.59842" lon="6.38085">
        <ele>596.3</ele>
        <time>2026-02-22T09:20:33Z</time>
      </trkpt>
      <trkpt lat="43.59843" lon="6.38086">
        <ele>596.3</ele>
        <time>2026-02-22T09:20:34Z</time>
      </trkpt>
      <trkpt lat="43.59844" lon="6.38088">
        <ele>596.4</ele>
        <time>2026-02-22T09:20:35Z</time>
      </trkpt>
      <trkpt lat="43.59844" lon="6.38089">
        <ele>596.5</ele>
        <time>2026-02-22T09:20:36Z</time>
      </trkpt>
      <trkpt lat="43.59845" lon="6.3809">
        <ele>596.6</ele>
        <time>2026-02-22T09:20:37Z</time>
      </trkpt>
      <trkpt lat="43.59846" lon="6.38091">
        <ele>596.6</ele>
        <time>2026-02-22T09:20:38Z</time>
      </trkpt>
      <trkpt lat="43.59846" lon="6.38092">
        <ele>596.7</ele>
        <time>2026-02-22T09:20:39Z</time>
      </trkpt>
      <trkpt lat="43.59847" lon="6.38093">
        <ele>596.7</ele>
        <time>2026-02-22T09:20:40Z</time>
      </trkpt>
      <trkpt lat="43.59847" lon="6.38094">
        <ele>596.7</ele>
        <time>2026-02-22T09:20:41Z</time>
      </trkpt>
      <trkpt lat="43.59848" lon="6.38094">
        <ele>596.8</ele>
        <time>2026-02-22T09:20:42Z</time>
      </trkpt>
      <trkpt lat="43.59849" lon="6.38095">
        <ele>596.7</ele>
        <time>2026-02-22T09:20:43Z</time>
      </trkpt>
      <trkpt lat="43.5985" lon="6.38097">
        <ele>596.6</ele>
        <time>2026-02-22T09:20:44Z</time>
      </trkpt>
      <trkpt lat="43.59851" lon="6.38097">
        <ele>596.5</ele>
        <time>2026-02-22T09:20:45Z</time>
      </trkpt>
      <trkpt lat="43.59852" lon="6.38097">
        <ele>596.5</ele>
        <time>2026-02-22T09:20:46Z</time>
      </trkpt>
      <trkpt lat="43.59853" lon="6.38098">
        <ele>596.5</ele>
        <time>2026-02-22T09:20:47Z</time>
      </trkpt>
      <trkpt lat="43.59853" lon="6.38099">
        <ele>596.5</ele>
        <time>2026-02-22T09:20:48Z</time>
      </trkpt>
      <trkpt lat="43.59854" lon="6.381">
        <ele>596.5</ele>
        <time>2026-02-22T09:20:49Z</time>
      </trkpt>
      <trkpt lat="43.59854" lon="6.38101">
        <ele>596.4</ele>
        <time>2026-02-22T09:20:50Z</time>
      </trkpt>
      <trkpt lat="43.59855" lon="6.38101">
        <ele>596.4</ele>
        <time>2026-02-22T09:20:51Z</time>
      </trkpt>
      <trkpt lat="43.59856" lon="6.38102">
        <ele>596.3</ele>
        <time>2026-02-22T09:20:52Z</time>
      </trkpt>
      <trkpt lat="43.59857" lon="6.38103">
        <ele>596.3</ele>
        <time>2026-02-22T09:20:53Z</time>
      </trkpt>
      <trkpt lat="43.59857" lon="6.38104">
        <ele>596.2</ele>
        <time>2026-02-22T09:20:54Z</time>
      </trkpt>
      <trkpt lat="43.59858" lon="6.38105">
        <ele>596.1</ele>
        <time>2026-02-22T09:20:55Z</time>
      </trkpt>
      <trkpt lat="43.59859" lon="6.38105">
        <ele>596</ele>
        <time>2026-02-22T09:20:56Z</time>
      </trkpt>
      <trkpt lat="43.5986" lon="6.38106">
        <ele>595.9</ele>
        <time>2026-02-22T09:20:57Z</time>
      </trkpt>
      <trkpt lat="43.5986" lon="6.38107">
        <ele>595.8</ele>
        <time>2026-02-22T09:20:58Z</time>
      </trkpt>
      <trkpt lat="43.59862" lon="6.38108">
        <ele>595.7</ele>
        <time>2026-02-22T09:20:59Z</time>
      </trkpt>
      <trkpt lat="43.59862" lon="6.38109">
        <ele>595.6</ele>
        <time>2026-02-22T09:21:00Z</time>
      </trkpt>
      <trkpt lat="43.59863" lon="6.38109">
        <ele>595.5</ele>
        <time>2026-02-22T09:21:01Z</time>
      </trkpt>
      <trkpt lat="43.59864" lon="6.3811">
        <ele>595.4</ele>
        <time>2026-02-22T09:21:02Z</time>
      </trkpt>
      <trkpt lat="43.59864" lon="6.3811">
        <ele>595.3</ele>
        <time>2026-02-22T09:21:03Z</time>
      </trkpt>
      <trkpt lat="43.59866" lon="6.38111">
        <ele>595.1</ele>
        <time>2026-02-22T09:21:04Z</time>
      </trkpt>
      <trkpt lat="43.59866" lon="6.38112">
        <ele>595</ele>
        <time>2026-02-22T09:21:05Z</time>
      </trkpt>
      <trkpt lat="43.59867" lon="6.38112">
        <ele>594.9</ele>
        <time>2026-02-22T09:21:06Z</time>
      </trkpt>
      <trkpt lat="43.59868" lon="6.38113">
        <ele>594.8</ele>
        <time>2026-02-22T09:21:07Z</time>
      </trkpt>
      <trkpt lat="43.59869" lon="6.38113">
        <ele>594.8</ele>
        <time>2026-02-22T09:21:08Z</time>
      </trkpt>
      <trkpt lat="43.5987" lon="6.38114">
        <ele>594.7</ele>
        <time>2026-02-22T09:21:09Z</time>
      </trkpt>
      <trkpt lat="43.59872" lon="6.38113">
        <ele>594.6</ele>
        <time>2026-02-22T09:21:10Z</time>
      </trkpt>
      <trkpt lat="43.59873" lon="6.38113">
        <ele>594.5</ele>
        <time>2026-02-22T09:21:11Z</time>
      </trkpt>
      <trkpt lat="43.59873" lon="6.38112">
        <ele>594.3</ele>
        <time>2026-02-22T09:21:12Z</time>
      </trkpt>
      <trkpt lat="43.59874" lon="6.38112">
        <ele>594.3</ele>
        <time>2026-02-22T09:21:13Z</time>
      </trkpt>
      <trkpt lat="43.59874" lon="6.38111">
        <ele>594.2</ele>
        <time>2026-02-22T09:21:14Z</time>
      </trkpt>
      <trkpt lat="43.59875" lon="6.38111">
        <ele>594.1</ele>
        <time>2026-02-22T09:21:15Z</time>
      </trkpt>
      <trkpt lat="43.59875" lon="6.38111">
        <ele>594.1</ele>
        <time>2026-02-22T09:21:16Z</time>
      </trkpt>
      <trkpt lat="43.59875" lon="6.3811">
        <ele>594.1</ele>
        <time>2026-02-22T09:21:17Z</time>
      </trkpt>
      <trkpt lat="43.59876" lon="6.3811">
        <ele>594.1</ele>
        <time>2026-02-22T09:21:18Z</time>
      </trkpt>
      <trkpt lat="43.59876" lon="6.3811">
        <ele>594.1</ele>
        <time>2026-02-22T09:21:19Z</time>
      </trkpt>
      <trkpt lat="43.59876" lon="6.3811">
        <ele>594.1</ele>
        <time>2026-02-22T09:21:20Z</time>
      </trkpt>
      <trkpt lat="43.59876" lon="6.3811">
        <ele>594.1</ele>
        <time>2026-02-22T09:21:21Z</time>
      </trkpt>
      <trkpt lat="43.59876" lon="6.3811">
        <ele>594</ele>
        <time>2026-02-22T09:21:22Z</time>
      </trkpt>
      <trkpt lat="43.59877" lon="6.38109">
        <ele>594</ele>
        <time>2026-02-22T09:21:23Z</time>
      </trkpt>
      <trkpt lat="43.59877" lon="6.38108">
        <ele>594</ele>
        <time>2026-02-22T09:21:24Z</time>
      </trkpt>
      <trkpt lat="43.59877" lon="6.38107">
        <ele>594</ele>
        <time>2026-02-22T09:21:25Z</time>
      </trkpt>
      <trkpt lat="43.59877" lon="6.38107">
        <ele>594</ele>
        <time>2026-02-22T09:21:26Z</time>
      </trkpt>
      <trkpt lat="43.59878" lon="6.38107">
        <ele>594</ele>
        <time>2026-02-22T09:21:27Z</time>
      </trkpt>
      <trkpt lat="43.59878" lon="6.38107">
        <ele>594</ele>
        <time>2026-02-22T09:21:28Z</time>
      </trkpt>
      <trkpt lat="43.59878" lon="6.38106">
        <ele>594</ele>
        <time>2026-02-22T09:21:29Z</time>
      </trkpt>
      <trkpt lat="43.59879" lon="6.38106">
        <ele>594</ele>
        <time>2026-02-22T09:21:30Z</time>
      </trkpt>
      <trkpt lat="43.5988" lon="6.38106">
        <ele>594.1</ele>
        <time>2026-02-22T09:21:31Z</time>
      </trkpt>
      <trkpt lat="43.5988" lon="6.38106">
        <ele>594.1</ele>
        <time>2026-02-22T09:21:32Z</time>
      </trkpt>
      <trkpt lat="43.5988" lon="6.38106">
        <ele>594.1</ele>
        <time>2026-02-22T09:21:33Z</time>
      </trkpt>
      <trkpt lat="43.5988" lon="6.38105">
        <ele>594.1</ele>
        <time>2026-02-22T09:21:34Z</time>
      </trkpt>
      <trkpt lat="43.5988" lon="6.38105">
        <ele>594.1</ele>
        <time>2026-02-22T09:21:35Z</time>
      </trkpt>
      <trkpt lat="43.5988" lon="6.38105">
        <ele>594.1</ele>
        <time>2026-02-22T09:21:36Z</time>
      </trkpt>
      <trkpt lat="43.5988" lon="6.38105">
        <ele>594.1</ele>
        <time>2026-02-22T09:21:37Z</time>
      </trkpt>
      <trkpt lat="43.5988" lon="6.38105">
        <ele>594.2</ele>
        <time>2026-02-22T09:21:38Z</time>
      </trkpt>
      <trkpt lat="43.5988" lon="6.38105">
        <ele>594.2</ele>
        <time>2026-02-22T09:21:39Z</time>
      </trkpt>
      <trkpt lat="43.5988" lon="6.38105">
        <ele>594.2</ele>
        <time>2026-02-22T09:21:40Z</time>
      </trkpt>
      <trkpt lat="43.5988" lon="6.38105">
        <ele>594.3</ele>
        <time>2026-02-22T09:21:41Z</time>
      </trkpt>
      <trkpt lat="43.5988" lon="6.38105">
        <ele>594.2</ele>
        <time>2026-02-22T09:21:42Z</time>
      </trkpt>
      <trkpt lat="43.5988" lon="6.38105">
        <ele>594.3</ele>
        <time>2026-02-22T09:21:43Z</time>
      </trkpt>
      <trkpt lat="43.5988" lon="6.38105">
        <ele>594.4</ele>
        <time>2026-02-22T09:21:44Z</time>
      </trkpt>
      <trkpt lat="43.5988" lon="6.38105">
        <ele>594.4</ele>
        <time>2026-02-22T09:21:45Z</time>
      </trkpt>
      <trkpt lat="43.5988" lon="6.38105">
        <ele>594.3</ele>
        <time>2026-02-22T09:21:46Z</time>
      </trkpt>
      <trkpt lat="43.5988" lon="6.38105">
        <ele>594.4</ele>
        <time>2026-02-22T09:21:47Z</time>
      </trkpt>
      <trkpt lat="43.5988" lon="6.38105">
        <ele>594.5</ele>
        <time>2026-02-22T09:21:48Z</time>
      </trkpt>
      <trkpt lat="43.5988" lon="6.38105">
        <ele>594.5</ele>
        <time>2026-02-22T09:21:49Z</time>
      </trkpt>
      <trkpt lat="43.5988" lon="6.38105">
        <ele>594.6</ele>
        <time>2026-02-22T09:21:50Z</time>
      </trkpt>
      <trkpt lat="43.5988" lon="6.38105">
        <ele>594.7</ele>
        <time>2026-02-22T09:21:51Z</time>
      </trkpt>
      <trkpt lat="43.5988" lon="6.38105">
        <ele>594.7</ele>
        <time>2026-02-22T09:21:52Z</time>
      </trkpt>
      <trkpt lat="43.5988" lon="6.38106">
        <ele>594.6</ele>
        <time>2026-02-22T09:21:53Z</time>
      </trkpt>
      <trkpt lat="43.5988" lon="6.38107">
        <ele>594.5</ele>
        <time>2026-02-22T09:21:54Z</time>
      </trkpt>
      <trkpt lat="43.5988" lon="6.38108">
        <ele>594.5</ele>
        <time>2026-02-22T09:21:55Z</time>
      </trkpt>
      <trkpt lat="43.59881" lon="6.38109">
        <ele>594.4</ele>
        <time>2026-02-22T09:21:56Z</time>
      </trkpt>
      <trkpt lat="43.59882" lon="6.3811">
        <ele>594.4</ele>
        <time>2026-02-22T09:21:57Z</time>
      </trkpt>
      <trkpt lat="43.59883" lon="6.38111">
        <ele>594.3</ele>
        <time>2026-02-22T09:21:58Z</time>
      </trkpt>
      <trkpt lat="43.59884" lon="6.38111">
        <ele>594.2</ele>
        <time>2026-02-22T09:21:59Z</time>
      </trkpt>
      <trkpt lat="43.59886" lon="6.38112">
        <ele>594.1</ele>
        <time>2026-02-22T09:22:00Z</time>
      </trkpt>
      <trkpt lat="43.59886" lon="6.38113">
        <ele>594.1</ele>
        <time>2026-02-22T09:22:01Z</time>
      </trkpt>
      <trkpt lat="43.59887" lon="6.38113">
        <ele>594</ele>
        <time>2026-02-22T09:22:02Z</time>
      </trkpt>
      <trkpt lat="43.59888" lon="6.38113">
        <ele>594</ele>
        <time>2026-02-22T09:22:03Z</time>
      </trkpt>
      <trkpt lat="43.59889" lon="6.38113">
        <ele>594</ele>
        <time>2026-02-22T09:22:04Z</time>
      </trkpt>
      <trkpt lat="43.5989" lon="6.38114">
        <ele>593.9</ele>
        <time>2026-02-22T09:22:05Z</time>
      </trkpt>
      <trkpt lat="43.59891" lon="6.38114">
        <ele>593.8</ele>
        <time>2026-02-22T09:22:06Z</time>
      </trkpt>
      <trkpt lat="43.59891" lon="6.38115">
        <ele>593.8</ele>
        <time>2026-02-22T09:22:07Z</time>
      </trkpt>
      <trkpt lat="43.59892" lon="6.38115">
        <ele>593.7</ele>
        <time>2026-02-22T09:22:08Z</time>
      </trkpt>
      <trkpt lat="43.59893" lon="6.38116">
        <ele>593.7</ele>
        <time>2026-02-22T09:22:09Z</time>
      </trkpt>
      <trkpt lat="43.59893" lon="6.38116">
        <ele>593.6</ele>
        <time>2026-02-22T09:22:10Z</time>
      </trkpt>
      <trkpt lat="43.59894" lon="6.38116">
        <ele>593.4</ele>
        <time>2026-02-22T09:22:11Z</time>
      </trkpt>
      <trkpt lat="43.59895" lon="6.38117">
        <ele>593.3</ele>
        <time>2026-02-22T09:22:12Z</time>
      </trkpt>
      <trkpt lat="43.59895" lon="6.38117">
        <ele>593.1</ele>
        <time>2026-02-22T09:22:13Z</time>
      </trkpt>
      <trkpt lat="43.59896" lon="6.38118">
        <ele>592.9</ele>
        <time>2026-02-22T09:22:14Z</time>
      </trkpt>
      <trkpt lat="43.59897" lon="6.38119">
        <ele>592.8</ele>
        <time>2026-02-22T09:22:15Z</time>
      </trkpt>
      <trkpt lat="43.59898" lon="6.3812">
        <ele>592.7</ele>
        <time>2026-02-22T09:22:16Z</time>
      </trkpt>
      <trkpt lat="43.59899" lon="6.38121">
        <ele>592.6</ele>
        <time>2026-02-22T09:22:17Z</time>
      </trkpt>
      <trkpt lat="43.599" lon="6.38122">
        <ele>592.6</ele>
        <time>2026-02-22T09:22:18Z</time>
      </trkpt>
      <trkpt lat="43.599" lon="6.38123">
        <ele>592.4</ele>
        <time>2026-02-22T09:22:19Z</time>
      </trkpt>
      <trkpt lat="43.59902" lon="6.38123">
        <ele>592.4</ele>
        <time>2026-02-22T09:22:20Z</time>
      </trkpt>
      <trkpt lat="43.59903" lon="6.38124">
        <ele>592.3</ele>
        <time>2026-02-22T09:22:21Z</time>
      </trkpt>
      <trkpt lat="43.59904" lon="6.38124">
        <ele>592.2</ele>
        <time>2026-02-22T09:22:22Z</time>
      </trkpt>
      <trkpt lat="43.59905" lon="6.38125">
        <ele>592.1</ele>
        <time>2026-02-22T09:22:23Z</time>
      </trkpt>
      <trkpt lat="43.59905" lon="6.38125">
        <ele>592</ele>
        <time>2026-02-22T09:22:24Z</time>
      </trkpt>
      <trkpt lat="43.59906" lon="6.38126">
        <ele>592</ele>
        <time>2026-02-22T09:22:25Z</time>
      </trkpt>
      <trkpt lat="43.59907" lon="6.38126">
        <ele>591.9</ele>
        <time>2026-02-22T09:22:26Z</time>
      </trkpt>
      <trkpt lat="43.59909" lon="6.38126">
        <ele>591.7</ele>
        <time>2026-02-22T09:22:27Z</time>
      </trkpt>
      <trkpt lat="43.59909" lon="6.38127">
        <ele>591.6</ele>
        <time>2026-02-22T09:22:28Z</time>
      </trkpt>
      <trkpt lat="43.59911" lon="6.38126">
        <ele>591.5</ele>
        <time>2026-02-22T09:22:29Z</time>
      </trkpt>
      <trkpt lat="43.59912" lon="6.38126">
        <ele>591.4</ele>
        <time>2026-02-22T09:22:30Z</time>
      </trkpt>
      <trkpt lat="43.59913" lon="6.38126">
        <ele>591.2</ele>
        <time>2026-02-22T09:22:31Z</time>
      </trkpt>
      <trkpt lat="43.59914" lon="6.38126">
        <ele>591.1</ele>
        <time>2026-02-22T09:22:32Z</time>
      </trkpt>
      <trkpt lat="43.59915" lon="6.38126">
        <ele>591</ele>
        <time>2026-02-22T09:22:33Z</time>
      </trkpt>
      <trkpt lat="43.59916" lon="6.38125">
        <ele>590.9</ele>
        <time>2026-02-22T09:22:34Z</time>
      </trkpt>
      <trkpt lat="43.59916" lon="6.38126">
        <ele>590.7</ele>
        <time>2026-02-22T09:22:35Z</time>
      </trkpt>
      <trkpt lat="43.59917" lon="6.38127">
        <ele>590.7</ele>
        <time>2026-02-22T09:22:36Z</time>
      </trkpt>
      <trkpt lat="43.59918" lon="6.38128">
        <ele>590.6</ele>
        <time>2026-02-22T09:22:37Z</time>
      </trkpt>
      <trkpt lat="43.59919" lon="6.38128">
        <ele>590.6</ele>
        <time>2026-02-22T09:22:38Z</time>
      </trkpt>
      <trkpt lat="43.59919" lon="6.38129">
        <ele>590.6</ele>
        <time>2026-02-22T09:22:39Z</time>
      </trkpt>
      <trkpt lat="43.5992" lon="6.38129">
        <ele>590.5</ele>
        <time>2026-02-22T09:22:40Z</time>
      </trkpt>
      <trkpt lat="43.59921" lon="6.3813">
        <ele>590.4</ele>
        <time>2026-02-22T09:22:41Z</time>
      </trkpt>
      <trkpt lat="43.59922" lon="6.3813">
        <ele>590.4</ele>
        <time>2026-02-22T09:22:42Z</time>
      </trkpt>
      <trkpt lat="43.59923" lon="6.38131">
        <ele>590.3</ele>
        <time>2026-02-22T09:22:43Z</time>
      </trkpt>
      <trkpt lat="43.59924" lon="6.38132">
        <ele>590</ele>
        <time>2026-02-22T09:22:44Z</time>
      </trkpt>
      <trkpt lat="43.59924" lon="6.38133">
        <ele>589.8</ele>
        <time>2026-02-22T09:22:45Z</time>
      </trkpt>
      <trkpt lat="43.59925" lon="6.38133">
        <ele>589.7</ele>
        <time>2026-02-22T09:22:46Z</time>
      </trkpt>
      <trkpt lat="43.59926" lon="6.38134">
        <ele>589.5</ele>
        <time>2026-02-22T09:22:47Z</time>
      </trkpt>
      <trkpt lat="43.59927" lon="6.38134">
        <ele>589.4</ele>
        <time>2026-02-22T09:22:48Z</time>
      </trkpt>
      <trkpt lat="43.59928" lon="6.38134">
        <ele>589.1</ele>
        <time>2026-02-22T09:22:49Z</time>
      </trkpt>
      <trkpt lat="43.59929" lon="6.38135">
        <ele>588.9</ele>
        <time>2026-02-22T09:22:50Z</time>
      </trkpt>
      <trkpt lat="43.59929" lon="6.38136">
        <ele>588.8</ele>
        <time>2026-02-22T09:22:51Z</time>
      </trkpt>
      <trkpt lat="43.5993" lon="6.38137">
        <ele>588.6</ele>
        <time>2026-02-22T09:22:52Z</time>
      </trkpt>
      <trkpt lat="43.59931" lon="6.38138">
        <ele>588.5</ele>
        <time>2026-02-22T09:22:53Z</time>
      </trkpt>
      <trkpt lat="43.59932" lon="6.38138">
        <ele>588.3</ele>
        <time>2026-02-22T09:22:54Z</time>
      </trkpt>
      <trkpt lat="43.59933" lon="6.38139">
        <ele>588.2</ele>
        <time>2026-02-22T09:22:55Z</time>
      </trkpt>
      <trkpt lat="43.59934" lon="6.3814">
        <ele>588.1</ele>
        <time>2026-02-22T09:22:56Z</time>
      </trkpt>
      <trkpt lat="43.59934" lon="6.38141">
        <ele>588</ele>
        <time>2026-02-22T09:22:57Z</time>
      </trkpt>
      <trkpt lat="43.59935" lon="6.38142">
        <ele>587.8</ele>
        <time>2026-02-22T09:22:58Z</time>
      </trkpt>
      <trkpt lat="43.59936" lon="6.38142">
        <ele>587.5</ele>
        <time>2026-02-22T09:22:59Z</time>
      </trkpt>
      <trkpt lat="43.59937" lon="6.38142">
        <ele>587.4</ele>
        <time>2026-02-22T09:23:00Z</time>
      </trkpt>
      <trkpt lat="43.59938" lon="6.38143">
        <ele>587.2</ele>
        <time>2026-02-22T09:23:01Z</time>
      </trkpt>
      <trkpt lat="43.59939" lon="6.38144">
        <ele>587</ele>
        <time>2026-02-22T09:23:02Z</time>
      </trkpt>
      <trkpt lat="43.5994" lon="6.38144">
        <ele>586.7</ele>
        <time>2026-02-22T09:23:03Z</time>
      </trkpt>
      <trkpt lat="43.59941" lon="6.38145">
        <ele>586.5</ele>
        <time>2026-02-22T09:23:04Z</time>
      </trkpt>
      <trkpt lat="43.59941" lon="6.38145">
        <ele>586.4</ele>
        <time>2026-02-22T09:23:05Z</time>
      </trkpt>
      <trkpt lat="43.59942" lon="6.38146">
        <ele>586.2</ele>
        <time>2026-02-22T09:23:06Z</time>
      </trkpt>
      <trkpt lat="43.59943" lon="6.38147">
        <ele>586.1</ele>
        <time>2026-02-22T09:23:07Z</time>
      </trkpt>
      <trkpt lat="43.59944" lon="6.38148">
        <ele>586</ele>
        <time>2026-02-22T09:23:08Z</time>
      </trkpt>
      <trkpt lat="43.59944" lon="6.38148">
        <ele>585.8</ele>
        <time>2026-02-22T09:23:09Z</time>
      </trkpt>
      <trkpt lat="43.59945" lon="6.38148">
        <ele>585.7</ele>
        <time>2026-02-22T09:23:10Z</time>
      </trkpt>
      <trkpt lat="43.59946" lon="6.38149">
        <ele>585.6</ele>
        <time>2026-02-22T09:23:11Z</time>
      </trkpt>
      <trkpt lat="43.59947" lon="6.38149">
        <ele>585.3</ele>
        <time>2026-02-22T09:23:12Z</time>
      </trkpt>
      <trkpt lat="43.59948" lon="6.3815">
        <ele>585.2</ele>
        <time>2026-02-22T09:23:13Z</time>
      </trkpt>
      <trkpt lat="43.59948" lon="6.38151">
        <ele>585</ele>
        <time>2026-02-22T09:23:14Z</time>
      </trkpt>
      <trkpt lat="43.59949" lon="6.38151">
        <ele>584.8</ele>
        <time>2026-02-22T09:23:15Z</time>
      </trkpt>
      <trkpt lat="43.5995" lon="6.38152">
        <ele>584.6</ele>
        <time>2026-02-22T09:23:16Z</time>
      </trkpt>
      <trkpt lat="43.59951" lon="6.38152">
        <ele>584.5</ele>
        <time>2026-02-22T09:23:17Z</time>
      </trkpt>
      <trkpt lat="43.59952" lon="6.38152">
        <ele>584.4</ele>
        <time>2026-02-22T09:23:18Z</time>
      </trkpt>
      <trkpt lat="43.59953" lon="6.38153">
        <ele>584.2</ele>
        <time>2026-02-22T09:23:19Z</time>
      </trkpt>
      <trkpt lat="43.59954" lon="6.38153">
        <ele>584.1</ele>
        <time>2026-02-22T09:23:20Z</time>
      </trkpt>
      <trkpt lat="43.59955" lon="6.38154">
        <ele>584</ele>
        <time>2026-02-22T09:23:21Z</time>
      </trkpt>
      <trkpt lat="43.59956" lon="6.38155">
        <ele>583.9</ele>
        <time>2026-02-22T09:23:22Z</time>
      </trkpt>
      <trkpt lat="43.59957" lon="6.38155">
        <ele>583.8</ele>
        <time>2026-02-22T09:23:23Z</time>
      </trkpt>
      <trkpt lat="43.59957" lon="6.38155">
        <ele>583.6</ele>
        <time>2026-02-22T09:23:24Z</time>
      </trkpt>
      <trkpt lat="43.59958" lon="6.38156">
        <ele>583.5</ele>
        <time>2026-02-22T09:23:25Z</time>
      </trkpt>
      <trkpt lat="43.59959" lon="6.38156">
        <ele>583.3</ele>
        <time>2026-02-22T09:23:26Z</time>
      </trkpt>
      <trkpt lat="43.59959" lon="6.38156">
        <ele>583.2</ele>
        <time>2026-02-22T09:23:27Z</time>
      </trkpt>
      <trkpt lat="43.5996" lon="6.38156">
        <ele>583.1</ele>
        <time>2026-02-22T09:23:28Z</time>
      </trkpt>
      <trkpt lat="43.59961" lon="6.38157">
        <ele>583</ele>
        <time>2026-02-22T09:23:29Z</time>
      </trkpt>
      <trkpt lat="43.59961" lon="6.38158">
        <ele>582.9</ele>
        <time>2026-02-22T09:23:30Z</time>
      </trkpt>
      <trkpt lat="43.59962" lon="6.38159">
        <ele>582.8</ele>
        <time>2026-02-22T09:23:31Z</time>
      </trkpt>
      <trkpt lat="43.59963" lon="6.3816">
        <ele>582.7</ele>
        <time>2026-02-22T09:23:32Z</time>
      </trkpt>
      <trkpt lat="43.59964" lon="6.3816">
        <ele>582.6</ele>
        <time>2026-02-22T09:23:33Z</time>
      </trkpt>
      <trkpt lat="43.59964" lon="6.3816">
        <ele>582.6</ele>
        <time>2026-02-22T09:23:34Z</time>
      </trkpt>
      <trkpt lat="43.59965" lon="6.3816">
        <ele>582.4</ele>
        <time>2026-02-22T09:23:35Z</time>
      </trkpt>
      <trkpt lat="43.59965" lon="6.3816">
        <ele>582.2</ele>
        <time>2026-02-22T09:23:36Z</time>
      </trkpt>
      <trkpt lat="43.59965" lon="6.38161">
        <ele>582.2</ele>
        <time>2026-02-22T09:23:37Z</time>
      </trkpt>
      <trkpt lat="43.59966" lon="6.38161">
        <ele>582.2</ele>
        <time>2026-02-22T09:23:38Z</time>
      </trkpt>
      <trkpt lat="43.59967" lon="6.38162">
        <ele>582</ele>
        <time>2026-02-22T09:23:39Z</time>
      </trkpt>
      <trkpt lat="43.59968" lon="6.38163">
        <ele>581.9</ele>
        <time>2026-02-22T09:23:40Z</time>
      </trkpt>
      <trkpt lat="43.59969" lon="6.38164">
        <ele>581.9</ele>
        <time>2026-02-22T09:23:41Z</time>
      </trkpt>
      <trkpt lat="43.5997" lon="6.38165">
        <ele>581.9</ele>
        <time>2026-02-22T09:23:42Z</time>
      </trkpt>
      <trkpt lat="43.5997" lon="6.38165">
        <ele>581.7</ele>
        <time>2026-02-22T09:23:43Z</time>
      </trkpt>
      <trkpt lat="43.59971" lon="6.38166">
        <ele>581.5</ele>
        <time>2026-02-22T09:23:44Z</time>
      </trkpt>
      <trkpt lat="43.59972" lon="6.38165">
        <ele>581.4</ele>
        <time>2026-02-22T09:23:45Z</time>
      </trkpt>
      <trkpt lat="43.59973" lon="6.38166">
        <ele>581.3</ele>
        <time>2026-02-22T09:23:46Z</time>
      </trkpt>
      <trkpt lat="43.59974" lon="6.38166">
        <ele>581.2</ele>
        <time>2026-02-22T09:23:47Z</time>
      </trkpt>
      <trkpt lat="43.59975" lon="6.38168">
        <ele>581</ele>
        <time>2026-02-22T09:23:48Z</time>
      </trkpt>
      <trkpt lat="43.59975" lon="6.38168">
        <ele>580.9</ele>
        <time>2026-02-22T09:23:49Z</time>
      </trkpt>
      <trkpt lat="43.59976" lon="6.38169">
        <ele>580.8</ele>
        <time>2026-02-22T09:23:50Z</time>
      </trkpt>
      <trkpt lat="43.59977" lon="6.3817">
        <ele>580.6</ele>
        <time>2026-02-22T09:23:51Z</time>
      </trkpt>
      <trkpt lat="43.59977" lon="6.38171">
        <ele>580.5</ele>
        <time>2026-02-22T09:23:52Z</time>
      </trkpt>
      <trkpt lat="43.59978" lon="6.38171">
        <ele>580.4</ele>
        <time>2026-02-22T09:23:53Z</time>
      </trkpt>
      <trkpt lat="43.59978" lon="6.38172">
        <ele>580.2</ele>
        <time>2026-02-22T09:23:54Z</time>
      </trkpt>
      <trkpt lat="43.59979" lon="6.38173">
        <ele>580.2</ele>
        <time>2026-02-22T09:23:55Z</time>
      </trkpt>
      <trkpt lat="43.5998" lon="6.38174">
        <ele>580.1</ele>
        <time>2026-02-22T09:23:56Z</time>
      </trkpt>
      <trkpt lat="43.59981" lon="6.38174">
        <ele>580</ele>
        <time>2026-02-22T09:23:57Z</time>
      </trkpt>
      <trkpt lat="43.59982" lon="6.38175">
        <ele>579.9</ele>
        <time>2026-02-22T09:23:58Z</time>
      </trkpt>
      <trkpt lat="43.59982" lon="6.38175">
        <ele>579.8</ele>
        <time>2026-02-22T09:23:59Z</time>
      </trkpt>
      <trkpt lat="43.59983" lon="6.38176">
        <ele>579.6</ele>
        <time>2026-02-22T09:24:00Z</time>
      </trkpt>
      <trkpt lat="43.59983" lon="6.38177">
        <ele>579.5</ele>
        <time>2026-02-22T09:24:01Z</time>
      </trkpt>
      <trkpt lat="43.59984" lon="6.38177">
        <ele>579.3</ele>
        <time>2026-02-22T09:24:02Z</time>
      </trkpt>
      <trkpt lat="43.59986" lon="6.38178">
        <ele>579.1</ele>
        <time>2026-02-22T09:24:03Z</time>
      </trkpt>
      <trkpt lat="43.59987" lon="6.38179">
        <ele>578.9</ele>
        <time>2026-02-22T09:24:04Z</time>
      </trkpt>
      <trkpt lat="43.59988" lon="6.3818">
        <ele>578.7</ele>
        <time>2026-02-22T09:24:05Z</time>
      </trkpt>
      <trkpt lat="43.59989" lon="6.3818">
        <ele>578.6</ele>
        <time>2026-02-22T09:24:06Z</time>
      </trkpt>
      <trkpt lat="43.59989" lon="6.38181">
        <ele>578.6</ele>
        <time>2026-02-22T09:24:07Z</time>
      </trkpt>
      <trkpt lat="43.5999" lon="6.38182">
        <ele>578.4</ele>
        <time>2026-02-22T09:24:08Z</time>
      </trkpt>
      <trkpt lat="43.59991" lon="6.38184">
        <ele>578.4</ele>
        <time>2026-02-22T09:24:09Z</time>
      </trkpt>
      <trkpt lat="43.59993" lon="6.38186">
        <ele>578.3</ele>
        <time>2026-02-22T09:24:10Z</time>
      </trkpt>
      <trkpt lat="43.59994" lon="6.38186">
        <ele>578.2</ele>
        <time>2026-02-22T09:24:11Z</time>
      </trkpt>
      <trkpt lat="43.59994" lon="6.38188">
        <ele>578.2</ele>
        <time>2026-02-22T09:24:12Z</time>
      </trkpt>
      <trkpt lat="43.59995" lon="6.38189">
        <ele>578.2</ele>
        <time>2026-02-22T09:24:13Z</time>
      </trkpt>
      <trkpt lat="43.59995" lon="6.3819">
        <ele>578.1</ele>
        <time>2026-02-22T09:24:14Z</time>
      </trkpt>
      <trkpt lat="43.59997" lon="6.38191">
        <ele>578</ele>
        <time>2026-02-22T09:24:15Z</time>
      </trkpt>
      <trkpt lat="43.59998" lon="6.38192">
        <ele>577.9</ele>
        <time>2026-02-22T09:24:16Z</time>
      </trkpt>
      <trkpt lat="43.59999" lon="6.38192">
        <ele>577.8</ele>
        <time>2026-02-22T09:24:17Z</time>
      </trkpt>
      <trkpt lat="43.59999" lon="6.38193">
        <ele>577.7</ele>
        <time>2026-02-22T09:24:18Z</time>
      </trkpt>
      <trkpt lat="43.6" lon="6.38193">
        <ele>577.6</ele>
        <time>2026-02-22T09:24:19Z</time>
      </trkpt>
      <trkpt lat="43.60001" lon="6.38194">
        <ele>577.5</ele>
        <time>2026-02-22T09:24:20Z</time>
      </trkpt>
      <trkpt lat="43.60002" lon="6.38195">
        <ele>577.4</ele>
        <time>2026-02-22T09:24:21Z</time>
      </trkpt>
      <trkpt lat="43.60002" lon="6.38196">
        <ele>577.3</ele>
        <time>2026-02-22T09:24:22Z</time>
      </trkpt>
      <trkpt lat="43.60003" lon="6.38197">
        <ele>577.1</ele>
        <time>2026-02-22T09:24:23Z</time>
      </trkpt>
      <trkpt lat="43.60004" lon="6.38197">
        <ele>577.1</ele>
        <time>2026-02-22T09:24:24Z</time>
      </trkpt>
      <trkpt lat="43.60004" lon="6.38198">
        <ele>577</ele>
        <time>2026-02-22T09:24:25Z</time>
      </trkpt>
      <trkpt lat="43.60005" lon="6.38199">
        <ele>576.8</ele>
        <time>2026-02-22T09:24:26Z</time>
      </trkpt>
      <trkpt lat="43.60005" lon="6.38199">
        <ele>576.7</ele>
        <time>2026-02-22T09:24:27Z</time>
      </trkpt>
      <trkpt lat="43.60007" lon="6.382">
        <ele>576.6</ele>
        <time>2026-02-22T09:24:28Z</time>
      </trkpt>
      <trkpt lat="43.60008" lon="6.38201">
        <ele>576.5</ele>
        <time>2026-02-22T09:24:29Z</time>
      </trkpt>
      <trkpt lat="43.60008" lon="6.38201">
        <ele>576.4</ele>
        <time>2026-02-22T09:24:30Z</time>
      </trkpt>
      <trkpt lat="43.6001" lon="6.38201">
        <ele>576.2</ele>
        <time>2026-02-22T09:24:31Z</time>
      </trkpt>
      <trkpt lat="43.60011" lon="6.38202">
        <ele>576.1</ele>
        <time>2026-02-22T09:24:32Z</time>
      </trkpt>
      <trkpt lat="43.60012" lon="6.38202">
        <ele>576</ele>
        <time>2026-02-22T09:24:33Z</time>
      </trkpt>
      <trkpt lat="43.60012" lon="6.38203">
        <ele>575.8</ele>
        <time>2026-02-22T09:24:34Z</time>
      </trkpt>
      <trkpt lat="43.60013" lon="6.38203">
        <ele>575.7</ele>
        <time>2026-02-22T09:24:35Z</time>
      </trkpt>
      <trkpt lat="43.60013" lon="6.38203">
        <ele>575.6</ele>
        <time>2026-02-22T09:24:36Z</time>
      </trkpt>
      <trkpt lat="43.60014" lon="6.38205">
        <ele>575.5</ele>
        <time>2026-02-22T09:24:37Z</time>
      </trkpt>
      <trkpt lat="43.60015" lon="6.38205">
        <ele>575.4</ele>
        <time>2026-02-22T09:24:38Z</time>
      </trkpt>
      <trkpt lat="43.60016" lon="6.38206">
        <ele>575.3</ele>
        <time>2026-02-22T09:24:39Z</time>
      </trkpt>
      <trkpt lat="43.60017" lon="6.38206">
        <ele>575.2</ele>
        <time>2026-02-22T09:24:40Z</time>
      </trkpt>
      <trkpt lat="43.60018" lon="6.38206">
        <ele>574.9</ele>
        <time>2026-02-22T09:24:41Z</time>
      </trkpt>
      <trkpt lat="43.60019" lon="6.38207">
        <ele>574.8</ele>
        <time>2026-02-22T09:24:42Z</time>
      </trkpt>
      <trkpt lat="43.6002" lon="6.38207">
        <ele>574.8</ele>
        <time>2026-02-22T09:24:43Z</time>
      </trkpt>
      <trkpt lat="43.60021" lon="6.38208">
        <ele>574.7</ele>
        <time>2026-02-22T09:24:44Z</time>
      </trkpt>
      <trkpt lat="43.60022" lon="6.38209">
        <ele>574.5</ele>
        <time>2026-02-22T09:24:45Z</time>
      </trkpt>
      <trkpt lat="43.60023" lon="6.3821">
        <ele>574.4</ele>
        <time>2026-02-22T09:24:46Z</time>
      </trkpt>
      <trkpt lat="43.60024" lon="6.3821">
        <ele>574.4</ele>
        <time>2026-02-22T09:24:47Z</time>
      </trkpt>
      <trkpt lat="43.60025" lon="6.3821">
        <ele>574.4</ele>
        <time>2026-02-22T09:24:48Z</time>
      </trkpt>
      <trkpt lat="43.60026" lon="6.3821">
        <ele>574.3</ele>
        <time>2026-02-22T09:24:49Z</time>
      </trkpt>
      <trkpt lat="43.60028" lon="6.3821">
        <ele>574.2</ele>
        <time>2026-02-22T09:24:50Z</time>
      </trkpt>
      <trkpt lat="43.60028" lon="6.38211">
        <ele>574.2</ele>
        <time>2026-02-22T09:24:51Z</time>
      </trkpt>
      <trkpt lat="43.60029" lon="6.38212">
        <ele>574.1</ele>
        <time>2026-02-22T09:24:52Z</time>
      </trkpt>
      <trkpt lat="43.6003" lon="6.38213">
        <ele>574</ele>
        <time>2026-02-22T09:24:53Z</time>
      </trkpt>
      <trkpt lat="43.60031" lon="6.38214">
        <ele>573.9</ele>
        <time>2026-02-22T09:24:54Z</time>
      </trkpt>
      <trkpt lat="43.60032" lon="6.38214">
        <ele>573.8</ele>
        <time>2026-02-22T09:24:55Z</time>
      </trkpt>
      <trkpt lat="43.60034" lon="6.38215">
        <ele>573.7</ele>
        <time>2026-02-22T09:24:56Z</time>
      </trkpt>
      <trkpt lat="43.60035" lon="6.38216">
        <ele>573.6</ele>
        <time>2026-02-22T09:24:57Z</time>
      </trkpt>
      <trkpt lat="43.60036" lon="6.38217">
        <ele>573.6</ele>
        <time>2026-02-22T09:24:58Z</time>
      </trkpt>
      <trkpt lat="43.60037" lon="6.38218">
        <ele>573.5</ele>
        <time>2026-02-22T09:24:59Z</time>
      </trkpt>
      <trkpt lat="43.60037" lon="6.38218">
        <ele>573.5</ele>
        <time>2026-02-22T09:25:00Z</time>
      </trkpt>
      <trkpt lat="43.60037" lon="6.3822">
        <ele>573.5</ele>
        <time>2026-02-22T09:25:01Z</time>
      </trkpt>
      <trkpt lat="43.60038" lon="6.3822">
        <ele>573.5</ele>
        <time>2026-02-22T09:25:02Z</time>
      </trkpt>
      <trkpt lat="43.60039" lon="6.38221">
        <ele>573.5</ele>
        <time>2026-02-22T09:25:03Z</time>
      </trkpt>
      <trkpt lat="43.60041" lon="6.38222">
        <ele>573.4</ele>
        <time>2026-02-22T09:25:04Z</time>
      </trkpt>
      <trkpt lat="43.60042" lon="6.38222">
        <ele>573.4</ele>
        <time>2026-02-22T09:25:05Z</time>
      </trkpt>
      <trkpt lat="43.60044" lon="6.38222">
        <ele>573.3</ele>
        <time>2026-02-22T09:25:06Z</time>
      </trkpt>
      <trkpt lat="43.60045" lon="6.38223">
        <ele>573.2</ele>
        <time>2026-02-22T09:25:07Z</time>
      </trkpt>
      <trkpt lat="43.60046" lon="6.38224">
        <ele>573.1</ele>
        <time>2026-02-22T09:25:08Z</time>
      </trkpt>
      <trkpt lat="43.60047" lon="6.38224">
        <ele>573</ele>
        <time>2026-02-22T09:25:09Z</time>
      </trkpt>
      <trkpt lat="43.60047" lon="6.38224">
        <ele>573</ele>
        <time>2026-02-22T09:25:10Z</time>
      </trkpt>
      <trkpt lat="43.60048" lon="6.38224">
        <ele>573</ele>
        <time>2026-02-22T09:25:11Z</time>
      </trkpt>
      <trkpt lat="43.60048" lon="6.38225">
        <ele>573</ele>
        <time>2026-02-22T09:25:12Z</time>
      </trkpt>
      <trkpt lat="43.60048" lon="6.38225">
        <ele>573</ele>
        <time>2026-02-22T09:25:13Z</time>
      </trkpt>
      <trkpt lat="43.60049" lon="6.38225">
        <ele>573.1</ele>
        <time>2026-02-22T09:25:14Z</time>
      </trkpt>
      <trkpt lat="43.60049" lon="6.38226">
        <ele>573.1</ele>
        <time>2026-02-22T09:25:15Z</time>
      </trkpt>
      <trkpt lat="43.60049" lon="6.38226">
        <ele>573.1</ele>
        <time>2026-02-22T09:25:16Z</time>
      </trkpt>
      <trkpt lat="43.60049" lon="6.38226">
        <ele>573.1</ele>
        <time>2026-02-22T09:25:17Z</time>
      </trkpt>
      <trkpt lat="43.6005" lon="6.38227">
        <ele>573.1</ele>
        <time>2026-02-22T09:25:18Z</time>
      </trkpt>
      <trkpt lat="43.6005" lon="6.38228">
        <ele>573.1</ele>
        <time>2026-02-22T09:25:19Z</time>
      </trkpt>
      <trkpt lat="43.6005" lon="6.38228">
        <ele>573</ele>
        <time>2026-02-22T09:25:20Z</time>
      </trkpt>
      <trkpt lat="43.60051" lon="6.38229">
        <ele>573</ele>
        <time>2026-02-22T09:25:21Z</time>
      </trkpt>
      <trkpt lat="43.60051" lon="6.38228">
        <ele>572.9</ele>
        <time>2026-02-22T09:25:22Z</time>
      </trkpt>
      <trkpt lat="43.60051" lon="6.38228">
        <ele>572.9</ele>
        <time>2026-02-22T09:25:23Z</time>
      </trkpt>
      <trkpt lat="43.60052" lon="6.38227">
        <ele>572.9</ele>
        <time>2026-02-22T09:25:24Z</time>
      </trkpt>
      <trkpt lat="43.60052" lon="6.38227">
        <ele>572.9</ele>
        <time>2026-02-22T09:25:25Z</time>
      </trkpt>
      <trkpt lat="43.60052" lon="6.38227">
        <ele>572.8</ele>
        <time>2026-02-22T09:25:26Z</time>
      </trkpt>
      <trkpt lat="43.60052" lon="6.38228">
        <ele>572.8</ele>
        <time>2026-02-22T09:25:27Z</time>
      </trkpt>
      <trkpt lat="43.60053" lon="6.38228">
        <ele>572.8</ele>
        <time>2026-02-22T09:25:28Z</time>
      </trkpt>
      <trkpt lat="43.60053" lon="6.38228">
        <ele>572.8</ele>
        <time>2026-02-22T09:25:29Z</time>
      </trkpt>
      <trkpt lat="43.60053" lon="6.38229">
        <ele>572.8</ele>
        <time>2026-02-22T09:25:30Z</time>
      </trkpt>
      <trkpt lat="43.60053" lon="6.3823">
        <ele>572.9</ele>
        <time>2026-02-22T09:25:31Z</time>
      </trkpt>
      <trkpt lat="43.60054" lon="6.3823">
        <ele>573</ele>
        <time>2026-02-22T09:25:32Z</time>
      </trkpt>
      <trkpt lat="43.60054" lon="6.38231">
        <ele>573</ele>
        <time>2026-02-22T09:25:33Z</time>
      </trkpt>
      <trkpt lat="43.60055" lon="6.38232">
        <ele>572.9</ele>
        <time>2026-02-22T09:25:34Z</time>
      </trkpt>
      <trkpt lat="43.60055" lon="6.38233">
        <ele>572.8</ele>
        <time>2026-02-22T09:25:35Z</time>
      </trkpt>
      <trkpt lat="43.60054" lon="6.38234">
        <ele>572.8</ele>
        <time>2026-02-22T09:25:36Z</time>
      </trkpt>
      <trkpt lat="43.60054" lon="6.38235">
        <ele>572.8</ele>
        <time>2026-02-22T09:25:37Z</time>
      </trkpt>
      <trkpt lat="43.60054" lon="6.38236">
        <ele>572.8</ele>
        <time>2026-02-22T09:25:38Z</time>
      </trkpt>
      <trkpt lat="43.60055" lon="6.38237">
        <ele>572.7</ele>
        <time>2026-02-22T09:25:39Z</time>
      </trkpt>
      <trkpt lat="43.60055" lon="6.38238">
        <ele>572.7</ele>
        <time>2026-02-22T09:25:40Z</time>
      </trkpt>
      <trkpt lat="43.60055" lon="6.38238">
        <ele>572.7</ele>
        <time>2026-02-22T09:25:41Z</time>
      </trkpt>
      <trkpt lat="43.60055" lon="6.3824">
        <ele>572.7</ele>
        <time>2026-02-22T09:25:42Z</time>
      </trkpt>
      <trkpt lat="43.60055" lon="6.38241">
        <ele>572.7</ele>
        <time>2026-02-22T09:25:43Z</time>
      </trkpt>
      <trkpt lat="43.60056" lon="6.38242">
        <ele>572.7</ele>
        <time>2026-02-22T09:25:44Z</time>
      </trkpt>
      <trkpt lat="43.60056" lon="6.38242">
        <ele>572.8</ele>
        <time>2026-02-22T09:25:45Z</time>
      </trkpt>
      <trkpt lat="43.60056" lon="6.38243">
        <ele>572.7</ele>
        <time>2026-02-22T09:25:46Z</time>
      </trkpt>
      <trkpt lat="43.60056" lon="6.38244">
        <ele>572.7</ele>
        <time>2026-02-22T09:25:47Z</time>
      </trkpt>
      <trkpt lat="43.60056" lon="6.38245">
        <ele>572.7</ele>
        <time>2026-02-22T09:25:48Z</time>
      </trkpt>
      <trkpt lat="43.60057" lon="6.38246">
        <ele>572.6</ele>
        <time>2026-02-22T09:25:49Z</time>
      </trkpt>
      <trkpt lat="43.60058" lon="6.38247">
        <ele>572.6</ele>
        <time>2026-02-22T09:25:50Z</time>
      </trkpt>
      <trkpt lat="43.60059" lon="6.38248">
        <ele>572.7</ele>
        <time>2026-02-22T09:25:51Z</time>
      </trkpt>
      <trkpt lat="43.6006" lon="6.38249">
        <ele>572.7</ele>
        <time>2026-02-22T09:25:52Z</time>
      </trkpt>
      <trkpt lat="43.6006" lon="6.3825">
        <ele>572.6</ele>
        <time>2026-02-22T09:25:53Z</time>
      </trkpt>
      <trkpt lat="43.60061" lon="6.38252">
        <ele>572.6</ele>
        <time>2026-02-22T09:25:54Z</time>
      </trkpt>
      <trkpt lat="43.60061" lon="6.38252">
        <ele>572.5</ele>
        <time>2026-02-22T09:25:55Z</time>
      </trkpt>
      <trkpt lat="43.60062" lon="6.38254">
        <ele>572.5</ele>
        <time>2026-02-22T09:25:56Z</time>
      </trkpt>
      <trkpt lat="43.60062" lon="6.38254">
        <ele>572.5</ele>
        <time>2026-02-22T09:25:57Z</time>
      </trkpt>
      <trkpt lat="43.60062" lon="6.38256">
        <ele>572.5</ele>
        <time>2026-02-22T09:25:58Z</time>
      </trkpt>
      <trkpt lat="43.60063" lon="6.38257">
        <ele>572.5</ele>
        <time>2026-02-22T09:25:59Z</time>
      </trkpt>
      <trkpt lat="43.60064" lon="6.38258">
        <ele>572.6</ele>
        <time>2026-02-22T09:26:00Z</time>
      </trkpt>
      <trkpt lat="43.60064" lon="6.38259">
        <ele>572.5</ele>
        <time>2026-02-22T09:26:01Z</time>
      </trkpt>
      <trkpt lat="43.60065" lon="6.3826">
        <ele>572.5</ele>
        <time>2026-02-22T09:26:02Z</time>
      </trkpt>
      <trkpt lat="43.60066" lon="6.3826">
        <ele>572.5</ele>
        <time>2026-02-22T09:26:03Z</time>
      </trkpt>
      <trkpt lat="43.60066" lon="6.38261">
        <ele>572.5</ele>
        <time>2026-02-22T09:26:04Z</time>
      </trkpt>
      <trkpt lat="43.60066" lon="6.38262">
        <ele>572.4</ele>
        <time>2026-02-22T09:26:05Z</time>
      </trkpt>
      <trkpt lat="43.60067" lon="6.38263">
        <ele>572.4</ele>
        <time>2026-02-22T09:26:06Z</time>
      </trkpt>
      <trkpt lat="43.60067" lon="6.38264">
        <ele>572.4</ele>
        <time>2026-02-22T09:26:07Z</time>
      </trkpt>
      <trkpt lat="43.60068" lon="6.38265">
        <ele>572.4</ele>
        <time>2026-02-22T09:26:08Z</time>
      </trkpt>
      <trkpt lat="43.60069" lon="6.38266">
        <ele>572.4</ele>
        <time>2026-02-22T09:26:09Z</time>
      </trkpt>
      <trkpt lat="43.60069" lon="6.38268">
        <ele>572.4</ele>
        <time>2026-02-22T09:26:10Z</time>
      </trkpt>
      <trkpt lat="43.6007" lon="6.38269">
        <ele>572.4</ele>
        <time>2026-02-22T09:26:11Z</time>
      </trkpt>
      <trkpt lat="43.6007" lon="6.3827">
        <ele>572.4</ele>
        <time>2026-02-22T09:26:12Z</time>
      </trkpt>
      <trkpt lat="43.60071" lon="6.38272">
        <ele>572.4</ele>
        <time>2026-02-22T09:26:13Z</time>
      </trkpt>
      <trkpt lat="43.60071" lon="6.38273">
        <ele>572.3</ele>
        <time>2026-02-22T09:26:14Z</time>
      </trkpt>
      <trkpt lat="43.60072" lon="6.38274">
        <ele>572.1</ele>
        <time>2026-02-22T09:26:15Z</time>
      </trkpt>
      <trkpt lat="43.60073" lon="6.38275">
        <ele>572</ele>
        <time>2026-02-22T09:26:16Z</time>
      </trkpt>
      <trkpt lat="43.60073" lon="6.38276">
        <ele>572</ele>
        <time>2026-02-22T09:26:17Z</time>
      </trkpt>
      <trkpt lat="43.60074" lon="6.38278">
        <ele>571.9</ele>
        <time>2026-02-22T09:26:18Z</time>
      </trkpt>
      <trkpt lat="43.60074" lon="6.38279">
        <ele>571.9</ele>
        <time>2026-02-22T09:26:19Z</time>
      </trkpt>
      <trkpt lat="43.60075" lon="6.38281">
        <ele>571.9</ele>
        <time>2026-02-22T09:26:20Z</time>
      </trkpt>
      <trkpt lat="43.60075" lon="6.38281">
        <ele>571.8</ele>
        <time>2026-02-22T09:26:21Z</time>
      </trkpt>
      <trkpt lat="43.60076" lon="6.38282">
        <ele>571.8</ele>
        <time>2026-02-22T09:26:22Z</time>
      </trkpt>
      <trkpt lat="43.60077" lon="6.38284">
        <ele>571.7</ele>
        <time>2026-02-22T09:26:23Z</time>
      </trkpt>
      <trkpt lat="43.60077" lon="6.38285">
        <ele>571.5</ele>
        <time>2026-02-22T09:26:24Z</time>
      </trkpt>
      <trkpt lat="43.60078" lon="6.38286">
        <ele>571.4</ele>
        <time>2026-02-22T09:26:25Z</time>
      </trkpt>
      <trkpt lat="43.60079" lon="6.38287">
        <ele>571.3</ele>
        <time>2026-02-22T09:26:26Z</time>
      </trkpt>
      <trkpt lat="43.60079" lon="6.38288">
        <ele>571.3</ele>
        <time>2026-02-22T09:26:27Z</time>
      </trkpt>
      <trkpt lat="43.6008" lon="6.3829">
        <ele>571.2</ele>
        <time>2026-02-22T09:26:28Z</time>
      </trkpt>
      <trkpt lat="43.6008" lon="6.38292">
        <ele>571.2</ele>
        <time>2026-02-22T09:26:29Z</time>
      </trkpt>
      <trkpt lat="43.6008" lon="6.38293">
        <ele>571.2</ele>
        <time>2026-02-22T09:26:30Z</time>
      </trkpt>
      <trkpt lat="43.6008" lon="6.38295">
        <ele>571.1</ele>
        <time>2026-02-22T09:26:31Z</time>
      </trkpt>
      <trkpt lat="43.60081" lon="6.38296">
        <ele>571</ele>
        <time>2026-02-22T09:26:32Z</time>
      </trkpt>
      <trkpt lat="43.60082" lon="6.38297">
        <ele>571</ele>
        <time>2026-02-22T09:26:33Z</time>
      </trkpt>
      <trkpt lat="43.60083" lon="6.38298">
        <ele>570.9</ele>
        <time>2026-02-22T09:26:34Z</time>
      </trkpt>
      <trkpt lat="43.60083" lon="6.38299">
        <ele>570.9</ele>
        <time>2026-02-22T09:26:35Z</time>
      </trkpt>
      <trkpt lat="43.60084" lon="6.383">
        <ele>570.8</ele>
        <time>2026-02-22T09:26:36Z</time>
      </trkpt>
      <trkpt lat="43.60085" lon="6.38301">
        <ele>570.8</ele>
        <time>2026-02-22T09:26:37Z</time>
      </trkpt>
      <trkpt lat="43.60085" lon="6.38302">
        <ele>570.8</ele>
        <time>2026-02-22T09:26:38Z</time>
      </trkpt>
      <trkpt lat="43.60086" lon="6.38303">
        <ele>570.8</ele>
        <time>2026-02-22T09:26:39Z</time>
      </trkpt>
      <trkpt lat="43.60088" lon="6.38305">
        <ele>570.7</ele>
        <time>2026-02-22T09:26:40Z</time>
      </trkpt>
      <trkpt lat="43.60089" lon="6.38306">
        <ele>570.7</ele>
        <time>2026-02-22T09:26:41Z</time>
      </trkpt>
      <trkpt lat="43.6009" lon="6.38308">
        <ele>570.7</ele>
        <time>2026-02-22T09:26:42Z</time>
      </trkpt>
      <trkpt lat="43.60092" lon="6.38308">
        <ele>570.6</ele>
        <time>2026-02-22T09:26:43Z</time>
      </trkpt>
      <trkpt lat="43.60092" lon="6.38309">
        <ele>570.6</ele>
        <time>2026-02-22T09:26:44Z</time>
      </trkpt>
      <trkpt lat="43.60092" lon="6.3831">
        <ele>570.5</ele>
        <time>2026-02-22T09:26:45Z</time>
      </trkpt>
      <trkpt lat="43.60092" lon="6.38312">
        <ele>570.6</ele>
        <time>2026-02-22T09:26:46Z</time>
      </trkpt>
      <trkpt lat="43.60093" lon="6.38313">
        <ele>570.6</ele>
        <time>2026-02-22T09:26:47Z</time>
      </trkpt>
      <trkpt lat="43.60093" lon="6.38314">
        <ele>570.6</ele>
        <time>2026-02-22T09:26:48Z</time>
      </trkpt>
      <trkpt lat="43.60094" lon="6.38315">
        <ele>570.7</ele>
        <time>2026-02-22T09:26:49Z</time>
      </trkpt>
      <trkpt lat="43.60094" lon="6.38316">
        <ele>570.7</ele>
        <time>2026-02-22T09:26:50Z</time>
      </trkpt>
      <trkpt lat="43.60094" lon="6.38317">
        <ele>570.6</ele>
        <time>2026-02-22T09:26:51Z</time>
      </trkpt>
      <trkpt lat="43.60095" lon="6.38317">
        <ele>570.5</ele>
        <time>2026-02-22T09:26:52Z</time>
      </trkpt>
      <trkpt lat="43.60096" lon="6.38318">
        <ele>570.4</ele>
        <time>2026-02-22T09:26:53Z</time>
      </trkpt>
      <trkpt lat="43.60097" lon="6.3832">
        <ele>570.4</ele>
        <time>2026-02-22T09:26:54Z</time>
      </trkpt>
      <trkpt lat="43.60098" lon="6.38321">
        <ele>570.4</ele>
        <time>2026-02-22T09:26:55Z</time>
      </trkpt>
      <trkpt lat="43.60099" lon="6.38323">
        <ele>570.3</ele>
        <time>2026-02-22T09:26:56Z</time>
      </trkpt>
      <trkpt lat="43.60099" lon="6.38323">
        <ele>570.2</ele>
        <time>2026-02-22T09:26:57Z</time>
      </trkpt>
      <trkpt lat="43.60099" lon="6.38325">
        <ele>570.1</ele>
        <time>2026-02-22T09:26:58Z</time>
      </trkpt>
      <trkpt lat="43.60099" lon="6.38328">
        <ele>570.1</ele>
        <time>2026-02-22T09:26:59Z</time>
      </trkpt>
      <trkpt lat="43.60099" lon="6.3833">
        <ele>570</ele>
        <time>2026-02-22T09:27:00Z</time>
      </trkpt>
      <trkpt lat="43.60099" lon="6.38331">
        <ele>570</ele>
        <time>2026-02-22T09:27:01Z</time>
      </trkpt>
      <trkpt lat="43.601" lon="6.38332">
        <ele>569.9</ele>
        <time>2026-02-22T09:27:02Z</time>
      </trkpt>
      <trkpt lat="43.60101" lon="6.38334">
        <ele>569.9</ele>
        <time>2026-02-22T09:27:03Z</time>
      </trkpt>
      <trkpt lat="43.60101" lon="6.38336">
        <ele>569.8</ele>
        <time>2026-02-22T09:27:04Z</time>
      </trkpt>
      <trkpt lat="43.60101" lon="6.38338">
        <ele>569.7</ele>
        <time>2026-02-22T09:27:05Z</time>
      </trkpt>
      <trkpt lat="43.60102" lon="6.38339">
        <ele>569.6</ele>
        <time>2026-02-22T09:27:06Z</time>
      </trkpt>
      <trkpt lat="43.60103" lon="6.38341">
        <ele>569.5</ele>
        <time>2026-02-22T09:27:07Z</time>
      </trkpt>
      <trkpt lat="43.60103" lon="6.38342">
        <ele>569.5</ele>
        <time>2026-02-22T09:27:08Z</time>
      </trkpt>
      <trkpt lat="43.60104" lon="6.38343">
        <ele>569.4</ele>
        <time>2026-02-22T09:27:09Z</time>
      </trkpt>
      <trkpt lat="43.60104" lon="6.38345">
        <ele>569.3</ele>
        <time>2026-02-22T09:27:10Z</time>
      </trkpt>
      <trkpt lat="43.60104" lon="6.38346">
        <ele>569.3</ele>
        <time>2026-02-22T09:27:11Z</time>
      </trkpt>
      <trkpt lat="43.60105" lon="6.38347">
        <ele>569.2</ele>
        <time>2026-02-22T09:27:12Z</time>
      </trkpt>
      <trkpt lat="43.60106" lon="6.38348">
        <ele>569.1</ele>
        <time>2026-02-22T09:27:13Z</time>
      </trkpt>
      <trkpt lat="43.60106" lon="6.38349">
        <ele>569.1</ele>
        <time>2026-02-22T09:27:14Z</time>
      </trkpt>
      <trkpt lat="43.60106" lon="6.38351">
        <ele>569.1</ele>
        <time>2026-02-22T09:27:15Z</time>
      </trkpt>
      <trkpt lat="43.60107" lon="6.38352">
        <ele>569</ele>
        <time>2026-02-22T09:27:16Z</time>
      </trkpt>
      <trkpt lat="43.60107" lon="6.38353">
        <ele>569</ele>
        <time>2026-02-22T09:27:17Z</time>
      </trkpt>
      <trkpt lat="43.60107" lon="6.38354">
        <ele>568.9</ele>
        <time>2026-02-22T09:27:18Z</time>
      </trkpt>
      <trkpt lat="43.60107" lon="6.38356">
        <ele>568.9</ele>
        <time>2026-02-22T09:27:19Z</time>
      </trkpt>
      <trkpt lat="43.60108" lon="6.38357">
        <ele>568.9</ele>
        <time>2026-02-22T09:27:20Z</time>
      </trkpt>
      <trkpt lat="43.60109" lon="6.38358">
        <ele>568.8</ele>
        <time>2026-02-22T09:27:21Z</time>
      </trkpt>
      <trkpt lat="43.60109" lon="6.38359">
        <ele>568.8</ele>
        <time>2026-02-22T09:27:22Z</time>
      </trkpt>
      <trkpt lat="43.6011" lon="6.38361">
        <ele>568.8</ele>
        <time>2026-02-22T09:27:23Z</time>
      </trkpt>
      <trkpt lat="43.60111" lon="6.38362">
        <ele>568.8</ele>
        <time>2026-02-22T09:27:24Z</time>
      </trkpt>
      <trkpt lat="43.60112" lon="6.38363">
        <ele>568.7</ele>
        <time>2026-02-22T09:27:25Z</time>
      </trkpt>
      <trkpt lat="43.60112" lon="6.38364">
        <ele>568.7</ele>
        <time>2026-02-22T09:27:26Z</time>
      </trkpt>
      <trkpt lat="43.60113" lon="6.38365">
        <ele>568.9</ele>
        <time>2026-02-22T09:27:27Z</time>
      </trkpt>
      <trkpt lat="43.60114" lon="6.38366">
        <ele>568.9</ele>
        <time>2026-02-22T09:27:28Z</time>
      </trkpt>
      <trkpt lat="43.60114" lon="6.38367">
        <ele>568.8</ele>
        <time>2026-02-22T09:27:29Z</time>
      </trkpt>
      <trkpt lat="43.60115" lon="6.38368">
        <ele>568.7</ele>
        <time>2026-02-22T09:27:30Z</time>
      </trkpt>
      <trkpt lat="43.60116" lon="6.38369">
        <ele>568.6</ele>
        <time>2026-02-22T09:27:31Z</time>
      </trkpt>
      <trkpt lat="43.60116" lon="6.3837">
        <ele>568.5</ele>
        <time>2026-02-22T09:27:32Z</time>
      </trkpt>
      <trkpt lat="43.60116" lon="6.38372">
        <ele>568.4</ele>
        <time>2026-02-22T09:27:33Z</time>
      </trkpt>
      <trkpt lat="43.60117" lon="6.38373">
        <ele>568.3</ele>
        <time>2026-02-22T09:27:34Z</time>
      </trkpt>
      <trkpt lat="43.60118" lon="6.38374">
        <ele>568.3</ele>
        <time>2026-02-22T09:27:35Z</time>
      </trkpt>
      <trkpt lat="43.60118" lon="6.38376">
        <ele>568.3</ele>
        <time>2026-02-22T09:27:36Z</time>
      </trkpt>
      <trkpt lat="43.60119" lon="6.38378">
        <ele>568.3</ele>
        <time>2026-02-22T09:27:37Z</time>
      </trkpt>
      <trkpt lat="43.60119" lon="6.38379">
        <ele>568.3</ele>
        <time>2026-02-22T09:27:38Z</time>
      </trkpt>
      <trkpt lat="43.6012" lon="6.3838">
        <ele>568.2</ele>
        <time>2026-02-22T09:27:39Z</time>
      </trkpt>
      <trkpt lat="43.60121" lon="6.38382">
        <ele>568.2</ele>
        <time>2026-02-22T09:27:40Z</time>
      </trkpt>
      <trkpt lat="43.60122" lon="6.38384">
        <ele>568.1</ele>
        <time>2026-02-22T09:27:41Z</time>
      </trkpt>
      <trkpt lat="43.60123" lon="6.38385">
        <ele>568</ele>
        <time>2026-02-22T09:27:42Z</time>
      </trkpt>
      <trkpt lat="43.60123" lon="6.38386">
        <ele>568</ele>
        <time>2026-02-22T09:27:43Z</time>
      </trkpt>
      <trkpt lat="43.60124" lon="6.38387">
        <ele>568</ele>
        <time>2026-02-22T09:27:44Z</time>
      </trkpt>
      <trkpt lat="43.60125" lon="6.38388">
        <ele>567.8</ele>
        <time>2026-02-22T09:27:45Z</time>
      </trkpt>
      <trkpt lat="43.60126" lon="6.38389">
        <ele>567.7</ele>
        <time>2026-02-22T09:27:46Z</time>
      </trkpt>
      <trkpt lat="43.60127" lon="6.38389">
        <ele>567.5</ele>
        <time>2026-02-22T09:27:47Z</time>
      </trkpt>
      <trkpt lat="43.60128" lon="6.3839">
        <ele>567.4</ele>
        <time>2026-02-22T09:27:48Z</time>
      </trkpt>
      <trkpt lat="43.60129" lon="6.38391">
        <ele>567.3</ele>
        <time>2026-02-22T09:27:49Z</time>
      </trkpt>
      <trkpt lat="43.6013" lon="6.38392">
        <ele>567.2</ele>
        <time>2026-02-22T09:27:50Z</time>
      </trkpt>
      <trkpt lat="43.6013" lon="6.38393">
        <ele>567.1</ele>
        <time>2026-02-22T09:27:51Z</time>
      </trkpt>
      <trkpt lat="43.60131" lon="6.38394">
        <ele>567</ele>
        <time>2026-02-22T09:27:52Z</time>
      </trkpt>
      <trkpt lat="43.60132" lon="6.38395">
        <ele>566.8</ele>
        <time>2026-02-22T09:27:53Z</time>
      </trkpt>
      <trkpt lat="43.60132" lon="6.38395">
        <ele>566.7</ele>
        <time>2026-02-22T09:27:54Z</time>
      </trkpt>
      <trkpt lat="43.60132" lon="6.38397">
        <ele>566.5</ele>
        <time>2026-02-22T09:27:55Z</time>
      </trkpt>
      <trkpt lat="43.60132" lon="6.38397">
        <ele>566.4</ele>
        <time>2026-02-22T09:27:56Z</time>
      </trkpt>
      <trkpt lat="43.60133" lon="6.38398">
        <ele>566.2</ele>
        <time>2026-02-22T09:27:57Z</time>
      </trkpt>
      <trkpt lat="43.60134" lon="6.38399">
        <ele>566</ele>
        <time>2026-02-22T09:27:58Z</time>
      </trkpt>
      <trkpt lat="43.60134" lon="6.384">
        <ele>565.9</ele>
        <time>2026-02-22T09:27:59Z</time>
      </trkpt>
      <trkpt lat="43.60135" lon="6.38401">
        <ele>565.7</ele>
        <time>2026-02-22T09:28:00Z</time>
      </trkpt>
      <trkpt lat="43.60136" lon="6.38401">
        <ele>565.6</ele>
        <time>2026-02-22T09:28:01Z</time>
      </trkpt>
      <trkpt lat="43.60136" lon="6.38402">
        <ele>565.5</ele>
        <time>2026-02-22T09:28:02Z</time>
      </trkpt>
      <trkpt lat="43.60137" lon="6.38403">
        <ele>565.5</ele>
        <time>2026-02-22T09:28:03Z</time>
      </trkpt>
      <trkpt lat="43.60138" lon="6.38403">
        <ele>565.4</ele>
        <time>2026-02-22T09:28:04Z</time>
      </trkpt>
      <trkpt lat="43.60138" lon="6.38404">
        <ele>565.3</ele>
        <time>2026-02-22T09:28:05Z</time>
      </trkpt>
      <trkpt lat="43.60139" lon="6.38404">
        <ele>565.3</ele>
        <time>2026-02-22T09:28:06Z</time>
      </trkpt>
      <trkpt lat="43.6014" lon="6.38405">
        <ele>565.2</ele>
        <time>2026-02-22T09:28:07Z</time>
      </trkpt>
      <trkpt lat="43.6014" lon="6.38405">
        <ele>565.2</ele>
        <time>2026-02-22T09:28:08Z</time>
      </trkpt>
      <trkpt lat="43.6014" lon="6.38406">
        <ele>565.1</ele>
        <time>2026-02-22T09:28:09Z</time>
      </trkpt>
      <trkpt lat="43.60141" lon="6.38407">
        <ele>564.9</ele>
        <time>2026-02-22T09:28:10Z</time>
      </trkpt>
      <trkpt lat="43.60142" lon="6.38407">
        <ele>564.8</ele>
        <time>2026-02-22T09:28:11Z</time>
      </trkpt>
      <trkpt lat="43.60142" lon="6.38408">
        <ele>564.7</ele>
        <time>2026-02-22T09:28:12Z</time>
      </trkpt>
      <trkpt lat="43.60142" lon="6.38408">
        <ele>564.7</ele>
        <time>2026-02-22T09:28:13Z</time>
      </trkpt>
      <trkpt lat="43.60143" lon="6.38409">
        <ele>564.6</ele>
        <time>2026-02-22T09:28:14Z</time>
      </trkpt>
      <trkpt lat="43.60143" lon="6.38409">
        <ele>564.6</ele>
        <time>2026-02-22T09:28:15Z</time>
      </trkpt>
      <trkpt lat="43.60143" lon="6.38409">
        <ele>564.6</ele>
        <time>2026-02-22T09:28:16Z</time>
      </trkpt>
      <trkpt lat="43.60143" lon="6.3841">
        <ele>564.7</ele>
        <time>2026-02-22T09:28:17Z</time>
      </trkpt>
      <trkpt lat="43.60144" lon="6.3841">
        <ele>564.7</ele>
        <time>2026-02-22T09:28:18Z</time>
      </trkpt>
      <trkpt lat="43.60144" lon="6.38411">
        <ele>564.8</ele>
        <time>2026-02-22T09:28:19Z</time>
      </trkpt>
      <trkpt lat="43.60144" lon="6.38411">
        <ele>564.8</ele>
        <time>2026-02-22T09:28:20Z</time>
      </trkpt>
      <trkpt lat="43.60145" lon="6.38411">
        <ele>564.7</ele>
        <time>2026-02-22T09:28:21Z</time>
      </trkpt>
      <trkpt lat="43.60145" lon="6.38411">
        <ele>564.7</ele>
        <time>2026-02-22T09:28:22Z</time>
      </trkpt>
      <trkpt lat="43.60145" lon="6.38412">
        <ele>564.6</ele>
        <time>2026-02-22T09:28:23Z</time>
      </trkpt>
      <trkpt lat="43.60145" lon="6.38412">
        <ele>564.5</ele>
        <time>2026-02-22T09:28:24Z</time>
      </trkpt>
      <trkpt lat="43.60146" lon="6.38412">
        <ele>564.5</ele>
        <time>2026-02-22T09:28:25Z</time>
      </trkpt>
      <trkpt lat="43.60146" lon="6.38413">
        <ele>564.4</ele>
        <time>2026-02-22T09:28:26Z</time>
      </trkpt>
      <trkpt lat="43.60146" lon="6.38413">
        <ele>564.4</ele>
        <time>2026-02-22T09:28:27Z</time>
      </trkpt>
      <trkpt lat="43.60147" lon="6.38413">
        <ele>564.3</ele>
        <time>2026-02-22T09:28:28Z</time>
      </trkpt>
      <trkpt lat="43.60147" lon="6.38414">
        <ele>564.2</ele>
        <time>2026-02-22T09:28:29Z</time>
      </trkpt>
      <trkpt lat="43.60147" lon="6.38414">
        <ele>564.2</ele>
        <time>2026-02-22T09:28:30Z</time>
      </trkpt>
      <trkpt lat="43.60148" lon="6.38414">
        <ele>564.1</ele>
        <time>2026-02-22T09:28:31Z</time>
      </trkpt>
      <trkpt lat="43.60148" lon="6.38413">
        <ele>564.2</ele>
        <time>2026-02-22T09:28:32Z</time>
      </trkpt>
      <trkpt lat="43.60148" lon="6.38413">
        <ele>564.2</ele>
        <time>2026-02-22T09:28:33Z</time>
      </trkpt>
      <trkpt lat="43.60148" lon="6.38413">
        <ele>564.3</ele>
        <time>2026-02-22T09:28:34Z</time>
      </trkpt>
      <trkpt lat="43.60149" lon="6.38413">
        <ele>564.4</ele>
        <time>2026-02-22T09:28:35Z</time>
      </trkpt>
      <trkpt lat="43.60149" lon="6.38413">
        <ele>564.2</ele>
        <time>2026-02-22T09:28:36Z</time>
      </trkpt>
      <trkpt lat="43.60149" lon="6.38413">
        <ele>564.1</ele>
        <time>2026-02-22T09:28:37Z</time>
      </trkpt>
      <trkpt lat="43.60149" lon="6.38413">
        <ele>564.2</ele>
        <time>2026-02-22T09:28:38Z</time>
      </trkpt>
      <trkpt lat="43.60149" lon="6.38413">
        <ele>564.3</ele>
        <time>2026-02-22T09:28:39Z</time>
      </trkpt>
      <trkpt lat="43.6015" lon="6.38413">
        <ele>564.3</ele>
        <time>2026-02-22T09:28:40Z</time>
      </trkpt>
      <trkpt lat="43.6015" lon="6.38413">
        <ele>564.3</ele>
        <time>2026-02-22T09:28:41Z</time>
      </trkpt>
      <trkpt lat="43.6015" lon="6.38413">
        <ele>564.3</ele>
        <time>2026-02-22T09:28:42Z</time>
      </trkpt>
      <trkpt lat="43.6015" lon="6.38413">
        <ele>564.3</ele>
        <time>2026-02-22T09:28:43Z</time>
      </trkpt>
      <trkpt lat="43.60151" lon="6.38413">
        <ele>564.3</ele>
        <time>2026-02-22T09:28:44Z</time>
      </trkpt>
      <trkpt lat="43.60151" lon="6.38413">
        <ele>564.3</ele>
        <time>2026-02-22T09:28:45Z</time>
      </trkpt>
      <trkpt lat="43.60151" lon="6.38413">
        <ele>564.2</ele>
        <time>2026-02-22T09:28:46Z</time>
      </trkpt>
      <trkpt lat="43.60151" lon="6.38413">
        <ele>564.1</ele>
        <time>2026-02-22T09:28:47Z</time>
      </trkpt>
      <trkpt lat="43.60152" lon="6.38413">
        <ele>564</ele>
        <time>2026-02-22T09:28:48Z</time>
      </trkpt>
      <trkpt lat="43.60152" lon="6.38413">
        <ele>563.9</ele>
        <time>2026-02-22T09:28:49Z</time>
      </trkpt>
      <trkpt lat="43.60152" lon="6.38413">
        <ele>563.9</ele>
        <time>2026-02-22T09:28:50Z</time>
      </trkpt>
      <trkpt lat="43.60152" lon="6.38413">
        <ele>563.9</ele>
        <time>2026-02-22T09:28:51Z</time>
      </trkpt>
      <trkpt lat="43.60152" lon="6.38413">
        <ele>563.9</ele>
        <time>2026-02-22T09:28:52Z</time>
      </trkpt>
      <trkpt lat="43.60152" lon="6.38413">
        <ele>563.8</ele>
        <time>2026-02-22T09:28:53Z</time>
      </trkpt>
      <trkpt lat="43.60153" lon="6.38413">
        <ele>563.8</ele>
        <time>2026-02-22T09:28:54Z</time>
      </trkpt>
      <trkpt lat="43.60153" lon="6.38413">
        <ele>563.8</ele>
        <time>2026-02-22T09:28:55Z</time>
      </trkpt>
      <trkpt lat="43.60153" lon="6.38413">
        <ele>563.7</ele>
        <time>2026-02-22T09:28:56Z</time>
      </trkpt>
      <trkpt lat="43.60153" lon="6.38413">
        <ele>563.7</ele>
        <time>2026-02-22T09:28:57Z</time>
      </trkpt>
      <trkpt lat="43.60153" lon="6.38413">
        <ele>563.7</ele>
        <time>2026-02-22T09:28:58Z</time>
      </trkpt>
      <trkpt lat="43.60153" lon="6.38413">
        <ele>563.7</ele>
        <time>2026-02-22T09:28:59Z</time>
      </trkpt>
      <trkpt lat="43.60153" lon="6.38413">
        <ele>563.7</ele>
        <time>2026-02-22T09:29:00Z</time>
      </trkpt>
      <trkpt lat="43.60153" lon="6.38413">
        <ele>563.8</ele>
        <time>2026-02-22T09:29:01Z</time>
      </trkpt>
      <trkpt lat="43.60154" lon="6.38413">
        <ele>563.8</ele>
        <time>2026-02-22T09:29:02Z</time>
      </trkpt>
      <trkpt lat="43.60154" lon="6.38413">
        <ele>563.8</ele>
        <time>2026-02-22T09:29:03Z</time>
      </trkpt>
      <trkpt lat="43.60154" lon="6.38413">
        <ele>563.9</ele>
        <time>2026-02-22T09:29:04Z</time>
      </trkpt>
      <trkpt lat="43.60154" lon="6.38413">
        <ele>563.9</ele>
        <time>2026-02-22T09:29:05Z</time>
      </trkpt>
      <trkpt lat="43.60154" lon="6.38413">
        <ele>563.9</ele>
        <time>2026-02-22T09:29:06Z</time>
      </trkpt>
      <trkpt lat="43.60154" lon="6.38413">
        <ele>563.9</ele>
        <time>2026-02-22T09:29:07Z</time>
      </trkpt>
      <trkpt lat="43.60154" lon="6.38413">
        <ele>563.9</ele>
        <time>2026-02-22T09:29:08Z</time>
      </trkpt>
      <trkpt lat="43.60154" lon="6.38413">
        <ele>563.9</ele>
        <time>2026-02-22T09:29:09Z</time>
      </trkpt>
      <trkpt lat="43.60154" lon="6.38413">
        <ele>563.9</ele>
        <time>2026-02-22T09:29:10Z</time>
      </trkpt>
      <trkpt lat="43.60154" lon="6.38413">
        <ele>564</ele>
        <time>2026-02-22T09:29:11Z</time>
      </trkpt>
      <trkpt lat="43.60154" lon="6.38413">
        <ele>563.9</ele>
        <time>2026-02-22T09:29:12Z</time>
      </trkpt>
      <trkpt lat="43.60153" lon="6.38413">
        <ele>563.8</ele>
        <time>2026-02-22T09:29:13Z</time>
      </trkpt>
      <trkpt lat="43.60153" lon="6.38413">
        <ele>563.7</ele>
        <time>2026-02-22T09:29:14Z</time>
      </trkpt>
      <trkpt lat="43.60153" lon="6.38413">
        <ele>563.7</ele>
        <time>2026-02-22T09:29:15Z</time>
      </trkpt>
      <trkpt lat="43.60153" lon="6.38413">
        <ele>563.6</ele>
        <time>2026-02-22T09:29:16Z</time>
      </trkpt>
      <trkpt lat="43.60153" lon="6.38413">
        <ele>563.6</ele>
        <time>2026-02-22T09:29:17Z</time>
      </trkpt>
      <trkpt lat="43.60153" lon="6.38413">
        <ele>563.5</ele>
        <time>2026-02-22T09:29:18Z</time>
      </trkpt>
      <trkpt lat="43.60153" lon="6.38413">
        <ele>563.5</ele>
        <time>2026-02-22T09:29:19Z</time>
      </trkpt>
      <trkpt lat="43.60153" lon="6.38413">
        <ele>563.5</ele>
        <time>2026-02-22T09:29:20Z</time>
      </trkpt>
      <trkpt lat="43.60153" lon="6.38413">
        <ele>563.5</ele>
        <time>2026-02-22T09:29:21Z</time>
      </trkpt>
      <trkpt lat="43.60153" lon="6.38413">
        <ele>563.5</ele>
        <time>2026-02-22T09:29:22Z</time>
      </trkpt>
      <trkpt lat="43.60153" lon="6.38413">
        <ele>563.5</ele>
        <time>2026-02-22T09:29:23Z</time>
      </trkpt>
      <trkpt lat="43.60153" lon="6.38413">
        <ele>563.5</ele>
        <time>2026-02-22T09:29:24Z</time>
      </trkpt>
      <trkpt lat="43.60153" lon="6.38413">
        <ele>563.5</ele>
        <time>2026-02-22T09:29:25Z</time>
      </trkpt>
      <trkpt lat="43.60153" lon="6.38413">
        <ele>563.5</ele>
        <time>2026-02-22T09:29:26Z</time>
      </trkpt>
      <trkpt lat="43.60153" lon="6.38413">
        <ele>563.5</ele>
        <time>2026-02-22T09:29:27Z</time>
      </trkpt>
      <trkpt lat="43.60153" lon="6.38413">
        <ele>563.6</ele>
        <time>2026-02-22T09:29:28Z</time>
      </trkpt>
      <trkpt lat="43.60153" lon="6.38413">
        <ele>563.7</ele>
        <time>2026-02-22T09:29:29Z</time>
      </trkpt>
      <trkpt lat="43.60153" lon="6.38413">
        <ele>563.8</ele>
        <time>2026-02-22T09:29:30Z</time>
      </trkpt>
      <trkpt lat="43.60153" lon="6.38413">
        <ele>563.8</ele>
        <time>2026-02-22T09:29:31Z</time>
      </trkpt>
      <trkpt lat="43.60153" lon="6.38413">
        <ele>563.8</ele>
        <time>2026-02-22T09:29:32Z</time>
      </trkpt>
      <trkpt lat="43.60153" lon="6.38414">
        <ele>563.8</ele>
        <time>2026-02-22T09:29:33Z</time>
      </trkpt>
      <trkpt lat="43.60153" lon="6.38414">
        <ele>563.8</ele>
        <time>2026-02-22T09:29:34Z</time>
      </trkpt>
      <trkpt lat="43.60153" lon="6.38414">
        <ele>563.8</ele>
        <time>2026-02-22T09:29:35Z</time>
      </trkpt>
      <trkpt lat="43.60152" lon="6.38414">
        <ele>563.7</ele>
        <time>2026-02-22T09:29:36Z</time>
      </trkpt>
      <trkpt lat="43.60152" lon="6.38414">
        <ele>563.7</ele>
        <time>2026-02-22T09:29:37Z</time>
      </trkpt>
      <trkpt lat="43.60152" lon="6.38415">
        <ele>563.7</ele>
        <time>2026-02-22T09:29:38Z</time>
      </trkpt>
      <trkpt lat="43.60151" lon="6.38416">
        <ele>563.7</ele>
        <time>2026-02-22T09:29:39Z</time>
      </trkpt>
      <trkpt lat="43.60152" lon="6.38416">
        <ele>563.7</ele>
        <time>2026-02-22T09:29:40Z</time>
      </trkpt>
      <trkpt lat="43.60151" lon="6.38416">
        <ele>563.6</ele>
        <time>2026-02-22T09:29:41Z</time>
      </trkpt>
      <trkpt lat="43.60152" lon="6.38415">
        <ele>563.6</ele>
        <time>2026-02-22T09:29:42Z</time>
      </trkpt>
      <trkpt lat="43.60151" lon="6.38415">
        <ele>563.6</ele>
        <time>2026-02-22T09:29:43Z</time>
      </trkpt>
      <trkpt lat="43.60152" lon="6.38415">
        <ele>563.6</ele>
        <time>2026-02-22T09:29:44Z</time>
      </trkpt>
      <trkpt lat="43.60152" lon="6.38415">
        <ele>563.7</ele>
        <time>2026-02-22T09:29:45Z</time>
      </trkpt>
      <trkpt lat="43.60151" lon="6.38415">
        <ele>563.7</ele>
        <time>2026-02-22T09:29:46Z</time>
      </trkpt>
      <trkpt lat="43.60151" lon="6.38415">
        <ele>563.7</ele>
        <time>2026-02-22T09:29:47Z</time>
      </trkpt>
      <trkpt lat="43.60151" lon="6.38415">
        <ele>563.6</ele>
        <time>2026-02-22T09:29:48Z</time>
      </trkpt>
      <trkpt lat="43.60152" lon="6.38415">
        <ele>563.6</ele>
        <time>2026-02-22T09:29:49Z</time>
      </trkpt>
      <trkpt lat="43.60152" lon="6.38415">
        <ele>563.6</ele>
        <time>2026-02-22T09:29:50Z</time>
      </trkpt>
      <trkpt lat="43.60152" lon="6.38415">
        <ele>563.5</ele>
        <time>2026-02-22T09:29:51Z</time>
      </trkpt>
      <trkpt lat="43.60152" lon="6.38415">
        <ele>563.5</ele>
        <time>2026-02-22T09:29:52Z</time>
      </trkpt>
      <trkpt lat="43.60152" lon="6.38415">
        <ele>563.6</ele>
        <time>2026-02-22T09:29:53Z</time>
      </trkpt>
      <trkpt lat="43.60151" lon="6.38415">
        <ele>563.5</ele>
        <time>2026-02-22T09:29:54Z</time>
      </trkpt>
      <trkpt lat="43.60151" lon="6.38414">
        <ele>563.5</ele>
        <time>2026-02-22T09:29:55Z</time>
      </trkpt>
      <trkpt lat="43.60151" lon="6.38414">
        <ele>563.4</ele>
        <time>2026-02-22T09:29:56Z</time>
      </trkpt>
      <trkpt lat="43.60151" lon="6.38413">
        <ele>563.4</ele>
        <time>2026-02-22T09:29:57Z</time>
      </trkpt>
      <trkpt lat="43.60151" lon="6.38413">
        <ele>563.4</ele>
        <time>2026-02-22T09:29:58Z</time>
      </trkpt>
      <trkpt lat="43.60151" lon="6.38414">
        <ele>563.6</ele>
        <time>2026-02-22T09:29:59Z</time>
      </trkpt>
      <trkpt lat="43.60151" lon="6.38414">
        <ele>563.8</ele>
        <time>2026-02-22T09:30:00Z</time>
      </trkpt>
      <trkpt lat="43.60151" lon="6.38414">
        <ele>563.7</ele>
        <time>2026-02-22T09:30:01Z</time>
      </trkpt>
      <trkpt lat="43.60152" lon="6.38414">
        <ele>563.8</ele>
        <time>2026-02-22T09:30:02Z</time>
      </trkpt>
      <trkpt lat="43.60152" lon="6.38414">
        <ele>563.7</ele>
        <time>2026-02-22T09:30:03Z</time>
      </trkpt>
      <trkpt lat="43.60152" lon="6.38414">
        <ele>563.9</ele>
        <time>2026-02-22T09:30:04Z</time>
      </trkpt>
      <trkpt lat="43.60152" lon="6.38414">
        <ele>563.9</ele>
        <time>2026-02-22T09:30:05Z</time>
      </trkpt>
      <trkpt lat="43.60152" lon="6.38414">
        <ele>563.9</ele>
        <time>2026-02-22T09:30:06Z</time>
      </trkpt>
      <trkpt lat="43.60152" lon="6.38414">
        <ele>564</ele>
        <time>2026-02-22T09:30:07Z</time>
      </trkpt>
      <trkpt lat="43.60152" lon="6.38415">
        <ele>564</ele>
        <time>2026-02-22T09:30:08Z</time>
      </trkpt>
      <trkpt lat="43.60152" lon="6.38414">
        <ele>564</ele>
        <time>2026-02-22T09:30:09Z</time>
      </trkpt>
      <trkpt lat="43.60152" lon="6.38414">
        <ele>563.9</ele>
        <time>2026-02-22T09:30:10Z</time>
      </trkpt>
      <trkpt lat="43.60153" lon="6.38414">
        <ele>563.9</ele>
        <time>2026-02-22T09:30:11Z</time>
      </trkpt>
      <trkpt lat="43.60153" lon="6.38414">
        <ele>563.9</ele>
        <time>2026-02-22T09:30:12Z</time>
      </trkpt>
      <trkpt lat="43.60153" lon="6.38414">
        <ele>563.9</ele>
        <time>2026-02-22T09:30:13Z</time>
      </trkpt>
      <trkpt lat="43.60153" lon="6.38414">
        <ele>563.8</ele>
        <time>2026-02-22T09:30:14Z</time>
      </trkpt>
      <trkpt lat="43.60153" lon="6.38414">
        <ele>563.7</ele>
        <time>2026-02-22T09:30:15Z</time>
      </trkpt>
      <trkpt lat="43.60153" lon="6.38415">
        <ele>563.7</ele>
        <time>2026-02-22T09:30:16Z</time>
      </trkpt>
      <trkpt lat="43.60154" lon="6.38415">
        <ele>563.7</ele>
        <time>2026-02-22T09:30:17Z</time>
      </trkpt>
      <trkpt lat="43.60154" lon="6.38415">
        <ele>563.8</ele>
        <time>2026-02-22T09:30:18Z</time>
      </trkpt>
      <trkpt lat="43.60154" lon="6.38416">
        <ele>563.8</ele>
        <time>2026-02-22T09:30:19Z</time>
      </trkpt>
      <trkpt lat="43.60154" lon="6.38416">
        <ele>563.8</ele>
        <time>2026-02-22T09:30:20Z</time>
      </trkpt>
      <trkpt lat="43.60154" lon="6.38417">
        <ele>564</ele>
        <time>2026-02-22T09:30:21Z</time>
      </trkpt>
      <trkpt lat="43.60154" lon="6.38417">
        <ele>563.9</ele>
        <time>2026-02-22T09:30:22Z</time>
      </trkpt>
      <trkpt lat="43.60155" lon="6.38417">
        <ele>563.8</ele>
        <time>2026-02-22T09:30:23Z</time>
      </trkpt>
      <trkpt lat="43.60155" lon="6.38417">
        <ele>563.7</ele>
        <time>2026-02-22T09:30:24Z</time>
      </trkpt>
      <trkpt lat="43.60155" lon="6.38417">
        <ele>563.6</ele>
        <time>2026-02-22T09:30:25Z</time>
      </trkpt>
      <trkpt lat="43.60155" lon="6.38416">
        <ele>563.5</ele>
        <time>2026-02-22T09:30:26Z</time>
      </trkpt>
      <trkpt lat="43.60154" lon="6.38416">
        <ele>563.4</ele>
        <time>2026-02-22T09:30:27Z</time>
      </trkpt>
      <trkpt lat="43.60154" lon="6.38416">
        <ele>563.2</ele>
        <time>2026-02-22T09:30:28Z</time>
      </trkpt>
      <trkpt lat="43.60155" lon="6.38416">
        <ele>563.1</ele>
        <time>2026-02-22T09:30:29Z</time>
      </trkpt>
      <trkpt lat="43.60155" lon="6.38417">
        <ele>562.9</ele>
        <time>2026-02-22T09:30:30Z</time>
      </trkpt>
      <trkpt lat="43.60156" lon="6.38416">
        <ele>562.8</ele>
        <time>2026-02-22T09:30:31Z</time>
      </trkpt>
      <trkpt lat="43.60156" lon="6.38416">
        <ele>562.7</ele>
        <time>2026-02-22T09:30:32Z</time>
      </trkpt>
      <trkpt lat="43.60157" lon="6.38415">
        <ele>562.6</ele>
        <time>2026-02-22T09:30:33Z</time>
      </trkpt>
      <trkpt lat="43.60157" lon="6.38416">
        <ele>562.5</ele>
        <time>2026-02-22T09:30:34Z</time>
      </trkpt>
      <trkpt lat="43.60157" lon="6.38415">
        <ele>562.4</ele>
        <time>2026-02-22T09:30:35Z</time>
      </trkpt>
      <trkpt lat="43.60157" lon="6.38414">
        <ele>562.4</ele>
        <time>2026-02-22T09:30:36Z</time>
      </trkpt>
      <trkpt lat="43.60157" lon="6.38414">
        <ele>562.2</ele>
        <time>2026-02-22T09:30:37Z</time>
      </trkpt>
      <trkpt lat="43.60157" lon="6.38414">
        <ele>562.1</ele>
        <time>2026-02-22T09:30:38Z</time>
      </trkpt>
      <trkpt lat="43.60157" lon="6.38413">
        <ele>562</ele>
        <time>2026-02-22T09:30:39Z</time>
      </trkpt>
      <trkpt lat="43.60157" lon="6.38413">
        <ele>561.9</ele>
        <time>2026-02-22T09:30:40Z</time>
      </trkpt>
      <trkpt lat="43.60158" lon="6.38412">
        <ele>561.7</ele>
        <time>2026-02-22T09:30:41Z</time>
      </trkpt>
      <trkpt lat="43.60158" lon="6.38411">
        <ele>561.5</ele>
        <time>2026-02-22T09:30:42Z</time>
      </trkpt>
      <trkpt lat="43.60159" lon="6.38411">
        <ele>561.4</ele>
        <time>2026-02-22T09:30:43Z</time>
      </trkpt>
      <trkpt lat="43.60159" lon="6.38411">
        <ele>561.3</ele>
        <time>2026-02-22T09:30:44Z</time>
      </trkpt>
      <trkpt lat="43.6016" lon="6.3841">
        <ele>561.2</ele>
        <time>2026-02-22T09:30:45Z</time>
      </trkpt>
      <trkpt lat="43.6016" lon="6.38409">
        <ele>561.1</ele>
        <time>2026-02-22T09:30:46Z</time>
      </trkpt>
      <trkpt lat="43.6016" lon="6.38408">
        <ele>561.1</ele>
        <time>2026-02-22T09:30:47Z</time>
      </trkpt>
      <trkpt lat="43.6016" lon="6.38408">
        <ele>561</ele>
        <time>2026-02-22T09:30:48Z</time>
      </trkpt>
      <trkpt lat="43.6016" lon="6.38407">
        <ele>561</ele>
        <time>2026-02-22T09:30:49Z</time>
      </trkpt>
      <trkpt lat="43.6016" lon="6.38406">
        <ele>560.9</ele>
        <time>2026-02-22T09:30:50Z</time>
      </trkpt>
      <trkpt lat="43.60161" lon="6.38405">
        <ele>560.8</ele>
        <time>2026-02-22T09:30:51Z</time>
      </trkpt>
      <trkpt lat="43.60161" lon="6.38405">
        <ele>560.7</ele>
        <time>2026-02-22T09:30:52Z</time>
      </trkpt>
      <trkpt lat="43.60161" lon="6.38405">
        <ele>560.6</ele>
        <time>2026-02-22T09:30:53Z</time>
      </trkpt>
      <trkpt lat="43.60161" lon="6.38405">
        <ele>560.5</ele>
        <time>2026-02-22T09:30:54Z</time>
      </trkpt>
      <trkpt lat="43.60162" lon="6.38405">
        <ele>560.5</ele>
        <time>2026-02-22T09:30:55Z</time>
      </trkpt>
      <trkpt lat="43.60162" lon="6.38405">
        <ele>560.4</ele>
        <time>2026-02-22T09:30:56Z</time>
      </trkpt>
      <trkpt lat="43.60163" lon="6.38405">
        <ele>560.2</ele>
        <time>2026-02-22T09:30:57Z</time>
      </trkpt>
      <trkpt lat="43.60163" lon="6.38404">
        <ele>560</ele>
        <time>2026-02-22T09:30:58Z</time>
      </trkpt>
      <trkpt lat="43.60162" lon="6.38403">
        <ele>560</ele>
        <time>2026-02-22T09:30:59Z</time>
      </trkpt>
      <trkpt lat="43.60162" lon="6.38403">
        <ele>559.8</ele>
        <time>2026-02-22T09:31:00Z</time>
      </trkpt>
      <trkpt lat="43.60162" lon="6.38402">
        <ele>559.8</ele>
        <time>2026-02-22T09:31:01Z</time>
      </trkpt>
      <trkpt lat="43.60162" lon="6.38401">
        <ele>559.7</ele>
        <time>2026-02-22T09:31:02Z</time>
      </trkpt>
      <trkpt lat="43.60162" lon="6.38401">
        <ele>559.5</ele>
        <time>2026-02-22T09:31:03Z</time>
      </trkpt>
      <trkpt lat="43.60162" lon="6.384">
        <ele>559.4</ele>
        <time>2026-02-22T09:31:04Z</time>
      </trkpt>
      <trkpt lat="43.60163" lon="6.384">
        <ele>559.3</ele>
        <time>2026-02-22T09:31:05Z</time>
      </trkpt>
      <trkpt lat="43.60163" lon="6.38399">
        <ele>559.1</ele>
        <time>2026-02-22T09:31:06Z</time>
      </trkpt>
      <trkpt lat="43.60163" lon="6.38398">
        <ele>559.1</ele>
        <time>2026-02-22T09:31:07Z</time>
      </trkpt>
      <trkpt lat="43.60164" lon="6.38397">
        <ele>559</ele>
        <time>2026-02-22T09:31:08Z</time>
      </trkpt>
      <trkpt lat="43.60164" lon="6.38397">
        <ele>559</ele>
        <time>2026-02-22T09:31:09Z</time>
      </trkpt>
      <trkpt lat="43.60163" lon="6.38396">
        <ele>558.9</ele>
        <time>2026-02-22T09:31:10Z</time>
      </trkpt>
      <trkpt lat="43.60163" lon="6.38395">
        <ele>558.8</ele>
        <time>2026-02-22T09:31:11Z</time>
      </trkpt>
      <trkpt lat="43.60161" lon="6.38395">
        <ele>558.7</ele>
        <time>2026-02-22T09:31:12Z</time>
      </trkpt>
      <trkpt lat="43.60161" lon="6.38395">
        <ele>558.7</ele>
        <time>2026-02-22T09:31:13Z</time>
      </trkpt>
      <trkpt lat="43.60161" lon="6.38394">
        <ele>558.5</ele>
        <time>2026-02-22T09:31:14Z</time>
      </trkpt>
      <trkpt lat="43.60162" lon="6.38394">
        <ele>558.4</ele>
        <time>2026-02-22T09:31:15Z</time>
      </trkpt>
      <trkpt lat="43.60162" lon="6.38394">
        <ele>558.4</ele>
        <time>2026-02-22T09:31:16Z</time>
      </trkpt>
      <trkpt lat="43.60163" lon="6.38394">
        <ele>558.2</ele>
        <time>2026-02-22T09:31:17Z</time>
      </trkpt>
      <trkpt lat="43.60164" lon="6.38393">
        <ele>558</ele>
        <time>2026-02-22T09:31:18Z</time>
      </trkpt>
      <trkpt lat="43.60164" lon="6.38393">
        <ele>557.8</ele>
        <time>2026-02-22T09:31:19Z</time>
      </trkpt>
      <trkpt lat="43.60164" lon="6.38392">
        <ele>557.5</ele>
        <time>2026-02-22T09:31:20Z</time>
      </trkpt>
      <trkpt lat="43.60164" lon="6.38392">
        <ele>557.4</ele>
        <time>2026-02-22T09:31:21Z</time>
      </trkpt>
      <trkpt lat="43.60163" lon="6.38392">
        <ele>557.3</ele>
        <time>2026-02-22T09:31:22Z</time>
      </trkpt>
      <trkpt lat="43.60163" lon="6.38392">
        <ele>557.3</ele>
        <time>2026-02-22T09:31:23Z</time>
      </trkpt>
      <trkpt lat="43.60163" lon="6.38392">
        <ele>557.2</ele>
        <time>2026-02-22T09:31:24Z</time>
      </trkpt>
      <trkpt lat="43.60164" lon="6.38392">
        <ele>557.1</ele>
        <time>2026-02-22T09:31:25Z</time>
      </trkpt>
      <trkpt lat="43.60164" lon="6.38392">
        <ele>557</ele>
        <time>2026-02-22T09:31:26Z</time>
      </trkpt>
      <trkpt lat="43.60164" lon="6.38392">
        <ele>556.9</ele>
        <time>2026-02-22T09:31:27Z</time>
      </trkpt>
      <trkpt lat="43.60165" lon="6.38392">
        <ele>556.8</ele>
        <time>2026-02-22T09:31:28Z</time>
      </trkpt>
      <trkpt lat="43.60165" lon="6.38392">
        <ele>556.7</ele>
        <time>2026-02-22T09:31:29Z</time>
      </trkpt>
      <trkpt lat="43.60165" lon="6.38392">
        <ele>556.6</ele>
        <time>2026-02-22T09:31:30Z</time>
      </trkpt>
      <trkpt lat="43.60166" lon="6.38391">
        <ele>556.4</ele>
        <time>2026-02-22T09:31:31Z</time>
      </trkpt>
      <trkpt lat="43.60167" lon="6.3839">
        <ele>556.2</ele>
        <time>2026-02-22T09:31:32Z</time>
      </trkpt>
      <trkpt lat="43.60168" lon="6.38389">
        <ele>556.1</ele>
        <time>2026-02-22T09:31:33Z</time>
      </trkpt>
      <trkpt lat="43.60168" lon="6.38389">
        <ele>556</ele>
        <time>2026-02-22T09:31:34Z</time>
      </trkpt>
      <trkpt lat="43.60168" lon="6.3839">
        <ele>555.8</ele>
        <time>2026-02-22T09:31:35Z</time>
      </trkpt>
      <trkpt lat="43.60169" lon="6.3839">
        <ele>555.8</ele>
        <time>2026-02-22T09:31:36Z</time>
      </trkpt>
      <trkpt lat="43.60169" lon="6.3839">
        <ele>555.7</ele>
        <time>2026-02-22T09:31:37Z</time>
      </trkpt>
      <trkpt lat="43.6017" lon="6.3839">
        <ele>555.5</ele>
        <time>2026-02-22T09:31:38Z</time>
      </trkpt>
      <trkpt lat="43.6017" lon="6.3839">
        <ele>555.3</ele>
        <time>2026-02-22T09:31:39Z</time>
      </trkpt>
      <trkpt lat="43.60171" lon="6.3839">
        <ele>555.2</ele>
        <time>2026-02-22T09:31:40Z</time>
      </trkpt>
      <trkpt lat="43.60171" lon="6.3839">
        <ele>555.1</ele>
        <time>2026-02-22T09:31:41Z</time>
      </trkpt>
      <trkpt lat="43.60171" lon="6.3839">
        <ele>555.1</ele>
        <time>2026-02-22T09:31:42Z</time>
      </trkpt>
      <trkpt lat="43.60171" lon="6.38391">
        <ele>555</ele>
        <time>2026-02-22T09:31:43Z</time>
      </trkpt>
      <trkpt lat="43.60172" lon="6.38391">
        <ele>555</ele>
        <time>2026-02-22T09:31:44Z</time>
      </trkpt>
      <trkpt lat="43.60172" lon="6.3839">
        <ele>555</ele>
        <time>2026-02-22T09:31:45Z</time>
      </trkpt>
      <trkpt lat="43.60173" lon="6.3839">
        <ele>554.9</ele>
        <time>2026-02-22T09:31:46Z</time>
      </trkpt>
      <trkpt lat="43.60174" lon="6.38389">
        <ele>554.9</ele>
        <time>2026-02-22T09:31:47Z</time>
      </trkpt>
      <trkpt lat="43.60175" lon="6.38389">
        <ele>554.9</ele>
        <time>2026-02-22T09:31:48Z</time>
      </trkpt>
      <trkpt lat="43.60175" lon="6.38389">
        <ele>554.8</ele>
        <time>2026-02-22T09:31:49Z</time>
      </trkpt>
      <trkpt lat="43.60176" lon="6.38388">
        <ele>554.8</ele>
        <time>2026-02-22T09:31:50Z</time>
      </trkpt>
      <trkpt lat="43.60176" lon="6.38388">
        <ele>554.7</ele>
        <time>2026-02-22T09:31:51Z</time>
      </trkpt>
      <trkpt lat="43.60177" lon="6.38387">
        <ele>554.6</ele>
        <time>2026-02-22T09:31:52Z</time>
      </trkpt>
      <trkpt lat="43.60177" lon="6.38387">
        <ele>554.6</ele>
        <time>2026-02-22T09:31:53Z</time>
      </trkpt>
      <trkpt lat="43.60178" lon="6.38386">
        <ele>554.5</ele>
        <time>2026-02-22T09:31:54Z</time>
      </trkpt>
      <trkpt lat="43.60179" lon="6.38385">
        <ele>554.4</ele>
        <time>2026-02-22T09:31:55Z</time>
      </trkpt>
      <trkpt lat="43.60179" lon="6.38385">
        <ele>554.3</ele>
        <time>2026-02-22T09:31:56Z</time>
      </trkpt>
      <trkpt lat="43.6018" lon="6.38384">
        <ele>554.2</ele>
        <time>2026-02-22T09:31:57Z</time>
      </trkpt>
      <trkpt lat="43.6018" lon="6.38384">
        <ele>554</ele>
        <time>2026-02-22T09:31:58Z</time>
      </trkpt>
      <trkpt lat="43.60181" lon="6.38384">
        <ele>553.8</ele>
        <time>2026-02-22T09:31:59Z</time>
      </trkpt>
      <trkpt lat="43.60182" lon="6.38384">
        <ele>553.7</ele>
        <time>2026-02-22T09:32:00Z</time>
      </trkpt>
      <trkpt lat="43.60182" lon="6.38383">
        <ele>553.6</ele>
        <time>2026-02-22T09:32:01Z</time>
      </trkpt>
      <trkpt lat="43.60182" lon="6.38382">
        <ele>553.5</ele>
        <time>2026-02-22T09:32:02Z</time>
      </trkpt>
      <trkpt lat="43.60182" lon="6.38382">
        <ele>553.4</ele>
        <time>2026-02-22T09:32:03Z</time>
      </trkpt>
      <trkpt lat="43.60182" lon="6.38382">
        <ele>553.3</ele>
        <time>2026-02-22T09:32:04Z</time>
      </trkpt>
      <trkpt lat="43.60182" lon="6.38381">
        <ele>553.2</ele>
        <time>2026-02-22T09:32:05Z</time>
      </trkpt>
      <trkpt lat="43.60183" lon="6.38381">
        <ele>553.1</ele>
        <time>2026-02-22T09:32:06Z</time>
      </trkpt>
      <trkpt lat="43.60183" lon="6.38381">
        <ele>552.9</ele>
        <time>2026-02-22T09:32:07Z</time>
      </trkpt>
      <trkpt lat="43.60183" lon="6.38381">
        <ele>552.8</ele>
        <time>2026-02-22T09:32:08Z</time>
      </trkpt>
      <trkpt lat="43.60184" lon="6.38381">
        <ele>552.7</ele>
        <time>2026-02-22T09:32:09Z</time>
      </trkpt>
      <trkpt lat="43.60183" lon="6.38381">
        <ele>552.6</ele>
        <time>2026-02-22T09:32:10Z</time>
      </trkpt>
      <trkpt lat="43.60183" lon="6.38381">
        <ele>552.5</ele>
        <time>2026-02-22T09:32:11Z</time>
      </trkpt>
      <trkpt lat="43.60184" lon="6.38381">
        <ele>552.5</ele>
        <time>2026-02-22T09:32:12Z</time>
      </trkpt>
      <trkpt lat="43.60186" lon="6.3838">
        <ele>552.5</ele>
        <time>2026-02-22T09:32:13Z</time>
      </trkpt>
      <trkpt lat="43.60186" lon="6.3838">
        <ele>552.4</ele>
        <time>2026-02-22T09:32:14Z</time>
      </trkpt>
      <trkpt lat="43.60187" lon="6.3838">
        <ele>552.3</ele>
        <time>2026-02-22T09:32:15Z</time>
      </trkpt>
      <trkpt lat="43.60187" lon="6.38379">
        <ele>552.3</ele>
        <time>2026-02-22T09:32:16Z</time>
      </trkpt>
      <trkpt lat="43.60187" lon="6.38379">
        <ele>552.2</ele>
        <time>2026-02-22T09:32:17Z</time>
      </trkpt>
      <trkpt lat="43.60187" lon="6.38378">
        <ele>552.2</ele>
        <time>2026-02-22T09:32:18Z</time>
      </trkpt>
      <trkpt lat="43.60188" lon="6.38378">
        <ele>552.1</ele>
        <time>2026-02-22T09:32:19Z</time>
      </trkpt>
      <trkpt lat="43.60188" lon="6.38378">
        <ele>552</ele>
        <time>2026-02-22T09:32:20Z</time>
      </trkpt>
      <trkpt lat="43.60188" lon="6.38377">
        <ele>552</ele>
        <time>2026-02-22T09:32:21Z</time>
      </trkpt>
      <trkpt lat="43.60189" lon="6.38377">
        <ele>551.9</ele>
        <time>2026-02-22T09:32:22Z</time>
      </trkpt>
      <trkpt lat="43.60189" lon="6.38376">
        <ele>551.8</ele>
        <time>2026-02-22T09:32:23Z</time>
      </trkpt>
      <trkpt lat="43.60188" lon="6.38376">
        <ele>551.7</ele>
        <time>2026-02-22T09:32:24Z</time>
      </trkpt>
      <trkpt lat="43.60189" lon="6.38376">
        <ele>551.6</ele>
        <time>2026-02-22T09:32:25Z</time>
      </trkpt>
      <trkpt lat="43.60189" lon="6.38376">
        <ele>551.5</ele>
        <time>2026-02-22T09:32:26Z</time>
      </trkpt>
      <trkpt lat="43.6019" lon="6.38376">
        <ele>551.4</ele>
        <time>2026-02-22T09:32:27Z</time>
      </trkpt>
      <trkpt lat="43.60191" lon="6.38376">
        <ele>551.4</ele>
        <time>2026-02-22T09:32:28Z</time>
      </trkpt>
      <trkpt lat="43.60192" lon="6.38376">
        <ele>551.3</ele>
        <time>2026-02-22T09:32:29Z</time>
      </trkpt>
      <trkpt lat="43.60192" lon="6.38376">
        <ele>551.2</ele>
        <time>2026-02-22T09:32:30Z</time>
      </trkpt>
      <trkpt lat="43.60194" lon="6.38375">
        <ele>551.1</ele>
        <time>2026-02-22T09:32:31Z</time>
      </trkpt>
      <trkpt lat="43.60194" lon="6.38375">
        <ele>551</ele>
        <time>2026-02-22T09:32:32Z</time>
      </trkpt>
      <trkpt lat="43.60194" lon="6.38375">
        <ele>550.9</ele>
        <time>2026-02-22T09:32:33Z</time>
      </trkpt>
      <trkpt lat="43.60194" lon="6.38375">
        <ele>550.8</ele>
        <time>2026-02-22T09:32:34Z</time>
      </trkpt>
      <trkpt lat="43.60195" lon="6.38375">
        <ele>550.8</ele>
        <time>2026-02-22T09:32:35Z</time>
      </trkpt>
      <trkpt lat="43.60195" lon="6.38375">
        <ele>550.7</ele>
        <time>2026-02-22T09:32:36Z</time>
      </trkpt>
      <trkpt lat="43.60195" lon="6.38374">
        <ele>550.6</ele>
        <time>2026-02-22T09:32:37Z</time>
      </trkpt>
      <trkpt lat="43.60195" lon="6.38374">
        <ele>550.5</ele>
        <time>2026-02-22T09:32:38Z</time>
      </trkpt>
      <trkpt lat="43.60195" lon="6.38374">
        <ele>550.4</ele>
        <time>2026-02-22T09:32:39Z</time>
      </trkpt>
      <trkpt lat="43.60195" lon="6.38374">
        <ele>550.3</ele>
        <time>2026-02-22T09:32:40Z</time>
      </trkpt>
      <trkpt lat="43.60195" lon="6.38372">
        <ele>550.2</ele>
        <time>2026-02-22T09:32:41Z</time>
      </trkpt>
      <trkpt lat="43.60196" lon="6.38371">
        <ele>550.2</ele>
        <time>2026-02-22T09:32:42Z</time>
      </trkpt>
      <trkpt lat="43.60196" lon="6.3837">
        <ele>550.1</ele>
        <time>2026-02-22T09:32:43Z</time>
      </trkpt>
      <trkpt lat="43.60197" lon="6.38369">
        <ele>550.1</ele>
        <time>2026-02-22T09:32:44Z</time>
      </trkpt>
      <trkpt lat="43.60197" lon="6.38368">
        <ele>550.1</ele>
        <time>2026-02-22T09:32:45Z</time>
      </trkpt>
      <trkpt lat="43.60197" lon="6.38367">
        <ele>550</ele>
        <time>2026-02-22T09:32:46Z</time>
      </trkpt>
      <trkpt lat="43.60197" lon="6.38367">
        <ele>549.9</ele>
        <time>2026-02-22T09:32:47Z</time>
      </trkpt>
      <trkpt lat="43.60197" lon="6.38366">
        <ele>549.8</ele>
        <time>2026-02-22T09:32:48Z</time>
      </trkpt>
      <trkpt lat="43.60197" lon="6.38366">
        <ele>549.8</ele>
        <time>2026-02-22T09:32:49Z</time>
      </trkpt>
      <trkpt lat="43.60198" lon="6.38367">
        <ele>549.8</ele>
        <time>2026-02-22T09:32:50Z</time>
      </trkpt>
      <trkpt lat="43.60198" lon="6.38367">
        <ele>549.8</ele>
        <time>2026-02-22T09:32:51Z</time>
      </trkpt>
      <trkpt lat="43.60199" lon="6.38367">
        <ele>549.7</ele>
        <time>2026-02-22T09:32:52Z</time>
      </trkpt>
      <trkpt lat="43.60199" lon="6.38368">
        <ele>549.7</ele>
        <time>2026-02-22T09:32:53Z</time>
      </trkpt>
      <trkpt lat="43.602" lon="6.38368">
        <ele>549.7</ele>
        <time>2026-02-22T09:32:54Z</time>
      </trkpt>
      <trkpt lat="43.60201" lon="6.38368">
        <ele>549.5</ele>
        <time>2026-02-22T09:32:55Z</time>
      </trkpt>
      <trkpt lat="43.60201" lon="6.38368">
        <ele>549.5</ele>
        <time>2026-02-22T09:32:56Z</time>
      </trkpt>
      <trkpt lat="43.60202" lon="6.38368">
        <ele>549.4</ele>
        <time>2026-02-22T09:32:57Z</time>
      </trkpt>
      <trkpt lat="43.60203" lon="6.38369">
        <ele>549.3</ele>
        <time>2026-02-22T09:32:58Z</time>
      </trkpt>
      <trkpt lat="43.60204" lon="6.38369">
        <ele>549.2</ele>
        <time>2026-02-22T09:32:59Z</time>
      </trkpt>
      <trkpt lat="43.60206" lon="6.38369">
        <ele>549.1</ele>
        <time>2026-02-22T09:33:00Z</time>
      </trkpt>
      <trkpt lat="43.60207" lon="6.38368">
        <ele>549.1</ele>
        <time>2026-02-22T09:33:01Z</time>
      </trkpt>
      <trkpt lat="43.60208" lon="6.38368">
        <ele>549</ele>
        <time>2026-02-22T09:33:02Z</time>
      </trkpt>
      <trkpt lat="43.60208" lon="6.38369">
        <ele>548.9</ele>
        <time>2026-02-22T09:33:03Z</time>
      </trkpt>
      <trkpt lat="43.60209" lon="6.38369">
        <ele>548.9</ele>
        <time>2026-02-22T09:33:04Z</time>
      </trkpt>
      <trkpt lat="43.60209" lon="6.38369">
        <ele>548.7</ele>
        <time>2026-02-22T09:33:05Z</time>
      </trkpt>
      <trkpt lat="43.60209" lon="6.38369">
        <ele>548.6</ele>
        <time>2026-02-22T09:33:06Z</time>
      </trkpt>
      <trkpt lat="43.6021" lon="6.38369">
        <ele>548.5</ele>
        <time>2026-02-22T09:33:07Z</time>
      </trkpt>
      <trkpt lat="43.6021" lon="6.3837">
        <ele>548.4</ele>
        <time>2026-02-22T09:33:08Z</time>
      </trkpt>
      <trkpt lat="43.6021" lon="6.3837">
        <ele>548.3</ele>
        <time>2026-02-22T09:33:09Z</time>
      </trkpt>
      <trkpt lat="43.60211" lon="6.3837">
        <ele>548.2</ele>
        <time>2026-02-22T09:33:10Z</time>
      </trkpt>
      <trkpt lat="43.60211" lon="6.3837">
        <ele>548.2</ele>
        <time>2026-02-22T09:33:11Z</time>
      </trkpt>
      <trkpt lat="43.60211" lon="6.38371">
        <ele>548.1</ele>
        <time>2026-02-22T09:33:12Z</time>
      </trkpt>
      <trkpt lat="43.60211" lon="6.3837">
        <ele>548.1</ele>
        <time>2026-02-22T09:33:13Z</time>
      </trkpt>
      <trkpt lat="43.60211" lon="6.3837">
        <ele>547.9</ele>
        <time>2026-02-22T09:33:14Z</time>
      </trkpt>
      <trkpt lat="43.60211" lon="6.3837">
        <ele>547.7</ele>
        <time>2026-02-22T09:33:15Z</time>
      </trkpt>
      <trkpt lat="43.60212" lon="6.3837">
        <ele>547.6</ele>
        <time>2026-02-22T09:33:16Z</time>
      </trkpt>
      <trkpt lat="43.60213" lon="6.3837">
        <ele>547.6</ele>
        <time>2026-02-22T09:33:17Z</time>
      </trkpt>
      <trkpt lat="43.60214" lon="6.3837">
        <ele>547.5</ele>
        <time>2026-02-22T09:33:18Z</time>
      </trkpt>
      <trkpt lat="43.60215" lon="6.38369">
        <ele>547.5</ele>
        <time>2026-02-22T09:33:19Z</time>
      </trkpt>
      <trkpt lat="43.60216" lon="6.38368">
        <ele>547.4</ele>
        <time>2026-02-22T09:33:20Z</time>
      </trkpt>
      <trkpt lat="43.60216" lon="6.38368">
        <ele>547.2</ele>
        <time>2026-02-22T09:33:21Z</time>
      </trkpt>
      <trkpt lat="43.60217" lon="6.38368">
        <ele>547.2</ele>
        <time>2026-02-22T09:33:22Z</time>
      </trkpt>
      <trkpt lat="43.60217" lon="6.38369">
        <ele>547.2</ele>
        <time>2026-02-22T09:33:23Z</time>
      </trkpt>
      <trkpt lat="43.60218" lon="6.38369">
        <ele>547.1</ele>
        <time>2026-02-22T09:33:24Z</time>
      </trkpt>
      <trkpt lat="43.60219" lon="6.38369">
        <ele>547.2</ele>
        <time>2026-02-22T09:33:25Z</time>
      </trkpt>
      <trkpt lat="43.60219" lon="6.3837">
        <ele>547.1</ele>
        <time>2026-02-22T09:33:26Z</time>
      </trkpt>
      <trkpt lat="43.6022" lon="6.3837">
        <ele>547.1</ele>
        <time>2026-02-22T09:33:27Z</time>
      </trkpt>
      <trkpt lat="43.6022" lon="6.3837">
        <ele>547</ele>
        <time>2026-02-22T09:33:28Z</time>
      </trkpt>
      <trkpt lat="43.6022" lon="6.38369">
        <ele>547</ele>
        <time>2026-02-22T09:33:29Z</time>
      </trkpt>
      <trkpt lat="43.6022" lon="6.38368">
        <ele>546.9</ele>
        <time>2026-02-22T09:33:30Z</time>
      </trkpt>
      <trkpt lat="43.6022" lon="6.38367">
        <ele>546.8</ele>
        <time>2026-02-22T09:33:31Z</time>
      </trkpt>
      <trkpt lat="43.6022" lon="6.38367">
        <ele>546.7</ele>
        <time>2026-02-22T09:33:32Z</time>
      </trkpt>
      <trkpt lat="43.60221" lon="6.38367">
        <ele>546.7</ele>
        <time>2026-02-22T09:33:33Z</time>
      </trkpt>
      <trkpt lat="43.60221" lon="6.38366">
        <ele>546.7</ele>
        <time>2026-02-22T09:33:34Z</time>
      </trkpt>
      <trkpt lat="43.60222" lon="6.38366">
        <ele>546.7</ele>
        <time>2026-02-22T09:33:35Z</time>
      </trkpt>
      <trkpt lat="43.60222" lon="6.38365">
        <ele>546.6</ele>
        <time>2026-02-22T09:33:36Z</time>
      </trkpt>
      <trkpt lat="43.60222" lon="6.38364">
        <ele>546.5</ele>
        <time>2026-02-22T09:33:37Z</time>
      </trkpt>
      <trkpt lat="43.60222" lon="6.38364">
        <ele>546.5</ele>
        <time>2026-02-22T09:33:38Z</time>
      </trkpt>
      <trkpt lat="43.60223" lon="6.38363">
        <ele>546.4</ele>
        <time>2026-02-22T09:33:39Z</time>
      </trkpt>
      <trkpt lat="43.60223" lon="6.38363">
        <ele>546.4</ele>
        <time>2026-02-22T09:33:40Z</time>
      </trkpt>
      <trkpt lat="43.60224" lon="6.38362">
        <ele>546.3</ele>
        <time>2026-02-22T09:33:41Z</time>
      </trkpt>
      <trkpt lat="43.60224" lon="6.38362">
        <ele>546.2</ele>
        <time>2026-02-22T09:33:42Z</time>
      </trkpt>
      <trkpt lat="43.60224" lon="6.38361">
        <ele>546.2</ele>
        <time>2026-02-22T09:33:43Z</time>
      </trkpt>
      <trkpt lat="43.60224" lon="6.3836">
        <ele>546.1</ele>
        <time>2026-02-22T09:33:44Z</time>
      </trkpt>
      <trkpt lat="43.60225" lon="6.38359">
        <ele>546</ele>
        <time>2026-02-22T09:33:45Z</time>
      </trkpt>
      <trkpt lat="43.60225" lon="6.38359">
        <ele>545.8</ele>
        <time>2026-02-22T09:33:46Z</time>
      </trkpt>
      <trkpt lat="43.60225" lon="6.38358">
        <ele>545.8</ele>
        <time>2026-02-22T09:33:47Z</time>
      </trkpt>
      <trkpt lat="43.60225" lon="6.38356">
        <ele>545.7</ele>
        <time>2026-02-22T09:33:48Z</time>
      </trkpt>
      <trkpt lat="43.60224" lon="6.38355">
        <ele>545.5</ele>
        <time>2026-02-22T09:33:49Z</time>
      </trkpt>
      <trkpt lat="43.60224" lon="6.38355">
        <ele>545.4</ele>
        <time>2026-02-22T09:33:50Z</time>
      </trkpt>
      <trkpt lat="43.60224" lon="6.38353">
        <ele>545.3</ele>
        <time>2026-02-22T09:33:51Z</time>
      </trkpt>
      <trkpt lat="43.60223" lon="6.38352">
        <ele>545.3</ele>
        <time>2026-02-22T09:33:52Z</time>
      </trkpt>
      <trkpt lat="43.60223" lon="6.38351">
        <ele>545.2</ele>
        <time>2026-02-22T09:33:53Z</time>
      </trkpt>
      <trkpt lat="43.60223" lon="6.3835">
        <ele>545.2</ele>
        <time>2026-02-22T09:33:54Z</time>
      </trkpt>
      <trkpt lat="43.60223" lon="6.38349">
        <ele>545.2</ele>
        <time>2026-02-22T09:33:55Z</time>
      </trkpt>
      <trkpt lat="43.60222" lon="6.38349">
        <ele>545.1</ele>
        <time>2026-02-22T09:33:56Z</time>
      </trkpt>
      <trkpt lat="43.60222" lon="6.38348">
        <ele>545.1</ele>
        <time>2026-02-22T09:33:57Z</time>
      </trkpt>
      <trkpt lat="43.60222" lon="6.38348">
        <ele>545.2</ele>
        <time>2026-02-22T09:33:58Z</time>
      </trkpt>
      <trkpt lat="43.60222" lon="6.38348">
        <ele>545.2</ele>
        <time>2026-02-22T09:33:59Z</time>
      </trkpt>
      <trkpt lat="43.60223" lon="6.38348">
        <ele>545.2</ele>
        <time>2026-02-22T09:34:00Z</time>
      </trkpt>
      <trkpt lat="43.60223" lon="6.38348">
        <ele>545.2</ele>
        <time>2026-02-22T09:34:01Z</time>
      </trkpt>
      <trkpt lat="43.60223" lon="6.38348">
        <ele>545.1</ele>
        <time>2026-02-22T09:34:02Z</time>
      </trkpt>
      <trkpt lat="43.60223" lon="6.38348">
        <ele>545</ele>
        <time>2026-02-22T09:34:03Z</time>
      </trkpt>
      <trkpt lat="43.60224" lon="6.38348">
        <ele>544.9</ele>
        <time>2026-02-22T09:34:04Z</time>
      </trkpt>
      <trkpt lat="43.60224" lon="6.38349">
        <ele>544.8</ele>
        <time>2026-02-22T09:34:05Z</time>
      </trkpt>
      <trkpt lat="43.60224" lon="6.38349">
        <ele>544.6</ele>
        <time>2026-02-22T09:34:06Z</time>
      </trkpt>
      <trkpt lat="43.60223" lon="6.38349">
        <ele>544.5</ele>
        <time>2026-02-22T09:34:07Z</time>
      </trkpt>
      <trkpt lat="43.60223" lon="6.38349">
        <ele>544.4</ele>
        <time>2026-02-22T09:34:08Z</time>
      </trkpt>
      <trkpt lat="43.60223" lon="6.38348">
        <ele>544.1</ele>
        <time>2026-02-22T09:34:09Z</time>
      </trkpt>
      <trkpt lat="43.60223" lon="6.38347">
        <ele>543.9</ele>
        <time>2026-02-22T09:34:10Z</time>
      </trkpt>
      <trkpt lat="43.60224" lon="6.38347">
        <ele>543.6</ele>
        <time>2026-02-22T09:34:11Z</time>
      </trkpt>
      <trkpt lat="43.60223" lon="6.38347">
        <ele>543.4</ele>
        <time>2026-02-22T09:34:12Z</time>
      </trkpt>
      <trkpt lat="43.60224" lon="6.38347">
        <ele>543.3</ele>
        <time>2026-02-22T09:34:13Z</time>
      </trkpt>
      <trkpt lat="43.60225" lon="6.38346">
        <ele>543.2</ele>
        <time>2026-02-22T09:34:14Z</time>
      </trkpt>
      <trkpt lat="43.60225" lon="6.38346">
        <ele>543.2</ele>
        <time>2026-02-22T09:34:15Z</time>
      </trkpt>
      <trkpt lat="43.60226" lon="6.38346">
        <ele>543.1</ele>
        <time>2026-02-22T09:34:16Z</time>
      </trkpt>
      <trkpt lat="43.60227" lon="6.38346">
        <ele>543.1</ele>
        <time>2026-02-22T09:34:17Z</time>
      </trkpt>
      <trkpt lat="43.60228" lon="6.38346">
        <ele>543.1</ele>
        <time>2026-02-22T09:34:18Z</time>
      </trkpt>
      <trkpt lat="43.60228" lon="6.38345">
        <ele>543.1</ele>
        <time>2026-02-22T09:34:19Z</time>
      </trkpt>
      <trkpt lat="43.60229" lon="6.38345">
        <ele>543</ele>
        <time>2026-02-22T09:34:20Z</time>
      </trkpt>
      <trkpt lat="43.60229" lon="6.38345">
        <ele>543.1</ele>
        <time>2026-02-22T09:34:21Z</time>
      </trkpt>
      <trkpt lat="43.6023" lon="6.38345">
        <ele>543.1</ele>
        <time>2026-02-22T09:34:22Z</time>
      </trkpt>
      <trkpt lat="43.6023" lon="6.38345">
        <ele>543.2</ele>
        <time>2026-02-22T09:34:23Z</time>
      </trkpt>
      <trkpt lat="43.6023" lon="6.38345">
        <ele>543.1</ele>
        <time>2026-02-22T09:34:24Z</time>
      </trkpt>
      <trkpt lat="43.6023" lon="6.38346">
        <ele>543.1</ele>
        <time>2026-02-22T09:34:25Z</time>
      </trkpt>
      <trkpt lat="43.6023" lon="6.38346">
        <ele>543.1</ele>
        <time>2026-02-22T09:34:26Z</time>
      </trkpt>
      <trkpt lat="43.6023" lon="6.38346">
        <ele>542.9</ele>
        <time>2026-02-22T09:34:27Z</time>
      </trkpt>
      <trkpt lat="43.60231" lon="6.38346">
        <ele>542.9</ele>
        <time>2026-02-22T09:34:28Z</time>
      </trkpt>
      <trkpt lat="43.60231" lon="6.38345">
        <ele>542.8</ele>
        <time>2026-02-22T09:34:29Z</time>
      </trkpt>
      <trkpt lat="43.60231" lon="6.38344">
        <ele>542.8</ele>
        <time>2026-02-22T09:34:30Z</time>
      </trkpt>
      <trkpt lat="43.60231" lon="6.38344">
        <ele>542.8</ele>
        <time>2026-02-22T09:34:31Z</time>
      </trkpt>
      <trkpt lat="43.60231" lon="6.38344">
        <ele>542.7</ele>
        <time>2026-02-22T09:34:32Z</time>
      </trkpt>
      <trkpt lat="43.60231" lon="6.38344">
        <ele>542.7</ele>
        <time>2026-02-22T09:34:33Z</time>
      </trkpt>
      <trkpt lat="43.60231" lon="6.38344">
        <ele>542.6</ele>
        <time>2026-02-22T09:34:34Z</time>
      </trkpt>
      <trkpt lat="43.60231" lon="6.38344">
        <ele>542.6</ele>
        <time>2026-02-22T09:34:35Z</time>
      </trkpt>
      <trkpt lat="43.6023" lon="6.38344">
        <ele>542.6</ele>
        <time>2026-02-22T09:34:36Z</time>
      </trkpt>
      <trkpt lat="43.60231" lon="6.38343">
        <ele>542.5</ele>
        <time>2026-02-22T09:34:37Z</time>
      </trkpt>
      <trkpt lat="43.6023" lon="6.38343">
        <ele>542.4</ele>
        <time>2026-02-22T09:34:38Z</time>
      </trkpt>
      <trkpt lat="43.60231" lon="6.38341">
        <ele>542.3</ele>
        <time>2026-02-22T09:34:39Z</time>
      </trkpt>
      <trkpt lat="43.60231" lon="6.38341">
        <ele>542.3</ele>
        <time>2026-02-22T09:34:40Z</time>
      </trkpt>
      <trkpt lat="43.60231" lon="6.38341">
        <ele>542.4</ele>
        <time>2026-02-22T09:34:41Z</time>
      </trkpt>
      <trkpt lat="43.60231" lon="6.38342">
        <ele>542.3</ele>
        <time>2026-02-22T09:34:42Z</time>
      </trkpt>
      <trkpt lat="43.60231" lon="6.38341">
        <ele>542.3</ele>
        <time>2026-02-22T09:34:43Z</time>
      </trkpt>
      <trkpt lat="43.60231" lon="6.38341">
        <ele>542.2</ele>
        <time>2026-02-22T09:34:44Z</time>
      </trkpt>
      <trkpt lat="43.60231" lon="6.3834">
        <ele>542.3</ele>
        <time>2026-02-22T09:34:45Z</time>
      </trkpt>
      <trkpt lat="43.6023" lon="6.3834">
        <ele>542.4</ele>
        <time>2026-02-22T09:34:46Z</time>
      </trkpt>
      <trkpt lat="43.60231" lon="6.38339">
        <ele>542.3</ele>
        <time>2026-02-22T09:34:47Z</time>
      </trkpt>
      <trkpt lat="43.60231" lon="6.38339">
        <ele>542.3</ele>
        <time>2026-02-22T09:34:48Z</time>
      </trkpt>
      <trkpt lat="43.6023" lon="6.38339">
        <ele>542.3</ele>
        <time>2026-02-22T09:34:49Z</time>
      </trkpt>
      <trkpt lat="43.6023" lon="6.38339">
        <ele>542.2</ele>
        <time>2026-02-22T09:34:50Z</time>
      </trkpt>
      <trkpt lat="43.6023" lon="6.38338">
        <ele>542.1</ele>
        <time>2026-02-22T09:34:51Z</time>
      </trkpt>
      <trkpt lat="43.60231" lon="6.38337">
        <ele>542</ele>
        <time>2026-02-22T09:34:52Z</time>
      </trkpt>
      <trkpt lat="43.60231" lon="6.38336">
        <ele>541.9</ele>
        <time>2026-02-22T09:34:53Z</time>
      </trkpt>
      <trkpt lat="43.60232" lon="6.38336">
        <ele>541.9</ele>
        <time>2026-02-22T09:34:54Z</time>
      </trkpt>
      <trkpt lat="43.60232" lon="6.38335">
        <ele>541.8</ele>
        <time>2026-02-22T09:34:55Z</time>
      </trkpt>
      <trkpt lat="43.60232" lon="6.38334">
        <ele>541.8</ele>
        <time>2026-02-22T09:34:56Z</time>
      </trkpt>
      <trkpt lat="43.60231" lon="6.38334">
        <ele>541.8</ele>
        <time>2026-02-22T09:34:57Z</time>
      </trkpt>
      <trkpt lat="43.60231" lon="6.38334">
        <ele>541.7</ele>
        <time>2026-02-22T09:34:58Z</time>
      </trkpt>
      <trkpt lat="43.60231" lon="6.38334">
        <ele>541.8</ele>
        <time>2026-02-22T09:34:59Z</time>
      </trkpt>
      <trkpt lat="43.60231" lon="6.38334">
        <ele>541.8</ele>
        <time>2026-02-22T09:35:00Z</time>
      </trkpt>
      <trkpt lat="43.60231" lon="6.38333">
        <ele>541.8</ele>
        <time>2026-02-22T09:35:01Z</time>
      </trkpt>
      <trkpt lat="43.60232" lon="6.38332">
        <ele>541.7</ele>
        <time>2026-02-22T09:35:02Z</time>
      </trkpt>
      <trkpt lat="43.60232" lon="6.38331">
        <ele>541.7</ele>
        <time>2026-02-22T09:35:03Z</time>
      </trkpt>
      <trkpt lat="43.60233" lon="6.38331">
        <ele>541.6</ele>
        <time>2026-02-22T09:35:04Z</time>
      </trkpt>
      <trkpt lat="43.60233" lon="6.3833">
        <ele>541.5</ele>
        <time>2026-02-22T09:35:05Z</time>
      </trkpt>
      <trkpt lat="43.60233" lon="6.3833">
        <ele>541.4</ele>
        <time>2026-02-22T09:35:06Z</time>
      </trkpt>
      <trkpt lat="43.60232" lon="6.38329">
        <ele>541.3</ele>
        <time>2026-02-22T09:35:07Z</time>
      </trkpt>
      <trkpt lat="43.60233" lon="6.38329">
        <ele>541.3</ele>
        <time>2026-02-22T09:35:08Z</time>
      </trkpt>
      <trkpt lat="43.60233" lon="6.38328">
        <ele>541.2</ele>
        <time>2026-02-22T09:35:09Z</time>
      </trkpt>
      <trkpt lat="43.60233" lon="6.38328">
        <ele>541.1</ele>
        <time>2026-02-22T09:35:10Z</time>
      </trkpt>
      <trkpt lat="43.60234" lon="6.38327">
        <ele>541.1</ele>
        <time>2026-02-22T09:35:11Z</time>
      </trkpt>
      <trkpt lat="43.60235" lon="6.38326">
        <ele>541.1</ele>
        <time>2026-02-22T09:35:12Z</time>
      </trkpt>
      <trkpt lat="43.60235" lon="6.38326">
        <ele>541</ele>
        <time>2026-02-22T09:35:13Z</time>
      </trkpt>
      <trkpt lat="43.60235" lon="6.38325">
        <ele>540.9</ele>
        <time>2026-02-22T09:35:14Z</time>
      </trkpt>
      <trkpt lat="43.60236" lon="6.38325">
        <ele>540.7</ele>
        <time>2026-02-22T09:35:15Z</time>
      </trkpt>
      <trkpt lat="43.60235" lon="6.38324">
        <ele>540.6</ele>
        <time>2026-02-22T09:35:16Z</time>
      </trkpt>
      <trkpt lat="43.60235" lon="6.38324">
        <ele>540.4</ele>
        <time>2026-02-22T09:35:17Z</time>
      </trkpt>
      <trkpt lat="43.60236" lon="6.38323">
        <ele>540.2</ele>
        <time>2026-02-22T09:35:18Z</time>
      </trkpt>
      <trkpt lat="43.60236" lon="6.38323">
        <ele>539.9</ele>
        <time>2026-02-22T09:35:19Z</time>
      </trkpt>
      <trkpt lat="43.60236" lon="6.38322">
        <ele>539.7</ele>
        <time>2026-02-22T09:35:20Z</time>
      </trkpt>
      <trkpt lat="43.60236" lon="6.38322">
        <ele>539.6</ele>
        <time>2026-02-22T09:35:21Z</time>
      </trkpt>
      <trkpt lat="43.60237" lon="6.38321">
        <ele>539.5</ele>
        <time>2026-02-22T09:35:22Z</time>
      </trkpt>
      <trkpt lat="43.60237" lon="6.3832">
        <ele>539.4</ele>
        <time>2026-02-22T09:35:23Z</time>
      </trkpt>
      <trkpt lat="43.60237" lon="6.3832">
        <ele>539.3</ele>
        <time>2026-02-22T09:35:24Z</time>
      </trkpt>
      <trkpt lat="43.60237" lon="6.38319">
        <ele>539.3</ele>
        <time>2026-02-22T09:35:25Z</time>
      </trkpt>
      <trkpt lat="43.60237" lon="6.38319">
        <ele>539.1</ele>
        <time>2026-02-22T09:35:26Z</time>
      </trkpt>
      <trkpt lat="43.60238" lon="6.38319">
        <ele>539</ele>
        <time>2026-02-22T09:35:27Z</time>
      </trkpt>
      <trkpt lat="43.60238" lon="6.38318">
        <ele>538.7</ele>
        <time>2026-02-22T09:35:28Z</time>
      </trkpt>
      <trkpt lat="43.60238" lon="6.38317">
        <ele>538.6</ele>
        <time>2026-02-22T09:35:29Z</time>
      </trkpt>
      <trkpt lat="43.60237" lon="6.38316">
        <ele>538.4</ele>
        <time>2026-02-22T09:35:30Z</time>
      </trkpt>
      <trkpt lat="43.60235" lon="6.38315">
        <ele>538.3</ele>
        <time>2026-02-22T09:35:31Z</time>
      </trkpt>
      <trkpt lat="43.60234" lon="6.38314">
        <ele>538.2</ele>
        <time>2026-02-22T09:35:32Z</time>
      </trkpt>
      <trkpt lat="43.60233" lon="6.38314">
        <ele>538.1</ele>
        <time>2026-02-22T09:35:33Z</time>
      </trkpt>
      <trkpt lat="43.60233" lon="6.38313">
        <ele>538</ele>
        <time>2026-02-22T09:35:34Z</time>
      </trkpt>
      <trkpt lat="43.60233" lon="6.38313">
        <ele>537.9</ele>
        <time>2026-02-22T09:35:35Z</time>
      </trkpt>
      <trkpt lat="43.60233" lon="6.38313">
        <ele>537.9</ele>
        <time>2026-02-22T09:35:36Z</time>
      </trkpt>
      <trkpt lat="43.60233" lon="6.38312">
        <ele>537.9</ele>
        <time>2026-02-22T09:35:37Z</time>
      </trkpt>
      <trkpt lat="43.60235" lon="6.38311">
        <ele>537.9</ele>
        <time>2026-02-22T09:35:38Z</time>
      </trkpt>
      <trkpt lat="43.60235" lon="6.38311">
        <ele>537.9</ele>
        <time>2026-02-22T09:35:39Z</time>
      </trkpt>
      <trkpt lat="43.60235" lon="6.38311">
        <ele>537.9</ele>
        <time>2026-02-22T09:35:40Z</time>
      </trkpt>
      <trkpt lat="43.60235" lon="6.3831">
        <ele>537.9</ele>
        <time>2026-02-22T09:35:41Z</time>
      </trkpt>
      <trkpt lat="43.60235" lon="6.3831">
        <ele>537.9</ele>
        <time>2026-02-22T09:35:42Z</time>
      </trkpt>
      <trkpt lat="43.60235" lon="6.3831">
        <ele>538</ele>
        <time>2026-02-22T09:35:43Z</time>
      </trkpt>
      <trkpt lat="43.60235" lon="6.3831">
        <ele>538</ele>
        <time>2026-02-22T09:35:44Z</time>
      </trkpt>
      <trkpt lat="43.60235" lon="6.3831">
        <ele>537.9</ele>
        <time>2026-02-22T09:35:45Z</time>
      </trkpt>
      <trkpt lat="43.60235" lon="6.3831">
        <ele>537.9</ele>
        <time>2026-02-22T09:35:46Z</time>
      </trkpt>
      <trkpt lat="43.60235" lon="6.3831">
        <ele>537.9</ele>
        <time>2026-02-22T09:35:47Z</time>
      </trkpt>
      <trkpt lat="43.60235" lon="6.3831">
        <ele>537.9</ele>
        <time>2026-02-22T09:35:48Z</time>
      </trkpt>
      <trkpt lat="43.60235" lon="6.3831">
        <ele>537.9</ele>
        <time>2026-02-22T09:35:49Z</time>
      </trkpt>
      <trkpt lat="43.60235" lon="6.3831">
        <ele>537.9</ele>
        <time>2026-02-22T09:35:50Z</time>
      </trkpt>
      <trkpt lat="43.60235" lon="6.3831">
        <ele>537.9</ele>
        <time>2026-02-22T09:35:51Z</time>
      </trkpt>
      <trkpt lat="43.60236" lon="6.3831">
        <ele>537.7</ele>
        <time>2026-02-22T09:35:52Z</time>
      </trkpt>
      <trkpt lat="43.60236" lon="6.3831">
        <ele>537.6</ele>
        <time>2026-02-22T09:35:53Z</time>
      </trkpt>
      <trkpt lat="43.60236" lon="6.3831">
        <ele>537.6</ele>
        <time>2026-02-22T09:35:54Z</time>
      </trkpt>
      <trkpt lat="43.60236" lon="6.3831">
        <ele>537.5</ele>
        <time>2026-02-22T09:35:55Z</time>
      </trkpt>
      <trkpt lat="43.60236" lon="6.38309">
        <ele>537.5</ele>
        <time>2026-02-22T09:35:56Z</time>
      </trkpt>
      <trkpt lat="43.60236" lon="6.38309">
        <ele>537.4</ele>
        <time>2026-02-22T09:35:57Z</time>
      </trkpt>
      <trkpt lat="43.60236" lon="6.38309">
        <ele>537.4</ele>
        <time>2026-02-22T09:35:58Z</time>
      </trkpt>
      <trkpt lat="43.60236" lon="6.38309">
        <ele>537.3</ele>
        <time>2026-02-22T09:35:59Z</time>
      </trkpt>
      <trkpt lat="43.60236" lon="6.38309">
        <ele>537.3</ele>
        <time>2026-02-22T09:36:00Z</time>
      </trkpt>
      <trkpt lat="43.60236" lon="6.38309">
        <ele>537.2</ele>
        <time>2026-02-22T09:36:01Z</time>
      </trkpt>
      <trkpt lat="43.60237" lon="6.38309">
        <ele>537.4</ele>
        <time>2026-02-22T09:36:02Z</time>
      </trkpt>
      <trkpt lat="43.60237" lon="6.38309">
        <ele>537.5</ele>
        <time>2026-02-22T09:36:03Z</time>
      </trkpt>
      <trkpt lat="43.60237" lon="6.38309">
        <ele>537.5</ele>
        <time>2026-02-22T09:36:04Z</time>
      </trkpt>
      <trkpt lat="43.60237" lon="6.38309">
        <ele>537.4</ele>
        <time>2026-02-22T09:36:05Z</time>
      </trkpt>
      <trkpt lat="43.60237" lon="6.38309">
        <ele>537.4</ele>
        <time>2026-02-22T09:36:06Z</time>
      </trkpt>
      <trkpt lat="43.60237" lon="6.38309">
        <ele>537.5</ele>
        <time>2026-02-22T09:36:07Z</time>
      </trkpt>
      <trkpt lat="43.60237" lon="6.38309">
        <ele>537.5</ele>
        <time>2026-02-22T09:36:08Z</time>
      </trkpt>
      <trkpt lat="43.60237" lon="6.38309">
        <ele>537.4</ele>
        <time>2026-02-22T09:36:09Z</time>
      </trkpt>
      <trkpt lat="43.60237" lon="6.38309">
        <ele>537.4</ele>
        <time>2026-02-22T09:36:10Z</time>
      </trkpt>
      <trkpt lat="43.60237" lon="6.38309">
        <ele>537.4</ele>
        <time>2026-02-22T09:36:11Z</time>
      </trkpt>
      <trkpt lat="43.60237" lon="6.38309">
        <ele>537.3</ele>
        <time>2026-02-22T09:36:12Z</time>
      </trkpt>
      <trkpt lat="43.60237" lon="6.38309">
        <ele>537.4</ele>
        <time>2026-02-22T09:36:13Z</time>
      </trkpt>
      <trkpt lat="43.60237" lon="6.38309">
        <ele>537.4</ele>
        <time>2026-02-22T09:36:14Z</time>
      </trkpt>
      <trkpt lat="43.60237" lon="6.38309">
        <ele>537.5</ele>
        <time>2026-02-22T09:36:15Z</time>
      </trkpt>
      <trkpt lat="43.60237" lon="6.38308">
        <ele>537.5</ele>
        <time>2026-02-22T09:36:16Z</time>
      </trkpt>
      <trkpt lat="43.60237" lon="6.38308">
        <ele>537.5</ele>
        <time>2026-02-22T09:36:17Z</time>
      </trkpt>
      <trkpt lat="43.60237" lon="6.38309">
        <ele>537.6</ele>
        <time>2026-02-22T09:36:18Z</time>
      </trkpt>
      <trkpt lat="43.60237" lon="6.38308">
        <ele>537.5</ele>
        <time>2026-02-22T09:36:19Z</time>
      </trkpt>
      <trkpt lat="43.60237" lon="6.38309">
        <ele>537.5</ele>
        <time>2026-02-22T09:36:20Z</time>
      </trkpt>
      <trkpt lat="43.60237" lon="6.38309">
        <ele>537.5</ele>
        <time>2026-02-22T09:36:21Z</time>
      </trkpt>
      <trkpt lat="43.60237" lon="6.38309">
        <ele>537.5</ele>
        <time>2026-02-22T09:36:22Z</time>
      </trkpt>
      <trkpt lat="43.60237" lon="6.38308">
        <ele>537.6</ele>
        <time>2026-02-22T09:36:23Z</time>
      </trkpt>
      <trkpt lat="43.60237" lon="6.38308">
        <ele>537.6</ele>
        <time>2026-02-22T09:36:24Z</time>
      </trkpt>
      <trkpt lat="43.60237" lon="6.38308">
        <ele>537.6</ele>
        <time>2026-02-22T09:36:25Z</time>
      </trkpt>
      <trkpt lat="43.60237" lon="6.38308">
        <ele>537.6</ele>
        <time>2026-02-22T09:36:26Z</time>
      </trkpt>
      <trkpt lat="43.60237" lon="6.38308">
        <ele>537.5</ele>
        <time>2026-02-22T09:36:27Z</time>
      </trkpt>
      <trkpt lat="43.60237" lon="6.38308">
        <ele>537.5</ele>
        <time>2026-02-22T09:36:28Z</time>
      </trkpt>
      <trkpt lat="43.60237" lon="6.38308">
        <ele>537.4</ele>
        <time>2026-02-22T09:36:29Z</time>
      </trkpt>
      <trkpt lat="43.60237" lon="6.38308">
        <ele>537.4</ele>
        <time>2026-02-22T09:36:30Z</time>
      </trkpt>
      <trkpt lat="43.60237" lon="6.38308">
        <ele>537.4</ele>
        <time>2026-02-22T09:36:31Z</time>
      </trkpt>
      <trkpt lat="43.60237" lon="6.38308">
        <ele>537.3</ele>
        <time>2026-02-22T09:36:32Z</time>
      </trkpt>
      <trkpt lat="43.60237" lon="6.38308">
        <ele>537.3</ele>
        <time>2026-02-22T09:36:33Z</time>
      </trkpt>
      <trkpt lat="43.60237" lon="6.38308">
        <ele>537.3</ele>
        <time>2026-02-22T09:36:34Z</time>
      </trkpt>
      <trkpt lat="43.60237" lon="6.38308">
        <ele>537.3</ele>
        <time>2026-02-22T09:36:35Z</time>
      </trkpt>
      <trkpt lat="43.60237" lon="6.38308">
        <ele>537.3</ele>
        <time>2026-02-22T09:36:36Z</time>
      </trkpt>
      <trkpt lat="43.60237" lon="6.38308">
        <ele>537.3</ele>
        <time>2026-02-22T09:36:37Z</time>
      </trkpt>
      <trkpt lat="43.60238" lon="6.38308">
        <ele>537.3</ele>
        <time>2026-02-22T09:36:38Z</time>
      </trkpt>
      <trkpt lat="43.60238" lon="6.38308">
        <ele>537.3</ele>
        <time>2026-02-22T09:36:39Z</time>
      </trkpt>
      <trkpt lat="43.60238" lon="6.38308">
        <ele>537.3</ele>
        <time>2026-02-22T09:36:40Z</time>
      </trkpt>
      <trkpt lat="43.60238" lon="6.38308">
        <ele>537.2</ele>
        <time>2026-02-22T09:36:41Z</time>
      </trkpt>
      <trkpt lat="43.60238" lon="6.38308">
        <ele>537.2</ele>
        <time>2026-02-22T09:36:42Z</time>
      </trkpt>
      <trkpt lat="43.60238" lon="6.38308">
        <ele>537.2</ele>
        <time>2026-02-22T09:36:43Z</time>
      </trkpt>
      <trkpt lat="43.60238" lon="6.38308">
        <ele>537.2</ele>
        <time>2026-02-22T09:36:44Z</time>
      </trkpt>
      <trkpt lat="43.60238" lon="6.38308">
        <ele>537.2</ele>
        <time>2026-02-22T09:36:45Z</time>
      </trkpt>
      <trkpt lat="43.60238" lon="6.38308">
        <ele>537.2</ele>
        <time>2026-02-22T09:36:46Z</time>
      </trkpt>
      <trkpt lat="43.60238" lon="6.38308">
        <ele>537.3</ele>
        <time>2026-02-22T09:36:47Z</time>
      </trkpt>
      <trkpt lat="43.60238" lon="6.38308">
        <ele>537.3</ele>
        <time>2026-02-22T09:36:48Z</time>
      </trkpt>
      <trkpt lat="43.60239" lon="6.38307">
        <ele>537.3</ele>
        <time>2026-02-22T09:36:49Z</time>
      </trkpt>
      <trkpt lat="43.60239" lon="6.38307">
        <ele>537.3</ele>
        <time>2026-02-22T09:36:50Z</time>
      </trkpt>
      <trkpt lat="43.60239" lon="6.38307">
        <ele>537.3</ele>
        <time>2026-02-22T09:36:51Z</time>
      </trkpt>
      <trkpt lat="43.60239" lon="6.38306">
        <ele>537.3</ele>
        <time>2026-02-22T09:36:52Z</time>
      </trkpt>
      <trkpt lat="43.6024" lon="6.38306">
        <ele>537.3</ele>
        <time>2026-02-22T09:36:53Z</time>
      </trkpt>
      <trkpt lat="43.60241" lon="6.38306">
        <ele>537.3</ele>
        <time>2026-02-22T09:36:54Z</time>
      </trkpt>
      <trkpt lat="43.60241" lon="6.38307">
        <ele>537.2</ele>
        <time>2026-02-22T09:36:55Z</time>
      </trkpt>
      <trkpt lat="43.60242" lon="6.38307">
        <ele>537.2</ele>
        <time>2026-02-22T09:36:56Z</time>
      </trkpt>
      <trkpt lat="43.60242" lon="6.38306">
        <ele>537.2</ele>
        <time>2026-02-22T09:36:57Z</time>
      </trkpt>
      <trkpt lat="43.60242" lon="6.38306">
        <ele>537.1</ele>
        <time>2026-02-22T09:36:58Z</time>
      </trkpt>
      <trkpt lat="43.60243" lon="6.38306">
        <ele>537.1</ele>
        <time>2026-02-22T09:36:59Z</time>
      </trkpt>
      <trkpt lat="43.60242" lon="6.38306">
        <ele>536.9</ele>
        <time>2026-02-22T09:37:00Z</time>
      </trkpt>
      <trkpt lat="43.60242" lon="6.38306">
        <ele>537</ele>
        <time>2026-02-22T09:37:01Z</time>
      </trkpt>
      <trkpt lat="43.60243" lon="6.38306">
        <ele>536.9</ele>
        <time>2026-02-22T09:37:02Z</time>
      </trkpt>
      <trkpt lat="43.60243" lon="6.38307">
        <ele>536.6</ele>
        <time>2026-02-22T09:37:03Z</time>
      </trkpt>
      <trkpt lat="43.60244" lon="6.38307">
        <ele>536.3</ele>
        <time>2026-02-22T09:37:04Z</time>
      </trkpt>
      <trkpt lat="43.60244" lon="6.38307">
        <ele>536.2</ele>
        <time>2026-02-22T09:37:05Z</time>
      </trkpt>
      <trkpt lat="43.60244" lon="6.38307">
        <ele>536</ele>
        <time>2026-02-22T09:37:06Z</time>
      </trkpt>
      <trkpt lat="43.60245" lon="6.38308">
        <ele>535.9</ele>
        <time>2026-02-22T09:37:07Z</time>
      </trkpt>
      <trkpt lat="43.60245" lon="6.38308">
        <ele>535.9</ele>
        <time>2026-02-22T09:37:08Z</time>
      </trkpt>
      <trkpt lat="43.60245" lon="6.38308">
        <ele>535.8</ele>
        <time>2026-02-22T09:37:09Z</time>
      </trkpt>
      <trkpt lat="43.60246" lon="6.38309">
        <ele>535.6</ele>
        <time>2026-02-22T09:37:10Z</time>
      </trkpt>
      <trkpt lat="43.60246" lon="6.38309">
        <ele>535.5</ele>
        <time>2026-02-22T09:37:11Z</time>
      </trkpt>
      <trkpt lat="43.60247" lon="6.38309">
        <ele>535.4</ele>
        <time>2026-02-22T09:37:12Z</time>
      </trkpt>
      <trkpt lat="43.60247" lon="6.38309">
        <ele>535.4</ele>
        <time>2026-02-22T09:37:13Z</time>
      </trkpt>
      <trkpt lat="43.60247" lon="6.38309">
        <ele>535.1</ele>
        <time>2026-02-22T09:37:14Z</time>
      </trkpt>
      <trkpt lat="43.60247" lon="6.38309">
        <ele>535</ele>
        <time>2026-02-22T09:37:15Z</time>
      </trkpt>
      <trkpt lat="43.60248" lon="6.38309">
        <ele>535</ele>
        <time>2026-02-22T09:37:16Z</time>
      </trkpt>
      <trkpt lat="43.60248" lon="6.38308">
        <ele>534.9</ele>
        <time>2026-02-22T09:37:17Z</time>
      </trkpt>
      <trkpt lat="43.60248" lon="6.38308">
        <ele>534.9</ele>
        <time>2026-02-22T09:37:18Z</time>
      </trkpt>
      <trkpt lat="43.60248" lon="6.38307">
        <ele>534.8</ele>
        <time>2026-02-22T09:37:19Z</time>
      </trkpt>
      <trkpt lat="43.60249" lon="6.38307">
        <ele>534.8</ele>
        <time>2026-02-22T09:37:20Z</time>
      </trkpt>
      <trkpt lat="43.60249" lon="6.38306">
        <ele>534.7</ele>
        <time>2026-02-22T09:37:21Z</time>
      </trkpt>
      <trkpt lat="43.60249" lon="6.38306">
        <ele>534.6</ele>
        <time>2026-02-22T09:37:22Z</time>
      </trkpt>
      <trkpt lat="43.60249" lon="6.38306">
        <ele>534.6</ele>
        <time>2026-02-22T09:37:23Z</time>
      </trkpt>
      <trkpt lat="43.60249" lon="6.38306">
        <ele>534.7</ele>
        <time>2026-02-22T09:37:24Z</time>
      </trkpt>
      <trkpt lat="43.60249" lon="6.38306">
        <ele>534.6</ele>
        <time>2026-02-22T09:37:25Z</time>
      </trkpt>
      <trkpt lat="43.60249" lon="6.38306">
        <ele>534.6</ele>
        <time>2026-02-22T09:37:26Z</time>
      </trkpt>
      <trkpt lat="43.60249" lon="6.38307">
        <ele>534.6</ele>
        <time>2026-02-22T09:37:27Z</time>
      </trkpt>
      <trkpt lat="43.60249" lon="6.38308">
        <ele>534.6</ele>
        <time>2026-02-22T09:37:28Z</time>
      </trkpt>
      <trkpt lat="43.6025" lon="6.38309">
        <ele>534.6</ele>
        <time>2026-02-22T09:37:29Z</time>
      </trkpt>
      <trkpt lat="43.6025" lon="6.38311">
        <ele>534.6</ele>
        <time>2026-02-22T09:37:30Z</time>
      </trkpt>
      <trkpt lat="43.60251" lon="6.38312">
        <ele>534.7</ele>
        <time>2026-02-22T09:37:31Z</time>
      </trkpt>
      <trkpt lat="43.60251" lon="6.38312">
        <ele>534.7</ele>
        <time>2026-02-22T09:37:32Z</time>
      </trkpt>
      <trkpt lat="43.60251" lon="6.38313">
        <ele>534.6</ele>
        <time>2026-02-22T09:37:33Z</time>
      </trkpt>
      <trkpt lat="43.60252" lon="6.38314">
        <ele>534.6</ele>
        <time>2026-02-22T09:37:34Z</time>
      </trkpt>
      <trkpt lat="43.60252" lon="6.38314">
        <ele>534.6</ele>
        <time>2026-02-22T09:37:35Z</time>
      </trkpt>
      <trkpt lat="43.60252" lon="6.38315">
        <ele>534.6</ele>
        <time>2026-02-22T09:37:36Z</time>
      </trkpt>
      <trkpt lat="43.60252" lon="6.38316">
        <ele>534.6</ele>
        <time>2026-02-22T09:37:37Z</time>
      </trkpt>
      <trkpt lat="43.60252" lon="6.38317">
        <ele>534.7</ele>
        <time>2026-02-22T09:37:38Z</time>
      </trkpt>
      <trkpt lat="43.60252" lon="6.38318">
        <ele>534.6</ele>
        <time>2026-02-22T09:37:39Z</time>
      </trkpt>
      <trkpt lat="43.60251" lon="6.38319">
        <ele>534.6</ele>
        <time>2026-02-22T09:37:40Z</time>
      </trkpt>
      <trkpt lat="43.60251" lon="6.3832">
        <ele>534.6</ele>
        <time>2026-02-22T09:37:41Z</time>
      </trkpt>
      <trkpt lat="43.60251" lon="6.38321">
        <ele>534.7</ele>
        <time>2026-02-22T09:37:42Z</time>
      </trkpt>
      <trkpt lat="43.60252" lon="6.38322">
        <ele>534.7</ele>
        <time>2026-02-22T09:37:43Z</time>
      </trkpt>
      <trkpt lat="43.60252" lon="6.38323">
        <ele>534.7</ele>
        <time>2026-02-22T09:37:44Z</time>
      </trkpt>
      <trkpt lat="43.60253" lon="6.38324">
        <ele>534.7</ele>
        <time>2026-02-22T09:37:45Z</time>
      </trkpt>
      <trkpt lat="43.60253" lon="6.38325">
        <ele>534.7</ele>
        <time>2026-02-22T09:37:46Z</time>
      </trkpt>
      <trkpt lat="43.60253" lon="6.38326">
        <ele>534.6</ele>
        <time>2026-02-22T09:37:47Z</time>
      </trkpt>
      <trkpt lat="43.60254" lon="6.38327">
        <ele>534.5</ele>
        <time>2026-02-22T09:37:48Z</time>
      </trkpt>
      <trkpt lat="43.60254" lon="6.38328">
        <ele>534.5</ele>
        <time>2026-02-22T09:37:49Z</time>
      </trkpt>
      <trkpt lat="43.60254" lon="6.38329">
        <ele>534.4</ele>
        <time>2026-02-22T09:37:50Z</time>
      </trkpt>
      <trkpt lat="43.60254" lon="6.38329">
        <ele>534.1</ele>
        <time>2026-02-22T09:37:51Z</time>
      </trkpt>
      <trkpt lat="43.60255" lon="6.3833">
        <ele>534</ele>
        <time>2026-02-22T09:37:52Z</time>
      </trkpt>
      <trkpt lat="43.60255" lon="6.38332">
        <ele>534</ele>
        <time>2026-02-22T09:37:53Z</time>
      </trkpt>
      <trkpt lat="43.60255" lon="6.38333">
        <ele>534</ele>
        <time>2026-02-22T09:37:54Z</time>
      </trkpt>
      <trkpt lat="43.60255" lon="6.38334">
        <ele>534</ele>
        <time>2026-02-22T09:37:55Z</time>
      </trkpt>
      <trkpt lat="43.60255" lon="6.38334">
        <ele>533.9</ele>
        <time>2026-02-22T09:37:56Z</time>
      </trkpt>
      <trkpt lat="43.60256" lon="6.38335">
        <ele>533.8</ele>
        <time>2026-02-22T09:37:57Z</time>
      </trkpt>
      <trkpt lat="43.60256" lon="6.38336">
        <ele>533.7</ele>
        <time>2026-02-22T09:37:58Z</time>
      </trkpt>
      <trkpt lat="43.60257" lon="6.38337">
        <ele>533.7</ele>
        <time>2026-02-22T09:37:59Z</time>
      </trkpt>
      <trkpt lat="43.60257" lon="6.38338">
        <ele>533.7</ele>
        <time>2026-02-22T09:38:00Z</time>
      </trkpt>
      <trkpt lat="43.60257" lon="6.38339">
        <ele>533.7</ele>
        <time>2026-02-22T09:38:01Z</time>
      </trkpt>
      <trkpt lat="43.60257" lon="6.3834">
        <ele>533.7</ele>
        <time>2026-02-22T09:38:02Z</time>
      </trkpt>
      <trkpt lat="43.60257" lon="6.38341">
        <ele>533.8</ele>
        <time>2026-02-22T09:38:03Z</time>
      </trkpt>
      <trkpt lat="43.60258" lon="6.38342">
        <ele>533.6</ele>
        <time>2026-02-22T09:38:04Z</time>
      </trkpt>
      <trkpt lat="43.60258" lon="6.38342">
        <ele>533.6</ele>
        <time>2026-02-22T09:38:05Z</time>
      </trkpt>
      <trkpt lat="43.60259" lon="6.38343">
        <ele>533.4</ele>
        <time>2026-02-22T09:38:06Z</time>
      </trkpt>
      <trkpt lat="43.60259" lon="6.38343">
        <ele>533.2</ele>
        <time>2026-02-22T09:38:07Z</time>
      </trkpt>
      <trkpt lat="43.60259" lon="6.38343">
        <ele>533.1</ele>
        <time>2026-02-22T09:38:08Z</time>
      </trkpt>
      <trkpt lat="43.60259" lon="6.38344">
        <ele>533.1</ele>
        <time>2026-02-22T09:38:09Z</time>
      </trkpt>
      <trkpt lat="43.6026" lon="6.38345">
        <ele>533</ele>
        <time>2026-02-22T09:38:10Z</time>
      </trkpt>
      <trkpt lat="43.6026" lon="6.38346">
        <ele>533</ele>
        <time>2026-02-22T09:38:11Z</time>
      </trkpt>
      <trkpt lat="43.6026" lon="6.38347">
        <ele>533</ele>
        <time>2026-02-22T09:38:12Z</time>
      </trkpt>
      <trkpt lat="43.60261" lon="6.38347">
        <ele>532.9</ele>
        <time>2026-02-22T09:38:13Z</time>
      </trkpt>
      <trkpt lat="43.60261" lon="6.38347">
        <ele>532.9</ele>
        <time>2026-02-22T09:38:14Z</time>
      </trkpt>
      <trkpt lat="43.60262" lon="6.38347">
        <ele>532.8</ele>
        <time>2026-02-22T09:38:15Z</time>
      </trkpt>
      <trkpt lat="43.60262" lon="6.38347">
        <ele>532.9</ele>
        <time>2026-02-22T09:38:16Z</time>
      </trkpt>
      <trkpt lat="43.60262" lon="6.38347">
        <ele>532.9</ele>
        <time>2026-02-22T09:38:17Z</time>
      </trkpt>
      <trkpt lat="43.60262" lon="6.38348">
        <ele>532.9</ele>
        <time>2026-02-22T09:38:18Z</time>
      </trkpt>
      <trkpt lat="43.60262" lon="6.38348">
        <ele>532.9</ele>
        <time>2026-02-22T09:38:19Z</time>
      </trkpt>
      <trkpt lat="43.60262" lon="6.38348">
        <ele>532.8</ele>
        <time>2026-02-22T09:38:20Z</time>
      </trkpt>
      <trkpt lat="43.60262" lon="6.38348">
        <ele>532.8</ele>
        <time>2026-02-22T09:38:21Z</time>
      </trkpt>
      <trkpt lat="43.60262" lon="6.38348">
        <ele>532.9</ele>
        <time>2026-02-22T09:38:22Z</time>
      </trkpt>
      <trkpt lat="43.60262" lon="6.38348">
        <ele>532.8</ele>
        <time>2026-02-22T09:38:23Z</time>
      </trkpt>
      <trkpt lat="43.60262" lon="6.38349">
        <ele>532.7</ele>
        <time>2026-02-22T09:38:24Z</time>
      </trkpt>
      <trkpt lat="43.60262" lon="6.38349">
        <ele>532.8</ele>
        <time>2026-02-22T09:38:25Z</time>
      </trkpt>
      <trkpt lat="43.60262" lon="6.38349">
        <ele>532.9</ele>
        <time>2026-02-22T09:38:26Z</time>
      </trkpt>
      <trkpt lat="43.60263" lon="6.38349">
        <ele>532.9</ele>
        <time>2026-02-22T09:38:27Z</time>
      </trkpt>
      <trkpt lat="43.60263" lon="6.38349">
        <ele>533</ele>
        <time>2026-02-22T09:38:28Z</time>
      </trkpt>
      <trkpt lat="43.60263" lon="6.38349">
        <ele>533</ele>
        <time>2026-02-22T09:38:29Z</time>
      </trkpt>
      <trkpt lat="43.60263" lon="6.38349">
        <ele>533</ele>
        <time>2026-02-22T09:38:30Z</time>
      </trkpt>
      <trkpt lat="43.60263" lon="6.38349">
        <ele>533</ele>
        <time>2026-02-22T09:38:31Z</time>
      </trkpt>
      <trkpt lat="43.60264" lon="6.38349">
        <ele>533</ele>
        <time>2026-02-22T09:38:32Z</time>
      </trkpt>
      <trkpt lat="43.60264" lon="6.38349">
        <ele>533</ele>
        <time>2026-02-22T09:38:33Z</time>
      </trkpt>
      <trkpt lat="43.60264" lon="6.38349">
        <ele>532.9</ele>
        <time>2026-02-22T09:38:34Z</time>
      </trkpt>
      <trkpt lat="43.60264" lon="6.38349">
        <ele>532.9</ele>
        <time>2026-02-22T09:38:35Z</time>
      </trkpt>
      <trkpt lat="43.60264" lon="6.3835">
        <ele>532.9</ele>
        <time>2026-02-22T09:38:36Z</time>
      </trkpt>
      <trkpt lat="43.60264" lon="6.3835">
        <ele>532.9</ele>
        <time>2026-02-22T09:38:37Z</time>
      </trkpt>
      <trkpt lat="43.60264" lon="6.3835">
        <ele>532.8</ele>
        <time>2026-02-22T09:38:38Z</time>
      </trkpt>
      <trkpt lat="43.60265" lon="6.3835">
        <ele>532.9</ele>
        <time>2026-02-22T09:38:39Z</time>
      </trkpt>
      <trkpt lat="43.60265" lon="6.3835">
        <ele>532.9</ele>
        <time>2026-02-22T09:38:40Z</time>
      </trkpt>
      <trkpt lat="43.60265" lon="6.3835">
        <ele>532.9</ele>
        <time>2026-02-22T09:38:41Z</time>
      </trkpt>
      <trkpt lat="43.60265" lon="6.3835">
        <ele>532.9</ele>
        <time>2026-02-22T09:38:42Z</time>
      </trkpt>
      <trkpt lat="43.60266" lon="6.3835">
        <ele>532.8</ele>
        <time>2026-02-22T09:38:43Z</time>
      </trkpt>
      <trkpt lat="43.60266" lon="6.3835">
        <ele>532.8</ele>
        <time>2026-02-22T09:38:44Z</time>
      </trkpt>
      <trkpt lat="43.60267" lon="6.38351">
        <ele>532.9</ele>
        <time>2026-02-22T09:38:45Z</time>
      </trkpt>
      <trkpt lat="43.60267" lon="6.38352">
        <ele>532.9</ele>
        <time>2026-02-22T09:38:46Z</time>
      </trkpt>
      <trkpt lat="43.60267" lon="6.38352">
        <ele>532.9</ele>
        <time>2026-02-22T09:38:47Z</time>
      </trkpt>
      <trkpt lat="43.60267" lon="6.38352">
        <ele>532.9</ele>
        <time>2026-02-22T09:38:48Z</time>
      </trkpt>
      <trkpt lat="43.60267" lon="6.38352">
        <ele>532.9</ele>
        <time>2026-02-22T09:38:49Z</time>
      </trkpt>
      <trkpt lat="43.60267" lon="6.38352">
        <ele>532.9</ele>
        <time>2026-02-22T09:38:50Z</time>
      </trkpt>
      <trkpt lat="43.60267" lon="6.38353">
        <ele>532.9</ele>
        <time>2026-02-22T09:38:51Z</time>
      </trkpt>
      <trkpt lat="43.60266" lon="6.38354">
        <ele>532.9</ele>
        <time>2026-02-22T09:38:52Z</time>
      </trkpt>
      <trkpt lat="43.60266" lon="6.38355">
        <ele>533</ele>
        <time>2026-02-22T09:38:53Z</time>
      </trkpt>
      <trkpt lat="43.60266" lon="6.38355">
        <ele>533</ele>
        <time>2026-02-22T09:38:54Z</time>
      </trkpt>
      <trkpt lat="43.60265" lon="6.38356">
        <ele>533</ele>
        <time>2026-02-22T09:38:55Z</time>
      </trkpt>
      <trkpt lat="43.60265" lon="6.38356">
        <ele>533</ele>
        <time>2026-02-22T09:38:56Z</time>
      </trkpt>
      <trkpt lat="43.60266" lon="6.38356">
        <ele>533.1</ele>
        <time>2026-02-22T09:38:57Z</time>
      </trkpt>
      <trkpt lat="43.60266" lon="6.38356">
        <ele>533.1</ele>
        <time>2026-02-22T09:38:58Z</time>
      </trkpt>
      <trkpt lat="43.60267" lon="6.38356">
        <ele>533.1</ele>
        <time>2026-02-22T09:38:59Z</time>
      </trkpt>
      <trkpt lat="43.60268" lon="6.38356">
        <ele>533.1</ele>
        <time>2026-02-22T09:39:00Z</time>
      </trkpt>
      <trkpt lat="43.60269" lon="6.38356">
        <ele>533.1</ele>
        <time>2026-02-22T09:39:01Z</time>
      </trkpt>
      <trkpt lat="43.60269" lon="6.38355">
        <ele>533.2</ele>
        <time>2026-02-22T09:39:02Z</time>
      </trkpt>
      <trkpt lat="43.60269" lon="6.38355">
        <ele>532.8</ele>
        <time>2026-02-22T09:39:03Z</time>
      </trkpt>
      <trkpt lat="43.60269" lon="6.38354">
        <ele>532.9</ele>
        <time>2026-02-22T09:39:04Z</time>
      </trkpt>
      <trkpt lat="43.60269" lon="6.38354">
        <ele>532.9</ele>
        <time>2026-02-22T09:39:05Z</time>
      </trkpt>
      <trkpt lat="43.60269" lon="6.38354">
        <ele>532.9</ele>
        <time>2026-02-22T09:39:06Z</time>
      </trkpt>
      <trkpt lat="43.60269" lon="6.38354">
        <ele>532.9</ele>
        <time>2026-02-22T09:39:07Z</time>
      </trkpt>
      <trkpt lat="43.60269" lon="6.38354">
        <ele>532.9</ele>
        <time>2026-02-22T09:39:08Z</time>
      </trkpt>
      <trkpt lat="43.60269" lon="6.38354">
        <ele>532.9</ele>
        <time>2026-02-22T09:39:09Z</time>
      </trkpt>
      <trkpt lat="43.60269" lon="6.38355">
        <ele>532.9</ele>
        <time>2026-02-22T09:39:10Z</time>
      </trkpt>
      <trkpt lat="43.60269" lon="6.38355">
        <ele>533</ele>
        <time>2026-02-22T09:39:11Z</time>
      </trkpt>
      <trkpt lat="43.60269" lon="6.38355">
        <ele>533</ele>
        <time>2026-02-22T09:39:12Z</time>
      </trkpt>
      <trkpt lat="43.60269" lon="6.38355">
        <ele>533</ele>
        <time>2026-02-22T09:39:13Z</time>
      </trkpt>
      <trkpt lat="43.60269" lon="6.38355">
        <ele>533</ele>
        <time>2026-02-22T09:39:14Z</time>
      </trkpt>
      <trkpt lat="43.60269" lon="6.38356">
        <ele>533</ele>
        <time>2026-02-22T09:39:15Z</time>
      </trkpt>
      <trkpt lat="43.60269" lon="6.38356">
        <ele>533</ele>
        <time>2026-02-22T09:39:16Z</time>
      </trkpt>
      <trkpt lat="43.60269" lon="6.38356">
        <ele>533.1</ele>
        <time>2026-02-22T09:39:17Z</time>
      </trkpt>
      <trkpt lat="43.6027" lon="6.38356">
        <ele>533.1</ele>
        <time>2026-02-22T09:39:18Z</time>
      </trkpt>
      <trkpt lat="43.6027" lon="6.38356">
        <ele>533.1</ele>
        <time>2026-02-22T09:39:19Z</time>
      </trkpt>
      <trkpt lat="43.6027" lon="6.38356">
        <ele>533.1</ele>
        <time>2026-02-22T09:39:20Z</time>
      </trkpt>
      <trkpt lat="43.6027" lon="6.38356">
        <ele>533.1</ele>
        <time>2026-02-22T09:39:21Z</time>
      </trkpt>
      <trkpt lat="43.6027" lon="6.38356">
        <ele>533.1</ele>
        <time>2026-02-22T09:39:22Z</time>
      </trkpt>
      <trkpt lat="43.6027" lon="6.38356">
        <ele>533.1</ele>
        <time>2026-02-22T09:39:23Z</time>
      </trkpt>
      <trkpt lat="43.6027" lon="6.38356">
        <ele>533.2</ele>
        <time>2026-02-22T09:39:24Z</time>
      </trkpt>
      <trkpt lat="43.6027" lon="6.38356">
        <ele>533.2</ele>
        <time>2026-02-22T09:39:25Z</time>
      </trkpt>
      <trkpt lat="43.6027" lon="6.38356">
        <ele>533.2</ele>
        <time>2026-02-22T09:39:26Z</time>
      </trkpt>
      <trkpt lat="43.6027" lon="6.38356">
        <ele>533.2</ele>
        <time>2026-02-22T09:39:27Z</time>
      </trkpt>
      <trkpt lat="43.6027" lon="6.38356">
        <ele>533.1</ele>
        <time>2026-02-22T09:39:28Z</time>
      </trkpt>
      <trkpt lat="43.6027" lon="6.38356">
        <ele>533.1</ele>
        <time>2026-02-22T09:39:29Z</time>
      </trkpt>
      <trkpt lat="43.6027" lon="6.38356">
        <ele>533.1</ele>
        <time>2026-02-22T09:39:30Z</time>
      </trkpt>
      <trkpt lat="43.6027" lon="6.38356">
        <ele>533.1</ele>
        <time>2026-02-22T09:39:31Z</time>
      </trkpt>
      <trkpt lat="43.6027" lon="6.38356">
        <ele>533.1</ele>
        <time>2026-02-22T09:39:32Z</time>
      </trkpt>
      <trkpt lat="43.6027" lon="6.38356">
        <ele>533.1</ele>
        <time>2026-02-22T09:39:33Z</time>
      </trkpt>
      <trkpt lat="43.6027" lon="6.38356">
        <ele>533.1</ele>
        <time>2026-02-22T09:39:34Z</time>
      </trkpt>
      <trkpt lat="43.6027" lon="6.38356">
        <ele>533.1</ele>
        <time>2026-02-22T09:39:35Z</time>
      </trkpt>
      <trkpt lat="43.6027" lon="6.38356">
        <ele>533</ele>
        <time>2026-02-22T09:39:36Z</time>
      </trkpt>
      <trkpt lat="43.6027" lon="6.38356">
        <ele>533</ele>
        <time>2026-02-22T09:39:37Z</time>
      </trkpt>
      <trkpt lat="43.6027" lon="6.38356">
        <ele>533</ele>
        <time>2026-02-22T09:39:38Z</time>
      </trkpt>
      <trkpt lat="43.6027" lon="6.38356">
        <ele>533</ele>
        <time>2026-02-22T09:39:39Z</time>
      </trkpt>
      <trkpt lat="43.6027" lon="6.38355">
        <ele>533</ele>
        <time>2026-02-22T09:39:40Z</time>
      </trkpt>
      <trkpt lat="43.60269" lon="6.38355">
        <ele>533</ele>
        <time>2026-02-22T09:39:41Z</time>
      </trkpt>
      <trkpt lat="43.60269" lon="6.38356">
        <ele>533</ele>
        <time>2026-02-22T09:39:42Z</time>
      </trkpt>
      <trkpt lat="43.60269" lon="6.38356">
        <ele>533</ele>
        <time>2026-02-22T09:39:43Z</time>
      </trkpt>
      <trkpt lat="43.60269" lon="6.38356">
        <ele>533.1</ele>
        <time>2026-02-22T09:39:44Z</time>
      </trkpt>
      <trkpt lat="43.60269" lon="6.38356">
        <ele>533.1</ele>
        <time>2026-02-22T09:39:45Z</time>
      </trkpt>
      <trkpt lat="43.60269" lon="6.38356">
        <ele>533.1</ele>
        <time>2026-02-22T09:39:46Z</time>
      </trkpt>
      <trkpt lat="43.60269" lon="6.38356">
        <ele>533</ele>
        <time>2026-02-22T09:39:47Z</time>
      </trkpt>
      <trkpt lat="43.60268" lon="6.38356">
        <ele>533</ele>
        <time>2026-02-22T09:39:48Z</time>
      </trkpt>
      <trkpt lat="43.60268" lon="6.38357">
        <ele>533</ele>
        <time>2026-02-22T09:39:49Z</time>
      </trkpt>
      <trkpt lat="43.60268" lon="6.38357">
        <ele>533</ele>
        <time>2026-02-22T09:39:50Z</time>
      </trkpt>
      <trkpt lat="43.60267" lon="6.38357">
        <ele>533</ele>
        <time>2026-02-22T09:39:51Z</time>
      </trkpt>
      <trkpt lat="43.60268" lon="6.38357">
        <ele>533.1</ele>
        <time>2026-02-22T09:39:52Z</time>
      </trkpt>
      <trkpt lat="43.60268" lon="6.38357">
        <ele>533.2</ele>
        <time>2026-02-22T09:39:53Z</time>
      </trkpt>
      <trkpt lat="43.60268" lon="6.38357">
        <ele>533.2</ele>
        <time>2026-02-22T09:39:54Z</time>
      </trkpt>
      <trkpt lat="43.60268" lon="6.38357">
        <ele>533.2</ele>
        <time>2026-02-22T09:39:55Z</time>
      </trkpt>
      <trkpt lat="43.60269" lon="6.38357">
        <ele>533.2</ele>
        <time>2026-02-22T09:39:56Z</time>
      </trkpt>
      <trkpt lat="43.60269" lon="6.38357">
        <ele>533.1</ele>
        <time>2026-02-22T09:39:57Z</time>
      </trkpt>
      <trkpt lat="43.60269" lon="6.38357">
        <ele>533.1</ele>
        <time>2026-02-22T09:39:58Z</time>
      </trkpt>
      <trkpt lat="43.60269" lon="6.38357">
        <ele>533</ele>
        <time>2026-02-22T09:39:59Z</time>
      </trkpt>
      <trkpt lat="43.60269" lon="6.38357">
        <ele>533</ele>
        <time>2026-02-22T09:40:00Z</time>
      </trkpt>
      <trkpt lat="43.60269" lon="6.38357">
        <ele>532.9</ele>
        <time>2026-02-22T09:40:01Z</time>
      </trkpt>
      <trkpt lat="43.6027" lon="6.38358">
        <ele>532.8</ele>
        <time>2026-02-22T09:40:02Z</time>
      </trkpt>
      <trkpt lat="43.6027" lon="6.38358">
        <ele>532.9</ele>
        <time>2026-02-22T09:40:03Z</time>
      </trkpt>
      <trkpt lat="43.6027" lon="6.38358">
        <ele>532.8</ele>
        <time>2026-02-22T09:40:04Z</time>
      </trkpt>
      <trkpt lat="43.6027" lon="6.38358">
        <ele>532.8</ele>
        <time>2026-02-22T09:40:05Z</time>
      </trkpt>
      <trkpt lat="43.60271" lon="6.38358">
        <ele>532.7</ele>
        <time>2026-02-22T09:40:06Z</time>
      </trkpt>
      <trkpt lat="43.60271" lon="6.38358">
        <ele>532.7</ele>
        <time>2026-02-22T09:40:07Z</time>
      </trkpt>
      <trkpt lat="43.60271" lon="6.38358">
        <ele>532.7</ele>
        <time>2026-02-22T09:40:08Z</time>
      </trkpt>
      <trkpt lat="43.60271" lon="6.38358">
        <ele>532.6</ele>
        <time>2026-02-22T09:40:09Z</time>
      </trkpt>
      <trkpt lat="43.60271" lon="6.38358">
        <ele>532.6</ele>
        <time>2026-02-22T09:40:10Z</time>
      </trkpt>
      <trkpt lat="43.60271" lon="6.38358">
        <ele>532.6</ele>
        <time>2026-02-22T09:40:11Z</time>
      </trkpt>
      <trkpt lat="43.60271" lon="6.38358">
        <ele>532.6</ele>
        <time>2026-02-22T09:40:12Z</time>
      </trkpt>
      <trkpt lat="43.60271" lon="6.38359">
        <ele>532.7</ele>
        <time>2026-02-22T09:40:13Z</time>
      </trkpt>
      <trkpt lat="43.60271" lon="6.38359">
        <ele>532.7</ele>
        <time>2026-02-22T09:40:14Z</time>
      </trkpt>
      <trkpt lat="43.60271" lon="6.38359">
        <ele>532.7</ele>
        <time>2026-02-22T09:40:15Z</time>
      </trkpt>
      <trkpt lat="43.60271" lon="6.38359">
        <ele>532.8</ele>
        <time>2026-02-22T09:40:16Z</time>
      </trkpt>
      <trkpt lat="43.60271" lon="6.38359">
        <ele>532.8</ele>
        <time>2026-02-22T09:40:17Z</time>
      </trkpt>
      <trkpt lat="43.60271" lon="6.38359">
        <ele>532.7</ele>
        <time>2026-02-22T09:40:18Z</time>
      </trkpt>
      <trkpt lat="43.60271" lon="6.38359">
        <ele>532.7</ele>
        <time>2026-02-22T09:40:19Z</time>
      </trkpt>
      <trkpt lat="43.6027" lon="6.38359">
        <ele>532.7</ele>
        <time>2026-02-22T09:40:20Z</time>
      </trkpt>
      <trkpt lat="43.60271" lon="6.3836">
        <ele>532.7</ele>
        <time>2026-02-22T09:40:21Z</time>
      </trkpt>
      <trkpt lat="43.6027" lon="6.3836">
        <ele>532.7</ele>
        <time>2026-02-22T09:40:22Z</time>
      </trkpt>
      <trkpt lat="43.6027" lon="6.3836">
        <ele>532.7</ele>
        <time>2026-02-22T09:40:23Z</time>
      </trkpt>
      <trkpt lat="43.6027" lon="6.3836">
        <ele>532.8</ele>
        <time>2026-02-22T09:40:24Z</time>
      </trkpt>
      <trkpt lat="43.6027" lon="6.3836">
        <ele>532.9</ele>
        <time>2026-02-22T09:40:25Z</time>
      </trkpt>
      <trkpt lat="43.6027" lon="6.3836">
        <ele>532.9</ele>
        <time>2026-02-22T09:40:26Z</time>
      </trkpt>
      <trkpt lat="43.6027" lon="6.3836">
        <ele>532.9</ele>
        <time>2026-02-22T09:40:27Z</time>
      </trkpt>
      <trkpt lat="43.60269" lon="6.3836">
        <ele>532.9</ele>
        <time>2026-02-22T09:40:28Z</time>
      </trkpt>
      <trkpt lat="43.6027" lon="6.38359">
        <ele>532.8</ele>
        <time>2026-02-22T09:40:29Z</time>
      </trkpt>
      <trkpt lat="43.6027" lon="6.38359">
        <ele>532.8</ele>
        <time>2026-02-22T09:40:30Z</time>
      </trkpt>
      <trkpt lat="43.6027" lon="6.38359">
        <ele>532.8</ele>
        <time>2026-02-22T09:40:31Z</time>
      </trkpt>
      <trkpt lat="43.60269" lon="6.38359">
        <ele>532.7</ele>
        <time>2026-02-22T09:40:32Z</time>
      </trkpt>
      <trkpt lat="43.60269" lon="6.38359">
        <ele>532.8</ele>
        <time>2026-02-22T09:40:33Z</time>
      </trkpt>
      <trkpt lat="43.60269" lon="6.38359">
        <ele>532.8</ele>
        <time>2026-02-22T09:40:34Z</time>
      </trkpt>
      <trkpt lat="43.60269" lon="6.3836">
        <ele>532.8</ele>
        <time>2026-02-22T09:40:35Z</time>
      </trkpt>
      <trkpt lat="43.60268" lon="6.3836">
        <ele>532.8</ele>
        <time>2026-02-22T09:40:36Z</time>
      </trkpt>
      <trkpt lat="43.60268" lon="6.3836">
        <ele>532.8</ele>
        <time>2026-02-22T09:40:37Z</time>
      </trkpt>
      <trkpt lat="43.60268" lon="6.3836">
        <ele>532.8</ele>
        <time>2026-02-22T09:40:38Z</time>
      </trkpt>
      <trkpt lat="43.60268" lon="6.3836">
        <ele>532.8</ele>
        <time>2026-02-22T09:40:39Z</time>
      </trkpt>
      <trkpt lat="43.60268" lon="6.3836">
        <ele>532.8</ele>
        <time>2026-02-22T09:40:40Z</time>
      </trkpt>
      <trkpt lat="43.60268" lon="6.3836">
        <ele>532.8</ele>
        <time>2026-02-22T09:40:41Z</time>
      </trkpt>
      <trkpt lat="43.60268" lon="6.3836">
        <ele>532.8</ele>
        <time>2026-02-22T09:40:42Z</time>
      </trkpt>
      <trkpt lat="43.60268" lon="6.3836">
        <ele>532.8</ele>
        <time>2026-02-22T09:40:43Z</time>
      </trkpt>
      <trkpt lat="43.60268" lon="6.3836">
        <ele>532.8</ele>
        <time>2026-02-22T09:40:44Z</time>
      </trkpt>
      <trkpt lat="43.60268" lon="6.3836">
        <ele>532.8</ele>
        <time>2026-02-22T09:40:45Z</time>
      </trkpt>
      <trkpt lat="43.60268" lon="6.38359">
        <ele>532.8</ele>
        <time>2026-02-22T09:40:46Z</time>
      </trkpt>
      <trkpt lat="43.60268" lon="6.38359">
        <ele>532.8</ele>
        <time>2026-02-22T09:40:47Z</time>
      </trkpt>
      <trkpt lat="43.60268" lon="6.38359">
        <ele>532.9</ele>
        <time>2026-02-22T09:40:48Z</time>
      </trkpt>
      <trkpt lat="43.60268" lon="6.38359">
        <ele>532.9</ele>
        <time>2026-02-22T09:40:49Z</time>
      </trkpt>
      <trkpt lat="43.60268" lon="6.38359">
        <ele>532.9</ele>
        <time>2026-02-22T09:40:50Z</time>
      </trkpt>
      <trkpt lat="43.60268" lon="6.38359">
        <ele>532.9</ele>
        <time>2026-02-22T09:40:51Z</time>
      </trkpt>
      <trkpt lat="43.60268" lon="6.38358">
        <ele>532.9</ele>
        <time>2026-02-22T09:40:52Z</time>
      </trkpt>
      <trkpt lat="43.60268" lon="6.38358">
        <ele>532.9</ele>
        <time>2026-02-22T09:40:53Z</time>
      </trkpt>
      <trkpt lat="43.60268" lon="6.38358">
        <ele>532.9</ele>
        <time>2026-02-22T09:40:54Z</time>
      </trkpt>
      <trkpt lat="43.60268" lon="6.38358">
        <ele>533</ele>
        <time>2026-02-22T09:40:55Z</time>
      </trkpt>
      <trkpt lat="43.60267" lon="6.38358">
        <ele>533</ele>
        <time>2026-02-22T09:40:56Z</time>
      </trkpt>
      <trkpt lat="43.60268" lon="6.38358">
        <ele>532.9</ele>
        <time>2026-02-22T09:40:57Z</time>
      </trkpt>
      <trkpt lat="43.60268" lon="6.38358">
        <ele>532.9</ele>
        <time>2026-02-22T09:40:58Z</time>
      </trkpt>
      <trkpt lat="43.60268" lon="6.38358">
        <ele>532.9</ele>
        <time>2026-02-22T09:40:59Z</time>
      </trkpt>
      <trkpt lat="43.60268" lon="6.38357">
        <ele>532.8</ele>
        <time>2026-02-22T09:41:00Z</time>
      </trkpt>
      <trkpt lat="43.60267" lon="6.38356">
        <ele>532.8</ele>
        <time>2026-02-22T09:41:01Z</time>
      </trkpt>
      <trkpt lat="43.60267" lon="6.38356">
        <ele>532.8</ele>
        <time>2026-02-22T09:41:02Z</time>
      </trkpt>
      <trkpt lat="43.60267" lon="6.38356">
        <ele>532.8</ele>
        <time>2026-02-22T09:41:03Z</time>
      </trkpt>
      <trkpt lat="43.60267" lon="6.38357">
        <ele>532.8</ele>
        <time>2026-02-22T09:41:04Z</time>
      </trkpt>
      <trkpt lat="43.60266" lon="6.38357">
        <ele>532.8</ele>
        <time>2026-02-22T09:41:05Z</time>
      </trkpt>
      <trkpt lat="43.60267" lon="6.38357">
        <ele>532.7</ele>
        <time>2026-02-22T09:41:06Z</time>
      </trkpt>
      <trkpt lat="43.60266" lon="6.38357">
        <ele>532.7</ele>
        <time>2026-02-22T09:41:07Z</time>
      </trkpt>
      <trkpt lat="43.60267" lon="6.38358">
        <ele>532.6</ele>
        <time>2026-02-22T09:41:08Z</time>
      </trkpt>
      <trkpt lat="43.60267" lon="6.3836">
        <ele>532.5</ele>
        <time>2026-02-22T09:41:09Z</time>
      </trkpt>
      <trkpt lat="43.60266" lon="6.3836">
        <ele>532.5</ele>
        <time>2026-02-22T09:41:10Z</time>
      </trkpt>
      <trkpt lat="43.60266" lon="6.38362">
        <ele>532.4</ele>
        <time>2026-02-22T09:41:11Z</time>
      </trkpt>
      <trkpt lat="43.60265" lon="6.38363">
        <ele>532.3</ele>
        <time>2026-02-22T09:41:12Z</time>
      </trkpt>
      <trkpt lat="43.60266" lon="6.38363">
        <ele>532.3</ele>
        <time>2026-02-22T09:41:13Z</time>
      </trkpt>
      <trkpt lat="43.60266" lon="6.38364">
        <ele>532.2</ele>
        <time>2026-02-22T09:41:14Z</time>
      </trkpt>
      <trkpt lat="43.60267" lon="6.38365">
        <ele>532.1</ele>
        <time>2026-02-22T09:41:15Z</time>
      </trkpt>
      <trkpt lat="43.60267" lon="6.38366">
        <ele>531.9</ele>
        <time>2026-02-22T09:41:16Z</time>
      </trkpt>
      <trkpt lat="43.60268" lon="6.38367">
        <ele>531.8</ele>
        <time>2026-02-22T09:41:17Z</time>
      </trkpt>
      <trkpt lat="43.6027" lon="6.38367">
        <ele>531.6</ele>
        <time>2026-02-22T09:41:18Z</time>
      </trkpt>
      <trkpt lat="43.60271" lon="6.38367">
        <ele>531.4</ele>
        <time>2026-02-22T09:41:19Z</time>
      </trkpt>
      <trkpt lat="43.60271" lon="6.38369">
        <ele>531.3</ele>
        <time>2026-02-22T09:41:20Z</time>
      </trkpt>
      <trkpt lat="43.60272" lon="6.38369">
        <ele>531.1</ele>
        <time>2026-02-22T09:41:21Z</time>
      </trkpt>
      <trkpt lat="43.60272" lon="6.3837">
        <ele>531</ele>
        <time>2026-02-22T09:41:22Z</time>
      </trkpt>
      <trkpt lat="43.60272" lon="6.38371">
        <ele>530.8</ele>
        <time>2026-02-22T09:41:23Z</time>
      </trkpt>
      <trkpt lat="43.60273" lon="6.38371">
        <ele>530.7</ele>
        <time>2026-02-22T09:41:24Z</time>
      </trkpt>
      <trkpt lat="43.60273" lon="6.38372">
        <ele>530.5</ele>
        <time>2026-02-22T09:41:25Z</time>
      </trkpt>
      <trkpt lat="43.60273" lon="6.38373">
        <ele>530.4</ele>
        <time>2026-02-22T09:41:26Z</time>
      </trkpt>
      <trkpt lat="43.60272" lon="6.38373">
        <ele>530.4</ele>
        <time>2026-02-22T09:41:27Z</time>
      </trkpt>
      <trkpt lat="43.60273" lon="6.38374">
        <ele>530.3</ele>
        <time>2026-02-22T09:41:28Z</time>
      </trkpt>
      <trkpt lat="43.60274" lon="6.38374">
        <ele>530.3</ele>
        <time>2026-02-22T09:41:29Z</time>
      </trkpt>
      <trkpt lat="43.60274" lon="6.38374">
        <ele>530.3</ele>
        <time>2026-02-22T09:41:30Z</time>
      </trkpt>
      <trkpt lat="43.60274" lon="6.38374">
        <ele>530.2</ele>
        <time>2026-02-22T09:41:31Z</time>
      </trkpt>
      <trkpt lat="43.60274" lon="6.38374">
        <ele>530.1</ele>
        <time>2026-02-22T09:41:32Z</time>
      </trkpt>
      <trkpt lat="43.60274" lon="6.38374">
        <ele>530.1</ele>
        <time>2026-02-22T09:41:33Z</time>
      </trkpt>
      <trkpt lat="43.60275" lon="6.38374">
        <ele>530</ele>
        <time>2026-02-22T09:41:34Z</time>
      </trkpt>
      <trkpt lat="43.60275" lon="6.38374">
        <ele>530</ele>
        <time>2026-02-22T09:41:35Z</time>
      </trkpt>
      <trkpt lat="43.60275" lon="6.38373">
        <ele>530</ele>
        <time>2026-02-22T09:41:36Z</time>
      </trkpt>
      <trkpt lat="43.60274" lon="6.38374">
        <ele>529.9</ele>
        <time>2026-02-22T09:41:37Z</time>
      </trkpt>
      <trkpt lat="43.60274" lon="6.38374">
        <ele>530</ele>
        <time>2026-02-22T09:41:38Z</time>
      </trkpt>
      <trkpt lat="43.60275" lon="6.38373">
        <ele>530</ele>
        <time>2026-02-22T09:41:39Z</time>
      </trkpt>
      <trkpt lat="43.60275" lon="6.38373">
        <ele>530</ele>
        <time>2026-02-22T09:41:40Z</time>
      </trkpt>
      <trkpt lat="43.60275" lon="6.38373">
        <ele>530</ele>
        <time>2026-02-22T09:41:41Z</time>
      </trkpt>
      <trkpt lat="43.60276" lon="6.38373">
        <ele>529.9</ele>
        <time>2026-02-22T09:41:42Z</time>
      </trkpt>
      <trkpt lat="43.60276" lon="6.38373">
        <ele>529.9</ele>
        <time>2026-02-22T09:41:43Z</time>
      </trkpt>
      <trkpt lat="43.60276" lon="6.38372">
        <ele>529.8</ele>
        <time>2026-02-22T09:41:44Z</time>
      </trkpt>
      <trkpt lat="43.60276" lon="6.38373">
        <ele>529.8</ele>
        <time>2026-02-22T09:41:45Z</time>
      </trkpt>
      <trkpt lat="43.60276" lon="6.38373">
        <ele>529.8</ele>
        <time>2026-02-22T09:41:46Z</time>
      </trkpt>
      <trkpt lat="43.60276" lon="6.38373">
        <ele>529.8</ele>
        <time>2026-02-22T09:41:47Z</time>
      </trkpt>
      <trkpt lat="43.60276" lon="6.38373">
        <ele>529.8</ele>
        <time>2026-02-22T09:41:48Z</time>
      </trkpt>
      <trkpt lat="43.60276" lon="6.38373">
        <ele>529.9</ele>
        <time>2026-02-22T09:41:49Z</time>
      </trkpt>
      <trkpt lat="43.60276" lon="6.38373">
        <ele>529.9</ele>
        <time>2026-02-22T09:41:50Z</time>
      </trkpt>
      <trkpt lat="43.60276" lon="6.38373">
        <ele>529.9</ele>
        <time>2026-02-22T09:41:51Z</time>
      </trkpt>
      <trkpt lat="43.60276" lon="6.38373">
        <ele>529.8</ele>
        <time>2026-02-22T09:41:52Z</time>
      </trkpt>
      <trkpt lat="43.60276" lon="6.38373">
        <ele>529.9</ele>
        <time>2026-02-22T09:41:53Z</time>
      </trkpt>
      <trkpt lat="43.60276" lon="6.38373">
        <ele>530</ele>
        <time>2026-02-22T09:41:54Z</time>
      </trkpt>
      <trkpt lat="43.60276" lon="6.38373">
        <ele>530</ele>
        <time>2026-02-22T09:41:55Z</time>
      </trkpt>
      <trkpt lat="43.60276" lon="6.38372">
        <ele>530</ele>
        <time>2026-02-22T09:41:56Z</time>
      </trkpt>
      <trkpt lat="43.60277" lon="6.38373">
        <ele>530</ele>
        <time>2026-02-22T09:41:57Z</time>
      </trkpt>
      <trkpt lat="43.60277" lon="6.38373">
        <ele>530</ele>
        <time>2026-02-22T09:41:58Z</time>
      </trkpt>
      <trkpt lat="43.60277" lon="6.38373">
        <ele>529.9</ele>
        <time>2026-02-22T09:41:59Z</time>
      </trkpt>
      <trkpt lat="43.60277" lon="6.38373">
        <ele>529.8</ele>
        <time>2026-02-22T09:42:00Z</time>
      </trkpt>
      <trkpt lat="43.60277" lon="6.38373">
        <ele>529.8</ele>
        <time>2026-02-22T09:42:01Z</time>
      </trkpt>
      <trkpt lat="43.60277" lon="6.38374">
        <ele>529.7</ele>
        <time>2026-02-22T09:42:02Z</time>
      </trkpt>
      <trkpt lat="43.60277" lon="6.38374">
        <ele>529.8</ele>
        <time>2026-02-22T09:42:03Z</time>
      </trkpt>
      <trkpt lat="43.60277" lon="6.38375">
        <ele>529.8</ele>
        <time>2026-02-22T09:42:04Z</time>
      </trkpt>
      <trkpt lat="43.60277" lon="6.38375">
        <ele>529.8</ele>
        <time>2026-02-22T09:42:05Z</time>
      </trkpt>
      <trkpt lat="43.60277" lon="6.38375">
        <ele>529.8</ele>
        <time>2026-02-22T09:42:06Z</time>
      </trkpt>
      <trkpt lat="43.60278" lon="6.38375">
        <ele>529.8</ele>
        <time>2026-02-22T09:42:07Z</time>
      </trkpt>
      <trkpt lat="43.60279" lon="6.38375">
        <ele>529.8</ele>
        <time>2026-02-22T09:42:08Z</time>
      </trkpt>
      <trkpt lat="43.60279" lon="6.38375">
        <ele>529.8</ele>
        <time>2026-02-22T09:42:09Z</time>
      </trkpt>
      <trkpt lat="43.60279" lon="6.38374">
        <ele>529.8</ele>
        <time>2026-02-22T09:42:10Z</time>
      </trkpt>
      <trkpt lat="43.6028" lon="6.38375">
        <ele>529.8</ele>
        <time>2026-02-22T09:42:11Z</time>
      </trkpt>
      <trkpt lat="43.6028" lon="6.38375">
        <ele>529.8</ele>
        <time>2026-02-22T09:42:12Z</time>
      </trkpt>
      <trkpt lat="43.6028" lon="6.38375">
        <ele>529.8</ele>
        <time>2026-02-22T09:42:13Z</time>
      </trkpt>
      <trkpt lat="43.6028" lon="6.38375">
        <ele>529.7</ele>
        <time>2026-02-22T09:42:14Z</time>
      </trkpt>
      <trkpt lat="43.60281" lon="6.38375">
        <ele>529.7</ele>
        <time>2026-02-22T09:42:15Z</time>
      </trkpt>
      <trkpt lat="43.60281" lon="6.38376">
        <ele>529.6</ele>
        <time>2026-02-22T09:42:16Z</time>
      </trkpt>
      <trkpt lat="43.60281" lon="6.38376">
        <ele>529.5</ele>
        <time>2026-02-22T09:42:17Z</time>
      </trkpt>
      <trkpt lat="43.60281" lon="6.38376">
        <ele>529.5</ele>
        <time>2026-02-22T09:42:18Z</time>
      </trkpt>
      <trkpt lat="43.60282" lon="6.38375">
        <ele>529.4</ele>
        <time>2026-02-22T09:42:19Z</time>
      </trkpt>
      <trkpt lat="43.60282" lon="6.38375">
        <ele>529.4</ele>
        <time>2026-02-22T09:42:20Z</time>
      </trkpt>
      <trkpt lat="43.60283" lon="6.38375">
        <ele>529.4</ele>
        <time>2026-02-22T09:42:21Z</time>
      </trkpt>
      <trkpt lat="43.60284" lon="6.38375">
        <ele>529.3</ele>
        <time>2026-02-22T09:42:22Z</time>
      </trkpt>
      <trkpt lat="43.60285" lon="6.38374">
        <ele>529.3</ele>
        <time>2026-02-22T09:42:23Z</time>
      </trkpt>
      <trkpt lat="43.60285" lon="6.38374">
        <ele>529.2</ele>
        <time>2026-02-22T09:42:24Z</time>
      </trkpt>
      <trkpt lat="43.60286" lon="6.38373">
        <ele>529.2</ele>
        <time>2026-02-22T09:42:25Z</time>
      </trkpt>
      <trkpt lat="43.60287" lon="6.38373">
        <ele>529.2</ele>
        <time>2026-02-22T09:42:26Z</time>
      </trkpt>
      <trkpt lat="43.60287" lon="6.38371">
        <ele>529.2</ele>
        <time>2026-02-22T09:42:27Z</time>
      </trkpt>
      <trkpt lat="43.60288" lon="6.38371">
        <ele>529.2</ele>
        <time>2026-02-22T09:42:28Z</time>
      </trkpt>
      <trkpt lat="43.60288" lon="6.3837">
        <ele>529.2</ele>
        <time>2026-02-22T09:42:29Z</time>
      </trkpt>
      <trkpt lat="43.60288" lon="6.3837">
        <ele>529.3</ele>
        <time>2026-02-22T09:42:30Z</time>
      </trkpt>
      <trkpt lat="43.60289" lon="6.3837">
        <ele>529.4</ele>
        <time>2026-02-22T09:42:31Z</time>
      </trkpt>
      <trkpt lat="43.60289" lon="6.3837">
        <ele>529.4</ele>
        <time>2026-02-22T09:42:32Z</time>
      </trkpt>
      <trkpt lat="43.60288" lon="6.3837">
        <ele>529.4</ele>
        <time>2026-02-22T09:42:33Z</time>
      </trkpt>
      <trkpt lat="43.60288" lon="6.3837">
        <ele>529.4</ele>
        <time>2026-02-22T09:42:34Z</time>
      </trkpt>
      <trkpt lat="43.60288" lon="6.38371">
        <ele>529.4</ele>
        <time>2026-02-22T09:42:35Z</time>
      </trkpt>
      <trkpt lat="43.60289" lon="6.38371">
        <ele>529.4</ele>
        <time>2026-02-22T09:42:36Z</time>
      </trkpt>
      <trkpt lat="43.6029" lon="6.3837">
        <ele>529.4</ele>
        <time>2026-02-22T09:42:37Z</time>
      </trkpt>
      <trkpt lat="43.60291" lon="6.3837">
        <ele>529.3</ele>
        <time>2026-02-22T09:42:38Z</time>
      </trkpt>
      <trkpt lat="43.60291" lon="6.3837">
        <ele>529.3</ele>
        <time>2026-02-22T09:42:39Z</time>
      </trkpt>
      <trkpt lat="43.60292" lon="6.38369">
        <ele>529.4</ele>
        <time>2026-02-22T09:42:40Z</time>
      </trkpt>
      <trkpt lat="43.60293" lon="6.38368">
        <ele>529.4</ele>
        <time>2026-02-22T09:42:41Z</time>
      </trkpt>
      <trkpt lat="43.60293" lon="6.38368">
        <ele>529.3</ele>
        <time>2026-02-22T09:42:42Z</time>
      </trkpt>
      <trkpt lat="43.60293" lon="6.38368">
        <ele>529.4</ele>
        <time>2026-02-22T09:42:43Z</time>
      </trkpt>
      <trkpt lat="43.60294" lon="6.38368">
        <ele>529.4</ele>
        <time>2026-02-22T09:42:44Z</time>
      </trkpt>
      <trkpt lat="43.60295" lon="6.38367">
        <ele>529.4</ele>
        <time>2026-02-22T09:42:45Z</time>
      </trkpt>
      <trkpt lat="43.60296" lon="6.38367">
        <ele>529.4</ele>
        <time>2026-02-22T09:42:46Z</time>
      </trkpt>
      <trkpt lat="43.60297" lon="6.38367">
        <ele>529.4</ele>
        <time>2026-02-22T09:42:47Z</time>
      </trkpt>
      <trkpt lat="43.60297" lon="6.38367">
        <ele>529.3</ele>
        <time>2026-02-22T09:42:48Z</time>
      </trkpt>
      <trkpt lat="43.60297" lon="6.38367">
        <ele>529.3</ele>
        <time>2026-02-22T09:42:49Z</time>
      </trkpt>
      <trkpt lat="43.60298" lon="6.38367">
        <ele>529.2</ele>
        <time>2026-02-22T09:42:50Z</time>
      </trkpt>
      <trkpt lat="43.60298" lon="6.38367">
        <ele>529.2</ele>
        <time>2026-02-22T09:42:51Z</time>
      </trkpt>
      <trkpt lat="43.60298" lon="6.38367">
        <ele>529.2</ele>
        <time>2026-02-22T09:42:52Z</time>
      </trkpt>
      <trkpt lat="43.60298" lon="6.38367">
        <ele>529</ele>
        <time>2026-02-22T09:42:53Z</time>
      </trkpt>
      <trkpt lat="43.60298" lon="6.38366">
        <ele>528.8</ele>
        <time>2026-02-22T09:42:54Z</time>
      </trkpt>
      <trkpt lat="43.60297" lon="6.38365">
        <ele>528.8</ele>
        <time>2026-02-22T09:42:55Z</time>
      </trkpt>
      <trkpt lat="43.60298" lon="6.38364">
        <ele>528.9</ele>
        <time>2026-02-22T09:42:56Z</time>
      </trkpt>
      <trkpt lat="43.60298" lon="6.38363">
        <ele>528.7</ele>
        <time>2026-02-22T09:42:57Z</time>
      </trkpt>
      <trkpt lat="43.60299" lon="6.38362">
        <ele>528.6</ele>
        <time>2026-02-22T09:42:58Z</time>
      </trkpt>
      <trkpt lat="43.60299" lon="6.38362">
        <ele>528.6</ele>
        <time>2026-02-22T09:42:59Z</time>
      </trkpt>
      <trkpt lat="43.603" lon="6.38362">
        <ele>528.4</ele>
        <time>2026-02-22T09:43:00Z</time>
      </trkpt>
      <trkpt lat="43.603" lon="6.38362">
        <ele>528.4</ele>
        <time>2026-02-22T09:43:01Z</time>
      </trkpt>
      <trkpt lat="43.603" lon="6.38361">
        <ele>528.2</ele>
        <time>2026-02-22T09:43:02Z</time>
      </trkpt>
      <trkpt lat="43.603" lon="6.38361">
        <ele>528.2</ele>
        <time>2026-02-22T09:43:03Z</time>
      </trkpt>
      <trkpt lat="43.603" lon="6.38361">
        <ele>528.2</ele>
        <time>2026-02-22T09:43:04Z</time>
      </trkpt>
      <trkpt lat="43.603" lon="6.38361">
        <ele>528</ele>
        <time>2026-02-22T09:43:05Z</time>
      </trkpt>
      <trkpt lat="43.60301" lon="6.3836">
        <ele>527.9</ele>
        <time>2026-02-22T09:43:06Z</time>
      </trkpt>
      <trkpt lat="43.60301" lon="6.3836">
        <ele>527.9</ele>
        <time>2026-02-22T09:43:07Z</time>
      </trkpt>
      <trkpt lat="43.60301" lon="6.3836">
        <ele>527.9</ele>
        <time>2026-02-22T09:43:08Z</time>
      </trkpt>
      <trkpt lat="43.60302" lon="6.3836">
        <ele>527.9</ele>
        <time>2026-02-22T09:43:09Z</time>
      </trkpt>
      <trkpt lat="43.60302" lon="6.38359">
        <ele>527.9</ele>
        <time>2026-02-22T09:43:10Z</time>
      </trkpt>
      <trkpt lat="43.60303" lon="6.38359">
        <ele>527.8</ele>
        <time>2026-02-22T09:43:11Z</time>
      </trkpt>
      <trkpt lat="43.60303" lon="6.38359">
        <ele>527.8</ele>
        <time>2026-02-22T09:43:12Z</time>
      </trkpt>
      <trkpt lat="43.60303" lon="6.38359">
        <ele>527.8</ele>
        <time>2026-02-22T09:43:13Z</time>
      </trkpt>
      <trkpt lat="43.60303" lon="6.38358">
        <ele>527.8</ele>
        <time>2026-02-22T09:43:14Z</time>
      </trkpt>
      <trkpt lat="43.60304" lon="6.38359">
        <ele>527.7</ele>
        <time>2026-02-22T09:43:15Z</time>
      </trkpt>
      <trkpt lat="43.60304" lon="6.38359">
        <ele>527.8</ele>
        <time>2026-02-22T09:43:16Z</time>
      </trkpt>
      <trkpt lat="43.60304" lon="6.38358">
        <ele>527.8</ele>
        <time>2026-02-22T09:43:17Z</time>
      </trkpt>
      <trkpt lat="43.60304" lon="6.38358">
        <ele>527.9</ele>
        <time>2026-02-22T09:43:18Z</time>
      </trkpt>
      <trkpt lat="43.60304" lon="6.38358">
        <ele>527.8</ele>
        <time>2026-02-22T09:43:19Z</time>
      </trkpt>
      <trkpt lat="43.60304" lon="6.38358">
        <ele>527.8</ele>
        <time>2026-02-22T09:43:20Z</time>
      </trkpt>
      <trkpt lat="43.60304" lon="6.38358">
        <ele>527.8</ele>
        <time>2026-02-22T09:43:21Z</time>
      </trkpt>
      <trkpt lat="43.60304" lon="6.38358">
        <ele>527.9</ele>
        <time>2026-02-22T09:43:22Z</time>
      </trkpt>
      <trkpt lat="43.60304" lon="6.38358">
        <ele>527.8</ele>
        <time>2026-02-22T09:43:23Z</time>
      </trkpt>
      <trkpt lat="43.60304" lon="6.38358">
        <ele>527.9</ele>
        <time>2026-02-22T09:43:24Z</time>
      </trkpt>
      <trkpt lat="43.60304" lon="6.38358">
        <ele>527.9</ele>
        <time>2026-02-22T09:43:25Z</time>
      </trkpt>
      <trkpt lat="43.60304" lon="6.38358">
        <ele>527.9</ele>
        <time>2026-02-22T09:43:26Z</time>
      </trkpt>
      <trkpt lat="43.60305" lon="6.38358">
        <ele>528</ele>
        <time>2026-02-22T09:43:27Z</time>
      </trkpt>
      <trkpt lat="43.60305" lon="6.38358">
        <ele>528</ele>
        <time>2026-02-22T09:43:28Z</time>
      </trkpt>
      <trkpt lat="43.60305" lon="6.38358">
        <ele>527.9</ele>
        <time>2026-02-22T09:43:29Z</time>
      </trkpt>
      <trkpt lat="43.60305" lon="6.38358">
        <ele>527.8</ele>
        <time>2026-02-22T09:43:30Z</time>
      </trkpt>
      <trkpt lat="43.60305" lon="6.38358">
        <ele>527.8</ele>
        <time>2026-02-22T09:43:31Z</time>
      </trkpt>
      <trkpt lat="43.60305" lon="6.38357">
        <ele>527.7</ele>
        <time>2026-02-22T09:43:32Z</time>
      </trkpt>
      <trkpt lat="43.60305" lon="6.38357">
        <ele>527.6</ele>
        <time>2026-02-22T09:43:33Z</time>
      </trkpt>
      <trkpt lat="43.60305" lon="6.38357">
        <ele>527.6</ele>
        <time>2026-02-22T09:43:34Z</time>
      </trkpt>
      <trkpt lat="43.60305" lon="6.38357">
        <ele>527.6</ele>
        <time>2026-02-22T09:43:35Z</time>
      </trkpt>
      <trkpt lat="43.60305" lon="6.38357">
        <ele>527.7</ele>
        <time>2026-02-22T09:43:36Z</time>
      </trkpt>
      <trkpt lat="43.60305" lon="6.38357">
        <ele>527.8</ele>
        <time>2026-02-22T09:43:37Z</time>
      </trkpt>
      <trkpt lat="43.60305" lon="6.38356">
        <ele>527.8</ele>
        <time>2026-02-22T09:43:38Z</time>
      </trkpt>
      <trkpt lat="43.60305" lon="6.38357">
        <ele>527.7</ele>
        <time>2026-02-22T09:43:39Z</time>
      </trkpt>
      <trkpt lat="43.60305" lon="6.38357">
        <ele>527.7</ele>
        <time>2026-02-22T09:43:40Z</time>
      </trkpt>
      <trkpt lat="43.60305" lon="6.38357">
        <ele>527.6</ele>
        <time>2026-02-22T09:43:41Z</time>
      </trkpt>
      <trkpt lat="43.60305" lon="6.38357">
        <ele>527.6</ele>
        <time>2026-02-22T09:43:42Z</time>
      </trkpt>
      <trkpt lat="43.60305" lon="6.38358">
        <ele>527.6</ele>
        <time>2026-02-22T09:43:43Z</time>
      </trkpt>
      <trkpt lat="43.60305" lon="6.38358">
        <ele>527.6</ele>
        <time>2026-02-22T09:43:44Z</time>
      </trkpt>
      <trkpt lat="43.60305" lon="6.38359">
        <ele>527.6</ele>
        <time>2026-02-22T09:43:45Z</time>
      </trkpt>
      <trkpt lat="43.60305" lon="6.38359">
        <ele>527.6</ele>
        <time>2026-02-22T09:43:46Z</time>
      </trkpt>
      <trkpt lat="43.60305" lon="6.38359">
        <ele>527.6</ele>
        <time>2026-02-22T09:43:47Z</time>
      </trkpt>
      <trkpt lat="43.60305" lon="6.38359">
        <ele>527.6</ele>
        <time>2026-02-22T09:43:48Z</time>
      </trkpt>
      <trkpt lat="43.60305" lon="6.38359">
        <ele>527.6</ele>
        <time>2026-02-22T09:43:49Z</time>
      </trkpt>
      <trkpt lat="43.60305" lon="6.38359">
        <ele>527.6</ele>
        <time>2026-02-22T09:43:50Z</time>
      </trkpt>
      <trkpt lat="43.60305" lon="6.38359">
        <ele>527.6</ele>
        <time>2026-02-22T09:43:51Z</time>
      </trkpt>
      <trkpt lat="43.60305" lon="6.38359">
        <ele>527.7</ele>
        <time>2026-02-22T09:43:52Z</time>
      </trkpt>
      <trkpt lat="43.60305" lon="6.38359">
        <ele>527.7</ele>
        <time>2026-02-22T09:43:53Z</time>
      </trkpt>
      <trkpt lat="43.60305" lon="6.38359">
        <ele>527.7</ele>
        <time>2026-02-22T09:43:54Z</time>
      </trkpt>
      <trkpt lat="43.60305" lon="6.38359">
        <ele>527.6</ele>
        <time>2026-02-22T09:43:55Z</time>
      </trkpt>
      <trkpt lat="43.60306" lon="6.38359">
        <ele>527.7</ele>
        <time>2026-02-22T09:43:56Z</time>
      </trkpt>
      <trkpt lat="43.60305" lon="6.38359">
        <ele>527.7</ele>
        <time>2026-02-22T09:43:57Z</time>
      </trkpt>
      <trkpt lat="43.60305" lon="6.38359">
        <ele>527.7</ele>
        <time>2026-02-22T09:43:58Z</time>
      </trkpt>
      <trkpt lat="43.60305" lon="6.38359">
        <ele>527.8</ele>
        <time>2026-02-22T09:43:59Z</time>
      </trkpt>
      <trkpt lat="43.60306" lon="6.38359">
        <ele>527.8</ele>
        <time>2026-02-22T09:44:00Z</time>
      </trkpt>
      <trkpt lat="43.60306" lon="6.38358">
        <ele>528</ele>
        <time>2026-02-22T09:44:01Z</time>
      </trkpt>
      <trkpt lat="43.60305" lon="6.38357">
        <ele>527.9</ele>
        <time>2026-02-22T09:44:02Z</time>
      </trkpt>
      <trkpt lat="43.60305" lon="6.38357">
        <ele>527.9</ele>
        <time>2026-02-22T09:44:03Z</time>
      </trkpt>
      <trkpt lat="43.60303" lon="6.38356">
        <ele>527.8</ele>
        <time>2026-02-22T09:44:04Z</time>
      </trkpt>
      <trkpt lat="43.60302" lon="6.38355">
        <ele>527.7</ele>
        <time>2026-02-22T09:44:05Z</time>
      </trkpt>
      <trkpt lat="43.60302" lon="6.38355">
        <ele>527.5</ele>
        <time>2026-02-22T09:44:06Z</time>
      </trkpt>
      <trkpt lat="43.60301" lon="6.38354">
        <ele>527.3</ele>
        <time>2026-02-22T09:44:07Z</time>
      </trkpt>
      <trkpt lat="43.60301" lon="6.38354">
        <ele>527.2</ele>
        <time>2026-02-22T09:44:08Z</time>
      </trkpt>
      <trkpt lat="43.603" lon="6.38353">
        <ele>527.1</ele>
        <time>2026-02-22T09:44:09Z</time>
      </trkpt>
      <trkpt lat="43.603" lon="6.38352">
        <ele>527</ele>
        <time>2026-02-22T09:44:10Z</time>
      </trkpt>
      <trkpt lat="43.60299" lon="6.38351">
        <ele>526.9</ele>
        <time>2026-02-22T09:44:11Z</time>
      </trkpt>
      <trkpt lat="43.60299" lon="6.38351">
        <ele>526.9</ele>
        <time>2026-02-22T09:44:12Z</time>
      </trkpt>
      <trkpt lat="43.60298" lon="6.38351">
        <ele>526.8</ele>
        <time>2026-02-22T09:44:13Z</time>
      </trkpt>
      <trkpt lat="43.60297" lon="6.38351">
        <ele>526.8</ele>
        <time>2026-02-22T09:44:14Z</time>
      </trkpt>
      <trkpt lat="43.60296" lon="6.3835">
        <ele>526.7</ele>
        <time>2026-02-22T09:44:15Z</time>
      </trkpt>
      <trkpt lat="43.60295" lon="6.3835">
        <ele>526.7</ele>
        <time>2026-02-22T09:44:16Z</time>
      </trkpt>
      <trkpt lat="43.60294" lon="6.3835">
        <ele>526.6</ele>
        <time>2026-02-22T09:44:17Z</time>
      </trkpt>
      <trkpt lat="43.60293" lon="6.38349">
        <ele>526.5</ele>
        <time>2026-02-22T09:44:18Z</time>
      </trkpt>
      <trkpt lat="43.60292" lon="6.38349">
        <ele>526.4</ele>
        <time>2026-02-22T09:44:19Z</time>
      </trkpt>
      <trkpt lat="43.60292" lon="6.38349">
        <ele>526.4</ele>
        <time>2026-02-22T09:44:20Z</time>
      </trkpt>
      <trkpt lat="43.60291" lon="6.38349">
        <ele>526.4</ele>
        <time>2026-02-22T09:44:21Z</time>
      </trkpt>
      <trkpt lat="43.60291" lon="6.38348">
        <ele>526.4</ele>
        <time>2026-02-22T09:44:22Z</time>
      </trkpt>
      <trkpt lat="43.6029" lon="6.38348">
        <ele>526.3</ele>
        <time>2026-02-22T09:44:23Z</time>
      </trkpt>
      <trkpt lat="43.6029" lon="6.38348">
        <ele>526.3</ele>
        <time>2026-02-22T09:44:24Z</time>
      </trkpt>
      <trkpt lat="43.6029" lon="6.38348">
        <ele>526.4</ele>
        <time>2026-02-22T09:44:25Z</time>
      </trkpt>
      <trkpt lat="43.60289" lon="6.38348">
        <ele>526.3</ele>
        <time>2026-02-22T09:44:26Z</time>
      </trkpt>
      <trkpt lat="43.60289" lon="6.38348">
        <ele>526.4</ele>
        <time>2026-02-22T09:44:27Z</time>
      </trkpt>
      <trkpt lat="43.60289" lon="6.38348">
        <ele>526.5</ele>
        <time>2026-02-22T09:44:28Z</time>
      </trkpt>
      <trkpt lat="43.60289" lon="6.38348">
        <ele>526.5</ele>
        <time>2026-02-22T09:44:29Z</time>
      </trkpt>
      <trkpt lat="43.60289" lon="6.38348">
        <ele>526.5</ele>
        <time>2026-02-22T09:44:30Z</time>
      </trkpt>
      <trkpt lat="43.60288" lon="6.38348">
        <ele>526.5</ele>
        <time>2026-02-22T09:44:31Z</time>
      </trkpt>
      <trkpt lat="43.60288" lon="6.38348">
        <ele>526.5</ele>
        <time>2026-02-22T09:44:32Z</time>
      </trkpt>
      <trkpt lat="43.60288" lon="6.38349">
        <ele>526.5</ele>
        <time>2026-02-22T09:44:33Z</time>
      </trkpt>
      <trkpt lat="43.60289" lon="6.38349">
        <ele>526.5</ele>
        <time>2026-02-22T09:44:34Z</time>
      </trkpt>
      <trkpt lat="43.60289" lon="6.38349">
        <ele>526.6</ele>
        <time>2026-02-22T09:44:35Z</time>
      </trkpt>
      <trkpt lat="43.60289" lon="6.38349">
        <ele>526.6</ele>
        <time>2026-02-22T09:44:36Z</time>
      </trkpt>
      <trkpt lat="43.60288" lon="6.38349">
        <ele>526.5</ele>
        <time>2026-02-22T09:44:37Z</time>
      </trkpt>
      <trkpt lat="43.60288" lon="6.38348">
        <ele>526.5</ele>
        <time>2026-02-22T09:44:38Z</time>
      </trkpt>
      <trkpt lat="43.60288" lon="6.38349">
        <ele>526.4</ele>
        <time>2026-02-22T09:44:39Z</time>
      </trkpt>
      <trkpt lat="43.60288" lon="6.38349">
        <ele>526.4</ele>
        <time>2026-02-22T09:44:40Z</time>
      </trkpt>
      <trkpt lat="43.60288" lon="6.38349">
        <ele>526.4</ele>
        <time>2026-02-22T09:44:41Z</time>
      </trkpt>
      <trkpt lat="43.60287" lon="6.38349">
        <ele>526.4</ele>
        <time>2026-02-22T09:44:42Z</time>
      </trkpt>
      <trkpt lat="43.60287" lon="6.38349">
        <ele>526.4</ele>
        <time>2026-02-22T09:44:43Z</time>
      </trkpt>
      <trkpt lat="43.60286" lon="6.38349">
        <ele>526.4</ele>
        <time>2026-02-22T09:44:44Z</time>
      </trkpt>
      <trkpt lat="43.60286" lon="6.38349">
        <ele>526.4</ele>
        <time>2026-02-22T09:44:45Z</time>
      </trkpt>
      <trkpt lat="43.60286" lon="6.38349">
        <ele>526.3</ele>
        <time>2026-02-22T09:44:46Z</time>
      </trkpt>
      <trkpt lat="43.60285" lon="6.38349">
        <ele>526.4</ele>
        <time>2026-02-22T09:44:47Z</time>
      </trkpt>
      <trkpt lat="43.60285" lon="6.38349">
        <ele>526.4</ele>
        <time>2026-02-22T09:44:48Z</time>
      </trkpt>
      <trkpt lat="43.60286" lon="6.38349">
        <ele>526.4</ele>
        <time>2026-02-22T09:44:49Z</time>
      </trkpt>
      <trkpt lat="43.60286" lon="6.38349">
        <ele>526.4</ele>
        <time>2026-02-22T09:44:50Z</time>
      </trkpt>
      <trkpt lat="43.60286" lon="6.38348">
        <ele>526.4</ele>
        <time>2026-02-22T09:44:51Z</time>
      </trkpt>
      <trkpt lat="43.60286" lon="6.38348">
        <ele>526.4</ele>
        <time>2026-02-22T09:44:52Z</time>
      </trkpt>
      <trkpt lat="43.60286" lon="6.38348">
        <ele>526.4</ele>
        <time>2026-02-22T09:44:53Z</time>
      </trkpt>
      <trkpt lat="43.60286" lon="6.38348">
        <ele>526.4</ele>
        <time>2026-02-22T09:44:54Z</time>
      </trkpt>
      <trkpt lat="43.60286" lon="6.38348">
        <ele>526.3</ele>
        <time>2026-02-22T09:44:55Z</time>
      </trkpt>
      <trkpt lat="43.60285" lon="6.38348">
        <ele>526.4</ele>
        <time>2026-02-22T09:44:56Z</time>
      </trkpt>
      <trkpt lat="43.60285" lon="6.38349">
        <ele>526.5</ele>
        <time>2026-02-22T09:44:57Z</time>
      </trkpt>
      <trkpt lat="43.60284" lon="6.38349">
        <ele>526.5</ele>
        <time>2026-02-22T09:44:58Z</time>
      </trkpt>
      <trkpt lat="43.60284" lon="6.38349">
        <ele>526.5</ele>
        <time>2026-02-22T09:44:59Z</time>
      </trkpt>
      <trkpt lat="43.60284" lon="6.38349">
        <ele>526.5</ele>
        <time>2026-02-22T09:45:00Z</time>
      </trkpt>
      <trkpt lat="43.60284" lon="6.38349">
        <ele>526.4</ele>
        <time>2026-02-22T09:45:01Z</time>
      </trkpt>
      <trkpt lat="43.60284" lon="6.38349">
        <ele>526.4</ele>
        <time>2026-02-22T09:45:02Z</time>
      </trkpt>
      <trkpt lat="43.60284" lon="6.38349">
        <ele>526.4</ele>
        <time>2026-02-22T09:45:03Z</time>
      </trkpt>
      <trkpt lat="43.60284" lon="6.38349">
        <ele>526.3</ele>
        <time>2026-02-22T09:45:04Z</time>
      </trkpt>
      <trkpt lat="43.60284" lon="6.38349">
        <ele>526.3</ele>
        <time>2026-02-22T09:45:05Z</time>
      </trkpt>
      <trkpt lat="43.60285" lon="6.38349">
        <ele>526.3</ele>
        <time>2026-02-22T09:45:06Z</time>
      </trkpt>
      <trkpt lat="43.60285" lon="6.38349">
        <ele>526.2</ele>
        <time>2026-02-22T09:45:07Z</time>
      </trkpt>
      <trkpt lat="43.60285" lon="6.38349">
        <ele>526.3</ele>
        <time>2026-02-22T09:45:08Z</time>
      </trkpt>
      <trkpt lat="43.60285" lon="6.38349">
        <ele>526.3</ele>
        <time>2026-02-22T09:45:09Z</time>
      </trkpt>
      <trkpt lat="43.60285" lon="6.38349">
        <ele>526.3</ele>
        <time>2026-02-22T09:45:10Z</time>
      </trkpt>
      <trkpt lat="43.60285" lon="6.38349">
        <ele>526.4</ele>
        <time>2026-02-22T09:45:11Z</time>
      </trkpt>
      <trkpt lat="43.60286" lon="6.38349">
        <ele>526.4</ele>
        <time>2026-02-22T09:45:12Z</time>
      </trkpt>
      <trkpt lat="43.60286" lon="6.38349">
        <ele>526.6</ele>
        <time>2026-02-22T09:45:13Z</time>
      </trkpt>
      <trkpt lat="43.60286" lon="6.38349">
        <ele>526.6</ele>
        <time>2026-02-22T09:45:14Z</time>
      </trkpt>
      <trkpt lat="43.60286" lon="6.38349">
        <ele>526.6</ele>
        <time>2026-02-22T09:45:15Z</time>
      </trkpt>
      <trkpt lat="43.60286" lon="6.38349">
        <ele>526.6</ele>
        <time>2026-02-22T09:45:16Z</time>
      </trkpt>
      <trkpt lat="43.60286" lon="6.38349">
        <ele>526.6</ele>
        <time>2026-02-22T09:45:17Z</time>
      </trkpt>
      <trkpt lat="43.60286" lon="6.38349">
        <ele>526.6</ele>
        <time>2026-02-22T09:45:18Z</time>
      </trkpt>
      <trkpt lat="43.60287" lon="6.3835">
        <ele>526.6</ele>
        <time>2026-02-22T09:45:19Z</time>
      </trkpt>
      <trkpt lat="43.60287" lon="6.38351">
        <ele>526.5</ele>
        <time>2026-02-22T09:45:20Z</time>
      </trkpt>
      <trkpt lat="43.60287" lon="6.38351">
        <ele>526.5</ele>
        <time>2026-02-22T09:45:21Z</time>
      </trkpt>
      <trkpt lat="43.60288" lon="6.38351">
        <ele>526.4</ele>
        <time>2026-02-22T09:45:22Z</time>
      </trkpt>
      <trkpt lat="43.60288" lon="6.38351">
        <ele>526.4</ele>
        <time>2026-02-22T09:45:23Z</time>
      </trkpt>
      <trkpt lat="43.60289" lon="6.38351">
        <ele>526.4</ele>
        <time>2026-02-22T09:45:24Z</time>
      </trkpt>
      <trkpt lat="43.60289" lon="6.38351">
        <ele>526.4</ele>
        <time>2026-02-22T09:45:25Z</time>
      </trkpt>
      <trkpt lat="43.60289" lon="6.3835">
        <ele>526.4</ele>
        <time>2026-02-22T09:45:26Z</time>
      </trkpt>
      <trkpt lat="43.6029" lon="6.3835">
        <ele>526.4</ele>
        <time>2026-02-22T09:45:27Z</time>
      </trkpt>
      <trkpt lat="43.60291" lon="6.38349">
        <ele>526.4</ele>
        <time>2026-02-22T09:45:28Z</time>
      </trkpt>
      <trkpt lat="43.60291" lon="6.38349">
        <ele>526.4</ele>
        <time>2026-02-22T09:45:29Z</time>
      </trkpt>
      <trkpt lat="43.60291" lon="6.38349">
        <ele>526.4</ele>
        <time>2026-02-22T09:45:30Z</time>
      </trkpt>
      <trkpt lat="43.60291" lon="6.38349">
        <ele>526.4</ele>
        <time>2026-02-22T09:45:31Z</time>
      </trkpt>
      <trkpt lat="43.60292" lon="6.3835">
        <ele>526.5</ele>
        <time>2026-02-22T09:45:32Z</time>
      </trkpt>
      <trkpt lat="43.60292" lon="6.3835">
        <ele>526.5</ele>
        <time>2026-02-22T09:45:33Z</time>
      </trkpt>
      <trkpt lat="43.60293" lon="6.38351">
        <ele>526.5</ele>
        <time>2026-02-22T09:45:34Z</time>
      </trkpt>
      <trkpt lat="43.60294" lon="6.38353">
        <ele>526.5</ele>
        <time>2026-02-22T09:45:35Z</time>
      </trkpt>
      <trkpt lat="43.60295" lon="6.38353">
        <ele>526.5</ele>
        <time>2026-02-22T09:45:36Z</time>
      </trkpt>
      <trkpt lat="43.60295" lon="6.38354">
        <ele>526.6</ele>
        <time>2026-02-22T09:45:37Z</time>
      </trkpt>
      <trkpt lat="43.60296" lon="6.38355">
        <ele>526.7</ele>
        <time>2026-02-22T09:45:38Z</time>
      </trkpt>
      <trkpt lat="43.60296" lon="6.38356">
        <ele>526.8</ele>
        <time>2026-02-22T09:45:39Z</time>
      </trkpt>
      <trkpt lat="43.60296" lon="6.38356">
        <ele>527</ele>
        <time>2026-02-22T09:45:40Z</time>
      </trkpt>
      <trkpt lat="43.60296" lon="6.38356">
        <ele>527.1</ele>
        <time>2026-02-22T09:45:41Z</time>
      </trkpt>
      <trkpt lat="43.60297" lon="6.38356">
        <ele>527.3</ele>
        <time>2026-02-22T09:45:42Z</time>
      </trkpt>
      <trkpt lat="43.60297" lon="6.38356">
        <ele>527.6</ele>
        <time>2026-02-22T09:45:43Z</time>
      </trkpt>
      <trkpt lat="43.60297" lon="6.38357">
        <ele>527.7</ele>
        <time>2026-02-22T09:45:44Z</time>
      </trkpt>
      <trkpt lat="43.60298" lon="6.38357">
        <ele>527.9</ele>
        <time>2026-02-22T09:45:45Z</time>
      </trkpt>
      <trkpt lat="43.60299" lon="6.38357">
        <ele>528</ele>
        <time>2026-02-22T09:45:46Z</time>
      </trkpt>
      <trkpt lat="43.60299" lon="6.38357">
        <ele>527.9</ele>
        <time>2026-02-22T09:45:47Z</time>
      </trkpt>
      <trkpt lat="43.60299" lon="6.38357">
        <ele>527.9</ele>
        <time>2026-02-22T09:45:48Z</time>
      </trkpt>
      <trkpt lat="43.60299" lon="6.38357">
        <ele>528</ele>
        <time>2026-02-22T09:45:49Z</time>
      </trkpt>
      <trkpt lat="43.60299" lon="6.38357">
        <ele>528</ele>
        <time>2026-02-22T09:45:50Z</time>
      </trkpt>
      <trkpt lat="43.60299" lon="6.38357">
        <ele>528</ele>
        <time>2026-02-22T09:45:51Z</time>
      </trkpt>
      <trkpt lat="43.60299" lon="6.38357">
        <ele>528</ele>
        <time>2026-02-22T09:45:52Z</time>
      </trkpt>
      <trkpt lat="43.60299" lon="6.38357">
        <ele>528</ele>
        <time>2026-02-22T09:45:53Z</time>
      </trkpt>
      <trkpt lat="43.603" lon="6.38356">
        <ele>527.9</ele>
        <time>2026-02-22T09:45:54Z</time>
      </trkpt>
      <trkpt lat="43.603" lon="6.38356">
        <ele>527.9</ele>
        <time>2026-02-22T09:45:55Z</time>
      </trkpt>
      <trkpt lat="43.603" lon="6.38356">
        <ele>527.9</ele>
        <time>2026-02-22T09:45:56Z</time>
      </trkpt>
      <trkpt lat="43.603" lon="6.38356">
        <ele>527.9</ele>
        <time>2026-02-22T09:45:57Z</time>
      </trkpt>
      <trkpt lat="43.60301" lon="6.38356">
        <ele>527.8</ele>
        <time>2026-02-22T09:45:58Z</time>
      </trkpt>
      <trkpt lat="43.60301" lon="6.38356">
        <ele>527.8</ele>
        <time>2026-02-22T09:45:59Z</time>
      </trkpt>
      <trkpt lat="43.603" lon="6.38356">
        <ele>527.8</ele>
        <time>2026-02-22T09:46:00Z</time>
      </trkpt>
      <trkpt lat="43.603" lon="6.38356">
        <ele>527.8</ele>
        <time>2026-02-22T09:46:01Z</time>
      </trkpt>
      <trkpt lat="43.60301" lon="6.38356">
        <ele>527.6</ele>
        <time>2026-02-22T09:46:02Z</time>
      </trkpt>
      <trkpt lat="43.60301" lon="6.38356">
        <ele>527.6</ele>
        <time>2026-02-22T09:46:03Z</time>
      </trkpt>
      <trkpt lat="43.60301" lon="6.38356">
        <ele>527.6</ele>
        <time>2026-02-22T09:46:04Z</time>
      </trkpt>
      <trkpt lat="43.60301" lon="6.38356">
        <ele>527.6</ele>
        <time>2026-02-22T09:46:05Z</time>
      </trkpt>
      <trkpt lat="43.60301" lon="6.38355">
        <ele>527.7</ele>
        <time>2026-02-22T09:46:06Z</time>
      </trkpt>
      <trkpt lat="43.60302" lon="6.38355">
        <ele>527.8</ele>
        <time>2026-02-22T09:46:07Z</time>
      </trkpt>
      <trkpt lat="43.60302" lon="6.38355">
        <ele>527.8</ele>
        <time>2026-02-22T09:46:08Z</time>
      </trkpt>
      <trkpt lat="43.60302" lon="6.38355">
        <ele>527.8</ele>
        <time>2026-02-22T09:46:09Z</time>
      </trkpt>
      <trkpt lat="43.60302" lon="6.38355">
        <ele>527.9</ele>
        <time>2026-02-22T09:46:10Z</time>
      </trkpt>
      <trkpt lat="43.60302" lon="6.38355">
        <ele>527.9</ele>
        <time>2026-02-22T09:46:11Z</time>
      </trkpt>
      <trkpt lat="43.60302" lon="6.38355">
        <ele>528</ele>
        <time>2026-02-22T09:46:12Z</time>
      </trkpt>
      <trkpt lat="43.60302" lon="6.38355">
        <ele>528</ele>
        <time>2026-02-22T09:46:13Z</time>
      </trkpt>
      <trkpt lat="43.60302" lon="6.38355">
        <ele>528</ele>
        <time>2026-02-22T09:46:14Z</time>
      </trkpt>
      <trkpt lat="43.60302" lon="6.38355">
        <ele>528</ele>
        <time>2026-02-22T09:46:15Z</time>
      </trkpt>
      <trkpt lat="43.60302" lon="6.38355">
        <ele>528</ele>
        <time>2026-02-22T09:46:16Z</time>
      </trkpt>
      <trkpt lat="43.60303" lon="6.38355">
        <ele>528</ele>
        <time>2026-02-22T09:46:17Z</time>
      </trkpt>
      <trkpt lat="43.60303" lon="6.38355">
        <ele>528</ele>
        <time>2026-02-22T09:46:18Z</time>
      </trkpt>
      <trkpt lat="43.60303" lon="6.38355">
        <ele>528</ele>
        <time>2026-02-22T09:46:19Z</time>
      </trkpt>
      <trkpt lat="43.60303" lon="6.38355">
        <ele>528</ele>
        <time>2026-02-22T09:46:20Z</time>
      </trkpt>
      <trkpt lat="43.60303" lon="6.38355">
        <ele>528</ele>
        <time>2026-02-22T09:46:21Z</time>
      </trkpt>
      <trkpt lat="43.60303" lon="6.38355">
        <ele>528</ele>
        <time>2026-02-22T09:46:22Z</time>
      </trkpt>
      <trkpt lat="43.60303" lon="6.38355">
        <ele>528</ele>
        <time>2026-02-22T09:46:23Z</time>
      </trkpt>
      <trkpt lat="43.60303" lon="6.38356">
        <ele>527.9</ele>
        <time>2026-02-22T09:46:24Z</time>
      </trkpt>
      <trkpt lat="43.60303" lon="6.38356">
        <ele>527.9</ele>
        <time>2026-02-22T09:46:25Z</time>
      </trkpt>
      <trkpt lat="43.60303" lon="6.38356">
        <ele>527.9</ele>
        <time>2026-02-22T09:46:26Z</time>
      </trkpt>
      <trkpt lat="43.60303" lon="6.38356">
        <ele>528</ele>
        <time>2026-02-22T09:46:27Z</time>
      </trkpt>
      <trkpt lat="43.60303" lon="6.38356">
        <ele>527.9</ele>
        <time>2026-02-22T09:46:28Z</time>
      </trkpt>
      <trkpt lat="43.60303" lon="6.38356">
        <ele>527.9</ele>
        <time>2026-02-22T09:46:29Z</time>
      </trkpt>
      <trkpt lat="43.60303" lon="6.38356">
        <ele>527.9</ele>
        <time>2026-02-22T09:46:30Z</time>
      </trkpt>
      <trkpt lat="43.60302" lon="6.38356">
        <ele>527.8</ele>
        <time>2026-02-22T09:46:31Z</time>
      </trkpt>
      <trkpt lat="43.60302" lon="6.38356">
        <ele>527.8</ele>
        <time>2026-02-22T09:46:32Z</time>
      </trkpt>
      <trkpt lat="43.60302" lon="6.38356">
        <ele>527.8</ele>
        <time>2026-02-22T09:46:33Z</time>
      </trkpt>
      <trkpt lat="43.60302" lon="6.38356">
        <ele>527.8</ele>
        <time>2026-02-22T09:46:34Z</time>
      </trkpt>
      <trkpt lat="43.60303" lon="6.38356">
        <ele>527.8</ele>
        <time>2026-02-22T09:46:35Z</time>
      </trkpt>
      <trkpt lat="43.60303" lon="6.38356">
        <ele>527.8</ele>
        <time>2026-02-22T09:46:36Z</time>
      </trkpt>
      <trkpt lat="43.60303" lon="6.38356">
        <ele>527.8</ele>
        <time>2026-02-22T09:46:37Z</time>
      </trkpt>
      <trkpt lat="43.60303" lon="6.38356">
        <ele>527.8</ele>
        <time>2026-02-22T09:46:38Z</time>
      </trkpt>
      <trkpt lat="43.60303" lon="6.38356">
        <ele>527.8</ele>
        <time>2026-02-22T09:46:39Z</time>
      </trkpt>
      <trkpt lat="43.60302" lon="6.38356">
        <ele>527.8</ele>
        <time>2026-02-22T09:46:40Z</time>
      </trkpt>
      <trkpt lat="43.60303" lon="6.38355">
        <ele>527.8</ele>
        <time>2026-02-22T09:46:41Z</time>
      </trkpt>
      <trkpt lat="43.60303" lon="6.38355">
        <ele>527.8</ele>
        <time>2026-02-22T09:46:42Z</time>
      </trkpt>
      <trkpt lat="43.60303" lon="6.38355">
        <ele>527.8</ele>
        <time>2026-02-22T09:46:43Z</time>
      </trkpt>
      <trkpt lat="43.60303" lon="6.38355">
        <ele>527.9</ele>
        <time>2026-02-22T09:46:44Z</time>
      </trkpt>
      <trkpt lat="43.60302" lon="6.38355">
        <ele>527.8</ele>
        <time>2026-02-22T09:46:45Z</time>
      </trkpt>
      <trkpt lat="43.60302" lon="6.38355">
        <ele>527.9</ele>
        <time>2026-02-22T09:46:46Z</time>
      </trkpt>
      <trkpt lat="43.60302" lon="6.38355">
        <ele>527.9</ele>
        <time>2026-02-22T09:46:47Z</time>
      </trkpt>
      <trkpt lat="43.60302" lon="6.38355">
        <ele>527.9</ele>
        <time>2026-02-22T09:46:48Z</time>
      </trkpt>
      <trkpt lat="43.60302" lon="6.38355">
        <ele>527.9</ele>
        <time>2026-02-22T09:46:49Z</time>
      </trkpt>
      <trkpt lat="43.60303" lon="6.38355">
        <ele>527.9</ele>
        <time>2026-02-22T09:46:50Z</time>
      </trkpt>
      <trkpt lat="43.60302" lon="6.38355">
        <ele>527.9</ele>
        <time>2026-02-22T09:46:51Z</time>
      </trkpt>
      <trkpt lat="43.60302" lon="6.38355">
        <ele>527.9</ele>
        <time>2026-02-22T09:46:52Z</time>
      </trkpt>
      <trkpt lat="43.60302" lon="6.38355">
        <ele>527.9</ele>
        <time>2026-02-22T09:46:53Z</time>
      </trkpt>
      <trkpt lat="43.60302" lon="6.38355">
        <ele>527.9</ele>
        <time>2026-02-22T09:46:54Z</time>
      </trkpt>
      <trkpt lat="43.60302" lon="6.38356">
        <ele>528</ele>
        <time>2026-02-22T09:46:55Z</time>
      </trkpt>
      <trkpt lat="43.60303" lon="6.38356">
        <ele>528</ele>
        <time>2026-02-22T09:46:56Z</time>
      </trkpt>
      <trkpt lat="43.60303" lon="6.38356">
        <ele>527.9</ele>
        <time>2026-02-22T09:46:57Z</time>
      </trkpt>
      <trkpt lat="43.60303" lon="6.38356">
        <ele>527.9</ele>
        <time>2026-02-22T09:46:58Z</time>
      </trkpt>
      <trkpt lat="43.60303" lon="6.38356">
        <ele>528</ele>
        <time>2026-02-22T09:46:59Z</time>
      </trkpt>
      <trkpt lat="43.60303" lon="6.38356">
        <ele>527.9</ele>
        <time>2026-02-22T09:47:00Z</time>
      </trkpt>
      <trkpt lat="43.60303" lon="6.38356">
        <ele>527.9</ele>
        <time>2026-02-22T09:47:01Z</time>
      </trkpt>
      <trkpt lat="43.60303" lon="6.38356">
        <ele>527.9</ele>
        <time>2026-02-22T09:47:02Z</time>
      </trkpt>
      <trkpt lat="43.60303" lon="6.38356">
        <ele>527.9</ele>
        <time>2026-02-22T09:47:03Z</time>
      </trkpt>
      <trkpt lat="43.60303" lon="6.38356">
        <ele>527.9</ele>
        <time>2026-02-22T09:47:04Z</time>
      </trkpt>
      <trkpt lat="43.60302" lon="6.38356">
        <ele>527.9</ele>
        <time>2026-02-22T09:47:05Z</time>
      </trkpt>
      <trkpt lat="43.60302" lon="6.38357">
        <ele>527.8</ele>
        <time>2026-02-22T09:47:06Z</time>
      </trkpt>
      <trkpt lat="43.60302" lon="6.38357">
        <ele>527.8</ele>
        <time>2026-02-22T09:47:07Z</time>
      </trkpt>
      <trkpt lat="43.60302" lon="6.38357">
        <ele>527.8</ele>
        <time>2026-02-22T09:47:08Z</time>
      </trkpt>
      <trkpt lat="43.60302" lon="6.38357">
        <ele>527.8</ele>
        <time>2026-02-22T09:47:09Z</time>
      </trkpt>
      <trkpt lat="43.60302" lon="6.38356">
        <ele>527.8</ele>
        <time>2026-02-22T09:47:10Z</time>
      </trkpt>
      <trkpt lat="43.60302" lon="6.38356">
        <ele>527.9</ele>
        <time>2026-02-22T09:47:11Z</time>
      </trkpt>
      <trkpt lat="43.60302" lon="6.38356">
        <ele>527.9</ele>
        <time>2026-02-22T09:47:12Z</time>
      </trkpt>
      <trkpt lat="43.60302" lon="6.38356">
        <ele>527.8</ele>
        <time>2026-02-22T09:47:13Z</time>
      </trkpt>
      <trkpt lat="43.60302" lon="6.38357">
        <ele>527.8</ele>
        <time>2026-02-22T09:47:14Z</time>
      </trkpt>
      <trkpt lat="43.60302" lon="6.38357">
        <ele>527.7</ele>
        <time>2026-02-22T09:47:15Z</time>
      </trkpt>
      <trkpt lat="43.60302" lon="6.38357">
        <ele>527.7</ele>
        <time>2026-02-22T09:47:16Z</time>
      </trkpt>
      <trkpt lat="43.60302" lon="6.38357">
        <ele>527.7</ele>
        <time>2026-02-22T09:47:17Z</time>
      </trkpt>
      <trkpt lat="43.60302" lon="6.38356">
        <ele>527.7</ele>
        <time>2026-02-22T09:47:18Z</time>
      </trkpt>
      <trkpt lat="43.60302" lon="6.38356">
        <ele>527.8</ele>
        <time>2026-02-22T09:47:19Z</time>
      </trkpt>
      <trkpt lat="43.60302" lon="6.38356">
        <ele>527.8</ele>
        <time>2026-02-22T09:47:20Z</time>
      </trkpt>
      <trkpt lat="43.60302" lon="6.38356">
        <ele>527.9</ele>
        <time>2026-02-22T09:47:21Z</time>
      </trkpt>
      <trkpt lat="43.60302" lon="6.38356">
        <ele>527.9</ele>
        <time>2026-02-22T09:47:22Z</time>
      </trkpt>
      <trkpt lat="43.60302" lon="6.38355">
        <ele>528</ele>
        <time>2026-02-22T09:47:23Z</time>
      </trkpt>
      <trkpt lat="43.60302" lon="6.38355">
        <ele>528</ele>
        <time>2026-02-22T09:47:24Z</time>
      </trkpt>
      <trkpt lat="43.60302" lon="6.38356">
        <ele>528</ele>
        <time>2026-02-22T09:47:25Z</time>
      </trkpt>
      <trkpt lat="43.60302" lon="6.38356">
        <ele>528.1</ele>
        <time>2026-02-22T09:47:26Z</time>
      </trkpt>
      <trkpt lat="43.60302" lon="6.38355">
        <ele>528</ele>
        <time>2026-02-22T09:47:27Z</time>
      </trkpt>
      <trkpt lat="43.60302" lon="6.38356">
        <ele>527.9</ele>
        <time>2026-02-22T09:47:28Z</time>
      </trkpt>
      <trkpt lat="43.60302" lon="6.38356">
        <ele>527.9</ele>
        <time>2026-02-22T09:47:29Z</time>
      </trkpt>
      <trkpt lat="43.60302" lon="6.38355">
        <ele>527.8</ele>
        <time>2026-02-22T09:47:30Z</time>
      </trkpt>
      <trkpt lat="43.60302" lon="6.38355">
        <ele>527.9</ele>
        <time>2026-02-22T09:47:31Z</time>
      </trkpt>
      <trkpt lat="43.60302" lon="6.38356">
        <ele>527.9</ele>
        <time>2026-02-22T09:47:32Z</time>
      </trkpt>
      <trkpt lat="43.60302" lon="6.38356">
        <ele>527.9</ele>
        <time>2026-02-22T09:47:33Z</time>
      </trkpt>
      <trkpt lat="43.60302" lon="6.38356">
        <ele>527.9</ele>
        <time>2026-02-22T09:47:34Z</time>
      </trkpt>
      <trkpt lat="43.60302" lon="6.38356">
        <ele>528</ele>
        <time>2026-02-22T09:47:35Z</time>
      </trkpt>
      <trkpt lat="43.60302" lon="6.38356">
        <ele>528</ele>
        <time>2026-02-22T09:47:36Z</time>
      </trkpt>
      <trkpt lat="43.60301" lon="6.38357">
        <ele>528</ele>
        <time>2026-02-22T09:47:37Z</time>
      </trkpt>
      <trkpt lat="43.60302" lon="6.38357">
        <ele>528</ele>
        <time>2026-02-22T09:47:38Z</time>
      </trkpt>
      <trkpt lat="43.60302" lon="6.38357">
        <ele>528</ele>
        <time>2026-02-22T09:47:39Z</time>
      </trkpt>
      <trkpt lat="43.60302" lon="6.38357">
        <ele>528</ele>
        <time>2026-02-22T09:47:40Z</time>
      </trkpt>
      <trkpt lat="43.60302" lon="6.38357">
        <ele>528</ele>
        <time>2026-02-22T09:47:41Z</time>
      </trkpt>
      <trkpt lat="43.60302" lon="6.38357">
        <ele>528</ele>
        <time>2026-02-22T09:47:42Z</time>
      </trkpt>
      <trkpt lat="43.60302" lon="6.38357">
        <ele>527.9</ele>
        <time>2026-02-22T09:47:43Z</time>
      </trkpt>
      <trkpt lat="43.60302" lon="6.38357">
        <ele>527.9</ele>
        <time>2026-02-22T09:47:44Z</time>
      </trkpt>
      <trkpt lat="43.60302" lon="6.38357">
        <ele>527.9</ele>
        <time>2026-02-22T09:47:45Z</time>
      </trkpt>
      <trkpt lat="43.60302" lon="6.38358">
        <ele>527.9</ele>
        <time>2026-02-22T09:47:46Z</time>
      </trkpt>
      <trkpt lat="43.60302" lon="6.38358">
        <ele>527.8</ele>
        <time>2026-02-22T09:47:47Z</time>
      </trkpt>
      <trkpt lat="43.60303" lon="6.38358">
        <ele>527.8</ele>
        <time>2026-02-22T09:47:48Z</time>
      </trkpt>
      <trkpt lat="43.60303" lon="6.38358">
        <ele>527.8</ele>
        <time>2026-02-22T09:47:49Z</time>
      </trkpt>
      <trkpt lat="43.60303" lon="6.38358">
        <ele>527.8</ele>
        <time>2026-02-22T09:47:50Z</time>
      </trkpt>
      <trkpt lat="43.60303" lon="6.38358">
        <ele>527.8</ele>
        <time>2026-02-22T09:47:51Z</time>
      </trkpt>
      <trkpt lat="43.60303" lon="6.38359">
        <ele>527.8</ele>
        <time>2026-02-22T09:47:52Z</time>
      </trkpt>
      <trkpt lat="43.60303" lon="6.38359">
        <ele>527.7</ele>
        <time>2026-02-22T09:47:53Z</time>
      </trkpt>
      <trkpt lat="43.60303" lon="6.38359">
        <ele>527.7</ele>
        <time>2026-02-22T09:47:54Z</time>
      </trkpt>
      <trkpt lat="43.60303" lon="6.38359">
        <ele>527.6</ele>
        <time>2026-02-22T09:47:55Z</time>
      </trkpt>
      <trkpt lat="43.60303" lon="6.38359">
        <ele>527.7</ele>
        <time>2026-02-22T09:47:56Z</time>
      </trkpt>
      <trkpt lat="43.60303" lon="6.38359">
        <ele>527.7</ele>
        <time>2026-02-22T09:47:57Z</time>
      </trkpt>
      <trkpt lat="43.60303" lon="6.38359">
        <ele>527.7</ele>
        <time>2026-02-22T09:47:58Z</time>
      </trkpt>
      <trkpt lat="43.60304" lon="6.38359">
        <ele>527.7</ele>
        <time>2026-02-22T09:47:59Z</time>
      </trkpt>
      <trkpt lat="43.60304" lon="6.38359">
        <ele>527.7</ele>
        <time>2026-02-22T09:48:00Z</time>
      </trkpt>
      <trkpt lat="43.60304" lon="6.3836">
        <ele>527.7</ele>
        <time>2026-02-22T09:48:01Z</time>
      </trkpt>
      <trkpt lat="43.60304" lon="6.38359">
        <ele>527.9</ele>
        <time>2026-02-22T09:48:02Z</time>
      </trkpt>
      <trkpt lat="43.60304" lon="6.38359">
        <ele>527.9</ele>
        <time>2026-02-22T09:48:03Z</time>
      </trkpt>
      <trkpt lat="43.60304" lon="6.38359">
        <ele>527.9</ele>
        <time>2026-02-22T09:48:04Z</time>
      </trkpt>
      <trkpt lat="43.60304" lon="6.38359">
        <ele>528</ele>
        <time>2026-02-22T09:48:05Z</time>
      </trkpt>
      <trkpt lat="43.60304" lon="6.38359">
        <ele>528</ele>
        <time>2026-02-22T09:48:06Z</time>
      </trkpt>
      <trkpt lat="43.60305" lon="6.38359">
        <ele>528</ele>
        <time>2026-02-22T09:48:07Z</time>
      </trkpt>
      <trkpt lat="43.60305" lon="6.38359">
        <ele>528</ele>
        <time>2026-02-22T09:48:08Z</time>
      </trkpt>
      <trkpt lat="43.60305" lon="6.38358">
        <ele>528</ele>
        <time>2026-02-22T09:48:09Z</time>
      </trkpt>
      <trkpt lat="43.60305" lon="6.38358">
        <ele>528</ele>
        <time>2026-02-22T09:48:10Z</time>
      </trkpt>
      <trkpt lat="43.60305" lon="6.38358">
        <ele>528</ele>
        <time>2026-02-22T09:48:11Z</time>
      </trkpt>
      <trkpt lat="43.60305" lon="6.38358">
        <ele>528</ele>
        <time>2026-02-22T09:48:12Z</time>
      </trkpt>
      <trkpt lat="43.60305" lon="6.38359">
        <ele>528</ele>
        <time>2026-02-22T09:48:13Z</time>
      </trkpt>
      <trkpt lat="43.60306" lon="6.38359">
        <ele>528.1</ele>
        <time>2026-02-22T09:48:14Z</time>
      </trkpt>
      <trkpt lat="43.60306" lon="6.38359">
        <ele>528.1</ele>
        <time>2026-02-22T09:48:15Z</time>
      </trkpt>
      <trkpt lat="43.60306" lon="6.38358">
        <ele>528.1</ele>
        <time>2026-02-22T09:48:16Z</time>
      </trkpt>
      <trkpt lat="43.60305" lon="6.38357">
        <ele>528.1</ele>
        <time>2026-02-22T09:48:17Z</time>
      </trkpt>
      <trkpt lat="43.60304" lon="6.38356">
        <ele>527.9</ele>
        <time>2026-02-22T09:48:18Z</time>
      </trkpt>
      <trkpt lat="43.60303" lon="6.38355">
        <ele>527.9</ele>
        <time>2026-02-22T09:48:19Z</time>
      </trkpt>
      <trkpt lat="43.60302" lon="6.38354">
        <ele>527.7</ele>
        <time>2026-02-22T09:48:20Z</time>
      </trkpt>
      <trkpt lat="43.60302" lon="6.38354">
        <ele>527.5</ele>
        <time>2026-02-22T09:48:21Z</time>
      </trkpt>
      <trkpt lat="43.60301" lon="6.38353">
        <ele>527.3</ele>
        <time>2026-02-22T09:48:22Z</time>
      </trkpt>
      <trkpt lat="43.603" lon="6.38353">
        <ele>527.1</ele>
        <time>2026-02-22T09:48:23Z</time>
      </trkpt>
      <trkpt lat="43.60299" lon="6.38352">
        <ele>527</ele>
        <time>2026-02-22T09:48:24Z</time>
      </trkpt>
      <trkpt lat="43.60298" lon="6.38352">
        <ele>526.9</ele>
        <time>2026-02-22T09:48:25Z</time>
      </trkpt>
      <trkpt lat="43.60297" lon="6.38352">
        <ele>526.8</ele>
        <time>2026-02-22T09:48:26Z</time>
      </trkpt>
      <trkpt lat="43.60297" lon="6.38351">
        <ele>526.7</ele>
        <time>2026-02-22T09:48:27Z</time>
      </trkpt>
      <trkpt lat="43.60296" lon="6.38351">
        <ele>526.7</ele>
        <time>2026-02-22T09:48:28Z</time>
      </trkpt>
      <trkpt lat="43.60296" lon="6.38351">
        <ele>526.5</ele>
        <time>2026-02-22T09:48:29Z</time>
      </trkpt>
      <trkpt lat="43.60295" lon="6.38351">
        <ele>526.3</ele>
        <time>2026-02-22T09:48:30Z</time>
      </trkpt>
      <trkpt lat="43.60295" lon="6.38351">
        <ele>526.3</ele>
        <time>2026-02-22T09:48:31Z</time>
      </trkpt>
      <trkpt lat="43.60295" lon="6.3835">
        <ele>526.2</ele>
        <time>2026-02-22T09:48:32Z</time>
      </trkpt>
      <trkpt lat="43.60295" lon="6.3835">
        <ele>526.2</ele>
        <time>2026-02-22T09:48:33Z</time>
      </trkpt>
      <trkpt lat="43.60294" lon="6.3835">
        <ele>526.1</ele>
        <time>2026-02-22T09:48:34Z</time>
      </trkpt>
      <trkpt lat="43.60294" lon="6.3835">
        <ele>526.1</ele>
        <time>2026-02-22T09:48:35Z</time>
      </trkpt>
      <trkpt lat="43.60293" lon="6.3835">
        <ele>526.1</ele>
        <time>2026-02-22T09:48:36Z</time>
      </trkpt>
      <trkpt lat="43.60292" lon="6.3835">
        <ele>526.2</ele>
        <time>2026-02-22T09:48:37Z</time>
      </trkpt>
      <trkpt lat="43.60292" lon="6.3835">
        <ele>526.1</ele>
        <time>2026-02-22T09:48:38Z</time>
      </trkpt>
      <trkpt lat="43.60291" lon="6.3835">
        <ele>526</ele>
        <time>2026-02-22T09:48:39Z</time>
      </trkpt>
      <trkpt lat="43.6029" lon="6.3835">
        <ele>526.1</ele>
        <time>2026-02-22T09:48:40Z</time>
      </trkpt>
      <trkpt lat="43.60289" lon="6.3835">
        <ele>526.1</ele>
        <time>2026-02-22T09:48:41Z</time>
      </trkpt>
      <trkpt lat="43.60289" lon="6.38351">
        <ele>526.1</ele>
        <time>2026-02-22T09:48:42Z</time>
      </trkpt>
      <trkpt lat="43.60289" lon="6.3835">
        <ele>526.1</ele>
        <time>2026-02-22T09:48:43Z</time>
      </trkpt>
      <trkpt lat="43.60288" lon="6.38351">
        <ele>526.1</ele>
        <time>2026-02-22T09:48:44Z</time>
      </trkpt>
      <trkpt lat="43.60288" lon="6.38351">
        <ele>526.1</ele>
        <time>2026-02-22T09:48:45Z</time>
      </trkpt>
      <trkpt lat="43.60288" lon="6.38351">
        <ele>526</ele>
        <time>2026-02-22T09:48:46Z</time>
      </trkpt>
      <trkpt lat="43.60288" lon="6.38351">
        <ele>526</ele>
        <time>2026-02-22T09:48:47Z</time>
      </trkpt>
      <trkpt lat="43.60288" lon="6.38351">
        <ele>525.9</ele>
        <time>2026-02-22T09:48:48Z</time>
      </trkpt>
      <trkpt lat="43.60288" lon="6.38351">
        <ele>525.8</ele>
        <time>2026-02-22T09:48:49Z</time>
      </trkpt>
      <trkpt lat="43.60288" lon="6.38352">
        <ele>525.8</ele>
        <time>2026-02-22T09:48:50Z</time>
      </trkpt>
      <trkpt lat="43.60288" lon="6.38352">
        <ele>525.9</ele>
        <time>2026-02-22T09:48:51Z</time>
      </trkpt>
      <trkpt lat="43.60288" lon="6.38352">
        <ele>525.9</ele>
        <time>2026-02-22T09:48:52Z</time>
      </trkpt>
      <trkpt lat="43.60288" lon="6.38352">
        <ele>526</ele>
        <time>2026-02-22T09:48:53Z</time>
      </trkpt>
      <trkpt lat="43.60287" lon="6.38351">
        <ele>526.1</ele>
        <time>2026-02-22T09:48:54Z</time>
      </trkpt>
      <trkpt lat="43.60287" lon="6.38351">
        <ele>526</ele>
        <time>2026-02-22T09:48:55Z</time>
      </trkpt>
      <trkpt lat="43.60287" lon="6.38351">
        <ele>526.1</ele>
        <time>2026-02-22T09:48:56Z</time>
      </trkpt>
      <trkpt lat="43.60287" lon="6.38351">
        <ele>526</ele>
        <time>2026-02-22T09:48:57Z</time>
      </trkpt>
      <trkpt lat="43.60288" lon="6.38351">
        <ele>526</ele>
        <time>2026-02-22T09:48:58Z</time>
      </trkpt>
      <trkpt lat="43.60288" lon="6.38351">
        <ele>526</ele>
        <time>2026-02-22T09:48:59Z</time>
      </trkpt>
      <trkpt lat="43.60288" lon="6.3835">
        <ele>526</ele>
        <time>2026-02-22T09:49:00Z</time>
      </trkpt>
      <trkpt lat="43.60288" lon="6.38351">
        <ele>525.9</ele>
        <time>2026-02-22T09:49:01Z</time>
      </trkpt>
      <trkpt lat="43.60288" lon="6.38351">
        <ele>525.9</ele>
        <time>2026-02-22T09:49:02Z</time>
      </trkpt>
      <trkpt lat="43.60288" lon="6.38351">
        <ele>525.9</ele>
        <time>2026-02-22T09:49:03Z</time>
      </trkpt>
      <trkpt lat="43.60288" lon="6.38351">
        <ele>525.9</ele>
        <time>2026-02-22T09:49:04Z</time>
      </trkpt>
      <trkpt lat="43.60288" lon="6.38351">
        <ele>525.9</ele>
        <time>2026-02-22T09:49:05Z</time>
      </trkpt>
      <trkpt lat="43.60288" lon="6.38351">
        <ele>526</ele>
        <time>2026-02-22T09:49:06Z</time>
      </trkpt>
      <trkpt lat="43.60289" lon="6.38351">
        <ele>526</ele>
        <time>2026-02-22T09:49:07Z</time>
      </trkpt>
      <trkpt lat="43.60289" lon="6.38351">
        <ele>526</ele>
        <time>2026-02-22T09:49:08Z</time>
      </trkpt>
      <trkpt lat="43.60289" lon="6.38351">
        <ele>526</ele>
        <time>2026-02-22T09:49:09Z</time>
      </trkpt>
      <trkpt lat="43.60289" lon="6.3835">
        <ele>526</ele>
        <time>2026-02-22T09:49:10Z</time>
      </trkpt>
      <trkpt lat="43.60289" lon="6.3835">
        <ele>526</ele>
        <time>2026-02-22T09:49:11Z</time>
      </trkpt>
      <trkpt lat="43.60289" lon="6.3835">
        <ele>526.1</ele>
        <time>2026-02-22T09:49:12Z</time>
      </trkpt>
      <trkpt lat="43.60289" lon="6.3835">
        <ele>526.1</ele>
        <time>2026-02-22T09:49:13Z</time>
      </trkpt>
      <trkpt lat="43.60288" lon="6.3835">
        <ele>526.2</ele>
        <time>2026-02-22T09:49:14Z</time>
      </trkpt>
      <trkpt lat="43.60288" lon="6.38351">
        <ele>526.2</ele>
        <time>2026-02-22T09:49:15Z</time>
      </trkpt>
      <trkpt lat="43.60288" lon="6.38351">
        <ele>526.2</ele>
        <time>2026-02-22T09:49:16Z</time>
      </trkpt>
      <trkpt lat="43.60287" lon="6.38351">
        <ele>526.2</ele>
        <time>2026-02-22T09:49:17Z</time>
      </trkpt>
      <trkpt lat="43.60287" lon="6.38351">
        <ele>526.3</ele>
        <time>2026-02-22T09:49:18Z</time>
      </trkpt>
      <trkpt lat="43.60287" lon="6.38351">
        <ele>526.3</ele>
        <time>2026-02-22T09:49:19Z</time>
      </trkpt>
      <trkpt lat="43.60287" lon="6.38351">
        <ele>526.3</ele>
        <time>2026-02-22T09:49:20Z</time>
      </trkpt>
      <trkpt lat="43.60287" lon="6.38351">
        <ele>526.3</ele>
        <time>2026-02-22T09:49:21Z</time>
      </trkpt>
      <trkpt lat="43.60287" lon="6.3835">
        <ele>526.3</ele>
        <time>2026-02-22T09:49:22Z</time>
      </trkpt>
      <trkpt lat="43.60286" lon="6.38351">
        <ele>526.4</ele>
        <time>2026-02-22T09:49:23Z</time>
      </trkpt>
      <trkpt lat="43.60287" lon="6.3835">
        <ele>526.5</ele>
        <time>2026-02-22T09:49:24Z</time>
      </trkpt>
      <trkpt lat="43.60287" lon="6.3835">
        <ele>526.5</ele>
        <time>2026-02-22T09:49:25Z</time>
      </trkpt>
      <trkpt lat="43.60287" lon="6.3835">
        <ele>526.5</ele>
        <time>2026-02-22T09:49:26Z</time>
      </trkpt>
      <trkpt lat="43.60287" lon="6.3835">
        <ele>526.6</ele>
        <time>2026-02-22T09:49:27Z</time>
      </trkpt>
      <trkpt lat="43.60288" lon="6.3835">
        <ele>526.6</ele>
        <time>2026-02-22T09:49:28Z</time>
      </trkpt>
      <trkpt lat="43.60287" lon="6.3835">
        <ele>526.6</ele>
        <time>2026-02-22T09:49:29Z</time>
      </trkpt>
      <trkpt lat="43.60288" lon="6.38351">
        <ele>526.6</ele>
        <time>2026-02-22T09:49:30Z</time>
      </trkpt>
      <trkpt lat="43.60288" lon="6.38352">
        <ele>526.6</ele>
        <time>2026-02-22T09:49:31Z</time>
      </trkpt>
      <trkpt lat="43.60289" lon="6.38353">
        <ele>526.6</ele>
        <time>2026-02-22T09:49:32Z</time>
      </trkpt>
      <trkpt lat="43.60289" lon="6.38354">
        <ele>526.5</ele>
        <time>2026-02-22T09:49:33Z</time>
      </trkpt>
      <trkpt lat="43.60289" lon="6.38354">
        <ele>526.5</ele>
        <time>2026-02-22T09:49:34Z</time>
      </trkpt>
      <trkpt lat="43.6029" lon="6.38355">
        <ele>526.5</ele>
        <time>2026-02-22T09:49:35Z</time>
      </trkpt>
      <trkpt lat="43.6029" lon="6.38356">
        <ele>526.5</ele>
        <time>2026-02-22T09:49:36Z</time>
      </trkpt>
      <trkpt lat="43.60291" lon="6.38357">
        <ele>526.5</ele>
        <time>2026-02-22T09:49:37Z</time>
      </trkpt>
      <trkpt lat="43.60292" lon="6.38358">
        <ele>526.5</ele>
        <time>2026-02-22T09:49:38Z</time>
      </trkpt>
      <trkpt lat="43.60293" lon="6.38359">
        <ele>526.6</ele>
        <time>2026-02-22T09:49:39Z</time>
      </trkpt>
      <trkpt lat="43.60293" lon="6.3836">
        <ele>526.7</ele>
        <time>2026-02-22T09:49:40Z</time>
      </trkpt>
      <trkpt lat="43.60293" lon="6.38361">
        <ele>526.8</ele>
        <time>2026-02-22T09:49:41Z</time>
      </trkpt>
      <trkpt lat="43.60293" lon="6.38361">
        <ele>526.9</ele>
        <time>2026-02-22T09:49:42Z</time>
      </trkpt>
      <trkpt lat="43.60294" lon="6.38361">
        <ele>527.1</ele>
        <time>2026-02-22T09:49:43Z</time>
      </trkpt>
      <trkpt lat="43.60293" lon="6.38361">
        <ele>527.3</ele>
        <time>2026-02-22T09:49:44Z</time>
      </trkpt>
      <trkpt lat="43.60293" lon="6.38361">
        <ele>527.4</ele>
        <time>2026-02-22T09:49:45Z</time>
      </trkpt>
      <trkpt lat="43.60293" lon="6.38361">
        <ele>527.5</ele>
        <time>2026-02-22T09:49:46Z</time>
      </trkpt>
      <trkpt lat="43.60293" lon="6.38361">
        <ele>527.7</ele>
        <time>2026-02-22T09:49:47Z</time>
      </trkpt>
      <trkpt lat="43.60294" lon="6.38361">
        <ele>527.8</ele>
        <time>2026-02-22T09:49:48Z</time>
      </trkpt>
      <trkpt lat="43.60295" lon="6.38361">
        <ele>528</ele>
        <time>2026-02-22T09:49:49Z</time>
      </trkpt>
      <trkpt lat="43.60295" lon="6.38362">
        <ele>528.2</ele>
        <time>2026-02-22T09:49:50Z</time>
      </trkpt>
      <trkpt lat="43.60295" lon="6.38362">
        <ele>528.3</ele>
        <time>2026-02-22T09:49:51Z</time>
      </trkpt>
      <trkpt lat="43.60295" lon="6.38363">
        <ele>528.3</ele>
        <time>2026-02-22T09:49:52Z</time>
      </trkpt>
      <trkpt lat="43.60296" lon="6.38362">
        <ele>528.5</ele>
        <time>2026-02-22T09:49:53Z</time>
      </trkpt>
      <trkpt lat="43.60296" lon="6.38362">
        <ele>528.6</ele>
        <time>2026-02-22T09:49:54Z</time>
      </trkpt>
      <trkpt lat="43.60296" lon="6.38362">
        <ele>528.7</ele>
        <time>2026-02-22T09:49:55Z</time>
      </trkpt>
      <trkpt lat="43.60297" lon="6.38362">
        <ele>528.7</ele>
        <time>2026-02-22T09:49:56Z</time>
      </trkpt>
      <trkpt lat="43.60298" lon="6.38362">
        <ele>528.8</ele>
        <time>2026-02-22T09:49:57Z</time>
      </trkpt>
      <trkpt lat="43.60298" lon="6.38363">
        <ele>528.8</ele>
        <time>2026-02-22T09:49:58Z</time>
      </trkpt>
      <trkpt lat="43.60298" lon="6.38363">
        <ele>528.8</ele>
        <time>2026-02-22T09:49:59Z</time>
      </trkpt>
      <trkpt lat="43.60298" lon="6.38364">
        <ele>528.8</ele>
        <time>2026-02-22T09:50:00Z</time>
      </trkpt>
      <trkpt lat="43.60299" lon="6.38364">
        <ele>528.9</ele>
        <time>2026-02-22T09:50:01Z</time>
      </trkpt>
      <trkpt lat="43.60299" lon="6.38364">
        <ele>528.9</ele>
        <time>2026-02-22T09:50:02Z</time>
      </trkpt>
      <trkpt lat="43.60299" lon="6.38365">
        <ele>529</ele>
        <time>2026-02-22T09:50:03Z</time>
      </trkpt>
      <trkpt lat="43.60299" lon="6.38365">
        <ele>529.1</ele>
        <time>2026-02-22T09:50:04Z</time>
      </trkpt>
      <trkpt lat="43.60299" lon="6.38365">
        <ele>529.1</ele>
        <time>2026-02-22T09:50:05Z</time>
      </trkpt>
      <trkpt lat="43.60298" lon="6.38365">
        <ele>529.2</ele>
        <time>2026-02-22T09:50:06Z</time>
      </trkpt>
      <trkpt lat="43.60298" lon="6.38365">
        <ele>529.2</ele>
        <time>2026-02-22T09:50:07Z</time>
      </trkpt>
      <trkpt lat="43.60297" lon="6.38365">
        <ele>529.2</ele>
        <time>2026-02-22T09:50:08Z</time>
      </trkpt>
      <trkpt lat="43.60296" lon="6.38365">
        <ele>529.4</ele>
        <time>2026-02-22T09:50:09Z</time>
      </trkpt>
      <trkpt lat="43.60296" lon="6.38365">
        <ele>529.4</ele>
        <time>2026-02-22T09:50:10Z</time>
      </trkpt>
      <trkpt lat="43.60295" lon="6.38365">
        <ele>529.5</ele>
        <time>2026-02-22T09:50:11Z</time>
      </trkpt>
      <trkpt lat="43.60294" lon="6.38366">
        <ele>529.5</ele>
        <time>2026-02-22T09:50:12Z</time>
      </trkpt>
      <trkpt lat="43.60294" lon="6.38365">
        <ele>529.6</ele>
        <time>2026-02-22T09:50:13Z</time>
      </trkpt>
      <trkpt lat="43.60293" lon="6.38366">
        <ele>529.6</ele>
        <time>2026-02-22T09:50:14Z</time>
      </trkpt>
      <trkpt lat="43.60293" lon="6.38365">
        <ele>529.8</ele>
        <time>2026-02-22T09:50:15Z</time>
      </trkpt>
      <trkpt lat="43.60293" lon="6.38365">
        <ele>529.8</ele>
        <time>2026-02-22T09:50:16Z</time>
      </trkpt>
      <trkpt lat="43.60292" lon="6.38365">
        <ele>529.8</ele>
        <time>2026-02-22T09:50:17Z</time>
      </trkpt>
      <trkpt lat="43.60292" lon="6.38365">
        <ele>529.7</ele>
        <time>2026-02-22T09:50:18Z</time>
      </trkpt>
      <trkpt lat="43.60292" lon="6.38365">
        <ele>529.6</ele>
        <time>2026-02-22T09:50:19Z</time>
      </trkpt>
      <trkpt lat="43.60292" lon="6.38366">
        <ele>529.6</ele>
        <time>2026-02-22T09:50:20Z</time>
      </trkpt>
      <trkpt lat="43.60292" lon="6.38366">
        <ele>529.4</ele>
        <time>2026-02-22T09:50:21Z</time>
      </trkpt>
      <trkpt lat="43.60292" lon="6.38366">
        <ele>529.4</ele>
        <time>2026-02-22T09:50:22Z</time>
      </trkpt>
      <trkpt lat="43.60293" lon="6.38366">
        <ele>529.4</ele>
        <time>2026-02-22T09:50:23Z</time>
      </trkpt>
      <trkpt lat="43.60293" lon="6.38366">
        <ele>529.4</ele>
        <time>2026-02-22T09:50:24Z</time>
      </trkpt>
      <trkpt lat="43.60293" lon="6.38366">
        <ele>529.4</ele>
        <time>2026-02-22T09:50:25Z</time>
      </trkpt>
      <trkpt lat="43.60293" lon="6.38366">
        <ele>529.4</ele>
        <time>2026-02-22T09:50:26Z</time>
      </trkpt>
      <trkpt lat="43.60293" lon="6.38366">
        <ele>529.4</ele>
        <time>2026-02-22T09:50:27Z</time>
      </trkpt>
      <trkpt lat="43.60293" lon="6.38366">
        <ele>529.3</ele>
        <time>2026-02-22T09:50:28Z</time>
      </trkpt>
      <trkpt lat="43.60293" lon="6.38367">
        <ele>529.4</ele>
        <time>2026-02-22T09:50:29Z</time>
      </trkpt>
      <trkpt lat="43.60293" lon="6.38367">
        <ele>529.5</ele>
        <time>2026-02-22T09:50:30Z</time>
      </trkpt>
      <trkpt lat="43.60294" lon="6.38367">
        <ele>529.4</ele>
        <time>2026-02-22T09:50:31Z</time>
      </trkpt>
      <trkpt lat="43.60294" lon="6.38367">
        <ele>529.4</ele>
        <time>2026-02-22T09:50:32Z</time>
      </trkpt>
      <trkpt lat="43.60294" lon="6.38367">
        <ele>529.4</ele>
        <time>2026-02-22T09:50:33Z</time>
      </trkpt>
      <trkpt lat="43.60293" lon="6.38367">
        <ele>529.4</ele>
        <time>2026-02-22T09:50:34Z</time>
      </trkpt>
      <trkpt lat="43.60292" lon="6.38367">
        <ele>529.4</ele>
        <time>2026-02-22T09:50:35Z</time>
      </trkpt>
      <trkpt lat="43.60292" lon="6.38367">
        <ele>529.3</ele>
        <time>2026-02-22T09:50:36Z</time>
      </trkpt>
      <trkpt lat="43.60291" lon="6.38368">
        <ele>529.3</ele>
        <time>2026-02-22T09:50:37Z</time>
      </trkpt>
      <trkpt lat="43.60289" lon="6.38368">
        <ele>529.3</ele>
        <time>2026-02-22T09:50:38Z</time>
      </trkpt>
      <trkpt lat="43.60288" lon="6.38369">
        <ele>529.2</ele>
        <time>2026-02-22T09:50:39Z</time>
      </trkpt>
      <trkpt lat="43.60287" lon="6.38369">
        <ele>529.2</ele>
        <time>2026-02-22T09:50:40Z</time>
      </trkpt>
      <trkpt lat="43.60286" lon="6.38369">
        <ele>529.2</ele>
        <time>2026-02-22T09:50:41Z</time>
      </trkpt>
      <trkpt lat="43.60286" lon="6.3837">
        <ele>529.1</ele>
        <time>2026-02-22T09:50:42Z</time>
      </trkpt>
      <trkpt lat="43.60285" lon="6.3837">
        <ele>529.1</ele>
        <time>2026-02-22T09:50:43Z</time>
      </trkpt>
      <trkpt lat="43.60284" lon="6.3837">
        <ele>529.1</ele>
        <time>2026-02-22T09:50:44Z</time>
      </trkpt>
      <trkpt lat="43.60283" lon="6.3837">
        <ele>529.1</ele>
        <time>2026-02-22T09:50:45Z</time>
      </trkpt>
      <trkpt lat="43.60283" lon="6.38371">
        <ele>529.1</ele>
        <time>2026-02-22T09:50:46Z</time>
      </trkpt>
      <trkpt lat="43.60282" lon="6.3837">
        <ele>529.1</ele>
        <time>2026-02-22T09:50:47Z</time>
      </trkpt>
      <trkpt lat="43.60282" lon="6.3837">
        <ele>529.1</ele>
        <time>2026-02-22T09:50:48Z</time>
      </trkpt>
      <trkpt lat="43.60282" lon="6.3837">
        <ele>529.2</ele>
        <time>2026-02-22T09:50:49Z</time>
      </trkpt>
      <trkpt lat="43.60282" lon="6.3837">
        <ele>529.2</ele>
        <time>2026-02-22T09:50:50Z</time>
      </trkpt>
      <trkpt lat="43.60281" lon="6.3837">
        <ele>529.3</ele>
        <time>2026-02-22T09:50:51Z</time>
      </trkpt>
      <trkpt lat="43.60281" lon="6.38371">
        <ele>529.3</ele>
        <time>2026-02-22T09:50:52Z</time>
      </trkpt>
      <trkpt lat="43.60281" lon="6.38371">
        <ele>529.3</ele>
        <time>2026-02-22T09:50:53Z</time>
      </trkpt>
      <trkpt lat="43.60281" lon="6.3837">
        <ele>529.4</ele>
        <time>2026-02-22T09:50:54Z</time>
      </trkpt>
      <trkpt lat="43.6028" lon="6.38371">
        <ele>529.4</ele>
        <time>2026-02-22T09:50:55Z</time>
      </trkpt>
      <trkpt lat="43.6028" lon="6.38371">
        <ele>529.5</ele>
        <time>2026-02-22T09:50:56Z</time>
      </trkpt>
      <trkpt lat="43.6028" lon="6.38371">
        <ele>529.6</ele>
        <time>2026-02-22T09:50:57Z</time>
      </trkpt>
      <trkpt lat="43.6028" lon="6.38371">
        <ele>529.7</ele>
        <time>2026-02-22T09:50:58Z</time>
      </trkpt>
      <trkpt lat="43.6028" lon="6.38371">
        <ele>529.7</ele>
        <time>2026-02-22T09:50:59Z</time>
      </trkpt>
      <trkpt lat="43.60279" lon="6.38372">
        <ele>529.7</ele>
        <time>2026-02-22T09:51:00Z</time>
      </trkpt>
      <trkpt lat="43.60279" lon="6.38371">
        <ele>529.8</ele>
        <time>2026-02-22T09:51:01Z</time>
      </trkpt>
      <trkpt lat="43.60279" lon="6.38371">
        <ele>529.9</ele>
        <time>2026-02-22T09:51:02Z</time>
      </trkpt>
      <trkpt lat="43.60278" lon="6.3837">
        <ele>530</ele>
        <time>2026-02-22T09:51:03Z</time>
      </trkpt>
      <trkpt lat="43.60278" lon="6.3837">
        <ele>530.1</ele>
        <time>2026-02-22T09:51:04Z</time>
      </trkpt>
      <trkpt lat="43.60277" lon="6.38369">
        <ele>530.1</ele>
        <time>2026-02-22T09:51:05Z</time>
      </trkpt>
      <trkpt lat="43.60276" lon="6.38369">
        <ele>530.2</ele>
        <time>2026-02-22T09:51:06Z</time>
      </trkpt>
      <trkpt lat="43.60276" lon="6.38368">
        <ele>530.3</ele>
        <time>2026-02-22T09:51:07Z</time>
      </trkpt>
      <trkpt lat="43.60276" lon="6.38367">
        <ele>530.5</ele>
        <time>2026-02-22T09:51:08Z</time>
      </trkpt>
      <trkpt lat="43.60276" lon="6.38367">
        <ele>530.7</ele>
        <time>2026-02-22T09:51:09Z</time>
      </trkpt>
      <trkpt lat="43.60275" lon="6.38366">
        <ele>530.9</ele>
        <time>2026-02-22T09:51:10Z</time>
      </trkpt>
      <trkpt lat="43.60275" lon="6.38365">
        <ele>531</ele>
        <time>2026-02-22T09:51:11Z</time>
      </trkpt>
      <trkpt lat="43.60275" lon="6.38365">
        <ele>531.2</ele>
        <time>2026-02-22T09:51:12Z</time>
      </trkpt>
      <trkpt lat="43.60274" lon="6.38364">
        <ele>531.3</ele>
        <time>2026-02-22T09:51:13Z</time>
      </trkpt>
      <trkpt lat="43.60274" lon="6.38363">
        <ele>531.3</ele>
        <time>2026-02-22T09:51:14Z</time>
      </trkpt>
      <trkpt lat="43.60274" lon="6.38363">
        <ele>531.4</ele>
        <time>2026-02-22T09:51:15Z</time>
      </trkpt>
      <trkpt lat="43.60274" lon="6.38362">
        <ele>531.6</ele>
        <time>2026-02-22T09:51:16Z</time>
      </trkpt>
      <trkpt lat="43.60274" lon="6.38362">
        <ele>531.7</ele>
        <time>2026-02-22T09:51:17Z</time>
      </trkpt>
      <trkpt lat="43.60274" lon="6.38361">
        <ele>531.9</ele>
        <time>2026-02-22T09:51:18Z</time>
      </trkpt>
      <trkpt lat="43.60274" lon="6.38361">
        <ele>532.1</ele>
        <time>2026-02-22T09:51:19Z</time>
      </trkpt>
      <trkpt lat="43.60273" lon="6.3836">
        <ele>532.1</ele>
        <time>2026-02-22T09:51:20Z</time>
      </trkpt>
      <trkpt lat="43.60274" lon="6.3836">
        <ele>532.1</ele>
        <time>2026-02-22T09:51:21Z</time>
      </trkpt>
      <trkpt lat="43.60274" lon="6.38359">
        <ele>532.3</ele>
        <time>2026-02-22T09:51:22Z</time>
      </trkpt>
      <trkpt lat="43.60274" lon="6.3836">
        <ele>532.3</ele>
        <time>2026-02-22T09:51:23Z</time>
      </trkpt>
      <trkpt lat="43.60274" lon="6.3836">
        <ele>532.3</ele>
        <time>2026-02-22T09:51:24Z</time>
      </trkpt>
      <trkpt lat="43.60274" lon="6.3836">
        <ele>532.3</ele>
        <time>2026-02-22T09:51:25Z</time>
      </trkpt>
      <trkpt lat="43.60274" lon="6.3836">
        <ele>532.4</ele>
        <time>2026-02-22T09:51:26Z</time>
      </trkpt>
      <trkpt lat="43.60273" lon="6.3836">
        <ele>532.6</ele>
        <time>2026-02-22T09:51:27Z</time>
      </trkpt>
      <trkpt lat="43.60274" lon="6.3836">
        <ele>532.6</ele>
        <time>2026-02-22T09:51:28Z</time>
      </trkpt>
      <trkpt lat="43.60273" lon="6.3836">
        <ele>532.6</ele>
        <time>2026-02-22T09:51:29Z</time>
      </trkpt>
      <trkpt lat="43.60273" lon="6.3836">
        <ele>532.7</ele>
        <time>2026-02-22T09:51:30Z</time>
      </trkpt>
      <trkpt lat="43.60272" lon="6.3836">
        <ele>532.7</ele>
        <time>2026-02-22T09:51:31Z</time>
      </trkpt>
      <trkpt lat="43.60272" lon="6.3836">
        <ele>532.7</ele>
        <time>2026-02-22T09:51:32Z</time>
      </trkpt>
      <trkpt lat="43.60271" lon="6.3836">
        <ele>532.7</ele>
        <time>2026-02-22T09:51:33Z</time>
      </trkpt>
      <trkpt lat="43.60271" lon="6.3836">
        <ele>532.6</ele>
        <time>2026-02-22T09:51:34Z</time>
      </trkpt>
      <trkpt lat="43.6027" lon="6.3836">
        <ele>532.7</ele>
        <time>2026-02-22T09:51:35Z</time>
      </trkpt>
      <trkpt lat="43.6027" lon="6.3836">
        <ele>532.7</ele>
        <time>2026-02-22T09:51:36Z</time>
      </trkpt>
      <trkpt lat="43.60269" lon="6.3836">
        <ele>532.7</ele>
        <time>2026-02-22T09:51:37Z</time>
      </trkpt>
      <trkpt lat="43.60268" lon="6.3836">
        <ele>532.6</ele>
        <time>2026-02-22T09:51:38Z</time>
      </trkpt>
      <trkpt lat="43.60268" lon="6.38361">
        <ele>532.7</ele>
        <time>2026-02-22T09:51:39Z</time>
      </trkpt>
      <trkpt lat="43.60267" lon="6.38361">
        <ele>532.9</ele>
        <time>2026-02-22T09:51:40Z</time>
      </trkpt>
      <trkpt lat="43.60267" lon="6.38361">
        <ele>532.8</ele>
        <time>2026-02-22T09:51:41Z</time>
      </trkpt>
      <trkpt lat="43.60266" lon="6.38361">
        <ele>532.8</ele>
        <time>2026-02-22T09:51:42Z</time>
      </trkpt>
      <trkpt lat="43.60265" lon="6.38361">
        <ele>532.8</ele>
        <time>2026-02-22T09:51:43Z</time>
      </trkpt>
      <trkpt lat="43.60265" lon="6.38361">
        <ele>532.8</ele>
        <time>2026-02-22T09:51:44Z</time>
      </trkpt>
      <trkpt lat="43.60265" lon="6.38362">
        <ele>532.7</ele>
        <time>2026-02-22T09:51:45Z</time>
      </trkpt>
      <trkpt lat="43.60264" lon="6.38362">
        <ele>532.7</ele>
        <time>2026-02-22T09:51:46Z</time>
      </trkpt>
      <trkpt lat="43.60264" lon="6.38362">
        <ele>532.7</ele>
        <time>2026-02-22T09:51:47Z</time>
      </trkpt>
      <trkpt lat="43.60263" lon="6.38361">
        <ele>532.7</ele>
        <time>2026-02-22T09:51:48Z</time>
      </trkpt>
      <trkpt lat="43.60263" lon="6.38362">
        <ele>532.7</ele>
        <time>2026-02-22T09:51:49Z</time>
      </trkpt>
      <trkpt lat="43.60265" lon="6.38361">
        <ele>532.7</ele>
        <time>2026-02-22T09:51:50Z</time>
      </trkpt>
      <trkpt lat="43.60265" lon="6.38361">
        <ele>532.8</ele>
        <time>2026-02-22T09:51:51Z</time>
      </trkpt>
      <trkpt lat="43.60266" lon="6.3836">
        <ele>532.9</ele>
        <time>2026-02-22T09:51:52Z</time>
      </trkpt>
      <trkpt lat="43.60266" lon="6.3836">
        <ele>533</ele>
        <time>2026-02-22T09:51:53Z</time>
      </trkpt>
      <trkpt lat="43.60266" lon="6.3836">
        <ele>533.1</ele>
        <time>2026-02-22T09:51:54Z</time>
      </trkpt>
      <trkpt lat="43.60265" lon="6.3836">
        <ele>533.1</ele>
        <time>2026-02-22T09:51:55Z</time>
      </trkpt>
      <trkpt lat="43.60265" lon="6.3836">
        <ele>533.2</ele>
        <time>2026-02-22T09:51:56Z</time>
      </trkpt>
      <trkpt lat="43.60265" lon="6.3836">
        <ele>533.2</ele>
        <time>2026-02-22T09:51:57Z</time>
      </trkpt>
      <trkpt lat="43.60266" lon="6.3836">
        <ele>533.2</ele>
        <time>2026-02-22T09:51:58Z</time>
      </trkpt>
      <trkpt lat="43.60266" lon="6.3836">
        <ele>533.2</ele>
        <time>2026-02-22T09:51:59Z</time>
      </trkpt>
      <trkpt lat="43.60267" lon="6.3836">
        <ele>533</ele>
        <time>2026-02-22T09:52:00Z</time>
      </trkpt>
      <trkpt lat="43.60267" lon="6.38359">
        <ele>533</ele>
        <time>2026-02-22T09:52:01Z</time>
      </trkpt>
      <trkpt lat="43.60267" lon="6.38358">
        <ele>533</ele>
        <time>2026-02-22T09:52:02Z</time>
      </trkpt>
      <trkpt lat="43.60267" lon="6.38358">
        <ele>533</ele>
        <time>2026-02-22T09:52:03Z</time>
      </trkpt>
      <trkpt lat="43.60267" lon="6.38358">
        <ele>532.9</ele>
        <time>2026-02-22T09:52:04Z</time>
      </trkpt>
      <trkpt lat="43.60267" lon="6.38357">
        <ele>532.9</ele>
        <time>2026-02-22T09:52:05Z</time>
      </trkpt>
      <trkpt lat="43.60268" lon="6.38356">
        <ele>532.8</ele>
        <time>2026-02-22T09:52:06Z</time>
      </trkpt>
      <trkpt lat="43.60268" lon="6.38355">
        <ele>532.9</ele>
        <time>2026-02-22T09:52:07Z</time>
      </trkpt>
      <trkpt lat="43.60269" lon="6.38354">
        <ele>532.9</ele>
        <time>2026-02-22T09:52:08Z</time>
      </trkpt>
      <trkpt lat="43.60269" lon="6.38354">
        <ele>533</ele>
        <time>2026-02-22T09:52:09Z</time>
      </trkpt>
      <trkpt lat="43.60269" lon="6.38354">
        <ele>533</ele>
        <time>2026-02-22T09:52:10Z</time>
      </trkpt>
      <trkpt lat="43.60269" lon="6.38354">
        <ele>532.9</ele>
        <time>2026-02-22T09:52:11Z</time>
      </trkpt>
      <trkpt lat="43.6027" lon="6.38354">
        <ele>532.9</ele>
        <time>2026-02-22T09:52:12Z</time>
      </trkpt>
      <trkpt lat="43.6027" lon="6.38354">
        <ele>533</ele>
        <time>2026-02-22T09:52:13Z</time>
      </trkpt>
      <trkpt lat="43.6027" lon="6.38353">
        <ele>533</ele>
        <time>2026-02-22T09:52:14Z</time>
      </trkpt>
      <trkpt lat="43.6027" lon="6.38352">
        <ele>533.1</ele>
        <time>2026-02-22T09:52:15Z</time>
      </trkpt>
      <trkpt lat="43.6027" lon="6.38351">
        <ele>533</ele>
        <time>2026-02-22T09:52:16Z</time>
      </trkpt>
      <trkpt lat="43.6027" lon="6.38351">
        <ele>532.9</ele>
        <time>2026-02-22T09:52:17Z</time>
      </trkpt>
      <trkpt lat="43.6027" lon="6.3835">
        <ele>533</ele>
        <time>2026-02-22T09:52:18Z</time>
      </trkpt>
      <trkpt lat="43.6027" lon="6.3835">
        <ele>532.9</ele>
        <time>2026-02-22T09:52:19Z</time>
      </trkpt>
      <trkpt lat="43.60269" lon="6.3835">
        <ele>533</ele>
        <time>2026-02-22T09:52:20Z</time>
      </trkpt>
      <trkpt lat="43.60269" lon="6.3835">
        <ele>533</ele>
        <time>2026-02-22T09:52:21Z</time>
      </trkpt>
      <trkpt lat="43.60268" lon="6.3835">
        <ele>533</ele>
        <time>2026-02-22T09:52:22Z</time>
      </trkpt>
      <trkpt lat="43.60267" lon="6.3835">
        <ele>533.1</ele>
        <time>2026-02-22T09:52:23Z</time>
      </trkpt>
      <trkpt lat="43.60267" lon="6.3835">
        <ele>533.1</ele>
        <time>2026-02-22T09:52:24Z</time>
      </trkpt>
      <trkpt lat="43.60267" lon="6.3835">
        <ele>533.2</ele>
        <time>2026-02-22T09:52:25Z</time>
      </trkpt>
      <trkpt lat="43.60266" lon="6.3835">
        <ele>533.2</ele>
        <time>2026-02-22T09:52:26Z</time>
      </trkpt>
      <trkpt lat="43.60266" lon="6.3835">
        <ele>533.2</ele>
        <time>2026-02-22T09:52:27Z</time>
      </trkpt>
      <trkpt lat="43.60266" lon="6.3835">
        <ele>533.2</ele>
        <time>2026-02-22T09:52:28Z</time>
      </trkpt>
      <trkpt lat="43.60265" lon="6.38351">
        <ele>533.1</ele>
        <time>2026-02-22T09:52:29Z</time>
      </trkpt>
      <trkpt lat="43.60265" lon="6.38351">
        <ele>533.1</ele>
        <time>2026-02-22T09:52:30Z</time>
      </trkpt>
      <trkpt lat="43.60265" lon="6.38351">
        <ele>533.1</ele>
        <time>2026-02-22T09:52:31Z</time>
      </trkpt>
      <trkpt lat="43.60265" lon="6.3835">
        <ele>533.1</ele>
        <time>2026-02-22T09:52:32Z</time>
      </trkpt>
      <trkpt lat="43.60265" lon="6.3835">
        <ele>533.1</ele>
        <time>2026-02-22T09:52:33Z</time>
      </trkpt>
      <trkpt lat="43.60265" lon="6.3835">
        <ele>533.2</ele>
        <time>2026-02-22T09:52:34Z</time>
      </trkpt>
      <trkpt lat="43.60265" lon="6.3835">
        <ele>533.3</ele>
        <time>2026-02-22T09:52:35Z</time>
      </trkpt>
      <trkpt lat="43.60265" lon="6.3835">
        <ele>533.3</ele>
        <time>2026-02-22T09:52:36Z</time>
      </trkpt>
      <trkpt lat="43.60265" lon="6.3835">
        <ele>533.2</ele>
        <time>2026-02-22T09:52:37Z</time>
      </trkpt>
      <trkpt lat="43.60265" lon="6.3835">
        <ele>533.3</ele>
        <time>2026-02-22T09:52:38Z</time>
      </trkpt>
      <trkpt lat="43.60265" lon="6.3835">
        <ele>533.3</ele>
        <time>2026-02-22T09:52:39Z</time>
      </trkpt>
      <trkpt lat="43.60265" lon="6.3835">
        <ele>533.4</ele>
        <time>2026-02-22T09:52:40Z</time>
      </trkpt>
      <trkpt lat="43.60265" lon="6.3835">
        <ele>533.3</ele>
        <time>2026-02-22T09:52:41Z</time>
      </trkpt>
      <trkpt lat="43.60264" lon="6.3835">
        <ele>533.3</ele>
        <time>2026-02-22T09:52:42Z</time>
      </trkpt>
      <trkpt lat="43.60264" lon="6.3835">
        <ele>533.3</ele>
        <time>2026-02-22T09:52:43Z</time>
      </trkpt>
      <trkpt lat="43.60264" lon="6.3835">
        <ele>533.3</ele>
        <time>2026-02-22T09:52:44Z</time>
      </trkpt>
      <trkpt lat="43.60264" lon="6.3835">
        <ele>533.3</ele>
        <time>2026-02-22T09:52:45Z</time>
      </trkpt>
      <trkpt lat="43.60264" lon="6.3835">
        <ele>533.2</ele>
        <time>2026-02-22T09:52:46Z</time>
      </trkpt>
      <trkpt lat="43.60264" lon="6.3835">
        <ele>533.3</ele>
        <time>2026-02-22T09:52:47Z</time>
      </trkpt>
      <trkpt lat="43.60264" lon="6.3835">
        <ele>533.4</ele>
        <time>2026-02-22T09:52:48Z</time>
      </trkpt>
      <trkpt lat="43.60263" lon="6.3835">
        <ele>533.3</ele>
        <time>2026-02-22T09:52:49Z</time>
      </trkpt>
      <trkpt lat="43.60263" lon="6.3835">
        <ele>533.3</ele>
        <time>2026-02-22T09:52:50Z</time>
      </trkpt>
      <trkpt lat="43.60263" lon="6.3835">
        <ele>533.3</ele>
        <time>2026-02-22T09:52:51Z</time>
      </trkpt>
      <trkpt lat="43.60263" lon="6.3835">
        <ele>533.2</ele>
        <time>2026-02-22T09:52:52Z</time>
      </trkpt>
      <trkpt lat="43.60262" lon="6.3835">
        <ele>533.2</ele>
        <time>2026-02-22T09:52:53Z</time>
      </trkpt>
      <trkpt lat="43.60263" lon="6.3835">
        <ele>533.2</ele>
        <time>2026-02-22T09:52:54Z</time>
      </trkpt>
      <trkpt lat="43.60263" lon="6.3835">
        <ele>533.2</ele>
        <time>2026-02-22T09:52:55Z</time>
      </trkpt>
      <trkpt lat="43.60263" lon="6.3835">
        <ele>533.2</ele>
        <time>2026-02-22T09:52:56Z</time>
      </trkpt>
      <trkpt lat="43.60262" lon="6.38351">
        <ele>533.2</ele>
        <time>2026-02-22T09:52:57Z</time>
      </trkpt>
      <trkpt lat="43.60262" lon="6.38352">
        <ele>533.1</ele>
        <time>2026-02-22T09:52:58Z</time>
      </trkpt>
      <trkpt lat="43.60261" lon="6.38351">
        <ele>533.1</ele>
        <time>2026-02-22T09:52:59Z</time>
      </trkpt>
      <trkpt lat="43.60261" lon="6.38351">
        <ele>533.1</ele>
        <time>2026-02-22T09:53:00Z</time>
      </trkpt>
      <trkpt lat="43.60262" lon="6.3835">
        <ele>533</ele>
        <time>2026-02-22T09:53:01Z</time>
      </trkpt>
      <trkpt lat="43.60262" lon="6.38349">
        <ele>533</ele>
        <time>2026-02-22T09:53:02Z</time>
      </trkpt>
      <trkpt lat="43.60262" lon="6.38349">
        <ele>532.9</ele>
        <time>2026-02-22T09:53:03Z</time>
      </trkpt>
      <trkpt lat="43.60261" lon="6.38349">
        <ele>532.9</ele>
        <time>2026-02-22T09:53:04Z</time>
      </trkpt>
      <trkpt lat="43.60262" lon="6.38348">
        <ele>532.9</ele>
        <time>2026-02-22T09:53:05Z</time>
      </trkpt>
      <trkpt lat="43.60262" lon="6.38348">
        <ele>532.9</ele>
        <time>2026-02-22T09:53:06Z</time>
      </trkpt>
      <trkpt lat="43.60262" lon="6.38349">
        <ele>532.9</ele>
        <time>2026-02-22T09:53:07Z</time>
      </trkpt>
      <trkpt lat="43.60262" lon="6.38349">
        <ele>533</ele>
        <time>2026-02-22T09:53:08Z</time>
      </trkpt>
      <trkpt lat="43.60262" lon="6.38348">
        <ele>533</ele>
        <time>2026-02-22T09:53:09Z</time>
      </trkpt>
      <trkpt lat="43.60262" lon="6.38348">
        <ele>533</ele>
        <time>2026-02-22T09:53:10Z</time>
      </trkpt>
      <trkpt lat="43.60262" lon="6.38348">
        <ele>532.9</ele>
        <time>2026-02-22T09:53:11Z</time>
      </trkpt>
      <trkpt lat="43.60262" lon="6.38348">
        <ele>532.9</ele>
        <time>2026-02-22T09:53:12Z</time>
      </trkpt>
      <trkpt lat="43.60262" lon="6.38348">
        <ele>532.9</ele>
        <time>2026-02-22T09:53:13Z</time>
      </trkpt>
      <trkpt lat="43.60262" lon="6.38348">
        <ele>532.9</ele>
        <time>2026-02-22T09:53:14Z</time>
      </trkpt>
      <trkpt lat="43.60261" lon="6.38348">
        <ele>532.9</ele>
        <time>2026-02-22T09:53:15Z</time>
      </trkpt>
      <trkpt lat="43.60261" lon="6.38348">
        <ele>532.8</ele>
        <time>2026-02-22T09:53:16Z</time>
      </trkpt>
      <trkpt lat="43.60261" lon="6.38348">
        <ele>532.9</ele>
        <time>2026-02-22T09:53:17Z</time>
      </trkpt>
      <trkpt lat="43.60261" lon="6.38348">
        <ele>533</ele>
        <time>2026-02-22T09:53:18Z</time>
      </trkpt>
      <trkpt lat="43.60261" lon="6.38348">
        <ele>532.9</ele>
        <time>2026-02-22T09:53:19Z</time>
      </trkpt>
      <trkpt lat="43.60261" lon="6.38348">
        <ele>532.8</ele>
        <time>2026-02-22T09:53:20Z</time>
      </trkpt>
      <trkpt lat="43.60261" lon="6.38348">
        <ele>532.9</ele>
        <time>2026-02-22T09:53:21Z</time>
      </trkpt>
      <trkpt lat="43.60261" lon="6.38348">
        <ele>532.8</ele>
        <time>2026-02-22T09:53:22Z</time>
      </trkpt>
      <trkpt lat="43.60261" lon="6.38348">
        <ele>532.8</ele>
        <time>2026-02-22T09:53:23Z</time>
      </trkpt>
      <trkpt lat="43.60261" lon="6.38347">
        <ele>532.8</ele>
        <time>2026-02-22T09:53:24Z</time>
      </trkpt>
      <trkpt lat="43.60261" lon="6.38347">
        <ele>532.8</ele>
        <time>2026-02-22T09:53:25Z</time>
      </trkpt>
      <trkpt lat="43.60261" lon="6.38347">
        <ele>532.7</ele>
        <time>2026-02-22T09:53:26Z</time>
      </trkpt>
      <trkpt lat="43.60261" lon="6.38346">
        <ele>532.7</ele>
        <time>2026-02-22T09:53:27Z</time>
      </trkpt>
      <trkpt lat="43.60261" lon="6.38346">
        <ele>532.7</ele>
        <time>2026-02-22T09:53:28Z</time>
      </trkpt>
      <trkpt lat="43.60262" lon="6.38346">
        <ele>532.7</ele>
        <time>2026-02-22T09:53:29Z</time>
      </trkpt>
      <trkpt lat="43.60261" lon="6.38345">
        <ele>532.8</ele>
        <time>2026-02-22T09:53:30Z</time>
      </trkpt>
      <trkpt lat="43.60261" lon="6.38345">
        <ele>532.8</ele>
        <time>2026-02-22T09:53:31Z</time>
      </trkpt>
      <trkpt lat="43.60261" lon="6.38345">
        <ele>532.8</ele>
        <time>2026-02-22T09:53:32Z</time>
      </trkpt>
      <trkpt lat="43.60261" lon="6.38345">
        <ele>532.8</ele>
        <time>2026-02-22T09:53:33Z</time>
      </trkpt>
      <trkpt lat="43.60261" lon="6.38344">
        <ele>532.6</ele>
        <time>2026-02-22T09:53:34Z</time>
      </trkpt>
      <trkpt lat="43.60262" lon="6.38343">
        <ele>532.6</ele>
        <time>2026-02-22T09:53:35Z</time>
      </trkpt>
      <trkpt lat="43.60262" lon="6.38343">
        <ele>532.6</ele>
        <time>2026-02-22T09:53:36Z</time>
      </trkpt>
      <trkpt lat="43.60262" lon="6.38342">
        <ele>532.6</ele>
        <time>2026-02-22T09:53:37Z</time>
      </trkpt>
      <trkpt lat="43.60262" lon="6.38341">
        <ele>532.5</ele>
        <time>2026-02-22T09:53:38Z</time>
      </trkpt>
      <trkpt lat="43.60262" lon="6.3834">
        <ele>532.5</ele>
        <time>2026-02-22T09:53:39Z</time>
      </trkpt>
      <trkpt lat="43.60262" lon="6.38339">
        <ele>532.7</ele>
        <time>2026-02-22T09:53:40Z</time>
      </trkpt>
      <trkpt lat="43.60262" lon="6.38339">
        <ele>532.8</ele>
        <time>2026-02-22T09:53:41Z</time>
      </trkpt>
      <trkpt lat="43.60261" lon="6.38339">
        <ele>532.9</ele>
        <time>2026-02-22T09:53:42Z</time>
      </trkpt>
      <trkpt lat="43.60261" lon="6.38338">
        <ele>533</ele>
        <time>2026-02-22T09:53:43Z</time>
      </trkpt>
      <trkpt lat="43.60261" lon="6.38337">
        <ele>533.1</ele>
        <time>2026-02-22T09:53:44Z</time>
      </trkpt>
      <trkpt lat="43.6026" lon="6.38336">
        <ele>533.1</ele>
        <time>2026-02-22T09:53:45Z</time>
      </trkpt>
      <trkpt lat="43.60259" lon="6.38335">
        <ele>533.2</ele>
        <time>2026-02-22T09:53:46Z</time>
      </trkpt>
      <trkpt lat="43.60259" lon="6.38334">
        <ele>533.2</ele>
        <time>2026-02-22T09:53:47Z</time>
      </trkpt>
      <trkpt lat="43.60259" lon="6.38334">
        <ele>533.3</ele>
        <time>2026-02-22T09:53:48Z</time>
      </trkpt>
      <trkpt lat="43.60259" lon="6.38332">
        <ele>533.4</ele>
        <time>2026-02-22T09:53:49Z</time>
      </trkpt>
      <trkpt lat="43.60259" lon="6.38332">
        <ele>533.5</ele>
        <time>2026-02-22T09:53:50Z</time>
      </trkpt>
      <trkpt lat="43.60258" lon="6.38331">
        <ele>533.5</ele>
        <time>2026-02-22T09:53:51Z</time>
      </trkpt>
      <trkpt lat="43.60258" lon="6.38331">
        <ele>533.7</ele>
        <time>2026-02-22T09:53:52Z</time>
      </trkpt>
      <trkpt lat="43.60257" lon="6.3833">
        <ele>533.8</ele>
        <time>2026-02-22T09:53:53Z</time>
      </trkpt>
      <trkpt lat="43.60257" lon="6.38329">
        <ele>534</ele>
        <time>2026-02-22T09:53:54Z</time>
      </trkpt>
      <trkpt lat="43.60257" lon="6.38329">
        <ele>534</ele>
        <time>2026-02-22T09:53:55Z</time>
      </trkpt>
      <trkpt lat="43.60257" lon="6.38328">
        <ele>534.1</ele>
        <time>2026-02-22T09:53:56Z</time>
      </trkpt>
      <trkpt lat="43.60257" lon="6.38326">
        <ele>534</ele>
        <time>2026-02-22T09:53:57Z</time>
      </trkpt>
      <trkpt lat="43.60257" lon="6.38325">
        <ele>534.1</ele>
        <time>2026-02-22T09:53:58Z</time>
      </trkpt>
      <trkpt lat="43.60257" lon="6.38324">
        <ele>534.1</ele>
        <time>2026-02-22T09:53:59Z</time>
      </trkpt>
      <trkpt lat="43.60257" lon="6.38322">
        <ele>534.2</ele>
        <time>2026-02-22T09:54:00Z</time>
      </trkpt>
      <trkpt lat="43.60257" lon="6.38321">
        <ele>534.2</ele>
        <time>2026-02-22T09:54:01Z</time>
      </trkpt>
      <trkpt lat="43.60258" lon="6.3832">
        <ele>534.2</ele>
        <time>2026-02-22T09:54:02Z</time>
      </trkpt>
      <trkpt lat="43.60258" lon="6.3832">
        <ele>534.2</ele>
        <time>2026-02-22T09:54:03Z</time>
      </trkpt>
      <trkpt lat="43.60258" lon="6.3832">
        <ele>534.3</ele>
        <time>2026-02-22T09:54:04Z</time>
      </trkpt>
      <trkpt lat="43.60258" lon="6.3832">
        <ele>534.3</ele>
        <time>2026-02-22T09:54:05Z</time>
      </trkpt>
      <trkpt lat="43.60257" lon="6.3832">
        <ele>534.4</ele>
        <time>2026-02-22T09:54:06Z</time>
      </trkpt>
      <trkpt lat="43.60257" lon="6.38319">
        <ele>534.4</ele>
        <time>2026-02-22T09:54:07Z</time>
      </trkpt>
      <trkpt lat="43.60257" lon="6.38318">
        <ele>534.3</ele>
        <time>2026-02-22T09:54:08Z</time>
      </trkpt>
      <trkpt lat="43.60257" lon="6.38317">
        <ele>534.3</ele>
        <time>2026-02-22T09:54:09Z</time>
      </trkpt>
      <trkpt lat="43.60256" lon="6.38315">
        <ele>534.3</ele>
        <time>2026-02-22T09:54:10Z</time>
      </trkpt>
      <trkpt lat="43.60255" lon="6.38314">
        <ele>534.3</ele>
        <time>2026-02-22T09:54:11Z</time>
      </trkpt>
      <trkpt lat="43.60255" lon="6.38314">
        <ele>534.2</ele>
        <time>2026-02-22T09:54:12Z</time>
      </trkpt>
      <trkpt lat="43.60254" lon="6.38313">
        <ele>534.3</ele>
        <time>2026-02-22T09:54:13Z</time>
      </trkpt>
      <trkpt lat="43.60253" lon="6.38312">
        <ele>534.4</ele>
        <time>2026-02-22T09:54:14Z</time>
      </trkpt>
      <trkpt lat="43.60253" lon="6.38311">
        <ele>534.4</ele>
        <time>2026-02-22T09:54:15Z</time>
      </trkpt>
      <trkpt lat="43.60252" lon="6.3831">
        <ele>534.4</ele>
        <time>2026-02-22T09:54:16Z</time>
      </trkpt>
      <trkpt lat="43.60252" lon="6.38308">
        <ele>534.4</ele>
        <time>2026-02-22T09:54:17Z</time>
      </trkpt>
      <trkpt lat="43.60252" lon="6.38307">
        <ele>534.4</ele>
        <time>2026-02-22T09:54:18Z</time>
      </trkpt>
      <trkpt lat="43.60251" lon="6.38306">
        <ele>534.4</ele>
        <time>2026-02-22T09:54:19Z</time>
      </trkpt>
      <trkpt lat="43.60251" lon="6.38306">
        <ele>534.4</ele>
        <time>2026-02-22T09:54:20Z</time>
      </trkpt>
      <trkpt lat="43.6025" lon="6.38306">
        <ele>534.4</ele>
        <time>2026-02-22T09:54:21Z</time>
      </trkpt>
      <trkpt lat="43.60249" lon="6.38305">
        <ele>534.8</ele>
        <time>2026-02-22T09:54:22Z</time>
      </trkpt>
      <trkpt lat="43.60249" lon="6.38304">
        <ele>535.1</ele>
        <time>2026-02-22T09:54:23Z</time>
      </trkpt>
      <trkpt lat="43.60248" lon="6.38304">
        <ele>535.2</ele>
        <time>2026-02-22T09:54:24Z</time>
      </trkpt>
      <trkpt lat="43.60247" lon="6.38304">
        <ele>535.3</ele>
        <time>2026-02-22T09:54:25Z</time>
      </trkpt>
      <trkpt lat="43.60246" lon="6.38304">
        <ele>535.5</ele>
        <time>2026-02-22T09:54:26Z</time>
      </trkpt>
      <trkpt lat="43.60245" lon="6.38304">
        <ele>535.7</ele>
        <time>2026-02-22T09:54:27Z</time>
      </trkpt>
      <trkpt lat="43.60244" lon="6.38304">
        <ele>535.9</ele>
        <time>2026-02-22T09:54:28Z</time>
      </trkpt>
      <trkpt lat="43.60244" lon="6.38305">
        <ele>536</ele>
        <time>2026-02-22T09:54:29Z</time>
      </trkpt>
      <trkpt lat="43.60243" lon="6.38305">
        <ele>536</ele>
        <time>2026-02-22T09:54:30Z</time>
      </trkpt>
      <trkpt lat="43.60242" lon="6.38305">
        <ele>536.1</ele>
        <time>2026-02-22T09:54:31Z</time>
      </trkpt>
      <trkpt lat="43.60241" lon="6.38305">
        <ele>536</ele>
        <time>2026-02-22T09:54:32Z</time>
      </trkpt>
      <trkpt lat="43.6024" lon="6.38306">
        <ele>536.1</ele>
        <time>2026-02-22T09:54:33Z</time>
      </trkpt>
      <trkpt lat="43.6024" lon="6.38306">
        <ele>536.2</ele>
        <time>2026-02-22T09:54:34Z</time>
      </trkpt>
      <trkpt lat="43.60239" lon="6.38305">
        <ele>536.2</ele>
        <time>2026-02-22T09:54:35Z</time>
      </trkpt>
      <trkpt lat="43.60239" lon="6.38305">
        <ele>536.4</ele>
        <time>2026-02-22T09:54:36Z</time>
      </trkpt>
      <trkpt lat="43.60238" lon="6.38305">
        <ele>536.5</ele>
        <time>2026-02-22T09:54:37Z</time>
      </trkpt>
      <trkpt lat="43.60237" lon="6.38306">
        <ele>536.6</ele>
        <time>2026-02-22T09:54:38Z</time>
      </trkpt>
      <trkpt lat="43.60237" lon="6.38305">
        <ele>536.8</ele>
        <time>2026-02-22T09:54:39Z</time>
      </trkpt>
      <trkpt lat="43.60236" lon="6.38306">
        <ele>536.9</ele>
        <time>2026-02-22T09:54:40Z</time>
      </trkpt>
      <trkpt lat="43.60237" lon="6.38306">
        <ele>537</ele>
        <time>2026-02-22T09:54:41Z</time>
      </trkpt>
      <trkpt lat="43.60237" lon="6.38306">
        <ele>537.1</ele>
        <time>2026-02-22T09:54:42Z</time>
      </trkpt>
      <trkpt lat="43.60236" lon="6.38306">
        <ele>537.2</ele>
        <time>2026-02-22T09:54:43Z</time>
      </trkpt>
      <trkpt lat="43.60236" lon="6.38307">
        <ele>537.4</ele>
        <time>2026-02-22T09:54:44Z</time>
      </trkpt>
      <trkpt lat="43.60236" lon="6.38307">
        <ele>537.5</ele>
        <time>2026-02-22T09:54:45Z</time>
      </trkpt>
      <trkpt lat="43.60235" lon="6.38309">
        <ele>537.6</ele>
        <time>2026-02-22T09:54:46Z</time>
      </trkpt>
      <trkpt lat="43.60235" lon="6.38309">
        <ele>537.8</ele>
        <time>2026-02-22T09:54:47Z</time>
      </trkpt>
      <trkpt lat="43.60233" lon="6.3831">
        <ele>537.9</ele>
        <time>2026-02-22T09:54:48Z</time>
      </trkpt>
      <trkpt lat="43.60233" lon="6.3831">
        <ele>538.1</ele>
        <time>2026-02-22T09:54:49Z</time>
      </trkpt>
      <trkpt lat="43.60233" lon="6.3831">
        <ele>538.2</ele>
        <time>2026-02-22T09:54:50Z</time>
      </trkpt>
      <trkpt lat="43.60232" lon="6.38311">
        <ele>538.3</ele>
        <time>2026-02-22T09:54:51Z</time>
      </trkpt>
      <trkpt lat="43.60232" lon="6.38311">
        <ele>538.5</ele>
        <time>2026-02-22T09:54:52Z</time>
      </trkpt>
      <trkpt lat="43.60232" lon="6.38312">
        <ele>538.7</ele>
        <time>2026-02-22T09:54:53Z</time>
      </trkpt>
      <trkpt lat="43.60231" lon="6.38314">
        <ele>538.8</ele>
        <time>2026-02-22T09:54:54Z</time>
      </trkpt>
      <trkpt lat="43.60231" lon="6.38315">
        <ele>538.9</ele>
        <time>2026-02-22T09:54:55Z</time>
      </trkpt>
      <trkpt lat="43.6023" lon="6.38315">
        <ele>539</ele>
        <time>2026-02-22T09:54:56Z</time>
      </trkpt>
      <trkpt lat="43.6023" lon="6.38315">
        <ele>539.2</ele>
        <time>2026-02-22T09:54:57Z</time>
      </trkpt>
      <trkpt lat="43.6023" lon="6.38316">
        <ele>539.3</ele>
        <time>2026-02-22T09:54:58Z</time>
      </trkpt>
      <trkpt lat="43.6023" lon="6.38317">
        <ele>539.4</ele>
        <time>2026-02-22T09:54:59Z</time>
      </trkpt>
      <trkpt lat="43.60229" lon="6.38319">
        <ele>539.6</ele>
        <time>2026-02-22T09:55:00Z</time>
      </trkpt>
      <trkpt lat="43.60229" lon="6.3832">
        <ele>539.7</ele>
        <time>2026-02-22T09:55:01Z</time>
      </trkpt>
      <trkpt lat="43.60228" lon="6.38322">
        <ele>539.7</ele>
        <time>2026-02-22T09:55:02Z</time>
      </trkpt>
      <trkpt lat="43.60228" lon="6.38323">
        <ele>539.8</ele>
        <time>2026-02-22T09:55:03Z</time>
      </trkpt>
      <trkpt lat="43.60228" lon="6.38324">
        <ele>539.8</ele>
        <time>2026-02-22T09:55:04Z</time>
      </trkpt>
      <trkpt lat="43.60228" lon="6.38324">
        <ele>539.9</ele>
        <time>2026-02-22T09:55:05Z</time>
      </trkpt>
      <trkpt lat="43.60227" lon="6.38325">
        <ele>540</ele>
        <time>2026-02-22T09:55:06Z</time>
      </trkpt>
      <trkpt lat="43.60227" lon="6.38325">
        <ele>540</ele>
        <time>2026-02-22T09:55:07Z</time>
      </trkpt>
      <trkpt lat="43.60227" lon="6.38326">
        <ele>540.1</ele>
        <time>2026-02-22T09:55:08Z</time>
      </trkpt>
      <trkpt lat="43.60227" lon="6.38327">
        <ele>540.2</ele>
        <time>2026-02-22T09:55:09Z</time>
      </trkpt>
      <trkpt lat="43.60227" lon="6.38328">
        <ele>540.2</ele>
        <time>2026-02-22T09:55:10Z</time>
      </trkpt>
      <trkpt lat="43.60228" lon="6.38329">
        <ele>540.3</ele>
        <time>2026-02-22T09:55:11Z</time>
      </trkpt>
      <trkpt lat="43.60227" lon="6.3833">
        <ele>540.4</ele>
        <time>2026-02-22T09:55:12Z</time>
      </trkpt>
      <trkpt lat="43.60227" lon="6.38331">
        <ele>540.5</ele>
        <time>2026-02-22T09:55:13Z</time>
      </trkpt>
      <trkpt lat="43.60227" lon="6.38333">
        <ele>540.7</ele>
        <time>2026-02-22T09:55:14Z</time>
      </trkpt>
      <trkpt lat="43.60227" lon="6.38333">
        <ele>540.9</ele>
        <time>2026-02-22T09:55:15Z</time>
      </trkpt>
      <trkpt lat="43.60227" lon="6.38334">
        <ele>541.1</ele>
        <time>2026-02-22T09:55:16Z</time>
      </trkpt>
      <trkpt lat="43.60227" lon="6.38335">
        <ele>541.1</ele>
        <time>2026-02-22T09:55:17Z</time>
      </trkpt>
      <trkpt lat="43.60226" lon="6.38336">
        <ele>541.2</ele>
        <time>2026-02-22T09:55:18Z</time>
      </trkpt>
      <trkpt lat="43.60227" lon="6.38336">
        <ele>541.5</ele>
        <time>2026-02-22T09:55:19Z</time>
      </trkpt>
      <trkpt lat="43.60227" lon="6.38336">
        <ele>541.6</ele>
        <time>2026-02-22T09:55:20Z</time>
      </trkpt>
      <trkpt lat="43.60228" lon="6.38336">
        <ele>541.8</ele>
        <time>2026-02-22T09:55:21Z</time>
      </trkpt>
      <trkpt lat="43.60227" lon="6.38337">
        <ele>542</ele>
        <time>2026-02-22T09:55:22Z</time>
      </trkpt>
      <trkpt lat="43.60226" lon="6.38337">
        <ele>542.1</ele>
        <time>2026-02-22T09:55:23Z</time>
      </trkpt>
      <trkpt lat="43.60226" lon="6.38336">
        <ele>542.2</ele>
        <time>2026-02-22T09:55:24Z</time>
      </trkpt>
      <trkpt lat="43.60226" lon="6.38337">
        <ele>542.3</ele>
        <time>2026-02-22T09:55:25Z</time>
      </trkpt>
      <trkpt lat="43.60226" lon="6.38337">
        <ele>542.4</ele>
        <time>2026-02-22T09:55:26Z</time>
      </trkpt>
      <trkpt lat="43.60225" lon="6.38338">
        <ele>542.6</ele>
        <time>2026-02-22T09:55:27Z</time>
      </trkpt>
      <trkpt lat="43.60225" lon="6.38338">
        <ele>542.8</ele>
        <time>2026-02-22T09:55:28Z</time>
      </trkpt>
      <trkpt lat="43.60225" lon="6.38338">
        <ele>542.8</ele>
        <time>2026-02-22T09:55:29Z</time>
      </trkpt>
      <trkpt lat="43.60224" lon="6.38338">
        <ele>542.9</ele>
        <time>2026-02-22T09:55:30Z</time>
      </trkpt>
      <trkpt lat="43.60223" lon="6.38339">
        <ele>543.1</ele>
        <time>2026-02-22T09:55:31Z</time>
      </trkpt>
      <trkpt lat="43.60223" lon="6.38339">
        <ele>543.2</ele>
        <time>2026-02-22T09:55:32Z</time>
      </trkpt>
      <trkpt lat="43.60222" lon="6.3834">
        <ele>543.3</ele>
        <time>2026-02-22T09:55:33Z</time>
      </trkpt>
      <trkpt lat="43.60222" lon="6.3834">
        <ele>543.4</ele>
        <time>2026-02-22T09:55:34Z</time>
      </trkpt>
      <trkpt lat="43.60221" lon="6.38341">
        <ele>543.5</ele>
        <time>2026-02-22T09:55:35Z</time>
      </trkpt>
      <trkpt lat="43.6022" lon="6.38341">
        <ele>543.6</ele>
        <time>2026-02-22T09:55:36Z</time>
      </trkpt>
      <trkpt lat="43.6022" lon="6.38341">
        <ele>543.8</ele>
        <time>2026-02-22T09:55:37Z</time>
      </trkpt>
      <trkpt lat="43.6022" lon="6.38342">
        <ele>544</ele>
        <time>2026-02-22T09:55:38Z</time>
      </trkpt>
      <trkpt lat="43.6022" lon="6.38342">
        <ele>544.1</ele>
        <time>2026-02-22T09:55:39Z</time>
      </trkpt>
      <trkpt lat="43.6022" lon="6.38342">
        <ele>544.3</ele>
        <time>2026-02-22T09:55:40Z</time>
      </trkpt>
      <trkpt lat="43.60219" lon="6.38343">
        <ele>544.3</ele>
        <time>2026-02-22T09:55:41Z</time>
      </trkpt>
      <trkpt lat="43.60219" lon="6.38344">
        <ele>544.4</ele>
        <time>2026-02-22T09:55:42Z</time>
      </trkpt>
      <trkpt lat="43.60218" lon="6.38344">
        <ele>544.4</ele>
        <time>2026-02-22T09:55:43Z</time>
      </trkpt>
      <trkpt lat="43.60217" lon="6.38345">
        <ele>544.5</ele>
        <time>2026-02-22T09:55:44Z</time>
      </trkpt>
      <trkpt lat="43.60217" lon="6.38345">
        <ele>544.5</ele>
        <time>2026-02-22T09:55:45Z</time>
      </trkpt>
      <trkpt lat="43.60217" lon="6.38346">
        <ele>544.6</ele>
        <time>2026-02-22T09:55:46Z</time>
      </trkpt>
      <trkpt lat="43.60217" lon="6.38346">
        <ele>544.7</ele>
        <time>2026-02-22T09:55:47Z</time>
      </trkpt>
      <trkpt lat="43.60216" lon="6.38347">
        <ele>544.8</ele>
        <time>2026-02-22T09:55:48Z</time>
      </trkpt>
      <trkpt lat="43.60216" lon="6.38348">
        <ele>544.9</ele>
        <time>2026-02-22T09:55:49Z</time>
      </trkpt>
      <trkpt lat="43.60216" lon="6.38348">
        <ele>544.9</ele>
        <time>2026-02-22T09:55:50Z</time>
      </trkpt>
      <trkpt lat="43.60215" lon="6.38349">
        <ele>544.9</ele>
        <time>2026-02-22T09:55:51Z</time>
      </trkpt>
      <trkpt lat="43.60215" lon="6.3835">
        <ele>545</ele>
        <time>2026-02-22T09:55:52Z</time>
      </trkpt>
      <trkpt lat="43.60215" lon="6.38351">
        <ele>545.1</ele>
        <time>2026-02-22T09:55:53Z</time>
      </trkpt>
      <trkpt lat="43.60214" lon="6.38352">
        <ele>545.2</ele>
        <time>2026-02-22T09:55:54Z</time>
      </trkpt>
      <trkpt lat="43.60213" lon="6.38353">
        <ele>545.3</ele>
        <time>2026-02-22T09:55:55Z</time>
      </trkpt>
      <trkpt lat="43.60212" lon="6.38355">
        <ele>545.4</ele>
        <time>2026-02-22T09:55:56Z</time>
      </trkpt>
      <trkpt lat="43.60211" lon="6.38356">
        <ele>545.5</ele>
        <time>2026-02-22T09:55:57Z</time>
      </trkpt>
      <trkpt lat="43.60212" lon="6.38356">
        <ele>545.6</ele>
        <time>2026-02-22T09:55:58Z</time>
      </trkpt>
      <trkpt lat="43.60213" lon="6.38356">
        <ele>545.7</ele>
        <time>2026-02-22T09:55:59Z</time>
      </trkpt>
      <trkpt lat="43.60213" lon="6.38356">
        <ele>545.8</ele>
        <time>2026-02-22T09:56:00Z</time>
      </trkpt>
      <trkpt lat="43.60213" lon="6.38356">
        <ele>545.9</ele>
        <time>2026-02-22T09:56:01Z</time>
      </trkpt>
      <trkpt lat="43.60213" lon="6.38358">
        <ele>545.9</ele>
        <time>2026-02-22T09:56:02Z</time>
      </trkpt>
      <trkpt lat="43.60213" lon="6.38358">
        <ele>545.9</ele>
        <time>2026-02-22T09:56:03Z</time>
      </trkpt>
      <trkpt lat="43.60213" lon="6.38358">
        <ele>546</ele>
        <time>2026-02-22T09:56:04Z</time>
      </trkpt>
      <trkpt lat="43.60214" lon="6.38358">
        <ele>546.1</ele>
        <time>2026-02-22T09:56:05Z</time>
      </trkpt>
      <trkpt lat="43.60214" lon="6.38357">
        <ele>546.3</ele>
        <time>2026-02-22T09:56:06Z</time>
      </trkpt>
      <trkpt lat="43.60214" lon="6.38357">
        <ele>546.4</ele>
        <time>2026-02-22T09:56:07Z</time>
      </trkpt>
      <trkpt lat="43.60213" lon="6.38357">
        <ele>546.5</ele>
        <time>2026-02-22T09:56:08Z</time>
      </trkpt>
      <trkpt lat="43.60213" lon="6.38357">
        <ele>546.6</ele>
        <time>2026-02-22T09:56:09Z</time>
      </trkpt>
      <trkpt lat="43.60213" lon="6.38357">
        <ele>546.7</ele>
        <time>2026-02-22T09:56:10Z</time>
      </trkpt>
      <trkpt lat="43.60213" lon="6.38357">
        <ele>546.8</ele>
        <time>2026-02-22T09:56:11Z</time>
      </trkpt>
      <trkpt lat="43.60213" lon="6.38357">
        <ele>546.9</ele>
        <time>2026-02-22T09:56:12Z</time>
      </trkpt>
      <trkpt lat="43.60213" lon="6.38357">
        <ele>547</ele>
        <time>2026-02-22T09:56:13Z</time>
      </trkpt>
      <trkpt lat="43.60214" lon="6.38357">
        <ele>547.1</ele>
        <time>2026-02-22T09:56:14Z</time>
      </trkpt>
      <trkpt lat="43.60213" lon="6.38359">
        <ele>547.2</ele>
        <time>2026-02-22T09:56:15Z</time>
      </trkpt>
      <trkpt lat="43.60212" lon="6.3836">
        <ele>547.2</ele>
        <time>2026-02-22T09:56:16Z</time>
      </trkpt>
      <trkpt lat="43.60213" lon="6.38359">
        <ele>547.3</ele>
        <time>2026-02-22T09:56:17Z</time>
      </trkpt>
      <trkpt lat="43.60212" lon="6.3836">
        <ele>547.4</ele>
        <time>2026-02-22T09:56:18Z</time>
      </trkpt>
      <trkpt lat="43.60212" lon="6.38359">
        <ele>547.4</ele>
        <time>2026-02-22T09:56:19Z</time>
      </trkpt>
      <trkpt lat="43.60212" lon="6.38359">
        <ele>547.5</ele>
        <time>2026-02-22T09:56:20Z</time>
      </trkpt>
      <trkpt lat="43.60213" lon="6.38359">
        <ele>547.7</ele>
        <time>2026-02-22T09:56:21Z</time>
      </trkpt>
      <trkpt lat="43.60212" lon="6.38359">
        <ele>547.8</ele>
        <time>2026-02-22T09:56:22Z</time>
      </trkpt>
      <trkpt lat="43.60212" lon="6.38359">
        <ele>548</ele>
        <time>2026-02-22T09:56:23Z</time>
      </trkpt>
      <trkpt lat="43.60211" lon="6.38358">
        <ele>548.1</ele>
        <time>2026-02-22T09:56:24Z</time>
      </trkpt>
      <trkpt lat="43.6021" lon="6.38358">
        <ele>548.2</ele>
        <time>2026-02-22T09:56:25Z</time>
      </trkpt>
      <trkpt lat="43.60209" lon="6.38358">
        <ele>548.3</ele>
        <time>2026-02-22T09:56:26Z</time>
      </trkpt>
      <trkpt lat="43.60208" lon="6.38358">
        <ele>548.4</ele>
        <time>2026-02-22T09:56:27Z</time>
      </trkpt>
      <trkpt lat="43.60207" lon="6.38358">
        <ele>548.5</ele>
        <time>2026-02-22T09:56:28Z</time>
      </trkpt>
      <trkpt lat="43.60207" lon="6.38358">
        <ele>548.5</ele>
        <time>2026-02-22T09:56:29Z</time>
      </trkpt>
      <trkpt lat="43.60206" lon="6.38358">
        <ele>548.6</ele>
        <time>2026-02-22T09:56:30Z</time>
      </trkpt>
      <trkpt lat="43.60206" lon="6.38358">
        <ele>548.6</ele>
        <time>2026-02-22T09:56:31Z</time>
      </trkpt>
      <trkpt lat="43.60206" lon="6.38357">
        <ele>548.6</ele>
        <time>2026-02-22T09:56:32Z</time>
      </trkpt>
      <trkpt lat="43.60206" lon="6.38357">
        <ele>548.6</ele>
        <time>2026-02-22T09:56:33Z</time>
      </trkpt>
      <trkpt lat="43.60206" lon="6.38357">
        <ele>548.6</ele>
        <time>2026-02-22T09:56:34Z</time>
      </trkpt>
      <trkpt lat="43.60206" lon="6.38356">
        <ele>548.6</ele>
        <time>2026-02-22T09:56:35Z</time>
      </trkpt>
      <trkpt lat="43.60206" lon="6.38356">
        <ele>548.7</ele>
        <time>2026-02-22T09:56:36Z</time>
      </trkpt>
      <trkpt lat="43.60206" lon="6.38356">
        <ele>548.8</ele>
        <time>2026-02-22T09:56:37Z</time>
      </trkpt>
      <trkpt lat="43.60205" lon="6.38356">
        <ele>548.8</ele>
        <time>2026-02-22T09:56:38Z</time>
      </trkpt>
      <trkpt lat="43.60206" lon="6.38356">
        <ele>548.8</ele>
        <time>2026-02-22T09:56:39Z</time>
      </trkpt>
      <trkpt lat="43.60205" lon="6.38355">
        <ele>548.8</ele>
        <time>2026-02-22T09:56:40Z</time>
      </trkpt>
      <trkpt lat="43.60205" lon="6.38355">
        <ele>548.8</ele>
        <time>2026-02-22T09:56:41Z</time>
      </trkpt>
      <trkpt lat="43.60204" lon="6.38355">
        <ele>548.9</ele>
        <time>2026-02-22T09:56:42Z</time>
      </trkpt>
      <trkpt lat="43.60203" lon="6.38355">
        <ele>548.9</ele>
        <time>2026-02-22T09:56:43Z</time>
      </trkpt>
      <trkpt lat="43.60202" lon="6.38356">
        <ele>549.1</ele>
        <time>2026-02-22T09:56:44Z</time>
      </trkpt>
      <trkpt lat="43.60202" lon="6.38357">
        <ele>549.1</ele>
        <time>2026-02-22T09:56:45Z</time>
      </trkpt>
      <trkpt lat="43.60202" lon="6.38359">
        <ele>549.3</ele>
        <time>2026-02-22T09:56:46Z</time>
      </trkpt>
      <trkpt lat="43.60202" lon="6.38359">
        <ele>549.5</ele>
        <time>2026-02-22T09:56:47Z</time>
      </trkpt>
      <trkpt lat="43.60202" lon="6.38358">
        <ele>549.6</ele>
        <time>2026-02-22T09:56:48Z</time>
      </trkpt>
      <trkpt lat="43.60201" lon="6.38358">
        <ele>549.7</ele>
        <time>2026-02-22T09:56:49Z</time>
      </trkpt>
      <trkpt lat="43.60201" lon="6.38359">
        <ele>549.8</ele>
        <time>2026-02-22T09:56:50Z</time>
      </trkpt>
      <trkpt lat="43.60201" lon="6.38359">
        <ele>549.9</ele>
        <time>2026-02-22T09:56:51Z</time>
      </trkpt>
      <trkpt lat="43.60201" lon="6.38359">
        <ele>550.1</ele>
        <time>2026-02-22T09:56:52Z</time>
      </trkpt>
      <trkpt lat="43.602" lon="6.38359">
        <ele>550.1</ele>
        <time>2026-02-22T09:56:53Z</time>
      </trkpt>
      <trkpt lat="43.60199" lon="6.38359">
        <ele>550.2</ele>
        <time>2026-02-22T09:56:54Z</time>
      </trkpt>
      <trkpt lat="43.60199" lon="6.3836">
        <ele>550.3</ele>
        <time>2026-02-22T09:56:55Z</time>
      </trkpt>
      <trkpt lat="43.60197" lon="6.3836">
        <ele>550.3</ele>
        <time>2026-02-22T09:56:56Z</time>
      </trkpt>
      <trkpt lat="43.60196" lon="6.3836">
        <ele>550.4</ele>
        <time>2026-02-22T09:56:57Z</time>
      </trkpt>
      <trkpt lat="43.60196" lon="6.3836">
        <ele>550.6</ele>
        <time>2026-02-22T09:56:58Z</time>
      </trkpt>
      <trkpt lat="43.60194" lon="6.38361">
        <ele>550.6</ele>
        <time>2026-02-22T09:56:59Z</time>
      </trkpt>
      <trkpt lat="43.60193" lon="6.38362">
        <ele>550.8</ele>
        <time>2026-02-22T09:57:00Z</time>
      </trkpt>
      <trkpt lat="43.60192" lon="6.38362">
        <ele>550.9</ele>
        <time>2026-02-22T09:57:01Z</time>
      </trkpt>
      <trkpt lat="43.60192" lon="6.38362">
        <ele>550.9</ele>
        <time>2026-02-22T09:57:02Z</time>
      </trkpt>
      <trkpt lat="43.60191" lon="6.38362">
        <ele>551</ele>
        <time>2026-02-22T09:57:03Z</time>
      </trkpt>
      <trkpt lat="43.6019" lon="6.38362">
        <ele>551.1</ele>
        <time>2026-02-22T09:57:04Z</time>
      </trkpt>
      <trkpt lat="43.60189" lon="6.38362">
        <ele>551.2</ele>
        <time>2026-02-22T09:57:05Z</time>
      </trkpt>
      <trkpt lat="43.60188" lon="6.38363">
        <ele>551.4</ele>
        <time>2026-02-22T09:57:06Z</time>
      </trkpt>
      <trkpt lat="43.60188" lon="6.38364">
        <ele>551.5</ele>
        <time>2026-02-22T09:57:07Z</time>
      </trkpt>
      <trkpt lat="43.60187" lon="6.38364">
        <ele>551.6</ele>
        <time>2026-02-22T09:57:08Z</time>
      </trkpt>
      <trkpt lat="43.60187" lon="6.38366">
        <ele>551.7</ele>
        <time>2026-02-22T09:57:09Z</time>
      </trkpt>
      <trkpt lat="43.60186" lon="6.38367">
        <ele>551.8</ele>
        <time>2026-02-22T09:57:10Z</time>
      </trkpt>
      <trkpt lat="43.60186" lon="6.38367">
        <ele>551.9</ele>
        <time>2026-02-22T09:57:11Z</time>
      </trkpt>
      <trkpt lat="43.60185" lon="6.38367">
        <ele>551.9</ele>
        <time>2026-02-22T09:57:12Z</time>
      </trkpt>
      <trkpt lat="43.60185" lon="6.38367">
        <ele>552</ele>
        <time>2026-02-22T09:57:13Z</time>
      </trkpt>
      <trkpt lat="43.60184" lon="6.38368">
        <ele>552.2</ele>
        <time>2026-02-22T09:57:14Z</time>
      </trkpt>
      <trkpt lat="43.60184" lon="6.38367">
        <ele>552.4</ele>
        <time>2026-02-22T09:57:15Z</time>
      </trkpt>
      <trkpt lat="43.60183" lon="6.38367">
        <ele>552.5</ele>
        <time>2026-02-22T09:57:16Z</time>
      </trkpt>
      <trkpt lat="43.60182" lon="6.38368">
        <ele>552.6</ele>
        <time>2026-02-22T09:57:17Z</time>
      </trkpt>
      <trkpt lat="43.60181" lon="6.38368">
        <ele>552.8</ele>
        <time>2026-02-22T09:57:18Z</time>
      </trkpt>
      <trkpt lat="43.60181" lon="6.38369">
        <ele>553</ele>
        <time>2026-02-22T09:57:19Z</time>
      </trkpt>
      <trkpt lat="43.60181" lon="6.38369">
        <ele>553.1</ele>
        <time>2026-02-22T09:57:20Z</time>
      </trkpt>
      <trkpt lat="43.60181" lon="6.3837">
        <ele>553.2</ele>
        <time>2026-02-22T09:57:21Z</time>
      </trkpt>
      <trkpt lat="43.6018" lon="6.38371">
        <ele>553.3</ele>
        <time>2026-02-22T09:57:22Z</time>
      </trkpt>
      <trkpt lat="43.6018" lon="6.38371">
        <ele>553.5</ele>
        <time>2026-02-22T09:57:23Z</time>
      </trkpt>
      <trkpt lat="43.6018" lon="6.38371">
        <ele>553.6</ele>
        <time>2026-02-22T09:57:24Z</time>
      </trkpt>
      <trkpt lat="43.60179" lon="6.38372">
        <ele>553.7</ele>
        <time>2026-02-22T09:57:25Z</time>
      </trkpt>
      <trkpt lat="43.60178" lon="6.38372">
        <ele>553.7</ele>
        <time>2026-02-22T09:57:26Z</time>
      </trkpt>
      <trkpt lat="43.60178" lon="6.38372">
        <ele>553.9</ele>
        <time>2026-02-22T09:57:27Z</time>
      </trkpt>
      <trkpt lat="43.60177" lon="6.38372">
        <ele>553.9</ele>
        <time>2026-02-22T09:57:28Z</time>
      </trkpt>
      <trkpt lat="43.60176" lon="6.38372">
        <ele>553.9</ele>
        <time>2026-02-22T09:57:29Z</time>
      </trkpt>
      <trkpt lat="43.60175" lon="6.38372">
        <ele>554</ele>
        <time>2026-02-22T09:57:30Z</time>
      </trkpt>
      <trkpt lat="43.60175" lon="6.38372">
        <ele>554.1</ele>
        <time>2026-02-22T09:57:31Z</time>
      </trkpt>
      <trkpt lat="43.60175" lon="6.38372">
        <ele>554.2</ele>
        <time>2026-02-22T09:57:32Z</time>
      </trkpt>
      <trkpt lat="43.60175" lon="6.38373">
        <ele>554.3</ele>
        <time>2026-02-22T09:57:33Z</time>
      </trkpt>
      <trkpt lat="43.60175" lon="6.38373">
        <ele>554.4</ele>
        <time>2026-02-22T09:57:34Z</time>
      </trkpt>
      <trkpt lat="43.60174" lon="6.38373">
        <ele>554.5</ele>
        <time>2026-02-22T09:57:35Z</time>
      </trkpt>
      <trkpt lat="43.60174" lon="6.38374">
        <ele>554.5</ele>
        <time>2026-02-22T09:57:36Z</time>
      </trkpt>
      <trkpt lat="43.60173" lon="6.38374">
        <ele>554.6</ele>
        <time>2026-02-22T09:57:37Z</time>
      </trkpt>
      <trkpt lat="43.60173" lon="6.38373">
        <ele>554.6</ele>
        <time>2026-02-22T09:57:38Z</time>
      </trkpt>
      <trkpt lat="43.60172" lon="6.38374">
        <ele>554.8</ele>
        <time>2026-02-22T09:57:39Z</time>
      </trkpt>
      <trkpt lat="43.60171" lon="6.38374">
        <ele>555</ele>
        <time>2026-02-22T09:57:40Z</time>
      </trkpt>
      <trkpt lat="43.6017" lon="6.38374">
        <ele>555.1</ele>
        <time>2026-02-22T09:57:41Z</time>
      </trkpt>
      <trkpt lat="43.6017" lon="6.38375">
        <ele>555.3</ele>
        <time>2026-02-22T09:57:42Z</time>
      </trkpt>
      <trkpt lat="43.6017" lon="6.38375">
        <ele>555.4</ele>
        <time>2026-02-22T09:57:43Z</time>
      </trkpt>
      <trkpt lat="43.60169" lon="6.38375">
        <ele>555.5</ele>
        <time>2026-02-22T09:57:44Z</time>
      </trkpt>
      <trkpt lat="43.60168" lon="6.38375">
        <ele>555.6</ele>
        <time>2026-02-22T09:57:45Z</time>
      </trkpt>
      <trkpt lat="43.60168" lon="6.38375">
        <ele>555.7</ele>
        <time>2026-02-22T09:57:46Z</time>
      </trkpt>
      <trkpt lat="43.60167" lon="6.38376">
        <ele>555.8</ele>
        <time>2026-02-22T09:57:47Z</time>
      </trkpt>
      <trkpt lat="43.60167" lon="6.38376">
        <ele>555.9</ele>
        <time>2026-02-22T09:57:48Z</time>
      </trkpt>
      <trkpt lat="43.60166" lon="6.38376">
        <ele>556</ele>
        <time>2026-02-22T09:57:49Z</time>
      </trkpt>
      <trkpt lat="43.60166" lon="6.38377">
        <ele>556.1</ele>
        <time>2026-02-22T09:57:50Z</time>
      </trkpt>
      <trkpt lat="43.60166" lon="6.38377">
        <ele>556.1</ele>
        <time>2026-02-22T09:57:51Z</time>
      </trkpt>
      <trkpt lat="43.60165" lon="6.38378">
        <ele>556.3</ele>
        <time>2026-02-22T09:57:52Z</time>
      </trkpt>
      <trkpt lat="43.60164" lon="6.38379">
        <ele>556.4</ele>
        <time>2026-02-22T09:57:53Z</time>
      </trkpt>
      <trkpt lat="43.60163" lon="6.3838">
        <ele>556.4</ele>
        <time>2026-02-22T09:57:54Z</time>
      </trkpt>
      <trkpt lat="43.60163" lon="6.38381">
        <ele>556.4</ele>
        <time>2026-02-22T09:57:55Z</time>
      </trkpt>
      <trkpt lat="43.60161" lon="6.38382">
        <ele>556.4</ele>
        <time>2026-02-22T09:57:56Z</time>
      </trkpt>
      <trkpt lat="43.60161" lon="6.38383">
        <ele>556.5</ele>
        <time>2026-02-22T09:57:57Z</time>
      </trkpt>
      <trkpt lat="43.6016" lon="6.38384">
        <ele>556.6</ele>
        <time>2026-02-22T09:57:58Z</time>
      </trkpt>
      <trkpt lat="43.6016" lon="6.38385">
        <ele>556.6</ele>
        <time>2026-02-22T09:57:59Z</time>
      </trkpt>
      <trkpt lat="43.60159" lon="6.38386">
        <ele>556.6</ele>
        <time>2026-02-22T09:58:00Z</time>
      </trkpt>
      <trkpt lat="43.60159" lon="6.38386">
        <ele>556.6</ele>
        <time>2026-02-22T09:58:01Z</time>
      </trkpt>
      <trkpt lat="43.6016" lon="6.38387">
        <ele>556.6</ele>
        <time>2026-02-22T09:58:02Z</time>
      </trkpt>
      <trkpt lat="43.6016" lon="6.38387">
        <ele>556.5</ele>
        <time>2026-02-22T09:58:03Z</time>
      </trkpt>
      <trkpt lat="43.6016" lon="6.38388">
        <ele>556.5</ele>
        <time>2026-02-22T09:58:04Z</time>
      </trkpt>
      <trkpt lat="43.6016" lon="6.38388">
        <ele>556.5</ele>
        <time>2026-02-22T09:58:05Z</time>
      </trkpt>
      <trkpt lat="43.6016" lon="6.38388">
        <ele>556.5</ele>
        <time>2026-02-22T09:58:06Z</time>
      </trkpt>
      <trkpt lat="43.60159" lon="6.38389">
        <ele>556.6</ele>
        <time>2026-02-22T09:58:07Z</time>
      </trkpt>
      <trkpt lat="43.60159" lon="6.38389">
        <ele>556.7</ele>
        <time>2026-02-22T09:58:08Z</time>
      </trkpt>
      <trkpt lat="43.60158" lon="6.3839">
        <ele>556.7</ele>
        <time>2026-02-22T09:58:09Z</time>
      </trkpt>
      <trkpt lat="43.60158" lon="6.3839">
        <ele>556.7</ele>
        <time>2026-02-22T09:58:10Z</time>
      </trkpt>
      <trkpt lat="43.60158" lon="6.38391">
        <ele>556.7</ele>
        <time>2026-02-22T09:58:11Z</time>
      </trkpt>
      <trkpt lat="43.60158" lon="6.38391">
        <ele>556.8</ele>
        <time>2026-02-22T09:58:12Z</time>
      </trkpt>
      <trkpt lat="43.60157" lon="6.38391">
        <ele>556.8</ele>
        <time>2026-02-22T09:58:13Z</time>
      </trkpt>
      <trkpt lat="43.60156" lon="6.38392">
        <ele>556.9</ele>
        <time>2026-02-22T09:58:14Z</time>
      </trkpt>
      <trkpt lat="43.60157" lon="6.38392">
        <ele>557</ele>
        <time>2026-02-22T09:58:15Z</time>
      </trkpt>
      <trkpt lat="43.60157" lon="6.38393">
        <ele>557</ele>
        <time>2026-02-22T09:58:16Z</time>
      </trkpt>
      <trkpt lat="43.60156" lon="6.38393">
        <ele>557.1</ele>
        <time>2026-02-22T09:58:17Z</time>
      </trkpt>
      <trkpt lat="43.60155" lon="6.38394">
        <ele>557.2</ele>
        <time>2026-02-22T09:58:18Z</time>
      </trkpt>
      <trkpt lat="43.60156" lon="6.38394">
        <ele>557.4</ele>
        <time>2026-02-22T09:58:19Z</time>
      </trkpt>
      <trkpt lat="43.60156" lon="6.38394">
        <ele>557.5</ele>
        <time>2026-02-22T09:58:20Z</time>
      </trkpt>
      <trkpt lat="43.60156" lon="6.38394">
        <ele>557.7</ele>
        <time>2026-02-22T09:58:21Z</time>
      </trkpt>
      <trkpt lat="43.60155" lon="6.38394">
        <ele>557.8</ele>
        <time>2026-02-22T09:58:22Z</time>
      </trkpt>
      <trkpt lat="43.60154" lon="6.38394">
        <ele>558.1</ele>
        <time>2026-02-22T09:58:23Z</time>
      </trkpt>
      <trkpt lat="43.60153" lon="6.38395">
        <ele>558.3</ele>
        <time>2026-02-22T09:58:24Z</time>
      </trkpt>
      <trkpt lat="43.60153" lon="6.38395">
        <ele>558.5</ele>
        <time>2026-02-22T09:58:25Z</time>
      </trkpt>
      <trkpt lat="43.60153" lon="6.38395">
        <ele>558.6</ele>
        <time>2026-02-22T09:58:26Z</time>
      </trkpt>
      <trkpt lat="43.60153" lon="6.38396">
        <ele>558.8</ele>
        <time>2026-02-22T09:58:27Z</time>
      </trkpt>
      <trkpt lat="43.60154" lon="6.38397">
        <ele>558.7</ele>
        <time>2026-02-22T09:58:28Z</time>
      </trkpt>
      <trkpt lat="43.60154" lon="6.38398">
        <ele>558.7</ele>
        <time>2026-02-22T09:58:29Z</time>
      </trkpt>
      <trkpt lat="43.60154" lon="6.38399">
        <ele>558.9</ele>
        <time>2026-02-22T09:58:30Z</time>
      </trkpt>
      <trkpt lat="43.60153" lon="6.38399">
        <ele>559</ele>
        <time>2026-02-22T09:58:31Z</time>
      </trkpt>
      <trkpt lat="43.60154" lon="6.384">
        <ele>559.1</ele>
        <time>2026-02-22T09:58:32Z</time>
      </trkpt>
      <trkpt lat="43.60153" lon="6.38401">
        <ele>559.2</ele>
        <time>2026-02-22T09:58:33Z</time>
      </trkpt>
      <trkpt lat="43.60153" lon="6.38401">
        <ele>559.3</ele>
        <time>2026-02-22T09:58:34Z</time>
      </trkpt>
      <trkpt lat="43.60153" lon="6.38402">
        <ele>559.4</ele>
        <time>2026-02-22T09:58:35Z</time>
      </trkpt>
      <trkpt lat="43.60152" lon="6.38402">
        <ele>559.5</ele>
        <time>2026-02-22T09:58:36Z</time>
      </trkpt>
      <trkpt lat="43.60152" lon="6.38402">
        <ele>559.7</ele>
        <time>2026-02-22T09:58:37Z</time>
      </trkpt>
      <trkpt lat="43.60152" lon="6.38402">
        <ele>559.8</ele>
        <time>2026-02-22T09:58:38Z</time>
      </trkpt>
      <trkpt lat="43.60152" lon="6.38402">
        <ele>560</ele>
        <time>2026-02-22T09:58:39Z</time>
      </trkpt>
      <trkpt lat="43.60152" lon="6.38402">
        <ele>560.2</ele>
        <time>2026-02-22T09:58:40Z</time>
      </trkpt>
      <trkpt lat="43.60152" lon="6.38403">
        <ele>560.3</ele>
        <time>2026-02-22T09:58:41Z</time>
      </trkpt>
      <trkpt lat="43.60151" lon="6.38403">
        <ele>560.5</ele>
        <time>2026-02-22T09:58:42Z</time>
      </trkpt>
      <trkpt lat="43.60151" lon="6.38403">
        <ele>560.6</ele>
        <time>2026-02-22T09:58:43Z</time>
      </trkpt>
      <trkpt lat="43.60151" lon="6.38402">
        <ele>560.6</ele>
        <time>2026-02-22T09:58:44Z</time>
      </trkpt>
      <trkpt lat="43.6015" lon="6.38402">
        <ele>560.7</ele>
        <time>2026-02-22T09:58:45Z</time>
      </trkpt>
      <trkpt lat="43.6015" lon="6.38403">
        <ele>560.7</ele>
        <time>2026-02-22T09:58:46Z</time>
      </trkpt>
      <trkpt lat="43.60149" lon="6.38403">
        <ele>560.7</ele>
        <time>2026-02-22T09:58:47Z</time>
      </trkpt>
      <trkpt lat="43.60149" lon="6.38404">
        <ele>560.8</ele>
        <time>2026-02-22T09:58:48Z</time>
      </trkpt>
      <trkpt lat="43.60149" lon="6.38404">
        <ele>561</ele>
        <time>2026-02-22T09:58:49Z</time>
      </trkpt>
      <trkpt lat="43.60149" lon="6.38405">
        <ele>561.2</ele>
        <time>2026-02-22T09:58:50Z</time>
      </trkpt>
      <trkpt lat="43.60149" lon="6.38406">
        <ele>561.4</ele>
        <time>2026-02-22T09:58:51Z</time>
      </trkpt>
      <trkpt lat="43.60149" lon="6.38408">
        <ele>561.5</ele>
        <time>2026-02-22T09:58:52Z</time>
      </trkpt>
      <trkpt lat="43.60148" lon="6.3841">
        <ele>561.7</ele>
        <time>2026-02-22T09:58:53Z</time>
      </trkpt>
      <trkpt lat="43.60148" lon="6.38412">
        <ele>561.8</ele>
        <time>2026-02-22T09:58:54Z</time>
      </trkpt>
      <trkpt lat="43.60147" lon="6.38413">
        <ele>561.8</ele>
        <time>2026-02-22T09:58:55Z</time>
      </trkpt>
      <trkpt lat="43.60147" lon="6.38414">
        <ele>561.8</ele>
        <time>2026-02-22T09:58:56Z</time>
      </trkpt>
      <trkpt lat="43.60146" lon="6.38415">
        <ele>561.9</ele>
        <time>2026-02-22T09:58:57Z</time>
      </trkpt>
      <trkpt lat="43.60145" lon="6.38416">
        <ele>562</ele>
        <time>2026-02-22T09:58:58Z</time>
      </trkpt>
      <trkpt lat="43.60145" lon="6.38417">
        <ele>562</ele>
        <time>2026-02-22T09:58:59Z</time>
      </trkpt>
      <trkpt lat="43.60144" lon="6.38418">
        <ele>562</ele>
        <time>2026-02-22T09:59:00Z</time>
      </trkpt>
      <trkpt lat="43.60144" lon="6.38418">
        <ele>562</ele>
        <time>2026-02-22T09:59:01Z</time>
      </trkpt>
      <trkpt lat="43.60143" lon="6.38419">
        <ele>562.1</ele>
        <time>2026-02-22T09:59:02Z</time>
      </trkpt>
      <trkpt lat="43.60143" lon="6.38419">
        <ele>562.1</ele>
        <time>2026-02-22T09:59:03Z</time>
      </trkpt>
      <trkpt lat="43.60143" lon="6.3842">
        <ele>562.1</ele>
        <time>2026-02-22T09:59:04Z</time>
      </trkpt>
      <trkpt lat="43.60143" lon="6.3842">
        <ele>562.1</ele>
        <time>2026-02-22T09:59:05Z</time>
      </trkpt>
      <trkpt lat="43.60143" lon="6.3842">
        <ele>562.1</ele>
        <time>2026-02-22T09:59:06Z</time>
      </trkpt>
      <trkpt lat="43.60143" lon="6.38421">
        <ele>562.1</ele>
        <time>2026-02-22T09:59:07Z</time>
      </trkpt>
      <trkpt lat="43.60143" lon="6.38421">
        <ele>562.2</ele>
        <time>2026-02-22T09:59:08Z</time>
      </trkpt>
      <trkpt lat="43.60143" lon="6.38421">
        <ele>562.2</ele>
        <time>2026-02-22T09:59:09Z</time>
      </trkpt>
      <trkpt lat="43.60143" lon="6.38421">
        <ele>562.2</ele>
        <time>2026-02-22T09:59:10Z</time>
      </trkpt>
      <trkpt lat="43.60143" lon="6.38422">
        <ele>562.1</ele>
        <time>2026-02-22T09:59:11Z</time>
      </trkpt>
      <trkpt lat="43.60143" lon="6.38422">
        <ele>562</ele>
        <time>2026-02-22T09:59:12Z</time>
      </trkpt>
      <trkpt lat="43.60143" lon="6.38422">
        <ele>562</ele>
        <time>2026-02-22T09:59:13Z</time>
      </trkpt>
      <trkpt lat="43.60144" lon="6.38422">
        <ele>562</ele>
        <time>2026-02-22T09:59:14Z</time>
      </trkpt>
      <trkpt lat="43.60144" lon="6.38422">
        <ele>562</ele>
        <time>2026-02-22T09:59:15Z</time>
      </trkpt>
      <trkpt lat="43.60144" lon="6.38422">
        <ele>562.1</ele>
        <time>2026-02-22T09:59:16Z</time>
      </trkpt>
      <trkpt lat="43.60144" lon="6.38423">
        <ele>562.1</ele>
        <time>2026-02-22T09:59:17Z</time>
      </trkpt>
      <trkpt lat="43.60144" lon="6.38423">
        <ele>562</ele>
        <time>2026-02-22T09:59:18Z</time>
      </trkpt>
      <trkpt lat="43.60144" lon="6.38423">
        <ele>562.1</ele>
        <time>2026-02-22T09:59:19Z</time>
      </trkpt>
      <trkpt lat="43.60145" lon="6.38423">
        <ele>562.2</ele>
        <time>2026-02-22T09:59:20Z</time>
      </trkpt>
      <trkpt lat="43.60145" lon="6.38423">
        <ele>562.3</ele>
        <time>2026-02-22T09:59:21Z</time>
      </trkpt>
      <trkpt lat="43.60145" lon="6.38424">
        <ele>562.3</ele>
        <time>2026-02-22T09:59:22Z</time>
      </trkpt>
      <trkpt lat="43.60145" lon="6.38424">
        <ele>562.3</ele>
        <time>2026-02-22T09:59:23Z</time>
      </trkpt>
      <trkpt lat="43.60146" lon="6.38424">
        <ele>562.2</ele>
        <time>2026-02-22T09:59:24Z</time>
      </trkpt>
      <trkpt lat="43.60146" lon="6.38424">
        <ele>562.3</ele>
        <time>2026-02-22T09:59:25Z</time>
      </trkpt>
      <trkpt lat="43.60147" lon="6.38425">
        <ele>562.4</ele>
        <time>2026-02-22T09:59:26Z</time>
      </trkpt>
      <trkpt lat="43.60147" lon="6.38425">
        <ele>562.4</ele>
        <time>2026-02-22T09:59:27Z</time>
      </trkpt>
      <trkpt lat="43.60147" lon="6.38425">
        <ele>562.3</ele>
        <time>2026-02-22T09:59:28Z</time>
      </trkpt>
      <trkpt lat="43.60148" lon="6.38425">
        <ele>562.3</ele>
        <time>2026-02-22T09:59:29Z</time>
      </trkpt>
      <trkpt lat="43.60148" lon="6.38425">
        <ele>562.3</ele>
        <time>2026-02-22T09:59:30Z</time>
      </trkpt>
      <trkpt lat="43.60148" lon="6.38425">
        <ele>562.3</ele>
        <time>2026-02-22T09:59:31Z</time>
      </trkpt>
      <trkpt lat="43.60148" lon="6.38425">
        <ele>562.3</ele>
        <time>2026-02-22T09:59:32Z</time>
      </trkpt>
      <trkpt lat="43.60148" lon="6.38425">
        <ele>562.3</ele>
        <time>2026-02-22T09:59:33Z</time>
      </trkpt>
      <trkpt lat="43.60148" lon="6.38425">
        <ele>562.3</ele>
        <time>2026-02-22T09:59:34Z</time>
      </trkpt>
      <trkpt lat="43.60148" lon="6.38426">
        <ele>562.3</ele>
        <time>2026-02-22T09:59:35Z</time>
      </trkpt>
      <trkpt lat="43.60148" lon="6.38426">
        <ele>562.3</ele>
        <time>2026-02-22T09:59:36Z</time>
      </trkpt>
      <trkpt lat="43.60148" lon="6.38426">
        <ele>562.3</ele>
        <time>2026-02-22T09:59:37Z</time>
      </trkpt>
      <trkpt lat="43.60148" lon="6.38426">
        <ele>562.2</ele>
        <time>2026-02-22T09:59:38Z</time>
      </trkpt>
      <trkpt lat="43.60149" lon="6.38426">
        <ele>562.2</ele>
        <time>2026-02-22T09:59:39Z</time>
      </trkpt>
      <trkpt lat="43.60149" lon="6.38426">
        <ele>562.2</ele>
        <time>2026-02-22T09:59:40Z</time>
      </trkpt>
      <trkpt lat="43.60149" lon="6.38426">
        <ele>562.2</ele>
        <time>2026-02-22T09:59:41Z</time>
      </trkpt>
      <trkpt lat="43.60149" lon="6.38426">
        <ele>562.2</ele>
        <time>2026-02-22T09:59:42Z</time>
      </trkpt>
      <trkpt lat="43.60149" lon="6.38426">
        <ele>562.1</ele>
        <time>2026-02-22T09:59:43Z</time>
      </trkpt>
      <trkpt lat="43.60149" lon="6.38426">
        <ele>562.2</ele>
        <time>2026-02-22T09:59:44Z</time>
      </trkpt>
      <trkpt lat="43.60149" lon="6.38426">
        <ele>562.2</ele>
        <time>2026-02-22T09:59:45Z</time>
      </trkpt>
      <trkpt lat="43.60149" lon="6.38425">
        <ele>562.2</ele>
        <time>2026-02-22T09:59:46Z</time>
      </trkpt>
      <trkpt lat="43.60149" lon="6.38425">
        <ele>562.2</ele>
        <time>2026-02-22T09:59:47Z</time>
      </trkpt>
      <trkpt lat="43.60149" lon="6.38425">
        <ele>562.2</ele>
        <time>2026-02-22T09:59:48Z</time>
      </trkpt>
      <trkpt lat="43.60149" lon="6.38425">
        <ele>562.2</ele>
        <time>2026-02-22T09:59:49Z</time>
      </trkpt>
      <trkpt lat="43.60148" lon="6.38425">
        <ele>562.1</ele>
        <time>2026-02-22T09:59:50Z</time>
      </trkpt>
      <trkpt lat="43.60148" lon="6.38425">
        <ele>562.1</ele>
        <time>2026-02-22T09:59:51Z</time>
      </trkpt>
      <trkpt lat="43.60148" lon="6.38425">
        <ele>562.2</ele>
        <time>2026-02-22T09:59:52Z</time>
      </trkpt>
      <trkpt lat="43.60148" lon="6.38425">
        <ele>562.2</ele>
        <time>2026-02-22T09:59:53Z</time>
      </trkpt>
      <trkpt lat="43.60148" lon="6.38425">
        <ele>562.2</ele>
        <time>2026-02-22T09:59:54Z</time>
      </trkpt>
      <trkpt lat="43.60148" lon="6.38424">
        <ele>562.3</ele>
        <time>2026-02-22T09:59:55Z</time>
      </trkpt>
      <trkpt lat="43.60148" lon="6.38424">
        <ele>562.3</ele>
        <time>2026-02-22T09:59:56Z</time>
      </trkpt>
      <trkpt lat="43.60149" lon="6.38424">
        <ele>562.2</ele>
        <time>2026-02-22T09:59:57Z</time>
      </trkpt>
      <trkpt lat="43.60149" lon="6.38424">
        <ele>562.2</ele>
        <time>2026-02-22T09:59:58Z</time>
      </trkpt>
      <trkpt lat="43.60149" lon="6.38424">
        <ele>562.2</ele>
        <time>2026-02-22T09:59:59Z</time>
      </trkpt>
      <trkpt lat="43.60149" lon="6.38424">
        <ele>562.2</ele>
        <time>2026-02-22T10:00:00Z</time>
      </trkpt>
      <trkpt lat="43.60149" lon="6.38424">
        <ele>562.2</ele>
        <time>2026-02-22T10:00:01Z</time>
      </trkpt>
      <trkpt lat="43.60149" lon="6.38424">
        <ele>562.3</ele>
        <time>2026-02-22T10:00:02Z</time>
      </trkpt>
      <trkpt lat="43.60149" lon="6.38424">
        <ele>562.3</ele>
        <time>2026-02-22T10:00:03Z</time>
      </trkpt>
      <trkpt lat="43.60149" lon="6.38424">
        <ele>562.3</ele>
        <time>2026-02-22T10:00:04Z</time>
      </trkpt>
      <trkpt lat="43.60149" lon="6.38424">
        <ele>562.3</ele>
        <time>2026-02-22T10:00:05Z</time>
      </trkpt>
      <trkpt lat="43.60148" lon="6.38424">
        <ele>562.2</ele>
        <time>2026-02-22T10:00:06Z</time>
      </trkpt>
      <trkpt lat="43.60148" lon="6.38424">
        <ele>562.2</ele>
        <time>2026-02-22T10:00:07Z</time>
      </trkpt>
      <trkpt lat="43.60148" lon="6.38424">
        <ele>562.2</ele>
        <time>2026-02-22T10:00:08Z</time>
      </trkpt>
      <trkpt lat="43.60148" lon="6.38425">
        <ele>562.2</ele>
        <time>2026-02-22T10:00:09Z</time>
      </trkpt>
      <trkpt lat="43.60148" lon="6.38425">
        <ele>562.2</ele>
        <time>2026-02-22T10:00:10Z</time>
      </trkpt>
      <trkpt lat="43.60148" lon="6.38424">
        <ele>562.2</ele>
        <time>2026-02-22T10:00:11Z</time>
      </trkpt>
      <trkpt lat="43.60149" lon="6.38424">
        <ele>562.3</ele>
        <time>2026-02-22T10:00:12Z</time>
      </trkpt>
      <trkpt lat="43.60149" lon="6.38425">
        <ele>562.3</ele>
        <time>2026-02-22T10:00:13Z</time>
      </trkpt>
      <trkpt lat="43.60149" lon="6.38424">
        <ele>562.3</ele>
        <time>2026-02-22T10:00:14Z</time>
      </trkpt>
      <trkpt lat="43.60148" lon="6.38425">
        <ele>562.3</ele>
        <time>2026-02-22T10:00:15Z</time>
      </trkpt>
      <trkpt lat="43.60148" lon="6.38425">
        <ele>562.3</ele>
        <time>2026-02-22T10:00:16Z</time>
      </trkpt>
      <trkpt lat="43.60148" lon="6.38425">
        <ele>562.2</ele>
        <time>2026-02-22T10:00:17Z</time>
      </trkpt>
      <trkpt lat="43.60148" lon="6.38425">
        <ele>562.2</ele>
        <time>2026-02-22T10:00:18Z</time>
      </trkpt>
      <trkpt lat="43.60149" lon="6.38425">
        <ele>562.2</ele>
        <time>2026-02-22T10:00:19Z</time>
      </trkpt>
      <trkpt lat="43.60149" lon="6.38425">
        <ele>562.2</ele>
        <time>2026-02-22T10:00:20Z</time>
      </trkpt>
      <trkpt lat="43.6015" lon="6.38424">
        <ele>562.2</ele>
        <time>2026-02-22T10:00:21Z</time>
      </trkpt>
      <trkpt lat="43.6015" lon="6.38424">
        <ele>562.2</ele>
        <time>2026-02-22T10:00:22Z</time>
      </trkpt>
      <trkpt lat="43.6015" lon="6.38423">
        <ele>562.2</ele>
        <time>2026-02-22T10:00:23Z</time>
      </trkpt>
      <trkpt lat="43.60149" lon="6.38423">
        <ele>562.2</ele>
        <time>2026-02-22T10:00:24Z</time>
      </trkpt>
      <trkpt lat="43.60149" lon="6.38423">
        <ele>562.2</ele>
        <time>2026-02-22T10:00:25Z</time>
      </trkpt>
      <trkpt lat="43.60149" lon="6.38422">
        <ele>562.2</ele>
        <time>2026-02-22T10:00:26Z</time>
      </trkpt>
      <trkpt lat="43.60149" lon="6.38422">
        <ele>562.2</ele>
        <time>2026-02-22T10:00:27Z</time>
      </trkpt>
      <trkpt lat="43.60148" lon="6.38422">
        <ele>562.2</ele>
        <time>2026-02-22T10:00:28Z</time>
      </trkpt>
      <trkpt lat="43.60148" lon="6.38422">
        <ele>562.2</ele>
        <time>2026-02-22T10:00:29Z</time>
      </trkpt>
      <trkpt lat="43.60148" lon="6.38421">
        <ele>562.2</ele>
        <time>2026-02-22T10:00:30Z</time>
      </trkpt>
      <trkpt lat="43.60148" lon="6.3842">
        <ele>562.1</ele>
        <time>2026-02-22T10:00:31Z</time>
      </trkpt>
      <trkpt lat="43.60148" lon="6.3842">
        <ele>562.1</ele>
        <time>2026-02-22T10:00:32Z</time>
      </trkpt>
      <trkpt lat="43.60148" lon="6.38419">
        <ele>562.2</ele>
        <time>2026-02-22T10:00:33Z</time>
      </trkpt>
      <trkpt lat="43.60148" lon="6.38419">
        <ele>562.2</ele>
        <time>2026-02-22T10:00:34Z</time>
      </trkpt>
      <trkpt lat="43.60148" lon="6.38419">
        <ele>562.2</ele>
        <time>2026-02-22T10:00:35Z</time>
      </trkpt>
      <trkpt lat="43.60149" lon="6.38418">
        <ele>562.2</ele>
        <time>2026-02-22T10:00:36Z</time>
      </trkpt>
      <trkpt lat="43.60149" lon="6.38418">
        <ele>562.2</ele>
        <time>2026-02-22T10:00:37Z</time>
      </trkpt>
      <trkpt lat="43.60149" lon="6.38418">
        <ele>562.1</ele>
        <time>2026-02-22T10:00:38Z</time>
      </trkpt>
      <trkpt lat="43.6015" lon="6.38417">
        <ele>562.1</ele>
        <time>2026-02-22T10:00:39Z</time>
      </trkpt>
      <trkpt lat="43.6015" lon="6.38417">
        <ele>562</ele>
        <time>2026-02-22T10:00:40Z</time>
      </trkpt>
      <trkpt lat="43.60151" lon="6.38417">
        <ele>562</ele>
        <time>2026-02-22T10:00:41Z</time>
      </trkpt>
      <trkpt lat="43.60151" lon="6.38416">
        <ele>562</ele>
        <time>2026-02-22T10:00:42Z</time>
      </trkpt>
      <trkpt lat="43.60151" lon="6.38417">
        <ele>561.9</ele>
        <time>2026-02-22T10:00:43Z</time>
      </trkpt>
      <trkpt lat="43.60151" lon="6.38417">
        <ele>561.9</ele>
        <time>2026-02-22T10:00:44Z</time>
      </trkpt>
      <trkpt lat="43.60152" lon="6.38416">
        <ele>561.9</ele>
        <time>2026-02-22T10:00:45Z</time>
      </trkpt>
      <trkpt lat="43.60152" lon="6.38416">
        <ele>561.9</ele>
        <time>2026-02-22T10:00:46Z</time>
      </trkpt>
      <trkpt lat="43.60152" lon="6.38416">
        <ele>562</ele>
        <time>2026-02-22T10:00:47Z</time>
      </trkpt>
      <trkpt lat="43.60151" lon="6.38415">
        <ele>562</ele>
        <time>2026-02-22T10:00:48Z</time>
      </trkpt>
      <trkpt lat="43.60152" lon="6.38415">
        <ele>562</ele>
        <time>2026-02-22T10:00:49Z</time>
      </trkpt>
      <trkpt lat="43.60152" lon="6.38415">
        <ele>562</ele>
        <time>2026-02-22T10:00:50Z</time>
      </trkpt>
      <trkpt lat="43.60152" lon="6.38415">
        <ele>562</ele>
        <time>2026-02-22T10:00:51Z</time>
      </trkpt>
      <trkpt lat="43.60152" lon="6.38415">
        <ele>561.9</ele>
        <time>2026-02-22T10:00:52Z</time>
      </trkpt>
      <trkpt lat="43.60151" lon="6.38415">
        <ele>561.9</ele>
        <time>2026-02-22T10:00:53Z</time>
      </trkpt>
      <trkpt lat="43.60152" lon="6.38415">
        <ele>561.9</ele>
        <time>2026-02-22T10:00:54Z</time>
      </trkpt>
      <trkpt lat="43.60152" lon="6.38415">
        <ele>561.9</ele>
        <time>2026-02-22T10:00:55Z</time>
      </trkpt>
      <trkpt lat="43.60152" lon="6.38414">
        <ele>561.9</ele>
        <time>2026-02-22T10:00:56Z</time>
      </trkpt>
      <trkpt lat="43.60152" lon="6.38414">
        <ele>561.9</ele>
        <time>2026-02-22T10:00:57Z</time>
      </trkpt>
      <trkpt lat="43.60152" lon="6.38414">
        <ele>562</ele>
        <time>2026-02-22T10:00:58Z</time>
      </trkpt>
      <trkpt lat="43.60153" lon="6.38414">
        <ele>562</ele>
        <time>2026-02-22T10:00:59Z</time>
      </trkpt>
      <trkpt lat="43.60153" lon="6.38414">
        <ele>562.1</ele>
        <time>2026-02-22T10:01:00Z</time>
      </trkpt>
      <trkpt lat="43.60153" lon="6.38414">
        <ele>562.1</ele>
        <time>2026-02-22T10:01:01Z</time>
      </trkpt>
      <trkpt lat="43.60153" lon="6.38414">
        <ele>562.1</ele>
        <time>2026-02-22T10:01:02Z</time>
      </trkpt>
      <trkpt lat="43.60152" lon="6.38414">
        <ele>562</ele>
        <time>2026-02-22T10:01:03Z</time>
      </trkpt>
      <trkpt lat="43.60152" lon="6.38414">
        <ele>562</ele>
        <time>2026-02-22T10:01:04Z</time>
      </trkpt>
      <trkpt lat="43.60152" lon="6.38414">
        <ele>562</ele>
        <time>2026-02-22T10:01:05Z</time>
      </trkpt>
      <trkpt lat="43.60152" lon="6.38414">
        <ele>562</ele>
        <time>2026-02-22T10:01:06Z</time>
      </trkpt>
      <trkpt lat="43.60152" lon="6.38415">
        <ele>562</ele>
        <time>2026-02-22T10:01:07Z</time>
      </trkpt>
      <trkpt lat="43.60152" lon="6.38415">
        <ele>561.9</ele>
        <time>2026-02-22T10:01:08Z</time>
      </trkpt>
      <trkpt lat="43.60152" lon="6.38415">
        <ele>561.9</ele>
        <time>2026-02-22T10:01:09Z</time>
      </trkpt>
      <trkpt lat="43.60151" lon="6.38415">
        <ele>561.9</ele>
        <time>2026-02-22T10:01:10Z</time>
      </trkpt>
      <trkpt lat="43.60151" lon="6.38415">
        <ele>561.9</ele>
        <time>2026-02-22T10:01:11Z</time>
      </trkpt>
      <trkpt lat="43.60151" lon="6.38415">
        <ele>561.9</ele>
        <time>2026-02-22T10:01:12Z</time>
      </trkpt>
      <trkpt lat="43.6015" lon="6.38415">
        <ele>561.9</ele>
        <time>2026-02-22T10:01:13Z</time>
      </trkpt>
      <trkpt lat="43.6015" lon="6.38416">
        <ele>561.9</ele>
        <time>2026-02-22T10:01:14Z</time>
      </trkpt>
      <trkpt lat="43.60149" lon="6.38416">
        <ele>561.9</ele>
        <time>2026-02-22T10:01:15Z</time>
      </trkpt>
      <trkpt lat="43.60149" lon="6.38416">
        <ele>561.9</ele>
        <time>2026-02-22T10:01:16Z</time>
      </trkpt>
      <trkpt lat="43.60149" lon="6.38416">
        <ele>561.9</ele>
        <time>2026-02-22T10:01:17Z</time>
      </trkpt>
      <trkpt lat="43.60149" lon="6.38417">
        <ele>561.9</ele>
        <time>2026-02-22T10:01:18Z</time>
      </trkpt>
      <trkpt lat="43.60149" lon="6.38417">
        <ele>561.9</ele>
        <time>2026-02-22T10:01:19Z</time>
      </trkpt>
      <trkpt lat="43.60149" lon="6.38417">
        <ele>561.9</ele>
        <time>2026-02-22T10:01:20Z</time>
      </trkpt>
      <trkpt lat="43.60149" lon="6.38418">
        <ele>561.8</ele>
        <time>2026-02-22T10:01:21Z</time>
      </trkpt>
      <trkpt lat="43.6015" lon="6.38418">
        <ele>561.8</ele>
        <time>2026-02-22T10:01:22Z</time>
      </trkpt>
      <trkpt lat="43.6015" lon="6.38419">
        <ele>561.7</ele>
        <time>2026-02-22T10:01:23Z</time>
      </trkpt>
      <trkpt lat="43.60151" lon="6.3842">
        <ele>561.7</ele>
        <time>2026-02-22T10:01:24Z</time>
      </trkpt>
      <trkpt lat="43.60151" lon="6.38422">
        <ele>561.7</ele>
        <time>2026-02-22T10:01:25Z</time>
      </trkpt>
      <trkpt lat="43.60152" lon="6.38422">
        <ele>561.7</ele>
        <time>2026-02-22T10:01:26Z</time>
      </trkpt>
      <trkpt lat="43.60153" lon="6.38423">
        <ele>561.8</ele>
        <time>2026-02-22T10:01:27Z</time>
      </trkpt>
      <trkpt lat="43.60154" lon="6.38423">
        <ele>561.8</ele>
        <time>2026-02-22T10:01:28Z</time>
      </trkpt>
      <trkpt lat="43.60154" lon="6.38424">
        <ele>561.7</ele>
        <time>2026-02-22T10:01:29Z</time>
      </trkpt>
      <trkpt lat="43.60154" lon="6.38424">
        <ele>561.6</ele>
        <time>2026-02-22T10:01:30Z</time>
      </trkpt>
      <trkpt lat="43.60155" lon="6.38424">
        <ele>561.6</ele>
        <time>2026-02-22T10:01:31Z</time>
      </trkpt>
      <trkpt lat="43.60155" lon="6.38424">
        <ele>561.5</ele>
        <time>2026-02-22T10:01:32Z</time>
      </trkpt>
      <trkpt lat="43.60155" lon="6.38426">
        <ele>561.4</ele>
        <time>2026-02-22T10:01:33Z</time>
      </trkpt>
      <trkpt lat="43.60155" lon="6.38426">
        <ele>561.4</ele>
        <time>2026-02-22T10:01:34Z</time>
      </trkpt>
      <trkpt lat="43.60156" lon="6.38427">
        <ele>561.3</ele>
        <time>2026-02-22T10:01:35Z</time>
      </trkpt>
      <trkpt lat="43.60156" lon="6.38428">
        <ele>561.3</ele>
        <time>2026-02-22T10:01:36Z</time>
      </trkpt>
      <trkpt lat="43.60156" lon="6.38428">
        <ele>561.3</ele>
        <time>2026-02-22T10:01:37Z</time>
      </trkpt>
      <trkpt lat="43.60157" lon="6.3843">
        <ele>561.3</ele>
        <time>2026-02-22T10:01:38Z</time>
      </trkpt>
      <trkpt lat="43.60158" lon="6.38431">
        <ele>561.3</ele>
        <time>2026-02-22T10:01:39Z</time>
      </trkpt>
      <trkpt lat="43.60159" lon="6.38432">
        <ele>561.2</ele>
        <time>2026-02-22T10:01:40Z</time>
      </trkpt>
      <trkpt lat="43.60159" lon="6.38433">
        <ele>561.1</ele>
        <time>2026-02-22T10:01:41Z</time>
      </trkpt>
      <trkpt lat="43.6016" lon="6.38434">
        <ele>561.1</ele>
        <time>2026-02-22T10:01:42Z</time>
      </trkpt>
      <trkpt lat="43.6016" lon="6.38434">
        <ele>561.1</ele>
        <time>2026-02-22T10:01:43Z</time>
      </trkpt>
      <trkpt lat="43.6016" lon="6.38434">
        <ele>561</ele>
        <time>2026-02-22T10:01:44Z</time>
      </trkpt>
      <trkpt lat="43.6016" lon="6.38434">
        <ele>560.9</ele>
        <time>2026-02-22T10:01:45Z</time>
      </trkpt>
      <trkpt lat="43.6016" lon="6.38434">
        <ele>560.9</ele>
        <time>2026-02-22T10:01:46Z</time>
      </trkpt>
      <trkpt lat="43.6016" lon="6.38435">
        <ele>560.9</ele>
        <time>2026-02-22T10:01:47Z</time>
      </trkpt>
      <trkpt lat="43.60161" lon="6.38436">
        <ele>560.9</ele>
        <time>2026-02-22T10:01:48Z</time>
      </trkpt>
      <trkpt lat="43.60161" lon="6.38436">
        <ele>560.8</ele>
        <time>2026-02-22T10:01:49Z</time>
      </trkpt>
      <trkpt lat="43.60161" lon="6.38436">
        <ele>560.8</ele>
        <time>2026-02-22T10:01:50Z</time>
      </trkpt>
      <trkpt lat="43.60162" lon="6.38435">
        <ele>560.8</ele>
        <time>2026-02-22T10:01:51Z</time>
      </trkpt>
      <trkpt lat="43.60162" lon="6.38434">
        <ele>560.8</ele>
        <time>2026-02-22T10:01:52Z</time>
      </trkpt>
      <trkpt lat="43.60162" lon="6.38434">
        <ele>560.7</ele>
        <time>2026-02-22T10:01:53Z</time>
      </trkpt>
      <trkpt lat="43.60163" lon="6.38433">
        <ele>560.7</ele>
        <time>2026-02-22T10:01:54Z</time>
      </trkpt>
      <trkpt lat="43.60163" lon="6.38433">
        <ele>560.7</ele>
        <time>2026-02-22T10:01:55Z</time>
      </trkpt>
      <trkpt lat="43.60163" lon="6.38432">
        <ele>560.8</ele>
        <time>2026-02-22T10:01:56Z</time>
      </trkpt>
      <trkpt lat="43.60164" lon="6.38432">
        <ele>560.7</ele>
        <time>2026-02-22T10:01:57Z</time>
      </trkpt>
      <trkpt lat="43.60164" lon="6.38431">
        <ele>560.7</ele>
        <time>2026-02-22T10:01:58Z</time>
      </trkpt>
      <trkpt lat="43.60165" lon="6.38431">
        <ele>560.7</ele>
        <time>2026-02-22T10:01:59Z</time>
      </trkpt>
      <trkpt lat="43.60165" lon="6.38431">
        <ele>560.7</ele>
        <time>2026-02-22T10:02:00Z</time>
      </trkpt>
      <trkpt lat="43.60165" lon="6.38431">
        <ele>560.7</ele>
        <time>2026-02-22T10:02:01Z</time>
      </trkpt>
      <trkpt lat="43.60166" lon="6.38431">
        <ele>560.6</ele>
        <time>2026-02-22T10:02:02Z</time>
      </trkpt>
      <trkpt lat="43.60166" lon="6.38431">
        <ele>560.7</ele>
        <time>2026-02-22T10:02:03Z</time>
      </trkpt>
      <trkpt lat="43.60166" lon="6.38431">
        <ele>560.7</ele>
        <time>2026-02-22T10:02:04Z</time>
      </trkpt>
      <trkpt lat="43.60166" lon="6.38431">
        <ele>560.8</ele>
        <time>2026-02-22T10:02:05Z</time>
      </trkpt>
      <trkpt lat="43.60166" lon="6.38431">
        <ele>560.7</ele>
        <time>2026-02-22T10:02:06Z</time>
      </trkpt>
      <trkpt lat="43.60166" lon="6.38431">
        <ele>560.6</ele>
        <time>2026-02-22T10:02:07Z</time>
      </trkpt>
      <trkpt lat="43.60167" lon="6.3843">
        <ele>560.6</ele>
        <time>2026-02-22T10:02:08Z</time>
      </trkpt>
      <trkpt lat="43.60167" lon="6.3843">
        <ele>560.6</ele>
        <time>2026-02-22T10:02:09Z</time>
      </trkpt>
      <trkpt lat="43.60168" lon="6.3843">
        <ele>560.7</ele>
        <time>2026-02-22T10:02:10Z</time>
      </trkpt>
      <trkpt lat="43.60168" lon="6.3843">
        <ele>560.7</ele>
        <time>2026-02-22T10:02:11Z</time>
      </trkpt>
      <trkpt lat="43.60168" lon="6.38429">
        <ele>560.7</ele>
        <time>2026-02-22T10:02:12Z</time>
      </trkpt>
      <trkpt lat="43.60169" lon="6.38429">
        <ele>560.7</ele>
        <time>2026-02-22T10:02:13Z</time>
      </trkpt>
      <trkpt lat="43.60169" lon="6.38429">
        <ele>560.7</ele>
        <time>2026-02-22T10:02:14Z</time>
      </trkpt>
      <trkpt lat="43.6017" lon="6.38429">
        <ele>560.6</ele>
        <time>2026-02-22T10:02:15Z</time>
      </trkpt>
      <trkpt lat="43.6017" lon="6.38429">
        <ele>560.6</ele>
        <time>2026-02-22T10:02:16Z</time>
      </trkpt>
      <trkpt lat="43.6017" lon="6.38428">
        <ele>560.6</ele>
        <time>2026-02-22T10:02:17Z</time>
      </trkpt>
      <trkpt lat="43.60171" lon="6.38428">
        <ele>560.7</ele>
        <time>2026-02-22T10:02:18Z</time>
      </trkpt>
      <trkpt lat="43.60171" lon="6.38428">
        <ele>560.6</ele>
        <time>2026-02-22T10:02:19Z</time>
      </trkpt>
      <trkpt lat="43.60171" lon="6.38428">
        <ele>560.6</ele>
        <time>2026-02-22T10:02:20Z</time>
      </trkpt>
      <trkpt lat="43.60172" lon="6.38428">
        <ele>560.6</ele>
        <time>2026-02-22T10:02:21Z</time>
      </trkpt>
      <trkpt lat="43.60172" lon="6.38427">
        <ele>560.5</ele>
        <time>2026-02-22T10:02:22Z</time>
      </trkpt>
      <trkpt lat="43.60172" lon="6.38427">
        <ele>560.5</ele>
        <time>2026-02-22T10:02:23Z</time>
      </trkpt>
      <trkpt lat="43.60173" lon="6.38427">
        <ele>560.5</ele>
        <time>2026-02-22T10:02:24Z</time>
      </trkpt>
      <trkpt lat="43.60173" lon="6.38427">
        <ele>560.5</ele>
        <time>2026-02-22T10:02:25Z</time>
      </trkpt>
      <trkpt lat="43.60172" lon="6.38429">
        <ele>560.6</ele>
        <time>2026-02-22T10:02:26Z</time>
      </trkpt>
      <trkpt lat="43.60172" lon="6.3843">
        <ele>560.6</ele>
        <time>2026-02-22T10:02:27Z</time>
      </trkpt>
      <trkpt lat="43.60172" lon="6.3843">
        <ele>560.5</ele>
        <time>2026-02-22T10:02:28Z</time>
      </trkpt>
      <trkpt lat="43.60173" lon="6.38431">
        <ele>560.5</ele>
        <time>2026-02-22T10:02:29Z</time>
      </trkpt>
      <trkpt lat="43.60173" lon="6.38431">
        <ele>560.4</ele>
        <time>2026-02-22T10:02:30Z</time>
      </trkpt>
      <trkpt lat="43.60173" lon="6.38432">
        <ele>560.5</ele>
        <time>2026-02-22T10:02:31Z</time>
      </trkpt>
      <trkpt lat="43.60173" lon="6.38434">
        <ele>560.5</ele>
        <time>2026-02-22T10:02:32Z</time>
      </trkpt>
      <trkpt lat="43.60172" lon="6.38435">
        <ele>560.4</ele>
        <time>2026-02-22T10:02:33Z</time>
      </trkpt>
      <trkpt lat="43.60173" lon="6.38436">
        <ele>560.3</ele>
        <time>2026-02-22T10:02:34Z</time>
      </trkpt>
      <trkpt lat="43.60173" lon="6.38437">
        <ele>560.2</ele>
        <time>2026-02-22T10:02:35Z</time>
      </trkpt>
      <trkpt lat="43.60173" lon="6.38438">
        <ele>560.2</ele>
        <time>2026-02-22T10:02:36Z</time>
      </trkpt>
      <trkpt lat="43.60173" lon="6.38439">
        <ele>560.1</ele>
        <time>2026-02-22T10:02:37Z</time>
      </trkpt>
      <trkpt lat="43.60173" lon="6.3844">
        <ele>560</ele>
        <time>2026-02-22T10:02:38Z</time>
      </trkpt>
      <trkpt lat="43.60173" lon="6.38442">
        <ele>560</ele>
        <time>2026-02-22T10:02:39Z</time>
      </trkpt>
      <trkpt lat="43.60172" lon="6.38443">
        <ele>559.8</ele>
        <time>2026-02-22T10:02:40Z</time>
      </trkpt>
      <trkpt lat="43.60171" lon="6.38445">
        <ele>559.7</ele>
        <time>2026-02-22T10:02:41Z</time>
      </trkpt>
      <trkpt lat="43.60172" lon="6.38447">
        <ele>559.6</ele>
        <time>2026-02-22T10:02:42Z</time>
      </trkpt>
      <trkpt lat="43.60172" lon="6.38447">
        <ele>559.5</ele>
        <time>2026-02-22T10:02:43Z</time>
      </trkpt>
      <trkpt lat="43.60174" lon="6.38448">
        <ele>559.3</ele>
        <time>2026-02-22T10:02:44Z</time>
      </trkpt>
      <trkpt lat="43.60174" lon="6.3845">
        <ele>559.2</ele>
        <time>2026-02-22T10:02:45Z</time>
      </trkpt>
      <trkpt lat="43.60175" lon="6.38451">
        <ele>559.1</ele>
        <time>2026-02-22T10:02:46Z</time>
      </trkpt>
      <trkpt lat="43.60175" lon="6.38453">
        <ele>559.1</ele>
        <time>2026-02-22T10:02:47Z</time>
      </trkpt>
      <trkpt lat="43.60175" lon="6.38454">
        <ele>559</ele>
        <time>2026-02-22T10:02:48Z</time>
      </trkpt>
      <trkpt lat="43.60175" lon="6.38455">
        <ele>558.9</ele>
        <time>2026-02-22T10:02:49Z</time>
      </trkpt>
      <trkpt lat="43.60176" lon="6.38457">
        <ele>558.7</ele>
        <time>2026-02-22T10:02:50Z</time>
      </trkpt>
      <trkpt lat="43.60176" lon="6.38459">
        <ele>558.6</ele>
        <time>2026-02-22T10:02:51Z</time>
      </trkpt>
      <trkpt lat="43.60177" lon="6.3846">
        <ele>558.5</ele>
        <time>2026-02-22T10:02:52Z</time>
      </trkpt>
      <trkpt lat="43.60177" lon="6.38461">
        <ele>558.4</ele>
        <time>2026-02-22T10:02:53Z</time>
      </trkpt>
      <trkpt lat="43.60177" lon="6.38462">
        <ele>558.3</ele>
        <time>2026-02-22T10:02:54Z</time>
      </trkpt>
      <trkpt lat="43.60181" lon="6.38461">
        <ele>558.2</ele>
        <time>2026-02-22T10:02:55Z</time>
      </trkpt>
      <trkpt lat="43.6018" lon="6.38462">
        <ele>558.2</ele>
        <time>2026-02-22T10:02:56Z</time>
      </trkpt>
      <trkpt lat="43.6018" lon="6.38463">
        <ele>558.1</ele>
        <time>2026-02-22T10:02:57Z</time>
      </trkpt>
      <trkpt lat="43.60181" lon="6.38464">
        <ele>558</ele>
        <time>2026-02-22T10:02:58Z</time>
      </trkpt>
      <trkpt lat="43.60181" lon="6.38465">
        <ele>558</ele>
        <time>2026-02-22T10:02:59Z</time>
      </trkpt>
      <trkpt lat="43.60182" lon="6.38467">
        <ele>557.9</ele>
        <time>2026-02-22T10:03:00Z</time>
      </trkpt>
      <trkpt lat="43.60182" lon="6.38468">
        <ele>557.7</ele>
        <time>2026-02-22T10:03:01Z</time>
      </trkpt>
      <trkpt lat="43.60183" lon="6.38469">
        <ele>557.5</ele>
        <time>2026-02-22T10:03:02Z</time>
      </trkpt>
      <trkpt lat="43.60184" lon="6.3847">
        <ele>557.4</ele>
        <time>2026-02-22T10:03:03Z</time>
      </trkpt>
      <trkpt lat="43.60185" lon="6.38471">
        <ele>557.3</ele>
        <time>2026-02-22T10:03:04Z</time>
      </trkpt>
      <trkpt lat="43.60187" lon="6.38472">
        <ele>557.1</ele>
        <time>2026-02-22T10:03:05Z</time>
      </trkpt>
      <trkpt lat="43.60187" lon="6.38473">
        <ele>557</ele>
        <time>2026-02-22T10:03:06Z</time>
      </trkpt>
      <trkpt lat="43.60187" lon="6.38474">
        <ele>556.8</ele>
        <time>2026-02-22T10:03:07Z</time>
      </trkpt>
      <trkpt lat="43.60188" lon="6.38476">
        <ele>556.7</ele>
        <time>2026-02-22T10:03:08Z</time>
      </trkpt>
      <trkpt lat="43.60188" lon="6.38478">
        <ele>556.5</ele>
        <time>2026-02-22T10:03:09Z</time>
      </trkpt>
      <trkpt lat="43.60189" lon="6.3848">
        <ele>556.4</ele>
        <time>2026-02-22T10:03:10Z</time>
      </trkpt>
      <trkpt lat="43.60191" lon="6.38482">
        <ele>556.3</ele>
        <time>2026-02-22T10:03:11Z</time>
      </trkpt>
      <trkpt lat="43.60193" lon="6.38483">
        <ele>556.2</ele>
        <time>2026-02-22T10:03:12Z</time>
      </trkpt>
      <trkpt lat="43.60193" lon="6.38485">
        <ele>556.1</ele>
        <time>2026-02-22T10:03:13Z</time>
      </trkpt>
      <trkpt lat="43.60193" lon="6.38487">
        <ele>556</ele>
        <time>2026-02-22T10:03:14Z</time>
      </trkpt>
      <trkpt lat="43.60194" lon="6.38488">
        <ele>555.8</ele>
        <time>2026-02-22T10:03:15Z</time>
      </trkpt>
      <trkpt lat="43.60195" lon="6.3849">
        <ele>555.6</ele>
        <time>2026-02-22T10:03:16Z</time>
      </trkpt>
      <trkpt lat="43.60195" lon="6.38491">
        <ele>555.5</ele>
        <time>2026-02-22T10:03:17Z</time>
      </trkpt>
      <trkpt lat="43.60196" lon="6.38493">
        <ele>555.4</ele>
        <time>2026-02-22T10:03:18Z</time>
      </trkpt>
      <trkpt lat="43.60196" lon="6.38495">
        <ele>555.4</ele>
        <time>2026-02-22T10:03:19Z</time>
      </trkpt>
      <trkpt lat="43.60197" lon="6.38496">
        <ele>555.3</ele>
        <time>2026-02-22T10:03:20Z</time>
      </trkpt>
      <trkpt lat="43.60197" lon="6.38497">
        <ele>555.2</ele>
        <time>2026-02-22T10:03:21Z</time>
      </trkpt>
      <trkpt lat="43.60198" lon="6.38499">
        <ele>555.1</ele>
        <time>2026-02-22T10:03:22Z</time>
      </trkpt>
      <trkpt lat="43.60198" lon="6.385">
        <ele>555</ele>
        <time>2026-02-22T10:03:23Z</time>
      </trkpt>
      <trkpt lat="43.60198" lon="6.38502">
        <ele>555</ele>
        <time>2026-02-22T10:03:24Z</time>
      </trkpt>
      <trkpt lat="43.60198" lon="6.38503">
        <ele>554.7</ele>
        <time>2026-02-22T10:03:25Z</time>
      </trkpt>
      <trkpt lat="43.60198" lon="6.38505">
        <ele>554.6</ele>
        <time>2026-02-22T10:03:26Z</time>
      </trkpt>
      <trkpt lat="43.60198" lon="6.38507">
        <ele>554.4</ele>
        <time>2026-02-22T10:03:27Z</time>
      </trkpt>
      <trkpt lat="43.60199" lon="6.38508">
        <ele>554.4</ele>
        <time>2026-02-22T10:03:28Z</time>
      </trkpt>
      <trkpt lat="43.602" lon="6.38508">
        <ele>554</ele>
        <time>2026-02-22T10:03:29Z</time>
      </trkpt>
      <trkpt lat="43.60199" lon="6.38509">
        <ele>553.8</ele>
        <time>2026-02-22T10:03:30Z</time>
      </trkpt>
      <trkpt lat="43.602" lon="6.3851">
        <ele>553.7</ele>
        <time>2026-02-22T10:03:31Z</time>
      </trkpt>
      <trkpt lat="43.60201" lon="6.38511">
        <ele>553.6</ele>
        <time>2026-02-22T10:03:32Z</time>
      </trkpt>
      <trkpt lat="43.60202" lon="6.38513">
        <ele>553.5</ele>
        <time>2026-02-22T10:03:33Z</time>
      </trkpt>
      <trkpt lat="43.60202" lon="6.38514">
        <ele>553.3</ele>
        <time>2026-02-22T10:03:34Z</time>
      </trkpt>
      <trkpt lat="43.60202" lon="6.38515">
        <ele>553.2</ele>
        <time>2026-02-22T10:03:35Z</time>
      </trkpt>
      <trkpt lat="43.60203" lon="6.38515">
        <ele>553.1</ele>
        <time>2026-02-22T10:03:36Z</time>
      </trkpt>
      <trkpt lat="43.60204" lon="6.38516">
        <ele>553</ele>
        <time>2026-02-22T10:03:37Z</time>
      </trkpt>
      <trkpt lat="43.60204" lon="6.38517">
        <ele>552.9</ele>
        <time>2026-02-22T10:03:38Z</time>
      </trkpt>
      <trkpt lat="43.60205" lon="6.38518">
        <ele>552.7</ele>
        <time>2026-02-22T10:03:39Z</time>
      </trkpt>
      <trkpt lat="43.60206" lon="6.3852">
        <ele>552.6</ele>
        <time>2026-02-22T10:03:40Z</time>
      </trkpt>
      <trkpt lat="43.60205" lon="6.38522">
        <ele>552.5</ele>
        <time>2026-02-22T10:03:41Z</time>
      </trkpt>
      <trkpt lat="43.60205" lon="6.38523">
        <ele>552.3</ele>
        <time>2026-02-22T10:03:42Z</time>
      </trkpt>
      <trkpt lat="43.60206" lon="6.38525">
        <ele>552.2</ele>
        <time>2026-02-22T10:03:43Z</time>
      </trkpt>
      <trkpt lat="43.60207" lon="6.38527">
        <ele>552.1</ele>
        <time>2026-02-22T10:03:44Z</time>
      </trkpt>
      <trkpt lat="43.60207" lon="6.38529">
        <ele>552</ele>
        <time>2026-02-22T10:03:45Z</time>
      </trkpt>
      <trkpt lat="43.60207" lon="6.3853">
        <ele>551.9</ele>
        <time>2026-02-22T10:03:46Z</time>
      </trkpt>
      <trkpt lat="43.60207" lon="6.3853">
        <ele>551.8</ele>
        <time>2026-02-22T10:03:47Z</time>
      </trkpt>
      <trkpt lat="43.60208" lon="6.38532">
        <ele>551.7</ele>
        <time>2026-02-22T10:03:48Z</time>
      </trkpt>
      <trkpt lat="43.60208" lon="6.38534">
        <ele>551.6</ele>
        <time>2026-02-22T10:03:49Z</time>
      </trkpt>
      <trkpt lat="43.60209" lon="6.38536">
        <ele>551.5</ele>
        <time>2026-02-22T10:03:50Z</time>
      </trkpt>
      <trkpt lat="43.60209" lon="6.38537">
        <ele>551.3</ele>
        <time>2026-02-22T10:03:51Z</time>
      </trkpt>
      <trkpt lat="43.6021" lon="6.38539">
        <ele>551.2</ele>
        <time>2026-02-22T10:03:52Z</time>
      </trkpt>
      <trkpt lat="43.60211" lon="6.3854">
        <ele>551.1</ele>
        <time>2026-02-22T10:03:53Z</time>
      </trkpt>
      <trkpt lat="43.60211" lon="6.38542">
        <ele>551</ele>
        <time>2026-02-22T10:03:54Z</time>
      </trkpt>
      <trkpt lat="43.60212" lon="6.38543">
        <ele>550.9</ele>
        <time>2026-02-22T10:03:55Z</time>
      </trkpt>
      <trkpt lat="43.60212" lon="6.38545">
        <ele>550.8</ele>
        <time>2026-02-22T10:03:56Z</time>
      </trkpt>
      <trkpt lat="43.60213" lon="6.38546">
        <ele>550.8</ele>
        <time>2026-02-22T10:03:57Z</time>
      </trkpt>
      <trkpt lat="43.60214" lon="6.38547">
        <ele>550.5</ele>
        <time>2026-02-22T10:03:58Z</time>
      </trkpt>
      <trkpt lat="43.60214" lon="6.38549">
        <ele>550.4</ele>
        <time>2026-02-22T10:03:59Z</time>
      </trkpt>
      <trkpt lat="43.60215" lon="6.38551">
        <ele>550.3</ele>
        <time>2026-02-22T10:04:00Z</time>
      </trkpt>
      <trkpt lat="43.60216" lon="6.38552">
        <ele>550.3</ele>
        <time>2026-02-22T10:04:01Z</time>
      </trkpt>
      <trkpt lat="43.60216" lon="6.38554">
        <ele>550</ele>
        <time>2026-02-22T10:04:02Z</time>
      </trkpt>
      <trkpt lat="43.60218" lon="6.38555">
        <ele>549.8</ele>
        <time>2026-02-22T10:04:03Z</time>
      </trkpt>
      <trkpt lat="43.6022" lon="6.38555">
        <ele>549.8</ele>
        <time>2026-02-22T10:04:04Z</time>
      </trkpt>
      <trkpt lat="43.6022" lon="6.38557">
        <ele>549.8</ele>
        <time>2026-02-22T10:04:05Z</time>
      </trkpt>
      <trkpt lat="43.60221" lon="6.38558">
        <ele>549.7</ele>
        <time>2026-02-22T10:04:06Z</time>
      </trkpt>
      <trkpt lat="43.60221" lon="6.38559">
        <ele>549.6</ele>
        <time>2026-02-22T10:04:07Z</time>
      </trkpt>
      <trkpt lat="43.60222" lon="6.38561">
        <ele>549.3</ele>
        <time>2026-02-22T10:04:08Z</time>
      </trkpt>
      <trkpt lat="43.60221" lon="6.38562">
        <ele>549.1</ele>
        <time>2026-02-22T10:04:09Z</time>
      </trkpt>
      <trkpt lat="43.60222" lon="6.38563">
        <ele>548.9</ele>
        <time>2026-02-22T10:04:10Z</time>
      </trkpt>
      <trkpt lat="43.60222" lon="6.38564">
        <ele>548.7</ele>
        <time>2026-02-22T10:04:11Z</time>
      </trkpt>
      <trkpt lat="43.60222" lon="6.38566">
        <ele>548.5</ele>
        <time>2026-02-22T10:04:12Z</time>
      </trkpt>
      <trkpt lat="43.60222" lon="6.38566">
        <ele>548.4</ele>
        <time>2026-02-22T10:04:13Z</time>
      </trkpt>
      <trkpt lat="43.60223" lon="6.38566">
        <ele>548.3</ele>
        <time>2026-02-22T10:04:14Z</time>
      </trkpt>
      <trkpt lat="43.60222" lon="6.38567">
        <ele>548.2</ele>
        <time>2026-02-22T10:04:15Z</time>
      </trkpt>
      <trkpt lat="43.60222" lon="6.38568">
        <ele>548.1</ele>
        <time>2026-02-22T10:04:16Z</time>
      </trkpt>
      <trkpt lat="43.60223" lon="6.38569">
        <ele>548.1</ele>
        <time>2026-02-22T10:04:17Z</time>
      </trkpt>
      <trkpt lat="43.60224" lon="6.3857">
        <ele>548</ele>
        <time>2026-02-22T10:04:18Z</time>
      </trkpt>
      <trkpt lat="43.60224" lon="6.38571">
        <ele>547.9</ele>
        <time>2026-02-22T10:04:19Z</time>
      </trkpt>
      <trkpt lat="43.60225" lon="6.38572">
        <ele>547.8</ele>
        <time>2026-02-22T10:04:20Z</time>
      </trkpt>
      <trkpt lat="43.60227" lon="6.38573">
        <ele>547.7</ele>
        <time>2026-02-22T10:04:21Z</time>
      </trkpt>
      <trkpt lat="43.60228" lon="6.38574">
        <ele>547.6</ele>
        <time>2026-02-22T10:04:22Z</time>
      </trkpt>
      <trkpt lat="43.60229" lon="6.38576">
        <ele>547.5</ele>
        <time>2026-02-22T10:04:23Z</time>
      </trkpt>
      <trkpt lat="43.60229" lon="6.38576">
        <ele>547.4</ele>
        <time>2026-02-22T10:04:24Z</time>
      </trkpt>
      <trkpt lat="43.6023" lon="6.38577">
        <ele>547.3</ele>
        <time>2026-02-22T10:04:25Z</time>
      </trkpt>
      <trkpt lat="43.60231" lon="6.38578">
        <ele>547.2</ele>
        <time>2026-02-22T10:04:26Z</time>
      </trkpt>
      <trkpt lat="43.60231" lon="6.38579">
        <ele>547.1</ele>
        <time>2026-02-22T10:04:27Z</time>
      </trkpt>
      <trkpt lat="43.60232" lon="6.38581">
        <ele>547</ele>
        <time>2026-02-22T10:04:28Z</time>
      </trkpt>
      <trkpt lat="43.60232" lon="6.38582">
        <ele>546.8</ele>
        <time>2026-02-22T10:04:29Z</time>
      </trkpt>
      <trkpt lat="43.60232" lon="6.38583">
        <ele>546.6</ele>
        <time>2026-02-22T10:04:30Z</time>
      </trkpt>
      <trkpt lat="43.60233" lon="6.38584">
        <ele>546.3</ele>
        <time>2026-02-22T10:04:31Z</time>
      </trkpt>
      <trkpt lat="43.60233" lon="6.38585">
        <ele>546.2</ele>
        <time>2026-02-22T10:04:32Z</time>
      </trkpt>
      <trkpt lat="43.60234" lon="6.38586">
        <ele>546.1</ele>
        <time>2026-02-22T10:04:33Z</time>
      </trkpt>
      <trkpt lat="43.60234" lon="6.38587">
        <ele>546</ele>
        <time>2026-02-22T10:04:34Z</time>
      </trkpt>
      <trkpt lat="43.60234" lon="6.38589">
        <ele>545.8</ele>
        <time>2026-02-22T10:04:35Z</time>
      </trkpt>
      <trkpt lat="43.60234" lon="6.38591">
        <ele>545.8</ele>
        <time>2026-02-22T10:04:36Z</time>
      </trkpt>
      <trkpt lat="43.60234" lon="6.38593">
        <ele>545.6</ele>
        <time>2026-02-22T10:04:37Z</time>
      </trkpt>
      <trkpt lat="43.60235" lon="6.38594">
        <ele>545.4</ele>
        <time>2026-02-22T10:04:38Z</time>
      </trkpt>
      <trkpt lat="43.60235" lon="6.38596">
        <ele>545.4</ele>
        <time>2026-02-22T10:04:39Z</time>
      </trkpt>
      <trkpt lat="43.60235" lon="6.38597">
        <ele>545.2</ele>
        <time>2026-02-22T10:04:40Z</time>
      </trkpt>
      <trkpt lat="43.60236" lon="6.38599">
        <ele>545</ele>
        <time>2026-02-22T10:04:41Z</time>
      </trkpt>
      <trkpt lat="43.60237" lon="6.386">
        <ele>544.8</ele>
        <time>2026-02-22T10:04:42Z</time>
      </trkpt>
      <trkpt lat="43.60237" lon="6.38602">
        <ele>544.8</ele>
        <time>2026-02-22T10:04:43Z</time>
      </trkpt>
      <trkpt lat="43.60238" lon="6.38603">
        <ele>544.7</ele>
        <time>2026-02-22T10:04:44Z</time>
      </trkpt>
      <trkpt lat="43.60238" lon="6.38604">
        <ele>544.6</ele>
        <time>2026-02-22T10:04:45Z</time>
      </trkpt>
      <trkpt lat="43.60239" lon="6.38606">
        <ele>544.6</ele>
        <time>2026-02-22T10:04:46Z</time>
      </trkpt>
      <trkpt lat="43.60239" lon="6.38607">
        <ele>544.3</ele>
        <time>2026-02-22T10:04:47Z</time>
      </trkpt>
      <trkpt lat="43.60239" lon="6.38608">
        <ele>544.1</ele>
        <time>2026-02-22T10:04:48Z</time>
      </trkpt>
      <trkpt lat="43.6024" lon="6.38609">
        <ele>544</ele>
        <time>2026-02-22T10:04:49Z</time>
      </trkpt>
      <trkpt lat="43.60241" lon="6.3861">
        <ele>543.9</ele>
        <time>2026-02-22T10:04:50Z</time>
      </trkpt>
      <trkpt lat="43.60242" lon="6.38612">
        <ele>543.8</ele>
        <time>2026-02-22T10:04:51Z</time>
      </trkpt>
      <trkpt lat="43.60243" lon="6.38613">
        <ele>543.6</ele>
        <time>2026-02-22T10:04:52Z</time>
      </trkpt>
      <trkpt lat="43.60243" lon="6.38614">
        <ele>543.5</ele>
        <time>2026-02-22T10:04:53Z</time>
      </trkpt>
      <trkpt lat="43.60244" lon="6.38616">
        <ele>543.4</ele>
        <time>2026-02-22T10:04:54Z</time>
      </trkpt>
      <trkpt lat="43.60244" lon="6.38617">
        <ele>543.3</ele>
        <time>2026-02-22T10:04:55Z</time>
      </trkpt>
      <trkpt lat="43.60245" lon="6.38618">
        <ele>543.1</ele>
        <time>2026-02-22T10:04:56Z</time>
      </trkpt>
      <trkpt lat="43.60245" lon="6.3862">
        <ele>543.1</ele>
        <time>2026-02-22T10:04:57Z</time>
      </trkpt>
      <trkpt lat="43.60245" lon="6.38622">
        <ele>543</ele>
        <time>2026-02-22T10:04:58Z</time>
      </trkpt>
      <trkpt lat="43.60246" lon="6.38623">
        <ele>542.9</ele>
        <time>2026-02-22T10:04:59Z</time>
      </trkpt>
      <trkpt lat="43.60246" lon="6.38625">
        <ele>542.8</ele>
        <time>2026-02-22T10:05:00Z</time>
      </trkpt>
      <trkpt lat="43.60246" lon="6.38626">
        <ele>542.6</ele>
        <time>2026-02-22T10:05:01Z</time>
      </trkpt>
      <trkpt lat="43.60247" lon="6.38627">
        <ele>542.5</ele>
        <time>2026-02-22T10:05:02Z</time>
      </trkpt>
      <trkpt lat="43.60247" lon="6.38628">
        <ele>542.3</ele>
        <time>2026-02-22T10:05:03Z</time>
      </trkpt>
      <trkpt lat="43.60246" lon="6.38629">
        <ele>542.1</ele>
        <time>2026-02-22T10:05:04Z</time>
      </trkpt>
      <trkpt lat="43.60247" lon="6.3863">
        <ele>541.9</ele>
        <time>2026-02-22T10:05:05Z</time>
      </trkpt>
      <trkpt lat="43.60247" lon="6.38632">
        <ele>541.7</ele>
        <time>2026-02-22T10:05:06Z</time>
      </trkpt>
      <trkpt lat="43.60247" lon="6.38633">
        <ele>541.6</ele>
        <time>2026-02-22T10:05:07Z</time>
      </trkpt>
      <trkpt lat="43.60247" lon="6.38634">
        <ele>541.4</ele>
        <time>2026-02-22T10:05:08Z</time>
      </trkpt>
      <trkpt lat="43.60248" lon="6.38635">
        <ele>541.2</ele>
        <time>2026-02-22T10:05:09Z</time>
      </trkpt>
      <trkpt lat="43.60248" lon="6.38636">
        <ele>540.6</ele>
        <time>2026-02-22T10:05:10Z</time>
      </trkpt>
      <trkpt lat="43.60248" lon="6.38638">
        <ele>540.4</ele>
        <time>2026-02-22T10:05:11Z</time>
      </trkpt>
      <trkpt lat="43.60247" lon="6.38639">
        <ele>540.4</ele>
        <time>2026-02-22T10:05:12Z</time>
      </trkpt>
      <trkpt lat="43.60248" lon="6.3864">
        <ele>540.2</ele>
        <time>2026-02-22T10:05:13Z</time>
      </trkpt>
      <trkpt lat="43.60248" lon="6.38641">
        <ele>540.1</ele>
        <time>2026-02-22T10:05:14Z</time>
      </trkpt>
      <trkpt lat="43.60249" lon="6.38642">
        <ele>540</ele>
        <time>2026-02-22T10:05:15Z</time>
      </trkpt>
      <trkpt lat="43.60249" lon="6.38643">
        <ele>539.9</ele>
        <time>2026-02-22T10:05:16Z</time>
      </trkpt>
      <trkpt lat="43.60249" lon="6.38644">
        <ele>539.8</ele>
        <time>2026-02-22T10:05:17Z</time>
      </trkpt>
      <trkpt lat="43.60248" lon="6.38645">
        <ele>539.7</ele>
        <time>2026-02-22T10:05:18Z</time>
      </trkpt>
      <trkpt lat="43.60248" lon="6.38647">
        <ele>539.6</ele>
        <time>2026-02-22T10:05:19Z</time>
      </trkpt>
      <trkpt lat="43.60247" lon="6.3865">
        <ele>539.4</ele>
        <time>2026-02-22T10:05:20Z</time>
      </trkpt>
      <trkpt lat="43.60247" lon="6.38651">
        <ele>539.2</ele>
        <time>2026-02-22T10:05:21Z</time>
      </trkpt>
      <trkpt lat="43.60247" lon="6.38652">
        <ele>539</ele>
        <time>2026-02-22T10:05:22Z</time>
      </trkpt>
      <trkpt lat="43.60247" lon="6.38653">
        <ele>538.9</ele>
        <time>2026-02-22T10:05:23Z</time>
      </trkpt>
      <trkpt lat="43.60248" lon="6.38653">
        <ele>538.8</ele>
        <time>2026-02-22T10:05:24Z</time>
      </trkpt>
      <trkpt lat="43.60248" lon="6.38655">
        <ele>538.6</ele>
        <time>2026-02-22T10:05:25Z</time>
      </trkpt>
      <trkpt lat="43.60249" lon="6.38656">
        <ele>538.5</ele>
        <time>2026-02-22T10:05:26Z</time>
      </trkpt>
      <trkpt lat="43.60248" lon="6.38657">
        <ele>538.5</ele>
        <time>2026-02-22T10:05:27Z</time>
      </trkpt>
      <trkpt lat="43.60248" lon="6.38659">
        <ele>538.3</ele>
        <time>2026-02-22T10:05:28Z</time>
      </trkpt>
      <trkpt lat="43.60248" lon="6.38661">
        <ele>538.1</ele>
        <time>2026-02-22T10:05:29Z</time>
      </trkpt>
      <trkpt lat="43.60249" lon="6.38662">
        <ele>538</ele>
        <time>2026-02-22T10:05:30Z</time>
      </trkpt>
      <trkpt lat="43.60249" lon="6.38662">
        <ele>537.9</ele>
        <time>2026-02-22T10:05:31Z</time>
      </trkpt>
      <trkpt lat="43.60249" lon="6.38664">
        <ele>537.8</ele>
        <time>2026-02-22T10:05:32Z</time>
      </trkpt>
      <trkpt lat="43.60249" lon="6.38665">
        <ele>537.8</ele>
        <time>2026-02-22T10:05:33Z</time>
      </trkpt>
      <trkpt lat="43.6025" lon="6.38667">
        <ele>537.8</ele>
        <time>2026-02-22T10:05:34Z</time>
      </trkpt>
      <trkpt lat="43.60251" lon="6.38669">
        <ele>537.7</ele>
        <time>2026-02-22T10:05:35Z</time>
      </trkpt>
      <trkpt lat="43.60251" lon="6.38671">
        <ele>537.6</ele>
        <time>2026-02-22T10:05:36Z</time>
      </trkpt>
      <trkpt lat="43.60252" lon="6.38672">
        <ele>537.6</ele>
        <time>2026-02-22T10:05:37Z</time>
      </trkpt>
      <trkpt lat="43.60252" lon="6.38674">
        <ele>537.5</ele>
        <time>2026-02-22T10:05:38Z</time>
      </trkpt>
      <trkpt lat="43.60253" lon="6.38676">
        <ele>537.5</ele>
        <time>2026-02-22T10:05:39Z</time>
      </trkpt>
      <trkpt lat="43.60253" lon="6.38677">
        <ele>537.4</ele>
        <time>2026-02-22T10:05:40Z</time>
      </trkpt>
      <trkpt lat="43.60255" lon="6.38679">
        <ele>537.2</ele>
        <time>2026-02-22T10:05:41Z</time>
      </trkpt>
      <trkpt lat="43.60255" lon="6.3868">
        <ele>537.1</ele>
        <time>2026-02-22T10:05:42Z</time>
      </trkpt>
      <trkpt lat="43.60256" lon="6.38682">
        <ele>537</ele>
        <time>2026-02-22T10:05:43Z</time>
      </trkpt>
      <trkpt lat="43.60256" lon="6.38683">
        <ele>536.9</ele>
        <time>2026-02-22T10:05:44Z</time>
      </trkpt>
      <trkpt lat="43.60257" lon="6.38684">
        <ele>536.7</ele>
        <time>2026-02-22T10:05:45Z</time>
      </trkpt>
      <trkpt lat="43.60257" lon="6.38686">
        <ele>536.6</ele>
        <time>2026-02-22T10:05:46Z</time>
      </trkpt>
      <trkpt lat="43.60257" lon="6.38688">
        <ele>536.6</ele>
        <time>2026-02-22T10:05:47Z</time>
      </trkpt>
      <trkpt lat="43.60257" lon="6.3869">
        <ele>536.5</ele>
        <time>2026-02-22T10:05:48Z</time>
      </trkpt>
      <trkpt lat="43.60258" lon="6.38691">
        <ele>536.5</ele>
        <time>2026-02-22T10:05:49Z</time>
      </trkpt>
      <trkpt lat="43.60258" lon="6.38692">
        <ele>536.4</ele>
        <time>2026-02-22T10:05:50Z</time>
      </trkpt>
      <trkpt lat="43.60258" lon="6.38693">
        <ele>536.2</ele>
        <time>2026-02-22T10:05:51Z</time>
      </trkpt>
      <trkpt lat="43.60259" lon="6.38694">
        <ele>536.1</ele>
        <time>2026-02-22T10:05:52Z</time>
      </trkpt>
      <trkpt lat="43.60259" lon="6.38696">
        <ele>536</ele>
        <time>2026-02-22T10:05:53Z</time>
      </trkpt>
      <trkpt lat="43.60259" lon="6.38697">
        <ele>535.8</ele>
        <time>2026-02-22T10:05:54Z</time>
      </trkpt>
      <trkpt lat="43.6026" lon="6.38698">
        <ele>535.8</ele>
        <time>2026-02-22T10:05:55Z</time>
      </trkpt>
      <trkpt lat="43.6026" lon="6.387">
        <ele>535.7</ele>
        <time>2026-02-22T10:05:56Z</time>
      </trkpt>
      <trkpt lat="43.60259" lon="6.38701">
        <ele>535.7</ele>
        <time>2026-02-22T10:05:57Z</time>
      </trkpt>
      <trkpt lat="43.60259" lon="6.38702">
        <ele>535.6</ele>
        <time>2026-02-22T10:05:58Z</time>
      </trkpt>
      <trkpt lat="43.60259" lon="6.38703">
        <ele>535.4</ele>
        <time>2026-02-22T10:05:59Z</time>
      </trkpt>
      <trkpt lat="43.6026" lon="6.38704">
        <ele>535.2</ele>
        <time>2026-02-22T10:06:00Z</time>
      </trkpt>
      <trkpt lat="43.6026" lon="6.38706">
        <ele>535.1</ele>
        <time>2026-02-22T10:06:01Z</time>
      </trkpt>
      <trkpt lat="43.60261" lon="6.38708">
        <ele>535.1</ele>
        <time>2026-02-22T10:06:02Z</time>
      </trkpt>
      <trkpt lat="43.60261" lon="6.38709">
        <ele>535.1</ele>
        <time>2026-02-22T10:06:03Z</time>
      </trkpt>
      <trkpt lat="43.60261" lon="6.38711">
        <ele>535.1</ele>
        <time>2026-02-22T10:06:04Z</time>
      </trkpt>
      <trkpt lat="43.60262" lon="6.38712">
        <ele>535</ele>
        <time>2026-02-22T10:06:05Z</time>
      </trkpt>
      <trkpt lat="43.60262" lon="6.38713">
        <ele>535</ele>
        <time>2026-02-22T10:06:06Z</time>
      </trkpt>
      <trkpt lat="43.60262" lon="6.38715">
        <ele>535</ele>
        <time>2026-02-22T10:06:07Z</time>
      </trkpt>
      <trkpt lat="43.60263" lon="6.38716">
        <ele>534.9</ele>
        <time>2026-02-22T10:06:08Z</time>
      </trkpt>
      <trkpt lat="43.60263" lon="6.38718">
        <ele>534.9</ele>
        <time>2026-02-22T10:06:09Z</time>
      </trkpt>
      <trkpt lat="43.60263" lon="6.38719">
        <ele>534.9</ele>
        <time>2026-02-22T10:06:10Z</time>
      </trkpt>
      <trkpt lat="43.60263" lon="6.38721">
        <ele>534.8</ele>
        <time>2026-02-22T10:06:11Z</time>
      </trkpt>
      <trkpt lat="43.60263" lon="6.38723">
        <ele>534.8</ele>
        <time>2026-02-22T10:06:12Z</time>
      </trkpt>
      <trkpt lat="43.60264" lon="6.38724">
        <ele>534.8</ele>
        <time>2026-02-22T10:06:13Z</time>
      </trkpt>
      <trkpt lat="43.60264" lon="6.38725">
        <ele>534.9</ele>
        <time>2026-02-22T10:06:14Z</time>
      </trkpt>
      <trkpt lat="43.60264" lon="6.38726">
        <ele>534.8</ele>
        <time>2026-02-22T10:06:15Z</time>
      </trkpt>
      <trkpt lat="43.60263" lon="6.38728">
        <ele>534.7</ele>
        <time>2026-02-22T10:06:16Z</time>
      </trkpt>
      <trkpt lat="43.60263" lon="6.38729">
        <ele>534.7</ele>
        <time>2026-02-22T10:06:17Z</time>
      </trkpt>
      <trkpt lat="43.60263" lon="6.3873">
        <ele>534.6</ele>
        <time>2026-02-22T10:06:18Z</time>
      </trkpt>
      <trkpt lat="43.60263" lon="6.38731">
        <ele>534.6</ele>
        <time>2026-02-22T10:06:19Z</time>
      </trkpt>
      <trkpt lat="43.60263" lon="6.38731">
        <ele>534.6</ele>
        <time>2026-02-22T10:06:20Z</time>
      </trkpt>
      <trkpt lat="43.60263" lon="6.38732">
        <ele>534.6</ele>
        <time>2026-02-22T10:06:21Z</time>
      </trkpt>
      <trkpt lat="43.60262" lon="6.38733">
        <ele>534.6</ele>
        <time>2026-02-22T10:06:22Z</time>
      </trkpt>
      <trkpt lat="43.60262" lon="6.38734">
        <ele>534.7</ele>
        <time>2026-02-22T10:06:23Z</time>
      </trkpt>
      <trkpt lat="43.60262" lon="6.38736">
        <ele>534.8</ele>
        <time>2026-02-22T10:06:24Z</time>
      </trkpt>
      <trkpt lat="43.60263" lon="6.38737">
        <ele>534.8</ele>
        <time>2026-02-22T10:06:25Z</time>
      </trkpt>
      <trkpt lat="43.60263" lon="6.38738">
        <ele>534.8</ele>
        <time>2026-02-22T10:06:26Z</time>
      </trkpt>
      <trkpt lat="43.60263" lon="6.3874">
        <ele>534.7</ele>
        <time>2026-02-22T10:06:27Z</time>
      </trkpt>
      <trkpt lat="43.60263" lon="6.38742">
        <ele>534.6</ele>
        <time>2026-02-22T10:06:28Z</time>
      </trkpt>
      <trkpt lat="43.60263" lon="6.38744">
        <ele>534.6</ele>
        <time>2026-02-22T10:06:29Z</time>
      </trkpt>
      <trkpt lat="43.60263" lon="6.38744">
        <ele>534.6</ele>
        <time>2026-02-22T10:06:30Z</time>
      </trkpt>
      <trkpt lat="43.60263" lon="6.38745">
        <ele>534.5</ele>
        <time>2026-02-22T10:06:31Z</time>
      </trkpt>
      <trkpt lat="43.60263" lon="6.38746">
        <ele>534.5</ele>
        <time>2026-02-22T10:06:32Z</time>
      </trkpt>
      <trkpt lat="43.60263" lon="6.38748">
        <ele>534.4</ele>
        <time>2026-02-22T10:06:33Z</time>
      </trkpt>
      <trkpt lat="43.60262" lon="6.38749">
        <ele>534.6</ele>
        <time>2026-02-22T10:06:34Z</time>
      </trkpt>
      <trkpt lat="43.60262" lon="6.38749">
        <ele>534.5</ele>
        <time>2026-02-22T10:06:35Z</time>
      </trkpt>
      <trkpt lat="43.60261" lon="6.3875">
        <ele>534.6</ele>
        <time>2026-02-22T10:06:36Z</time>
      </trkpt>
      <trkpt lat="43.60261" lon="6.38751">
        <ele>534.6</ele>
        <time>2026-02-22T10:06:37Z</time>
      </trkpt>
      <trkpt lat="43.60261" lon="6.38752">
        <ele>534.6</ele>
        <time>2026-02-22T10:06:38Z</time>
      </trkpt>
      <trkpt lat="43.60261" lon="6.38754">
        <ele>534.7</ele>
        <time>2026-02-22T10:06:39Z</time>
      </trkpt>
      <trkpt lat="43.6026" lon="6.38755">
        <ele>534.7</ele>
        <time>2026-02-22T10:06:40Z</time>
      </trkpt>
      <trkpt lat="43.6026" lon="6.38755">
        <ele>534.7</ele>
        <time>2026-02-22T10:06:41Z</time>
      </trkpt>
      <trkpt lat="43.6026" lon="6.38756">
        <ele>534.7</ele>
        <time>2026-02-22T10:06:42Z</time>
      </trkpt>
      <trkpt lat="43.60259" lon="6.38757">
        <ele>534.7</ele>
        <time>2026-02-22T10:06:43Z</time>
      </trkpt>
      <trkpt lat="43.60259" lon="6.38758">
        <ele>534.6</ele>
        <time>2026-02-22T10:06:44Z</time>
      </trkpt>
      <trkpt lat="43.60259" lon="6.38759">
        <ele>534.6</ele>
        <time>2026-02-22T10:06:45Z</time>
      </trkpt>
      <trkpt lat="43.60258" lon="6.38761">
        <ele>534.6</ele>
        <time>2026-02-22T10:06:46Z</time>
      </trkpt>
      <trkpt lat="43.60258" lon="6.38762">
        <ele>534.7</ele>
        <time>2026-02-22T10:06:47Z</time>
      </trkpt>
      <trkpt lat="43.60257" lon="6.38764">
        <ele>534.7</ele>
        <time>2026-02-22T10:06:48Z</time>
      </trkpt>
      <trkpt lat="43.60257" lon="6.38766">
        <ele>534.7</ele>
        <time>2026-02-22T10:06:49Z</time>
      </trkpt>
      <trkpt lat="43.60256" lon="6.38767">
        <ele>534.6</ele>
        <time>2026-02-22T10:06:50Z</time>
      </trkpt>
      <trkpt lat="43.60256" lon="6.38769">
        <ele>534.6</ele>
        <time>2026-02-22T10:06:51Z</time>
      </trkpt>
      <trkpt lat="43.60256" lon="6.3877">
        <ele>534.5</ele>
        <time>2026-02-22T10:06:52Z</time>
      </trkpt>
      <trkpt lat="43.60256" lon="6.38771">
        <ele>534.5</ele>
        <time>2026-02-22T10:06:53Z</time>
      </trkpt>
      <trkpt lat="43.60256" lon="6.38773">
        <ele>534.6</ele>
        <time>2026-02-22T10:06:54Z</time>
      </trkpt>
      <trkpt lat="43.60256" lon="6.38774">
        <ele>534.6</ele>
        <time>2026-02-22T10:06:55Z</time>
      </trkpt>
      <trkpt lat="43.60256" lon="6.38775">
        <ele>534.5</ele>
        <time>2026-02-22T10:06:56Z</time>
      </trkpt>
      <trkpt lat="43.60255" lon="6.38776">
        <ele>534.4</ele>
        <time>2026-02-22T10:06:57Z</time>
      </trkpt>
      <trkpt lat="43.60255" lon="6.38777">
        <ele>534.5</ele>
        <time>2026-02-22T10:06:58Z</time>
      </trkpt>
      <trkpt lat="43.60255" lon="6.38778">
        <ele>534.5</ele>
        <time>2026-02-22T10:06:59Z</time>
      </trkpt>
      <trkpt lat="43.60254" lon="6.38781">
        <ele>534.6</ele>
        <time>2026-02-22T10:07:00Z</time>
      </trkpt>
      <trkpt lat="43.60254" lon="6.38782">
        <ele>534.6</ele>
        <time>2026-02-22T10:07:01Z</time>
      </trkpt>
      <trkpt lat="43.60254" lon="6.38783">
        <ele>534.6</ele>
        <time>2026-02-22T10:07:02Z</time>
      </trkpt>
      <trkpt lat="43.60253" lon="6.38784">
        <ele>534.6</ele>
        <time>2026-02-22T10:07:03Z</time>
      </trkpt>
      <trkpt lat="43.60252" lon="6.38786">
        <ele>534.6</ele>
        <time>2026-02-22T10:07:04Z</time>
      </trkpt>
      <trkpt lat="43.60251" lon="6.38788">
        <ele>534.6</ele>
        <time>2026-02-22T10:07:05Z</time>
      </trkpt>
      <trkpt lat="43.60251" lon="6.38789">
        <ele>534.6</ele>
        <time>2026-02-22T10:07:06Z</time>
      </trkpt>
      <trkpt lat="43.60251" lon="6.38793">
        <ele>534.6</ele>
        <time>2026-02-22T10:07:07Z</time>
      </trkpt>
      <trkpt lat="43.60251" lon="6.38795">
        <ele>534.6</ele>
        <time>2026-02-22T10:07:08Z</time>
      </trkpt>
      <trkpt lat="43.60251" lon="6.38796">
        <ele>534.6</ele>
        <time>2026-02-22T10:07:09Z</time>
      </trkpt>
      <trkpt lat="43.60251" lon="6.38797">
        <ele>534.7</ele>
        <time>2026-02-22T10:07:10Z</time>
      </trkpt>
      <trkpt lat="43.60251" lon="6.38797">
        <ele>534.6</ele>
        <time>2026-02-22T10:07:11Z</time>
      </trkpt>
      <trkpt lat="43.6025" lon="6.38798">
        <ele>534.6</ele>
        <time>2026-02-22T10:07:12Z</time>
      </trkpt>
      <trkpt lat="43.60249" lon="6.38799">
        <ele>534.6</ele>
        <time>2026-02-22T10:07:13Z</time>
      </trkpt>
      <trkpt lat="43.60249" lon="6.38799">
        <ele>534.7</ele>
        <time>2026-02-22T10:07:14Z</time>
      </trkpt>
      <trkpt lat="43.60249" lon="6.388">
        <ele>534.8</ele>
        <time>2026-02-22T10:07:15Z</time>
      </trkpt>
      <trkpt lat="43.60248" lon="6.388">
        <ele>534.8</ele>
        <time>2026-02-22T10:07:16Z</time>
      </trkpt>
      <trkpt lat="43.60248" lon="6.38802">
        <ele>534.9</ele>
        <time>2026-02-22T10:07:17Z</time>
      </trkpt>
      <trkpt lat="43.60247" lon="6.38803">
        <ele>534.8</ele>
        <time>2026-02-22T10:07:18Z</time>
      </trkpt>
      <trkpt lat="43.60246" lon="6.38805">
        <ele>534.8</ele>
        <time>2026-02-22T10:07:19Z</time>
      </trkpt>
      <trkpt lat="43.60246" lon="6.38806">
        <ele>534.8</ele>
        <time>2026-02-22T10:07:20Z</time>
      </trkpt>
      <trkpt lat="43.60247" lon="6.38807">
        <ele>534.9</ele>
        <time>2026-02-22T10:07:21Z</time>
      </trkpt>
      <trkpt lat="43.60246" lon="6.38807">
        <ele>535</ele>
        <time>2026-02-22T10:07:22Z</time>
      </trkpt>
      <trkpt lat="43.60245" lon="6.38809">
        <ele>534.8</ele>
        <time>2026-02-22T10:07:23Z</time>
      </trkpt>
      <trkpt lat="43.60244" lon="6.38809">
        <ele>534.8</ele>
        <time>2026-02-22T10:07:24Z</time>
      </trkpt>
      <trkpt lat="43.60244" lon="6.3881">
        <ele>534.8</ele>
        <time>2026-02-22T10:07:25Z</time>
      </trkpt>
      <trkpt lat="43.60243" lon="6.3881">
        <ele>534.9</ele>
        <time>2026-02-22T10:07:26Z</time>
      </trkpt>
      <trkpt lat="43.60242" lon="6.38811">
        <ele>534.9</ele>
        <time>2026-02-22T10:07:27Z</time>
      </trkpt>
      <trkpt lat="43.6024" lon="6.38811">
        <ele>534.9</ele>
        <time>2026-02-22T10:07:28Z</time>
      </trkpt>
      <trkpt lat="43.6024" lon="6.38812">
        <ele>534.9</ele>
        <time>2026-02-22T10:07:29Z</time>
      </trkpt>
      <trkpt lat="43.60239" lon="6.38812">
        <ele>535</ele>
        <time>2026-02-22T10:07:30Z</time>
      </trkpt>
      <trkpt lat="43.60238" lon="6.38812">
        <ele>535.2</ele>
        <time>2026-02-22T10:07:31Z</time>
      </trkpt>
      <trkpt lat="43.60237" lon="6.38813">
        <ele>535.4</ele>
        <time>2026-02-22T10:07:32Z</time>
      </trkpt>
      <trkpt lat="43.60236" lon="6.38813">
        <ele>535.5</ele>
        <time>2026-02-22T10:07:33Z</time>
      </trkpt>
      <trkpt lat="43.60236" lon="6.38814">
        <ele>535.6</ele>
        <time>2026-02-22T10:07:34Z</time>
      </trkpt>
      <trkpt lat="43.60235" lon="6.38814">
        <ele>535.7</ele>
        <time>2026-02-22T10:07:35Z</time>
      </trkpt>
      <trkpt lat="43.60234" lon="6.38814">
        <ele>535.7</ele>
        <time>2026-02-22T10:07:36Z</time>
      </trkpt>
      <trkpt lat="43.60233" lon="6.38815">
        <ele>535.7</ele>
        <time>2026-02-22T10:07:37Z</time>
      </trkpt>
      <trkpt lat="43.60233" lon="6.38815">
        <ele>535.9</ele>
        <time>2026-02-22T10:07:38Z</time>
      </trkpt>
      <trkpt lat="43.60232" lon="6.38816">
        <ele>536.1</ele>
        <time>2026-02-22T10:07:39Z</time>
      </trkpt>
      <trkpt lat="43.60231" lon="6.38817">
        <ele>536.2</ele>
        <time>2026-02-22T10:07:40Z</time>
      </trkpt>
      <trkpt lat="43.60231" lon="6.38818">
        <ele>536.3</ele>
        <time>2026-02-22T10:07:41Z</time>
      </trkpt>
      <trkpt lat="43.6023" lon="6.38819">
        <ele>536.3</ele>
        <time>2026-02-22T10:07:42Z</time>
      </trkpt>
      <trkpt lat="43.60229" lon="6.38819">
        <ele>536.2</ele>
        <time>2026-02-22T10:07:43Z</time>
      </trkpt>
      <trkpt lat="43.60229" lon="6.3882">
        <ele>536.2</ele>
        <time>2026-02-22T10:07:44Z</time>
      </trkpt>
      <trkpt lat="43.60228" lon="6.38822">
        <ele>536.2</ele>
        <time>2026-02-22T10:07:45Z</time>
      </trkpt>
      <trkpt lat="43.60227" lon="6.38823">
        <ele>536.2</ele>
        <time>2026-02-22T10:07:46Z</time>
      </trkpt>
      <trkpt lat="43.60226" lon="6.38824">
        <ele>536.1</ele>
        <time>2026-02-22T10:07:47Z</time>
      </trkpt>
      <trkpt lat="43.60225" lon="6.38825">
        <ele>536.1</ele>
        <time>2026-02-22T10:07:48Z</time>
      </trkpt>
      <trkpt lat="43.60224" lon="6.38826">
        <ele>536</ele>
        <time>2026-02-22T10:07:49Z</time>
      </trkpt>
      <trkpt lat="43.60223" lon="6.38827">
        <ele>535.9</ele>
        <time>2026-02-22T10:07:50Z</time>
      </trkpt>
      <trkpt lat="43.60223" lon="6.38828">
        <ele>535.8</ele>
        <time>2026-02-22T10:07:51Z</time>
      </trkpt>
      <trkpt lat="43.60222" lon="6.3883">
        <ele>535.8</ele>
        <time>2026-02-22T10:07:52Z</time>
      </trkpt>
      <trkpt lat="43.60221" lon="6.38831">
        <ele>535.8</ele>
        <time>2026-02-22T10:07:53Z</time>
      </trkpt>
      <trkpt lat="43.6022" lon="6.38832">
        <ele>535.6</ele>
        <time>2026-02-22T10:07:54Z</time>
      </trkpt>
      <trkpt lat="43.60219" lon="6.38833">
        <ele>535.5</ele>
        <time>2026-02-22T10:07:55Z</time>
      </trkpt>
      <trkpt lat="43.60219" lon="6.38834">
        <ele>535.4</ele>
        <time>2026-02-22T10:07:56Z</time>
      </trkpt>
      <trkpt lat="43.60218" lon="6.38834">
        <ele>535.3</ele>
        <time>2026-02-22T10:07:57Z</time>
      </trkpt>
      <trkpt lat="43.60218" lon="6.38838">
        <ele>535.3</ele>
        <time>2026-02-22T10:07:58Z</time>
      </trkpt>
      <trkpt lat="43.60219" lon="6.38842">
        <ele>535.2</ele>
        <time>2026-02-22T10:07:59Z</time>
      </trkpt>
      <trkpt lat="43.60219" lon="6.38845">
        <ele>535.1</ele>
        <time>2026-02-22T10:08:00Z</time>
      </trkpt>
      <trkpt lat="43.60219" lon="6.38847">
        <ele>534.9</ele>
        <time>2026-02-22T10:08:01Z</time>
      </trkpt>
      <trkpt lat="43.60219" lon="6.38848">
        <ele>534.7</ele>
        <time>2026-02-22T10:08:02Z</time>
      </trkpt>
      <trkpt lat="43.60219" lon="6.38849">
        <ele>534.4</ele>
        <time>2026-02-22T10:08:03Z</time>
      </trkpt>
      <trkpt lat="43.60219" lon="6.3885">
        <ele>534.2</ele>
        <time>2026-02-22T10:08:04Z</time>
      </trkpt>
      <trkpt lat="43.60218" lon="6.38852">
        <ele>534</ele>
        <time>2026-02-22T10:08:05Z</time>
      </trkpt>
      <trkpt lat="43.60217" lon="6.38853">
        <ele>533.9</ele>
        <time>2026-02-22T10:08:06Z</time>
      </trkpt>
      <trkpt lat="43.60216" lon="6.38854">
        <ele>533.8</ele>
        <time>2026-02-22T10:08:07Z</time>
      </trkpt>
      <trkpt lat="43.60216" lon="6.38855">
        <ele>533.6</ele>
        <time>2026-02-22T10:08:08Z</time>
      </trkpt>
      <trkpt lat="43.60215" lon="6.38856">
        <ele>533.5</ele>
        <time>2026-02-22T10:08:09Z</time>
      </trkpt>
      <trkpt lat="43.60215" lon="6.38858">
        <ele>533.4</ele>
        <time>2026-02-22T10:08:10Z</time>
      </trkpt>
      <trkpt lat="43.60215" lon="6.3886">
        <ele>533.3</ele>
        <time>2026-02-22T10:08:11Z</time>
      </trkpt>
      <trkpt lat="43.60215" lon="6.38861">
        <ele>533.2</ele>
        <time>2026-02-22T10:08:12Z</time>
      </trkpt>
      <trkpt lat="43.60215" lon="6.38862">
        <ele>533.1</ele>
        <time>2026-02-22T10:08:13Z</time>
      </trkpt>
      <trkpt lat="43.60214" lon="6.38863">
        <ele>533.1</ele>
        <time>2026-02-22T10:08:14Z</time>
      </trkpt>
      <trkpt lat="43.60214" lon="6.38863">
        <ele>533.1</ele>
        <time>2026-02-22T10:08:15Z</time>
      </trkpt>
      <trkpt lat="43.60214" lon="6.38864">
        <ele>533</ele>
        <time>2026-02-22T10:08:16Z</time>
      </trkpt>
      <trkpt lat="43.60213" lon="6.38865">
        <ele>533</ele>
        <time>2026-02-22T10:08:17Z</time>
      </trkpt>
      <trkpt lat="43.60213" lon="6.38866">
        <ele>533</ele>
        <time>2026-02-22T10:08:18Z</time>
      </trkpt>
      <trkpt lat="43.60213" lon="6.38866">
        <ele>533</ele>
        <time>2026-02-22T10:08:19Z</time>
      </trkpt>
      <trkpt lat="43.60212" lon="6.38867">
        <ele>532.9</ele>
        <time>2026-02-22T10:08:20Z</time>
      </trkpt>
      <trkpt lat="43.60211" lon="6.38868">
        <ele>532.9</ele>
        <time>2026-02-22T10:08:21Z</time>
      </trkpt>
      <trkpt lat="43.60211" lon="6.38869">
        <ele>532.8</ele>
        <time>2026-02-22T10:08:22Z</time>
      </trkpt>
      <trkpt lat="43.60209" lon="6.3887">
        <ele>532.7</ele>
        <time>2026-02-22T10:08:23Z</time>
      </trkpt>
      <trkpt lat="43.60209" lon="6.38871">
        <ele>532.6</ele>
        <time>2026-02-22T10:08:24Z</time>
      </trkpt>
      <trkpt lat="43.60208" lon="6.38872">
        <ele>532.6</ele>
        <time>2026-02-22T10:08:25Z</time>
      </trkpt>
      <trkpt lat="43.60207" lon="6.38873">
        <ele>532.6</ele>
        <time>2026-02-22T10:08:26Z</time>
      </trkpt>
      <trkpt lat="43.60206" lon="6.38873">
        <ele>532.5</ele>
        <time>2026-02-22T10:08:27Z</time>
      </trkpt>
      <trkpt lat="43.60206" lon="6.38874">
        <ele>532.5</ele>
        <time>2026-02-22T10:08:28Z</time>
      </trkpt>
      <trkpt lat="43.60206" lon="6.38875">
        <ele>532.3</ele>
        <time>2026-02-22T10:08:29Z</time>
      </trkpt>
      <trkpt lat="43.60205" lon="6.38875">
        <ele>532.1</ele>
        <time>2026-02-22T10:08:30Z</time>
      </trkpt>
      <trkpt lat="43.60204" lon="6.38876">
        <ele>532.1</ele>
        <time>2026-02-22T10:08:31Z</time>
      </trkpt>
      <trkpt lat="43.60204" lon="6.38877">
        <ele>532.1</ele>
        <time>2026-02-22T10:08:32Z</time>
      </trkpt>
      <trkpt lat="43.60203" lon="6.38878">
        <ele>532.1</ele>
        <time>2026-02-22T10:08:33Z</time>
      </trkpt>
      <trkpt lat="43.60203" lon="6.38879">
        <ele>532.1</ele>
        <time>2026-02-22T10:08:34Z</time>
      </trkpt>
      <trkpt lat="43.60203" lon="6.38879">
        <ele>532.1</ele>
        <time>2026-02-22T10:08:35Z</time>
      </trkpt>
      <trkpt lat="43.60203" lon="6.38881">
        <ele>532.1</ele>
        <time>2026-02-22T10:08:36Z</time>
      </trkpt>
      <trkpt lat="43.60203" lon="6.38882">
        <ele>532.1</ele>
        <time>2026-02-22T10:08:37Z</time>
      </trkpt>
      <trkpt lat="43.60203" lon="6.38883">
        <ele>532.1</ele>
        <time>2026-02-22T10:08:38Z</time>
      </trkpt>
      <trkpt lat="43.60202" lon="6.38884">
        <ele>532.1</ele>
        <time>2026-02-22T10:08:39Z</time>
      </trkpt>
      <trkpt lat="43.60202" lon="6.38885">
        <ele>532</ele>
        <time>2026-02-22T10:08:40Z</time>
      </trkpt>
      <trkpt lat="43.60202" lon="6.38885">
        <ele>531.9</ele>
        <time>2026-02-22T10:08:41Z</time>
      </trkpt>
      <trkpt lat="43.60202" lon="6.38886">
        <ele>531.9</ele>
        <time>2026-02-22T10:08:42Z</time>
      </trkpt>
      <trkpt lat="43.60202" lon="6.38886">
        <ele>531.8</ele>
        <time>2026-02-22T10:08:43Z</time>
      </trkpt>
      <trkpt lat="43.60202" lon="6.38886">
        <ele>531.8</ele>
        <time>2026-02-22T10:08:44Z</time>
      </trkpt>
      <trkpt lat="43.60202" lon="6.38887">
        <ele>531.7</ele>
        <time>2026-02-22T10:08:45Z</time>
      </trkpt>
      <trkpt lat="43.60201" lon="6.38887">
        <ele>531.6</ele>
        <time>2026-02-22T10:08:46Z</time>
      </trkpt>
      <trkpt lat="43.60201" lon="6.38887">
        <ele>531.6</ele>
        <time>2026-02-22T10:08:47Z</time>
      </trkpt>
      <trkpt lat="43.602" lon="6.38888">
        <ele>531.8</ele>
        <time>2026-02-22T10:08:48Z</time>
      </trkpt>
      <trkpt lat="43.60199" lon="6.38888">
        <ele>531.7</ele>
        <time>2026-02-22T10:08:49Z</time>
      </trkpt>
      <trkpt lat="43.60199" lon="6.38889">
        <ele>531.7</ele>
        <time>2026-02-22T10:08:50Z</time>
      </trkpt>
      <trkpt lat="43.60198" lon="6.3889">
        <ele>531.6</ele>
        <time>2026-02-22T10:08:51Z</time>
      </trkpt>
      <trkpt lat="43.60197" lon="6.3889">
        <ele>531.6</ele>
        <time>2026-02-22T10:08:52Z</time>
      </trkpt>
      <trkpt lat="43.60196" lon="6.38891">
        <ele>531.6</ele>
        <time>2026-02-22T10:08:53Z</time>
      </trkpt>
      <trkpt lat="43.60196" lon="6.38892">
        <ele>531.5</ele>
        <time>2026-02-22T10:08:54Z</time>
      </trkpt>
      <trkpt lat="43.60195" lon="6.38893">
        <ele>531.4</ele>
        <time>2026-02-22T10:08:55Z</time>
      </trkpt>
      <trkpt lat="43.60195" lon="6.38893">
        <ele>531.4</ele>
        <time>2026-02-22T10:08:56Z</time>
      </trkpt>
      <trkpt lat="43.60195" lon="6.38894">
        <ele>531.3</ele>
        <time>2026-02-22T10:08:57Z</time>
      </trkpt>
      <trkpt lat="43.60195" lon="6.38896">
        <ele>531.2</ele>
        <time>2026-02-22T10:08:58Z</time>
      </trkpt>
      <trkpt lat="43.60194" lon="6.38897">
        <ele>531.2</ele>
        <time>2026-02-22T10:08:59Z</time>
      </trkpt>
      <trkpt lat="43.60193" lon="6.38897">
        <ele>531.1</ele>
        <time>2026-02-22T10:09:00Z</time>
      </trkpt>
      <trkpt lat="43.60192" lon="6.38898">
        <ele>531.1</ele>
        <time>2026-02-22T10:09:01Z</time>
      </trkpt>
      <trkpt lat="43.60191" lon="6.38899">
        <ele>531</ele>
        <time>2026-02-22T10:09:02Z</time>
      </trkpt>
      <trkpt lat="43.60191" lon="6.389">
        <ele>530.9</ele>
        <time>2026-02-22T10:09:03Z</time>
      </trkpt>
      <trkpt lat="43.60191" lon="6.38901">
        <ele>530.8</ele>
        <time>2026-02-22T10:09:04Z</time>
      </trkpt>
      <trkpt lat="43.6019" lon="6.38902">
        <ele>530.7</ele>
        <time>2026-02-22T10:09:05Z</time>
      </trkpt>
      <trkpt lat="43.60189" lon="6.38902">
        <ele>530.6</ele>
        <time>2026-02-22T10:09:06Z</time>
      </trkpt>
      <trkpt lat="43.60189" lon="6.38904">
        <ele>530.5</ele>
        <time>2026-02-22T10:09:07Z</time>
      </trkpt>
      <trkpt lat="43.60188" lon="6.38906">
        <ele>530.3</ele>
        <time>2026-02-22T10:09:08Z</time>
      </trkpt>
      <trkpt lat="43.60188" lon="6.38908">
        <ele>529.9</ele>
        <time>2026-02-22T10:09:09Z</time>
      </trkpt>
      <trkpt lat="43.60187" lon="6.3891">
        <ele>529.9</ele>
        <time>2026-02-22T10:09:10Z</time>
      </trkpt>
      <trkpt lat="43.60186" lon="6.38912">
        <ele>529.8</ele>
        <time>2026-02-22T10:09:11Z</time>
      </trkpt>
      <trkpt lat="43.60185" lon="6.38912">
        <ele>529.8</ele>
        <time>2026-02-22T10:09:12Z</time>
      </trkpt>
      <trkpt lat="43.60184" lon="6.38913">
        <ele>529.8</ele>
        <time>2026-02-22T10:09:13Z</time>
      </trkpt>
      <trkpt lat="43.60183" lon="6.38914">
        <ele>529.7</ele>
        <time>2026-02-22T10:09:14Z</time>
      </trkpt>
      <trkpt lat="43.60183" lon="6.38914">
        <ele>529.7</ele>
        <time>2026-02-22T10:09:15Z</time>
      </trkpt>
      <trkpt lat="43.60182" lon="6.38915">
        <ele>529.7</ele>
        <time>2026-02-22T10:09:16Z</time>
      </trkpt>
      <trkpt lat="43.60182" lon="6.38916">
        <ele>529.6</ele>
        <time>2026-02-22T10:09:17Z</time>
      </trkpt>
      <trkpt lat="43.60181" lon="6.38916">
        <ele>529.5</ele>
        <time>2026-02-22T10:09:18Z</time>
      </trkpt>
      <trkpt lat="43.60181" lon="6.38917">
        <ele>529.5</ele>
        <time>2026-02-22T10:09:19Z</time>
      </trkpt>
      <trkpt lat="43.6018" lon="6.38917">
        <ele>529.6</ele>
        <time>2026-02-22T10:09:20Z</time>
      </trkpt>
      <trkpt lat="43.60179" lon="6.38917">
        <ele>529.6</ele>
        <time>2026-02-22T10:09:21Z</time>
      </trkpt>
      <trkpt lat="43.60178" lon="6.38917">
        <ele>529.6</ele>
        <time>2026-02-22T10:09:22Z</time>
      </trkpt>
      <trkpt lat="43.60177" lon="6.38917">
        <ele>529.6</ele>
        <time>2026-02-22T10:09:23Z</time>
      </trkpt>
      <trkpt lat="43.60176" lon="6.38917">
        <ele>529.7</ele>
        <time>2026-02-22T10:09:24Z</time>
      </trkpt>
      <trkpt lat="43.60176" lon="6.38917">
        <ele>529.8</ele>
        <time>2026-02-22T10:09:25Z</time>
      </trkpt>
      <trkpt lat="43.60175" lon="6.38919">
        <ele>529.9</ele>
        <time>2026-02-22T10:09:26Z</time>
      </trkpt>
      <trkpt lat="43.60174" lon="6.3892">
        <ele>530</ele>
        <time>2026-02-22T10:09:27Z</time>
      </trkpt>
      <trkpt lat="43.60174" lon="6.38921">
        <ele>530.1</ele>
        <time>2026-02-22T10:09:28Z</time>
      </trkpt>
      <trkpt lat="43.60173" lon="6.38922">
        <ele>530.1</ele>
        <time>2026-02-22T10:09:29Z</time>
      </trkpt>
      <trkpt lat="43.60172" lon="6.38924">
        <ele>530.1</ele>
        <time>2026-02-22T10:09:30Z</time>
      </trkpt>
      <trkpt lat="43.60172" lon="6.38925">
        <ele>530.1</ele>
        <time>2026-02-22T10:09:31Z</time>
      </trkpt>
      <trkpt lat="43.6017" lon="6.38925">
        <ele>530.1</ele>
        <time>2026-02-22T10:09:32Z</time>
      </trkpt>
      <trkpt lat="43.6017" lon="6.38926">
        <ele>530.2</ele>
        <time>2026-02-22T10:09:33Z</time>
      </trkpt>
      <trkpt lat="43.60169" lon="6.38927">
        <ele>530.2</ele>
        <time>2026-02-22T10:09:34Z</time>
      </trkpt>
      <trkpt lat="43.60168" lon="6.38928">
        <ele>530.1</ele>
        <time>2026-02-22T10:09:35Z</time>
      </trkpt>
      <trkpt lat="43.60168" lon="6.38929">
        <ele>530.1</ele>
        <time>2026-02-22T10:09:36Z</time>
      </trkpt>
      <trkpt lat="43.60167" lon="6.3893">
        <ele>529.9</ele>
        <time>2026-02-22T10:09:37Z</time>
      </trkpt>
      <trkpt lat="43.60166" lon="6.38932">
        <ele>529.8</ele>
        <time>2026-02-22T10:09:38Z</time>
      </trkpt>
      <trkpt lat="43.60166" lon="6.38934">
        <ele>529.6</ele>
        <time>2026-02-22T10:09:39Z</time>
      </trkpt>
      <trkpt lat="43.60165" lon="6.38935">
        <ele>529.5</ele>
        <time>2026-02-22T10:09:40Z</time>
      </trkpt>
      <trkpt lat="43.60164" lon="6.38936">
        <ele>529.4</ele>
        <time>2026-02-22T10:09:41Z</time>
      </trkpt>
      <trkpt lat="43.60163" lon="6.38936">
        <ele>529.3</ele>
        <time>2026-02-22T10:09:42Z</time>
      </trkpt>
      <trkpt lat="43.60162" lon="6.38937">
        <ele>529.2</ele>
        <time>2026-02-22T10:09:43Z</time>
      </trkpt>
      <trkpt lat="43.60162" lon="6.38938">
        <ele>529.1</ele>
        <time>2026-02-22T10:09:44Z</time>
      </trkpt>
      <trkpt lat="43.60162" lon="6.38941">
        <ele>529.1</ele>
        <time>2026-02-22T10:09:45Z</time>
      </trkpt>
      <trkpt lat="43.60162" lon="6.38943">
        <ele>529</ele>
        <time>2026-02-22T10:09:46Z</time>
      </trkpt>
      <trkpt lat="43.60162" lon="6.38945">
        <ele>529</ele>
        <time>2026-02-22T10:09:47Z</time>
      </trkpt>
      <trkpt lat="43.60162" lon="6.38946">
        <ele>529</ele>
        <time>2026-02-22T10:09:48Z</time>
      </trkpt>
      <trkpt lat="43.60161" lon="6.38947">
        <ele>528.9</ele>
        <time>2026-02-22T10:09:49Z</time>
      </trkpt>
      <trkpt lat="43.60161" lon="6.38948">
        <ele>528.8</ele>
        <time>2026-02-22T10:09:50Z</time>
      </trkpt>
      <trkpt lat="43.60161" lon="6.3895">
        <ele>528.7</ele>
        <time>2026-02-22T10:09:51Z</time>
      </trkpt>
      <trkpt lat="43.60162" lon="6.38953">
        <ele>528.6</ele>
        <time>2026-02-22T10:09:52Z</time>
      </trkpt>
      <trkpt lat="43.60162" lon="6.38955">
        <ele>528.6</ele>
        <time>2026-02-22T10:09:53Z</time>
      </trkpt>
      <trkpt lat="43.60162" lon="6.38956">
        <ele>528.6</ele>
        <time>2026-02-22T10:09:54Z</time>
      </trkpt>
      <trkpt lat="43.60162" lon="6.38957">
        <ele>528.4</ele>
        <time>2026-02-22T10:09:55Z</time>
      </trkpt>
      <trkpt lat="43.60162" lon="6.38959">
        <ele>528.3</ele>
        <time>2026-02-22T10:09:56Z</time>
      </trkpt>
      <trkpt lat="43.60162" lon="6.38961">
        <ele>528.3</ele>
        <time>2026-02-22T10:09:57Z</time>
      </trkpt>
      <trkpt lat="43.60163" lon="6.38962">
        <ele>528.1</ele>
        <time>2026-02-22T10:09:58Z</time>
      </trkpt>
      <trkpt lat="43.60164" lon="6.38964">
        <ele>528</ele>
        <time>2026-02-22T10:09:59Z</time>
      </trkpt>
      <trkpt lat="43.60164" lon="6.38966">
        <ele>528</ele>
        <time>2026-02-22T10:10:00Z</time>
      </trkpt>
      <trkpt lat="43.60164" lon="6.38967">
        <ele>527.9</ele>
        <time>2026-02-22T10:10:01Z</time>
      </trkpt>
      <trkpt lat="43.60165" lon="6.38968">
        <ele>527.8</ele>
        <time>2026-02-22T10:10:02Z</time>
      </trkpt>
      <trkpt lat="43.60167" lon="6.38969">
        <ele>527.7</ele>
        <time>2026-02-22T10:10:03Z</time>
      </trkpt>
      <trkpt lat="43.60168" lon="6.3897">
        <ele>527.5</ele>
        <time>2026-02-22T10:10:04Z</time>
      </trkpt>
      <trkpt lat="43.60169" lon="6.38971">
        <ele>527.7</ele>
        <time>2026-02-22T10:10:05Z</time>
      </trkpt>
      <trkpt lat="43.60169" lon="6.38972">
        <ele>527.7</ele>
        <time>2026-02-22T10:10:06Z</time>
      </trkpt>
      <trkpt lat="43.6017" lon="6.38974">
        <ele>527.7</ele>
        <time>2026-02-22T10:10:07Z</time>
      </trkpt>
      <trkpt lat="43.6017" lon="6.38975">
        <ele>527.6</ele>
        <time>2026-02-22T10:10:08Z</time>
      </trkpt>
      <trkpt lat="43.60171" lon="6.38976">
        <ele>527.5</ele>
        <time>2026-02-22T10:10:09Z</time>
      </trkpt>
      <trkpt lat="43.60172" lon="6.38977">
        <ele>527.3</ele>
        <time>2026-02-22T10:10:10Z</time>
      </trkpt>
      <trkpt lat="43.60173" lon="6.38978">
        <ele>527.2</ele>
        <time>2026-02-22T10:10:11Z</time>
      </trkpt>
      <trkpt lat="43.60173" lon="6.38979">
        <ele>527.1</ele>
        <time>2026-02-22T10:10:12Z</time>
      </trkpt>
      <trkpt lat="43.60173" lon="6.3898">
        <ele>527</ele>
        <time>2026-02-22T10:10:13Z</time>
      </trkpt>
      <trkpt lat="43.60173" lon="6.38981">
        <ele>526.8</ele>
        <time>2026-02-22T10:10:14Z</time>
      </trkpt>
      <trkpt lat="43.60174" lon="6.38981">
        <ele>526.7</ele>
        <time>2026-02-22T10:10:15Z</time>
      </trkpt>
      <trkpt lat="43.60176" lon="6.38983">
        <ele>526.6</ele>
        <time>2026-02-22T10:10:16Z</time>
      </trkpt>
      <trkpt lat="43.60176" lon="6.38983">
        <ele>526.5</ele>
        <time>2026-02-22T10:10:17Z</time>
      </trkpt>
      <trkpt lat="43.60177" lon="6.38984">
        <ele>526.4</ele>
        <time>2026-02-22T10:10:18Z</time>
      </trkpt>
      <trkpt lat="43.60177" lon="6.38984">
        <ele>526.3</ele>
        <time>2026-02-22T10:10:19Z</time>
      </trkpt>
      <trkpt lat="43.60178" lon="6.38984">
        <ele>526.3</ele>
        <time>2026-02-22T10:10:20Z</time>
      </trkpt>
      <trkpt lat="43.60178" lon="6.38984">
        <ele>526.2</ele>
        <time>2026-02-22T10:10:21Z</time>
      </trkpt>
      <trkpt lat="43.60177" lon="6.38986">
        <ele>526.2</ele>
        <time>2026-02-22T10:10:22Z</time>
      </trkpt>
      <trkpt lat="43.60177" lon="6.38986">
        <ele>526.1</ele>
        <time>2026-02-22T10:10:23Z</time>
      </trkpt>
      <trkpt lat="43.60177" lon="6.38985">
        <ele>526</ele>
        <time>2026-02-22T10:10:24Z</time>
      </trkpt>
      <trkpt lat="43.60177" lon="6.38986">
        <ele>525.9</ele>
        <time>2026-02-22T10:10:25Z</time>
      </trkpt>
      <trkpt lat="43.60177" lon="6.38986">
        <ele>525.9</ele>
        <time>2026-02-22T10:10:26Z</time>
      </trkpt>
      <trkpt lat="43.60178" lon="6.38986">
        <ele>526</ele>
        <time>2026-02-22T10:10:27Z</time>
      </trkpt>
      <trkpt lat="43.60178" lon="6.38986">
        <ele>526</ele>
        <time>2026-02-22T10:10:28Z</time>
      </trkpt>
      <trkpt lat="43.60179" lon="6.38986">
        <ele>526</ele>
        <time>2026-02-22T10:10:29Z</time>
      </trkpt>
      <trkpt lat="43.60179" lon="6.38986">
        <ele>526</ele>
        <time>2026-02-22T10:10:30Z</time>
      </trkpt>
      <trkpt lat="43.60179" lon="6.38986">
        <ele>526</ele>
        <time>2026-02-22T10:10:31Z</time>
      </trkpt>
      <trkpt lat="43.60179" lon="6.38986">
        <ele>526</ele>
        <time>2026-02-22T10:10:32Z</time>
      </trkpt>
      <trkpt lat="43.60179" lon="6.38986">
        <ele>526.1</ele>
        <time>2026-02-22T10:10:33Z</time>
      </trkpt>
      <trkpt lat="43.60179" lon="6.38986">
        <ele>526.1</ele>
        <time>2026-02-22T10:10:34Z</time>
      </trkpt>
      <trkpt lat="43.6018" lon="6.38987">
        <ele>526.1</ele>
        <time>2026-02-22T10:10:35Z</time>
      </trkpt>
      <trkpt lat="43.6018" lon="6.38987">
        <ele>526.1</ele>
        <time>2026-02-22T10:10:36Z</time>
      </trkpt>
      <trkpt lat="43.60179" lon="6.38987">
        <ele>526.1</ele>
        <time>2026-02-22T10:10:37Z</time>
      </trkpt>
      <trkpt lat="43.60179" lon="6.38987">
        <ele>526</ele>
        <time>2026-02-22T10:10:38Z</time>
      </trkpt>
      <trkpt lat="43.60179" lon="6.38988">
        <ele>526</ele>
        <time>2026-02-22T10:10:39Z</time>
      </trkpt>
      <trkpt lat="43.60179" lon="6.38988">
        <ele>526</ele>
        <time>2026-02-22T10:10:40Z</time>
      </trkpt>
      <trkpt lat="43.60179" lon="6.38988">
        <ele>526</ele>
        <time>2026-02-22T10:10:41Z</time>
      </trkpt>
      <trkpt lat="43.60179" lon="6.38988">
        <ele>525.9</ele>
        <time>2026-02-22T10:10:42Z</time>
      </trkpt>
      <trkpt lat="43.6018" lon="6.38988">
        <ele>526</ele>
        <time>2026-02-22T10:10:43Z</time>
      </trkpt>
      <trkpt lat="43.6018" lon="6.38988">
        <ele>526</ele>
        <time>2026-02-22T10:10:44Z</time>
      </trkpt>
      <trkpt lat="43.6018" lon="6.38988">
        <ele>526</ele>
        <time>2026-02-22T10:10:45Z</time>
      </trkpt>
      <trkpt lat="43.60181" lon="6.38988">
        <ele>526</ele>
        <time>2026-02-22T10:10:46Z</time>
      </trkpt>
      <trkpt lat="43.60181" lon="6.38988">
        <ele>525.9</ele>
        <time>2026-02-22T10:10:47Z</time>
      </trkpt>
      <trkpt lat="43.60181" lon="6.38988">
        <ele>526</ele>
        <time>2026-02-22T10:10:48Z</time>
      </trkpt>
      <trkpt lat="43.60181" lon="6.38988">
        <ele>526</ele>
        <time>2026-02-22T10:10:49Z</time>
      </trkpt>
      <trkpt lat="43.60181" lon="6.38988">
        <ele>525.9</ele>
        <time>2026-02-22T10:10:50Z</time>
      </trkpt>
      <trkpt lat="43.60182" lon="6.38988">
        <ele>526</ele>
        <time>2026-02-22T10:10:51Z</time>
      </trkpt>
      <trkpt lat="43.60183" lon="6.38988">
        <ele>525.9</ele>
        <time>2026-02-22T10:10:52Z</time>
      </trkpt>
      <trkpt lat="43.60184" lon="6.38988">
        <ele>525.9</ele>
        <time>2026-02-22T10:10:53Z</time>
      </trkpt>
      <trkpt lat="43.60185" lon="6.38988">
        <ele>525.9</ele>
        <time>2026-02-22T10:10:54Z</time>
      </trkpt>
      <trkpt lat="43.60185" lon="6.38988">
        <ele>525.9</ele>
        <time>2026-02-22T10:10:55Z</time>
      </trkpt>
      <trkpt lat="43.60186" lon="6.38988">
        <ele>525.9</ele>
        <time>2026-02-22T10:10:56Z</time>
      </trkpt>
      <trkpt lat="43.60186" lon="6.38988">
        <ele>525.9</ele>
        <time>2026-02-22T10:10:57Z</time>
      </trkpt>
      <trkpt lat="43.60186" lon="6.38988">
        <ele>525.9</ele>
        <time>2026-02-22T10:10:58Z</time>
      </trkpt>
      <trkpt lat="43.60187" lon="6.38988">
        <ele>525.9</ele>
        <time>2026-02-22T10:10:59Z</time>
      </trkpt>
      <trkpt lat="43.60187" lon="6.38988">
        <ele>525.8</ele>
        <time>2026-02-22T10:11:00Z</time>
      </trkpt>
      <trkpt lat="43.60187" lon="6.38987">
        <ele>525.9</ele>
        <time>2026-02-22T10:11:01Z</time>
      </trkpt>
      <trkpt lat="43.60188" lon="6.38987">
        <ele>525.9</ele>
        <time>2026-02-22T10:11:02Z</time>
      </trkpt>
      <trkpt lat="43.60188" lon="6.38987">
        <ele>525.9</ele>
        <time>2026-02-22T10:11:03Z</time>
      </trkpt>
      <trkpt lat="43.60188" lon="6.38987">
        <ele>525.9</ele>
        <time>2026-02-22T10:11:04Z</time>
      </trkpt>
      <trkpt lat="43.60188" lon="6.38987">
        <ele>525.9</ele>
        <time>2026-02-22T10:11:05Z</time>
      </trkpt>
      <trkpt lat="43.60188" lon="6.38987">
        <ele>525.9</ele>
        <time>2026-02-22T10:11:06Z</time>
      </trkpt>
      <trkpt lat="43.60189" lon="6.38987">
        <ele>525.9</ele>
        <time>2026-02-22T10:11:07Z</time>
      </trkpt>
      <trkpt lat="43.60189" lon="6.38987">
        <ele>525.8</ele>
        <time>2026-02-22T10:11:08Z</time>
      </trkpt>
      <trkpt lat="43.60189" lon="6.38987">
        <ele>525.8</ele>
        <time>2026-02-22T10:11:09Z</time>
      </trkpt>
      <trkpt lat="43.60189" lon="6.38987">
        <ele>525.7</ele>
        <time>2026-02-22T10:11:10Z</time>
      </trkpt>
      <trkpt lat="43.60189" lon="6.38987">
        <ele>525.8</ele>
        <time>2026-02-22T10:11:11Z</time>
      </trkpt>
      <trkpt lat="43.60189" lon="6.38987">
        <ele>525.7</ele>
        <time>2026-02-22T10:11:12Z</time>
      </trkpt>
      <trkpt lat="43.6019" lon="6.38987">
        <ele>525.7</ele>
        <time>2026-02-22T10:11:13Z</time>
      </trkpt>
      <trkpt lat="43.6019" lon="6.38988">
        <ele>525.7</ele>
        <time>2026-02-22T10:11:14Z</time>
      </trkpt>
      <trkpt lat="43.6019" lon="6.38989">
        <ele>525.7</ele>
        <time>2026-02-22T10:11:15Z</time>
      </trkpt>
      <trkpt lat="43.6019" lon="6.3899">
        <ele>525.7</ele>
        <time>2026-02-22T10:11:16Z</time>
      </trkpt>
      <trkpt lat="43.60191" lon="6.38991">
        <ele>525.6</ele>
        <time>2026-02-22T10:11:17Z</time>
      </trkpt>
      <trkpt lat="43.60192" lon="6.38991">
        <ele>525.5</ele>
        <time>2026-02-22T10:11:18Z</time>
      </trkpt>
      <trkpt lat="43.60192" lon="6.38992">
        <ele>525.5</ele>
        <time>2026-02-22T10:11:19Z</time>
      </trkpt>
      <trkpt lat="43.60193" lon="6.38992">
        <ele>525.4</ele>
        <time>2026-02-22T10:11:20Z</time>
      </trkpt>
      <trkpt lat="43.60193" lon="6.38992">
        <ele>525.4</ele>
        <time>2026-02-22T10:11:21Z</time>
      </trkpt>
      <trkpt lat="43.60194" lon="6.38991">
        <ele>525.3</ele>
        <time>2026-02-22T10:11:22Z</time>
      </trkpt>
      <trkpt lat="43.60194" lon="6.38991">
        <ele>525.3</ele>
        <time>2026-02-22T10:11:23Z</time>
      </trkpt>
      <trkpt lat="43.60193" lon="6.3899">
        <ele>525.3</ele>
        <time>2026-02-22T10:11:24Z</time>
      </trkpt>
      <trkpt lat="43.60193" lon="6.3899">
        <ele>525.3</ele>
        <time>2026-02-22T10:11:25Z</time>
      </trkpt>
      <trkpt lat="43.60193" lon="6.38989">
        <ele>525.3</ele>
        <time>2026-02-22T10:11:26Z</time>
      </trkpt>
      <trkpt lat="43.60193" lon="6.38989">
        <ele>525.3</ele>
        <time>2026-02-22T10:11:27Z</time>
      </trkpt>
      <trkpt lat="43.60192" lon="6.38988">
        <ele>525.2</ele>
        <time>2026-02-22T10:11:28Z</time>
      </trkpt>
      <trkpt lat="43.60192" lon="6.38988">
        <ele>525.2</ele>
        <time>2026-02-22T10:11:29Z</time>
      </trkpt>
      <trkpt lat="43.60192" lon="6.38988">
        <ele>525.2</ele>
        <time>2026-02-22T10:11:30Z</time>
      </trkpt>
      <trkpt lat="43.60192" lon="6.38989">
        <ele>525.1</ele>
        <time>2026-02-22T10:11:31Z</time>
      </trkpt>
      <trkpt lat="43.60192" lon="6.3899">
        <ele>525.1</ele>
        <time>2026-02-22T10:11:32Z</time>
      </trkpt>
      <trkpt lat="43.60192" lon="6.38991">
        <ele>525.1</ele>
        <time>2026-02-22T10:11:33Z</time>
      </trkpt>
      <trkpt lat="43.60192" lon="6.38992">
        <ele>525.1</ele>
        <time>2026-02-22T10:11:34Z</time>
      </trkpt>
      <trkpt lat="43.60192" lon="6.38994">
        <ele>525.1</ele>
        <time>2026-02-22T10:11:35Z</time>
      </trkpt>
      <trkpt lat="43.60192" lon="6.38995">
        <ele>525.1</ele>
        <time>2026-02-22T10:11:36Z</time>
      </trkpt>
      <trkpt lat="43.60192" lon="6.38995">
        <ele>525.1</ele>
        <time>2026-02-22T10:11:37Z</time>
      </trkpt>
      <trkpt lat="43.60192" lon="6.38996">
        <ele>525.1</ele>
        <time>2026-02-22T10:11:38Z</time>
      </trkpt>
      <trkpt lat="43.60192" lon="6.38996">
        <ele>525.1</ele>
        <time>2026-02-22T10:11:39Z</time>
      </trkpt>
      <trkpt lat="43.60192" lon="6.38996">
        <ele>525.1</ele>
        <time>2026-02-22T10:11:40Z</time>
      </trkpt>
      <trkpt lat="43.60192" lon="6.38996">
        <ele>525.2</ele>
        <time>2026-02-22T10:11:41Z</time>
      </trkpt>
      <trkpt lat="43.60192" lon="6.38996">
        <ele>525.2</ele>
        <time>2026-02-22T10:11:42Z</time>
      </trkpt>
      <trkpt lat="43.60192" lon="6.38996">
        <ele>525.2</ele>
        <time>2026-02-22T10:11:43Z</time>
      </trkpt>
      <trkpt lat="43.60192" lon="6.38997">
        <ele>525.2</ele>
        <time>2026-02-22T10:11:44Z</time>
      </trkpt>
      <trkpt lat="43.60192" lon="6.38997">
        <ele>525.3</ele>
        <time>2026-02-22T10:11:45Z</time>
      </trkpt>
      <trkpt lat="43.60192" lon="6.38997">
        <ele>525.3</ele>
        <time>2026-02-22T10:11:46Z</time>
      </trkpt>
      <trkpt lat="43.60193" lon="6.38996">
        <ele>525.3</ele>
        <time>2026-02-22T10:11:47Z</time>
      </trkpt>
      <trkpt lat="43.60193" lon="6.38996">
        <ele>525.3</ele>
        <time>2026-02-22T10:11:48Z</time>
      </trkpt>
      <trkpt lat="43.60192" lon="6.38997">
        <ele>525.2</ele>
        <time>2026-02-22T10:11:49Z</time>
      </trkpt>
      <trkpt lat="43.60192" lon="6.38997">
        <ele>525.3</ele>
        <time>2026-02-22T10:11:50Z</time>
      </trkpt>
      <trkpt lat="43.60192" lon="6.38997">
        <ele>525.3</ele>
        <time>2026-02-22T10:11:51Z</time>
      </trkpt>
      <trkpt lat="43.60192" lon="6.38998">
        <ele>525.3</ele>
        <time>2026-02-22T10:11:52Z</time>
      </trkpt>
      <trkpt lat="43.60192" lon="6.38998">
        <ele>525.3</ele>
        <time>2026-02-22T10:11:53Z</time>
      </trkpt>
      <trkpt lat="43.60192" lon="6.38998">
        <ele>525.4</ele>
        <time>2026-02-22T10:11:54Z</time>
      </trkpt>
      <trkpt lat="43.60192" lon="6.38998">
        <ele>525.4</ele>
        <time>2026-02-22T10:11:55Z</time>
      </trkpt>
      <trkpt lat="43.60192" lon="6.38998">
        <ele>525.4</ele>
        <time>2026-02-22T10:11:56Z</time>
      </trkpt>
      <trkpt lat="43.60192" lon="6.38999">
        <ele>525.4</ele>
        <time>2026-02-22T10:11:57Z</time>
      </trkpt>
      <trkpt lat="43.60192" lon="6.38999">
        <ele>525.4</ele>
        <time>2026-02-22T10:11:58Z</time>
      </trkpt>
      <trkpt lat="43.60192" lon="6.38999">
        <ele>525.5</ele>
        <time>2026-02-22T10:11:59Z</time>
      </trkpt>
      <trkpt lat="43.60193" lon="6.38999">
        <ele>525.5</ele>
        <time>2026-02-22T10:12:00Z</time>
      </trkpt>
      <trkpt lat="43.60193" lon="6.38998">
        <ele>525.5</ele>
        <time>2026-02-22T10:12:01Z</time>
      </trkpt>
      <trkpt lat="43.60194" lon="6.38998">
        <ele>525.6</ele>
        <time>2026-02-22T10:12:02Z</time>
      </trkpt>
      <trkpt lat="43.60194" lon="6.38998">
        <ele>525.6</ele>
        <time>2026-02-22T10:12:03Z</time>
      </trkpt>
      <trkpt lat="43.60194" lon="6.38999">
        <ele>525.5</ele>
        <time>2026-02-22T10:12:04Z</time>
      </trkpt>
      <trkpt lat="43.60193" lon="6.38998">
        <ele>525.5</ele>
        <time>2026-02-22T10:12:05Z</time>
      </trkpt>
      <trkpt lat="43.60192" lon="6.38998">
        <ele>525.4</ele>
        <time>2026-02-22T10:12:06Z</time>
      </trkpt>
      <trkpt lat="43.60192" lon="6.38998">
        <ele>525.5</ele>
        <time>2026-02-22T10:12:07Z</time>
      </trkpt>
      <trkpt lat="43.60192" lon="6.38997">
        <ele>525.5</ele>
        <time>2026-02-22T10:12:08Z</time>
      </trkpt>
      <trkpt lat="43.60192" lon="6.38997">
        <ele>525.5</ele>
        <time>2026-02-22T10:12:09Z</time>
      </trkpt>
      <trkpt lat="43.60192" lon="6.38997">
        <ele>525.5</ele>
        <time>2026-02-22T10:12:10Z</time>
      </trkpt>
      <trkpt lat="43.60192" lon="6.38997">
        <ele>525.3</ele>
        <time>2026-02-22T10:12:11Z</time>
      </trkpt>
      <trkpt lat="43.60192" lon="6.38997">
        <ele>525.2</ele>
        <time>2026-02-22T10:12:12Z</time>
      </trkpt>
      <trkpt lat="43.60192" lon="6.38997">
        <ele>525.2</ele>
        <time>2026-02-22T10:12:13Z</time>
      </trkpt>
      <trkpt lat="43.60192" lon="6.38997">
        <ele>525.2</ele>
        <time>2026-02-22T10:12:14Z</time>
      </trkpt>
      <trkpt lat="43.60191" lon="6.38998">
        <ele>525.1</ele>
        <time>2026-02-22T10:12:15Z</time>
      </trkpt>
      <trkpt lat="43.60191" lon="6.38998">
        <ele>525.1</ele>
        <time>2026-02-22T10:12:16Z</time>
      </trkpt>
      <trkpt lat="43.60191" lon="6.38997">
        <ele>525.2</ele>
        <time>2026-02-22T10:12:17Z</time>
      </trkpt>
      <trkpt lat="43.60191" lon="6.38997">
        <ele>525.2</ele>
        <time>2026-02-22T10:12:18Z</time>
      </trkpt>
      <trkpt lat="43.60191" lon="6.38997">
        <ele>525.2</ele>
        <time>2026-02-22T10:12:19Z</time>
      </trkpt>
      <trkpt lat="43.6019" lon="6.38997">
        <ele>525.3</ele>
        <time>2026-02-22T10:12:20Z</time>
      </trkpt>
      <trkpt lat="43.6019" lon="6.38997">
        <ele>525.3</ele>
        <time>2026-02-22T10:12:21Z</time>
      </trkpt>
      <trkpt lat="43.6019" lon="6.38997">
        <ele>525.4</ele>
        <time>2026-02-22T10:12:22Z</time>
      </trkpt>
      <trkpt lat="43.6019" lon="6.38997">
        <ele>525.5</ele>
        <time>2026-02-22T10:12:23Z</time>
      </trkpt>
      <trkpt lat="43.6019" lon="6.38998">
        <ele>525.5</ele>
        <time>2026-02-22T10:12:24Z</time>
      </trkpt>
      <trkpt lat="43.6019" lon="6.38998">
        <ele>525.4</ele>
        <time>2026-02-22T10:12:25Z</time>
      </trkpt>
      <trkpt lat="43.6019" lon="6.38998">
        <ele>525.4</ele>
        <time>2026-02-22T10:12:26Z</time>
      </trkpt>
      <trkpt lat="43.6019" lon="6.38998">
        <ele>525.3</ele>
        <time>2026-02-22T10:12:27Z</time>
      </trkpt>
      <trkpt lat="43.6019" lon="6.38998">
        <ele>525.3</ele>
        <time>2026-02-22T10:12:28Z</time>
      </trkpt>
      <trkpt lat="43.6019" lon="6.38998">
        <ele>525.3</ele>
        <time>2026-02-22T10:12:29Z</time>
      </trkpt>
      <trkpt lat="43.6019" lon="6.38998">
        <ele>525.2</ele>
        <time>2026-02-22T10:12:30Z</time>
      </trkpt>
      <trkpt lat="43.6019" lon="6.38998">
        <ele>525.2</ele>
        <time>2026-02-22T10:12:31Z</time>
      </trkpt>
      <trkpt lat="43.6019" lon="6.38997">
        <ele>525.1</ele>
        <time>2026-02-22T10:12:32Z</time>
      </trkpt>
      <trkpt lat="43.6019" lon="6.38997">
        <ele>525.1</ele>
        <time>2026-02-22T10:12:33Z</time>
      </trkpt>
      <trkpt lat="43.6019" lon="6.38998">
        <ele>525.1</ele>
        <time>2026-02-22T10:12:34Z</time>
      </trkpt>
      <trkpt lat="43.6019" lon="6.38998">
        <ele>525.1</ele>
        <time>2026-02-22T10:12:35Z</time>
      </trkpt>
      <trkpt lat="43.6019" lon="6.38998">
        <ele>525</ele>
        <time>2026-02-22T10:12:36Z</time>
      </trkpt>
      <trkpt lat="43.6019" lon="6.38998">
        <ele>525</ele>
        <time>2026-02-22T10:12:37Z</time>
      </trkpt>
      <trkpt lat="43.6019" lon="6.38998">
        <ele>525.1</ele>
        <time>2026-02-22T10:12:38Z</time>
      </trkpt>
      <trkpt lat="43.6019" lon="6.38998">
        <ele>525.1</ele>
        <time>2026-02-22T10:12:39Z</time>
      </trkpt>
      <trkpt lat="43.6019" lon="6.38997">
        <ele>525.1</ele>
        <time>2026-02-22T10:12:40Z</time>
      </trkpt>
      <trkpt lat="43.6019" lon="6.38997">
        <ele>525.1</ele>
        <time>2026-02-22T10:12:41Z</time>
      </trkpt>
      <trkpt lat="43.60191" lon="6.38997">
        <ele>525.1</ele>
        <time>2026-02-22T10:12:42Z</time>
      </trkpt>
      <trkpt lat="43.6019" lon="6.38997">
        <ele>525.1</ele>
        <time>2026-02-22T10:12:43Z</time>
      </trkpt>
      <trkpt lat="43.60191" lon="6.38997">
        <ele>525.2</ele>
        <time>2026-02-22T10:12:44Z</time>
      </trkpt>
      <trkpt lat="43.60191" lon="6.38997">
        <ele>525.3</ele>
        <time>2026-02-22T10:12:45Z</time>
      </trkpt>
      <trkpt lat="43.60191" lon="6.38998">
        <ele>525.2</ele>
        <time>2026-02-22T10:12:46Z</time>
      </trkpt>
      <trkpt lat="43.60191" lon="6.38997">
        <ele>525.2</ele>
        <time>2026-02-22T10:12:47Z</time>
      </trkpt>
      <trkpt lat="43.60191" lon="6.38997">
        <ele>525.2</ele>
        <time>2026-02-22T10:12:48Z</time>
      </trkpt>
      <trkpt lat="43.60192" lon="6.38998">
        <ele>525.3</ele>
        <time>2026-02-22T10:12:49Z</time>
      </trkpt>
      <trkpt lat="43.60192" lon="6.38998">
        <ele>525.3</ele>
        <time>2026-02-22T10:12:50Z</time>
      </trkpt>
      <trkpt lat="43.60192" lon="6.38998">
        <ele>525.3</ele>
        <time>2026-02-22T10:12:51Z</time>
      </trkpt>
      <trkpt lat="43.60192" lon="6.38997">
        <ele>525.3</ele>
        <time>2026-02-22T10:12:52Z</time>
      </trkpt>
      <trkpt lat="43.60192" lon="6.38997">
        <ele>525.3</ele>
        <time>2026-02-22T10:12:53Z</time>
      </trkpt>
      <trkpt lat="43.60192" lon="6.38997">
        <ele>525.3</ele>
        <time>2026-02-22T10:12:54Z</time>
      </trkpt>
      <trkpt lat="43.60193" lon="6.38997">
        <ele>525.3</ele>
        <time>2026-02-22T10:12:55Z</time>
      </trkpt>
      <trkpt lat="43.60192" lon="6.38998">
        <ele>525.2</ele>
        <time>2026-02-22T10:12:56Z</time>
      </trkpt>
      <trkpt lat="43.60192" lon="6.38998">
        <ele>525.2</ele>
        <time>2026-02-22T10:12:57Z</time>
      </trkpt>
      <trkpt lat="43.60192" lon="6.38998">
        <ele>525.2</ele>
        <time>2026-02-22T10:12:58Z</time>
      </trkpt>
      <trkpt lat="43.60192" lon="6.38998">
        <ele>525.2</ele>
        <time>2026-02-22T10:12:59Z</time>
      </trkpt>
      <trkpt lat="43.60192" lon="6.38997">
        <ele>525.1</ele>
        <time>2026-02-22T10:13:00Z</time>
      </trkpt>
      <trkpt lat="43.60192" lon="6.38997">
        <ele>525.2</ele>
        <time>2026-02-22T10:13:01Z</time>
      </trkpt>
      <trkpt lat="43.60192" lon="6.38997">
        <ele>525.2</ele>
        <time>2026-02-22T10:13:02Z</time>
      </trkpt>
      <trkpt lat="43.60192" lon="6.38997">
        <ele>525.2</ele>
        <time>2026-02-22T10:13:03Z</time>
      </trkpt>
      <trkpt lat="43.60192" lon="6.38997">
        <ele>525.3</ele>
        <time>2026-02-22T10:13:04Z</time>
      </trkpt>
      <trkpt lat="43.60192" lon="6.38997">
        <ele>525.3</ele>
        <time>2026-02-22T10:13:05Z</time>
      </trkpt>
      <trkpt lat="43.60192" lon="6.38998">
        <ele>525.3</ele>
        <time>2026-02-22T10:13:06Z</time>
      </trkpt>
      <trkpt lat="43.60192" lon="6.38998">
        <ele>525.2</ele>
        <time>2026-02-22T10:13:07Z</time>
      </trkpt>
      <trkpt lat="43.60192" lon="6.38997">
        <ele>525.3</ele>
        <time>2026-02-22T10:13:08Z</time>
      </trkpt>
      <trkpt lat="43.60192" lon="6.38998">
        <ele>525.4</ele>
        <time>2026-02-22T10:13:09Z</time>
      </trkpt>
      <trkpt lat="43.60191" lon="6.38998">
        <ele>525.4</ele>
        <time>2026-02-22T10:13:10Z</time>
      </trkpt>
      <trkpt lat="43.60191" lon="6.38998">
        <ele>525.4</ele>
        <time>2026-02-22T10:13:11Z</time>
      </trkpt>
      <trkpt lat="43.6019" lon="6.38998">
        <ele>525.4</ele>
        <time>2026-02-22T10:13:12Z</time>
      </trkpt>
      <trkpt lat="43.6019" lon="6.38998">
        <ele>525.4</ele>
        <time>2026-02-22T10:13:13Z</time>
      </trkpt>
      <trkpt lat="43.6019" lon="6.38998">
        <ele>525.4</ele>
        <time>2026-02-22T10:13:14Z</time>
      </trkpt>
      <trkpt lat="43.6019" lon="6.38998">
        <ele>525.4</ele>
        <time>2026-02-22T10:13:15Z</time>
      </trkpt>
      <trkpt lat="43.60189" lon="6.38997">
        <ele>525.4</ele>
        <time>2026-02-22T10:13:16Z</time>
      </trkpt>
      <trkpt lat="43.60189" lon="6.38997">
        <ele>525.4</ele>
        <time>2026-02-22T10:13:17Z</time>
      </trkpt>
      <trkpt lat="43.60189" lon="6.38998">
        <ele>525.4</ele>
        <time>2026-02-22T10:13:18Z</time>
      </trkpt>
      <trkpt lat="43.60189" lon="6.38998">
        <ele>525.4</ele>
        <time>2026-02-22T10:13:19Z</time>
      </trkpt>
      <trkpt lat="43.60188" lon="6.38998">
        <ele>525.4</ele>
        <time>2026-02-22T10:13:20Z</time>
      </trkpt>
      <trkpt lat="43.60188" lon="6.38998">
        <ele>525.4</ele>
        <time>2026-02-22T10:13:21Z</time>
      </trkpt>
      <trkpt lat="43.60189" lon="6.38998">
        <ele>525.3</ele>
        <time>2026-02-22T10:13:22Z</time>
      </trkpt>
      <trkpt lat="43.60188" lon="6.38998">
        <ele>525.3</ele>
        <time>2026-02-22T10:13:23Z</time>
      </trkpt>
      <trkpt lat="43.60188" lon="6.38998">
        <ele>525.3</ele>
        <time>2026-02-22T10:13:24Z</time>
      </trkpt>
      <trkpt lat="43.60188" lon="6.38998">
        <ele>525.3</ele>
        <time>2026-02-22T10:13:25Z</time>
      </trkpt>
      <trkpt lat="43.60188" lon="6.38998">
        <ele>525.4</ele>
        <time>2026-02-22T10:13:26Z</time>
      </trkpt>
      <trkpt lat="43.60188" lon="6.38998">
        <ele>525.4</ele>
        <time>2026-02-22T10:13:27Z</time>
      </trkpt>
      <trkpt lat="43.60188" lon="6.38998">
        <ele>525.4</ele>
        <time>2026-02-22T10:13:28Z</time>
      </trkpt>
      <trkpt lat="43.60188" lon="6.38998">
        <ele>525.5</ele>
        <time>2026-02-22T10:13:29Z</time>
      </trkpt>
      <trkpt lat="43.60188" lon="6.38998">
        <ele>525.5</ele>
        <time>2026-02-22T10:13:30Z</time>
      </trkpt>
      <trkpt lat="43.60189" lon="6.38998">
        <ele>525.5</ele>
        <time>2026-02-22T10:13:31Z</time>
      </trkpt>
      <trkpt lat="43.60189" lon="6.38998">
        <ele>525.5</ele>
        <time>2026-02-22T10:13:32Z</time>
      </trkpt>
      <trkpt lat="43.60189" lon="6.38999">
        <ele>525.4</ele>
        <time>2026-02-22T10:13:33Z</time>
      </trkpt>
      <trkpt lat="43.60189" lon="6.38999">
        <ele>525.4</ele>
        <time>2026-02-22T10:13:34Z</time>
      </trkpt>
      <trkpt lat="43.60189" lon="6.38999">
        <ele>525.3</ele>
        <time>2026-02-22T10:13:35Z</time>
      </trkpt>
      <trkpt lat="43.6019" lon="6.38999">
        <ele>525.4</ele>
        <time>2026-02-22T10:13:36Z</time>
      </trkpt>
      <trkpt lat="43.6019" lon="6.38999">
        <ele>525.4</ele>
        <time>2026-02-22T10:13:37Z</time>
      </trkpt>
      <trkpt lat="43.60191" lon="6.38999">
        <ele>525.5</ele>
        <time>2026-02-22T10:13:38Z</time>
      </trkpt>
      <trkpt lat="43.60191" lon="6.38999">
        <ele>525.5</ele>
        <time>2026-02-22T10:13:39Z</time>
      </trkpt>
      <trkpt lat="43.60191" lon="6.38999">
        <ele>525.6</ele>
        <time>2026-02-22T10:13:40Z</time>
      </trkpt>
      <trkpt lat="43.60191" lon="6.38999">
        <ele>525.6</ele>
        <time>2026-02-22T10:13:41Z</time>
      </trkpt>
      <trkpt lat="43.60192" lon="6.38999">
        <ele>525.7</ele>
        <time>2026-02-22T10:13:42Z</time>
      </trkpt>
      <trkpt lat="43.60192" lon="6.38999">
        <ele>525.7</ele>
        <time>2026-02-22T10:13:43Z</time>
      </trkpt>
      <trkpt lat="43.60191" lon="6.38999">
        <ele>525.8</ele>
        <time>2026-02-22T10:13:44Z</time>
      </trkpt>
      <trkpt lat="43.60192" lon="6.38999">
        <ele>525.8</ele>
        <time>2026-02-22T10:13:45Z</time>
      </trkpt>
      <trkpt lat="43.60192" lon="6.38999">
        <ele>525.8</ele>
        <time>2026-02-22T10:13:46Z</time>
      </trkpt>
      <trkpt lat="43.60192" lon="6.38998">
        <ele>525.7</ele>
        <time>2026-02-22T10:13:47Z</time>
      </trkpt>
      <trkpt lat="43.60192" lon="6.38998">
        <ele>525.6</ele>
        <time>2026-02-22T10:13:48Z</time>
      </trkpt>
      <trkpt lat="43.60192" lon="6.38997">
        <ele>525.5</ele>
        <time>2026-02-22T10:13:49Z</time>
      </trkpt>
      <trkpt lat="43.60193" lon="6.38996">
        <ele>525.4</ele>
        <time>2026-02-22T10:13:50Z</time>
      </trkpt>
      <trkpt lat="43.60192" lon="6.38995">
        <ele>525.4</ele>
        <time>2026-02-22T10:13:51Z</time>
      </trkpt>
      <trkpt lat="43.60192" lon="6.38994">
        <ele>525.4</ele>
        <time>2026-02-22T10:13:52Z</time>
      </trkpt>
      <trkpt lat="43.60192" lon="6.38993">
        <ele>525.4</ele>
        <time>2026-02-22T10:13:53Z</time>
      </trkpt>
      <trkpt lat="43.60192" lon="6.38993">
        <ele>525.5</ele>
        <time>2026-02-22T10:13:54Z</time>
      </trkpt>
      <trkpt lat="43.60191" lon="6.38992">
        <ele>525.5</ele>
        <time>2026-02-22T10:13:55Z</time>
      </trkpt>
      <trkpt lat="43.60191" lon="6.38992">
        <ele>525.5</ele>
        <time>2026-02-22T10:13:56Z</time>
      </trkpt>
      <trkpt lat="43.60191" lon="6.38991">
        <ele>525.4</ele>
        <time>2026-02-22T10:13:57Z</time>
      </trkpt>
      <trkpt lat="43.60191" lon="6.38991">
        <ele>525.4</ele>
        <time>2026-02-22T10:13:58Z</time>
      </trkpt>
      <trkpt lat="43.60191" lon="6.38991">
        <ele>525.4</ele>
        <time>2026-02-22T10:13:59Z</time>
      </trkpt>
      <trkpt lat="43.60191" lon="6.38991">
        <ele>525.4</ele>
        <time>2026-02-22T10:14:00Z</time>
      </trkpt>
      <trkpt lat="43.6019" lon="6.38991">
        <ele>525.4</ele>
        <time>2026-02-22T10:14:01Z</time>
      </trkpt>
      <trkpt lat="43.6019" lon="6.3899">
        <ele>525.4</ele>
        <time>2026-02-22T10:14:02Z</time>
      </trkpt>
      <trkpt lat="43.6019" lon="6.3899">
        <ele>525.5</ele>
        <time>2026-02-22T10:14:03Z</time>
      </trkpt>
      <trkpt lat="43.6019" lon="6.3899">
        <ele>525.5</ele>
        <time>2026-02-22T10:14:04Z</time>
      </trkpt>
      <trkpt lat="43.6019" lon="6.3899">
        <ele>525.5</ele>
        <time>2026-02-22T10:14:05Z</time>
      </trkpt>
      <trkpt lat="43.6019" lon="6.38989">
        <ele>525.6</ele>
        <time>2026-02-22T10:14:06Z</time>
      </trkpt>
      <trkpt lat="43.60189" lon="6.38989">
        <ele>525.5</ele>
        <time>2026-02-22T10:14:07Z</time>
      </trkpt>
      <trkpt lat="43.60189" lon="6.38989">
        <ele>525.4</ele>
        <time>2026-02-22T10:14:08Z</time>
      </trkpt>
      <trkpt lat="43.60189" lon="6.38987">
        <ele>525.4</ele>
        <time>2026-02-22T10:14:09Z</time>
      </trkpt>
      <trkpt lat="43.60189" lon="6.38987">
        <ele>525.4</ele>
        <time>2026-02-22T10:14:10Z</time>
      </trkpt>
      <trkpt lat="43.60189" lon="6.38987">
        <ele>525.3</ele>
        <time>2026-02-22T10:14:11Z</time>
      </trkpt>
      <trkpt lat="43.60188" lon="6.38986">
        <ele>525.3</ele>
        <time>2026-02-22T10:14:12Z</time>
      </trkpt>
      <trkpt lat="43.60188" lon="6.38986">
        <ele>525.3</ele>
        <time>2026-02-22T10:14:13Z</time>
      </trkpt>
      <trkpt lat="43.60188" lon="6.38986">
        <ele>525.3</ele>
        <time>2026-02-22T10:14:14Z</time>
      </trkpt>
      <trkpt lat="43.60188" lon="6.38985">
        <ele>525.3</ele>
        <time>2026-02-22T10:14:15Z</time>
      </trkpt>
      <trkpt lat="43.60188" lon="6.38985">
        <ele>525.3</ele>
        <time>2026-02-22T10:14:16Z</time>
      </trkpt>
      <trkpt lat="43.60188" lon="6.38985">
        <ele>525.4</ele>
        <time>2026-02-22T10:14:17Z</time>
      </trkpt>
      <trkpt lat="43.60188" lon="6.38985">
        <ele>525.3</ele>
        <time>2026-02-22T10:14:18Z</time>
      </trkpt>
      <trkpt lat="43.60188" lon="6.38984">
        <ele>525.2</ele>
        <time>2026-02-22T10:14:19Z</time>
      </trkpt>
      <trkpt lat="43.60188" lon="6.38984">
        <ele>525.2</ele>
        <time>2026-02-22T10:14:20Z</time>
      </trkpt>
      <trkpt lat="43.60188" lon="6.38984">
        <ele>525.3</ele>
        <time>2026-02-22T10:14:21Z</time>
      </trkpt>
      <trkpt lat="43.60188" lon="6.38984">
        <ele>525.2</ele>
        <time>2026-02-22T10:14:22Z</time>
      </trkpt>
      <trkpt lat="43.60188" lon="6.38983">
        <ele>525.2</ele>
        <time>2026-02-22T10:14:23Z</time>
      </trkpt>
      <trkpt lat="43.60187" lon="6.38984">
        <ele>525.2</ele>
        <time>2026-02-22T10:14:24Z</time>
      </trkpt>
      <trkpt lat="43.60187" lon="6.38984">
        <ele>525.2</ele>
        <time>2026-02-22T10:14:25Z</time>
      </trkpt>
      <trkpt lat="43.60186" lon="6.38984">
        <ele>525.2</ele>
        <time>2026-02-22T10:14:26Z</time>
      </trkpt>
      <trkpt lat="43.60186" lon="6.38985">
        <ele>525.2</ele>
        <time>2026-02-22T10:14:27Z</time>
      </trkpt>
      <trkpt lat="43.60186" lon="6.38985">
        <ele>525.2</ele>
        <time>2026-02-22T10:14:28Z</time>
      </trkpt>
      <trkpt lat="43.60186" lon="6.38985">
        <ele>525.2</ele>
        <time>2026-02-22T10:14:29Z</time>
      </trkpt>
      <trkpt lat="43.60185" lon="6.38985">
        <ele>525.2</ele>
        <time>2026-02-22T10:14:30Z</time>
      </trkpt>
      <trkpt lat="43.60185" lon="6.38985">
        <ele>525.1</ele>
        <time>2026-02-22T10:14:31Z</time>
      </trkpt>
      <trkpt lat="43.60186" lon="6.38984">
        <ele>525.2</ele>
        <time>2026-02-22T10:14:32Z</time>
      </trkpt>
      <trkpt lat="43.60186" lon="6.38983">
        <ele>525.2</ele>
        <time>2026-02-22T10:14:33Z</time>
      </trkpt>
      <trkpt lat="43.60186" lon="6.38983">
        <ele>525.3</ele>
        <time>2026-02-22T10:14:34Z</time>
      </trkpt>
      <trkpt lat="43.60186" lon="6.38983">
        <ele>525.3</ele>
        <time>2026-02-22T10:14:35Z</time>
      </trkpt>
      <trkpt lat="43.60186" lon="6.38982">
        <ele>525.4</ele>
        <time>2026-02-22T10:14:36Z</time>
      </trkpt>
      <trkpt lat="43.60185" lon="6.38982">
        <ele>525.4</ele>
        <time>2026-02-22T10:14:37Z</time>
      </trkpt>
      <trkpt lat="43.60185" lon="6.38981">
        <ele>525.4</ele>
        <time>2026-02-22T10:14:38Z</time>
      </trkpt>
      <trkpt lat="43.60184" lon="6.38981">
        <ele>525.4</ele>
        <time>2026-02-22T10:14:39Z</time>
      </trkpt>
      <trkpt lat="43.60184" lon="6.38981">
        <ele>525.4</ele>
        <time>2026-02-22T10:14:40Z</time>
      </trkpt>
      <trkpt lat="43.60183" lon="6.38981">
        <ele>525.4</ele>
        <time>2026-02-22T10:14:41Z</time>
      </trkpt>
      <trkpt lat="43.60183" lon="6.38981">
        <ele>525.5</ele>
        <time>2026-02-22T10:14:42Z</time>
      </trkpt>
      <trkpt lat="43.60183" lon="6.38981">
        <ele>525.5</ele>
        <time>2026-02-22T10:14:43Z</time>
      </trkpt>
      <trkpt lat="43.60182" lon="6.38982">
        <ele>525.6</ele>
        <time>2026-02-22T10:14:44Z</time>
      </trkpt>
      <trkpt lat="43.60182" lon="6.38982">
        <ele>525.6</ele>
        <time>2026-02-22T10:14:45Z</time>
      </trkpt>
      <trkpt lat="43.60181" lon="6.38983">
        <ele>525.6</ele>
        <time>2026-02-22T10:14:46Z</time>
      </trkpt>
      <trkpt lat="43.60181" lon="6.38983">
        <ele>525.6</ele>
        <time>2026-02-22T10:14:47Z</time>
      </trkpt>
      <trkpt lat="43.6018" lon="6.38983">
        <ele>525.6</ele>
        <time>2026-02-22T10:14:48Z</time>
      </trkpt>
      <trkpt lat="43.6018" lon="6.38983">
        <ele>525.6</ele>
        <time>2026-02-22T10:14:49Z</time>
      </trkpt>
      <trkpt lat="43.6018" lon="6.38983">
        <ele>525.6</ele>
        <time>2026-02-22T10:14:50Z</time>
      </trkpt>
      <trkpt lat="43.6018" lon="6.38983">
        <ele>525.5</ele>
        <time>2026-02-22T10:14:51Z</time>
      </trkpt>
      <trkpt lat="43.60179" lon="6.38983">
        <ele>525.4</ele>
        <time>2026-02-22T10:14:52Z</time>
      </trkpt>
      <trkpt lat="43.60179" lon="6.38983">
        <ele>525.5</ele>
        <time>2026-02-22T10:14:53Z</time>
      </trkpt>
      <trkpt lat="43.60179" lon="6.38983">
        <ele>525.5</ele>
        <time>2026-02-22T10:14:54Z</time>
      </trkpt>
      <trkpt lat="43.60179" lon="6.38983">
        <ele>525.5</ele>
        <time>2026-02-22T10:14:55Z</time>
      </trkpt>
      <trkpt lat="43.6018" lon="6.38983">
        <ele>525.5</ele>
        <time>2026-02-22T10:14:56Z</time>
      </trkpt>
      <trkpt lat="43.6018" lon="6.38982">
        <ele>525.6</ele>
        <time>2026-02-22T10:14:57Z</time>
      </trkpt>
      <trkpt lat="43.6018" lon="6.38982">
        <ele>525.6</ele>
        <time>2026-02-22T10:14:58Z</time>
      </trkpt>
      <trkpt lat="43.60181" lon="6.38982">
        <ele>525.7</ele>
        <time>2026-02-22T10:14:59Z</time>
      </trkpt>
      <trkpt lat="43.60181" lon="6.38981">
        <ele>525.6</ele>
        <time>2026-02-22T10:15:00Z</time>
      </trkpt>
      <trkpt lat="43.60182" lon="6.38981">
        <ele>525.7</ele>
        <time>2026-02-22T10:15:01Z</time>
      </trkpt>
      <trkpt lat="43.60182" lon="6.38981">
        <ele>525.7</ele>
        <time>2026-02-22T10:15:02Z</time>
      </trkpt>
      <trkpt lat="43.60182" lon="6.3898">
        <ele>525.8</ele>
        <time>2026-02-22T10:15:03Z</time>
      </trkpt>
      <trkpt lat="43.60183" lon="6.3898">
        <ele>525.7</ele>
        <time>2026-02-22T10:15:04Z</time>
      </trkpt>
      <trkpt lat="43.60183" lon="6.38979">
        <ele>525.7</ele>
        <time>2026-02-22T10:15:05Z</time>
      </trkpt>
      <trkpt lat="43.60183" lon="6.38979">
        <ele>525.5</ele>
        <time>2026-02-22T10:15:06Z</time>
      </trkpt>
      <trkpt lat="43.60183" lon="6.38979">
        <ele>525.6</ele>
        <time>2026-02-22T10:15:07Z</time>
      </trkpt>
      <trkpt lat="43.60183" lon="6.38979">
        <ele>525.6</ele>
        <time>2026-02-22T10:15:08Z</time>
      </trkpt>
      <trkpt lat="43.60182" lon="6.38979">
        <ele>525.6</ele>
        <time>2026-02-22T10:15:09Z</time>
      </trkpt>
      <trkpt lat="43.60182" lon="6.38979">
        <ele>525.6</ele>
        <time>2026-02-22T10:15:10Z</time>
      </trkpt>
      <trkpt lat="43.60182" lon="6.38979">
        <ele>525.7</ele>
        <time>2026-02-22T10:15:11Z</time>
      </trkpt>
      <trkpt lat="43.60182" lon="6.38979">
        <ele>525.6</ele>
        <time>2026-02-22T10:15:12Z</time>
      </trkpt>
      <trkpt lat="43.60181" lon="6.38979">
        <ele>525.6</ele>
        <time>2026-02-22T10:15:13Z</time>
      </trkpt>
      <trkpt lat="43.60181" lon="6.38979">
        <ele>525.6</ele>
        <time>2026-02-22T10:15:14Z</time>
      </trkpt>
      <trkpt lat="43.60181" lon="6.38979">
        <ele>525.5</ele>
        <time>2026-02-22T10:15:15Z</time>
      </trkpt>
      <trkpt lat="43.6018" lon="6.38979">
        <ele>525.5</ele>
        <time>2026-02-22T10:15:16Z</time>
      </trkpt>
      <trkpt lat="43.6018" lon="6.3898">
        <ele>525.5</ele>
        <time>2026-02-22T10:15:17Z</time>
      </trkpt>
      <trkpt lat="43.6018" lon="6.3898">
        <ele>525.6</ele>
        <time>2026-02-22T10:15:18Z</time>
      </trkpt>
      <trkpt lat="43.60179" lon="6.3898">
        <ele>525.6</ele>
        <time>2026-02-22T10:15:19Z</time>
      </trkpt>
      <trkpt lat="43.60179" lon="6.3898">
        <ele>525.6</ele>
        <time>2026-02-22T10:15:20Z</time>
      </trkpt>
      <trkpt lat="43.60178" lon="6.3898">
        <ele>525.5</ele>
        <time>2026-02-22T10:15:21Z</time>
      </trkpt>
      <trkpt lat="43.60178" lon="6.3898">
        <ele>525.5</ele>
        <time>2026-02-22T10:15:22Z</time>
      </trkpt>
      <trkpt lat="43.60178" lon="6.3898">
        <ele>525.5</ele>
        <time>2026-02-22T10:15:23Z</time>
      </trkpt>
      <trkpt lat="43.60177" lon="6.3898">
        <ele>525.5</ele>
        <time>2026-02-22T10:15:24Z</time>
      </trkpt>
      <trkpt lat="43.60177" lon="6.3898">
        <ele>525.6</ele>
        <time>2026-02-22T10:15:25Z</time>
      </trkpt>
      <trkpt lat="43.60177" lon="6.3898">
        <ele>525.6</ele>
        <time>2026-02-22T10:15:26Z</time>
      </trkpt>
      <trkpt lat="43.60177" lon="6.38981">
        <ele>525.6</ele>
        <time>2026-02-22T10:15:27Z</time>
      </trkpt>
      <trkpt lat="43.60177" lon="6.38981">
        <ele>525.6</ele>
        <time>2026-02-22T10:15:28Z</time>
      </trkpt>
      <trkpt lat="43.60177" lon="6.38981">
        <ele>525.6</ele>
        <time>2026-02-22T10:15:29Z</time>
      </trkpt>
      <trkpt lat="43.60177" lon="6.38982">
        <ele>525.6</ele>
        <time>2026-02-22T10:15:30Z</time>
      </trkpt>
      <trkpt lat="43.60177" lon="6.38982">
        <ele>525.6</ele>
        <time>2026-02-22T10:15:31Z</time>
      </trkpt>
      <trkpt lat="43.60177" lon="6.38982">
        <ele>525.6</ele>
        <time>2026-02-22T10:15:32Z</time>
      </trkpt>
      <trkpt lat="43.60178" lon="6.38983">
        <ele>525.7</ele>
        <time>2026-02-22T10:15:33Z</time>
      </trkpt>
      <trkpt lat="43.60178" lon="6.38983">
        <ele>525.6</ele>
        <time>2026-02-22T10:15:34Z</time>
      </trkpt>
      <trkpt lat="43.60178" lon="6.38983">
        <ele>525.6</ele>
        <time>2026-02-22T10:15:35Z</time>
      </trkpt>
      <trkpt lat="43.60178" lon="6.38983">
        <ele>525.5</ele>
        <time>2026-02-22T10:15:36Z</time>
      </trkpt>
      <trkpt lat="43.60178" lon="6.38983">
        <ele>525.4</ele>
        <time>2026-02-22T10:15:37Z</time>
      </trkpt>
      <trkpt lat="43.60178" lon="6.38983">
        <ele>525.3</ele>
        <time>2026-02-22T10:15:38Z</time>
      </trkpt>
      <trkpt lat="43.60178" lon="6.38983">
        <ele>525.3</ele>
        <time>2026-02-22T10:15:39Z</time>
      </trkpt>
      <trkpt lat="43.60178" lon="6.38983">
        <ele>525.3</ele>
        <time>2026-02-22T10:15:40Z</time>
      </trkpt>
      <trkpt lat="43.60178" lon="6.38983">
        <ele>525.3</ele>
        <time>2026-02-22T10:15:41Z</time>
      </trkpt>
      <trkpt lat="43.60178" lon="6.38983">
        <ele>525.4</ele>
        <time>2026-02-22T10:15:42Z</time>
      </trkpt>
      <trkpt lat="43.60178" lon="6.38984">
        <ele>525.3</ele>
        <time>2026-02-22T10:15:43Z</time>
      </trkpt>
      <trkpt lat="43.60179" lon="6.38984">
        <ele>525.2</ele>
        <time>2026-02-22T10:15:44Z</time>
      </trkpt>
      <trkpt lat="43.60179" lon="6.38983">
        <ele>525.2</ele>
        <time>2026-02-22T10:15:45Z</time>
      </trkpt>
      <trkpt lat="43.60181" lon="6.38982">
        <ele>525.1</ele>
        <time>2026-02-22T10:15:46Z</time>
      </trkpt>
      <trkpt lat="43.60181" lon="6.38982">
        <ele>525.1</ele>
        <time>2026-02-22T10:15:47Z</time>
      </trkpt>
      <trkpt lat="43.6018" lon="6.38982">
        <ele>525.2</ele>
        <time>2026-02-22T10:15:48Z</time>
      </trkpt>
      <trkpt lat="43.6018" lon="6.38982">
        <ele>525.2</ele>
        <time>2026-02-22T10:15:49Z</time>
      </trkpt>
      <trkpt lat="43.6018" lon="6.38982">
        <ele>525.3</ele>
        <time>2026-02-22T10:15:50Z</time>
      </trkpt>
      <trkpt lat="43.6018" lon="6.38982">
        <ele>525.3</ele>
        <time>2026-02-22T10:15:51Z</time>
      </trkpt>
      <trkpt lat="43.6018" lon="6.38982">
        <ele>525.3</ele>
        <time>2026-02-22T10:15:52Z</time>
      </trkpt>
      <trkpt lat="43.6018" lon="6.38982">
        <ele>525.4</ele>
        <time>2026-02-22T10:15:53Z</time>
      </trkpt>
      <trkpt lat="43.6018" lon="6.38982">
        <ele>525.4</ele>
        <time>2026-02-22T10:15:54Z</time>
      </trkpt>
      <trkpt lat="43.6018" lon="6.38982">
        <ele>525.5</ele>
        <time>2026-02-22T10:15:55Z</time>
      </trkpt>
      <trkpt lat="43.6018" lon="6.38982">
        <ele>525.5</ele>
        <time>2026-02-22T10:15:56Z</time>
      </trkpt>
      <trkpt lat="43.6018" lon="6.38982">
        <ele>525.5</ele>
        <time>2026-02-22T10:15:57Z</time>
      </trkpt>
      <trkpt lat="43.6018" lon="6.38982">
        <ele>525.6</ele>
        <time>2026-02-22T10:15:58Z</time>
      </trkpt>
      <trkpt lat="43.6018" lon="6.38982">
        <ele>525.6</ele>
        <time>2026-02-22T10:15:59Z</time>
      </trkpt>
      <trkpt lat="43.60181" lon="6.38982">
        <ele>525.6</ele>
        <time>2026-02-22T10:16:00Z</time>
      </trkpt>
      <trkpt lat="43.60181" lon="6.38982">
        <ele>525.7</ele>
        <time>2026-02-22T10:16:01Z</time>
      </trkpt>
      <trkpt lat="43.60181" lon="6.38982">
        <ele>525.6</ele>
        <time>2026-02-22T10:16:02Z</time>
      </trkpt>
      <trkpt lat="43.60181" lon="6.38981">
        <ele>525.6</ele>
        <time>2026-02-22T10:16:03Z</time>
      </trkpt>
      <trkpt lat="43.60181" lon="6.38981">
        <ele>525.6</ele>
        <time>2026-02-22T10:16:04Z</time>
      </trkpt>
      <trkpt lat="43.60181" lon="6.38981">
        <ele>525.6</ele>
        <time>2026-02-22T10:16:05Z</time>
      </trkpt>
      <trkpt lat="43.60181" lon="6.38981">
        <ele>525.6</ele>
        <time>2026-02-22T10:16:06Z</time>
      </trkpt>
      <trkpt lat="43.60181" lon="6.38981">
        <ele>525.6</ele>
        <time>2026-02-22T10:16:07Z</time>
      </trkpt>
      <trkpt lat="43.60181" lon="6.38981">
        <ele>525.6</ele>
        <time>2026-02-22T10:16:08Z</time>
      </trkpt>
      <trkpt lat="43.60181" lon="6.38981">
        <ele>525.7</ele>
        <time>2026-02-22T10:16:09Z</time>
      </trkpt>
      <trkpt lat="43.60181" lon="6.38981">
        <ele>525.7</ele>
        <time>2026-02-22T10:16:10Z</time>
      </trkpt>
      <trkpt lat="43.60181" lon="6.38981">
        <ele>525.7</ele>
        <time>2026-02-22T10:16:11Z</time>
      </trkpt>
      <trkpt lat="43.60181" lon="6.38981">
        <ele>525.7</ele>
        <time>2026-02-22T10:16:12Z</time>
      </trkpt>
      <trkpt lat="43.60181" lon="6.38981">
        <ele>525.7</ele>
        <time>2026-02-22T10:16:13Z</time>
      </trkpt>
      <trkpt lat="43.60181" lon="6.38981">
        <ele>525.7</ele>
        <time>2026-02-22T10:16:14Z</time>
      </trkpt>
      <trkpt lat="43.60181" lon="6.38981">
        <ele>525.7</ele>
        <time>2026-02-22T10:16:15Z</time>
      </trkpt>
      <trkpt lat="43.60181" lon="6.38981">
        <ele>525.7</ele>
        <time>2026-02-22T10:16:16Z</time>
      </trkpt>
      <trkpt lat="43.60181" lon="6.38981">
        <ele>525.7</ele>
        <time>2026-02-22T10:16:17Z</time>
      </trkpt>
      <trkpt lat="43.60181" lon="6.38982">
        <ele>525.8</ele>
        <time>2026-02-22T10:16:18Z</time>
      </trkpt>
      <trkpt lat="43.60181" lon="6.38982">
        <ele>525.9</ele>
        <time>2026-02-22T10:16:19Z</time>
      </trkpt>
      <trkpt lat="43.60181" lon="6.38981">
        <ele>525.9</ele>
        <time>2026-02-22T10:16:20Z</time>
      </trkpt>
      <trkpt lat="43.60181" lon="6.38982">
        <ele>526</ele>
        <time>2026-02-22T10:16:21Z</time>
      </trkpt>
      <trkpt lat="43.60181" lon="6.38981">
        <ele>526</ele>
        <time>2026-02-22T10:16:22Z</time>
      </trkpt>
      <trkpt lat="43.60181" lon="6.38981">
        <ele>526</ele>
        <time>2026-02-22T10:16:23Z</time>
      </trkpt>
      <trkpt lat="43.60181" lon="6.38982">
        <ele>526.1</ele>
        <time>2026-02-22T10:16:24Z</time>
      </trkpt>
      <trkpt lat="43.60181" lon="6.38982">
        <ele>526</ele>
        <time>2026-02-22T10:16:25Z</time>
      </trkpt>
      <trkpt lat="43.60182" lon="6.38982">
        <ele>526</ele>
        <time>2026-02-22T10:16:26Z</time>
      </trkpt>
      <trkpt lat="43.60182" lon="6.38982">
        <ele>526</ele>
        <time>2026-02-22T10:16:27Z</time>
      </trkpt>
      <trkpt lat="43.60182" lon="6.38982">
        <ele>525.9</ele>
        <time>2026-02-22T10:16:28Z</time>
      </trkpt>
      <trkpt lat="43.60182" lon="6.38983">
        <ele>525.9</ele>
        <time>2026-02-22T10:16:29Z</time>
      </trkpt>
      <trkpt lat="43.60181" lon="6.38983">
        <ele>525.8</ele>
        <time>2026-02-22T10:16:30Z</time>
      </trkpt>
      <trkpt lat="43.60181" lon="6.38983">
        <ele>525.8</ele>
        <time>2026-02-22T10:16:31Z</time>
      </trkpt>
      <trkpt lat="43.60181" lon="6.38983">
        <ele>525.8</ele>
        <time>2026-02-22T10:16:32Z</time>
      </trkpt>
      <trkpt lat="43.60181" lon="6.38983">
        <ele>525.8</ele>
        <time>2026-02-22T10:16:33Z</time>
      </trkpt>
      <trkpt lat="43.60181" lon="6.38983">
        <ele>525.8</ele>
        <time>2026-02-22T10:16:34Z</time>
      </trkpt>
      <trkpt lat="43.60181" lon="6.38983">
        <ele>525.7</ele>
        <time>2026-02-22T10:16:35Z</time>
      </trkpt>
      <trkpt lat="43.6018" lon="6.38984">
        <ele>525.7</ele>
        <time>2026-02-22T10:16:36Z</time>
      </trkpt>
      <trkpt lat="43.6018" lon="6.38984">
        <ele>525.7</ele>
        <time>2026-02-22T10:16:37Z</time>
      </trkpt>
      <trkpt lat="43.6018" lon="6.38984">
        <ele>525.7</ele>
        <time>2026-02-22T10:16:38Z</time>
      </trkpt>
      <trkpt lat="43.6018" lon="6.38984">
        <ele>525.7</ele>
        <time>2026-02-22T10:16:39Z</time>
      </trkpt>
      <trkpt lat="43.6018" lon="6.38984">
        <ele>525.7</ele>
        <time>2026-02-22T10:16:40Z</time>
      </trkpt>
      <trkpt lat="43.6018" lon="6.38984">
        <ele>525.7</ele>
        <time>2026-02-22T10:16:41Z</time>
      </trkpt>
      <trkpt lat="43.60181" lon="6.38984">
        <ele>525.6</ele>
        <time>2026-02-22T10:16:42Z</time>
      </trkpt>
      <trkpt lat="43.60181" lon="6.38984">
        <ele>525.6</ele>
        <time>2026-02-22T10:16:43Z</time>
      </trkpt>
      <trkpt lat="43.60181" lon="6.38984">
        <ele>525.5</ele>
        <time>2026-02-22T10:16:44Z</time>
      </trkpt>
      <trkpt lat="43.60181" lon="6.38984">
        <ele>525.5</ele>
        <time>2026-02-22T10:16:45Z</time>
      </trkpt>
      <trkpt lat="43.60181" lon="6.38984">
        <ele>525.5</ele>
        <time>2026-02-22T10:16:46Z</time>
      </trkpt>
      <trkpt lat="43.60181" lon="6.38984">
        <ele>525.6</ele>
        <time>2026-02-22T10:16:47Z</time>
      </trkpt>
      <trkpt lat="43.60181" lon="6.38984">
        <ele>525.6</ele>
        <time>2026-02-22T10:16:48Z</time>
      </trkpt>
      <trkpt lat="43.60181" lon="6.38984">
        <ele>525.5</ele>
        <time>2026-02-22T10:16:49Z</time>
      </trkpt>
      <trkpt lat="43.60181" lon="6.38984">
        <ele>525.5</ele>
        <time>2026-02-22T10:16:50Z</time>
      </trkpt>
      <trkpt lat="43.60181" lon="6.38984">
        <ele>525.5</ele>
        <time>2026-02-22T10:16:51Z</time>
      </trkpt>
      <trkpt lat="43.60181" lon="6.38984">
        <ele>525.5</ele>
        <time>2026-02-22T10:16:52Z</time>
      </trkpt>
      <trkpt lat="43.60181" lon="6.38983">
        <ele>525.5</ele>
        <time>2026-02-22T10:16:53Z</time>
      </trkpt>
      <trkpt lat="43.60181" lon="6.38983">
        <ele>525.5</ele>
        <time>2026-02-22T10:16:54Z</time>
      </trkpt>
      <trkpt lat="43.60182" lon="6.38984">
        <ele>525.6</ele>
        <time>2026-02-22T10:16:55Z</time>
      </trkpt>
      <trkpt lat="43.60181" lon="6.38984">
        <ele>525.6</ele>
        <time>2026-02-22T10:16:56Z</time>
      </trkpt>
      <trkpt lat="43.60181" lon="6.38985">
        <ele>525.5</ele>
        <time>2026-02-22T10:16:57Z</time>
      </trkpt>
      <trkpt lat="43.60181" lon="6.38985">
        <ele>525.6</ele>
        <time>2026-02-22T10:16:58Z</time>
      </trkpt>
      <trkpt lat="43.60182" lon="6.38985">
        <ele>525.6</ele>
        <time>2026-02-22T10:16:59Z</time>
      </trkpt>
      <trkpt lat="43.60182" lon="6.38985">
        <ele>525.6</ele>
        <time>2026-02-22T10:17:00Z</time>
      </trkpt>
      <trkpt lat="43.60181" lon="6.38986">
        <ele>525.4</ele>
        <time>2026-02-22T10:17:01Z</time>
      </trkpt>
      <trkpt lat="43.60181" lon="6.38986">
        <ele>525.4</ele>
        <time>2026-02-22T10:17:02Z</time>
      </trkpt>
      <trkpt lat="43.60181" lon="6.38986">
        <ele>525.3</ele>
        <time>2026-02-22T10:17:03Z</time>
      </trkpt>
      <trkpt lat="43.60182" lon="6.38986">
        <ele>525.3</ele>
        <time>2026-02-22T10:17:04Z</time>
      </trkpt>
      <trkpt lat="43.60182" lon="6.38986">
        <ele>525.3</ele>
        <time>2026-02-22T10:17:05Z</time>
      </trkpt>
      <trkpt lat="43.60182" lon="6.38985">
        <ele>525.2</ele>
        <time>2026-02-22T10:17:06Z</time>
      </trkpt>
      <trkpt lat="43.60182" lon="6.38986">
        <ele>525.1</ele>
        <time>2026-02-22T10:17:07Z</time>
      </trkpt>
      <trkpt lat="43.60182" lon="6.38986">
        <ele>525.2</ele>
        <time>2026-02-22T10:17:08Z</time>
      </trkpt>
      <trkpt lat="43.60182" lon="6.38986">
        <ele>525.2</ele>
        <time>2026-02-22T10:17:09Z</time>
      </trkpt>
      <trkpt lat="43.60182" lon="6.38986">
        <ele>525.1</ele>
        <time>2026-02-22T10:17:10Z</time>
      </trkpt>
      <trkpt lat="43.60182" lon="6.38986">
        <ele>525</ele>
        <time>2026-02-22T10:17:11Z</time>
      </trkpt>
      <trkpt lat="43.60183" lon="6.38986">
        <ele>525</ele>
        <time>2026-02-22T10:17:12Z</time>
      </trkpt>
      <trkpt lat="43.60183" lon="6.38986">
        <ele>525.1</ele>
        <time>2026-02-22T10:17:13Z</time>
      </trkpt>
      <trkpt lat="43.60183" lon="6.38986">
        <ele>525.1</ele>
        <time>2026-02-22T10:17:14Z</time>
      </trkpt>
      <trkpt lat="43.60182" lon="6.38986">
        <ele>525.1</ele>
        <time>2026-02-22T10:17:15Z</time>
      </trkpt>
      <trkpt lat="43.60182" lon="6.38986">
        <ele>525.2</ele>
        <time>2026-02-22T10:17:16Z</time>
      </trkpt>
      <trkpt lat="43.60182" lon="6.38986">
        <ele>525.2</ele>
        <time>2026-02-22T10:17:17Z</time>
      </trkpt>
      <trkpt lat="43.60182" lon="6.38986">
        <ele>525.2</ele>
        <time>2026-02-22T10:17:18Z</time>
      </trkpt>
      <trkpt lat="43.60182" lon="6.38986">
        <ele>525.2</ele>
        <time>2026-02-22T10:17:19Z</time>
      </trkpt>
      <trkpt lat="43.60182" lon="6.38986">
        <ele>525.3</ele>
        <time>2026-02-22T10:17:20Z</time>
      </trkpt>
      <trkpt lat="43.60182" lon="6.38986">
        <ele>525.3</ele>
        <time>2026-02-22T10:17:21Z</time>
      </trkpt>
      <trkpt lat="43.60182" lon="6.38986">
        <ele>525.2</ele>
        <time>2026-02-22T10:17:22Z</time>
      </trkpt>
      <trkpt lat="43.60182" lon="6.38986">
        <ele>525.1</ele>
        <time>2026-02-22T10:17:23Z</time>
      </trkpt>
      <trkpt lat="43.60182" lon="6.38986">
        <ele>525.2</ele>
        <time>2026-02-22T10:17:24Z</time>
      </trkpt>
      <trkpt lat="43.60182" lon="6.38986">
        <ele>525.2</ele>
        <time>2026-02-22T10:17:25Z</time>
      </trkpt>
      <trkpt lat="43.60182" lon="6.38986">
        <ele>525.2</ele>
        <time>2026-02-22T10:17:26Z</time>
      </trkpt>
      <trkpt lat="43.60182" lon="6.38985">
        <ele>525.2</ele>
        <time>2026-02-22T10:17:27Z</time>
      </trkpt>
      <trkpt lat="43.60182" lon="6.38985">
        <ele>525.2</ele>
        <time>2026-02-22T10:17:28Z</time>
      </trkpt>
      <trkpt lat="43.60183" lon="6.38985">
        <ele>525.2</ele>
        <time>2026-02-22T10:17:29Z</time>
      </trkpt>
      <trkpt lat="43.60183" lon="6.38985">
        <ele>525.2</ele>
        <time>2026-02-22T10:17:30Z</time>
      </trkpt>
      <trkpt lat="43.60183" lon="6.38985">
        <ele>525.2</ele>
        <time>2026-02-22T10:17:31Z</time>
      </trkpt>
      <trkpt lat="43.60183" lon="6.38985">
        <ele>525.2</ele>
        <time>2026-02-22T10:17:32Z</time>
      </trkpt>
      <trkpt lat="43.60184" lon="6.38985">
        <ele>525.1</ele>
        <time>2026-02-22T10:17:33Z</time>
      </trkpt>
      <trkpt lat="43.60184" lon="6.38986">
        <ele>525.1</ele>
        <time>2026-02-22T10:17:34Z</time>
      </trkpt>
      <trkpt lat="43.60184" lon="6.38986">
        <ele>525</ele>
        <time>2026-02-22T10:17:35Z</time>
      </trkpt>
      <trkpt lat="43.60184" lon="6.38986">
        <ele>524.9</ele>
        <time>2026-02-22T10:17:36Z</time>
      </trkpt>
      <trkpt lat="43.60184" lon="6.38987">
        <ele>524.8</ele>
        <time>2026-02-22T10:17:37Z</time>
      </trkpt>
      <trkpt lat="43.60184" lon="6.38987">
        <ele>524.9</ele>
        <time>2026-02-22T10:17:38Z</time>
      </trkpt>
      <trkpt lat="43.60184" lon="6.38987">
        <ele>524.9</ele>
        <time>2026-02-22T10:17:39Z</time>
      </trkpt>
      <trkpt lat="43.60185" lon="6.38987">
        <ele>525</ele>
        <time>2026-02-22T10:17:40Z</time>
      </trkpt>
      <trkpt lat="43.60185" lon="6.38987">
        <ele>524.9</ele>
        <time>2026-02-22T10:17:41Z</time>
      </trkpt>
      <trkpt lat="43.60183" lon="6.38987">
        <ele>524.9</ele>
        <time>2026-02-22T10:17:42Z</time>
      </trkpt>
      <trkpt lat="43.60183" lon="6.38987">
        <ele>524.8</ele>
        <time>2026-02-22T10:17:43Z</time>
      </trkpt>
      <trkpt lat="43.60183" lon="6.38987">
        <ele>524.9</ele>
        <time>2026-02-22T10:17:44Z</time>
      </trkpt>
      <trkpt lat="43.60183" lon="6.38987">
        <ele>524.9</ele>
        <time>2026-02-22T10:17:45Z</time>
      </trkpt>
      <trkpt lat="43.60183" lon="6.38987">
        <ele>525</ele>
        <time>2026-02-22T10:17:46Z</time>
      </trkpt>
      <trkpt lat="43.60183" lon="6.38987">
        <ele>525</ele>
        <time>2026-02-22T10:17:47Z</time>
      </trkpt>
      <trkpt lat="43.60183" lon="6.38987">
        <ele>525</ele>
        <time>2026-02-22T10:17:48Z</time>
      </trkpt>
      <trkpt lat="43.60183" lon="6.38987">
        <ele>525</ele>
        <time>2026-02-22T10:17:49Z</time>
      </trkpt>
      <trkpt lat="43.60183" lon="6.38987">
        <ele>525.1</ele>
        <time>2026-02-22T10:17:50Z</time>
      </trkpt>
      <trkpt lat="43.60183" lon="6.38987">
        <ele>525.1</ele>
        <time>2026-02-22T10:17:51Z</time>
      </trkpt>
      <trkpt lat="43.60183" lon="6.38987">
        <ele>525.1</ele>
        <time>2026-02-22T10:17:52Z</time>
      </trkpt>
      <trkpt lat="43.60183" lon="6.38987">
        <ele>525.1</ele>
        <time>2026-02-22T10:17:53Z</time>
      </trkpt>
      <trkpt lat="43.60183" lon="6.38987">
        <ele>525.1</ele>
        <time>2026-02-22T10:17:54Z</time>
      </trkpt>
      <trkpt lat="43.60183" lon="6.38987">
        <ele>525.1</ele>
        <time>2026-02-22T10:17:55Z</time>
      </trkpt>
      <trkpt lat="43.60183" lon="6.38987">
        <ele>525</ele>
        <time>2026-02-22T10:17:56Z</time>
      </trkpt>
      <trkpt lat="43.60183" lon="6.38987">
        <ele>525.1</ele>
        <time>2026-02-22T10:17:57Z</time>
      </trkpt>
      <trkpt lat="43.60183" lon="6.38987">
        <ele>525.2</ele>
        <time>2026-02-22T10:17:58Z</time>
      </trkpt>
      <trkpt lat="43.60183" lon="6.38987">
        <ele>525.1</ele>
        <time>2026-02-22T10:17:59Z</time>
      </trkpt>
      <trkpt lat="43.60183" lon="6.38987">
        <ele>525</ele>
        <time>2026-02-22T10:18:00Z</time>
      </trkpt>
      <trkpt lat="43.60183" lon="6.38987">
        <ele>525</ele>
        <time>2026-02-22T10:18:01Z</time>
      </trkpt>
      <trkpt lat="43.60183" lon="6.38987">
        <ele>525.1</ele>
        <time>2026-02-22T10:18:02Z</time>
      </trkpt>
      <trkpt lat="43.60183" lon="6.38986">
        <ele>525.1</ele>
        <time>2026-02-22T10:18:03Z</time>
      </trkpt>
      <trkpt lat="43.60184" lon="6.38986">
        <ele>525.2</ele>
        <time>2026-02-22T10:18:04Z</time>
      </trkpt>
      <trkpt lat="43.60184" lon="6.38986">
        <ele>525.2</ele>
        <time>2026-02-22T10:18:05Z</time>
      </trkpt>
      <trkpt lat="43.60184" lon="6.38986">
        <ele>525.2</ele>
        <time>2026-02-22T10:18:06Z</time>
      </trkpt>
      <trkpt lat="43.60183" lon="6.38986">
        <ele>525.2</ele>
        <time>2026-02-22T10:18:07Z</time>
      </trkpt>
      <trkpt lat="43.60183" lon="6.38987">
        <ele>525.2</ele>
        <time>2026-02-22T10:18:08Z</time>
      </trkpt>
      <trkpt lat="43.60183" lon="6.38987">
        <ele>525.1</ele>
        <time>2026-02-22T10:18:09Z</time>
      </trkpt>
      <trkpt lat="43.60183" lon="6.38987">
        <ele>525.1</ele>
        <time>2026-02-22T10:18:10Z</time>
      </trkpt>
      <trkpt lat="43.60183" lon="6.38987">
        <ele>525.1</ele>
        <time>2026-02-22T10:18:11Z</time>
      </trkpt>
      <trkpt lat="43.60183" lon="6.38987">
        <ele>525.2</ele>
        <time>2026-02-22T10:18:12Z</time>
      </trkpt>
      <trkpt lat="43.60183" lon="6.38987">
        <ele>525.2</ele>
        <time>2026-02-22T10:18:13Z</time>
      </trkpt>
      <trkpt lat="43.60183" lon="6.38987">
        <ele>525.2</ele>
        <time>2026-02-22T10:18:14Z</time>
      </trkpt>
      <trkpt lat="43.60183" lon="6.38987">
        <ele>525.1</ele>
        <time>2026-02-22T10:18:15Z</time>
      </trkpt>
      <trkpt lat="43.60183" lon="6.38987">
        <ele>525.2</ele>
        <time>2026-02-22T10:18:16Z</time>
      </trkpt>
      <trkpt lat="43.60183" lon="6.38987">
        <ele>525.2</ele>
        <time>2026-02-22T10:18:17Z</time>
      </trkpt>
      <trkpt lat="43.60184" lon="6.38987">
        <ele>525.2</ele>
        <time>2026-02-22T10:18:18Z</time>
      </trkpt>
      <trkpt lat="43.60184" lon="6.38987">
        <ele>525.1</ele>
        <time>2026-02-22T10:18:19Z</time>
      </trkpt>
      <trkpt lat="43.60184" lon="6.38987">
        <ele>525.1</ele>
        <time>2026-02-22T10:18:20Z</time>
      </trkpt>
      <trkpt lat="43.60184" lon="6.38987">
        <ele>525.1</ele>
        <time>2026-02-22T10:18:21Z</time>
      </trkpt>
      <trkpt lat="43.60184" lon="6.38987">
        <ele>525</ele>
        <time>2026-02-22T10:18:22Z</time>
      </trkpt>
      <trkpt lat="43.60184" lon="6.38986">
        <ele>525</ele>
        <time>2026-02-22T10:18:23Z</time>
      </trkpt>
      <trkpt lat="43.60184" lon="6.38986">
        <ele>525</ele>
        <time>2026-02-22T10:18:24Z</time>
      </trkpt>
      <trkpt lat="43.60184" lon="6.38986">
        <ele>525</ele>
        <time>2026-02-22T10:18:25Z</time>
      </trkpt>
      <trkpt lat="43.60184" lon="6.38986">
        <ele>525</ele>
        <time>2026-02-22T10:18:26Z</time>
      </trkpt>
      <trkpt lat="43.60184" lon="6.38987">
        <ele>524.9</ele>
        <time>2026-02-22T10:18:27Z</time>
      </trkpt>
      <trkpt lat="43.60184" lon="6.38987">
        <ele>524.8</ele>
        <time>2026-02-22T10:18:28Z</time>
      </trkpt>
      <trkpt lat="43.60184" lon="6.38986">
        <ele>524.8</ele>
        <time>2026-02-22T10:18:29Z</time>
      </trkpt>
      <trkpt lat="43.60184" lon="6.38986">
        <ele>524.8</ele>
        <time>2026-02-22T10:18:30Z</time>
      </trkpt>
      <trkpt lat="43.60184" lon="6.38986">
        <ele>524.8</ele>
        <time>2026-02-22T10:18:31Z</time>
      </trkpt>
      <trkpt lat="43.60184" lon="6.38987">
        <ele>524.8</ele>
        <time>2026-02-22T10:18:32Z</time>
      </trkpt>
      <trkpt lat="43.60183" lon="6.38988">
        <ele>524.8</ele>
        <time>2026-02-22T10:18:33Z</time>
      </trkpt>
      <trkpt lat="43.60183" lon="6.38989">
        <ele>524.8</ele>
        <time>2026-02-22T10:18:34Z</time>
      </trkpt>
      <trkpt lat="43.60182" lon="6.38989">
        <ele>524.9</ele>
        <time>2026-02-22T10:18:35Z</time>
      </trkpt>
      <trkpt lat="43.60182" lon="6.38989">
        <ele>524.9</ele>
        <time>2026-02-22T10:18:36Z</time>
      </trkpt>
      <trkpt lat="43.60182" lon="6.38989">
        <ele>524.9</ele>
        <time>2026-02-22T10:18:37Z</time>
      </trkpt>
      <trkpt lat="43.60181" lon="6.38989">
        <ele>525</ele>
        <time>2026-02-22T10:18:38Z</time>
      </trkpt>
      <trkpt lat="43.60181" lon="6.38989">
        <ele>525</ele>
        <time>2026-02-22T10:18:39Z</time>
      </trkpt>
      <trkpt lat="43.60182" lon="6.38988">
        <ele>525</ele>
        <time>2026-02-22T10:18:40Z</time>
      </trkpt>
      <trkpt lat="43.60183" lon="6.38988">
        <ele>525</ele>
        <time>2026-02-22T10:18:41Z</time>
      </trkpt>
      <trkpt lat="43.60183" lon="6.38988">
        <ele>525</ele>
        <time>2026-02-22T10:18:42Z</time>
      </trkpt>
      <trkpt lat="43.60183" lon="6.38988">
        <ele>525</ele>
        <time>2026-02-22T10:18:43Z</time>
      </trkpt>
      <trkpt lat="43.60183" lon="6.38988">
        <ele>525</ele>
        <time>2026-02-22T10:18:44Z</time>
      </trkpt>
      <trkpt lat="43.60183" lon="6.38988">
        <ele>525.1</ele>
        <time>2026-02-22T10:18:45Z</time>
      </trkpt>
      <trkpt lat="43.60184" lon="6.38988">
        <ele>525</ele>
        <time>2026-02-22T10:18:46Z</time>
      </trkpt>
      <trkpt lat="43.60184" lon="6.38988">
        <ele>524.9</ele>
        <time>2026-02-22T10:18:47Z</time>
      </trkpt>
      <trkpt lat="43.60184" lon="6.38987">
        <ele>524.9</ele>
        <time>2026-02-22T10:18:48Z</time>
      </trkpt>
      <trkpt lat="43.60184" lon="6.38987">
        <ele>524.9</ele>
        <time>2026-02-22T10:18:49Z</time>
      </trkpt>
      <trkpt lat="43.60184" lon="6.38987">
        <ele>524.9</ele>
        <time>2026-02-22T10:18:50Z</time>
      </trkpt>
      <trkpt lat="43.60184" lon="6.38987">
        <ele>524.9</ele>
        <time>2026-02-22T10:18:51Z</time>
      </trkpt>
      <trkpt lat="43.60184" lon="6.38987">
        <ele>524.9</ele>
        <time>2026-02-22T10:18:52Z</time>
      </trkpt>
      <trkpt lat="43.60184" lon="6.38987">
        <ele>525</ele>
        <time>2026-02-22T10:18:53Z</time>
      </trkpt>
      <trkpt lat="43.60184" lon="6.38987">
        <ele>525</ele>
        <time>2026-02-22T10:18:54Z</time>
      </trkpt>
      <trkpt lat="43.60184" lon="6.38987">
        <ele>525</ele>
        <time>2026-02-22T10:18:55Z</time>
      </trkpt>
      <trkpt lat="43.60184" lon="6.38987">
        <ele>525</ele>
        <time>2026-02-22T10:18:56Z</time>
      </trkpt>
      <trkpt lat="43.60184" lon="6.38987">
        <ele>525.1</ele>
        <time>2026-02-22T10:18:57Z</time>
      </trkpt>
      <trkpt lat="43.60184" lon="6.38988">
        <ele>525.1</ele>
        <time>2026-02-22T10:18:58Z</time>
      </trkpt>
      <trkpt lat="43.60184" lon="6.38988">
        <ele>525.1</ele>
        <time>2026-02-22T10:18:59Z</time>
      </trkpt>
      <trkpt lat="43.60185" lon="6.38988">
        <ele>525</ele>
        <time>2026-02-22T10:19:00Z</time>
      </trkpt>
      <trkpt lat="43.60185" lon="6.38988">
        <ele>525</ele>
        <time>2026-02-22T10:19:01Z</time>
      </trkpt>
      <trkpt lat="43.60185" lon="6.38988">
        <ele>525</ele>
        <time>2026-02-22T10:19:02Z</time>
      </trkpt>
      <trkpt lat="43.60185" lon="6.38988">
        <ele>525</ele>
        <time>2026-02-22T10:19:03Z</time>
      </trkpt>
      <trkpt lat="43.60186" lon="6.38988">
        <ele>525</ele>
        <time>2026-02-22T10:19:04Z</time>
      </trkpt>
      <trkpt lat="43.60186" lon="6.38988">
        <ele>525</ele>
        <time>2026-02-22T10:19:05Z</time>
      </trkpt>
      <trkpt lat="43.60186" lon="6.38988">
        <ele>525</ele>
        <time>2026-02-22T10:19:06Z</time>
      </trkpt>
      <trkpt lat="43.60185" lon="6.38988">
        <ele>525</ele>
        <time>2026-02-22T10:19:07Z</time>
      </trkpt>
      <trkpt lat="43.60185" lon="6.38988">
        <ele>525.1</ele>
        <time>2026-02-22T10:19:08Z</time>
      </trkpt>
      <trkpt lat="43.60185" lon="6.38988">
        <ele>525.1</ele>
        <time>2026-02-22T10:19:09Z</time>
      </trkpt>
      <trkpt lat="43.60185" lon="6.38988">
        <ele>525.1</ele>
        <time>2026-02-22T10:19:10Z</time>
      </trkpt>
      <trkpt lat="43.60185" lon="6.38988">
        <ele>525.1</ele>
        <time>2026-02-22T10:19:11Z</time>
      </trkpt>
      <trkpt lat="43.60185" lon="6.38988">
        <ele>525.1</ele>
        <time>2026-02-22T10:19:12Z</time>
      </trkpt>
      <trkpt lat="43.60185" lon="6.38988">
        <ele>525.1</ele>
        <time>2026-02-22T10:19:13Z</time>
      </trkpt>
      <trkpt lat="43.60184" lon="6.38988">
        <ele>525.1</ele>
        <time>2026-02-22T10:19:14Z</time>
      </trkpt>
      <trkpt lat="43.60185" lon="6.38988">
        <ele>525.1</ele>
        <time>2026-02-22T10:19:15Z</time>
      </trkpt>
      <trkpt lat="43.60184" lon="6.38988">
        <ele>525.1</ele>
        <time>2026-02-22T10:19:16Z</time>
      </trkpt>
      <trkpt lat="43.60185" lon="6.38988">
        <ele>525.1</ele>
        <time>2026-02-22T10:19:17Z</time>
      </trkpt>
      <trkpt lat="43.60185" lon="6.38987">
        <ele>525.1</ele>
        <time>2026-02-22T10:19:18Z</time>
      </trkpt>
      <trkpt lat="43.60185" lon="6.38988">
        <ele>525.2</ele>
        <time>2026-02-22T10:19:19Z</time>
      </trkpt>
      <trkpt lat="43.60185" lon="6.38988">
        <ele>525.2</ele>
        <time>2026-02-22T10:19:20Z</time>
      </trkpt>
      <trkpt lat="43.60185" lon="6.38988">
        <ele>525.3</ele>
        <time>2026-02-22T10:19:21Z</time>
      </trkpt>
      <trkpt lat="43.60185" lon="6.38988">
        <ele>525.3</ele>
        <time>2026-02-22T10:19:22Z</time>
      </trkpt>
      <trkpt lat="43.60185" lon="6.38988">
        <ele>525.3</ele>
        <time>2026-02-22T10:19:23Z</time>
      </trkpt>
      <trkpt lat="43.60185" lon="6.38988">
        <ele>525.3</ele>
        <time>2026-02-22T10:19:24Z</time>
      </trkpt>
      <trkpt lat="43.60185" lon="6.38988">
        <ele>525.3</ele>
        <time>2026-02-22T10:19:25Z</time>
      </trkpt>
      <trkpt lat="43.60185" lon="6.38988">
        <ele>525.3</ele>
        <time>2026-02-22T10:19:26Z</time>
      </trkpt>
      <trkpt lat="43.60185" lon="6.38989">
        <ele>525.3</ele>
        <time>2026-02-22T10:19:27Z</time>
      </trkpt>
      <trkpt lat="43.60185" lon="6.38989">
        <ele>525.3</ele>
        <time>2026-02-22T10:19:28Z</time>
      </trkpt>
      <trkpt lat="43.60185" lon="6.38989">
        <ele>525.3</ele>
        <time>2026-02-22T10:19:29Z</time>
      </trkpt>
      <trkpt lat="43.60185" lon="6.3899">
        <ele>525.2</ele>
        <time>2026-02-22T10:19:30Z</time>
      </trkpt>
      <trkpt lat="43.60185" lon="6.3899">
        <ele>525.2</ele>
        <time>2026-02-22T10:19:31Z</time>
      </trkpt>
      <trkpt lat="43.60186" lon="6.3899">
        <ele>525.2</ele>
        <time>2026-02-22T10:19:32Z</time>
      </trkpt>
      <trkpt lat="43.60186" lon="6.38991">
        <ele>525.1</ele>
        <time>2026-02-22T10:19:33Z</time>
      </trkpt>
      <trkpt lat="43.60186" lon="6.38991">
        <ele>525</ele>
        <time>2026-02-22T10:19:34Z</time>
      </trkpt>
      <trkpt lat="43.60187" lon="6.38992">
        <ele>524.9</ele>
        <time>2026-02-22T10:19:35Z</time>
      </trkpt>
      <trkpt lat="43.60187" lon="6.38992">
        <ele>524.9</ele>
        <time>2026-02-22T10:19:36Z</time>
      </trkpt>
      <trkpt lat="43.60189" lon="6.38991">
        <ele>524.7</ele>
        <time>2026-02-22T10:19:37Z</time>
      </trkpt>
      <trkpt lat="43.60189" lon="6.38991">
        <ele>524.6</ele>
        <time>2026-02-22T10:19:38Z</time>
      </trkpt>
      <trkpt lat="43.6019" lon="6.38991">
        <ele>524.6</ele>
        <time>2026-02-22T10:19:39Z</time>
      </trkpt>
      <trkpt lat="43.6019" lon="6.38991">
        <ele>524.6</ele>
        <time>2026-02-22T10:19:40Z</time>
      </trkpt>
      <trkpt lat="43.6019" lon="6.3899">
        <ele>524.6</ele>
        <time>2026-02-22T10:19:41Z</time>
      </trkpt>
      <trkpt lat="43.6019" lon="6.3899">
        <ele>524.5</ele>
        <time>2026-02-22T10:19:42Z</time>
      </trkpt>
      <trkpt lat="43.6019" lon="6.3899">
        <ele>524.5</ele>
        <time>2026-02-22T10:19:43Z</time>
      </trkpt>
      <trkpt lat="43.6019" lon="6.3899">
        <ele>524.5</ele>
        <time>2026-02-22T10:19:44Z</time>
      </trkpt>
      <trkpt lat="43.60191" lon="6.3899">
        <ele>524.5</ele>
        <time>2026-02-22T10:19:45Z</time>
      </trkpt>
      <trkpt lat="43.60191" lon="6.3899">
        <ele>524.5</ele>
        <time>2026-02-22T10:19:46Z</time>
      </trkpt>
      <trkpt lat="43.60191" lon="6.3899">
        <ele>524.5</ele>
        <time>2026-02-22T10:19:47Z</time>
      </trkpt>
      <trkpt lat="43.60191" lon="6.3899">
        <ele>524.5</ele>
        <time>2026-02-22T10:19:48Z</time>
      </trkpt>
      <trkpt lat="43.60192" lon="6.38989">
        <ele>524.5</ele>
        <time>2026-02-22T10:19:49Z</time>
      </trkpt>
      <trkpt lat="43.60192" lon="6.38989">
        <ele>524.5</ele>
        <time>2026-02-22T10:19:50Z</time>
      </trkpt>
      <trkpt lat="43.60192" lon="6.3899">
        <ele>524.4</ele>
        <time>2026-02-22T10:19:51Z</time>
      </trkpt>
      <trkpt lat="43.60192" lon="6.3899">
        <ele>524.4</ele>
        <time>2026-02-22T10:19:52Z</time>
      </trkpt>
      <trkpt lat="43.60192" lon="6.3899">
        <ele>524.4</ele>
        <time>2026-02-22T10:19:53Z</time>
      </trkpt>
      <trkpt lat="43.60192" lon="6.3899">
        <ele>524.4</ele>
        <time>2026-02-22T10:19:54Z</time>
      </trkpt>
      <trkpt lat="43.60192" lon="6.38989">
        <ele>524.4</ele>
        <time>2026-02-22T10:19:55Z</time>
      </trkpt>
      <trkpt lat="43.60192" lon="6.38989">
        <ele>524.5</ele>
        <time>2026-02-22T10:19:56Z</time>
      </trkpt>
      <trkpt lat="43.60193" lon="6.38989">
        <ele>524.5</ele>
        <time>2026-02-22T10:19:57Z</time>
      </trkpt>
      <trkpt lat="43.60193" lon="6.38989">
        <ele>524.5</ele>
        <time>2026-02-22T10:19:58Z</time>
      </trkpt>
      <trkpt lat="43.60193" lon="6.38989">
        <ele>524.6</ele>
        <time>2026-02-22T10:19:59Z</time>
      </trkpt>
      <trkpt lat="43.60193" lon="6.38989">
        <ele>524.7</ele>
        <time>2026-02-22T10:20:00Z</time>
      </trkpt>
      <trkpt lat="43.60193" lon="6.38989">
        <ele>524.7</ele>
        <time>2026-02-22T10:20:01Z</time>
      </trkpt>
      <trkpt lat="43.60193" lon="6.38989">
        <ele>524.7</ele>
        <time>2026-02-22T10:20:02Z</time>
      </trkpt>
      <trkpt lat="43.60193" lon="6.38989">
        <ele>524.8</ele>
        <time>2026-02-22T10:20:03Z</time>
      </trkpt>
      <trkpt lat="43.60193" lon="6.38989">
        <ele>524.8</ele>
        <time>2026-02-22T10:20:04Z</time>
      </trkpt>
      <trkpt lat="43.60193" lon="6.38989">
        <ele>524.7</ele>
        <time>2026-02-22T10:20:05Z</time>
      </trkpt>
      <trkpt lat="43.60193" lon="6.38989">
        <ele>524.7</ele>
        <time>2026-02-22T10:20:06Z</time>
      </trkpt>
      <trkpt lat="43.60193" lon="6.38989">
        <ele>524.7</ele>
        <time>2026-02-22T10:20:07Z</time>
      </trkpt>
      <trkpt lat="43.60193" lon="6.38989">
        <ele>524.7</ele>
        <time>2026-02-22T10:20:08Z</time>
      </trkpt>
      <trkpt lat="43.60193" lon="6.38989">
        <ele>524.6</ele>
        <time>2026-02-22T10:20:09Z</time>
      </trkpt>
      <trkpt lat="43.60193" lon="6.38989">
        <ele>524.7</ele>
        <time>2026-02-22T10:20:10Z</time>
      </trkpt>
      <trkpt lat="43.60193" lon="6.38989">
        <ele>524.7</ele>
        <time>2026-02-22T10:20:11Z</time>
      </trkpt>
      <trkpt lat="43.60193" lon="6.38989">
        <ele>524.7</ele>
        <time>2026-02-22T10:20:12Z</time>
      </trkpt>
      <trkpt lat="43.60193" lon="6.38989">
        <ele>524.8</ele>
        <time>2026-02-22T10:20:13Z</time>
      </trkpt>
      <trkpt lat="43.60193" lon="6.38989">
        <ele>524.8</ele>
        <time>2026-02-22T10:20:14Z</time>
      </trkpt>
      <trkpt lat="43.60193" lon="6.38989">
        <ele>524.8</ele>
        <time>2026-02-22T10:20:15Z</time>
      </trkpt>
      <trkpt lat="43.60193" lon="6.38989">
        <ele>524.8</ele>
        <time>2026-02-22T10:20:16Z</time>
      </trkpt>
      <trkpt lat="43.60194" lon="6.38989">
        <ele>524.9</ele>
        <time>2026-02-22T10:20:17Z</time>
      </trkpt>
      <trkpt lat="43.60194" lon="6.38989">
        <ele>524.9</ele>
        <time>2026-02-22T10:20:18Z</time>
      </trkpt>
      <trkpt lat="43.60194" lon="6.38989">
        <ele>524.8</ele>
        <time>2026-02-22T10:20:19Z</time>
      </trkpt>
      <trkpt lat="43.60194" lon="6.38989">
        <ele>524.8</ele>
        <time>2026-02-22T10:20:20Z</time>
      </trkpt>
      <trkpt lat="43.60194" lon="6.3899">
        <ele>524.7</ele>
        <time>2026-02-22T10:20:21Z</time>
      </trkpt>
      <trkpt lat="43.60194" lon="6.3899">
        <ele>524.7</ele>
        <time>2026-02-22T10:20:22Z</time>
      </trkpt>
      <trkpt lat="43.60194" lon="6.3899">
        <ele>524.7</ele>
        <time>2026-02-22T10:20:23Z</time>
      </trkpt>
      <trkpt lat="43.60194" lon="6.3899">
        <ele>524.7</ele>
        <time>2026-02-22T10:20:24Z</time>
      </trkpt>
      <trkpt lat="43.60194" lon="6.3899">
        <ele>524.7</ele>
        <time>2026-02-22T10:20:25Z</time>
      </trkpt>
      <trkpt lat="43.60194" lon="6.3899">
        <ele>524.8</ele>
        <time>2026-02-22T10:20:26Z</time>
      </trkpt>
      <trkpt lat="43.60194" lon="6.3899">
        <ele>524.8</ele>
        <time>2026-02-22T10:20:27Z</time>
      </trkpt>
      <trkpt lat="43.60194" lon="6.3899">
        <ele>524.8</ele>
        <time>2026-02-22T10:20:28Z</time>
      </trkpt>
      <trkpt lat="43.60194" lon="6.3899">
        <ele>524.9</ele>
        <time>2026-02-22T10:20:29Z</time>
      </trkpt>
      <trkpt lat="43.60194" lon="6.3899">
        <ele>524.9</ele>
        <time>2026-02-22T10:20:30Z</time>
      </trkpt>
      <trkpt lat="43.60194" lon="6.3899">
        <ele>525</ele>
        <time>2026-02-22T10:20:31Z</time>
      </trkpt>
      <trkpt lat="43.60194" lon="6.3899">
        <ele>525</ele>
        <time>2026-02-22T10:20:32Z</time>
      </trkpt>
      <trkpt lat="43.60194" lon="6.3899">
        <ele>525.1</ele>
        <time>2026-02-22T10:20:33Z</time>
      </trkpt>
      <trkpt lat="43.60194" lon="6.3899">
        <ele>525.1</ele>
        <time>2026-02-22T10:20:34Z</time>
      </trkpt>
      <trkpt lat="43.60194" lon="6.38989">
        <ele>525</ele>
        <time>2026-02-22T10:20:35Z</time>
      </trkpt>
      <trkpt lat="43.60194" lon="6.38989">
        <ele>525</ele>
        <time>2026-02-22T10:20:36Z</time>
      </trkpt>
      <trkpt lat="43.60194" lon="6.38989">
        <ele>525</ele>
        <time>2026-02-22T10:20:37Z</time>
      </trkpt>
      <trkpt lat="43.60194" lon="6.38989">
        <ele>525</ele>
        <time>2026-02-22T10:20:38Z</time>
      </trkpt>
      <trkpt lat="43.60194" lon="6.38989">
        <ele>525</ele>
        <time>2026-02-22T10:20:39Z</time>
      </trkpt>
      <trkpt lat="43.60194" lon="6.38989">
        <ele>524.9</ele>
        <time>2026-02-22T10:20:40Z</time>
      </trkpt>
      <trkpt lat="43.60194" lon="6.38989">
        <ele>524.9</ele>
        <time>2026-02-22T10:20:41Z</time>
      </trkpt>
      <trkpt lat="43.60194" lon="6.38989">
        <ele>524.8</ele>
        <time>2026-02-22T10:20:42Z</time>
      </trkpt>
      <trkpt lat="43.60194" lon="6.38989">
        <ele>524.9</ele>
        <time>2026-02-22T10:20:43Z</time>
      </trkpt>
      <trkpt lat="43.60194" lon="6.38989">
        <ele>524.9</ele>
        <time>2026-02-22T10:20:44Z</time>
      </trkpt>
      <trkpt lat="43.60194" lon="6.38989">
        <ele>524.9</ele>
        <time>2026-02-22T10:20:45Z</time>
      </trkpt>
      <trkpt lat="43.60194" lon="6.38989">
        <ele>524.9</ele>
        <time>2026-02-22T10:20:46Z</time>
      </trkpt>
      <trkpt lat="43.60194" lon="6.38989">
        <ele>524.9</ele>
        <time>2026-02-22T10:20:47Z</time>
      </trkpt>
      <trkpt lat="43.60194" lon="6.38989">
        <ele>524.9</ele>
        <time>2026-02-22T10:20:48Z</time>
      </trkpt>
      <trkpt lat="43.60194" lon="6.38988">
        <ele>524.9</ele>
        <time>2026-02-22T10:20:49Z</time>
      </trkpt>
      <trkpt lat="43.60194" lon="6.38988">
        <ele>524.9</ele>
        <time>2026-02-22T10:20:50Z</time>
      </trkpt>
      <trkpt lat="43.60194" lon="6.38988">
        <ele>524.9</ele>
        <time>2026-02-22T10:20:51Z</time>
      </trkpt>
      <trkpt lat="43.60194" lon="6.38988">
        <ele>524.9</ele>
        <time>2026-02-22T10:20:52Z</time>
      </trkpt>
      <trkpt lat="43.60194" lon="6.38988">
        <ele>524.9</ele>
        <time>2026-02-22T10:20:53Z</time>
      </trkpt>
      <trkpt lat="43.60194" lon="6.38988">
        <ele>524.9</ele>
        <time>2026-02-22T10:20:54Z</time>
      </trkpt>
      <trkpt lat="43.60194" lon="6.38989">
        <ele>524.9</ele>
        <time>2026-02-22T10:20:55Z</time>
      </trkpt>
      <trkpt lat="43.60194" lon="6.38989">
        <ele>524.9</ele>
        <time>2026-02-22T10:20:56Z</time>
      </trkpt>
      <trkpt lat="43.60194" lon="6.38989">
        <ele>524.8</ele>
        <time>2026-02-22T10:20:57Z</time>
      </trkpt>
      <trkpt lat="43.60194" lon="6.38989">
        <ele>524.8</ele>
        <time>2026-02-22T10:20:58Z</time>
      </trkpt>
      <trkpt lat="43.60194" lon="6.38989">
        <ele>524.8</ele>
        <time>2026-02-22T10:20:59Z</time>
      </trkpt>
      <trkpt lat="43.60194" lon="6.38989">
        <ele>524.9</ele>
        <time>2026-02-22T10:21:00Z</time>
      </trkpt>
      <trkpt lat="43.60194" lon="6.38989">
        <ele>524.9</ele>
        <time>2026-02-22T10:21:01Z</time>
      </trkpt>
      <trkpt lat="43.60194" lon="6.38989">
        <ele>524.9</ele>
        <time>2026-02-22T10:21:02Z</time>
      </trkpt>
      <trkpt lat="43.60194" lon="6.38989">
        <ele>524.9</ele>
        <time>2026-02-22T10:21:03Z</time>
      </trkpt>
      <trkpt lat="43.60194" lon="6.38989">
        <ele>524.9</ele>
        <time>2026-02-22T10:21:04Z</time>
      </trkpt>
      <trkpt lat="43.60194" lon="6.38989">
        <ele>524.9</ele>
        <time>2026-02-22T10:21:05Z</time>
      </trkpt>
      <trkpt lat="43.60194" lon="6.38989">
        <ele>524.8</ele>
        <time>2026-02-22T10:21:06Z</time>
      </trkpt>
      <trkpt lat="43.60194" lon="6.38989">
        <ele>524.8</ele>
        <time>2026-02-22T10:21:07Z</time>
      </trkpt>
      <trkpt lat="43.60194" lon="6.38989">
        <ele>524.7</ele>
        <time>2026-02-22T10:21:08Z</time>
      </trkpt>
      <trkpt lat="43.60194" lon="6.38989">
        <ele>524.8</ele>
        <time>2026-02-22T10:21:09Z</time>
      </trkpt>
      <trkpt lat="43.60194" lon="6.38989">
        <ele>524.8</ele>
        <time>2026-02-22T10:21:10Z</time>
      </trkpt>
      <trkpt lat="43.60194" lon="6.38989">
        <ele>524.9</ele>
        <time>2026-02-22T10:21:11Z</time>
      </trkpt>
      <trkpt lat="43.60194" lon="6.38989">
        <ele>524.8</ele>
        <time>2026-02-22T10:21:12Z</time>
      </trkpt>
      <trkpt lat="43.60194" lon="6.38989">
        <ele>524.8</ele>
        <time>2026-02-22T10:21:13Z</time>
      </trkpt>
      <trkpt lat="43.60194" lon="6.38989">
        <ele>524.8</ele>
        <time>2026-02-22T10:21:14Z</time>
      </trkpt>
      <trkpt lat="43.60194" lon="6.38989">
        <ele>524.8</ele>
        <time>2026-02-22T10:21:15Z</time>
      </trkpt>
      <trkpt lat="43.60195" lon="6.38989">
        <ele>524.7</ele>
        <time>2026-02-22T10:21:16Z</time>
      </trkpt>
      <trkpt lat="43.60195" lon="6.38989">
        <ele>524.7</ele>
        <time>2026-02-22T10:21:17Z</time>
      </trkpt>
      <trkpt lat="43.60195" lon="6.38989">
        <ele>524.7</ele>
        <time>2026-02-22T10:21:18Z</time>
      </trkpt>
      <trkpt lat="43.60194" lon="6.38989">
        <ele>524.7</ele>
        <time>2026-02-22T10:21:19Z</time>
      </trkpt>
      <trkpt lat="43.60194" lon="6.38988">
        <ele>524.7</ele>
        <time>2026-02-22T10:21:20Z</time>
      </trkpt>
      <trkpt lat="43.60194" lon="6.38988">
        <ele>524.7</ele>
        <time>2026-02-22T10:21:21Z</time>
      </trkpt>
      <trkpt lat="43.60194" lon="6.38988">
        <ele>524.7</ele>
        <time>2026-02-22T10:21:22Z</time>
      </trkpt>
      <trkpt lat="43.60195" lon="6.38988">
        <ele>524.7</ele>
        <time>2026-02-22T10:21:23Z</time>
      </trkpt>
      <trkpt lat="43.60195" lon="6.38988">
        <ele>524.7</ele>
        <time>2026-02-22T10:21:24Z</time>
      </trkpt>
      <trkpt lat="43.60195" lon="6.38988">
        <ele>524.7</ele>
        <time>2026-02-22T10:21:25Z</time>
      </trkpt>
      <trkpt lat="43.60195" lon="6.38988">
        <ele>524.7</ele>
        <time>2026-02-22T10:21:26Z</time>
      </trkpt>
      <trkpt lat="43.60195" lon="6.38988">
        <ele>524.6</ele>
        <time>2026-02-22T10:21:27Z</time>
      </trkpt>
      <trkpt lat="43.60195" lon="6.38988">
        <ele>524.5</ele>
        <time>2026-02-22T10:21:28Z</time>
      </trkpt>
      <trkpt lat="43.60195" lon="6.38988">
        <ele>524.5</ele>
        <time>2026-02-22T10:21:29Z</time>
      </trkpt>
      <trkpt lat="43.60195" lon="6.38989">
        <ele>524.4</ele>
        <time>2026-02-22T10:21:30Z</time>
      </trkpt>
      <trkpt lat="43.60195" lon="6.38989">
        <ele>524.4</ele>
        <time>2026-02-22T10:21:31Z</time>
      </trkpt>
      <trkpt lat="43.60195" lon="6.38989">
        <ele>524.5</ele>
        <time>2026-02-22T10:21:32Z</time>
      </trkpt>
      <trkpt lat="43.60195" lon="6.38989">
        <ele>524.5</ele>
        <time>2026-02-22T10:21:33Z</time>
      </trkpt>
      <trkpt lat="43.60195" lon="6.38989">
        <ele>524.5</ele>
        <time>2026-02-22T10:21:34Z</time>
      </trkpt>
      <trkpt lat="43.60195" lon="6.38989">
        <ele>524.5</ele>
        <time>2026-02-22T10:21:35Z</time>
      </trkpt>
      <trkpt lat="43.60195" lon="6.38989">
        <ele>524.5</ele>
        <time>2026-02-22T10:21:36Z</time>
      </trkpt>
      <trkpt lat="43.60195" lon="6.38989">
        <ele>524.6</ele>
        <time>2026-02-22T10:21:37Z</time>
      </trkpt>
      <trkpt lat="43.60195" lon="6.38989">
        <ele>524.6</ele>
        <time>2026-02-22T10:21:38Z</time>
      </trkpt>
      <trkpt lat="43.60195" lon="6.3899">
        <ele>524.6</ele>
        <time>2026-02-22T10:21:39Z</time>
      </trkpt>
      <trkpt lat="43.60195" lon="6.38991">
        <ele>524.6</ele>
        <time>2026-02-22T10:21:40Z</time>
      </trkpt>
      <trkpt lat="43.60194" lon="6.38991">
        <ele>524.7</ele>
        <time>2026-02-22T10:21:41Z</time>
      </trkpt>
      <trkpt lat="43.60194" lon="6.38991">
        <ele>524.7</ele>
        <time>2026-02-22T10:21:42Z</time>
      </trkpt>
      <trkpt lat="43.60195" lon="6.38991">
        <ele>524.6</ele>
        <time>2026-02-22T10:21:43Z</time>
      </trkpt>
      <trkpt lat="43.60196" lon="6.38991">
        <ele>524.5</ele>
        <time>2026-02-22T10:21:44Z</time>
      </trkpt>
      <trkpt lat="43.60196" lon="6.38991">
        <ele>524.4</ele>
        <time>2026-02-22T10:21:45Z</time>
      </trkpt>
      <trkpt lat="43.60197" lon="6.38992">
        <ele>524.4</ele>
        <time>2026-02-22T10:21:46Z</time>
      </trkpt>
      <trkpt lat="43.60197" lon="6.38991">
        <ele>524.3</ele>
        <time>2026-02-22T10:21:47Z</time>
      </trkpt>
      <trkpt lat="43.60197" lon="6.38991">
        <ele>524.2</ele>
        <time>2026-02-22T10:21:48Z</time>
      </trkpt>
      <trkpt lat="43.60197" lon="6.38991">
        <ele>524.2</ele>
        <time>2026-02-22T10:21:49Z</time>
      </trkpt>
      <trkpt lat="43.60197" lon="6.38991">
        <ele>524.1</ele>
        <time>2026-02-22T10:21:50Z</time>
      </trkpt>
      <trkpt lat="43.60197" lon="6.3899">
        <ele>524.1</ele>
        <time>2026-02-22T10:21:51Z</time>
      </trkpt>
      <trkpt lat="43.60197" lon="6.3899">
        <ele>524.1</ele>
        <time>2026-02-22T10:21:52Z</time>
      </trkpt>
      <trkpt lat="43.60197" lon="6.3899">
        <ele>524.1</ele>
        <time>2026-02-22T10:21:53Z</time>
      </trkpt>
      <trkpt lat="43.60198" lon="6.38991">
        <ele>524.2</ele>
        <time>2026-02-22T10:21:54Z</time>
      </trkpt>
      <trkpt lat="43.60198" lon="6.38991">
        <ele>524.2</ele>
        <time>2026-02-22T10:21:55Z</time>
      </trkpt>
      <trkpt lat="43.60198" lon="6.38991">
        <ele>524.2</ele>
        <time>2026-02-22T10:21:56Z</time>
      </trkpt>
      <trkpt lat="43.60198" lon="6.38991">
        <ele>524.2</ele>
        <time>2026-02-22T10:21:57Z</time>
      </trkpt>
      <trkpt lat="43.60197" lon="6.38991">
        <ele>524.3</ele>
        <time>2026-02-22T10:21:58Z</time>
      </trkpt>
      <trkpt lat="43.60198" lon="6.38992">
        <ele>524.3</ele>
        <time>2026-02-22T10:21:59Z</time>
      </trkpt>
      <trkpt lat="43.60198" lon="6.38992">
        <ele>524.3</ele>
        <time>2026-02-22T10:22:00Z</time>
      </trkpt>
      <trkpt lat="43.60198" lon="6.38992">
        <ele>524.3</ele>
        <time>2026-02-22T10:22:01Z</time>
      </trkpt>
      <trkpt lat="43.60199" lon="6.38992">
        <ele>524.4</ele>
        <time>2026-02-22T10:22:02Z</time>
      </trkpt>
      <trkpt lat="43.60199" lon="6.38992">
        <ele>524.4</ele>
        <time>2026-02-22T10:22:03Z</time>
      </trkpt>
      <trkpt lat="43.60199" lon="6.38992">
        <ele>524.5</ele>
        <time>2026-02-22T10:22:04Z</time>
      </trkpt>
      <trkpt lat="43.60199" lon="6.38992">
        <ele>524.5</ele>
        <time>2026-02-22T10:22:05Z</time>
      </trkpt>
      <trkpt lat="43.60199" lon="6.38993">
        <ele>524.5</ele>
        <time>2026-02-22T10:22:06Z</time>
      </trkpt>
      <trkpt lat="43.602" lon="6.38993">
        <ele>524.5</ele>
        <time>2026-02-22T10:22:07Z</time>
      </trkpt>
      <trkpt lat="43.602" lon="6.38993">
        <ele>524.5</ele>
        <time>2026-02-22T10:22:08Z</time>
      </trkpt>
      <trkpt lat="43.60201" lon="6.38994">
        <ele>524.4</ele>
        <time>2026-02-22T10:22:09Z</time>
      </trkpt>
      <trkpt lat="43.60202" lon="6.38994">
        <ele>524.4</ele>
        <time>2026-02-22T10:22:10Z</time>
      </trkpt>
      <trkpt lat="43.60202" lon="6.38995">
        <ele>524.4</ele>
        <time>2026-02-22T10:22:11Z</time>
      </trkpt>
      <trkpt lat="43.60202" lon="6.38995">
        <ele>524.5</ele>
        <time>2026-02-22T10:22:12Z</time>
      </trkpt>
      <trkpt lat="43.60202" lon="6.38996">
        <ele>524.5</ele>
        <time>2026-02-22T10:22:13Z</time>
      </trkpt>
      <trkpt lat="43.60203" lon="6.38996">
        <ele>524.5</ele>
        <time>2026-02-22T10:22:14Z</time>
      </trkpt>
      <trkpt lat="43.60203" lon="6.38997">
        <ele>524.4</ele>
        <time>2026-02-22T10:22:15Z</time>
      </trkpt>
      <trkpt lat="43.60204" lon="6.38997">
        <ele>524.4</ele>
        <time>2026-02-22T10:22:16Z</time>
      </trkpt>
      <trkpt lat="43.60205" lon="6.38998">
        <ele>524.3</ele>
        <time>2026-02-22T10:22:17Z</time>
      </trkpt>
      <trkpt lat="43.60205" lon="6.38998">
        <ele>524.2</ele>
        <time>2026-02-22T10:22:18Z</time>
      </trkpt>
      <trkpt lat="43.60206" lon="6.38999">
        <ele>524.1</ele>
        <time>2026-02-22T10:22:19Z</time>
      </trkpt>
      <trkpt lat="43.60206" lon="6.39">
        <ele>524.1</ele>
        <time>2026-02-22T10:22:20Z</time>
      </trkpt>
      <trkpt lat="43.60207" lon="6.39001">
        <ele>524</ele>
        <time>2026-02-22T10:22:21Z</time>
      </trkpt>
      <trkpt lat="43.60207" lon="6.39002">
        <ele>523.9</ele>
        <time>2026-02-22T10:22:22Z</time>
      </trkpt>
      <trkpt lat="43.60208" lon="6.39003">
        <ele>523.9</ele>
        <time>2026-02-22T10:22:23Z</time>
      </trkpt>
      <trkpt lat="43.60208" lon="6.39003">
        <ele>523.8</ele>
        <time>2026-02-22T10:22:24Z</time>
      </trkpt>
      <trkpt lat="43.60209" lon="6.39004">
        <ele>523.8</ele>
        <time>2026-02-22T10:22:25Z</time>
      </trkpt>
      <trkpt lat="43.6021" lon="6.39005">
        <ele>523.7</ele>
        <time>2026-02-22T10:22:26Z</time>
      </trkpt>
      <trkpt lat="43.6021" lon="6.39006">
        <ele>523.7</ele>
        <time>2026-02-22T10:22:27Z</time>
      </trkpt>
      <trkpt lat="43.60211" lon="6.39007">
        <ele>523.6</ele>
        <time>2026-02-22T10:22:28Z</time>
      </trkpt>
      <trkpt lat="43.60211" lon="6.39007">
        <ele>523.4</ele>
        <time>2026-02-22T10:22:29Z</time>
      </trkpt>
      <trkpt lat="43.60212" lon="6.39008">
        <ele>523.3</ele>
        <time>2026-02-22T10:22:30Z</time>
      </trkpt>
      <trkpt lat="43.60214" lon="6.39009">
        <ele>523.2</ele>
        <time>2026-02-22T10:22:31Z</time>
      </trkpt>
      <trkpt lat="43.60214" lon="6.39009">
        <ele>523.2</ele>
        <time>2026-02-22T10:22:32Z</time>
      </trkpt>
      <trkpt lat="43.60215" lon="6.39009">
        <ele>523.1</ele>
        <time>2026-02-22T10:22:33Z</time>
      </trkpt>
      <trkpt lat="43.60216" lon="6.3901">
        <ele>523.1</ele>
        <time>2026-02-22T10:22:34Z</time>
      </trkpt>
      <trkpt lat="43.60216" lon="6.3901">
        <ele>523</ele>
        <time>2026-02-22T10:22:35Z</time>
      </trkpt>
      <trkpt lat="43.60217" lon="6.39011">
        <ele>523</ele>
        <time>2026-02-22T10:22:36Z</time>
      </trkpt>
      <trkpt lat="43.60218" lon="6.39011">
        <ele>522.9</ele>
        <time>2026-02-22T10:22:37Z</time>
      </trkpt>
      <trkpt lat="43.60218" lon="6.39012">
        <ele>522.9</ele>
        <time>2026-02-22T10:22:38Z</time>
      </trkpt>
      <trkpt lat="43.60219" lon="6.39013">
        <ele>522.9</ele>
        <time>2026-02-22T10:22:39Z</time>
      </trkpt>
      <trkpt lat="43.60219" lon="6.39014">
        <ele>522.8</ele>
        <time>2026-02-22T10:22:40Z</time>
      </trkpt>
      <trkpt lat="43.6022" lon="6.39015">
        <ele>522.8</ele>
        <time>2026-02-22T10:22:41Z</time>
      </trkpt>
      <trkpt lat="43.60221" lon="6.39016">
        <ele>522.7</ele>
        <time>2026-02-22T10:22:42Z</time>
      </trkpt>
      <trkpt lat="43.60221" lon="6.39016">
        <ele>522.7</ele>
        <time>2026-02-22T10:22:43Z</time>
      </trkpt>
      <trkpt lat="43.60222" lon="6.39016">
        <ele>522.7</ele>
        <time>2026-02-22T10:22:44Z</time>
      </trkpt>
      <trkpt lat="43.60222" lon="6.39016">
        <ele>522.6</ele>
        <time>2026-02-22T10:22:45Z</time>
      </trkpt>
      <trkpt lat="43.60223" lon="6.39016">
        <ele>522.4</ele>
        <time>2026-02-22T10:22:46Z</time>
      </trkpt>
      <trkpt lat="43.60225" lon="6.39017">
        <ele>522.4</ele>
        <time>2026-02-22T10:22:47Z</time>
      </trkpt>
      <trkpt lat="43.60226" lon="6.39018">
        <ele>522.4</ele>
        <time>2026-02-22T10:22:48Z</time>
      </trkpt>
      <trkpt lat="43.60226" lon="6.39019">
        <ele>522.4</ele>
        <time>2026-02-22T10:22:49Z</time>
      </trkpt>
      <trkpt lat="43.60227" lon="6.39019">
        <ele>522.4</ele>
        <time>2026-02-22T10:22:50Z</time>
      </trkpt>
      <trkpt lat="43.60229" lon="6.39018">
        <ele>522.4</ele>
        <time>2026-02-22T10:22:51Z</time>
      </trkpt>
      <trkpt lat="43.60231" lon="6.39018">
        <ele>522.3</ele>
        <time>2026-02-22T10:22:52Z</time>
      </trkpt>
      <trkpt lat="43.60233" lon="6.39018">
        <ele>522.3</ele>
        <time>2026-02-22T10:22:53Z</time>
      </trkpt>
      <trkpt lat="43.60234" lon="6.39018">
        <ele>522.3</ele>
        <time>2026-02-22T10:22:54Z</time>
      </trkpt>
      <trkpt lat="43.60235" lon="6.39018">
        <ele>522.2</ele>
        <time>2026-02-22T10:22:55Z</time>
      </trkpt>
      <trkpt lat="43.60237" lon="6.39018">
        <ele>522.1</ele>
        <time>2026-02-22T10:22:56Z</time>
      </trkpt>
      <trkpt lat="43.60238" lon="6.39018">
        <ele>522.1</ele>
        <time>2026-02-22T10:22:57Z</time>
      </trkpt>
      <trkpt lat="43.60239" lon="6.39018">
        <ele>521.9</ele>
        <time>2026-02-22T10:22:58Z</time>
      </trkpt>
      <trkpt lat="43.6024" lon="6.39018">
        <ele>521.8</ele>
        <time>2026-02-22T10:22:59Z</time>
      </trkpt>
      <trkpt lat="43.60242" lon="6.39019">
        <ele>521.6</ele>
        <time>2026-02-22T10:23:00Z</time>
      </trkpt>
      <trkpt lat="43.60243" lon="6.3902">
        <ele>521.5</ele>
        <time>2026-02-22T10:23:01Z</time>
      </trkpt>
      <trkpt lat="43.60244" lon="6.3902">
        <ele>521.4</ele>
        <time>2026-02-22T10:23:02Z</time>
      </trkpt>
      <trkpt lat="43.60246" lon="6.3902">
        <ele>521.4</ele>
        <time>2026-02-22T10:23:03Z</time>
      </trkpt>
      <trkpt lat="43.60248" lon="6.39019">
        <ele>521.3</ele>
        <time>2026-02-22T10:23:04Z</time>
      </trkpt>
      <trkpt lat="43.60249" lon="6.39019">
        <ele>521.3</ele>
        <time>2026-02-22T10:23:05Z</time>
      </trkpt>
      <trkpt lat="43.6025" lon="6.39019">
        <ele>521.2</ele>
        <time>2026-02-22T10:23:06Z</time>
      </trkpt>
      <trkpt lat="43.60251" lon="6.39019">
        <ele>521.1</ele>
        <time>2026-02-22T10:23:07Z</time>
      </trkpt>
      <trkpt lat="43.60252" lon="6.39019">
        <ele>521.2</ele>
        <time>2026-02-22T10:23:08Z</time>
      </trkpt>
      <trkpt lat="43.60253" lon="6.39019">
        <ele>521.1</ele>
        <time>2026-02-22T10:23:09Z</time>
      </trkpt>
      <trkpt lat="43.60254" lon="6.39019">
        <ele>521</ele>
        <time>2026-02-22T10:23:10Z</time>
      </trkpt>
      <trkpt lat="43.60255" lon="6.39019">
        <ele>521</ele>
        <time>2026-02-22T10:23:11Z</time>
      </trkpt>
      <trkpt lat="43.60257" lon="6.39019">
        <ele>520.8</ele>
        <time>2026-02-22T10:23:12Z</time>
      </trkpt>
      <trkpt lat="43.60258" lon="6.39019">
        <ele>520.7</ele>
        <time>2026-02-22T10:23:13Z</time>
      </trkpt>
      <trkpt lat="43.60259" lon="6.39019">
        <ele>520.7</ele>
        <time>2026-02-22T10:23:14Z</time>
      </trkpt>
      <trkpt lat="43.6026" lon="6.39019">
        <ele>520.6</ele>
        <time>2026-02-22T10:23:15Z</time>
      </trkpt>
      <trkpt lat="43.60261" lon="6.39019">
        <ele>520.7</ele>
        <time>2026-02-22T10:23:16Z</time>
      </trkpt>
      <trkpt lat="43.60263" lon="6.39019">
        <ele>520.5</ele>
        <time>2026-02-22T10:23:17Z</time>
      </trkpt>
      <trkpt lat="43.60263" lon="6.39018">
        <ele>520.4</ele>
        <time>2026-02-22T10:23:18Z</time>
      </trkpt>
      <trkpt lat="43.60265" lon="6.39019">
        <ele>520.2</ele>
        <time>2026-02-22T10:23:19Z</time>
      </trkpt>
      <trkpt lat="43.60266" lon="6.39019">
        <ele>520.1</ele>
        <time>2026-02-22T10:23:20Z</time>
      </trkpt>
      <trkpt lat="43.60267" lon="6.39019">
        <ele>520</ele>
        <time>2026-02-22T10:23:21Z</time>
      </trkpt>
      <trkpt lat="43.60268" lon="6.39019">
        <ele>519.9</ele>
        <time>2026-02-22T10:23:22Z</time>
      </trkpt>
      <trkpt lat="43.60269" lon="6.3902">
        <ele>519.8</ele>
        <time>2026-02-22T10:23:23Z</time>
      </trkpt>
      <trkpt lat="43.60269" lon="6.3902">
        <ele>519.7</ele>
        <time>2026-02-22T10:23:24Z</time>
      </trkpt>
      <trkpt lat="43.6027" lon="6.39021">
        <ele>519.6</ele>
        <time>2026-02-22T10:23:25Z</time>
      </trkpt>
      <trkpt lat="43.6027" lon="6.39021">
        <ele>519.6</ele>
        <time>2026-02-22T10:23:26Z</time>
      </trkpt>
      <trkpt lat="43.60271" lon="6.39021">
        <ele>519.6</ele>
        <time>2026-02-22T10:23:27Z</time>
      </trkpt>
      <trkpt lat="43.60271" lon="6.39022">
        <ele>519.5</ele>
        <time>2026-02-22T10:23:28Z</time>
      </trkpt>
      <trkpt lat="43.60271" lon="6.39023">
        <ele>519.5</ele>
        <time>2026-02-22T10:23:29Z</time>
      </trkpt>
      <trkpt lat="43.60272" lon="6.39024">
        <ele>519.5</ele>
        <time>2026-02-22T10:23:30Z</time>
      </trkpt>
      <trkpt lat="43.60273" lon="6.39025">
        <ele>519.4</ele>
        <time>2026-02-22T10:23:31Z</time>
      </trkpt>
      <trkpt lat="43.60274" lon="6.39025">
        <ele>519.4</ele>
        <time>2026-02-22T10:23:32Z</time>
      </trkpt>
      <trkpt lat="43.60274" lon="6.39027">
        <ele>519.3</ele>
        <time>2026-02-22T10:23:33Z</time>
      </trkpt>
      <trkpt lat="43.60274" lon="6.39028">
        <ele>519.3</ele>
        <time>2026-02-22T10:23:34Z</time>
      </trkpt>
      <trkpt lat="43.60275" lon="6.39029">
        <ele>519.3</ele>
        <time>2026-02-22T10:23:35Z</time>
      </trkpt>
      <trkpt lat="43.60276" lon="6.3903">
        <ele>519.2</ele>
        <time>2026-02-22T10:23:36Z</time>
      </trkpt>
      <trkpt lat="43.60277" lon="6.3903">
        <ele>519.1</ele>
        <time>2026-02-22T10:23:37Z</time>
      </trkpt>
      <trkpt lat="43.60279" lon="6.3903">
        <ele>519.1</ele>
        <time>2026-02-22T10:23:38Z</time>
      </trkpt>
      <trkpt lat="43.60279" lon="6.39031">
        <ele>519.1</ele>
        <time>2026-02-22T10:23:39Z</time>
      </trkpt>
      <trkpt lat="43.60279" lon="6.39031">
        <ele>519</ele>
        <time>2026-02-22T10:23:40Z</time>
      </trkpt>
      <trkpt lat="43.60281" lon="6.39031">
        <ele>519</ele>
        <time>2026-02-22T10:23:41Z</time>
      </trkpt>
      <trkpt lat="43.60282" lon="6.39031">
        <ele>518.8</ele>
        <time>2026-02-22T10:23:42Z</time>
      </trkpt>
      <trkpt lat="43.60283" lon="6.39033">
        <ele>518.7</ele>
        <time>2026-02-22T10:23:43Z</time>
      </trkpt>
      <trkpt lat="43.60284" lon="6.39033">
        <ele>518.6</ele>
        <time>2026-02-22T10:23:44Z</time>
      </trkpt>
      <trkpt lat="43.60285" lon="6.39034">
        <ele>518.6</ele>
        <time>2026-02-22T10:23:45Z</time>
      </trkpt>
      <trkpt lat="43.60286" lon="6.39034">
        <ele>518.6</ele>
        <time>2026-02-22T10:23:46Z</time>
      </trkpt>
      <trkpt lat="43.60287" lon="6.39036">
        <ele>518.5</ele>
        <time>2026-02-22T10:23:47Z</time>
      </trkpt>
      <trkpt lat="43.60288" lon="6.39036">
        <ele>518.4</ele>
        <time>2026-02-22T10:23:48Z</time>
      </trkpt>
      <trkpt lat="43.60289" lon="6.39037">
        <ele>518.2</ele>
        <time>2026-02-22T10:23:49Z</time>
      </trkpt>
      <trkpt lat="43.6029" lon="6.39038">
        <ele>518.1</ele>
        <time>2026-02-22T10:23:50Z</time>
      </trkpt>
      <trkpt lat="43.6029" lon="6.39038">
        <ele>518</ele>
        <time>2026-02-22T10:23:51Z</time>
      </trkpt>
      <trkpt lat="43.60291" lon="6.39039">
        <ele>517.9</ele>
        <time>2026-02-22T10:23:52Z</time>
      </trkpt>
      <trkpt lat="43.60292" lon="6.39039">
        <ele>517.9</ele>
        <time>2026-02-22T10:23:53Z</time>
      </trkpt>
      <trkpt lat="43.60292" lon="6.3904">
        <ele>517.7</ele>
        <time>2026-02-22T10:23:54Z</time>
      </trkpt>
      <trkpt lat="43.60293" lon="6.39041">
        <ele>517.5</ele>
        <time>2026-02-22T10:23:55Z</time>
      </trkpt>
      <trkpt lat="43.60293" lon="6.39042">
        <ele>517.4</ele>
        <time>2026-02-22T10:23:56Z</time>
      </trkpt>
      <trkpt lat="43.60293" lon="6.39043">
        <ele>517.3</ele>
        <time>2026-02-22T10:23:57Z</time>
      </trkpt>
      <trkpt lat="43.60294" lon="6.39043">
        <ele>517.2</ele>
        <time>2026-02-22T10:23:58Z</time>
      </trkpt>
      <trkpt lat="43.60294" lon="6.39043">
        <ele>517.1</ele>
        <time>2026-02-22T10:23:59Z</time>
      </trkpt>
      <trkpt lat="43.60295" lon="6.39044">
        <ele>517</ele>
        <time>2026-02-22T10:24:00Z</time>
      </trkpt>
      <trkpt lat="43.60296" lon="6.39044">
        <ele>516.9</ele>
        <time>2026-02-22T10:24:01Z</time>
      </trkpt>
      <trkpt lat="43.60297" lon="6.39045">
        <ele>516.7</ele>
        <time>2026-02-22T10:24:02Z</time>
      </trkpt>
      <trkpt lat="43.60299" lon="6.39045">
        <ele>516.5</ele>
        <time>2026-02-22T10:24:03Z</time>
      </trkpt>
      <trkpt lat="43.603" lon="6.39045">
        <ele>516.4</ele>
        <time>2026-02-22T10:24:04Z</time>
      </trkpt>
      <trkpt lat="43.60299" lon="6.39046">
        <ele>516.4</ele>
        <time>2026-02-22T10:24:05Z</time>
      </trkpt>
      <trkpt lat="43.603" lon="6.39046">
        <ele>516.4</ele>
        <time>2026-02-22T10:24:06Z</time>
      </trkpt>
      <trkpt lat="43.60301" lon="6.39046">
        <ele>516.3</ele>
        <time>2026-02-22T10:24:07Z</time>
      </trkpt>
      <trkpt lat="43.60302" lon="6.39046">
        <ele>516.2</ele>
        <time>2026-02-22T10:24:08Z</time>
      </trkpt>
      <trkpt lat="43.60307" lon="6.39043">
        <ele>516.1</ele>
        <time>2026-02-22T10:24:09Z</time>
      </trkpt>
      <trkpt lat="43.60309" lon="6.39042">
        <ele>516.1</ele>
        <time>2026-02-22T10:24:10Z</time>
      </trkpt>
      <trkpt lat="43.60311" lon="6.39042">
        <ele>516</ele>
        <time>2026-02-22T10:24:11Z</time>
      </trkpt>
      <trkpt lat="43.60311" lon="6.39041">
        <ele>516.1</ele>
        <time>2026-02-22T10:24:12Z</time>
      </trkpt>
      <trkpt lat="43.60312" lon="6.39041">
        <ele>516.1</ele>
        <time>2026-02-22T10:24:13Z</time>
      </trkpt>
      <trkpt lat="43.60312" lon="6.3904">
        <ele>516.1</ele>
        <time>2026-02-22T10:24:14Z</time>
      </trkpt>
      <trkpt lat="43.60313" lon="6.3904">
        <ele>516</ele>
        <time>2026-02-22T10:24:15Z</time>
      </trkpt>
      <trkpt lat="43.60313" lon="6.3904">
        <ele>516</ele>
        <time>2026-02-22T10:24:16Z</time>
      </trkpt>
      <trkpt lat="43.60313" lon="6.39039">
        <ele>516</ele>
        <time>2026-02-22T10:24:17Z</time>
      </trkpt>
      <trkpt lat="43.60313" lon="6.39039">
        <ele>516</ele>
        <time>2026-02-22T10:24:18Z</time>
      </trkpt>
      <trkpt lat="43.60313" lon="6.3904">
        <ele>516</ele>
        <time>2026-02-22T10:24:19Z</time>
      </trkpt>
      <trkpt lat="43.60314" lon="6.3904">
        <ele>516</ele>
        <time>2026-02-22T10:24:20Z</time>
      </trkpt>
      <trkpt lat="43.60315" lon="6.39041">
        <ele>515.9</ele>
        <time>2026-02-22T10:24:21Z</time>
      </trkpt>
      <trkpt lat="43.60315" lon="6.3904">
        <ele>515.9</ele>
        <time>2026-02-22T10:24:22Z</time>
      </trkpt>
      <trkpt lat="43.60316" lon="6.39041">
        <ele>515.9</ele>
        <time>2026-02-22T10:24:23Z</time>
      </trkpt>
      <trkpt lat="43.60318" lon="6.39041">
        <ele>515.8</ele>
        <time>2026-02-22T10:24:24Z</time>
      </trkpt>
      <trkpt lat="43.60319" lon="6.39041">
        <ele>515.7</ele>
        <time>2026-02-22T10:24:25Z</time>
      </trkpt>
      <trkpt lat="43.60321" lon="6.39041">
        <ele>515.6</ele>
        <time>2026-02-22T10:24:26Z</time>
      </trkpt>
      <trkpt lat="43.60322" lon="6.39041">
        <ele>515.5</ele>
        <time>2026-02-22T10:24:27Z</time>
      </trkpt>
      <trkpt lat="43.60322" lon="6.39042">
        <ele>515.4</ele>
        <time>2026-02-22T10:24:28Z</time>
      </trkpt>
      <trkpt lat="43.60322" lon="6.39043">
        <ele>515.3</ele>
        <time>2026-02-22T10:24:29Z</time>
      </trkpt>
      <trkpt lat="43.60323" lon="6.39044">
        <ele>515.3</ele>
        <time>2026-02-22T10:24:30Z</time>
      </trkpt>
      <trkpt lat="43.60323" lon="6.39044">
        <ele>515.3</ele>
        <time>2026-02-22T10:24:31Z</time>
      </trkpt>
      <trkpt lat="43.60323" lon="6.39046">
        <ele>515.3</ele>
        <time>2026-02-22T10:24:32Z</time>
      </trkpt>
      <trkpt lat="43.60323" lon="6.39047">
        <ele>515.3</ele>
        <time>2026-02-22T10:24:33Z</time>
      </trkpt>
      <trkpt lat="43.60324" lon="6.39048">
        <ele>515.4</ele>
        <time>2026-02-22T10:24:34Z</time>
      </trkpt>
      <trkpt lat="43.60324" lon="6.39049">
        <ele>515.4</ele>
        <time>2026-02-22T10:24:35Z</time>
      </trkpt>
      <trkpt lat="43.60323" lon="6.39049">
        <ele>515.4</ele>
        <time>2026-02-22T10:24:36Z</time>
      </trkpt>
      <trkpt lat="43.60323" lon="6.39049">
        <ele>515.5</ele>
        <time>2026-02-22T10:24:37Z</time>
      </trkpt>
      <trkpt lat="43.60323" lon="6.3905">
        <ele>515.5</ele>
        <time>2026-02-22T10:24:38Z</time>
      </trkpt>
      <trkpt lat="43.60323" lon="6.39049">
        <ele>515.6</ele>
        <time>2026-02-22T10:24:39Z</time>
      </trkpt>
      <trkpt lat="43.60324" lon="6.39049">
        <ele>515.6</ele>
        <time>2026-02-22T10:24:40Z</time>
      </trkpt>
      <trkpt lat="43.60324" lon="6.39049">
        <ele>515.7</ele>
        <time>2026-02-22T10:24:41Z</time>
      </trkpt>
      <trkpt lat="43.60324" lon="6.39049">
        <ele>515.7</ele>
        <time>2026-02-22T10:24:42Z</time>
      </trkpt>
      <trkpt lat="43.60324" lon="6.39049">
        <ele>515.8</ele>
        <time>2026-02-22T10:24:43Z</time>
      </trkpt>
      <trkpt lat="43.60324" lon="6.39049">
        <ele>515.8</ele>
        <time>2026-02-22T10:24:44Z</time>
      </trkpt>
      <trkpt lat="43.60324" lon="6.39049">
        <ele>515.9</ele>
        <time>2026-02-22T10:24:45Z</time>
      </trkpt>
      <trkpt lat="43.60324" lon="6.39049">
        <ele>515.9</ele>
        <time>2026-02-22T10:24:46Z</time>
      </trkpt>
      <trkpt lat="43.60323" lon="6.39048">
        <ele>515.9</ele>
        <time>2026-02-22T10:24:47Z</time>
      </trkpt>
      <trkpt lat="43.60323" lon="6.39048">
        <ele>516</ele>
        <time>2026-02-22T10:24:48Z</time>
      </trkpt>
      <trkpt lat="43.60322" lon="6.39049">
        <ele>516</ele>
        <time>2026-02-22T10:24:49Z</time>
      </trkpt>
      <trkpt lat="43.60322" lon="6.39049">
        <ele>516.1</ele>
        <time>2026-02-22T10:24:50Z</time>
      </trkpt>
      <trkpt lat="43.60322" lon="6.3905">
        <ele>516.2</ele>
        <time>2026-02-22T10:24:51Z</time>
      </trkpt>
      <trkpt lat="43.60322" lon="6.3905">
        <ele>516.2</ele>
        <time>2026-02-22T10:24:52Z</time>
      </trkpt>
      <trkpt lat="43.60322" lon="6.3905">
        <ele>516.2</ele>
        <time>2026-02-22T10:24:53Z</time>
      </trkpt>
      <trkpt lat="43.60322" lon="6.3905">
        <ele>516.2</ele>
        <time>2026-02-22T10:24:54Z</time>
      </trkpt>
      <trkpt lat="43.60322" lon="6.3905">
        <ele>516.3</ele>
        <time>2026-02-22T10:24:55Z</time>
      </trkpt>
      <trkpt lat="43.60322" lon="6.39051">
        <ele>516.3</ele>
        <time>2026-02-22T10:24:56Z</time>
      </trkpt>
      <trkpt lat="43.60322" lon="6.39051">
        <ele>516.4</ele>
        <time>2026-02-22T10:24:57Z</time>
      </trkpt>
      <trkpt lat="43.60322" lon="6.39051">
        <ele>516.4</ele>
        <time>2026-02-22T10:24:58Z</time>
      </trkpt>
      <trkpt lat="43.60322" lon="6.39052">
        <ele>516.4</ele>
        <time>2026-02-22T10:24:59Z</time>
      </trkpt>
      <trkpt lat="43.60321" lon="6.39052">
        <ele>516.4</ele>
        <time>2026-02-22T10:25:00Z</time>
      </trkpt>
      <trkpt lat="43.60321" lon="6.39052">
        <ele>516.3</ele>
        <time>2026-02-22T10:25:01Z</time>
      </trkpt>
      <trkpt lat="43.60321" lon="6.39052">
        <ele>516.2</ele>
        <time>2026-02-22T10:25:02Z</time>
      </trkpt>
      <trkpt lat="43.6032" lon="6.39053">
        <ele>516.2</ele>
        <time>2026-02-22T10:25:03Z</time>
      </trkpt>
      <trkpt lat="43.60319" lon="6.39053">
        <ele>516.2</ele>
        <time>2026-02-22T10:25:04Z</time>
      </trkpt>
      <trkpt lat="43.60319" lon="6.39053">
        <ele>516.3</ele>
        <time>2026-02-22T10:25:05Z</time>
      </trkpt>
      <trkpt lat="43.60318" lon="6.39053">
        <ele>516.5</ele>
        <time>2026-02-22T10:25:06Z</time>
      </trkpt>
      <trkpt lat="43.60318" lon="6.39054">
        <ele>516.7</ele>
        <time>2026-02-22T10:25:07Z</time>
      </trkpt>
      <trkpt lat="43.60317" lon="6.39054">
        <ele>516.9</ele>
        <time>2026-02-22T10:25:08Z</time>
      </trkpt>
      <trkpt lat="43.60316" lon="6.39054">
        <ele>517.1</ele>
        <time>2026-02-22T10:25:09Z</time>
      </trkpt>
      <trkpt lat="43.60316" lon="6.39054">
        <ele>517.3</ele>
        <time>2026-02-22T10:25:10Z</time>
      </trkpt>
      <trkpt lat="43.60315" lon="6.39054">
        <ele>517.5</ele>
        <time>2026-02-22T10:25:11Z</time>
      </trkpt>
      <trkpt lat="43.60314" lon="6.39055">
        <ele>517.6</ele>
        <time>2026-02-22T10:25:12Z</time>
      </trkpt>
      <trkpt lat="43.60314" lon="6.39055">
        <ele>517.8</ele>
        <time>2026-02-22T10:25:13Z</time>
      </trkpt>
      <trkpt lat="43.60313" lon="6.39055">
        <ele>517.9</ele>
        <time>2026-02-22T10:25:14Z</time>
      </trkpt>
      <trkpt lat="43.60313" lon="6.39055">
        <ele>518</ele>
        <time>2026-02-22T10:25:15Z</time>
      </trkpt>
      <trkpt lat="43.60313" lon="6.39055">
        <ele>518.1</ele>
        <time>2026-02-22T10:25:16Z</time>
      </trkpt>
      <trkpt lat="43.60313" lon="6.39056">
        <ele>518.3</ele>
        <time>2026-02-22T10:25:17Z</time>
      </trkpt>
      <trkpt lat="43.60313" lon="6.39057">
        <ele>518.4</ele>
        <time>2026-02-22T10:25:18Z</time>
      </trkpt>
      <trkpt lat="43.60313" lon="6.39057">
        <ele>518.4</ele>
        <time>2026-02-22T10:25:19Z</time>
      </trkpt>
      <trkpt lat="43.60313" lon="6.39058">
        <ele>518.5</ele>
        <time>2026-02-22T10:25:20Z</time>
      </trkpt>
      <trkpt lat="43.60313" lon="6.39058">
        <ele>518.4</ele>
        <time>2026-02-22T10:25:21Z</time>
      </trkpt>
      <trkpt lat="43.60314" lon="6.39057">
        <ele>518.6</ele>
        <time>2026-02-22T10:25:22Z</time>
      </trkpt>
      <trkpt lat="43.60313" lon="6.39057">
        <ele>518.7</ele>
        <time>2026-02-22T10:25:23Z</time>
      </trkpt>
      <trkpt lat="43.60313" lon="6.39057">
        <ele>518.8</ele>
        <time>2026-02-22T10:25:24Z</time>
      </trkpt>
      <trkpt lat="43.60312" lon="6.39057">
        <ele>518.9</ele>
        <time>2026-02-22T10:25:25Z</time>
      </trkpt>
      <trkpt lat="43.60312" lon="6.39057">
        <ele>518.9</ele>
        <time>2026-02-22T10:25:26Z</time>
      </trkpt>
      <trkpt lat="43.60312" lon="6.39057">
        <ele>518.9</ele>
        <time>2026-02-22T10:25:27Z</time>
      </trkpt>
      <trkpt lat="43.60312" lon="6.39057">
        <ele>519</ele>
        <time>2026-02-22T10:25:28Z</time>
      </trkpt>
      <trkpt lat="43.60311" lon="6.39058">
        <ele>519.1</ele>
        <time>2026-02-22T10:25:29Z</time>
      </trkpt>
      <trkpt lat="43.60311" lon="6.39058">
        <ele>519.3</ele>
        <time>2026-02-22T10:25:30Z</time>
      </trkpt>
      <trkpt lat="43.6031" lon="6.39058">
        <ele>519.5</ele>
        <time>2026-02-22T10:25:31Z</time>
      </trkpt>
      <trkpt lat="43.6031" lon="6.39058">
        <ele>519.7</ele>
        <time>2026-02-22T10:25:32Z</time>
      </trkpt>
      <trkpt lat="43.60309" lon="6.39059">
        <ele>519.9</ele>
        <time>2026-02-22T10:25:33Z</time>
      </trkpt>
      <trkpt lat="43.60308" lon="6.39059">
        <ele>520</ele>
        <time>2026-02-22T10:25:34Z</time>
      </trkpt>
      <trkpt lat="43.60308" lon="6.3906">
        <ele>520.1</ele>
        <time>2026-02-22T10:25:35Z</time>
      </trkpt>
      <trkpt lat="43.60308" lon="6.3906">
        <ele>520.3</ele>
        <time>2026-02-22T10:25:36Z</time>
      </trkpt>
      <trkpt lat="43.60307" lon="6.3906">
        <ele>520.5</ele>
        <time>2026-02-22T10:25:37Z</time>
      </trkpt>
      <trkpt lat="43.60306" lon="6.39061">
        <ele>520.6</ele>
        <time>2026-02-22T10:25:38Z</time>
      </trkpt>
      <trkpt lat="43.60305" lon="6.39061">
        <ele>520.7</ele>
        <time>2026-02-22T10:25:39Z</time>
      </trkpt>
      <trkpt lat="43.60304" lon="6.39062">
        <ele>520.8</ele>
        <time>2026-02-22T10:25:40Z</time>
      </trkpt>
      <trkpt lat="43.60304" lon="6.39061">
        <ele>520.9</ele>
        <time>2026-02-22T10:25:41Z</time>
      </trkpt>
      <trkpt lat="43.60303" lon="6.39061">
        <ele>521</ele>
        <time>2026-02-22T10:25:42Z</time>
      </trkpt>
      <trkpt lat="43.60302" lon="6.39061">
        <ele>521.1</ele>
        <time>2026-02-22T10:25:43Z</time>
      </trkpt>
      <trkpt lat="43.60301" lon="6.39062">
        <ele>521.2</ele>
        <time>2026-02-22T10:25:44Z</time>
      </trkpt>
      <trkpt lat="43.60301" lon="6.39063">
        <ele>521.4</ele>
        <time>2026-02-22T10:25:45Z</time>
      </trkpt>
      <trkpt lat="43.603" lon="6.39065">
        <ele>521.6</ele>
        <time>2026-02-22T10:25:46Z</time>
      </trkpt>
      <trkpt lat="43.603" lon="6.39065">
        <ele>521.8</ele>
        <time>2026-02-22T10:25:47Z</time>
      </trkpt>
      <trkpt lat="43.60299" lon="6.39065">
        <ele>521.9</ele>
        <time>2026-02-22T10:25:48Z</time>
      </trkpt>
      <trkpt lat="43.60299" lon="6.39065">
        <ele>522.1</ele>
        <time>2026-02-22T10:25:49Z</time>
      </trkpt>
      <trkpt lat="43.60298" lon="6.39065">
        <ele>522.3</ele>
        <time>2026-02-22T10:25:50Z</time>
      </trkpt>
      <trkpt lat="43.60297" lon="6.39066">
        <ele>522.5</ele>
        <time>2026-02-22T10:25:51Z</time>
      </trkpt>
      <trkpt lat="43.60297" lon="6.39066">
        <ele>522.7</ele>
        <time>2026-02-22T10:25:52Z</time>
      </trkpt>
      <trkpt lat="43.60296" lon="6.39067">
        <ele>523</ele>
        <time>2026-02-22T10:25:53Z</time>
      </trkpt>
      <trkpt lat="43.60296" lon="6.39068">
        <ele>523.3</ele>
        <time>2026-02-22T10:25:54Z</time>
      </trkpt>
      <trkpt lat="43.60296" lon="6.39068">
        <ele>523.5</ele>
        <time>2026-02-22T10:25:55Z</time>
      </trkpt>
      <trkpt lat="43.60296" lon="6.39069">
        <ele>523.6</ele>
        <time>2026-02-22T10:25:56Z</time>
      </trkpt>
      <trkpt lat="43.60297" lon="6.39071">
        <ele>523.7</ele>
        <time>2026-02-22T10:25:57Z</time>
      </trkpt>
      <trkpt lat="43.60297" lon="6.39072">
        <ele>523.8</ele>
        <time>2026-02-22T10:25:58Z</time>
      </trkpt>
      <trkpt lat="43.60297" lon="6.39074">
        <ele>523.9</ele>
        <time>2026-02-22T10:25:59Z</time>
      </trkpt>
      <trkpt lat="43.60296" lon="6.39074">
        <ele>524.1</ele>
        <time>2026-02-22T10:26:00Z</time>
      </trkpt>
      <trkpt lat="43.60297" lon="6.39076">
        <ele>524.4</ele>
        <time>2026-02-22T10:26:01Z</time>
      </trkpt>
      <trkpt lat="43.60297" lon="6.39077">
        <ele>524.5</ele>
        <time>2026-02-22T10:26:02Z</time>
      </trkpt>
      <trkpt lat="43.60296" lon="6.39078">
        <ele>524.6</ele>
        <time>2026-02-22T10:26:03Z</time>
      </trkpt>
      <trkpt lat="43.60295" lon="6.39079">
        <ele>524.8</ele>
        <time>2026-02-22T10:26:04Z</time>
      </trkpt>
      <trkpt lat="43.60295" lon="6.39079">
        <ele>524.9</ele>
        <time>2026-02-22T10:26:05Z</time>
      </trkpt>
      <trkpt lat="43.60295" lon="6.3908">
        <ele>524.9</ele>
        <time>2026-02-22T10:26:06Z</time>
      </trkpt>
      <trkpt lat="43.60296" lon="6.39081">
        <ele>524.9</ele>
        <time>2026-02-22T10:26:07Z</time>
      </trkpt>
      <trkpt lat="43.60297" lon="6.39083">
        <ele>524.9</ele>
        <time>2026-02-22T10:26:08Z</time>
      </trkpt>
      <trkpt lat="43.60296" lon="6.39084">
        <ele>525</ele>
        <time>2026-02-22T10:26:09Z</time>
      </trkpt>
      <trkpt lat="43.60296" lon="6.39085">
        <ele>525.2</ele>
        <time>2026-02-22T10:26:10Z</time>
      </trkpt>
      <trkpt lat="43.60295" lon="6.39085">
        <ele>525.4</ele>
        <time>2026-02-22T10:26:11Z</time>
      </trkpt>
      <trkpt lat="43.60295" lon="6.39085">
        <ele>525.5</ele>
        <time>2026-02-22T10:26:12Z</time>
      </trkpt>
      <trkpt lat="43.60295" lon="6.39085">
        <ele>525.4</ele>
        <time>2026-02-22T10:26:13Z</time>
      </trkpt>
      <trkpt lat="43.60295" lon="6.39086">
        <ele>525.4</ele>
        <time>2026-02-22T10:26:14Z</time>
      </trkpt>
      <trkpt lat="43.60295" lon="6.39085">
        <ele>525.3</ele>
        <time>2026-02-22T10:26:15Z</time>
      </trkpt>
      <trkpt lat="43.60294" lon="6.39085">
        <ele>525.3</ele>
        <time>2026-02-22T10:26:16Z</time>
      </trkpt>
      <trkpt lat="43.60293" lon="6.39085">
        <ele>525.3</ele>
        <time>2026-02-22T10:26:17Z</time>
      </trkpt>
      <trkpt lat="43.60293" lon="6.39085">
        <ele>525.4</ele>
        <time>2026-02-22T10:26:18Z</time>
      </trkpt>
      <trkpt lat="43.60293" lon="6.39085">
        <ele>525.4</ele>
        <time>2026-02-22T10:26:19Z</time>
      </trkpt>
      <trkpt lat="43.60292" lon="6.39085">
        <ele>525.4</ele>
        <time>2026-02-22T10:26:20Z</time>
      </trkpt>
      <trkpt lat="43.60291" lon="6.39085">
        <ele>525.3</ele>
        <time>2026-02-22T10:26:21Z</time>
      </trkpt>
      <trkpt lat="43.60291" lon="6.39084">
        <ele>525.3</ele>
        <time>2026-02-22T10:26:22Z</time>
      </trkpt>
      <trkpt lat="43.6029" lon="6.39085">
        <ele>525.3</ele>
        <time>2026-02-22T10:26:23Z</time>
      </trkpt>
      <trkpt lat="43.60289" lon="6.39087">
        <ele>525.4</ele>
        <time>2026-02-22T10:26:24Z</time>
      </trkpt>
      <trkpt lat="43.60289" lon="6.39088">
        <ele>525.4</ele>
        <time>2026-02-22T10:26:25Z</time>
      </trkpt>
      <trkpt lat="43.60288" lon="6.3909">
        <ele>525.5</ele>
        <time>2026-02-22T10:26:26Z</time>
      </trkpt>
      <trkpt lat="43.60287" lon="6.3909">
        <ele>525.6</ele>
        <time>2026-02-22T10:26:27Z</time>
      </trkpt>
      <trkpt lat="43.60287" lon="6.3909">
        <ele>525.7</ele>
        <time>2026-02-22T10:26:28Z</time>
      </trkpt>
      <trkpt lat="43.60287" lon="6.3909">
        <ele>525.8</ele>
        <time>2026-02-22T10:26:29Z</time>
      </trkpt>
      <trkpt lat="43.60286" lon="6.3909">
        <ele>525.9</ele>
        <time>2026-02-22T10:26:30Z</time>
      </trkpt>
      <trkpt lat="43.60286" lon="6.3909">
        <ele>526.2</ele>
        <time>2026-02-22T10:26:31Z</time>
      </trkpt>
      <trkpt lat="43.60285" lon="6.3909">
        <ele>526.3</ele>
        <time>2026-02-22T10:26:32Z</time>
      </trkpt>
      <trkpt lat="43.60284" lon="6.3909">
        <ele>526.4</ele>
        <time>2026-02-22T10:26:33Z</time>
      </trkpt>
      <trkpt lat="43.60284" lon="6.39091">
        <ele>526.7</ele>
        <time>2026-02-22T10:26:34Z</time>
      </trkpt>
      <trkpt lat="43.60283" lon="6.39092">
        <ele>526.8</ele>
        <time>2026-02-22T10:26:35Z</time>
      </trkpt>
      <trkpt lat="43.60283" lon="6.39092">
        <ele>526.9</ele>
        <time>2026-02-22T10:26:36Z</time>
      </trkpt>
      <trkpt lat="43.60283" lon="6.39092">
        <ele>527</ele>
        <time>2026-02-22T10:26:37Z</time>
      </trkpt>
      <trkpt lat="43.60282" lon="6.39094">
        <ele>527.1</ele>
        <time>2026-02-22T10:26:38Z</time>
      </trkpt>
      <trkpt lat="43.60282" lon="6.39093">
        <ele>527.1</ele>
        <time>2026-02-22T10:26:39Z</time>
      </trkpt>
      <trkpt lat="43.60281" lon="6.39093">
        <ele>527.3</ele>
        <time>2026-02-22T10:26:40Z</time>
      </trkpt>
      <trkpt lat="43.6028" lon="6.39093">
        <ele>527.4</ele>
        <time>2026-02-22T10:26:41Z</time>
      </trkpt>
      <trkpt lat="43.60279" lon="6.39094">
        <ele>527.5</ele>
        <time>2026-02-22T10:26:42Z</time>
      </trkpt>
      <trkpt lat="43.60279" lon="6.39094">
        <ele>527.7</ele>
        <time>2026-02-22T10:26:43Z</time>
      </trkpt>
      <trkpt lat="43.60278" lon="6.39095">
        <ele>527.8</ele>
        <time>2026-02-22T10:26:44Z</time>
      </trkpt>
      <trkpt lat="43.60277" lon="6.39095">
        <ele>527.9</ele>
        <time>2026-02-22T10:26:45Z</time>
      </trkpt>
      <trkpt lat="43.60276" lon="6.39095">
        <ele>527.9</ele>
        <time>2026-02-22T10:26:46Z</time>
      </trkpt>
      <trkpt lat="43.60275" lon="6.39095">
        <ele>527.9</ele>
        <time>2026-02-22T10:26:47Z</time>
      </trkpt>
      <trkpt lat="43.60274" lon="6.39096">
        <ele>528.1</ele>
        <time>2026-02-22T10:26:48Z</time>
      </trkpt>
      <trkpt lat="43.60274" lon="6.39096">
        <ele>528.2</ele>
        <time>2026-02-22T10:26:49Z</time>
      </trkpt>
      <trkpt lat="43.60274" lon="6.39096">
        <ele>528.3</ele>
        <time>2026-02-22T10:26:50Z</time>
      </trkpt>
      <trkpt lat="43.60273" lon="6.39096">
        <ele>528.4</ele>
        <time>2026-02-22T10:26:51Z</time>
      </trkpt>
      <trkpt lat="43.60273" lon="6.39097">
        <ele>528.5</ele>
        <time>2026-02-22T10:26:52Z</time>
      </trkpt>
      <trkpt lat="43.60273" lon="6.39098">
        <ele>528.5</ele>
        <time>2026-02-22T10:26:53Z</time>
      </trkpt>
      <trkpt lat="43.60273" lon="6.39098">
        <ele>528.6</ele>
        <time>2026-02-22T10:26:54Z</time>
      </trkpt>
      <trkpt lat="43.60273" lon="6.39098">
        <ele>528.7</ele>
        <time>2026-02-22T10:26:55Z</time>
      </trkpt>
      <trkpt lat="43.60272" lon="6.39098">
        <ele>528.7</ele>
        <time>2026-02-22T10:26:56Z</time>
      </trkpt>
      <trkpt lat="43.60272" lon="6.39097">
        <ele>528.7</ele>
        <time>2026-02-22T10:26:57Z</time>
      </trkpt>
      <trkpt lat="43.60271" lon="6.39097">
        <ele>528.7</ele>
        <time>2026-02-22T10:26:58Z</time>
      </trkpt>
      <trkpt lat="43.60271" lon="6.39097">
        <ele>528.7</ele>
        <time>2026-02-22T10:26:59Z</time>
      </trkpt>
      <trkpt lat="43.6027" lon="6.39097">
        <ele>528.7</ele>
        <time>2026-02-22T10:27:00Z</time>
      </trkpt>
      <trkpt lat="43.6027" lon="6.39097">
        <ele>528.8</ele>
        <time>2026-02-22T10:27:01Z</time>
      </trkpt>
      <trkpt lat="43.60269" lon="6.39097">
        <ele>528.9</ele>
        <time>2026-02-22T10:27:02Z</time>
      </trkpt>
      <trkpt lat="43.60268" lon="6.39097">
        <ele>529</ele>
        <time>2026-02-22T10:27:03Z</time>
      </trkpt>
      <trkpt lat="43.60268" lon="6.39097">
        <ele>529.1</ele>
        <time>2026-02-22T10:27:04Z</time>
      </trkpt>
      <trkpt lat="43.60267" lon="6.39098">
        <ele>529.1</ele>
        <time>2026-02-22T10:27:05Z</time>
      </trkpt>
      <trkpt lat="43.60267" lon="6.39099">
        <ele>529.2</ele>
        <time>2026-02-22T10:27:06Z</time>
      </trkpt>
      <trkpt lat="43.60266" lon="6.39099">
        <ele>529.2</ele>
        <time>2026-02-22T10:27:07Z</time>
      </trkpt>
      <trkpt lat="43.60265" lon="6.39099">
        <ele>529.2</ele>
        <time>2026-02-22T10:27:08Z</time>
      </trkpt>
      <trkpt lat="43.60265" lon="6.39099">
        <ele>529.2</ele>
        <time>2026-02-22T10:27:09Z</time>
      </trkpt>
      <trkpt lat="43.60265" lon="6.39099">
        <ele>529.2</ele>
        <time>2026-02-22T10:27:10Z</time>
      </trkpt>
      <trkpt lat="43.60265" lon="6.39099">
        <ele>529.3</ele>
        <time>2026-02-22T10:27:11Z</time>
      </trkpt>
      <trkpt lat="43.60265" lon="6.39099">
        <ele>529.4</ele>
        <time>2026-02-22T10:27:12Z</time>
      </trkpt>
      <trkpt lat="43.60264" lon="6.39099">
        <ele>529.5</ele>
        <time>2026-02-22T10:27:13Z</time>
      </trkpt>
      <trkpt lat="43.60264" lon="6.39099">
        <ele>529.4</ele>
        <time>2026-02-22T10:27:14Z</time>
      </trkpt>
      <trkpt lat="43.60264" lon="6.391">
        <ele>529.4</ele>
        <time>2026-02-22T10:27:15Z</time>
      </trkpt>
      <trkpt lat="43.60264" lon="6.39102">
        <ele>529.4</ele>
        <time>2026-02-22T10:27:16Z</time>
      </trkpt>
      <trkpt lat="43.60264" lon="6.39102">
        <ele>529.4</ele>
        <time>2026-02-22T10:27:17Z</time>
      </trkpt>
      <trkpt lat="43.60264" lon="6.39103">
        <ele>529.4</ele>
        <time>2026-02-22T10:27:18Z</time>
      </trkpt>
      <trkpt lat="43.60263" lon="6.39104">
        <ele>529.4</ele>
        <time>2026-02-22T10:27:19Z</time>
      </trkpt>
      <trkpt lat="43.60263" lon="6.39105">
        <ele>529.4</ele>
        <time>2026-02-22T10:27:20Z</time>
      </trkpt>
      <trkpt lat="43.60263" lon="6.39105">
        <ele>529.4</ele>
        <time>2026-02-22T10:27:21Z</time>
      </trkpt>
      <trkpt lat="43.60263" lon="6.39106">
        <ele>529.4</ele>
        <time>2026-02-22T10:27:22Z</time>
      </trkpt>
      <trkpt lat="43.60262" lon="6.39106">
        <ele>529.5</ele>
        <time>2026-02-22T10:27:23Z</time>
      </trkpt>
      <trkpt lat="43.60262" lon="6.39107">
        <ele>529.4</ele>
        <time>2026-02-22T10:27:24Z</time>
      </trkpt>
      <trkpt lat="43.60262" lon="6.39107">
        <ele>529.4</ele>
        <time>2026-02-22T10:27:25Z</time>
      </trkpt>
      <trkpt lat="43.60262" lon="6.39107">
        <ele>529.4</ele>
        <time>2026-02-22T10:27:26Z</time>
      </trkpt>
      <trkpt lat="43.60262" lon="6.39108">
        <ele>529.4</ele>
        <time>2026-02-22T10:27:27Z</time>
      </trkpt>
      <trkpt lat="43.60262" lon="6.39108">
        <ele>529.5</ele>
        <time>2026-02-22T10:27:28Z</time>
      </trkpt>
      <trkpt lat="43.60262" lon="6.39108">
        <ele>529.6</ele>
        <time>2026-02-22T10:27:29Z</time>
      </trkpt>
      <trkpt lat="43.60262" lon="6.39108">
        <ele>529.7</ele>
        <time>2026-02-22T10:27:30Z</time>
      </trkpt>
      <trkpt lat="43.60262" lon="6.39107">
        <ele>529.5</ele>
        <time>2026-02-22T10:27:31Z</time>
      </trkpt>
      <trkpt lat="43.60262" lon="6.39108">
        <ele>529.5</ele>
        <time>2026-02-22T10:27:32Z</time>
      </trkpt>
      <trkpt lat="43.60261" lon="6.39108">
        <ele>529.5</ele>
        <time>2026-02-22T10:27:33Z</time>
      </trkpt>
      <trkpt lat="43.60261" lon="6.39108">
        <ele>529.4</ele>
        <time>2026-02-22T10:27:34Z</time>
      </trkpt>
      <trkpt lat="43.6026" lon="6.39109">
        <ele>529.3</ele>
        <time>2026-02-22T10:27:35Z</time>
      </trkpt>
      <trkpt lat="43.6026" lon="6.39109">
        <ele>529.3</ele>
        <time>2026-02-22T10:27:36Z</time>
      </trkpt>
      <trkpt lat="43.60259" lon="6.3911">
        <ele>529.4</ele>
        <time>2026-02-22T10:27:37Z</time>
      </trkpt>
      <trkpt lat="43.60258" lon="6.39109">
        <ele>529.4</ele>
        <time>2026-02-22T10:27:38Z</time>
      </trkpt>
      <trkpt lat="43.60258" lon="6.39109">
        <ele>529.4</ele>
        <time>2026-02-22T10:27:39Z</time>
      </trkpt>
      <trkpt lat="43.60257" lon="6.39109">
        <ele>529.5</ele>
        <time>2026-02-22T10:27:40Z</time>
      </trkpt>
      <trkpt lat="43.60257" lon="6.39109">
        <ele>529.5</ele>
        <time>2026-02-22T10:27:41Z</time>
      </trkpt>
      <trkpt lat="43.60256" lon="6.39109">
        <ele>529.5</ele>
        <time>2026-02-22T10:27:42Z</time>
      </trkpt>
      <trkpt lat="43.60255" lon="6.3911">
        <ele>529.5</ele>
        <time>2026-02-22T10:27:43Z</time>
      </trkpt>
      <trkpt lat="43.60255" lon="6.3911">
        <ele>529.6</ele>
        <time>2026-02-22T10:27:44Z</time>
      </trkpt>
      <trkpt lat="43.60255" lon="6.3911">
        <ele>529.8</ele>
        <time>2026-02-22T10:27:45Z</time>
      </trkpt>
      <trkpt lat="43.60255" lon="6.3911">
        <ele>529.8</ele>
        <time>2026-02-22T10:27:46Z</time>
      </trkpt>
      <trkpt lat="43.60254" lon="6.3911">
        <ele>529.9</ele>
        <time>2026-02-22T10:27:47Z</time>
      </trkpt>
      <trkpt lat="43.60254" lon="6.3911">
        <ele>529.8</ele>
        <time>2026-02-22T10:27:48Z</time>
      </trkpt>
      <trkpt lat="43.60254" lon="6.3911">
        <ele>529.7</ele>
        <time>2026-02-22T10:27:49Z</time>
      </trkpt>
      <trkpt lat="43.60254" lon="6.3911">
        <ele>529.6</ele>
        <time>2026-02-22T10:27:50Z</time>
      </trkpt>
      <trkpt lat="43.60253" lon="6.39109">
        <ele>529.6</ele>
        <time>2026-02-22T10:27:51Z</time>
      </trkpt>
      <trkpt lat="43.60253" lon="6.39109">
        <ele>529.6</ele>
        <time>2026-02-22T10:27:52Z</time>
      </trkpt>
      <trkpt lat="43.60253" lon="6.39109">
        <ele>529.6</ele>
        <time>2026-02-22T10:27:53Z</time>
      </trkpt>
      <trkpt lat="43.60253" lon="6.39109">
        <ele>529.6</ele>
        <time>2026-02-22T10:27:54Z</time>
      </trkpt>
      <trkpt lat="43.60253" lon="6.39109">
        <ele>529.6</ele>
        <time>2026-02-22T10:27:55Z</time>
      </trkpt>
      <trkpt lat="43.60253" lon="6.39109">
        <ele>529.5</ele>
        <time>2026-02-22T10:27:56Z</time>
      </trkpt>
      <trkpt lat="43.60252" lon="6.39109">
        <ele>529.6</ele>
        <time>2026-02-22T10:27:57Z</time>
      </trkpt>
      <trkpt lat="43.60252" lon="6.39108">
        <ele>529.6</ele>
        <time>2026-02-22T10:27:58Z</time>
      </trkpt>
      <trkpt lat="43.60252" lon="6.39108">
        <ele>529.5</ele>
        <time>2026-02-22T10:27:59Z</time>
      </trkpt>
      <trkpt lat="43.60252" lon="6.39108">
        <ele>529.6</ele>
        <time>2026-02-22T10:28:00Z</time>
      </trkpt>
      <trkpt lat="43.60252" lon="6.39108">
        <ele>529.5</ele>
        <time>2026-02-22T10:28:01Z</time>
      </trkpt>
      <trkpt lat="43.60252" lon="6.39108">
        <ele>529.4</ele>
        <time>2026-02-22T10:28:02Z</time>
      </trkpt>
      <trkpt lat="43.60252" lon="6.39108">
        <ele>529.4</ele>
        <time>2026-02-22T10:28:03Z</time>
      </trkpt>
      <trkpt lat="43.60251" lon="6.39108">
        <ele>529.4</ele>
        <time>2026-02-22T10:28:04Z</time>
      </trkpt>
      <trkpt lat="43.60252" lon="6.39107">
        <ele>529.4</ele>
        <time>2026-02-22T10:28:05Z</time>
      </trkpt>
      <trkpt lat="43.60251" lon="6.39107">
        <ele>529.5</ele>
        <time>2026-02-22T10:28:06Z</time>
      </trkpt>
      <trkpt lat="43.60251" lon="6.39108">
        <ele>529.4</ele>
        <time>2026-02-22T10:28:07Z</time>
      </trkpt>
      <trkpt lat="43.60251" lon="6.39108">
        <ele>529.4</ele>
        <time>2026-02-22T10:28:08Z</time>
      </trkpt>
      <trkpt lat="43.6025" lon="6.39108">
        <ele>529.4</ele>
        <time>2026-02-22T10:28:09Z</time>
      </trkpt>
      <trkpt lat="43.60249" lon="6.39108">
        <ele>529.6</ele>
        <time>2026-02-22T10:28:10Z</time>
      </trkpt>
      <trkpt lat="43.60249" lon="6.39108">
        <ele>529.7</ele>
        <time>2026-02-22T10:28:11Z</time>
      </trkpt>
      <trkpt lat="43.60248" lon="6.39108">
        <ele>529.8</ele>
        <time>2026-02-22T10:28:12Z</time>
      </trkpt>
      <trkpt lat="43.60247" lon="6.39107">
        <ele>529.8</ele>
        <time>2026-02-22T10:28:13Z</time>
      </trkpt>
      <trkpt lat="43.60246" lon="6.39108">
        <ele>529.9</ele>
        <time>2026-02-22T10:28:14Z</time>
      </trkpt>
      <trkpt lat="43.60245" lon="6.39108">
        <ele>529.9</ele>
        <time>2026-02-22T10:28:15Z</time>
      </trkpt>
      <trkpt lat="43.60244" lon="6.39108">
        <ele>530</ele>
        <time>2026-02-22T10:28:16Z</time>
      </trkpt>
      <trkpt lat="43.60243" lon="6.39108">
        <ele>530</ele>
        <time>2026-02-22T10:28:17Z</time>
      </trkpt>
      <trkpt lat="43.60242" lon="6.39108">
        <ele>530.1</ele>
        <time>2026-02-22T10:28:18Z</time>
      </trkpt>
      <trkpt lat="43.60242" lon="6.39108">
        <ele>530</ele>
        <time>2026-02-22T10:28:19Z</time>
      </trkpt>
      <trkpt lat="43.60241" lon="6.39108">
        <ele>530</ele>
        <time>2026-02-22T10:28:20Z</time>
      </trkpt>
      <trkpt lat="43.6024" lon="6.39107">
        <ele>529.9</ele>
        <time>2026-02-22T10:28:21Z</time>
      </trkpt>
      <trkpt lat="43.60239" lon="6.39107">
        <ele>530</ele>
        <time>2026-02-22T10:28:22Z</time>
      </trkpt>
      <trkpt lat="43.60238" lon="6.39108">
        <ele>530.1</ele>
        <time>2026-02-22T10:28:23Z</time>
      </trkpt>
      <trkpt lat="43.60238" lon="6.39107">
        <ele>530.2</ele>
        <time>2026-02-22T10:28:24Z</time>
      </trkpt>
      <trkpt lat="43.60237" lon="6.39106">
        <ele>530.2</ele>
        <time>2026-02-22T10:28:25Z</time>
      </trkpt>
      <trkpt lat="43.60236" lon="6.39105">
        <ele>530.3</ele>
        <time>2026-02-22T10:28:26Z</time>
      </trkpt>
      <trkpt lat="43.60235" lon="6.39105">
        <ele>530.4</ele>
        <time>2026-02-22T10:28:27Z</time>
      </trkpt>
      <trkpt lat="43.60234" lon="6.39105">
        <ele>530.5</ele>
        <time>2026-02-22T10:28:28Z</time>
      </trkpt>
      <trkpt lat="43.60233" lon="6.39105">
        <ele>530.5</ele>
        <time>2026-02-22T10:28:29Z</time>
      </trkpt>
      <trkpt lat="43.60232" lon="6.39105">
        <ele>530.7</ele>
        <time>2026-02-22T10:28:30Z</time>
      </trkpt>
      <trkpt lat="43.60231" lon="6.39105">
        <ele>530.8</ele>
        <time>2026-02-22T10:28:31Z</time>
      </trkpt>
      <trkpt lat="43.6023" lon="6.39105">
        <ele>530.9</ele>
        <time>2026-02-22T10:28:32Z</time>
      </trkpt>
      <trkpt lat="43.60229" lon="6.39104">
        <ele>530.9</ele>
        <time>2026-02-22T10:28:33Z</time>
      </trkpt>
      <trkpt lat="43.60228" lon="6.39104">
        <ele>531</ele>
        <time>2026-02-22T10:28:34Z</time>
      </trkpt>
      <trkpt lat="43.60228" lon="6.39105">
        <ele>530.9</ele>
        <time>2026-02-22T10:28:35Z</time>
      </trkpt>
      <trkpt lat="43.60227" lon="6.39105">
        <ele>530.9</ele>
        <time>2026-02-22T10:28:36Z</time>
      </trkpt>
      <trkpt lat="43.60226" lon="6.39105">
        <ele>530.8</ele>
        <time>2026-02-22T10:28:37Z</time>
      </trkpt>
      <trkpt lat="43.60226" lon="6.39105">
        <ele>530.8</ele>
        <time>2026-02-22T10:28:38Z</time>
      </trkpt>
      <trkpt lat="43.60226" lon="6.39105">
        <ele>530.9</ele>
        <time>2026-02-22T10:28:39Z</time>
      </trkpt>
      <trkpt lat="43.60225" lon="6.39104">
        <ele>530.9</ele>
        <time>2026-02-22T10:28:40Z</time>
      </trkpt>
      <trkpt lat="43.60224" lon="6.39104">
        <ele>530.9</ele>
        <time>2026-02-22T10:28:41Z</time>
      </trkpt>
      <trkpt lat="43.60223" lon="6.39104">
        <ele>530.8</ele>
        <time>2026-02-22T10:28:42Z</time>
      </trkpt>
      <trkpt lat="43.60222" lon="6.39104">
        <ele>530.7</ele>
        <time>2026-02-22T10:28:43Z</time>
      </trkpt>
      <trkpt lat="43.60221" lon="6.39104">
        <ele>530.7</ele>
        <time>2026-02-22T10:28:44Z</time>
      </trkpt>
      <trkpt lat="43.60221" lon="6.39104">
        <ele>530.6</ele>
        <time>2026-02-22T10:28:45Z</time>
      </trkpt>
      <trkpt lat="43.6022" lon="6.39104">
        <ele>530.6</ele>
        <time>2026-02-22T10:28:46Z</time>
      </trkpt>
      <trkpt lat="43.60219" lon="6.39105">
        <ele>530.6</ele>
        <time>2026-02-22T10:28:47Z</time>
      </trkpt>
      <trkpt lat="43.60218" lon="6.39104">
        <ele>530.6</ele>
        <time>2026-02-22T10:28:48Z</time>
      </trkpt>
      <trkpt lat="43.60217" lon="6.39104">
        <ele>530.6</ele>
        <time>2026-02-22T10:28:49Z</time>
      </trkpt>
      <trkpt lat="43.60216" lon="6.39104">
        <ele>530.6</ele>
        <time>2026-02-22T10:28:50Z</time>
      </trkpt>
      <trkpt lat="43.60215" lon="6.39103">
        <ele>530.5</ele>
        <time>2026-02-22T10:28:51Z</time>
      </trkpt>
      <trkpt lat="43.60213" lon="6.39103">
        <ele>530.5</ele>
        <time>2026-02-22T10:28:52Z</time>
      </trkpt>
      <trkpt lat="43.60212" lon="6.39103">
        <ele>530.5</ele>
        <time>2026-02-22T10:28:53Z</time>
      </trkpt>
      <trkpt lat="43.60211" lon="6.39103">
        <ele>530.5</ele>
        <time>2026-02-22T10:28:54Z</time>
      </trkpt>
      <trkpt lat="43.60209" lon="6.39103">
        <ele>530.5</ele>
        <time>2026-02-22T10:28:55Z</time>
      </trkpt>
      <trkpt lat="43.60208" lon="6.39103">
        <ele>530.4</ele>
        <time>2026-02-22T10:28:56Z</time>
      </trkpt>
      <trkpt lat="43.60208" lon="6.39103">
        <ele>530.4</ele>
        <time>2026-02-22T10:28:57Z</time>
      </trkpt>
      <trkpt lat="43.60208" lon="6.39104">
        <ele>530.4</ele>
        <time>2026-02-22T10:28:58Z</time>
      </trkpt>
      <trkpt lat="43.60207" lon="6.39104">
        <ele>530.4</ele>
        <time>2026-02-22T10:28:59Z</time>
      </trkpt>
      <trkpt lat="43.60206" lon="6.39104">
        <ele>530.4</ele>
        <time>2026-02-22T10:29:00Z</time>
      </trkpt>
      <trkpt lat="43.60205" lon="6.39104">
        <ele>530.3</ele>
        <time>2026-02-22T10:29:01Z</time>
      </trkpt>
      <trkpt lat="43.60204" lon="6.39104">
        <ele>530.3</ele>
        <time>2026-02-22T10:29:02Z</time>
      </trkpt>
      <trkpt lat="43.60202" lon="6.39104">
        <ele>530.2</ele>
        <time>2026-02-22T10:29:03Z</time>
      </trkpt>
      <trkpt lat="43.60202" lon="6.39104">
        <ele>530.2</ele>
        <time>2026-02-22T10:29:04Z</time>
      </trkpt>
      <trkpt lat="43.602" lon="6.39105">
        <ele>530.1</ele>
        <time>2026-02-22T10:29:05Z</time>
      </trkpt>
      <trkpt lat="43.602" lon="6.39105">
        <ele>530</ele>
        <time>2026-02-22T10:29:06Z</time>
      </trkpt>
      <trkpt lat="43.602" lon="6.39106">
        <ele>530</ele>
        <time>2026-02-22T10:29:07Z</time>
      </trkpt>
      <trkpt lat="43.60199" lon="6.39105">
        <ele>529.8</ele>
        <time>2026-02-22T10:29:08Z</time>
      </trkpt>
      <trkpt lat="43.60198" lon="6.39105">
        <ele>529.8</ele>
        <time>2026-02-22T10:29:09Z</time>
      </trkpt>
      <trkpt lat="43.60196" lon="6.39105">
        <ele>529.8</ele>
        <time>2026-02-22T10:29:10Z</time>
      </trkpt>
      <trkpt lat="43.60195" lon="6.39106">
        <ele>529.9</ele>
        <time>2026-02-22T10:29:11Z</time>
      </trkpt>
      <trkpt lat="43.60194" lon="6.39106">
        <ele>529.9</ele>
        <time>2026-02-22T10:29:12Z</time>
      </trkpt>
      <trkpt lat="43.60193" lon="6.39107">
        <ele>529.8</ele>
        <time>2026-02-22T10:29:13Z</time>
      </trkpt>
      <trkpt lat="43.60191" lon="6.39108">
        <ele>529.8</ele>
        <time>2026-02-22T10:29:14Z</time>
      </trkpt>
      <trkpt lat="43.6019" lon="6.39108">
        <ele>529.8</ele>
        <time>2026-02-22T10:29:15Z</time>
      </trkpt>
      <trkpt lat="43.60189" lon="6.39109">
        <ele>529.9</ele>
        <time>2026-02-22T10:29:16Z</time>
      </trkpt>
      <trkpt lat="43.60188" lon="6.39108">
        <ele>529.9</ele>
        <time>2026-02-22T10:29:17Z</time>
      </trkpt>
      <trkpt lat="43.60187" lon="6.39108">
        <ele>529.8</ele>
        <time>2026-02-22T10:29:18Z</time>
      </trkpt>
      <trkpt lat="43.60186" lon="6.39109">
        <ele>529.7</ele>
        <time>2026-02-22T10:29:19Z</time>
      </trkpt>
      <trkpt lat="43.60185" lon="6.39109">
        <ele>529.6</ele>
        <time>2026-02-22T10:29:20Z</time>
      </trkpt>
      <trkpt lat="43.60184" lon="6.39109">
        <ele>529.5</ele>
        <time>2026-02-22T10:29:21Z</time>
      </trkpt>
      <trkpt lat="43.60183" lon="6.39109">
        <ele>529.5</ele>
        <time>2026-02-22T10:29:22Z</time>
      </trkpt>
      <trkpt lat="43.60183" lon="6.39109">
        <ele>529.5</ele>
        <time>2026-02-22T10:29:23Z</time>
      </trkpt>
      <trkpt lat="43.60182" lon="6.39109">
        <ele>529.6</ele>
        <time>2026-02-22T10:29:24Z</time>
      </trkpt>
      <trkpt lat="43.60181" lon="6.39109">
        <ele>529.6</ele>
        <time>2026-02-22T10:29:25Z</time>
      </trkpt>
      <trkpt lat="43.60181" lon="6.39109">
        <ele>529.7</ele>
        <time>2026-02-22T10:29:26Z</time>
      </trkpt>
      <trkpt lat="43.6018" lon="6.39109">
        <ele>529.9</ele>
        <time>2026-02-22T10:29:27Z</time>
      </trkpt>
      <trkpt lat="43.60179" lon="6.39109">
        <ele>530</ele>
        <time>2026-02-22T10:29:28Z</time>
      </trkpt>
      <trkpt lat="43.60178" lon="6.39108">
        <ele>530</ele>
        <time>2026-02-22T10:29:29Z</time>
      </trkpt>
      <trkpt lat="43.60177" lon="6.39107">
        <ele>530.1</ele>
        <time>2026-02-22T10:29:30Z</time>
      </trkpt>
      <trkpt lat="43.60176" lon="6.39106">
        <ele>530.2</ele>
        <time>2026-02-22T10:29:31Z</time>
      </trkpt>
      <trkpt lat="43.60175" lon="6.39106">
        <ele>530.3</ele>
        <time>2026-02-22T10:29:32Z</time>
      </trkpt>
      <trkpt lat="43.60174" lon="6.39106">
        <ele>530.4</ele>
        <time>2026-02-22T10:29:33Z</time>
      </trkpt>
      <trkpt lat="43.60173" lon="6.39105">
        <ele>530.5</ele>
        <time>2026-02-22T10:29:34Z</time>
      </trkpt>
      <trkpt lat="43.60172" lon="6.39105">
        <ele>530.7</ele>
        <time>2026-02-22T10:29:35Z</time>
      </trkpt>
      <trkpt lat="43.60172" lon="6.39104">
        <ele>530.8</ele>
        <time>2026-02-22T10:29:36Z</time>
      </trkpt>
      <trkpt lat="43.6017" lon="6.39104">
        <ele>530.8</ele>
        <time>2026-02-22T10:29:37Z</time>
      </trkpt>
      <trkpt lat="43.6017" lon="6.39104">
        <ele>530.8</ele>
        <time>2026-02-22T10:29:38Z</time>
      </trkpt>
      <trkpt lat="43.60169" lon="6.39105">
        <ele>530.9</ele>
        <time>2026-02-22T10:29:39Z</time>
      </trkpt>
      <trkpt lat="43.60168" lon="6.39105">
        <ele>531</ele>
        <time>2026-02-22T10:29:40Z</time>
      </trkpt>
      <trkpt lat="43.60168" lon="6.39105">
        <ele>531.1</ele>
        <time>2026-02-22T10:29:41Z</time>
      </trkpt>
      <trkpt lat="43.60168" lon="6.39104">
        <ele>531.1</ele>
        <time>2026-02-22T10:29:42Z</time>
      </trkpt>
      <trkpt lat="43.60167" lon="6.39104">
        <ele>531.1</ele>
        <time>2026-02-22T10:29:43Z</time>
      </trkpt>
      <trkpt lat="43.60167" lon="6.39104">
        <ele>531.2</ele>
        <time>2026-02-22T10:29:44Z</time>
      </trkpt>
      <trkpt lat="43.60166" lon="6.39104">
        <ele>531.3</ele>
        <time>2026-02-22T10:29:45Z</time>
      </trkpt>
      <trkpt lat="43.60166" lon="6.39104">
        <ele>531.5</ele>
        <time>2026-02-22T10:29:46Z</time>
      </trkpt>
      <trkpt lat="43.60165" lon="6.39104">
        <ele>531.6</ele>
        <time>2026-02-22T10:29:47Z</time>
      </trkpt>
      <trkpt lat="43.60164" lon="6.39104">
        <ele>531.8</ele>
        <time>2026-02-22T10:29:48Z</time>
      </trkpt>
      <trkpt lat="43.60163" lon="6.39105">
        <ele>531.9</ele>
        <time>2026-02-22T10:29:49Z</time>
      </trkpt>
      <trkpt lat="43.60162" lon="6.39105">
        <ele>532</ele>
        <time>2026-02-22T10:29:50Z</time>
      </trkpt>
      <trkpt lat="43.60162" lon="6.39105">
        <ele>532</ele>
        <time>2026-02-22T10:29:51Z</time>
      </trkpt>
      <trkpt lat="43.60162" lon="6.39106">
        <ele>532</ele>
        <time>2026-02-22T10:29:52Z</time>
      </trkpt>
      <trkpt lat="43.60162" lon="6.39106">
        <ele>532</ele>
        <time>2026-02-22T10:29:53Z</time>
      </trkpt>
      <trkpt lat="43.60162" lon="6.39106">
        <ele>532</ele>
        <time>2026-02-22T10:29:54Z</time>
      </trkpt>
      <trkpt lat="43.60162" lon="6.39106">
        <ele>532</ele>
        <time>2026-02-22T10:29:55Z</time>
      </trkpt>
      <trkpt lat="43.60161" lon="6.39106">
        <ele>532</ele>
        <time>2026-02-22T10:29:56Z</time>
      </trkpt>
      <trkpt lat="43.60161" lon="6.39106">
        <ele>532</ele>
        <time>2026-02-22T10:29:57Z</time>
      </trkpt>
      <trkpt lat="43.6016" lon="6.39106">
        <ele>532.1</ele>
        <time>2026-02-22T10:29:58Z</time>
      </trkpt>
      <trkpt lat="43.6016" lon="6.39106">
        <ele>532.2</ele>
        <time>2026-02-22T10:29:59Z</time>
      </trkpt>
      <trkpt lat="43.60159" lon="6.39106">
        <ele>532.3</ele>
        <time>2026-02-22T10:30:00Z</time>
      </trkpt>
      <trkpt lat="43.60159" lon="6.39106">
        <ele>532.3</ele>
        <time>2026-02-22T10:30:01Z</time>
      </trkpt>
      <trkpt lat="43.60159" lon="6.39106">
        <ele>532.4</ele>
        <time>2026-02-22T10:30:02Z</time>
      </trkpt>
      <trkpt lat="43.60158" lon="6.39106">
        <ele>532.4</ele>
        <time>2026-02-22T10:30:03Z</time>
      </trkpt>
      <trkpt lat="43.60158" lon="6.39106">
        <ele>532.5</ele>
        <time>2026-02-22T10:30:04Z</time>
      </trkpt>
      <trkpt lat="43.60158" lon="6.39106">
        <ele>532.4</ele>
        <time>2026-02-22T10:30:05Z</time>
      </trkpt>
      <trkpt lat="43.60157" lon="6.39105">
        <ele>532.3</ele>
        <time>2026-02-22T10:30:06Z</time>
      </trkpt>
      <trkpt lat="43.60157" lon="6.39105">
        <ele>532.4</ele>
        <time>2026-02-22T10:30:07Z</time>
      </trkpt>
      <trkpt lat="43.60156" lon="6.39105">
        <ele>532.5</ele>
        <time>2026-02-22T10:30:08Z</time>
      </trkpt>
      <trkpt lat="43.60156" lon="6.39105">
        <ele>532.6</ele>
        <time>2026-02-22T10:30:09Z</time>
      </trkpt>
      <trkpt lat="43.60155" lon="6.39106">
        <ele>532.7</ele>
        <time>2026-02-22T10:30:10Z</time>
      </trkpt>
      <trkpt lat="43.60153" lon="6.39106">
        <ele>532.7</ele>
        <time>2026-02-22T10:30:11Z</time>
      </trkpt>
      <trkpt lat="43.60152" lon="6.39106">
        <ele>532.8</ele>
        <time>2026-02-22T10:30:12Z</time>
      </trkpt>
      <trkpt lat="43.60151" lon="6.39107">
        <ele>532.8</ele>
        <time>2026-02-22T10:30:13Z</time>
      </trkpt>
      <trkpt lat="43.6015" lon="6.39107">
        <ele>532.9</ele>
        <time>2026-02-22T10:30:14Z</time>
      </trkpt>
      <trkpt lat="43.60149" lon="6.39107">
        <ele>532.9</ele>
        <time>2026-02-22T10:30:15Z</time>
      </trkpt>
      <trkpt lat="43.60148" lon="6.39106">
        <ele>532.9</ele>
        <time>2026-02-22T10:30:16Z</time>
      </trkpt>
      <trkpt lat="43.60147" lon="6.39106">
        <ele>533.1</ele>
        <time>2026-02-22T10:30:17Z</time>
      </trkpt>
      <trkpt lat="43.60146" lon="6.39106">
        <ele>533.2</ele>
        <time>2026-02-22T10:30:18Z</time>
      </trkpt>
      <trkpt lat="43.60145" lon="6.39105">
        <ele>533.3</ele>
        <time>2026-02-22T10:30:19Z</time>
      </trkpt>
      <trkpt lat="43.60144" lon="6.39106">
        <ele>533.3</ele>
        <time>2026-02-22T10:30:20Z</time>
      </trkpt>
      <trkpt lat="43.60143" lon="6.39106">
        <ele>533.3</ele>
        <time>2026-02-22T10:30:21Z</time>
      </trkpt>
      <trkpt lat="43.60142" lon="6.39107">
        <ele>533.3</ele>
        <time>2026-02-22T10:30:22Z</time>
      </trkpt>
      <trkpt lat="43.60141" lon="6.39107">
        <ele>533.3</ele>
        <time>2026-02-22T10:30:23Z</time>
      </trkpt>
      <trkpt lat="43.6014" lon="6.39108">
        <ele>533.4</ele>
        <time>2026-02-22T10:30:24Z</time>
      </trkpt>
      <trkpt lat="43.60139" lon="6.39108">
        <ele>533.5</ele>
        <time>2026-02-22T10:30:25Z</time>
      </trkpt>
      <trkpt lat="43.60138" lon="6.39108">
        <ele>533.6</ele>
        <time>2026-02-22T10:30:26Z</time>
      </trkpt>
      <trkpt lat="43.60137" lon="6.39109">
        <ele>533.8</ele>
        <time>2026-02-22T10:30:27Z</time>
      </trkpt>
      <trkpt lat="43.60136" lon="6.39109">
        <ele>533.9</ele>
        <time>2026-02-22T10:30:28Z</time>
      </trkpt>
      <trkpt lat="43.60135" lon="6.39109">
        <ele>533.9</ele>
        <time>2026-02-22T10:30:29Z</time>
      </trkpt>
      <trkpt lat="43.60133" lon="6.39109">
        <ele>533.9</ele>
        <time>2026-02-22T10:30:30Z</time>
      </trkpt>
      <trkpt lat="43.60132" lon="6.3911">
        <ele>533.9</ele>
        <time>2026-02-22T10:30:31Z</time>
      </trkpt>
      <trkpt lat="43.60131" lon="6.39111">
        <ele>534</ele>
        <time>2026-02-22T10:30:32Z</time>
      </trkpt>
      <trkpt lat="43.6013" lon="6.39111">
        <ele>534</ele>
        <time>2026-02-22T10:30:33Z</time>
      </trkpt>
      <trkpt lat="43.60129" lon="6.39111">
        <ele>534</ele>
        <time>2026-02-22T10:30:34Z</time>
      </trkpt>
      <trkpt lat="43.60128" lon="6.39111">
        <ele>534.1</ele>
        <time>2026-02-22T10:30:35Z</time>
      </trkpt>
      <trkpt lat="43.60127" lon="6.39111">
        <ele>534.1</ele>
        <time>2026-02-22T10:30:36Z</time>
      </trkpt>
      <trkpt lat="43.60126" lon="6.39112">
        <ele>534.2</ele>
        <time>2026-02-22T10:30:37Z</time>
      </trkpt>
      <trkpt lat="43.60125" lon="6.39112">
        <ele>534.2</ele>
        <time>2026-02-22T10:30:38Z</time>
      </trkpt>
      <trkpt lat="43.60124" lon="6.39112">
        <ele>534.2</ele>
        <time>2026-02-22T10:30:39Z</time>
      </trkpt>
      <trkpt lat="43.60122" lon="6.39113">
        <ele>534.3</ele>
        <time>2026-02-22T10:30:40Z</time>
      </trkpt>
      <trkpt lat="43.60121" lon="6.39113">
        <ele>534.3</ele>
        <time>2026-02-22T10:30:41Z</time>
      </trkpt>
      <trkpt lat="43.6012" lon="6.39113">
        <ele>534.5</ele>
        <time>2026-02-22T10:30:42Z</time>
      </trkpt>
      <trkpt lat="43.60119" lon="6.39113">
        <ele>534.5</ele>
        <time>2026-02-22T10:30:43Z</time>
      </trkpt>
      <trkpt lat="43.60118" lon="6.39113">
        <ele>534.6</ele>
        <time>2026-02-22T10:30:44Z</time>
      </trkpt>
      <trkpt lat="43.60116" lon="6.39114">
        <ele>534.6</ele>
        <time>2026-02-22T10:30:45Z</time>
      </trkpt>
      <trkpt lat="43.60116" lon="6.39114">
        <ele>534.6</ele>
        <time>2026-02-22T10:30:46Z</time>
      </trkpt>
      <trkpt lat="43.60115" lon="6.39115">
        <ele>534.7</ele>
        <time>2026-02-22T10:30:47Z</time>
      </trkpt>
      <trkpt lat="43.60114" lon="6.39115">
        <ele>534.7</ele>
        <time>2026-02-22T10:30:48Z</time>
      </trkpt>
      <trkpt lat="43.60113" lon="6.39115">
        <ele>534.7</ele>
        <time>2026-02-22T10:30:49Z</time>
      </trkpt>
      <trkpt lat="43.60112" lon="6.39115">
        <ele>534.8</ele>
        <time>2026-02-22T10:30:50Z</time>
      </trkpt>
      <trkpt lat="43.60111" lon="6.39115">
        <ele>535</ele>
        <time>2026-02-22T10:30:51Z</time>
      </trkpt>
      <trkpt lat="43.6011" lon="6.39116">
        <ele>535.1</ele>
        <time>2026-02-22T10:30:52Z</time>
      </trkpt>
      <trkpt lat="43.60109" lon="6.39116">
        <ele>535.1</ele>
        <time>2026-02-22T10:30:53Z</time>
      </trkpt>
      <trkpt lat="43.60108" lon="6.39116">
        <ele>535.1</ele>
        <time>2026-02-22T10:30:54Z</time>
      </trkpt>
      <trkpt lat="43.60107" lon="6.39116">
        <ele>535.2</ele>
        <time>2026-02-22T10:30:55Z</time>
      </trkpt>
      <trkpt lat="43.60106" lon="6.39116">
        <ele>535.2</ele>
        <time>2026-02-22T10:30:56Z</time>
      </trkpt>
      <trkpt lat="43.60104" lon="6.39116">
        <ele>535.3</ele>
        <time>2026-02-22T10:30:57Z</time>
      </trkpt>
      <trkpt lat="43.60103" lon="6.39116">
        <ele>535.4</ele>
        <time>2026-02-22T10:30:58Z</time>
      </trkpt>
      <trkpt lat="43.60102" lon="6.39116">
        <ele>535.5</ele>
        <time>2026-02-22T10:30:59Z</time>
      </trkpt>
      <trkpt lat="43.60101" lon="6.39116">
        <ele>535.6</ele>
        <time>2026-02-22T10:31:00Z</time>
      </trkpt>
      <trkpt lat="43.601" lon="6.39116">
        <ele>535.7</ele>
        <time>2026-02-22T10:31:01Z</time>
      </trkpt>
      <trkpt lat="43.60099" lon="6.39116">
        <ele>535.8</ele>
        <time>2026-02-22T10:31:02Z</time>
      </trkpt>
      <trkpt lat="43.60099" lon="6.39116">
        <ele>535.7</ele>
        <time>2026-02-22T10:31:03Z</time>
      </trkpt>
      <trkpt lat="43.60097" lon="6.39116">
        <ele>535.8</ele>
        <time>2026-02-22T10:31:04Z</time>
      </trkpt>
      <trkpt lat="43.60096" lon="6.39116">
        <ele>535.8</ele>
        <time>2026-02-22T10:31:05Z</time>
      </trkpt>
      <trkpt lat="43.60095" lon="6.39116">
        <ele>535.9</ele>
        <time>2026-02-22T10:31:06Z</time>
      </trkpt>
      <trkpt lat="43.60094" lon="6.39116">
        <ele>535.9</ele>
        <time>2026-02-22T10:31:07Z</time>
      </trkpt>
      <trkpt lat="43.60094" lon="6.39116">
        <ele>535.8</ele>
        <time>2026-02-22T10:31:08Z</time>
      </trkpt>
      <trkpt lat="43.60093" lon="6.39116">
        <ele>535.8</ele>
        <time>2026-02-22T10:31:09Z</time>
      </trkpt>
      <trkpt lat="43.60092" lon="6.39116">
        <ele>535.8</ele>
        <time>2026-02-22T10:31:10Z</time>
      </trkpt>
      <trkpt lat="43.60091" lon="6.39116">
        <ele>535.8</ele>
        <time>2026-02-22T10:31:11Z</time>
      </trkpt>
      <trkpt lat="43.6009" lon="6.39115">
        <ele>535.7</ele>
        <time>2026-02-22T10:31:12Z</time>
      </trkpt>
      <trkpt lat="43.60089" lon="6.39115">
        <ele>535.7</ele>
        <time>2026-02-22T10:31:13Z</time>
      </trkpt>
      <trkpt lat="43.60088" lon="6.39115">
        <ele>535.8</ele>
        <time>2026-02-22T10:31:14Z</time>
      </trkpt>
      <trkpt lat="43.60087" lon="6.39115">
        <ele>535.9</ele>
        <time>2026-02-22T10:31:15Z</time>
      </trkpt>
      <trkpt lat="43.60086" lon="6.39115">
        <ele>535.9</ele>
        <time>2026-02-22T10:31:16Z</time>
      </trkpt>
      <trkpt lat="43.60085" lon="6.39115">
        <ele>536</ele>
        <time>2026-02-22T10:31:17Z</time>
      </trkpt>
      <trkpt lat="43.60085" lon="6.39115">
        <ele>536</ele>
        <time>2026-02-22T10:31:18Z</time>
      </trkpt>
      <trkpt lat="43.60083" lon="6.39115">
        <ele>536.2</ele>
        <time>2026-02-22T10:31:19Z</time>
      </trkpt>
      <trkpt lat="43.60082" lon="6.39115">
        <ele>536.2</ele>
        <time>2026-02-22T10:31:20Z</time>
      </trkpt>
      <trkpt lat="43.60081" lon="6.39114">
        <ele>536.3</ele>
        <time>2026-02-22T10:31:21Z</time>
      </trkpt>
      <trkpt lat="43.6008" lon="6.39115">
        <ele>536.4</ele>
        <time>2026-02-22T10:31:22Z</time>
      </trkpt>
      <trkpt lat="43.6008" lon="6.39115">
        <ele>536.4</ele>
        <time>2026-02-22T10:31:23Z</time>
      </trkpt>
      <trkpt lat="43.60078" lon="6.39115">
        <ele>536.5</ele>
        <time>2026-02-22T10:31:24Z</time>
      </trkpt>
      <trkpt lat="43.60077" lon="6.39114">
        <ele>536.6</ele>
        <time>2026-02-22T10:31:25Z</time>
      </trkpt>
      <trkpt lat="43.60076" lon="6.39114">
        <ele>536.7</ele>
        <time>2026-02-22T10:31:26Z</time>
      </trkpt>
      <trkpt lat="43.60075" lon="6.39114">
        <ele>536.8</ele>
        <time>2026-02-22T10:31:27Z</time>
      </trkpt>
      <trkpt lat="43.60075" lon="6.39114">
        <ele>536.9</ele>
        <time>2026-02-22T10:31:28Z</time>
      </trkpt>
      <trkpt lat="43.60074" lon="6.39113">
        <ele>537</ele>
        <time>2026-02-22T10:31:29Z</time>
      </trkpt>
      <trkpt lat="43.60074" lon="6.39115">
        <ele>537.1</ele>
        <time>2026-02-22T10:31:30Z</time>
      </trkpt>
      <trkpt lat="43.60074" lon="6.39115">
        <ele>537.1</ele>
        <time>2026-02-22T10:31:31Z</time>
      </trkpt>
      <trkpt lat="43.60074" lon="6.39115">
        <ele>537.2</ele>
        <time>2026-02-22T10:31:32Z</time>
      </trkpt>
      <trkpt lat="43.60074" lon="6.39116">
        <ele>537.2</ele>
        <time>2026-02-22T10:31:33Z</time>
      </trkpt>
      <trkpt lat="43.60074" lon="6.39116">
        <ele>537.3</ele>
        <time>2026-02-22T10:31:34Z</time>
      </trkpt>
      <trkpt lat="43.60074" lon="6.39116">
        <ele>537.3</ele>
        <time>2026-02-22T10:31:35Z</time>
      </trkpt>
      <trkpt lat="43.60075" lon="6.39117">
        <ele>537.3</ele>
        <time>2026-02-22T10:31:36Z</time>
      </trkpt>
      <trkpt lat="43.60075" lon="6.39117">
        <ele>537.3</ele>
        <time>2026-02-22T10:31:37Z</time>
      </trkpt>
      <trkpt lat="43.60075" lon="6.39117">
        <ele>537.3</ele>
        <time>2026-02-22T10:31:38Z</time>
      </trkpt>
      <trkpt lat="43.60075" lon="6.39117">
        <ele>537.3</ele>
        <time>2026-02-22T10:31:39Z</time>
      </trkpt>
      <trkpt lat="43.60074" lon="6.39117">
        <ele>537.3</ele>
        <time>2026-02-22T10:31:40Z</time>
      </trkpt>
      <trkpt lat="43.60074" lon="6.39117">
        <ele>537.3</ele>
        <time>2026-02-22T10:31:41Z</time>
      </trkpt>
      <trkpt lat="43.60074" lon="6.39117">
        <ele>537.3</ele>
        <time>2026-02-22T10:31:42Z</time>
      </trkpt>
      <trkpt lat="43.60074" lon="6.39117">
        <ele>537.3</ele>
        <time>2026-02-22T10:31:43Z</time>
      </trkpt>
      <trkpt lat="43.60074" lon="6.39117">
        <ele>537.3</ele>
        <time>2026-02-22T10:31:44Z</time>
      </trkpt>
      <trkpt lat="43.60074" lon="6.39117">
        <ele>537.2</ele>
        <time>2026-02-22T10:31:45Z</time>
      </trkpt>
      <trkpt lat="43.60074" lon="6.39118">
        <ele>537.2</ele>
        <time>2026-02-22T10:31:46Z</time>
      </trkpt>
      <trkpt lat="43.60074" lon="6.39118">
        <ele>537.1</ele>
        <time>2026-02-22T10:31:47Z</time>
      </trkpt>
      <trkpt lat="43.60073" lon="6.39118">
        <ele>537.1</ele>
        <time>2026-02-22T10:31:48Z</time>
      </trkpt>
      <trkpt lat="43.60073" lon="6.39118">
        <ele>537.1</ele>
        <time>2026-02-22T10:31:49Z</time>
      </trkpt>
      <trkpt lat="43.60073" lon="6.39118">
        <ele>537.2</ele>
        <time>2026-02-22T10:31:50Z</time>
      </trkpt>
      <trkpt lat="43.60073" lon="6.39118">
        <ele>537.2</ele>
        <time>2026-02-22T10:31:51Z</time>
      </trkpt>
      <trkpt lat="43.60073" lon="6.39118">
        <ele>537.2</ele>
        <time>2026-02-22T10:31:52Z</time>
      </trkpt>
      <trkpt lat="43.60073" lon="6.39118">
        <ele>537.2</ele>
        <time>2026-02-22T10:31:53Z</time>
      </trkpt>
      <trkpt lat="43.60073" lon="6.39118">
        <ele>537.2</ele>
        <time>2026-02-22T10:31:54Z</time>
      </trkpt>
      <trkpt lat="43.60073" lon="6.39119">
        <ele>537.2</ele>
        <time>2026-02-22T10:31:55Z</time>
      </trkpt>
      <trkpt lat="43.60073" lon="6.39119">
        <ele>537.2</ele>
        <time>2026-02-22T10:31:56Z</time>
      </trkpt>
      <trkpt lat="43.60073" lon="6.39119">
        <ele>537.3</ele>
        <time>2026-02-22T10:31:57Z</time>
      </trkpt>
      <trkpt lat="43.60073" lon="6.39119">
        <ele>537.2</ele>
        <time>2026-02-22T10:31:58Z</time>
      </trkpt>
      <trkpt lat="43.60073" lon="6.39119">
        <ele>537.2</ele>
        <time>2026-02-22T10:31:59Z</time>
      </trkpt>
      <trkpt lat="43.60073" lon="6.39119">
        <ele>537.3</ele>
        <time>2026-02-22T10:32:00Z</time>
      </trkpt>
      <trkpt lat="43.60073" lon="6.39119">
        <ele>537.4</ele>
        <time>2026-02-22T10:32:01Z</time>
      </trkpt>
      <trkpt lat="43.60073" lon="6.39119">
        <ele>537.4</ele>
        <time>2026-02-22T10:32:02Z</time>
      </trkpt>
      <trkpt lat="43.60073" lon="6.39119">
        <ele>537.4</ele>
        <time>2026-02-22T10:32:03Z</time>
      </trkpt>
      <trkpt lat="43.60073" lon="6.39119">
        <ele>537.3</ele>
        <time>2026-02-22T10:32:04Z</time>
      </trkpt>
      <trkpt lat="43.60073" lon="6.39119">
        <ele>537.4</ele>
        <time>2026-02-22T10:32:05Z</time>
      </trkpt>
      <trkpt lat="43.60073" lon="6.39119">
        <ele>537.4</ele>
        <time>2026-02-22T10:32:06Z</time>
      </trkpt>
      <trkpt lat="43.60073" lon="6.39119">
        <ele>537.4</ele>
        <time>2026-02-22T10:32:07Z</time>
      </trkpt>
      <trkpt lat="43.60073" lon="6.3912">
        <ele>537.5</ele>
        <time>2026-02-22T10:32:08Z</time>
      </trkpt>
      <trkpt lat="43.60073" lon="6.3912">
        <ele>537.5</ele>
        <time>2026-02-22T10:32:09Z</time>
      </trkpt>
      <trkpt lat="43.60073" lon="6.3912">
        <ele>537.5</ele>
        <time>2026-02-22T10:32:10Z</time>
      </trkpt>
      <trkpt lat="43.60073" lon="6.3912">
        <ele>537.5</ele>
        <time>2026-02-22T10:32:11Z</time>
      </trkpt>
      <trkpt lat="43.60073" lon="6.3912">
        <ele>537.5</ele>
        <time>2026-02-22T10:32:12Z</time>
      </trkpt>
      <trkpt lat="43.60073" lon="6.3912">
        <ele>537.5</ele>
        <time>2026-02-22T10:32:13Z</time>
      </trkpt>
      <trkpt lat="43.60073" lon="6.3912">
        <ele>537.5</ele>
        <time>2026-02-22T10:32:14Z</time>
      </trkpt>
      <trkpt lat="43.60073" lon="6.3912">
        <ele>537.5</ele>
        <time>2026-02-22T10:32:15Z</time>
      </trkpt>
      <trkpt lat="43.60073" lon="6.3912">
        <ele>537.5</ele>
        <time>2026-02-22T10:32:16Z</time>
      </trkpt>
      <trkpt lat="43.60073" lon="6.3912">
        <ele>537.5</ele>
        <time>2026-02-22T10:32:17Z</time>
      </trkpt>
      <trkpt lat="43.60073" lon="6.3912">
        <ele>537.4</ele>
        <time>2026-02-22T10:32:18Z</time>
      </trkpt>
      <trkpt lat="43.60073" lon="6.3912">
        <ele>537.4</ele>
        <time>2026-02-22T10:32:19Z</time>
      </trkpt>
      <trkpt lat="43.60073" lon="6.3912">
        <ele>537.5</ele>
        <time>2026-02-22T10:32:20Z</time>
      </trkpt>
      <trkpt lat="43.60073" lon="6.3912">
        <ele>537.5</ele>
        <time>2026-02-22T10:32:21Z</time>
      </trkpt>
      <trkpt lat="43.60073" lon="6.3912">
        <ele>537.6</ele>
        <time>2026-02-22T10:32:22Z</time>
      </trkpt>
      <trkpt lat="43.60073" lon="6.3912">
        <ele>537.5</ele>
        <time>2026-02-22T10:32:23Z</time>
      </trkpt>
      <trkpt lat="43.60073" lon="6.3912">
        <ele>537.5</ele>
        <time>2026-02-22T10:32:24Z</time>
      </trkpt>
      <trkpt lat="43.60073" lon="6.3912">
        <ele>537.5</ele>
        <time>2026-02-22T10:32:25Z</time>
      </trkpt>
      <trkpt lat="43.60073" lon="6.39121">
        <ele>537.6</ele>
        <time>2026-02-22T10:32:26Z</time>
      </trkpt>
      <trkpt lat="43.60072" lon="6.39121">
        <ele>537.6</ele>
        <time>2026-02-22T10:32:27Z</time>
      </trkpt>
      <trkpt lat="43.60071" lon="6.39121">
        <ele>537.7</ele>
        <time>2026-02-22T10:32:28Z</time>
      </trkpt>
      <trkpt lat="43.6007" lon="6.39122">
        <ele>537.8</ele>
        <time>2026-02-22T10:32:29Z</time>
      </trkpt>
      <trkpt lat="43.60069" lon="6.39123">
        <ele>537.8</ele>
        <time>2026-02-22T10:32:30Z</time>
      </trkpt>
      <trkpt lat="43.60068" lon="6.39124">
        <ele>537.8</ele>
        <time>2026-02-22T10:32:31Z</time>
      </trkpt>
      <trkpt lat="43.60067" lon="6.39126">
        <ele>537.7</ele>
        <time>2026-02-22T10:32:32Z</time>
      </trkpt>
      <trkpt lat="43.60066" lon="6.39126">
        <ele>537.7</ele>
        <time>2026-02-22T10:32:33Z</time>
      </trkpt>
      <trkpt lat="43.60066" lon="6.39128">
        <ele>537.6</ele>
        <time>2026-02-22T10:32:34Z</time>
      </trkpt>
      <trkpt lat="43.60066" lon="6.39129">
        <ele>537.6</ele>
        <time>2026-02-22T10:32:35Z</time>
      </trkpt>
      <trkpt lat="43.60065" lon="6.39129">
        <ele>537.5</ele>
        <time>2026-02-22T10:32:36Z</time>
      </trkpt>
      <trkpt lat="43.60065" lon="6.3913">
        <ele>537.4</ele>
        <time>2026-02-22T10:32:37Z</time>
      </trkpt>
      <trkpt lat="43.60065" lon="6.39131">
        <ele>537.3</ele>
        <time>2026-02-22T10:32:38Z</time>
      </trkpt>
      <trkpt lat="43.60065" lon="6.39133">
        <ele>537.3</ele>
        <time>2026-02-22T10:32:39Z</time>
      </trkpt>
      <trkpt lat="43.60064" lon="6.39134">
        <ele>537.3</ele>
        <time>2026-02-22T10:32:40Z</time>
      </trkpt>
      <trkpt lat="43.60064" lon="6.39135">
        <ele>537.3</ele>
        <time>2026-02-22T10:32:41Z</time>
      </trkpt>
      <trkpt lat="43.60063" lon="6.39136">
        <ele>537.3</ele>
        <time>2026-02-22T10:32:42Z</time>
      </trkpt>
      <trkpt lat="43.60063" lon="6.39136">
        <ele>537.3</ele>
        <time>2026-02-22T10:32:43Z</time>
      </trkpt>
      <trkpt lat="43.60062" lon="6.39137">
        <ele>537.3</ele>
        <time>2026-02-22T10:32:44Z</time>
      </trkpt>
      <trkpt lat="43.60061" lon="6.39137">
        <ele>537.3</ele>
        <time>2026-02-22T10:32:45Z</time>
      </trkpt>
      <trkpt lat="43.6006" lon="6.39137">
        <ele>537.4</ele>
        <time>2026-02-22T10:32:46Z</time>
      </trkpt>
      <trkpt lat="43.60059" lon="6.39137">
        <ele>537.5</ele>
        <time>2026-02-22T10:32:47Z</time>
      </trkpt>
      <trkpt lat="43.60058" lon="6.39137">
        <ele>537.4</ele>
        <time>2026-02-22T10:32:48Z</time>
      </trkpt>
      <trkpt lat="43.60058" lon="6.39138">
        <ele>537.4</ele>
        <time>2026-02-22T10:32:49Z</time>
      </trkpt>
      <trkpt lat="43.60057" lon="6.39138">
        <ele>537.4</ele>
        <time>2026-02-22T10:32:50Z</time>
      </trkpt>
      <trkpt lat="43.60057" lon="6.39138">
        <ele>537.4</ele>
        <time>2026-02-22T10:32:51Z</time>
      </trkpt>
      <trkpt lat="43.60056" lon="6.39139">
        <ele>537.4</ele>
        <time>2026-02-22T10:32:52Z</time>
      </trkpt>
      <trkpt lat="43.60055" lon="6.39139">
        <ele>537.5</ele>
        <time>2026-02-22T10:32:53Z</time>
      </trkpt>
      <trkpt lat="43.60055" lon="6.39139">
        <ele>537.5</ele>
        <time>2026-02-22T10:32:54Z</time>
      </trkpt>
      <trkpt lat="43.60055" lon="6.3914">
        <ele>537.6</ele>
        <time>2026-02-22T10:32:55Z</time>
      </trkpt>
      <trkpt lat="43.60055" lon="6.3914">
        <ele>537.6</ele>
        <time>2026-02-22T10:32:56Z</time>
      </trkpt>
      <trkpt lat="43.60055" lon="6.39141">
        <ele>537.6</ele>
        <time>2026-02-22T10:32:57Z</time>
      </trkpt>
      <trkpt lat="43.60056" lon="6.39141">
        <ele>537.5</ele>
        <time>2026-02-22T10:32:58Z</time>
      </trkpt>
      <trkpt lat="43.60056" lon="6.39141">
        <ele>537.5</ele>
        <time>2026-02-22T10:32:59Z</time>
      </trkpt>
      <trkpt lat="43.60056" lon="6.39142">
        <ele>537.5</ele>
        <time>2026-02-22T10:33:00Z</time>
      </trkpt>
      <trkpt lat="43.60055" lon="6.39142">
        <ele>537.4</ele>
        <time>2026-02-22T10:33:01Z</time>
      </trkpt>
      <trkpt lat="43.60055" lon="6.39143">
        <ele>537.5</ele>
        <time>2026-02-22T10:33:02Z</time>
      </trkpt>
      <trkpt lat="43.60055" lon="6.39143">
        <ele>537.4</ele>
        <time>2026-02-22T10:33:03Z</time>
      </trkpt>
      <trkpt lat="43.60055" lon="6.39143">
        <ele>537.4</ele>
        <time>2026-02-22T10:33:04Z</time>
      </trkpt>
      <trkpt lat="43.60055" lon="6.39144">
        <ele>537.4</ele>
        <time>2026-02-22T10:33:05Z</time>
      </trkpt>
      <trkpt lat="43.60055" lon="6.39144">
        <ele>537.4</ele>
        <time>2026-02-22T10:33:06Z</time>
      </trkpt>
      <trkpt lat="43.60055" lon="6.39144">
        <ele>537.5</ele>
        <time>2026-02-22T10:33:07Z</time>
      </trkpt>
      <trkpt lat="43.60054" lon="6.39144">
        <ele>537.5</ele>
        <time>2026-02-22T10:33:08Z</time>
      </trkpt>
      <trkpt lat="43.60054" lon="6.39144">
        <ele>537.5</ele>
        <time>2026-02-22T10:33:09Z</time>
      </trkpt>
      <trkpt lat="43.60054" lon="6.39145">
        <ele>537.6</ele>
        <time>2026-02-22T10:33:10Z</time>
      </trkpt>
      <trkpt lat="43.60054" lon="6.39146">
        <ele>537.6</ele>
        <time>2026-02-22T10:33:11Z</time>
      </trkpt>
      <trkpt lat="43.60054" lon="6.39146">
        <ele>537.7</ele>
        <time>2026-02-22T10:33:12Z</time>
      </trkpt>
      <trkpt lat="43.60054" lon="6.39146">
        <ele>537.7</ele>
        <time>2026-02-22T10:33:13Z</time>
      </trkpt>
      <trkpt lat="43.60054" lon="6.39146">
        <ele>537.7</ele>
        <time>2026-02-22T10:33:14Z</time>
      </trkpt>
      <trkpt lat="43.60054" lon="6.39146">
        <ele>537.7</ele>
        <time>2026-02-22T10:33:15Z</time>
      </trkpt>
      <trkpt lat="43.60054" lon="6.39147">
        <ele>537.6</ele>
        <time>2026-02-22T10:33:16Z</time>
      </trkpt>
      <trkpt lat="43.60054" lon="6.39147">
        <ele>537.6</ele>
        <time>2026-02-22T10:33:17Z</time>
      </trkpt>
      <trkpt lat="43.60054" lon="6.39147">
        <ele>537.6</ele>
        <time>2026-02-22T10:33:18Z</time>
      </trkpt>
      <trkpt lat="43.60054" lon="6.39147">
        <ele>537.6</ele>
        <time>2026-02-22T10:33:19Z</time>
      </trkpt>
      <trkpt lat="43.60054" lon="6.39147">
        <ele>537.6</ele>
        <time>2026-02-22T10:33:20Z</time>
      </trkpt>
      <trkpt lat="43.60054" lon="6.39148">
        <ele>537.5</ele>
        <time>2026-02-22T10:33:21Z</time>
      </trkpt>
      <trkpt lat="43.60054" lon="6.39148">
        <ele>537.4</ele>
        <time>2026-02-22T10:33:22Z</time>
      </trkpt>
      <trkpt lat="43.60054" lon="6.39148">
        <ele>537.5</ele>
        <time>2026-02-22T10:33:23Z</time>
      </trkpt>
      <trkpt lat="43.60053" lon="6.39148">
        <ele>537.5</ele>
        <time>2026-02-22T10:33:24Z</time>
      </trkpt>
      <trkpt lat="43.60053" lon="6.39148">
        <ele>537.6</ele>
        <time>2026-02-22T10:33:25Z</time>
      </trkpt>
      <trkpt lat="43.60054" lon="6.39148">
        <ele>537.6</ele>
        <time>2026-02-22T10:33:26Z</time>
      </trkpt>
      <trkpt lat="43.60053" lon="6.39149">
        <ele>537.5</ele>
        <time>2026-02-22T10:33:27Z</time>
      </trkpt>
      <trkpt lat="43.60053" lon="6.39149">
        <ele>537.4</ele>
        <time>2026-02-22T10:33:28Z</time>
      </trkpt>
      <trkpt lat="43.60053" lon="6.39149">
        <ele>537.3</ele>
        <time>2026-02-22T10:33:29Z</time>
      </trkpt>
      <trkpt lat="43.60053" lon="6.39149">
        <ele>537.3</ele>
        <time>2026-02-22T10:33:30Z</time>
      </trkpt>
      <trkpt lat="43.60053" lon="6.39149">
        <ele>537.3</ele>
        <time>2026-02-22T10:33:31Z</time>
      </trkpt>
      <trkpt lat="43.60053" lon="6.3915">
        <ele>537.3</ele>
        <time>2026-02-22T10:33:32Z</time>
      </trkpt>
      <trkpt lat="43.60053" lon="6.3915">
        <ele>537.3</ele>
        <time>2026-02-22T10:33:33Z</time>
      </trkpt>
      <trkpt lat="43.60052" lon="6.3915">
        <ele>537.4</ele>
        <time>2026-02-22T10:33:34Z</time>
      </trkpt>
      <trkpt lat="43.60052" lon="6.3915">
        <ele>537.4</ele>
        <time>2026-02-22T10:33:35Z</time>
      </trkpt>
      <trkpt lat="43.60052" lon="6.3915">
        <ele>537.4</ele>
        <time>2026-02-22T10:33:36Z</time>
      </trkpt>
      <trkpt lat="43.60052" lon="6.3915">
        <ele>537.5</ele>
        <time>2026-02-22T10:33:37Z</time>
      </trkpt>
      <trkpt lat="43.60051" lon="6.3915">
        <ele>537.5</ele>
        <time>2026-02-22T10:33:38Z</time>
      </trkpt>
      <trkpt lat="43.60051" lon="6.39151">
        <ele>537.5</ele>
        <time>2026-02-22T10:33:39Z</time>
      </trkpt>
      <trkpt lat="43.60051" lon="6.39151">
        <ele>537.5</ele>
        <time>2026-02-22T10:33:40Z</time>
      </trkpt>
      <trkpt lat="43.60051" lon="6.39151">
        <ele>537.6</ele>
        <time>2026-02-22T10:33:41Z</time>
      </trkpt>
      <trkpt lat="43.60051" lon="6.39151">
        <ele>537.5</ele>
        <time>2026-02-22T10:33:42Z</time>
      </trkpt>
      <trkpt lat="43.60051" lon="6.39151">
        <ele>537.5</ele>
        <time>2026-02-22T10:33:43Z</time>
      </trkpt>
      <trkpt lat="43.60051" lon="6.39151">
        <ele>537.5</ele>
        <time>2026-02-22T10:33:44Z</time>
      </trkpt>
      <trkpt lat="43.60051" lon="6.39151">
        <ele>537.5</ele>
        <time>2026-02-22T10:33:45Z</time>
      </trkpt>
      <trkpt lat="43.60051" lon="6.39151">
        <ele>537.5</ele>
        <time>2026-02-22T10:33:46Z</time>
      </trkpt>
      <trkpt lat="43.60051" lon="6.39151">
        <ele>537.5</ele>
        <time>2026-02-22T10:33:47Z</time>
      </trkpt>
      <trkpt lat="43.60051" lon="6.39151">
        <ele>537.6</ele>
        <time>2026-02-22T10:33:48Z</time>
      </trkpt>
      <trkpt lat="43.60051" lon="6.39151">
        <ele>537.6</ele>
        <time>2026-02-22T10:33:49Z</time>
      </trkpt>
      <trkpt lat="43.60051" lon="6.39151">
        <ele>537.5</ele>
        <time>2026-02-22T10:33:50Z</time>
      </trkpt>
      <trkpt lat="43.60051" lon="6.39151">
        <ele>537.6</ele>
        <time>2026-02-22T10:33:51Z</time>
      </trkpt>
      <trkpt lat="43.60051" lon="6.39151">
        <ele>537.7</ele>
        <time>2026-02-22T10:33:52Z</time>
      </trkpt>
      <trkpt lat="43.60051" lon="6.3915">
        <ele>537.7</ele>
        <time>2026-02-22T10:33:53Z</time>
      </trkpt>
      <trkpt lat="43.60051" lon="6.3915">
        <ele>537.6</ele>
        <time>2026-02-22T10:33:54Z</time>
      </trkpt>
      <trkpt lat="43.60051" lon="6.3915">
        <ele>537.6</ele>
        <time>2026-02-22T10:33:55Z</time>
      </trkpt>
      <trkpt lat="43.60051" lon="6.3915">
        <ele>537.6</ele>
        <time>2026-02-22T10:33:56Z</time>
      </trkpt>
      <trkpt lat="43.60051" lon="6.3915">
        <ele>537.6</ele>
        <time>2026-02-22T10:33:57Z</time>
      </trkpt>
      <trkpt lat="43.60051" lon="6.3915">
        <ele>537.6</ele>
        <time>2026-02-22T10:33:58Z</time>
      </trkpt>
      <trkpt lat="43.60051" lon="6.3915">
        <ele>537.6</ele>
        <time>2026-02-22T10:33:59Z</time>
      </trkpt>
      <trkpt lat="43.60051" lon="6.3915">
        <ele>537.7</ele>
        <time>2026-02-22T10:34:00Z</time>
      </trkpt>
      <trkpt lat="43.60051" lon="6.3915">
        <ele>537.7</ele>
        <time>2026-02-22T10:34:01Z</time>
      </trkpt>
      <trkpt lat="43.60051" lon="6.3915">
        <ele>537.7</ele>
        <time>2026-02-22T10:34:02Z</time>
      </trkpt>
      <trkpt lat="43.60051" lon="6.39151">
        <ele>537.8</ele>
        <time>2026-02-22T10:34:03Z</time>
      </trkpt>
      <trkpt lat="43.60051" lon="6.39151">
        <ele>537.7</ele>
        <time>2026-02-22T10:34:04Z</time>
      </trkpt>
      <trkpt lat="43.60051" lon="6.3915">
        <ele>537.7</ele>
        <time>2026-02-22T10:34:05Z</time>
      </trkpt>
      <trkpt lat="43.60051" lon="6.39151">
        <ele>537.7</ele>
        <time>2026-02-22T10:34:06Z</time>
      </trkpt>
      <trkpt lat="43.60051" lon="6.3915">
        <ele>537.6</ele>
        <time>2026-02-22T10:34:07Z</time>
      </trkpt>
      <trkpt lat="43.60051" lon="6.39151">
        <ele>537.7</ele>
        <time>2026-02-22T10:34:08Z</time>
      </trkpt>
      <trkpt lat="43.6005" lon="6.39151">
        <ele>537.6</ele>
        <time>2026-02-22T10:34:09Z</time>
      </trkpt>
      <trkpt lat="43.6005" lon="6.39151">
        <ele>537.5</ele>
        <time>2026-02-22T10:34:10Z</time>
      </trkpt>
      <trkpt lat="43.60051" lon="6.39151">
        <ele>537.4</ele>
        <time>2026-02-22T10:34:11Z</time>
      </trkpt>
      <trkpt lat="43.60051" lon="6.39151">
        <ele>537.4</ele>
        <time>2026-02-22T10:34:12Z</time>
      </trkpt>
      <trkpt lat="43.60051" lon="6.39151">
        <ele>537.3</ele>
        <time>2026-02-22T10:34:13Z</time>
      </trkpt>
      <trkpt lat="43.6005" lon="6.3915">
        <ele>537.3</ele>
        <time>2026-02-22T10:34:14Z</time>
      </trkpt>
      <trkpt lat="43.6005" lon="6.3915">
        <ele>537.3</ele>
        <time>2026-02-22T10:34:15Z</time>
      </trkpt>
      <trkpt lat="43.6005" lon="6.3915">
        <ele>537.3</ele>
        <time>2026-02-22T10:34:16Z</time>
      </trkpt>
      <trkpt lat="43.6005" lon="6.3915">
        <ele>537.4</ele>
        <time>2026-02-22T10:34:17Z</time>
      </trkpt>
      <trkpt lat="43.6005" lon="6.3915">
        <ele>537.4</ele>
        <time>2026-02-22T10:34:18Z</time>
      </trkpt>
      <trkpt lat="43.6005" lon="6.3915">
        <ele>537.5</ele>
        <time>2026-02-22T10:34:19Z</time>
      </trkpt>
      <trkpt lat="43.6005" lon="6.3915">
        <ele>537.5</ele>
        <time>2026-02-22T10:34:20Z</time>
      </trkpt>
      <trkpt lat="43.6005" lon="6.3915">
        <ele>537.5</ele>
        <time>2026-02-22T10:34:21Z</time>
      </trkpt>
      <trkpt lat="43.6005" lon="6.3915">
        <ele>537.5</ele>
        <time>2026-02-22T10:34:22Z</time>
      </trkpt>
      <trkpt lat="43.6005" lon="6.3915">
        <ele>537.5</ele>
        <time>2026-02-22T10:34:23Z</time>
      </trkpt>
      <trkpt lat="43.6005" lon="6.3915">
        <ele>537.5</ele>
        <time>2026-02-22T10:34:24Z</time>
      </trkpt>
      <trkpt lat="43.6005" lon="6.39149">
        <ele>537.7</ele>
        <time>2026-02-22T10:34:25Z</time>
      </trkpt>
      <trkpt lat="43.6005" lon="6.39149">
        <ele>537.6</ele>
        <time>2026-02-22T10:34:26Z</time>
      </trkpt>
      <trkpt lat="43.6005" lon="6.39149">
        <ele>537.7</ele>
        <time>2026-02-22T10:34:27Z</time>
      </trkpt>
      <trkpt lat="43.6005" lon="6.39149">
        <ele>537.7</ele>
        <time>2026-02-22T10:34:28Z</time>
      </trkpt>
      <trkpt lat="43.6005" lon="6.39149">
        <ele>537.7</ele>
        <time>2026-02-22T10:34:29Z</time>
      </trkpt>
      <trkpt lat="43.6005" lon="6.39149">
        <ele>537.7</ele>
        <time>2026-02-22T10:34:30Z</time>
      </trkpt>
      <trkpt lat="43.6005" lon="6.39149">
        <ele>537.7</ele>
        <time>2026-02-22T10:34:31Z</time>
      </trkpt>
      <trkpt lat="43.6005" lon="6.39149">
        <ele>537.7</ele>
        <time>2026-02-22T10:34:32Z</time>
      </trkpt>
      <trkpt lat="43.6005" lon="6.39149">
        <ele>537.7</ele>
        <time>2026-02-22T10:34:33Z</time>
      </trkpt>
      <trkpt lat="43.6005" lon="6.39149">
        <ele>537.7</ele>
        <time>2026-02-22T10:34:34Z</time>
      </trkpt>
      <trkpt lat="43.6005" lon="6.39149">
        <ele>537.7</ele>
        <time>2026-02-22T10:34:35Z</time>
      </trkpt>
      <trkpt lat="43.6005" lon="6.39148">
        <ele>537.7</ele>
        <time>2026-02-22T10:34:36Z</time>
      </trkpt>
      <trkpt lat="43.6005" lon="6.39148">
        <ele>537.7</ele>
        <time>2026-02-22T10:34:37Z</time>
      </trkpt>
      <trkpt lat="43.6005" lon="6.39148">
        <ele>537.7</ele>
        <time>2026-02-22T10:34:38Z</time>
      </trkpt>
      <trkpt lat="43.6005" lon="6.39148">
        <ele>537.6</ele>
        <time>2026-02-22T10:34:39Z</time>
      </trkpt>
      <trkpt lat="43.6005" lon="6.39148">
        <ele>537.6</ele>
        <time>2026-02-22T10:34:40Z</time>
      </trkpt>
      <trkpt lat="43.6005" lon="6.39148">
        <ele>537.5</ele>
        <time>2026-02-22T10:34:41Z</time>
      </trkpt>
      <trkpt lat="43.6005" lon="6.39148">
        <ele>537.5</ele>
        <time>2026-02-22T10:34:42Z</time>
      </trkpt>
      <trkpt lat="43.6005" lon="6.39148">
        <ele>537.5</ele>
        <time>2026-02-22T10:34:43Z</time>
      </trkpt>
      <trkpt lat="43.6005" lon="6.39148">
        <ele>537.5</ele>
        <time>2026-02-22T10:34:44Z</time>
      </trkpt>
      <trkpt lat="43.6005" lon="6.39149">
        <ele>537.5</ele>
        <time>2026-02-22T10:34:45Z</time>
      </trkpt>
      <trkpt lat="43.60049" lon="6.39149">
        <ele>537.6</ele>
        <time>2026-02-22T10:34:46Z</time>
      </trkpt>
      <trkpt lat="43.60049" lon="6.39149">
        <ele>537.5</ele>
        <time>2026-02-22T10:34:47Z</time>
      </trkpt>
      <trkpt lat="43.60049" lon="6.39149">
        <ele>537.4</ele>
        <time>2026-02-22T10:34:48Z</time>
      </trkpt>
      <trkpt lat="43.60049" lon="6.39149">
        <ele>537.4</ele>
        <time>2026-02-22T10:34:49Z</time>
      </trkpt>
      <trkpt lat="43.60049" lon="6.39149">
        <ele>537.4</ele>
        <time>2026-02-22T10:34:50Z</time>
      </trkpt>
      <trkpt lat="43.60049" lon="6.39149">
        <ele>537.4</ele>
        <time>2026-02-22T10:34:51Z</time>
      </trkpt>
      <trkpt lat="43.6005" lon="6.39149">
        <ele>537.4</ele>
        <time>2026-02-22T10:34:52Z</time>
      </trkpt>
      <trkpt lat="43.6005" lon="6.39149">
        <ele>537.4</ele>
        <time>2026-02-22T10:34:53Z</time>
      </trkpt>
      <trkpt lat="43.6005" lon="6.39149">
        <ele>537.5</ele>
        <time>2026-02-22T10:34:54Z</time>
      </trkpt>
      <trkpt lat="43.6005" lon="6.39149">
        <ele>537.5</ele>
        <time>2026-02-22T10:34:55Z</time>
      </trkpt>
      <trkpt lat="43.6005" lon="6.39149">
        <ele>537.5</ele>
        <time>2026-02-22T10:34:56Z</time>
      </trkpt>
      <trkpt lat="43.6005" lon="6.39149">
        <ele>537.4</ele>
        <time>2026-02-22T10:34:57Z</time>
      </trkpt>
      <trkpt lat="43.6005" lon="6.3915">
        <ele>537.4</ele>
        <time>2026-02-22T10:34:58Z</time>
      </trkpt>
      <trkpt lat="43.60049" lon="6.3915">
        <ele>537.6</ele>
        <time>2026-02-22T10:34:59Z</time>
      </trkpt>
      <trkpt lat="43.60049" lon="6.3915">
        <ele>537.6</ele>
        <time>2026-02-22T10:35:00Z</time>
      </trkpt>
      <trkpt lat="43.60049" lon="6.3915">
        <ele>537.6</ele>
        <time>2026-02-22T10:35:01Z</time>
      </trkpt>
      <trkpt lat="43.60049" lon="6.3915">
        <ele>537.6</ele>
        <time>2026-02-22T10:35:02Z</time>
      </trkpt>
      <trkpt lat="43.60049" lon="6.3915">
        <ele>537.6</ele>
        <time>2026-02-22T10:35:03Z</time>
      </trkpt>
      <trkpt lat="43.60049" lon="6.3915">
        <ele>537.6</ele>
        <time>2026-02-22T10:35:04Z</time>
      </trkpt>
      <trkpt lat="43.60049" lon="6.3915">
        <ele>537.6</ele>
        <time>2026-02-22T10:35:05Z</time>
      </trkpt>
      <trkpt lat="43.60049" lon="6.3915">
        <ele>537.6</ele>
        <time>2026-02-22T10:35:06Z</time>
      </trkpt>
      <trkpt lat="43.60049" lon="6.3915">
        <ele>537.6</ele>
        <time>2026-02-22T10:35:07Z</time>
      </trkpt>
      <trkpt lat="43.60049" lon="6.3915">
        <ele>537.6</ele>
        <time>2026-02-22T10:35:08Z</time>
      </trkpt>
      <trkpt lat="43.60049" lon="6.3915">
        <ele>537.6</ele>
        <time>2026-02-22T10:35:09Z</time>
      </trkpt>
      <trkpt lat="43.60049" lon="6.3915">
        <ele>537.6</ele>
        <time>2026-02-22T10:35:10Z</time>
      </trkpt>
      <trkpt lat="43.60049" lon="6.3915">
        <ele>537.5</ele>
        <time>2026-02-22T10:35:11Z</time>
      </trkpt>
      <trkpt lat="43.60049" lon="6.3915">
        <ele>537.5</ele>
        <time>2026-02-22T10:35:12Z</time>
      </trkpt>
      <trkpt lat="43.60049" lon="6.3915">
        <ele>537.5</ele>
        <time>2026-02-22T10:35:13Z</time>
      </trkpt>
      <trkpt lat="43.60049" lon="6.3915">
        <ele>537.4</ele>
        <time>2026-02-22T10:35:14Z</time>
      </trkpt>
      <trkpt lat="43.60049" lon="6.3915">
        <ele>537.4</ele>
        <time>2026-02-22T10:35:15Z</time>
      </trkpt>
      <trkpt lat="43.60049" lon="6.3915">
        <ele>537.4</ele>
        <time>2026-02-22T10:35:16Z</time>
      </trkpt>
      <trkpt lat="43.60049" lon="6.39151">
        <ele>537.4</ele>
        <time>2026-02-22T10:35:17Z</time>
      </trkpt>
      <trkpt lat="43.60049" lon="6.39151">
        <ele>537.4</ele>
        <time>2026-02-22T10:35:18Z</time>
      </trkpt>
      <trkpt lat="43.60049" lon="6.3915">
        <ele>537.5</ele>
        <time>2026-02-22T10:35:19Z</time>
      </trkpt>
      <trkpt lat="43.60049" lon="6.3915">
        <ele>537.6</ele>
        <time>2026-02-22T10:35:20Z</time>
      </trkpt>
      <trkpt lat="43.60049" lon="6.3915">
        <ele>537.6</ele>
        <time>2026-02-22T10:35:21Z</time>
      </trkpt>
      <trkpt lat="43.60049" lon="6.3915">
        <ele>537.6</ele>
        <time>2026-02-22T10:35:22Z</time>
      </trkpt>
      <trkpt lat="43.60049" lon="6.3915">
        <ele>537.5</ele>
        <time>2026-02-22T10:35:23Z</time>
      </trkpt>
      <trkpt lat="43.60049" lon="6.3915">
        <ele>537.5</ele>
        <time>2026-02-22T10:35:24Z</time>
      </trkpt>
      <trkpt lat="43.60049" lon="6.3915">
        <ele>537.5</ele>
        <time>2026-02-22T10:35:25Z</time>
      </trkpt>
      <trkpt lat="43.60049" lon="6.3915">
        <ele>537.5</ele>
        <time>2026-02-22T10:35:26Z</time>
      </trkpt>
      <trkpt lat="43.60049" lon="6.3915">
        <ele>537.5</ele>
        <time>2026-02-22T10:35:27Z</time>
      </trkpt>
      <trkpt lat="43.60049" lon="6.3915">
        <ele>537.5</ele>
        <time>2026-02-22T10:35:28Z</time>
      </trkpt>
      <trkpt lat="43.60049" lon="6.3915">
        <ele>537.5</ele>
        <time>2026-02-22T10:35:29Z</time>
      </trkpt>
      <trkpt lat="43.60049" lon="6.3915">
        <ele>537.5</ele>
        <time>2026-02-22T10:35:30Z</time>
      </trkpt>
      <trkpt lat="43.60049" lon="6.3915">
        <ele>537.5</ele>
        <time>2026-02-22T10:35:31Z</time>
      </trkpt>
      <trkpt lat="43.60049" lon="6.3915">
        <ele>537.5</ele>
        <time>2026-02-22T10:35:32Z</time>
      </trkpt>
      <trkpt lat="43.60049" lon="6.3915">
        <ele>537.7</ele>
        <time>2026-02-22T10:35:33Z</time>
      </trkpt>
      <trkpt lat="43.6005" lon="6.39149">
        <ele>537.8</ele>
        <time>2026-02-22T10:35:34Z</time>
      </trkpt>
      <trkpt lat="43.6005" lon="6.39148">
        <ele>537.8</ele>
        <time>2026-02-22T10:35:35Z</time>
      </trkpt>
      <trkpt lat="43.6005" lon="6.39148">
        <ele>537.8</ele>
        <time>2026-02-22T10:35:36Z</time>
      </trkpt>
      <trkpt lat="43.6005" lon="6.39148">
        <ele>537.8</ele>
        <time>2026-02-22T10:35:37Z</time>
      </trkpt>
      <trkpt lat="43.6005" lon="6.39147">
        <ele>537.8</ele>
        <time>2026-02-22T10:35:38Z</time>
      </trkpt>
      <trkpt lat="43.60051" lon="6.39147">
        <ele>537.9</ele>
        <time>2026-02-22T10:35:39Z</time>
      </trkpt>
      <trkpt lat="43.60051" lon="6.39147">
        <ele>538</ele>
        <time>2026-02-22T10:35:40Z</time>
      </trkpt>
      <trkpt lat="43.60051" lon="6.39147">
        <ele>538</ele>
        <time>2026-02-22T10:35:41Z</time>
      </trkpt>
      <trkpt lat="43.60051" lon="6.39147">
        <ele>538</ele>
        <time>2026-02-22T10:35:42Z</time>
      </trkpt>
      <trkpt lat="43.60051" lon="6.39147">
        <ele>538</ele>
        <time>2026-02-22T10:35:43Z</time>
      </trkpt>
      <trkpt lat="43.60051" lon="6.39147">
        <ele>538</ele>
        <time>2026-02-22T10:35:44Z</time>
      </trkpt>
      <trkpt lat="43.60051" lon="6.39147">
        <ele>538</ele>
        <time>2026-02-22T10:35:45Z</time>
      </trkpt>
      <trkpt lat="43.60051" lon="6.39146">
        <ele>538.1</ele>
        <time>2026-02-22T10:35:46Z</time>
      </trkpt>
      <trkpt lat="43.60051" lon="6.39146">
        <ele>538.2</ele>
        <time>2026-02-22T10:35:47Z</time>
      </trkpt>
      <trkpt lat="43.60051" lon="6.39146">
        <ele>538.3</ele>
        <time>2026-02-22T10:35:48Z</time>
      </trkpt>
      <trkpt lat="43.60052" lon="6.39146">
        <ele>538.3</ele>
        <time>2026-02-22T10:35:49Z</time>
      </trkpt>
      <trkpt lat="43.60052" lon="6.39146">
        <ele>538.3</ele>
        <time>2026-02-22T10:35:50Z</time>
      </trkpt>
      <trkpt lat="43.60052" lon="6.39146">
        <ele>538.2</ele>
        <time>2026-02-22T10:35:51Z</time>
      </trkpt>
      <trkpt lat="43.60052" lon="6.39146">
        <ele>538.2</ele>
        <time>2026-02-22T10:35:52Z</time>
      </trkpt>
      <trkpt lat="43.60052" lon="6.39146">
        <ele>538.2</ele>
        <time>2026-02-22T10:35:53Z</time>
      </trkpt>
      <trkpt lat="43.60052" lon="6.39146">
        <ele>538.2</ele>
        <time>2026-02-22T10:35:54Z</time>
      </trkpt>
      <trkpt lat="43.60052" lon="6.39146">
        <ele>538.3</ele>
        <time>2026-02-22T10:35:55Z</time>
      </trkpt>
      <trkpt lat="43.60052" lon="6.39145">
        <ele>538.3</ele>
        <time>2026-02-22T10:35:56Z</time>
      </trkpt>
      <trkpt lat="43.60052" lon="6.39145">
        <ele>538.3</ele>
        <time>2026-02-22T10:35:57Z</time>
      </trkpt>
      <trkpt lat="43.60052" lon="6.39145">
        <ele>538.3</ele>
        <time>2026-02-22T10:35:58Z</time>
      </trkpt>
      <trkpt lat="43.60052" lon="6.39145">
        <ele>538.3</ele>
        <time>2026-02-22T10:35:59Z</time>
      </trkpt>
      <trkpt lat="43.60052" lon="6.39145">
        <ele>538.2</ele>
        <time>2026-02-22T10:36:00Z</time>
      </trkpt>
      <trkpt lat="43.60052" lon="6.39145">
        <ele>538.1</ele>
        <time>2026-02-22T10:36:01Z</time>
      </trkpt>
      <trkpt lat="43.60052" lon="6.39145">
        <ele>538.2</ele>
        <time>2026-02-22T10:36:02Z</time>
      </trkpt>
      <trkpt lat="43.60052" lon="6.39145">
        <ele>538.3</ele>
        <time>2026-02-22T10:36:03Z</time>
      </trkpt>
      <trkpt lat="43.60052" lon="6.39145">
        <ele>538.3</ele>
        <time>2026-02-22T10:36:04Z</time>
      </trkpt>
      <trkpt lat="43.60052" lon="6.39145">
        <ele>538.3</ele>
        <time>2026-02-22T10:36:05Z</time>
      </trkpt>
      <trkpt lat="43.60052" lon="6.39145">
        <ele>538.3</ele>
        <time>2026-02-22T10:36:06Z</time>
      </trkpt>
      <trkpt lat="43.60052" lon="6.39145">
        <ele>538.3</ele>
        <time>2026-02-22T10:36:07Z</time>
      </trkpt>
      <trkpt lat="43.60052" lon="6.39145">
        <ele>538.3</ele>
        <time>2026-02-22T10:36:08Z</time>
      </trkpt>
      <trkpt lat="43.60052" lon="6.39145">
        <ele>538.3</ele>
        <time>2026-02-22T10:36:09Z</time>
      </trkpt>
      <trkpt lat="43.60052" lon="6.39145">
        <ele>538.2</ele>
        <time>2026-02-22T10:36:10Z</time>
      </trkpt>
      <trkpt lat="43.60052" lon="6.39145">
        <ele>538.1</ele>
        <time>2026-02-22T10:36:11Z</time>
      </trkpt>
      <trkpt lat="43.60052" lon="6.39145">
        <ele>538.2</ele>
        <time>2026-02-22T10:36:12Z</time>
      </trkpt>
      <trkpt lat="43.60052" lon="6.39145">
        <ele>538.2</ele>
        <time>2026-02-22T10:36:13Z</time>
      </trkpt>
      <trkpt lat="43.60052" lon="6.39145">
        <ele>538.2</ele>
        <time>2026-02-22T10:36:14Z</time>
      </trkpt>
      <trkpt lat="43.60052" lon="6.39145">
        <ele>538.1</ele>
        <time>2026-02-22T10:36:15Z</time>
      </trkpt>
      <trkpt lat="43.60052" lon="6.39145">
        <ele>538.2</ele>
        <time>2026-02-22T10:36:16Z</time>
      </trkpt>
      <trkpt lat="43.60052" lon="6.39145">
        <ele>538.2</ele>
        <time>2026-02-22T10:36:17Z</time>
      </trkpt>
      <trkpt lat="43.60052" lon="6.39145">
        <ele>538.3</ele>
        <time>2026-02-22T10:36:18Z</time>
      </trkpt>
      <trkpt lat="43.60052" lon="6.39145">
        <ele>538.3</ele>
        <time>2026-02-22T10:36:19Z</time>
      </trkpt>
      <trkpt lat="43.60052" lon="6.39145">
        <ele>538.3</ele>
        <time>2026-02-22T10:36:20Z</time>
      </trkpt>
      <trkpt lat="43.60052" lon="6.39145">
        <ele>538.2</ele>
        <time>2026-02-22T10:36:21Z</time>
      </trkpt>
      <trkpt lat="43.60052" lon="6.39145">
        <ele>538.2</ele>
        <time>2026-02-22T10:36:22Z</time>
      </trkpt>
      <trkpt lat="43.60051" lon="6.39145">
        <ele>538.2</ele>
        <time>2026-02-22T10:36:23Z</time>
      </trkpt>
      <trkpt lat="43.60051" lon="6.39145">
        <ele>538.2</ele>
        <time>2026-02-22T10:36:24Z</time>
      </trkpt>
      <trkpt lat="43.60051" lon="6.39146">
        <ele>538.2</ele>
        <time>2026-02-22T10:36:25Z</time>
      </trkpt>
      <trkpt lat="43.60051" lon="6.39146">
        <ele>538.2</ele>
        <time>2026-02-22T10:36:26Z</time>
      </trkpt>
      <trkpt lat="43.60051" lon="6.39146">
        <ele>538.3</ele>
        <time>2026-02-22T10:36:27Z</time>
      </trkpt>
      <trkpt lat="43.60052" lon="6.39146">
        <ele>538.3</ele>
        <time>2026-02-22T10:36:28Z</time>
      </trkpt>
      <trkpt lat="43.60052" lon="6.39146">
        <ele>538.2</ele>
        <time>2026-02-22T10:36:29Z</time>
      </trkpt>
      <trkpt lat="43.60051" lon="6.39147">
        <ele>538.2</ele>
        <time>2026-02-22T10:36:30Z</time>
      </trkpt>
      <trkpt lat="43.60052" lon="6.39147">
        <ele>538.2</ele>
        <time>2026-02-22T10:36:31Z</time>
      </trkpt>
      <trkpt lat="43.60052" lon="6.39147">
        <ele>538.2</ele>
        <time>2026-02-22T10:36:32Z</time>
      </trkpt>
      <trkpt lat="43.60051" lon="6.39147">
        <ele>538.2</ele>
        <time>2026-02-22T10:36:33Z</time>
      </trkpt>
      <trkpt lat="43.60051" lon="6.39147">
        <ele>538.2</ele>
        <time>2026-02-22T10:36:34Z</time>
      </trkpt>
      <trkpt lat="43.60051" lon="6.39148">
        <ele>538.1</ele>
        <time>2026-02-22T10:36:35Z</time>
      </trkpt>
      <trkpt lat="43.60051" lon="6.39148">
        <ele>538.1</ele>
        <time>2026-02-22T10:36:36Z</time>
      </trkpt>
      <trkpt lat="43.60051" lon="6.39148">
        <ele>538.2</ele>
        <time>2026-02-22T10:36:37Z</time>
      </trkpt>
      <trkpt lat="43.60051" lon="6.39148">
        <ele>538.2</ele>
        <time>2026-02-22T10:36:38Z</time>
      </trkpt>
      <trkpt lat="43.60051" lon="6.39148">
        <ele>538.3</ele>
        <time>2026-02-22T10:36:39Z</time>
      </trkpt>
      <trkpt lat="43.60051" lon="6.39149">
        <ele>538.3</ele>
        <time>2026-02-22T10:36:40Z</time>
      </trkpt>
      <trkpt lat="43.60051" lon="6.39149">
        <ele>538.3</ele>
        <time>2026-02-22T10:36:41Z</time>
      </trkpt>
      <trkpt lat="43.6005" lon="6.39149">
        <ele>538.3</ele>
        <time>2026-02-22T10:36:42Z</time>
      </trkpt>
      <trkpt lat="43.60051" lon="6.3915">
        <ele>538.2</ele>
        <time>2026-02-22T10:36:43Z</time>
      </trkpt>
      <trkpt lat="43.60051" lon="6.3915">
        <ele>538.2</ele>
        <time>2026-02-22T10:36:44Z</time>
      </trkpt>
      <trkpt lat="43.6005" lon="6.3915">
        <ele>538.2</ele>
        <time>2026-02-22T10:36:45Z</time>
      </trkpt>
      <trkpt lat="43.6005" lon="6.39151">
        <ele>538.2</ele>
        <time>2026-02-22T10:36:46Z</time>
      </trkpt>
      <trkpt lat="43.6005" lon="6.39151">
        <ele>538.1</ele>
        <time>2026-02-22T10:36:47Z</time>
      </trkpt>
      <trkpt lat="43.6005" lon="6.39151">
        <ele>538.2</ele>
        <time>2026-02-22T10:36:48Z</time>
      </trkpt>
      <trkpt lat="43.6005" lon="6.39151">
        <ele>538.3</ele>
        <time>2026-02-22T10:36:49Z</time>
      </trkpt>
      <trkpt lat="43.6005" lon="6.39151">
        <ele>538.3</ele>
        <time>2026-02-22T10:36:50Z</time>
      </trkpt>
      <trkpt lat="43.6005" lon="6.39151">
        <ele>538.4</ele>
        <time>2026-02-22T10:36:51Z</time>
      </trkpt>
      <trkpt lat="43.6005" lon="6.39152">
        <ele>538.4</ele>
        <time>2026-02-22T10:36:52Z</time>
      </trkpt>
      <trkpt lat="43.6005" lon="6.39152">
        <ele>538.4</ele>
        <time>2026-02-22T10:36:53Z</time>
      </trkpt>
      <trkpt lat="43.6005" lon="6.39152">
        <ele>538.4</ele>
        <time>2026-02-22T10:36:54Z</time>
      </trkpt>
      <trkpt lat="43.60049" lon="6.39152">
        <ele>538.5</ele>
        <time>2026-02-22T10:36:55Z</time>
      </trkpt>
      <trkpt lat="43.60049" lon="6.39152">
        <ele>538.5</ele>
        <time>2026-02-22T10:36:56Z</time>
      </trkpt>
      <trkpt lat="43.60049" lon="6.39152">
        <ele>538.5</ele>
        <time>2026-02-22T10:36:57Z</time>
      </trkpt>
      <trkpt lat="43.60049" lon="6.39152">
        <ele>538.5</ele>
        <time>2026-02-22T10:36:58Z</time>
      </trkpt>
      <trkpt lat="43.60049" lon="6.39152">
        <ele>538.5</ele>
        <time>2026-02-22T10:36:59Z</time>
      </trkpt>
      <trkpt lat="43.60049" lon="6.39152">
        <ele>538.5</ele>
        <time>2026-02-22T10:37:00Z</time>
      </trkpt>
      <trkpt lat="43.60049" lon="6.39152">
        <ele>538.5</ele>
        <time>2026-02-22T10:37:01Z</time>
      </trkpt>
      <trkpt lat="43.60049" lon="6.39153">
        <ele>538.5</ele>
        <time>2026-02-22T10:37:02Z</time>
      </trkpt>
      <trkpt lat="43.60049" lon="6.39153">
        <ele>538.4</ele>
        <time>2026-02-22T10:37:03Z</time>
      </trkpt>
      <trkpt lat="43.60049" lon="6.39152">
        <ele>538.5</ele>
        <time>2026-02-22T10:37:04Z</time>
      </trkpt>
      <trkpt lat="43.60049" lon="6.39152">
        <ele>538.5</ele>
        <time>2026-02-22T10:37:05Z</time>
      </trkpt>
      <trkpt lat="43.60049" lon="6.39152">
        <ele>538.4</ele>
        <time>2026-02-22T10:37:06Z</time>
      </trkpt>
      <trkpt lat="43.60049" lon="6.39152">
        <ele>538.4</ele>
        <time>2026-02-22T10:37:07Z</time>
      </trkpt>
      <trkpt lat="43.60049" lon="6.39152">
        <ele>538.4</ele>
        <time>2026-02-22T10:37:08Z</time>
      </trkpt>
      <trkpt lat="43.60049" lon="6.39152">
        <ele>538.3</ele>
        <time>2026-02-22T10:37:09Z</time>
      </trkpt>
      <trkpt lat="43.60049" lon="6.39152">
        <ele>538.3</ele>
        <time>2026-02-22T10:37:10Z</time>
      </trkpt>
      <trkpt lat="43.60049" lon="6.39153">
        <ele>538.3</ele>
        <time>2026-02-22T10:37:11Z</time>
      </trkpt>
      <trkpt lat="43.60049" lon="6.39153">
        <ele>538.3</ele>
        <time>2026-02-22T10:37:12Z</time>
      </trkpt>
      <trkpt lat="43.60049" lon="6.39153">
        <ele>538.3</ele>
        <time>2026-02-22T10:37:13Z</time>
      </trkpt>
      <trkpt lat="43.60049" lon="6.39153">
        <ele>538.2</ele>
        <time>2026-02-22T10:37:14Z</time>
      </trkpt>
      <trkpt lat="43.60049" lon="6.39153">
        <ele>538.2</ele>
        <time>2026-02-22T10:37:15Z</time>
      </trkpt>
      <trkpt lat="43.60049" lon="6.39153">
        <ele>538.3</ele>
        <time>2026-02-22T10:37:16Z</time>
      </trkpt>
      <trkpt lat="43.60049" lon="6.39153">
        <ele>538.2</ele>
        <time>2026-02-22T10:37:17Z</time>
      </trkpt>
      <trkpt lat="43.60049" lon="6.39153">
        <ele>538.3</ele>
        <time>2026-02-22T10:37:18Z</time>
      </trkpt>
      <trkpt lat="43.60049" lon="6.39153">
        <ele>538.3</ele>
        <time>2026-02-22T10:37:19Z</time>
      </trkpt>
      <trkpt lat="43.60049" lon="6.39153">
        <ele>538.2</ele>
        <time>2026-02-22T10:37:20Z</time>
      </trkpt>
      <trkpt lat="43.60049" lon="6.39153">
        <ele>538.2</ele>
        <time>2026-02-22T10:37:21Z</time>
      </trkpt>
      <trkpt lat="43.60049" lon="6.39153">
        <ele>538.3</ele>
        <time>2026-02-22T10:37:22Z</time>
      </trkpt>
      <trkpt lat="43.60049" lon="6.39153">
        <ele>538.3</ele>
        <time>2026-02-22T10:37:23Z</time>
      </trkpt>
      <trkpt lat="43.60049" lon="6.39153">
        <ele>538.3</ele>
        <time>2026-02-22T10:37:24Z</time>
      </trkpt>
      <trkpt lat="43.60048" lon="6.39152">
        <ele>538.2</ele>
        <time>2026-02-22T10:37:25Z</time>
      </trkpt>
      <trkpt lat="43.60048" lon="6.39152">
        <ele>538.1</ele>
        <time>2026-02-22T10:37:26Z</time>
      </trkpt>
      <trkpt lat="43.60048" lon="6.39152">
        <ele>538.1</ele>
        <time>2026-02-22T10:37:27Z</time>
      </trkpt>
      <trkpt lat="43.60048" lon="6.39152">
        <ele>538.1</ele>
        <time>2026-02-22T10:37:28Z</time>
      </trkpt>
      <trkpt lat="43.60048" lon="6.39152">
        <ele>538.2</ele>
        <time>2026-02-22T10:37:29Z</time>
      </trkpt>
      <trkpt lat="43.60048" lon="6.39152">
        <ele>538.1</ele>
        <time>2026-02-22T10:37:30Z</time>
      </trkpt>
      <trkpt lat="43.60048" lon="6.39152">
        <ele>538.2</ele>
        <time>2026-02-22T10:37:31Z</time>
      </trkpt>
      <trkpt lat="43.60048" lon="6.39152">
        <ele>538.2</ele>
        <time>2026-02-22T10:37:32Z</time>
      </trkpt>
      <trkpt lat="43.60048" lon="6.39152">
        <ele>538.2</ele>
        <time>2026-02-22T10:37:33Z</time>
      </trkpt>
      <trkpt lat="43.60048" lon="6.39152">
        <ele>538.3</ele>
        <time>2026-02-22T10:37:34Z</time>
      </trkpt>
      <trkpt lat="43.60048" lon="6.39152">
        <ele>538.3</ele>
        <time>2026-02-22T10:37:35Z</time>
      </trkpt>
      <trkpt lat="43.60048" lon="6.39152">
        <ele>538.3</ele>
        <time>2026-02-22T10:37:36Z</time>
      </trkpt>
      <trkpt lat="43.60048" lon="6.39152">
        <ele>538.4</ele>
        <time>2026-02-22T10:37:37Z</time>
      </trkpt>
      <trkpt lat="43.60048" lon="6.39152">
        <ele>538.4</ele>
        <time>2026-02-22T10:37:38Z</time>
      </trkpt>
      <trkpt lat="43.60048" lon="6.39152">
        <ele>538.4</ele>
        <time>2026-02-22T10:37:39Z</time>
      </trkpt>
      <trkpt lat="43.60048" lon="6.39151">
        <ele>538.4</ele>
        <time>2026-02-22T10:37:40Z</time>
      </trkpt>
      <trkpt lat="43.60048" lon="6.39151">
        <ele>538.4</ele>
        <time>2026-02-22T10:37:41Z</time>
      </trkpt>
      <trkpt lat="43.60048" lon="6.39151">
        <ele>538.4</ele>
        <time>2026-02-22T10:37:42Z</time>
      </trkpt>
      <trkpt lat="43.60048" lon="6.39151">
        <ele>538.4</ele>
        <time>2026-02-22T10:37:43Z</time>
      </trkpt>
      <trkpt lat="43.60048" lon="6.39151">
        <ele>538.4</ele>
        <time>2026-02-22T10:37:44Z</time>
      </trkpt>
      <trkpt lat="43.60048" lon="6.39151">
        <ele>538.4</ele>
        <time>2026-02-22T10:37:45Z</time>
      </trkpt>
      <trkpt lat="43.60048" lon="6.39151">
        <ele>538.5</ele>
        <time>2026-02-22T10:37:46Z</time>
      </trkpt>
      <trkpt lat="43.60048" lon="6.39151">
        <ele>538.5</ele>
        <time>2026-02-22T10:37:47Z</time>
      </trkpt>
      <trkpt lat="43.60048" lon="6.39151">
        <ele>538.5</ele>
        <time>2026-02-22T10:37:48Z</time>
      </trkpt>
      <trkpt lat="43.60048" lon="6.39151">
        <ele>538.5</ele>
        <time>2026-02-22T10:37:49Z</time>
      </trkpt>
      <trkpt lat="43.60048" lon="6.39151">
        <ele>538.5</ele>
        <time>2026-02-22T10:37:50Z</time>
      </trkpt>
      <trkpt lat="43.60048" lon="6.39151">
        <ele>538.5</ele>
        <time>2026-02-22T10:37:51Z</time>
      </trkpt>
      <trkpt lat="43.60049" lon="6.39151">
        <ele>538.5</ele>
        <time>2026-02-22T10:37:52Z</time>
      </trkpt>
      <trkpt lat="43.60049" lon="6.39151">
        <ele>538.5</ele>
        <time>2026-02-22T10:37:53Z</time>
      </trkpt>
      <trkpt lat="43.60049" lon="6.39151">
        <ele>538.4</ele>
        <time>2026-02-22T10:37:54Z</time>
      </trkpt>
      <trkpt lat="43.60049" lon="6.39151">
        <ele>538.4</ele>
        <time>2026-02-22T10:37:55Z</time>
      </trkpt>
      <trkpt lat="43.60049" lon="6.39151">
        <ele>538.4</ele>
        <time>2026-02-22T10:37:56Z</time>
      </trkpt>
      <trkpt lat="43.60049" lon="6.39151">
        <ele>538.4</ele>
        <time>2026-02-22T10:37:57Z</time>
      </trkpt>
      <trkpt lat="43.60049" lon="6.39151">
        <ele>538.4</ele>
        <time>2026-02-22T10:37:58Z</time>
      </trkpt>
      <trkpt lat="43.60049" lon="6.39151">
        <ele>538.4</ele>
        <time>2026-02-22T10:37:59Z</time>
      </trkpt>
      <trkpt lat="43.60049" lon="6.39151">
        <ele>538.3</ele>
        <time>2026-02-22T10:38:00Z</time>
      </trkpt>
      <trkpt lat="43.60049" lon="6.3915">
        <ele>538.3</ele>
        <time>2026-02-22T10:38:01Z</time>
      </trkpt>
      <trkpt lat="43.60049" lon="6.3915">
        <ele>538.2</ele>
        <time>2026-02-22T10:38:02Z</time>
      </trkpt>
      <trkpt lat="43.60049" lon="6.3915">
        <ele>538.2</ele>
        <time>2026-02-22T10:38:03Z</time>
      </trkpt>
      <trkpt lat="43.60049" lon="6.3915">
        <ele>538.2</ele>
        <time>2026-02-22T10:38:04Z</time>
      </trkpt>
      <trkpt lat="43.60049" lon="6.3915">
        <ele>538.2</ele>
        <time>2026-02-22T10:38:05Z</time>
      </trkpt>
      <trkpt lat="43.60049" lon="6.3915">
        <ele>538.3</ele>
        <time>2026-02-22T10:38:06Z</time>
      </trkpt>
      <trkpt lat="43.60049" lon="6.3915">
        <ele>538.3</ele>
        <time>2026-02-22T10:38:07Z</time>
      </trkpt>
      <trkpt lat="43.60049" lon="6.39151">
        <ele>538.3</ele>
        <time>2026-02-22T10:38:08Z</time>
      </trkpt>
      <trkpt lat="43.60049" lon="6.3915">
        <ele>538.3</ele>
        <time>2026-02-22T10:38:09Z</time>
      </trkpt>
      <trkpt lat="43.60049" lon="6.39151">
        <ele>538.4</ele>
        <time>2026-02-22T10:38:10Z</time>
      </trkpt>
      <trkpt lat="43.60049" lon="6.39151">
        <ele>538.4</ele>
        <time>2026-02-22T10:38:11Z</time>
      </trkpt>
      <trkpt lat="43.60049" lon="6.3915">
        <ele>538.4</ele>
        <time>2026-02-22T10:38:12Z</time>
      </trkpt>
      <trkpt lat="43.60049" lon="6.3915">
        <ele>538.3</ele>
        <time>2026-02-22T10:38:13Z</time>
      </trkpt>
      <trkpt lat="43.60049" lon="6.3915">
        <ele>538.3</ele>
        <time>2026-02-22T10:38:14Z</time>
      </trkpt>
      <trkpt lat="43.60049" lon="6.3915">
        <ele>538.3</ele>
        <time>2026-02-22T10:38:15Z</time>
      </trkpt>
      <trkpt lat="43.60049" lon="6.3915">
        <ele>538.3</ele>
        <time>2026-02-22T10:38:16Z</time>
      </trkpt>
      <trkpt lat="43.60049" lon="6.3915">
        <ele>538.2</ele>
        <time>2026-02-22T10:38:17Z</time>
      </trkpt>
      <trkpt lat="43.60049" lon="6.3915">
        <ele>538.2</ele>
        <time>2026-02-22T10:38:18Z</time>
      </trkpt>
      <trkpt lat="43.60049" lon="6.3915">
        <ele>538.1</ele>
        <time>2026-02-22T10:38:19Z</time>
      </trkpt>
      <trkpt lat="43.60049" lon="6.3915">
        <ele>538.1</ele>
        <time>2026-02-22T10:38:20Z</time>
      </trkpt>
      <trkpt lat="43.60049" lon="6.3915">
        <ele>538.1</ele>
        <time>2026-02-22T10:38:21Z</time>
      </trkpt>
      <trkpt lat="43.60049" lon="6.3915">
        <ele>538.1</ele>
        <time>2026-02-22T10:38:22Z</time>
      </trkpt>
      <trkpt lat="43.60049" lon="6.3915">
        <ele>538.1</ele>
        <time>2026-02-22T10:38:23Z</time>
      </trkpt>
      <trkpt lat="43.60049" lon="6.3915">
        <ele>538.1</ele>
        <time>2026-02-22T10:38:24Z</time>
      </trkpt>
      <trkpt lat="43.60049" lon="6.3915">
        <ele>538.1</ele>
        <time>2026-02-22T10:38:25Z</time>
      </trkpt>
      <trkpt lat="43.60049" lon="6.3915">
        <ele>538.1</ele>
        <time>2026-02-22T10:38:26Z</time>
      </trkpt>
      <trkpt lat="43.60049" lon="6.3915">
        <ele>538.1</ele>
        <time>2026-02-22T10:38:27Z</time>
      </trkpt>
      <trkpt lat="43.60049" lon="6.3915">
        <ele>538.1</ele>
        <time>2026-02-22T10:38:28Z</time>
      </trkpt>
      <trkpt lat="43.60049" lon="6.3915">
        <ele>538.1</ele>
        <time>2026-02-22T10:38:29Z</time>
      </trkpt>
      <trkpt lat="43.60049" lon="6.3915">
        <ele>538</ele>
        <time>2026-02-22T10:38:30Z</time>
      </trkpt>
      <trkpt lat="43.60048" lon="6.3915">
        <ele>538</ele>
        <time>2026-02-22T10:38:31Z</time>
      </trkpt>
      <trkpt lat="43.60048" lon="6.3915">
        <ele>538</ele>
        <time>2026-02-22T10:38:32Z</time>
      </trkpt>
      <trkpt lat="43.60048" lon="6.3915">
        <ele>538</ele>
        <time>2026-02-22T10:38:33Z</time>
      </trkpt>
      <trkpt lat="43.60048" lon="6.3915">
        <ele>538</ele>
        <time>2026-02-22T10:38:34Z</time>
      </trkpt>
      <trkpt lat="43.60048" lon="6.3915">
        <ele>538</ele>
        <time>2026-02-22T10:38:35Z</time>
      </trkpt>
      <trkpt lat="43.60048" lon="6.3915">
        <ele>538</ele>
        <time>2026-02-22T10:38:36Z</time>
      </trkpt>
      <trkpt lat="43.60048" lon="6.3915">
        <ele>538</ele>
        <time>2026-02-22T10:38:37Z</time>
      </trkpt>
      <trkpt lat="43.60048" lon="6.39149">
        <ele>538</ele>
        <time>2026-02-22T10:38:38Z</time>
      </trkpt>
      <trkpt lat="43.60048" lon="6.39149">
        <ele>538.1</ele>
        <time>2026-02-22T10:38:39Z</time>
      </trkpt>
      <trkpt lat="43.60048" lon="6.39149">
        <ele>538.1</ele>
        <time>2026-02-22T10:38:40Z</time>
      </trkpt>
      <trkpt lat="43.60048" lon="6.39149">
        <ele>538.1</ele>
        <time>2026-02-22T10:38:41Z</time>
      </trkpt>
      <trkpt lat="43.60048" lon="6.39149">
        <ele>538.1</ele>
        <time>2026-02-22T10:38:42Z</time>
      </trkpt>
      <trkpt lat="43.60048" lon="6.39149">
        <ele>538</ele>
        <time>2026-02-22T10:38:43Z</time>
      </trkpt>
      <trkpt lat="43.60048" lon="6.39149">
        <ele>538</ele>
        <time>2026-02-22T10:38:44Z</time>
      </trkpt>
      <trkpt lat="43.60048" lon="6.39149">
        <ele>538</ele>
        <time>2026-02-22T10:38:45Z</time>
      </trkpt>
      <trkpt lat="43.60048" lon="6.39149">
        <ele>538</ele>
        <time>2026-02-22T10:38:46Z</time>
      </trkpt>
      <trkpt lat="43.60048" lon="6.39149">
        <ele>538</ele>
        <time>2026-02-22T10:38:47Z</time>
      </trkpt>
      <trkpt lat="43.60048" lon="6.39149">
        <ele>538</ele>
        <time>2026-02-22T10:38:48Z</time>
      </trkpt>
      <trkpt lat="43.60048" lon="6.39149">
        <ele>538</ele>
        <time>2026-02-22T10:38:49Z</time>
      </trkpt>
      <trkpt lat="43.60048" lon="6.39149">
        <ele>538</ele>
        <time>2026-02-22T10:38:50Z</time>
      </trkpt>
      <trkpt lat="43.60048" lon="6.39149">
        <ele>538</ele>
        <time>2026-02-22T10:38:51Z</time>
      </trkpt>
      <trkpt lat="43.60048" lon="6.39149">
        <ele>538</ele>
        <time>2026-02-22T10:38:52Z</time>
      </trkpt>
      <trkpt lat="43.60048" lon="6.39149">
        <ele>538</ele>
        <time>2026-02-22T10:38:53Z</time>
      </trkpt>
      <trkpt lat="43.60048" lon="6.39149">
        <ele>538</ele>
        <time>2026-02-22T10:38:54Z</time>
      </trkpt>
      <trkpt lat="43.60047" lon="6.39149">
        <ele>538</ele>
        <time>2026-02-22T10:38:55Z</time>
      </trkpt>
      <trkpt lat="43.60047" lon="6.39149">
        <ele>538.1</ele>
        <time>2026-02-22T10:38:56Z</time>
      </trkpt>
      <trkpt lat="43.60047" lon="6.39149">
        <ele>538.1</ele>
        <time>2026-02-22T10:38:57Z</time>
      </trkpt>
      <trkpt lat="43.60047" lon="6.39149">
        <ele>538.1</ele>
        <time>2026-02-22T10:38:58Z</time>
      </trkpt>
      <trkpt lat="43.60047" lon="6.39149">
        <ele>538</ele>
        <time>2026-02-22T10:38:59Z</time>
      </trkpt>
      <trkpt lat="43.60047" lon="6.39149">
        <ele>538</ele>
        <time>2026-02-22T10:39:00Z</time>
      </trkpt>
      <trkpt lat="43.60048" lon="6.39149">
        <ele>538</ele>
        <time>2026-02-22T10:39:01Z</time>
      </trkpt>
      <trkpt lat="43.60047" lon="6.39149">
        <ele>538</ele>
        <time>2026-02-22T10:39:02Z</time>
      </trkpt>
      <trkpt lat="43.60047" lon="6.39148">
        <ele>538</ele>
        <time>2026-02-22T10:39:03Z</time>
      </trkpt>
      <trkpt lat="43.60046" lon="6.39148">
        <ele>538</ele>
        <time>2026-02-22T10:39:04Z</time>
      </trkpt>
      <trkpt lat="43.60046" lon="6.39148">
        <ele>538</ele>
        <time>2026-02-22T10:39:05Z</time>
      </trkpt>
      <trkpt lat="43.60045" lon="6.39148">
        <ele>537.9</ele>
        <time>2026-02-22T10:39:06Z</time>
      </trkpt>
      <trkpt lat="43.60044" lon="6.39147">
        <ele>537.9</ele>
        <time>2026-02-22T10:39:07Z</time>
      </trkpt>
      <trkpt lat="43.60044" lon="6.39147">
        <ele>537.9</ele>
        <time>2026-02-22T10:39:08Z</time>
      </trkpt>
      <trkpt lat="43.60042" lon="6.39147">
        <ele>538</ele>
        <time>2026-02-22T10:39:09Z</time>
      </trkpt>
      <trkpt lat="43.60042" lon="6.39147">
        <ele>538</ele>
        <time>2026-02-22T10:39:10Z</time>
      </trkpt>
      <trkpt lat="43.60041" lon="6.39147">
        <ele>538</ele>
        <time>2026-02-22T10:39:11Z</time>
      </trkpt>
      <trkpt lat="43.6004" lon="6.39146">
        <ele>538.1</ele>
        <time>2026-02-22T10:39:12Z</time>
      </trkpt>
      <trkpt lat="43.60038" lon="6.39146">
        <ele>538</ele>
        <time>2026-02-22T10:39:13Z</time>
      </trkpt>
      <trkpt lat="43.60037" lon="6.39146">
        <ele>538</ele>
        <time>2026-02-22T10:39:14Z</time>
      </trkpt>
      <trkpt lat="43.60036" lon="6.39146">
        <ele>537.9</ele>
        <time>2026-02-22T10:39:15Z</time>
      </trkpt>
      <trkpt lat="43.60036" lon="6.39146">
        <ele>537.8</ele>
        <time>2026-02-22T10:39:16Z</time>
      </trkpt>
      <trkpt lat="43.60034" lon="6.39146">
        <ele>537.9</ele>
        <time>2026-02-22T10:39:17Z</time>
      </trkpt>
      <trkpt lat="43.60033" lon="6.39146">
        <ele>537.9</ele>
        <time>2026-02-22T10:39:18Z</time>
      </trkpt>
      <trkpt lat="43.60032" lon="6.39145">
        <ele>537.9</ele>
        <time>2026-02-22T10:39:19Z</time>
      </trkpt>
      <trkpt lat="43.60031" lon="6.39146">
        <ele>537.7</ele>
        <time>2026-02-22T10:39:20Z</time>
      </trkpt>
      <trkpt lat="43.6003" lon="6.39146">
        <ele>537.6</ele>
        <time>2026-02-22T10:39:21Z</time>
      </trkpt>
      <trkpt lat="43.60029" lon="6.39146">
        <ele>537.6</ele>
        <time>2026-02-22T10:39:22Z</time>
      </trkpt>
      <trkpt lat="43.60028" lon="6.39146">
        <ele>537.7</ele>
        <time>2026-02-22T10:39:23Z</time>
      </trkpt>
      <trkpt lat="43.60027" lon="6.39146">
        <ele>537.7</ele>
        <time>2026-02-22T10:39:24Z</time>
      </trkpt>
      <trkpt lat="43.60025" lon="6.39147">
        <ele>537.8</ele>
        <time>2026-02-22T10:39:25Z</time>
      </trkpt>
      <trkpt lat="43.60025" lon="6.39148">
        <ele>537.7</ele>
        <time>2026-02-22T10:39:26Z</time>
      </trkpt>
      <trkpt lat="43.60024" lon="6.39149">
        <ele>537.7</ele>
        <time>2026-02-22T10:39:27Z</time>
      </trkpt>
      <trkpt lat="43.60023" lon="6.39149">
        <ele>537.6</ele>
        <time>2026-02-22T10:39:28Z</time>
      </trkpt>
      <trkpt lat="43.60022" lon="6.3915">
        <ele>537.7</ele>
        <time>2026-02-22T10:39:29Z</time>
      </trkpt>
      <trkpt lat="43.60022" lon="6.39151">
        <ele>537.8</ele>
        <time>2026-02-22T10:39:30Z</time>
      </trkpt>
      <trkpt lat="43.60021" lon="6.39151">
        <ele>537.8</ele>
        <time>2026-02-22T10:39:31Z</time>
      </trkpt>
      <trkpt lat="43.60021" lon="6.39151">
        <ele>537.8</ele>
        <time>2026-02-22T10:39:32Z</time>
      </trkpt>
      <trkpt lat="43.6002" lon="6.39152">
        <ele>537.8</ele>
        <time>2026-02-22T10:39:33Z</time>
      </trkpt>
      <trkpt lat="43.60019" lon="6.39153">
        <ele>537.8</ele>
        <time>2026-02-22T10:39:34Z</time>
      </trkpt>
      <trkpt lat="43.60017" lon="6.39154">
        <ele>537.8</ele>
        <time>2026-02-22T10:39:35Z</time>
      </trkpt>
      <trkpt lat="43.60017" lon="6.39154">
        <ele>537.8</ele>
        <time>2026-02-22T10:39:36Z</time>
      </trkpt>
      <trkpt lat="43.60015" lon="6.39154">
        <ele>537.8</ele>
        <time>2026-02-22T10:39:37Z</time>
      </trkpt>
      <trkpt lat="43.60014" lon="6.39154">
        <ele>537.8</ele>
        <time>2026-02-22T10:39:38Z</time>
      </trkpt>
      <trkpt lat="43.60012" lon="6.39155">
        <ele>537.8</ele>
        <time>2026-02-22T10:39:39Z</time>
      </trkpt>
      <trkpt lat="43.60011" lon="6.39155">
        <ele>537.7</ele>
        <time>2026-02-22T10:39:40Z</time>
      </trkpt>
      <trkpt lat="43.6001" lon="6.39156">
        <ele>537.7</ele>
        <time>2026-02-22T10:39:41Z</time>
      </trkpt>
      <trkpt lat="43.60009" lon="6.39156">
        <ele>537.7</ele>
        <time>2026-02-22T10:39:42Z</time>
      </trkpt>
      <trkpt lat="43.60008" lon="6.39156">
        <ele>537.8</ele>
        <time>2026-02-22T10:39:43Z</time>
      </trkpt>
      <trkpt lat="43.60006" lon="6.39156">
        <ele>537.8</ele>
        <time>2026-02-22T10:39:44Z</time>
      </trkpt>
      <trkpt lat="43.60005" lon="6.39156">
        <ele>537.9</ele>
        <time>2026-02-22T10:39:45Z</time>
      </trkpt>
      <trkpt lat="43.60004" lon="6.39156">
        <ele>537.9</ele>
        <time>2026-02-22T10:39:46Z</time>
      </trkpt>
      <trkpt lat="43.60003" lon="6.39156">
        <ele>538</ele>
        <time>2026-02-22T10:39:47Z</time>
      </trkpt>
      <trkpt lat="43.60002" lon="6.39157">
        <ele>538</ele>
        <time>2026-02-22T10:39:48Z</time>
      </trkpt>
      <trkpt lat="43.60001" lon="6.39157">
        <ele>538</ele>
        <time>2026-02-22T10:39:49Z</time>
      </trkpt>
      <trkpt lat="43.6" lon="6.39157">
        <ele>538</ele>
        <time>2026-02-22T10:39:50Z</time>
      </trkpt>
      <trkpt lat="43.59999" lon="6.39157">
        <ele>538.1</ele>
        <time>2026-02-22T10:39:51Z</time>
      </trkpt>
      <trkpt lat="43.59998" lon="6.39158">
        <ele>538.2</ele>
        <time>2026-02-22T10:39:52Z</time>
      </trkpt>
      <trkpt lat="43.59997" lon="6.39158">
        <ele>538.1</ele>
        <time>2026-02-22T10:39:53Z</time>
      </trkpt>
      <trkpt lat="43.59996" lon="6.39158">
        <ele>538</ele>
        <time>2026-02-22T10:39:54Z</time>
      </trkpt>
      <trkpt lat="43.59996" lon="6.39159">
        <ele>537.9</ele>
        <time>2026-02-22T10:39:55Z</time>
      </trkpt>
      <trkpt lat="43.59996" lon="6.39159">
        <ele>537.9</ele>
        <time>2026-02-22T10:39:56Z</time>
      </trkpt>
      <trkpt lat="43.59996" lon="6.3916">
        <ele>537.9</ele>
        <time>2026-02-22T10:39:57Z</time>
      </trkpt>
      <trkpt lat="43.59996" lon="6.3916">
        <ele>537.8</ele>
        <time>2026-02-22T10:39:58Z</time>
      </trkpt>
      <trkpt lat="43.59995" lon="6.3916">
        <ele>537.7</ele>
        <time>2026-02-22T10:39:59Z</time>
      </trkpt>
      <trkpt lat="43.59995" lon="6.3916">
        <ele>537.6</ele>
        <time>2026-02-22T10:40:00Z</time>
      </trkpt>
      <trkpt lat="43.59994" lon="6.39159">
        <ele>537.7</ele>
        <time>2026-02-22T10:40:01Z</time>
      </trkpt>
      <trkpt lat="43.59993" lon="6.39159">
        <ele>537.7</ele>
        <time>2026-02-22T10:40:02Z</time>
      </trkpt>
      <trkpt lat="43.59992" lon="6.39159">
        <ele>537.7</ele>
        <time>2026-02-22T10:40:03Z</time>
      </trkpt>
      <trkpt lat="43.59991" lon="6.39159">
        <ele>537.6</ele>
        <time>2026-02-22T10:40:04Z</time>
      </trkpt>
      <trkpt lat="43.5999" lon="6.39158">
        <ele>537.6</ele>
        <time>2026-02-22T10:40:05Z</time>
      </trkpt>
      <trkpt lat="43.59989" lon="6.39158">
        <ele>537.5</ele>
        <time>2026-02-22T10:40:06Z</time>
      </trkpt>
      <trkpt lat="43.59988" lon="6.39157">
        <ele>537.5</ele>
        <time>2026-02-22T10:40:07Z</time>
      </trkpt>
      <trkpt lat="43.59987" lon="6.39156">
        <ele>537.5</ele>
        <time>2026-02-22T10:40:08Z</time>
      </trkpt>
      <trkpt lat="43.59986" lon="6.39156">
        <ele>537.5</ele>
        <time>2026-02-22T10:40:09Z</time>
      </trkpt>
      <trkpt lat="43.59985" lon="6.39155">
        <ele>537.6</ele>
        <time>2026-02-22T10:40:10Z</time>
      </trkpt>
      <trkpt lat="43.59984" lon="6.39155">
        <ele>537.7</ele>
        <time>2026-02-22T10:40:11Z</time>
      </trkpt>
      <trkpt lat="43.59983" lon="6.39154">
        <ele>537.9</ele>
        <time>2026-02-22T10:40:12Z</time>
      </trkpt>
      <trkpt lat="43.59982" lon="6.39154">
        <ele>538</ele>
        <time>2026-02-22T10:40:13Z</time>
      </trkpt>
      <trkpt lat="43.59981" lon="6.39154">
        <ele>538.1</ele>
        <time>2026-02-22T10:40:14Z</time>
      </trkpt>
      <trkpt lat="43.5998" lon="6.39154">
        <ele>538.2</ele>
        <time>2026-02-22T10:40:15Z</time>
      </trkpt>
      <trkpt lat="43.5998" lon="6.39154">
        <ele>538.3</ele>
        <time>2026-02-22T10:40:16Z</time>
      </trkpt>
      <trkpt lat="43.59979" lon="6.39154">
        <ele>538.3</ele>
        <time>2026-02-22T10:40:17Z</time>
      </trkpt>
      <trkpt lat="43.59979" lon="6.39154">
        <ele>538.3</ele>
        <time>2026-02-22T10:40:18Z</time>
      </trkpt>
      <trkpt lat="43.59978" lon="6.39153">
        <ele>538.3</ele>
        <time>2026-02-22T10:40:19Z</time>
      </trkpt>
      <trkpt lat="43.59977" lon="6.39153">
        <ele>538.3</ele>
        <time>2026-02-22T10:40:20Z</time>
      </trkpt>
      <trkpt lat="43.59976" lon="6.39153">
        <ele>538.4</ele>
        <time>2026-02-22T10:40:21Z</time>
      </trkpt>
      <trkpt lat="43.59975" lon="6.39153">
        <ele>538.4</ele>
        <time>2026-02-22T10:40:22Z</time>
      </trkpt>
      <trkpt lat="43.59975" lon="6.39153">
        <ele>538.4</ele>
        <time>2026-02-22T10:40:23Z</time>
      </trkpt>
      <trkpt lat="43.59974" lon="6.39153">
        <ele>538.4</ele>
        <time>2026-02-22T10:40:24Z</time>
      </trkpt>
      <trkpt lat="43.59973" lon="6.39152">
        <ele>538.5</ele>
        <time>2026-02-22T10:40:25Z</time>
      </trkpt>
      <trkpt lat="43.59973" lon="6.39153">
        <ele>538.6</ele>
        <time>2026-02-22T10:40:26Z</time>
      </trkpt>
      <trkpt lat="43.59972" lon="6.39153">
        <ele>538.6</ele>
        <time>2026-02-22T10:40:27Z</time>
      </trkpt>
      <trkpt lat="43.59971" lon="6.39154">
        <ele>538.7</ele>
        <time>2026-02-22T10:40:28Z</time>
      </trkpt>
      <trkpt lat="43.5997" lon="6.39155">
        <ele>538.7</ele>
        <time>2026-02-22T10:40:29Z</time>
      </trkpt>
      <trkpt lat="43.59969" lon="6.39155">
        <ele>538.7</ele>
        <time>2026-02-22T10:40:30Z</time>
      </trkpt>
      <trkpt lat="43.59968" lon="6.39156">
        <ele>538.7</ele>
        <time>2026-02-22T10:40:31Z</time>
      </trkpt>
      <trkpt lat="43.59968" lon="6.39157">
        <ele>538.7</ele>
        <time>2026-02-22T10:40:32Z</time>
      </trkpt>
      <trkpt lat="43.59967" lon="6.39158">
        <ele>538.7</ele>
        <time>2026-02-22T10:40:33Z</time>
      </trkpt>
      <trkpt lat="43.59966" lon="6.39159">
        <ele>538.5</ele>
        <time>2026-02-22T10:40:34Z</time>
      </trkpt>
      <trkpt lat="43.59966" lon="6.3916">
        <ele>538.4</ele>
        <time>2026-02-22T10:40:35Z</time>
      </trkpt>
      <trkpt lat="43.59965" lon="6.39161">
        <ele>538.2</ele>
        <time>2026-02-22T10:40:36Z</time>
      </trkpt>
      <trkpt lat="43.59964" lon="6.39162">
        <ele>538.1</ele>
        <time>2026-02-22T10:40:37Z</time>
      </trkpt>
      <trkpt lat="43.59963" lon="6.39164">
        <ele>538.1</ele>
        <time>2026-02-22T10:40:38Z</time>
      </trkpt>
      <trkpt lat="43.59963" lon="6.39165">
        <ele>537.9</ele>
        <time>2026-02-22T10:40:39Z</time>
      </trkpt>
      <trkpt lat="43.59962" lon="6.39167">
        <ele>537.8</ele>
        <time>2026-02-22T10:40:40Z</time>
      </trkpt>
      <trkpt lat="43.59961" lon="6.39168">
        <ele>537.7</ele>
        <time>2026-02-22T10:40:41Z</time>
      </trkpt>
      <trkpt lat="43.5996" lon="6.39171">
        <ele>537.7</ele>
        <time>2026-02-22T10:40:42Z</time>
      </trkpt>
      <trkpt lat="43.59959" lon="6.39173">
        <ele>537.6</ele>
        <time>2026-02-22T10:40:43Z</time>
      </trkpt>
      <trkpt lat="43.59959" lon="6.39174">
        <ele>537.6</ele>
        <time>2026-02-22T10:40:44Z</time>
      </trkpt>
      <trkpt lat="43.59959" lon="6.39176">
        <ele>537.5</ele>
        <time>2026-02-22T10:40:45Z</time>
      </trkpt>
      <trkpt lat="43.59959" lon="6.39179">
        <ele>537.5</ele>
        <time>2026-02-22T10:40:46Z</time>
      </trkpt>
      <trkpt lat="43.59958" lon="6.39179">
        <ele>537.5</ele>
        <time>2026-02-22T10:40:47Z</time>
      </trkpt>
      <trkpt lat="43.59957" lon="6.3918">
        <ele>537.5</ele>
        <time>2026-02-22T10:40:48Z</time>
      </trkpt>
      <trkpt lat="43.59956" lon="6.39181">
        <ele>537.4</ele>
        <time>2026-02-22T10:40:49Z</time>
      </trkpt>
      <trkpt lat="43.59956" lon="6.39183">
        <ele>537.3</ele>
        <time>2026-02-22T10:40:50Z</time>
      </trkpt>
      <trkpt lat="43.59955" lon="6.39184">
        <ele>537.2</ele>
        <time>2026-02-22T10:40:51Z</time>
      </trkpt>
      <trkpt lat="43.59955" lon="6.39186">
        <ele>537.1</ele>
        <time>2026-02-22T10:40:52Z</time>
      </trkpt>
      <trkpt lat="43.59955" lon="6.39187">
        <ele>537</ele>
        <time>2026-02-22T10:40:53Z</time>
      </trkpt>
      <trkpt lat="43.59955" lon="6.39189">
        <ele>536.9</ele>
        <time>2026-02-22T10:40:54Z</time>
      </trkpt>
      <trkpt lat="43.59955" lon="6.39191">
        <ele>536.8</ele>
        <time>2026-02-22T10:40:55Z</time>
      </trkpt>
      <trkpt lat="43.59955" lon="6.39192">
        <ele>536.8</ele>
        <time>2026-02-22T10:40:56Z</time>
      </trkpt>
      <trkpt lat="43.59954" lon="6.39194">
        <ele>536.7</ele>
        <time>2026-02-22T10:40:57Z</time>
      </trkpt>
      <trkpt lat="43.59954" lon="6.39196">
        <ele>536.7</ele>
        <time>2026-02-22T10:40:58Z</time>
      </trkpt>
      <trkpt lat="43.59954" lon="6.39197">
        <ele>536.6</ele>
        <time>2026-02-22T10:40:59Z</time>
      </trkpt>
      <trkpt lat="43.59954" lon="6.39199">
        <ele>536.6</ele>
        <time>2026-02-22T10:41:00Z</time>
      </trkpt>
      <trkpt lat="43.59954" lon="6.39201">
        <ele>536.5</ele>
        <time>2026-02-22T10:41:01Z</time>
      </trkpt>
      <trkpt lat="43.59954" lon="6.39202">
        <ele>536.4</ele>
        <time>2026-02-22T10:41:02Z</time>
      </trkpt>
      <trkpt lat="43.59954" lon="6.39204">
        <ele>536.3</ele>
        <time>2026-02-22T10:41:03Z</time>
      </trkpt>
      <trkpt lat="43.59954" lon="6.39205">
        <ele>536.2</ele>
        <time>2026-02-22T10:41:04Z</time>
      </trkpt>
      <trkpt lat="43.59954" lon="6.39207">
        <ele>536.2</ele>
        <time>2026-02-22T10:41:05Z</time>
      </trkpt>
      <trkpt lat="43.59954" lon="6.39208">
        <ele>536.1</ele>
        <time>2026-02-22T10:41:06Z</time>
      </trkpt>
      <trkpt lat="43.59954" lon="6.39209">
        <ele>536</ele>
        <time>2026-02-22T10:41:07Z</time>
      </trkpt>
      <trkpt lat="43.59954" lon="6.39211">
        <ele>536</ele>
        <time>2026-02-22T10:41:08Z</time>
      </trkpt>
      <trkpt lat="43.59954" lon="6.39213">
        <ele>536</ele>
        <time>2026-02-22T10:41:09Z</time>
      </trkpt>
      <trkpt lat="43.59954" lon="6.39214">
        <ele>535.9</ele>
        <time>2026-02-22T10:41:10Z</time>
      </trkpt>
      <trkpt lat="43.59954" lon="6.39215">
        <ele>535.9</ele>
        <time>2026-02-22T10:41:11Z</time>
      </trkpt>
      <trkpt lat="43.59953" lon="6.39215">
        <ele>535.9</ele>
        <time>2026-02-22T10:41:12Z</time>
      </trkpt>
      <trkpt lat="43.59953" lon="6.39215">
        <ele>535.8</ele>
        <time>2026-02-22T10:41:13Z</time>
      </trkpt>
      <trkpt lat="43.59953" lon="6.39215">
        <ele>535.6</ele>
        <time>2026-02-22T10:41:14Z</time>
      </trkpt>
      <trkpt lat="43.59953" lon="6.39216">
        <ele>535.6</ele>
        <time>2026-02-22T10:41:15Z</time>
      </trkpt>
      <trkpt lat="43.59953" lon="6.39216">
        <ele>535.5</ele>
        <time>2026-02-22T10:41:16Z</time>
      </trkpt>
      <trkpt lat="43.59953" lon="6.39216">
        <ele>535.6</ele>
        <time>2026-02-22T10:41:17Z</time>
      </trkpt>
      <trkpt lat="43.59953" lon="6.39217">
        <ele>535.6</ele>
        <time>2026-02-22T10:41:18Z</time>
      </trkpt>
      <trkpt lat="43.59953" lon="6.39218">
        <ele>535.6</ele>
        <time>2026-02-22T10:41:19Z</time>
      </trkpt>
      <trkpt lat="43.59953" lon="6.39218">
        <ele>535.7</ele>
        <time>2026-02-22T10:41:20Z</time>
      </trkpt>
      <trkpt lat="43.59953" lon="6.39219">
        <ele>535.6</ele>
        <time>2026-02-22T10:41:21Z</time>
      </trkpt>
      <trkpt lat="43.59953" lon="6.39221">
        <ele>535.6</ele>
        <time>2026-02-22T10:41:22Z</time>
      </trkpt>
      <trkpt lat="43.59952" lon="6.39222">
        <ele>535.6</ele>
        <time>2026-02-22T10:41:23Z</time>
      </trkpt>
      <trkpt lat="43.59952" lon="6.39223">
        <ele>535.5</ele>
        <time>2026-02-22T10:41:24Z</time>
      </trkpt>
      <trkpt lat="43.59951" lon="6.39224">
        <ele>535.5</ele>
        <time>2026-02-22T10:41:25Z</time>
      </trkpt>
      <trkpt lat="43.59951" lon="6.39225">
        <ele>535.4</ele>
        <time>2026-02-22T10:41:26Z</time>
      </trkpt>
      <trkpt lat="43.5995" lon="6.39227">
        <ele>535.3</ele>
        <time>2026-02-22T10:41:27Z</time>
      </trkpt>
      <trkpt lat="43.5995" lon="6.39228">
        <ele>535.2</ele>
        <time>2026-02-22T10:41:28Z</time>
      </trkpt>
      <trkpt lat="43.59949" lon="6.39228">
        <ele>535.2</ele>
        <time>2026-02-22T10:41:29Z</time>
      </trkpt>
      <trkpt lat="43.59948" lon="6.39229">
        <ele>535.2</ele>
        <time>2026-02-22T10:41:30Z</time>
      </trkpt>
      <trkpt lat="43.59947" lon="6.39231">
        <ele>535.3</ele>
        <time>2026-02-22T10:41:31Z</time>
      </trkpt>
      <trkpt lat="43.59946" lon="6.39232">
        <ele>535.3</ele>
        <time>2026-02-22T10:41:32Z</time>
      </trkpt>
      <trkpt lat="43.59946" lon="6.39233">
        <ele>535.3</ele>
        <time>2026-02-22T10:41:33Z</time>
      </trkpt>
      <trkpt lat="43.59945" lon="6.39234">
        <ele>535.3</ele>
        <time>2026-02-22T10:41:34Z</time>
      </trkpt>
      <trkpt lat="43.59944" lon="6.39235">
        <ele>535.3</ele>
        <time>2026-02-22T10:41:35Z</time>
      </trkpt>
      <trkpt lat="43.59943" lon="6.39236">
        <ele>535.3</ele>
        <time>2026-02-22T10:41:36Z</time>
      </trkpt>
      <trkpt lat="43.59942" lon="6.39238">
        <ele>535.3</ele>
        <time>2026-02-22T10:41:37Z</time>
      </trkpt>
      <trkpt lat="43.59942" lon="6.39239">
        <ele>535.3</ele>
        <time>2026-02-22T10:41:38Z</time>
      </trkpt>
      <trkpt lat="43.59941" lon="6.39241">
        <ele>535.3</ele>
        <time>2026-02-22T10:41:39Z</time>
      </trkpt>
      <trkpt lat="43.5994" lon="6.39241">
        <ele>535.2</ele>
        <time>2026-02-22T10:41:40Z</time>
      </trkpt>
      <trkpt lat="43.5994" lon="6.39243">
        <ele>535.2</ele>
        <time>2026-02-22T10:41:41Z</time>
      </trkpt>
      <trkpt lat="43.59939" lon="6.39245">
        <ele>535.2</ele>
        <time>2026-02-22T10:41:42Z</time>
      </trkpt>
      <trkpt lat="43.59938" lon="6.39246">
        <ele>535.2</ele>
        <time>2026-02-22T10:41:43Z</time>
      </trkpt>
      <trkpt lat="43.59938" lon="6.39247">
        <ele>535.3</ele>
        <time>2026-02-22T10:41:44Z</time>
      </trkpt>
      <trkpt lat="43.59937" lon="6.39248">
        <ele>535.4</ele>
        <time>2026-02-22T10:41:45Z</time>
      </trkpt>
      <trkpt lat="43.59937" lon="6.39249">
        <ele>535.4</ele>
        <time>2026-02-22T10:41:46Z</time>
      </trkpt>
      <trkpt lat="43.59938" lon="6.3925">
        <ele>535.4</ele>
        <time>2026-02-22T10:41:47Z</time>
      </trkpt>
      <trkpt lat="43.59938" lon="6.39251">
        <ele>535.5</ele>
        <time>2026-02-22T10:41:48Z</time>
      </trkpt>
      <trkpt lat="43.59938" lon="6.39253">
        <ele>535.5</ele>
        <time>2026-02-22T10:41:49Z</time>
      </trkpt>
      <trkpt lat="43.59937" lon="6.39254">
        <ele>535.5</ele>
        <time>2026-02-22T10:41:50Z</time>
      </trkpt>
      <trkpt lat="43.59937" lon="6.39256">
        <ele>535.5</ele>
        <time>2026-02-22T10:41:51Z</time>
      </trkpt>
      <trkpt lat="43.59936" lon="6.39257">
        <ele>535.5</ele>
        <time>2026-02-22T10:41:52Z</time>
      </trkpt>
      <trkpt lat="43.59935" lon="6.39258">
        <ele>535.6</ele>
        <time>2026-02-22T10:41:53Z</time>
      </trkpt>
      <trkpt lat="43.59934" lon="6.39259">
        <ele>535.6</ele>
        <time>2026-02-22T10:41:54Z</time>
      </trkpt>
      <trkpt lat="43.59933" lon="6.3926">
        <ele>535.6</ele>
        <time>2026-02-22T10:41:55Z</time>
      </trkpt>
      <trkpt lat="43.59933" lon="6.39261">
        <ele>535.6</ele>
        <time>2026-02-22T10:41:56Z</time>
      </trkpt>
      <trkpt lat="43.59932" lon="6.39263">
        <ele>535.6</ele>
        <time>2026-02-22T10:41:57Z</time>
      </trkpt>
      <trkpt lat="43.59931" lon="6.39264">
        <ele>535.6</ele>
        <time>2026-02-22T10:41:58Z</time>
      </trkpt>
      <trkpt lat="43.59931" lon="6.39266">
        <ele>535.6</ele>
        <time>2026-02-22T10:41:59Z</time>
      </trkpt>
      <trkpt lat="43.5993" lon="6.39267">
        <ele>535.6</ele>
        <time>2026-02-22T10:42:00Z</time>
      </trkpt>
      <trkpt lat="43.5993" lon="6.39268">
        <ele>535.8</ele>
        <time>2026-02-22T10:42:01Z</time>
      </trkpt>
      <trkpt lat="43.59929" lon="6.3927">
        <ele>535.8</ele>
        <time>2026-02-22T10:42:02Z</time>
      </trkpt>
      <trkpt lat="43.59928" lon="6.39271">
        <ele>536</ele>
        <time>2026-02-22T10:42:03Z</time>
      </trkpt>
      <trkpt lat="43.59928" lon="6.39272">
        <ele>536.1</ele>
        <time>2026-02-22T10:42:04Z</time>
      </trkpt>
      <trkpt lat="43.59927" lon="6.39274">
        <ele>536.2</ele>
        <time>2026-02-22T10:42:05Z</time>
      </trkpt>
      <trkpt lat="43.59926" lon="6.39275">
        <ele>536.1</ele>
        <time>2026-02-22T10:42:06Z</time>
      </trkpt>
      <trkpt lat="43.59925" lon="6.39275">
        <ele>536.1</ele>
        <time>2026-02-22T10:42:07Z</time>
      </trkpt>
      <trkpt lat="43.59924" lon="6.39276">
        <ele>536.1</ele>
        <time>2026-02-22T10:42:08Z</time>
      </trkpt>
      <trkpt lat="43.59924" lon="6.39278">
        <ele>536</ele>
        <time>2026-02-22T10:42:09Z</time>
      </trkpt>
      <trkpt lat="43.59923" lon="6.3928">
        <ele>535.9</ele>
        <time>2026-02-22T10:42:10Z</time>
      </trkpt>
      <trkpt lat="43.59923" lon="6.39281">
        <ele>536</ele>
        <time>2026-02-22T10:42:11Z</time>
      </trkpt>
      <trkpt lat="43.59923" lon="6.39283">
        <ele>536</ele>
        <time>2026-02-22T10:42:12Z</time>
      </trkpt>
      <trkpt lat="43.59922" lon="6.39285">
        <ele>536</ele>
        <time>2026-02-22T10:42:13Z</time>
      </trkpt>
      <trkpt lat="43.59922" lon="6.39286">
        <ele>536</ele>
        <time>2026-02-22T10:42:14Z</time>
      </trkpt>
      <trkpt lat="43.59921" lon="6.39288">
        <ele>536</ele>
        <time>2026-02-22T10:42:15Z</time>
      </trkpt>
      <trkpt lat="43.59921" lon="6.39289">
        <ele>536.1</ele>
        <time>2026-02-22T10:42:16Z</time>
      </trkpt>
      <trkpt lat="43.5992" lon="6.3929">
        <ele>536.1</ele>
        <time>2026-02-22T10:42:17Z</time>
      </trkpt>
      <trkpt lat="43.59919" lon="6.39291">
        <ele>536.1</ele>
        <time>2026-02-22T10:42:18Z</time>
      </trkpt>
      <trkpt lat="43.59918" lon="6.39293">
        <ele>536.2</ele>
        <time>2026-02-22T10:42:19Z</time>
      </trkpt>
      <trkpt lat="43.59917" lon="6.39294">
        <ele>536.3</ele>
        <time>2026-02-22T10:42:20Z</time>
      </trkpt>
      <trkpt lat="43.59917" lon="6.39295">
        <ele>536.4</ele>
        <time>2026-02-22T10:42:21Z</time>
      </trkpt>
      <trkpt lat="43.59916" lon="6.39297">
        <ele>536.4</ele>
        <time>2026-02-22T10:42:22Z</time>
      </trkpt>
      <trkpt lat="43.59915" lon="6.39298">
        <ele>536.5</ele>
        <time>2026-02-22T10:42:23Z</time>
      </trkpt>
      <trkpt lat="43.59915" lon="6.39299">
        <ele>536.5</ele>
        <time>2026-02-22T10:42:24Z</time>
      </trkpt>
      <trkpt lat="43.59914" lon="6.39301">
        <ele>536.5</ele>
        <time>2026-02-22T10:42:25Z</time>
      </trkpt>
      <trkpt lat="43.59914" lon="6.39302">
        <ele>536.6</ele>
        <time>2026-02-22T10:42:26Z</time>
      </trkpt>
      <trkpt lat="43.59914" lon="6.39304">
        <ele>536.8</ele>
        <time>2026-02-22T10:42:27Z</time>
      </trkpt>
      <trkpt lat="43.59914" lon="6.39305">
        <ele>536.8</ele>
        <time>2026-02-22T10:42:28Z</time>
      </trkpt>
      <trkpt lat="43.59913" lon="6.39307">
        <ele>536.9</ele>
        <time>2026-02-22T10:42:29Z</time>
      </trkpt>
      <trkpt lat="43.59913" lon="6.39308">
        <ele>537</ele>
        <time>2026-02-22T10:42:30Z</time>
      </trkpt>
      <trkpt lat="43.59913" lon="6.3931">
        <ele>537.1</ele>
        <time>2026-02-22T10:42:31Z</time>
      </trkpt>
      <trkpt lat="43.59913" lon="6.39311">
        <ele>537.3</ele>
        <time>2026-02-22T10:42:32Z</time>
      </trkpt>
      <trkpt lat="43.59912" lon="6.39312">
        <ele>537.4</ele>
        <time>2026-02-22T10:42:33Z</time>
      </trkpt>
      <trkpt lat="43.59911" lon="6.39313">
        <ele>537.6</ele>
        <time>2026-02-22T10:42:34Z</time>
      </trkpt>
      <trkpt lat="43.59911" lon="6.39314">
        <ele>537.6</ele>
        <time>2026-02-22T10:42:35Z</time>
      </trkpt>
      <trkpt lat="43.5991" lon="6.39314">
        <ele>537.7</ele>
        <time>2026-02-22T10:42:36Z</time>
      </trkpt>
      <trkpt lat="43.59909" lon="6.39315">
        <ele>537.8</ele>
        <time>2026-02-22T10:42:37Z</time>
      </trkpt>
      <trkpt lat="43.59908" lon="6.39316">
        <ele>537.9</ele>
        <time>2026-02-22T10:42:38Z</time>
      </trkpt>
      <trkpt lat="43.59908" lon="6.39316">
        <ele>538.1</ele>
        <time>2026-02-22T10:42:39Z</time>
      </trkpt>
      <trkpt lat="43.59906" lon="6.39317">
        <ele>538.3</ele>
        <time>2026-02-22T10:42:40Z</time>
      </trkpt>
      <trkpt lat="43.59906" lon="6.39318">
        <ele>538.4</ele>
        <time>2026-02-22T10:42:41Z</time>
      </trkpt>
      <trkpt lat="43.59905" lon="6.3932">
        <ele>538.5</ele>
        <time>2026-02-22T10:42:42Z</time>
      </trkpt>
      <trkpt lat="43.59904" lon="6.39321">
        <ele>538.7</ele>
        <time>2026-02-22T10:42:43Z</time>
      </trkpt>
      <trkpt lat="43.59903" lon="6.39322">
        <ele>538.9</ele>
        <time>2026-02-22T10:42:44Z</time>
      </trkpt>
      <trkpt lat="43.59903" lon="6.39323">
        <ele>539.1</ele>
        <time>2026-02-22T10:42:45Z</time>
      </trkpt>
      <trkpt lat="43.59902" lon="6.39323">
        <ele>539.2</ele>
        <time>2026-02-22T10:42:46Z</time>
      </trkpt>
      <trkpt lat="43.59902" lon="6.39324">
        <ele>539.2</ele>
        <time>2026-02-22T10:42:47Z</time>
      </trkpt>
      <trkpt lat="43.59902" lon="6.39325">
        <ele>539.4</ele>
        <time>2026-02-22T10:42:48Z</time>
      </trkpt>
      <trkpt lat="43.59901" lon="6.39326">
        <ele>539.4</ele>
        <time>2026-02-22T10:42:49Z</time>
      </trkpt>
      <trkpt lat="43.59901" lon="6.39327">
        <ele>539.6</ele>
        <time>2026-02-22T10:42:50Z</time>
      </trkpt>
      <trkpt lat="43.599" lon="6.39329">
        <ele>539.7</ele>
        <time>2026-02-22T10:42:51Z</time>
      </trkpt>
      <trkpt lat="43.599" lon="6.3933">
        <ele>539.9</ele>
        <time>2026-02-22T10:42:52Z</time>
      </trkpt>
      <trkpt lat="43.599" lon="6.39331">
        <ele>540.1</ele>
        <time>2026-02-22T10:42:53Z</time>
      </trkpt>
      <trkpt lat="43.59899" lon="6.39332">
        <ele>540.3</ele>
        <time>2026-02-22T10:42:54Z</time>
      </trkpt>
      <trkpt lat="43.59898" lon="6.39332">
        <ele>540.4</ele>
        <time>2026-02-22T10:42:55Z</time>
      </trkpt>
      <trkpt lat="43.59898" lon="6.39332">
        <ele>540.6</ele>
        <time>2026-02-22T10:42:56Z</time>
      </trkpt>
      <trkpt lat="43.59897" lon="6.39334">
        <ele>540.9</ele>
        <time>2026-02-22T10:42:57Z</time>
      </trkpt>
      <trkpt lat="43.59896" lon="6.39334">
        <ele>541.1</ele>
        <time>2026-02-22T10:42:58Z</time>
      </trkpt>
      <trkpt lat="43.59896" lon="6.39335">
        <ele>541.3</ele>
        <time>2026-02-22T10:42:59Z</time>
      </trkpt>
      <trkpt lat="43.59895" lon="6.39336">
        <ele>541.4</ele>
        <time>2026-02-22T10:43:00Z</time>
      </trkpt>
      <trkpt lat="43.59894" lon="6.39337">
        <ele>541.5</ele>
        <time>2026-02-22T10:43:01Z</time>
      </trkpt>
      <trkpt lat="43.59894" lon="6.39337">
        <ele>541.6</ele>
        <time>2026-02-22T10:43:02Z</time>
      </trkpt>
      <trkpt lat="43.59894" lon="6.39338">
        <ele>541.9</ele>
        <time>2026-02-22T10:43:03Z</time>
      </trkpt>
      <trkpt lat="43.59893" lon="6.39339">
        <ele>542.1</ele>
        <time>2026-02-22T10:43:04Z</time>
      </trkpt>
      <trkpt lat="43.59893" lon="6.3934">
        <ele>542.3</ele>
        <time>2026-02-22T10:43:05Z</time>
      </trkpt>
      <trkpt lat="43.59891" lon="6.3934">
        <ele>542.5</ele>
        <time>2026-02-22T10:43:06Z</time>
      </trkpt>
      <trkpt lat="43.59891" lon="6.3934">
        <ele>542.7</ele>
        <time>2026-02-22T10:43:07Z</time>
      </trkpt>
      <trkpt lat="43.5989" lon="6.39341">
        <ele>542.9</ele>
        <time>2026-02-22T10:43:08Z</time>
      </trkpt>
      <trkpt lat="43.59889" lon="6.39341">
        <ele>543.1</ele>
        <time>2026-02-22T10:43:09Z</time>
      </trkpt>
      <trkpt lat="43.59888" lon="6.39342">
        <ele>543.3</ele>
        <time>2026-02-22T10:43:10Z</time>
      </trkpt>
      <trkpt lat="43.59887" lon="6.39344">
        <ele>543.4</ele>
        <time>2026-02-22T10:43:11Z</time>
      </trkpt>
      <trkpt lat="43.59886" lon="6.39346">
        <ele>543.6</ele>
        <time>2026-02-22T10:43:12Z</time>
      </trkpt>
      <trkpt lat="43.59885" lon="6.39347">
        <ele>543.8</ele>
        <time>2026-02-22T10:43:13Z</time>
      </trkpt>
      <trkpt lat="43.59884" lon="6.39348">
        <ele>544.1</ele>
        <time>2026-02-22T10:43:14Z</time>
      </trkpt>
      <trkpt lat="43.59883" lon="6.3935">
        <ele>544.2</ele>
        <time>2026-02-22T10:43:15Z</time>
      </trkpt>
      <trkpt lat="43.59883" lon="6.39351">
        <ele>544.3</ele>
        <time>2026-02-22T10:43:16Z</time>
      </trkpt>
      <trkpt lat="43.59882" lon="6.39352">
        <ele>544.4</ele>
        <time>2026-02-22T10:43:17Z</time>
      </trkpt>
      <trkpt lat="43.59881" lon="6.39353">
        <ele>544.5</ele>
        <time>2026-02-22T10:43:18Z</time>
      </trkpt>
      <trkpt lat="43.59881" lon="6.39354">
        <ele>544.6</ele>
        <time>2026-02-22T10:43:19Z</time>
      </trkpt>
      <trkpt lat="43.5988" lon="6.39355">
        <ele>544.8</ele>
        <time>2026-02-22T10:43:20Z</time>
      </trkpt>
      <trkpt lat="43.59879" lon="6.39356">
        <ele>544.9</ele>
        <time>2026-02-22T10:43:21Z</time>
      </trkpt>
      <trkpt lat="43.59879" lon="6.39357">
        <ele>545.1</ele>
        <time>2026-02-22T10:43:22Z</time>
      </trkpt>
      <trkpt lat="43.59879" lon="6.39358">
        <ele>545.3</ele>
        <time>2026-02-22T10:43:23Z</time>
      </trkpt>
      <trkpt lat="43.59879" lon="6.39358">
        <ele>545.5</ele>
        <time>2026-02-22T10:43:24Z</time>
      </trkpt>
      <trkpt lat="43.59878" lon="6.3936">
        <ele>545.5</ele>
        <time>2026-02-22T10:43:25Z</time>
      </trkpt>
      <trkpt lat="43.59877" lon="6.39362">
        <ele>545.6</ele>
        <time>2026-02-22T10:43:26Z</time>
      </trkpt>
      <trkpt lat="43.59876" lon="6.39363">
        <ele>545.7</ele>
        <time>2026-02-22T10:43:27Z</time>
      </trkpt>
      <trkpt lat="43.59876" lon="6.39364">
        <ele>545.9</ele>
        <time>2026-02-22T10:43:28Z</time>
      </trkpt>
      <trkpt lat="43.59875" lon="6.39366">
        <ele>546</ele>
        <time>2026-02-22T10:43:29Z</time>
      </trkpt>
      <trkpt lat="43.59874" lon="6.39367">
        <ele>546.1</ele>
        <time>2026-02-22T10:43:30Z</time>
      </trkpt>
      <trkpt lat="43.59873" lon="6.39368">
        <ele>546.2</ele>
        <time>2026-02-22T10:43:31Z</time>
      </trkpt>
      <trkpt lat="43.59872" lon="6.39369">
        <ele>546.4</ele>
        <time>2026-02-22T10:43:32Z</time>
      </trkpt>
      <trkpt lat="43.59872" lon="6.3937">
        <ele>546.6</ele>
        <time>2026-02-22T10:43:33Z</time>
      </trkpt>
      <trkpt lat="43.59871" lon="6.39372">
        <ele>546.7</ele>
        <time>2026-02-22T10:43:34Z</time>
      </trkpt>
      <trkpt lat="43.5987" lon="6.39374">
        <ele>546.8</ele>
        <time>2026-02-22T10:43:35Z</time>
      </trkpt>
      <trkpt lat="43.59869" lon="6.39375">
        <ele>547</ele>
        <time>2026-02-22T10:43:36Z</time>
      </trkpt>
      <trkpt lat="43.59868" lon="6.39376">
        <ele>547.1</ele>
        <time>2026-02-22T10:43:37Z</time>
      </trkpt>
      <trkpt lat="43.59868" lon="6.39377">
        <ele>547.2</ele>
        <time>2026-02-22T10:43:38Z</time>
      </trkpt>
      <trkpt lat="43.59866" lon="6.39377">
        <ele>547.4</ele>
        <time>2026-02-22T10:43:39Z</time>
      </trkpt>
      <trkpt lat="43.59865" lon="6.39378">
        <ele>547.6</ele>
        <time>2026-02-22T10:43:40Z</time>
      </trkpt>
      <trkpt lat="43.59865" lon="6.3938">
        <ele>547.7</ele>
        <time>2026-02-22T10:43:41Z</time>
      </trkpt>
      <trkpt lat="43.59864" lon="6.3938">
        <ele>547.9</ele>
        <time>2026-02-22T10:43:42Z</time>
      </trkpt>
      <trkpt lat="43.59863" lon="6.39381">
        <ele>548.2</ele>
        <time>2026-02-22T10:43:43Z</time>
      </trkpt>
      <trkpt lat="43.59862" lon="6.39383">
        <ele>548.5</ele>
        <time>2026-02-22T10:43:44Z</time>
      </trkpt>
      <trkpt lat="43.59861" lon="6.39384">
        <ele>548.6</ele>
        <time>2026-02-22T10:43:45Z</time>
      </trkpt>
      <trkpt lat="43.5986" lon="6.39385">
        <ele>548.8</ele>
        <time>2026-02-22T10:43:46Z</time>
      </trkpt>
      <trkpt lat="43.5986" lon="6.39386">
        <ele>548.9</ele>
        <time>2026-02-22T10:43:47Z</time>
      </trkpt>
      <trkpt lat="43.59859" lon="6.39388">
        <ele>549</ele>
        <time>2026-02-22T10:43:48Z</time>
      </trkpt>
      <trkpt lat="43.59859" lon="6.3939">
        <ele>549.1</ele>
        <time>2026-02-22T10:43:49Z</time>
      </trkpt>
      <trkpt lat="43.59858" lon="6.39391">
        <ele>549.3</ele>
        <time>2026-02-22T10:43:50Z</time>
      </trkpt>
      <trkpt lat="43.59857" lon="6.39392">
        <ele>549.4</ele>
        <time>2026-02-22T10:43:51Z</time>
      </trkpt>
      <trkpt lat="43.59856" lon="6.39393">
        <ele>549.7</ele>
        <time>2026-02-22T10:43:52Z</time>
      </trkpt>
      <trkpt lat="43.59855" lon="6.39394">
        <ele>549.7</ele>
        <time>2026-02-22T10:43:53Z</time>
      </trkpt>
      <trkpt lat="43.59854" lon="6.39395">
        <ele>549.7</ele>
        <time>2026-02-22T10:43:54Z</time>
      </trkpt>
      <trkpt lat="43.59853" lon="6.39396">
        <ele>549.7</ele>
        <time>2026-02-22T10:43:55Z</time>
      </trkpt>
      <trkpt lat="43.59852" lon="6.39397">
        <ele>549.8</ele>
        <time>2026-02-22T10:43:56Z</time>
      </trkpt>
      <trkpt lat="43.59851" lon="6.39397">
        <ele>550</ele>
        <time>2026-02-22T10:43:57Z</time>
      </trkpt>
      <trkpt lat="43.59851" lon="6.39398">
        <ele>550.2</ele>
        <time>2026-02-22T10:43:58Z</time>
      </trkpt>
      <trkpt lat="43.5985" lon="6.39399">
        <ele>550.3</ele>
        <time>2026-02-22T10:43:59Z</time>
      </trkpt>
      <trkpt lat="43.59849" lon="6.39399">
        <ele>550.5</ele>
        <time>2026-02-22T10:44:00Z</time>
      </trkpt>
      <trkpt lat="43.59848" lon="6.394">
        <ele>550.6</ele>
        <time>2026-02-22T10:44:01Z</time>
      </trkpt>
      <trkpt lat="43.59847" lon="6.39401">
        <ele>550.7</ele>
        <time>2026-02-22T10:44:02Z</time>
      </trkpt>
      <trkpt lat="43.59847" lon="6.39402">
        <ele>550.8</ele>
        <time>2026-02-22T10:44:03Z</time>
      </trkpt>
      <trkpt lat="43.59846" lon="6.39403">
        <ele>550.8</ele>
        <time>2026-02-22T10:44:04Z</time>
      </trkpt>
      <trkpt lat="43.59845" lon="6.39403">
        <ele>550.8</ele>
        <time>2026-02-22T10:44:05Z</time>
      </trkpt>
      <trkpt lat="43.59844" lon="6.39404">
        <ele>550.9</ele>
        <time>2026-02-22T10:44:06Z</time>
      </trkpt>
      <trkpt lat="43.59843" lon="6.39404">
        <ele>551</ele>
        <time>2026-02-22T10:44:07Z</time>
      </trkpt>
      <trkpt lat="43.59842" lon="6.39405">
        <ele>551</ele>
        <time>2026-02-22T10:44:08Z</time>
      </trkpt>
      <trkpt lat="43.59841" lon="6.39406">
        <ele>551.1</ele>
        <time>2026-02-22T10:44:09Z</time>
      </trkpt>
      <trkpt lat="43.5984" lon="6.39407">
        <ele>551.2</ele>
        <time>2026-02-22T10:44:10Z</time>
      </trkpt>
      <trkpt lat="43.59839" lon="6.39407">
        <ele>551.2</ele>
        <time>2026-02-22T10:44:11Z</time>
      </trkpt>
      <trkpt lat="43.59838" lon="6.39407">
        <ele>551.3</ele>
        <time>2026-02-22T10:44:12Z</time>
      </trkpt>
      <trkpt lat="43.59837" lon="6.39408">
        <ele>551.3</ele>
        <time>2026-02-22T10:44:13Z</time>
      </trkpt>
      <trkpt lat="43.59837" lon="6.39409">
        <ele>551.4</ele>
        <time>2026-02-22T10:44:14Z</time>
      </trkpt>
      <trkpt lat="43.59836" lon="6.39409">
        <ele>551.5</ele>
        <time>2026-02-22T10:44:15Z</time>
      </trkpt>
      <trkpt lat="43.59835" lon="6.3941">
        <ele>551.7</ele>
        <time>2026-02-22T10:44:16Z</time>
      </trkpt>
      <trkpt lat="43.59834" lon="6.39411">
        <ele>551.9</ele>
        <time>2026-02-22T10:44:17Z</time>
      </trkpt>
      <trkpt lat="43.59833" lon="6.39412">
        <ele>552</ele>
        <time>2026-02-22T10:44:18Z</time>
      </trkpt>
      <trkpt lat="43.59833" lon="6.39412">
        <ele>552</ele>
        <time>2026-02-22T10:44:19Z</time>
      </trkpt>
      <trkpt lat="43.59832" lon="6.39412">
        <ele>552.1</ele>
        <time>2026-02-22T10:44:20Z</time>
      </trkpt>
      <trkpt lat="43.59831" lon="6.39413">
        <ele>552.2</ele>
        <time>2026-02-22T10:44:21Z</time>
      </trkpt>
      <trkpt lat="43.5983" lon="6.39413">
        <ele>552.3</ele>
        <time>2026-02-22T10:44:22Z</time>
      </trkpt>
      <trkpt lat="43.59829" lon="6.39413">
        <ele>552.4</ele>
        <time>2026-02-22T10:44:23Z</time>
      </trkpt>
      <trkpt lat="43.59828" lon="6.39414">
        <ele>552.5</ele>
        <time>2026-02-22T10:44:24Z</time>
      </trkpt>
      <trkpt lat="43.59827" lon="6.39414">
        <ele>552.5</ele>
        <time>2026-02-22T10:44:25Z</time>
      </trkpt>
      <trkpt lat="43.59826" lon="6.39414">
        <ele>552.5</ele>
        <time>2026-02-22T10:44:26Z</time>
      </trkpt>
      <trkpt lat="43.59825" lon="6.39414">
        <ele>552.6</ele>
        <time>2026-02-22T10:44:27Z</time>
      </trkpt>
      <trkpt lat="43.59824" lon="6.39415">
        <ele>552.7</ele>
        <time>2026-02-22T10:44:28Z</time>
      </trkpt>
      <trkpt lat="43.59824" lon="6.39416">
        <ele>552.7</ele>
        <time>2026-02-22T10:44:29Z</time>
      </trkpt>
      <trkpt lat="43.59824" lon="6.39418">
        <ele>552.8</ele>
        <time>2026-02-22T10:44:30Z</time>
      </trkpt>
      <trkpt lat="43.59824" lon="6.39418">
        <ele>552.9</ele>
        <time>2026-02-22T10:44:31Z</time>
      </trkpt>
      <trkpt lat="43.59823" lon="6.39419">
        <ele>553</ele>
        <time>2026-02-22T10:44:32Z</time>
      </trkpt>
      <trkpt lat="43.59823" lon="6.39419">
        <ele>553.1</ele>
        <time>2026-02-22T10:44:33Z</time>
      </trkpt>
      <trkpt lat="43.59823" lon="6.3942">
        <ele>553.1</ele>
        <time>2026-02-22T10:44:34Z</time>
      </trkpt>
      <trkpt lat="43.59823" lon="6.39421">
        <ele>553.2</ele>
        <time>2026-02-22T10:44:35Z</time>
      </trkpt>
      <trkpt lat="43.59823" lon="6.39421">
        <ele>553.3</ele>
        <time>2026-02-22T10:44:36Z</time>
      </trkpt>
      <trkpt lat="43.59823" lon="6.39421">
        <ele>553.4</ele>
        <time>2026-02-22T10:44:37Z</time>
      </trkpt>
      <trkpt lat="43.59823" lon="6.39421">
        <ele>553.5</ele>
        <time>2026-02-22T10:44:38Z</time>
      </trkpt>
      <trkpt lat="43.59823" lon="6.39422">
        <ele>553.5</ele>
        <time>2026-02-22T10:44:39Z</time>
      </trkpt>
      <trkpt lat="43.59823" lon="6.39422">
        <ele>553.4</ele>
        <time>2026-02-22T10:44:40Z</time>
      </trkpt>
      <trkpt lat="43.59823" lon="6.39422">
        <ele>553.4</ele>
        <time>2026-02-22T10:44:41Z</time>
      </trkpt>
      <trkpt lat="43.59823" lon="6.39423">
        <ele>553.5</ele>
        <time>2026-02-22T10:44:42Z</time>
      </trkpt>
      <trkpt lat="43.59823" lon="6.39423">
        <ele>553.5</ele>
        <time>2026-02-22T10:44:43Z</time>
      </trkpt>
      <trkpt lat="43.59823" lon="6.39423">
        <ele>553.5</ele>
        <time>2026-02-22T10:44:44Z</time>
      </trkpt>
      <trkpt lat="43.59823" lon="6.39424">
        <ele>553.6</ele>
        <time>2026-02-22T10:44:45Z</time>
      </trkpt>
      <trkpt lat="43.59823" lon="6.39424">
        <ele>553.5</ele>
        <time>2026-02-22T10:44:46Z</time>
      </trkpt>
      <trkpt lat="43.59823" lon="6.39424">
        <ele>553.5</ele>
        <time>2026-02-22T10:44:47Z</time>
      </trkpt>
      <trkpt lat="43.59823" lon="6.39424">
        <ele>553.6</ele>
        <time>2026-02-22T10:44:48Z</time>
      </trkpt>
      <trkpt lat="43.59823" lon="6.39424">
        <ele>553.7</ele>
        <time>2026-02-22T10:44:49Z</time>
      </trkpt>
      <trkpt lat="43.59823" lon="6.39425">
        <ele>553.7</ele>
        <time>2026-02-22T10:44:50Z</time>
      </trkpt>
      <trkpt lat="43.59822" lon="6.39425">
        <ele>553.7</ele>
        <time>2026-02-22T10:44:51Z</time>
      </trkpt>
      <trkpt lat="43.59822" lon="6.39425">
        <ele>553.7</ele>
        <time>2026-02-22T10:44:52Z</time>
      </trkpt>
      <trkpt lat="43.59822" lon="6.39425">
        <ele>553.7</ele>
        <time>2026-02-22T10:44:53Z</time>
      </trkpt>
      <trkpt lat="43.59822" lon="6.39426">
        <ele>553.7</ele>
        <time>2026-02-22T10:44:54Z</time>
      </trkpt>
      <trkpt lat="43.59822" lon="6.39426">
        <ele>553.7</ele>
        <time>2026-02-22T10:44:55Z</time>
      </trkpt>
      <trkpt lat="43.59822" lon="6.39426">
        <ele>553.8</ele>
        <time>2026-02-22T10:44:56Z</time>
      </trkpt>
      <trkpt lat="43.59822" lon="6.39426">
        <ele>553.8</ele>
        <time>2026-02-22T10:44:57Z</time>
      </trkpt>
      <trkpt lat="43.59822" lon="6.39426">
        <ele>553.8</ele>
        <time>2026-02-22T10:44:58Z</time>
      </trkpt>
      <trkpt lat="43.59822" lon="6.39426">
        <ele>553.7</ele>
        <time>2026-02-22T10:44:59Z</time>
      </trkpt>
      <trkpt lat="43.59822" lon="6.39426">
        <ele>553.7</ele>
        <time>2026-02-22T10:45:00Z</time>
      </trkpt>
      <trkpt lat="43.59822" lon="6.39427">
        <ele>553.7</ele>
        <time>2026-02-22T10:45:01Z</time>
      </trkpt>
      <trkpt lat="43.59822" lon="6.39427">
        <ele>553.7</ele>
        <time>2026-02-22T10:45:02Z</time>
      </trkpt>
      <trkpt lat="43.59822" lon="6.39427">
        <ele>553.7</ele>
        <time>2026-02-22T10:45:03Z</time>
      </trkpt>
      <trkpt lat="43.59822" lon="6.39427">
        <ele>553.7</ele>
        <time>2026-02-22T10:45:04Z</time>
      </trkpt>
      <trkpt lat="43.59822" lon="6.39427">
        <ele>553.7</ele>
        <time>2026-02-22T10:45:05Z</time>
      </trkpt>
      <trkpt lat="43.59822" lon="6.39427">
        <ele>553.6</ele>
        <time>2026-02-22T10:45:06Z</time>
      </trkpt>
      <trkpt lat="43.59822" lon="6.39427">
        <ele>553.6</ele>
        <time>2026-02-22T10:45:07Z</time>
      </trkpt>
      <trkpt lat="43.59821" lon="6.39427">
        <ele>553.6</ele>
        <time>2026-02-22T10:45:08Z</time>
      </trkpt>
      <trkpt lat="43.59821" lon="6.39427">
        <ele>553.7</ele>
        <time>2026-02-22T10:45:09Z</time>
      </trkpt>
      <trkpt lat="43.59821" lon="6.39427">
        <ele>553.7</ele>
        <time>2026-02-22T10:45:10Z</time>
      </trkpt>
      <trkpt lat="43.59821" lon="6.39427">
        <ele>553.7</ele>
        <time>2026-02-22T10:45:11Z</time>
      </trkpt>
      <trkpt lat="43.59821" lon="6.39427">
        <ele>553.7</ele>
        <time>2026-02-22T10:45:12Z</time>
      </trkpt>
      <trkpt lat="43.59821" lon="6.39427">
        <ele>553.7</ele>
        <time>2026-02-22T10:45:13Z</time>
      </trkpt>
      <trkpt lat="43.59821" lon="6.39427">
        <ele>553.7</ele>
        <time>2026-02-22T10:45:14Z</time>
      </trkpt>
      <trkpt lat="43.59821" lon="6.39427">
        <ele>553.6</ele>
        <time>2026-02-22T10:45:15Z</time>
      </trkpt>
      <trkpt lat="43.59821" lon="6.39427">
        <ele>553.5</ele>
        <time>2026-02-22T10:45:16Z</time>
      </trkpt>
      <trkpt lat="43.59821" lon="6.39427">
        <ele>553.5</ele>
        <time>2026-02-22T10:45:17Z</time>
      </trkpt>
      <trkpt lat="43.59821" lon="6.39427">
        <ele>553.6</ele>
        <time>2026-02-22T10:45:18Z</time>
      </trkpt>
      <trkpt lat="43.59821" lon="6.39427">
        <ele>553.6</ele>
        <time>2026-02-22T10:45:19Z</time>
      </trkpt>
      <trkpt lat="43.59821" lon="6.39427">
        <ele>553.5</ele>
        <time>2026-02-22T10:45:20Z</time>
      </trkpt>
      <trkpt lat="43.59821" lon="6.39427">
        <ele>553.5</ele>
        <time>2026-02-22T10:45:21Z</time>
      </trkpt>
      <trkpt lat="43.59821" lon="6.39427">
        <ele>553.5</ele>
        <time>2026-02-22T10:45:22Z</time>
      </trkpt>
      <trkpt lat="43.59821" lon="6.39427">
        <ele>553.5</ele>
        <time>2026-02-22T10:45:23Z</time>
      </trkpt>
      <trkpt lat="43.59821" lon="6.39427">
        <ele>553.4</ele>
        <time>2026-02-22T10:45:24Z</time>
      </trkpt>
      <trkpt lat="43.59821" lon="6.39427">
        <ele>553.4</ele>
        <time>2026-02-22T10:45:25Z</time>
      </trkpt>
      <trkpt lat="43.59821" lon="6.39427">
        <ele>553.4</ele>
        <time>2026-02-22T10:45:26Z</time>
      </trkpt>
      <trkpt lat="43.59821" lon="6.39428">
        <ele>553.4</ele>
        <time>2026-02-22T10:45:27Z</time>
      </trkpt>
      <trkpt lat="43.5982" lon="6.39428">
        <ele>553.3</ele>
        <time>2026-02-22T10:45:28Z</time>
      </trkpt>
      <trkpt lat="43.5982" lon="6.39428">
        <ele>553.3</ele>
        <time>2026-02-22T10:45:29Z</time>
      </trkpt>
      <trkpt lat="43.5982" lon="6.39428">
        <ele>553.4</ele>
        <time>2026-02-22T10:45:30Z</time>
      </trkpt>
      <trkpt lat="43.5982" lon="6.39428">
        <ele>553.4</ele>
        <time>2026-02-22T10:45:31Z</time>
      </trkpt>
      <trkpt lat="43.5982" lon="6.39428">
        <ele>553.4</ele>
        <time>2026-02-22T10:45:32Z</time>
      </trkpt>
      <trkpt lat="43.5982" lon="6.39428">
        <ele>553.5</ele>
        <time>2026-02-22T10:45:33Z</time>
      </trkpt>
      <trkpt lat="43.5982" lon="6.39428">
        <ele>553.5</ele>
        <time>2026-02-22T10:45:34Z</time>
      </trkpt>
      <trkpt lat="43.5982" lon="6.39427">
        <ele>553.6</ele>
        <time>2026-02-22T10:45:35Z</time>
      </trkpt>
      <trkpt lat="43.5982" lon="6.39427">
        <ele>553.5</ele>
        <time>2026-02-22T10:45:36Z</time>
      </trkpt>
      <trkpt lat="43.5982" lon="6.39427">
        <ele>553.5</ele>
        <time>2026-02-22T10:45:37Z</time>
      </trkpt>
      <trkpt lat="43.59819" lon="6.39427">
        <ele>553.5</ele>
        <time>2026-02-22T10:45:38Z</time>
      </trkpt>
      <trkpt lat="43.59819" lon="6.39427">
        <ele>553.6</ele>
        <time>2026-02-22T10:45:39Z</time>
      </trkpt>
      <trkpt lat="43.59819" lon="6.39427">
        <ele>553.6</ele>
        <time>2026-02-22T10:45:40Z</time>
      </trkpt>
      <trkpt lat="43.59819" lon="6.39427">
        <ele>553.5</ele>
        <time>2026-02-22T10:45:41Z</time>
      </trkpt>
      <trkpt lat="43.59819" lon="6.39428">
        <ele>553.6</ele>
        <time>2026-02-22T10:45:42Z</time>
      </trkpt>
      <trkpt lat="43.59818" lon="6.39428">
        <ele>553.6</ele>
        <time>2026-02-22T10:45:43Z</time>
      </trkpt>
      <trkpt lat="43.59818" lon="6.39429">
        <ele>553.6</ele>
        <time>2026-02-22T10:45:44Z</time>
      </trkpt>
      <trkpt lat="43.59817" lon="6.3943">
        <ele>553.6</ele>
        <time>2026-02-22T10:45:45Z</time>
      </trkpt>
      <trkpt lat="43.59816" lon="6.39431">
        <ele>553.7</ele>
        <time>2026-02-22T10:45:46Z</time>
      </trkpt>
      <trkpt lat="43.59815" lon="6.39431">
        <ele>553.7</ele>
        <time>2026-02-22T10:45:47Z</time>
      </trkpt>
      <trkpt lat="43.59814" lon="6.39432">
        <ele>553.7</ele>
        <time>2026-02-22T10:45:48Z</time>
      </trkpt>
      <trkpt lat="43.59813" lon="6.39432">
        <ele>553.9</ele>
        <time>2026-02-22T10:45:49Z</time>
      </trkpt>
      <trkpt lat="43.59812" lon="6.39433">
        <ele>553.9</ele>
        <time>2026-02-22T10:45:50Z</time>
      </trkpt>
      <trkpt lat="43.59812" lon="6.39434">
        <ele>554</ele>
        <time>2026-02-22T10:45:51Z</time>
      </trkpt>
      <trkpt lat="43.59811" lon="6.39434">
        <ele>554.1</ele>
        <time>2026-02-22T10:45:52Z</time>
      </trkpt>
      <trkpt lat="43.5981" lon="6.39435">
        <ele>554.2</ele>
        <time>2026-02-22T10:45:53Z</time>
      </trkpt>
      <trkpt lat="43.59809" lon="6.39435">
        <ele>554.3</ele>
        <time>2026-02-22T10:45:54Z</time>
      </trkpt>
      <trkpt lat="43.59808" lon="6.39436">
        <ele>554.4</ele>
        <time>2026-02-22T10:45:55Z</time>
      </trkpt>
      <trkpt lat="43.59807" lon="6.39437">
        <ele>554.5</ele>
        <time>2026-02-22T10:45:56Z</time>
      </trkpt>
      <trkpt lat="43.59806" lon="6.39437">
        <ele>554.7</ele>
        <time>2026-02-22T10:45:57Z</time>
      </trkpt>
      <trkpt lat="43.59805" lon="6.39438">
        <ele>554.6</ele>
        <time>2026-02-22T10:45:58Z</time>
      </trkpt>
      <trkpt lat="43.59804" lon="6.39439">
        <ele>554.8</ele>
        <time>2026-02-22T10:45:59Z</time>
      </trkpt>
      <trkpt lat="43.59803" lon="6.39439">
        <ele>554.9</ele>
        <time>2026-02-22T10:46:00Z</time>
      </trkpt>
      <trkpt lat="43.59802" lon="6.3944">
        <ele>555</ele>
        <time>2026-02-22T10:46:01Z</time>
      </trkpt>
      <trkpt lat="43.59801" lon="6.3944">
        <ele>555</ele>
        <time>2026-02-22T10:46:02Z</time>
      </trkpt>
      <trkpt lat="43.598" lon="6.39441">
        <ele>555.1</ele>
        <time>2026-02-22T10:46:03Z</time>
      </trkpt>
      <trkpt lat="43.59799" lon="6.39442">
        <ele>555.1</ele>
        <time>2026-02-22T10:46:04Z</time>
      </trkpt>
      <trkpt lat="43.59798" lon="6.39443">
        <ele>555.2</ele>
        <time>2026-02-22T10:46:05Z</time>
      </trkpt>
      <trkpt lat="43.59797" lon="6.39443">
        <ele>555.3</ele>
        <time>2026-02-22T10:46:06Z</time>
      </trkpt>
      <trkpt lat="43.59796" lon="6.39444">
        <ele>555.4</ele>
        <time>2026-02-22T10:46:07Z</time>
      </trkpt>
      <trkpt lat="43.59795" lon="6.39444">
        <ele>555.5</ele>
        <time>2026-02-22T10:46:08Z</time>
      </trkpt>
      <trkpt lat="43.59794" lon="6.39445">
        <ele>555.6</ele>
        <time>2026-02-22T10:46:09Z</time>
      </trkpt>
      <trkpt lat="43.59793" lon="6.39445">
        <ele>555.7</ele>
        <time>2026-02-22T10:46:10Z</time>
      </trkpt>
      <trkpt lat="43.59791" lon="6.39446">
        <ele>555.8</ele>
        <time>2026-02-22T10:46:11Z</time>
      </trkpt>
      <trkpt lat="43.5979" lon="6.39447">
        <ele>555.8</ele>
        <time>2026-02-22T10:46:12Z</time>
      </trkpt>
      <trkpt lat="43.59789" lon="6.39447">
        <ele>555.8</ele>
        <time>2026-02-22T10:46:13Z</time>
      </trkpt>
      <trkpt lat="43.59788" lon="6.39448">
        <ele>555.9</ele>
        <time>2026-02-22T10:46:14Z</time>
      </trkpt>
      <trkpt lat="43.59787" lon="6.39448">
        <ele>556</ele>
        <time>2026-02-22T10:46:15Z</time>
      </trkpt>
      <trkpt lat="43.59786" lon="6.39449">
        <ele>556.1</ele>
        <time>2026-02-22T10:46:16Z</time>
      </trkpt>
      <trkpt lat="43.59785" lon="6.3945">
        <ele>556.2</ele>
        <time>2026-02-22T10:46:17Z</time>
      </trkpt>
      <trkpt lat="43.59785" lon="6.3945">
        <ele>556.2</ele>
        <time>2026-02-22T10:46:18Z</time>
      </trkpt>
      <trkpt lat="43.59783" lon="6.39451">
        <ele>556.3</ele>
        <time>2026-02-22T10:46:19Z</time>
      </trkpt>
      <trkpt lat="43.59782" lon="6.39452">
        <ele>556.3</ele>
        <time>2026-02-22T10:46:20Z</time>
      </trkpt>
      <trkpt lat="43.59781" lon="6.39453">
        <ele>556.4</ele>
        <time>2026-02-22T10:46:21Z</time>
      </trkpt>
      <trkpt lat="43.5978" lon="6.39454">
        <ele>556.4</ele>
        <time>2026-02-22T10:46:22Z</time>
      </trkpt>
      <trkpt lat="43.59779" lon="6.39454">
        <ele>556.4</ele>
        <time>2026-02-22T10:46:23Z</time>
      </trkpt>
      <trkpt lat="43.59778" lon="6.39455">
        <ele>556.5</ele>
        <time>2026-02-22T10:46:24Z</time>
      </trkpt>
      <trkpt lat="43.59777" lon="6.39455">
        <ele>556.6</ele>
        <time>2026-02-22T10:46:25Z</time>
      </trkpt>
      <trkpt lat="43.59776" lon="6.39456">
        <ele>556.6</ele>
        <time>2026-02-22T10:46:26Z</time>
      </trkpt>
      <trkpt lat="43.59775" lon="6.39457">
        <ele>556.7</ele>
        <time>2026-02-22T10:46:27Z</time>
      </trkpt>
      <trkpt lat="43.59774" lon="6.39458">
        <ele>556.8</ele>
        <time>2026-02-22T10:46:28Z</time>
      </trkpt>
      <trkpt lat="43.59773" lon="6.39459">
        <ele>556.8</ele>
        <time>2026-02-22T10:46:29Z</time>
      </trkpt>
      <trkpt lat="43.59772" lon="6.3946">
        <ele>556.9</ele>
        <time>2026-02-22T10:46:30Z</time>
      </trkpt>
      <trkpt lat="43.59771" lon="6.39461">
        <ele>556.9</ele>
        <time>2026-02-22T10:46:31Z</time>
      </trkpt>
      <trkpt lat="43.5977" lon="6.39461">
        <ele>557</ele>
        <time>2026-02-22T10:46:32Z</time>
      </trkpt>
      <trkpt lat="43.59769" lon="6.39462">
        <ele>557.1</ele>
        <time>2026-02-22T10:46:33Z</time>
      </trkpt>
      <trkpt lat="43.59768" lon="6.39463">
        <ele>557.1</ele>
        <time>2026-02-22T10:46:34Z</time>
      </trkpt>
      <trkpt lat="43.59767" lon="6.39464">
        <ele>557.2</ele>
        <time>2026-02-22T10:46:35Z</time>
      </trkpt>
      <trkpt lat="43.59766" lon="6.39464">
        <ele>557.2</ele>
        <time>2026-02-22T10:46:36Z</time>
      </trkpt>
      <trkpt lat="43.59765" lon="6.39465">
        <ele>557.3</ele>
        <time>2026-02-22T10:46:37Z</time>
      </trkpt>
      <trkpt lat="43.59764" lon="6.39466">
        <ele>557.4</ele>
        <time>2026-02-22T10:46:38Z</time>
      </trkpt>
      <trkpt lat="43.59763" lon="6.39467">
        <ele>557.4</ele>
        <time>2026-02-22T10:46:39Z</time>
      </trkpt>
      <trkpt lat="43.59762" lon="6.39468">
        <ele>557.4</ele>
        <time>2026-02-22T10:46:40Z</time>
      </trkpt>
      <trkpt lat="43.59761" lon="6.39468">
        <ele>557.4</ele>
        <time>2026-02-22T10:46:41Z</time>
      </trkpt>
      <trkpt lat="43.5976" lon="6.39469">
        <ele>557.4</ele>
        <time>2026-02-22T10:46:42Z</time>
      </trkpt>
      <trkpt lat="43.59759" lon="6.3947">
        <ele>557.5</ele>
        <time>2026-02-22T10:46:43Z</time>
      </trkpt>
      <trkpt lat="43.59758" lon="6.39471">
        <ele>557.6</ele>
        <time>2026-02-22T10:46:44Z</time>
      </trkpt>
      <trkpt lat="43.59758" lon="6.39472">
        <ele>557.6</ele>
        <time>2026-02-22T10:46:45Z</time>
      </trkpt>
      <trkpt lat="43.59757" lon="6.39473">
        <ele>557.6</ele>
        <time>2026-02-22T10:46:46Z</time>
      </trkpt>
      <trkpt lat="43.59756" lon="6.39475">
        <ele>557.6</ele>
        <time>2026-02-22T10:46:47Z</time>
      </trkpt>
      <trkpt lat="43.59755" lon="6.39476">
        <ele>557.6</ele>
        <time>2026-02-22T10:46:48Z</time>
      </trkpt>
      <trkpt lat="43.59754" lon="6.39477">
        <ele>557.6</ele>
        <time>2026-02-22T10:46:49Z</time>
      </trkpt>
      <trkpt lat="43.59753" lon="6.39477">
        <ele>557.6</ele>
        <time>2026-02-22T10:46:50Z</time>
      </trkpt>
      <trkpt lat="43.59752" lon="6.39478">
        <ele>557.7</ele>
        <time>2026-02-22T10:46:51Z</time>
      </trkpt>
      <trkpt lat="43.59751" lon="6.39478">
        <ele>557.7</ele>
        <time>2026-02-22T10:46:52Z</time>
      </trkpt>
      <trkpt lat="43.5975" lon="6.39479">
        <ele>557.7</ele>
        <time>2026-02-22T10:46:53Z</time>
      </trkpt>
      <trkpt lat="43.59749" lon="6.39479">
        <ele>557.7</ele>
        <time>2026-02-22T10:46:54Z</time>
      </trkpt>
      <trkpt lat="43.59748" lon="6.3948">
        <ele>557.8</ele>
        <time>2026-02-22T10:46:55Z</time>
      </trkpt>
      <trkpt lat="43.59747" lon="6.39481">
        <ele>557.9</ele>
        <time>2026-02-22T10:46:56Z</time>
      </trkpt>
      <trkpt lat="43.59746" lon="6.39481">
        <ele>558</ele>
        <time>2026-02-22T10:46:57Z</time>
      </trkpt>
      <trkpt lat="43.59745" lon="6.39482">
        <ele>558.1</ele>
        <time>2026-02-22T10:46:58Z</time>
      </trkpt>
      <trkpt lat="43.59744" lon="6.39483">
        <ele>558.2</ele>
        <time>2026-02-22T10:46:59Z</time>
      </trkpt>
      <trkpt lat="43.59743" lon="6.39484">
        <ele>558.3</ele>
        <time>2026-02-22T10:47:00Z</time>
      </trkpt>
      <trkpt lat="43.59742" lon="6.39484">
        <ele>558.2</ele>
        <time>2026-02-22T10:47:01Z</time>
      </trkpt>
      <trkpt lat="43.59741" lon="6.39485">
        <ele>558.2</ele>
        <time>2026-02-22T10:47:02Z</time>
      </trkpt>
      <trkpt lat="43.5974" lon="6.39485">
        <ele>558.3</ele>
        <time>2026-02-22T10:47:03Z</time>
      </trkpt>
      <trkpt lat="43.59739" lon="6.39485">
        <ele>558.4</ele>
        <time>2026-02-22T10:47:04Z</time>
      </trkpt>
      <trkpt lat="43.59737" lon="6.39485">
        <ele>558.6</ele>
        <time>2026-02-22T10:47:05Z</time>
      </trkpt>
      <trkpt lat="43.59736" lon="6.39485">
        <ele>558.8</ele>
        <time>2026-02-22T10:47:06Z</time>
      </trkpt>
      <trkpt lat="43.59735" lon="6.39486">
        <ele>558.8</ele>
        <time>2026-02-22T10:47:07Z</time>
      </trkpt>
      <trkpt lat="43.59734" lon="6.39487">
        <ele>558.9</ele>
        <time>2026-02-22T10:47:08Z</time>
      </trkpt>
      <trkpt lat="43.59733" lon="6.39488">
        <ele>559</ele>
        <time>2026-02-22T10:47:09Z</time>
      </trkpt>
      <trkpt lat="43.59732" lon="6.39488">
        <ele>559.2</ele>
        <time>2026-02-22T10:47:10Z</time>
      </trkpt>
      <trkpt lat="43.59731" lon="6.39489">
        <ele>559.2</ele>
        <time>2026-02-22T10:47:11Z</time>
      </trkpt>
      <trkpt lat="43.5973" lon="6.3949">
        <ele>559.2</ele>
        <time>2026-02-22T10:47:12Z</time>
      </trkpt>
      <trkpt lat="43.59729" lon="6.39491">
        <ele>559.2</ele>
        <time>2026-02-22T10:47:13Z</time>
      </trkpt>
      <trkpt lat="43.59728" lon="6.39491">
        <ele>559.2</ele>
        <time>2026-02-22T10:47:14Z</time>
      </trkpt>
      <trkpt lat="43.59727" lon="6.39492">
        <ele>559.3</ele>
        <time>2026-02-22T10:47:15Z</time>
      </trkpt>
      <trkpt lat="43.59725" lon="6.39492">
        <ele>559.3</ele>
        <time>2026-02-22T10:47:16Z</time>
      </trkpt>
      <trkpt lat="43.59724" lon="6.39493">
        <ele>559.3</ele>
        <time>2026-02-22T10:47:17Z</time>
      </trkpt>
      <trkpt lat="43.59723" lon="6.39493">
        <ele>559.4</ele>
        <time>2026-02-22T10:47:18Z</time>
      </trkpt>
      <trkpt lat="43.59722" lon="6.39493">
        <ele>559.4</ele>
        <time>2026-02-22T10:47:19Z</time>
      </trkpt>
      <trkpt lat="43.59721" lon="6.39494">
        <ele>559.5</ele>
        <time>2026-02-22T10:47:20Z</time>
      </trkpt>
      <trkpt lat="43.5972" lon="6.39494">
        <ele>559.6</ele>
        <time>2026-02-22T10:47:21Z</time>
      </trkpt>
      <trkpt lat="43.59719" lon="6.39494">
        <ele>559.7</ele>
        <time>2026-02-22T10:47:22Z</time>
      </trkpt>
      <trkpt lat="43.59718" lon="6.39494">
        <ele>559.7</ele>
        <time>2026-02-22T10:47:23Z</time>
      </trkpt>
      <trkpt lat="43.59717" lon="6.39495">
        <ele>559.8</ele>
        <time>2026-02-22T10:47:24Z</time>
      </trkpt>
      <trkpt lat="43.59716" lon="6.39496">
        <ele>559.9</ele>
        <time>2026-02-22T10:47:25Z</time>
      </trkpt>
      <trkpt lat="43.59715" lon="6.39496">
        <ele>559.9</ele>
        <time>2026-02-22T10:47:26Z</time>
      </trkpt>
      <trkpt lat="43.59714" lon="6.39496">
        <ele>560</ele>
        <time>2026-02-22T10:47:27Z</time>
      </trkpt>
      <trkpt lat="43.59713" lon="6.39496">
        <ele>560.1</ele>
        <time>2026-02-22T10:47:28Z</time>
      </trkpt>
      <trkpt lat="43.59712" lon="6.39497">
        <ele>560.3</ele>
        <time>2026-02-22T10:47:29Z</time>
      </trkpt>
      <trkpt lat="43.59711" lon="6.39497">
        <ele>560.4</ele>
        <time>2026-02-22T10:47:30Z</time>
      </trkpt>
      <trkpt lat="43.5971" lon="6.39498">
        <ele>560.5</ele>
        <time>2026-02-22T10:47:31Z</time>
      </trkpt>
      <trkpt lat="43.59709" lon="6.39498">
        <ele>560.5</ele>
        <time>2026-02-22T10:47:32Z</time>
      </trkpt>
      <trkpt lat="43.59708" lon="6.39499">
        <ele>560.6</ele>
        <time>2026-02-22T10:47:33Z</time>
      </trkpt>
      <trkpt lat="43.59706" lon="6.39499">
        <ele>560.7</ele>
        <time>2026-02-22T10:47:34Z</time>
      </trkpt>
      <trkpt lat="43.59705" lon="6.395">
        <ele>560.5</ele>
        <time>2026-02-22T10:47:35Z</time>
      </trkpt>
      <trkpt lat="43.59705" lon="6.395">
        <ele>560.5</ele>
        <time>2026-02-22T10:47:36Z</time>
      </trkpt>
      <trkpt lat="43.59705" lon="6.39502">
        <ele>560.5</ele>
        <time>2026-02-22T10:47:37Z</time>
      </trkpt>
      <trkpt lat="43.59704" lon="6.39503">
        <ele>560.6</ele>
        <time>2026-02-22T10:47:38Z</time>
      </trkpt>
      <trkpt lat="43.59703" lon="6.39504">
        <ele>560.6</ele>
        <time>2026-02-22T10:47:39Z</time>
      </trkpt>
      <trkpt lat="43.59702" lon="6.39505">
        <ele>560.7</ele>
        <time>2026-02-22T10:47:40Z</time>
      </trkpt>
      <trkpt lat="43.59701" lon="6.39506">
        <ele>560.7</ele>
        <time>2026-02-22T10:47:41Z</time>
      </trkpt>
      <trkpt lat="43.597" lon="6.39507">
        <ele>560.6</ele>
        <time>2026-02-22T10:47:42Z</time>
      </trkpt>
      <trkpt lat="43.59699" lon="6.39507">
        <ele>560.6</ele>
        <time>2026-02-22T10:47:43Z</time>
      </trkpt>
      <trkpt lat="43.59698" lon="6.39508">
        <ele>560.5</ele>
        <time>2026-02-22T10:47:44Z</time>
      </trkpt>
      <trkpt lat="43.59697" lon="6.39509">
        <ele>560.3</ele>
        <time>2026-02-22T10:47:45Z</time>
      </trkpt>
      <trkpt lat="43.59697" lon="6.39509">
        <ele>560.3</ele>
        <time>2026-02-22T10:47:46Z</time>
      </trkpt>
      <trkpt lat="43.59695" lon="6.3951">
        <ele>560.2</ele>
        <time>2026-02-22T10:47:47Z</time>
      </trkpt>
      <trkpt lat="43.59694" lon="6.3951">
        <ele>560.1</ele>
        <time>2026-02-22T10:47:48Z</time>
      </trkpt>
      <trkpt lat="43.59693" lon="6.39512">
        <ele>560.1</ele>
        <time>2026-02-22T10:47:49Z</time>
      </trkpt>
      <trkpt lat="43.59692" lon="6.39513">
        <ele>560</ele>
        <time>2026-02-22T10:47:50Z</time>
      </trkpt>
      <trkpt lat="43.59691" lon="6.39513">
        <ele>559.9</ele>
        <time>2026-02-22T10:47:51Z</time>
      </trkpt>
      <trkpt lat="43.5969" lon="6.39514">
        <ele>559.9</ele>
        <time>2026-02-22T10:47:52Z</time>
      </trkpt>
      <trkpt lat="43.5969" lon="6.39515">
        <ele>559.8</ele>
        <time>2026-02-22T10:47:53Z</time>
      </trkpt>
      <trkpt lat="43.59689" lon="6.39515">
        <ele>559.7</ele>
        <time>2026-02-22T10:47:54Z</time>
      </trkpt>
      <trkpt lat="43.59688" lon="6.39515">
        <ele>559.7</ele>
        <time>2026-02-22T10:47:55Z</time>
      </trkpt>
      <trkpt lat="43.59688" lon="6.39515">
        <ele>559.8</ele>
        <time>2026-02-22T10:47:56Z</time>
      </trkpt>
      <trkpt lat="43.59688" lon="6.39515">
        <ele>559.9</ele>
        <time>2026-02-22T10:47:57Z</time>
      </trkpt>
      <trkpt lat="43.59687" lon="6.39515">
        <ele>559.9</ele>
        <time>2026-02-22T10:47:58Z</time>
      </trkpt>
      <trkpt lat="43.59686" lon="6.39515">
        <ele>560</ele>
        <time>2026-02-22T10:47:59Z</time>
      </trkpt>
      <trkpt lat="43.59686" lon="6.39515">
        <ele>560.1</ele>
        <time>2026-02-22T10:48:00Z</time>
      </trkpt>
      <trkpt lat="43.59685" lon="6.39515">
        <ele>560.3</ele>
        <time>2026-02-22T10:48:01Z</time>
      </trkpt>
      <trkpt lat="43.59683" lon="6.39515">
        <ele>560.4</ele>
        <time>2026-02-22T10:48:02Z</time>
      </trkpt>
      <trkpt lat="43.59682" lon="6.39514">
        <ele>560.5</ele>
        <time>2026-02-22T10:48:03Z</time>
      </trkpt>
      <trkpt lat="43.59681" lon="6.39514">
        <ele>560.6</ele>
        <time>2026-02-22T10:48:04Z</time>
      </trkpt>
      <trkpt lat="43.59679" lon="6.39514">
        <ele>560.7</ele>
        <time>2026-02-22T10:48:05Z</time>
      </trkpt>
      <trkpt lat="43.59677" lon="6.39514">
        <ele>560.7</ele>
        <time>2026-02-22T10:48:06Z</time>
      </trkpt>
      <trkpt lat="43.59676" lon="6.39513">
        <ele>560.7</ele>
        <time>2026-02-22T10:48:07Z</time>
      </trkpt>
      <trkpt lat="43.59674" lon="6.39513">
        <ele>560.8</ele>
        <time>2026-02-22T10:48:08Z</time>
      </trkpt>
      <trkpt lat="43.59674" lon="6.39514">
        <ele>560.9</ele>
        <time>2026-02-22T10:48:09Z</time>
      </trkpt>
      <trkpt lat="43.59673" lon="6.39514">
        <ele>561</ele>
        <time>2026-02-22T10:48:10Z</time>
      </trkpt>
      <trkpt lat="43.59671" lon="6.39514">
        <ele>561.1</ele>
        <time>2026-02-22T10:48:11Z</time>
      </trkpt>
      <trkpt lat="43.5967" lon="6.39513">
        <ele>561.1</ele>
        <time>2026-02-22T10:48:12Z</time>
      </trkpt>
      <trkpt lat="43.59669" lon="6.39513">
        <ele>561.3</ele>
        <time>2026-02-22T10:48:13Z</time>
      </trkpt>
      <trkpt lat="43.59667" lon="6.39513">
        <ele>561.4</ele>
        <time>2026-02-22T10:48:14Z</time>
      </trkpt>
      <trkpt lat="43.59666" lon="6.39512">
        <ele>561.7</ele>
        <time>2026-02-22T10:48:15Z</time>
      </trkpt>
      <trkpt lat="43.59665" lon="6.39512">
        <ele>561.9</ele>
        <time>2026-02-22T10:48:16Z</time>
      </trkpt>
      <trkpt lat="43.59664" lon="6.39512">
        <ele>562.1</ele>
        <time>2026-02-22T10:48:17Z</time>
      </trkpt>
      <trkpt lat="43.59662" lon="6.39512">
        <ele>562.2</ele>
        <time>2026-02-22T10:48:18Z</time>
      </trkpt>
      <trkpt lat="43.59661" lon="6.39512">
        <ele>562.3</ele>
        <time>2026-02-22T10:48:19Z</time>
      </trkpt>
      <trkpt lat="43.5966" lon="6.39513">
        <ele>562.6</ele>
        <time>2026-02-22T10:48:20Z</time>
      </trkpt>
      <trkpt lat="43.59659" lon="6.39512">
        <ele>562.6</ele>
        <time>2026-02-22T10:48:21Z</time>
      </trkpt>
      <trkpt lat="43.59658" lon="6.39513">
        <ele>562.8</ele>
        <time>2026-02-22T10:48:22Z</time>
      </trkpt>
      <trkpt lat="43.59656" lon="6.39512">
        <ele>562.9</ele>
        <time>2026-02-22T10:48:23Z</time>
      </trkpt>
      <trkpt lat="43.59656" lon="6.39512">
        <ele>562.9</ele>
        <time>2026-02-22T10:48:24Z</time>
      </trkpt>
      <trkpt lat="43.59655" lon="6.39512">
        <ele>563</ele>
        <time>2026-02-22T10:48:25Z</time>
      </trkpt>
      <trkpt lat="43.59654" lon="6.39512">
        <ele>563.2</ele>
        <time>2026-02-22T10:48:26Z</time>
      </trkpt>
      <trkpt lat="43.59653" lon="6.39513">
        <ele>563.3</ele>
        <time>2026-02-22T10:48:27Z</time>
      </trkpt>
      <trkpt lat="43.59652" lon="6.39513">
        <ele>563.3</ele>
        <time>2026-02-22T10:48:28Z</time>
      </trkpt>
      <trkpt lat="43.59651" lon="6.39513">
        <ele>563.4</ele>
        <time>2026-02-22T10:48:29Z</time>
      </trkpt>
      <trkpt lat="43.59649" lon="6.39513">
        <ele>563.5</ele>
        <time>2026-02-22T10:48:30Z</time>
      </trkpt>
      <trkpt lat="43.59648" lon="6.39513">
        <ele>563.6</ele>
        <time>2026-02-22T10:48:31Z</time>
      </trkpt>
      <trkpt lat="43.59647" lon="6.39513">
        <ele>563.9</ele>
        <time>2026-02-22T10:48:32Z</time>
      </trkpt>
      <trkpt lat="43.59646" lon="6.39513">
        <ele>564</ele>
        <time>2026-02-22T10:48:33Z</time>
      </trkpt>
      <trkpt lat="43.59645" lon="6.39513">
        <ele>564.1</ele>
        <time>2026-02-22T10:48:34Z</time>
      </trkpt>
      <trkpt lat="43.59645" lon="6.39513">
        <ele>564.2</ele>
        <time>2026-02-22T10:48:35Z</time>
      </trkpt>
      <trkpt lat="43.59644" lon="6.39512">
        <ele>564.2</ele>
        <time>2026-02-22T10:48:36Z</time>
      </trkpt>
      <trkpt lat="43.59644" lon="6.39512">
        <ele>564.2</ele>
        <time>2026-02-22T10:48:37Z</time>
      </trkpt>
      <trkpt lat="43.59643" lon="6.39512">
        <ele>564.4</ele>
        <time>2026-02-22T10:48:38Z</time>
      </trkpt>
      <trkpt lat="43.59642" lon="6.39511">
        <ele>564.5</ele>
        <time>2026-02-22T10:48:39Z</time>
      </trkpt>
      <trkpt lat="43.59641" lon="6.39511">
        <ele>564.6</ele>
        <time>2026-02-22T10:48:40Z</time>
      </trkpt>
      <trkpt lat="43.5964" lon="6.39511">
        <ele>564.7</ele>
        <time>2026-02-22T10:48:41Z</time>
      </trkpt>
      <trkpt lat="43.59639" lon="6.39511">
        <ele>564.8</ele>
        <time>2026-02-22T10:48:42Z</time>
      </trkpt>
      <trkpt lat="43.59638" lon="6.3951">
        <ele>564.9</ele>
        <time>2026-02-22T10:48:43Z</time>
      </trkpt>
      <trkpt lat="43.59637" lon="6.3951">
        <ele>565</ele>
        <time>2026-02-22T10:48:44Z</time>
      </trkpt>
      <trkpt lat="43.59636" lon="6.3951">
        <ele>565.1</ele>
        <time>2026-02-22T10:48:45Z</time>
      </trkpt>
      <trkpt lat="43.59634" lon="6.3951">
        <ele>565.2</ele>
        <time>2026-02-22T10:48:46Z</time>
      </trkpt>
      <trkpt lat="43.59633" lon="6.3951">
        <ele>565.3</ele>
        <time>2026-02-22T10:48:47Z</time>
      </trkpt>
      <trkpt lat="43.59632" lon="6.3951">
        <ele>565.4</ele>
        <time>2026-02-22T10:48:48Z</time>
      </trkpt>
      <trkpt lat="43.59631" lon="6.3951">
        <ele>565.4</ele>
        <time>2026-02-22T10:48:49Z</time>
      </trkpt>
      <trkpt lat="43.5963" lon="6.3951">
        <ele>565.6</ele>
        <time>2026-02-22T10:48:50Z</time>
      </trkpt>
      <trkpt lat="43.59629" lon="6.3951">
        <ele>565.7</ele>
        <time>2026-02-22T10:48:51Z</time>
      </trkpt>
      <trkpt lat="43.59628" lon="6.3951">
        <ele>565.7</ele>
        <time>2026-02-22T10:48:52Z</time>
      </trkpt>
      <trkpt lat="43.59627" lon="6.3951">
        <ele>565.8</ele>
        <time>2026-02-22T10:48:53Z</time>
      </trkpt>
      <trkpt lat="43.59627" lon="6.3951">
        <ele>565.9</ele>
        <time>2026-02-22T10:48:54Z</time>
      </trkpt>
      <trkpt lat="43.59626" lon="6.39511">
        <ele>566</ele>
        <time>2026-02-22T10:48:55Z</time>
      </trkpt>
      <trkpt lat="43.59624" lon="6.39511">
        <ele>566.1</ele>
        <time>2026-02-22T10:48:56Z</time>
      </trkpt>
      <trkpt lat="43.59623" lon="6.39511">
        <ele>566.1</ele>
        <time>2026-02-22T10:48:57Z</time>
      </trkpt>
      <trkpt lat="43.59622" lon="6.39511">
        <ele>566.3</ele>
        <time>2026-02-22T10:48:58Z</time>
      </trkpt>
      <trkpt lat="43.59621" lon="6.39511">
        <ele>566.4</ele>
        <time>2026-02-22T10:48:59Z</time>
      </trkpt>
      <trkpt lat="43.5962" lon="6.39511">
        <ele>566.5</ele>
        <time>2026-02-22T10:49:00Z</time>
      </trkpt>
      <trkpt lat="43.59619" lon="6.39512">
        <ele>566.6</ele>
        <time>2026-02-22T10:49:01Z</time>
      </trkpt>
      <trkpt lat="43.59618" lon="6.39512">
        <ele>566.6</ele>
        <time>2026-02-22T10:49:02Z</time>
      </trkpt>
      <trkpt lat="43.59617" lon="6.39513">
        <ele>566.7</ele>
        <time>2026-02-22T10:49:03Z</time>
      </trkpt>
      <trkpt lat="43.59616" lon="6.39513">
        <ele>566.7</ele>
        <time>2026-02-22T10:49:04Z</time>
      </trkpt>
      <trkpt lat="43.59616" lon="6.39513">
        <ele>566.6</ele>
        <time>2026-02-22T10:49:05Z</time>
      </trkpt>
      <trkpt lat="43.59614" lon="6.39513">
        <ele>566.6</ele>
        <time>2026-02-22T10:49:06Z</time>
      </trkpt>
      <trkpt lat="43.59613" lon="6.39513">
        <ele>566.7</ele>
        <time>2026-02-22T10:49:07Z</time>
      </trkpt>
      <trkpt lat="43.59612" lon="6.39513">
        <ele>566.7</ele>
        <time>2026-02-22T10:49:08Z</time>
      </trkpt>
      <trkpt lat="43.5961" lon="6.39513">
        <ele>566.7</ele>
        <time>2026-02-22T10:49:09Z</time>
      </trkpt>
      <trkpt lat="43.59609" lon="6.39513">
        <ele>566.7</ele>
        <time>2026-02-22T10:49:10Z</time>
      </trkpt>
      <trkpt lat="43.59608" lon="6.39513">
        <ele>566.8</ele>
        <time>2026-02-22T10:49:11Z</time>
      </trkpt>
      <trkpt lat="43.59607" lon="6.39514">
        <ele>566.9</ele>
        <time>2026-02-22T10:49:12Z</time>
      </trkpt>
      <trkpt lat="43.59606" lon="6.39514">
        <ele>566.9</ele>
        <time>2026-02-22T10:49:13Z</time>
      </trkpt>
      <trkpt lat="43.59605" lon="6.39515">
        <ele>566.9</ele>
        <time>2026-02-22T10:49:14Z</time>
      </trkpt>
      <trkpt lat="43.59604" lon="6.39515">
        <ele>567</ele>
        <time>2026-02-22T10:49:15Z</time>
      </trkpt>
      <trkpt lat="43.59603" lon="6.39515">
        <ele>567.1</ele>
        <time>2026-02-22T10:49:16Z</time>
      </trkpt>
      <trkpt lat="43.59602" lon="6.39515">
        <ele>567.2</ele>
        <time>2026-02-22T10:49:17Z</time>
      </trkpt>
      <trkpt lat="43.596" lon="6.39515">
        <ele>567.3</ele>
        <time>2026-02-22T10:49:18Z</time>
      </trkpt>
      <trkpt lat="43.59599" lon="6.39515">
        <ele>567.4</ele>
        <time>2026-02-22T10:49:19Z</time>
      </trkpt>
      <trkpt lat="43.59598" lon="6.39515">
        <ele>567.4</ele>
        <time>2026-02-22T10:49:20Z</time>
      </trkpt>
      <trkpt lat="43.59597" lon="6.39514">
        <ele>567.5</ele>
        <time>2026-02-22T10:49:21Z</time>
      </trkpt>
      <trkpt lat="43.59596" lon="6.39515">
        <ele>567.6</ele>
        <time>2026-02-22T10:49:22Z</time>
      </trkpt>
      <trkpt lat="43.59595" lon="6.39515">
        <ele>567.7</ele>
        <time>2026-02-22T10:49:23Z</time>
      </trkpt>
      <trkpt lat="43.59594" lon="6.39515">
        <ele>567.7</ele>
        <time>2026-02-22T10:49:24Z</time>
      </trkpt>
      <trkpt lat="43.59593" lon="6.39515">
        <ele>567.8</ele>
        <time>2026-02-22T10:49:25Z</time>
      </trkpt>
      <trkpt lat="43.59592" lon="6.39515">
        <ele>567.8</ele>
        <time>2026-02-22T10:49:26Z</time>
      </trkpt>
      <trkpt lat="43.59591" lon="6.39516">
        <ele>567.9</ele>
        <time>2026-02-22T10:49:27Z</time>
      </trkpt>
      <trkpt lat="43.59591" lon="6.39516">
        <ele>567.8</ele>
        <time>2026-02-22T10:49:28Z</time>
      </trkpt>
      <trkpt lat="43.5959" lon="6.39516">
        <ele>567.9</ele>
        <time>2026-02-22T10:49:29Z</time>
      </trkpt>
      <trkpt lat="43.59589" lon="6.39516">
        <ele>567.9</ele>
        <time>2026-02-22T10:49:30Z</time>
      </trkpt>
      <trkpt lat="43.59588" lon="6.39516">
        <ele>568</ele>
        <time>2026-02-22T10:49:31Z</time>
      </trkpt>
      <trkpt lat="43.59587" lon="6.39515">
        <ele>568.1</ele>
        <time>2026-02-22T10:49:32Z</time>
      </trkpt>
      <trkpt lat="43.59586" lon="6.39516">
        <ele>568.1</ele>
        <time>2026-02-22T10:49:33Z</time>
      </trkpt>
      <trkpt lat="43.59585" lon="6.39516">
        <ele>568.2</ele>
        <time>2026-02-22T10:49:34Z</time>
      </trkpt>
      <trkpt lat="43.59585" lon="6.39516">
        <ele>568.2</ele>
        <time>2026-02-22T10:49:35Z</time>
      </trkpt>
      <trkpt lat="43.59584" lon="6.39517">
        <ele>568.3</ele>
        <time>2026-02-22T10:49:36Z</time>
      </trkpt>
      <trkpt lat="43.59583" lon="6.39517">
        <ele>568.4</ele>
        <time>2026-02-22T10:49:37Z</time>
      </trkpt>
      <trkpt lat="43.59582" lon="6.39517">
        <ele>568.5</ele>
        <time>2026-02-22T10:49:38Z</time>
      </trkpt>
      <trkpt lat="43.59581" lon="6.39517">
        <ele>568.5</ele>
        <time>2026-02-22T10:49:39Z</time>
      </trkpt>
      <trkpt lat="43.59581" lon="6.39517">
        <ele>568.6</ele>
        <time>2026-02-22T10:49:40Z</time>
      </trkpt>
      <trkpt lat="43.5958" lon="6.39517">
        <ele>568.6</ele>
        <time>2026-02-22T10:49:41Z</time>
      </trkpt>
      <trkpt lat="43.5958" lon="6.39517">
        <ele>568.6</ele>
        <time>2026-02-22T10:49:42Z</time>
      </trkpt>
      <trkpt lat="43.5958" lon="6.39517">
        <ele>568.7</ele>
        <time>2026-02-22T10:49:43Z</time>
      </trkpt>
      <trkpt lat="43.59579" lon="6.39518">
        <ele>568.8</ele>
        <time>2026-02-22T10:49:44Z</time>
      </trkpt>
      <trkpt lat="43.59579" lon="6.39518">
        <ele>568.8</ele>
        <time>2026-02-22T10:49:45Z</time>
      </trkpt>
      <trkpt lat="43.59578" lon="6.39518">
        <ele>569</ele>
        <time>2026-02-22T10:49:46Z</time>
      </trkpt>
      <trkpt lat="43.59577" lon="6.39519">
        <ele>569</ele>
        <time>2026-02-22T10:49:47Z</time>
      </trkpt>
      <trkpt lat="43.59576" lon="6.39519">
        <ele>569</ele>
        <time>2026-02-22T10:49:48Z</time>
      </trkpt>
      <trkpt lat="43.59576" lon="6.3952">
        <ele>569.1</ele>
        <time>2026-02-22T10:49:49Z</time>
      </trkpt>
      <trkpt lat="43.59575" lon="6.3952">
        <ele>569.1</ele>
        <time>2026-02-22T10:49:50Z</time>
      </trkpt>
      <trkpt lat="43.59574" lon="6.3952">
        <ele>569.2</ele>
        <time>2026-02-22T10:49:51Z</time>
      </trkpt>
      <trkpt lat="43.59573" lon="6.39521">
        <ele>569.2</ele>
        <time>2026-02-22T10:49:52Z</time>
      </trkpt>
      <trkpt lat="43.59572" lon="6.39522">
        <ele>569.3</ele>
        <time>2026-02-22T10:49:53Z</time>
      </trkpt>
      <trkpt lat="43.59571" lon="6.39522">
        <ele>569.4</ele>
        <time>2026-02-22T10:49:54Z</time>
      </trkpt>
      <trkpt lat="43.5957" lon="6.39523">
        <ele>569.4</ele>
        <time>2026-02-22T10:49:55Z</time>
      </trkpt>
      <trkpt lat="43.59568" lon="6.39524">
        <ele>569.5</ele>
        <time>2026-02-22T10:49:56Z</time>
      </trkpt>
      <trkpt lat="43.59568" lon="6.39525">
        <ele>569.5</ele>
        <time>2026-02-22T10:49:57Z</time>
      </trkpt>
      <trkpt lat="43.59566" lon="6.39525">
        <ele>569.6</ele>
        <time>2026-02-22T10:49:58Z</time>
      </trkpt>
      <trkpt lat="43.59565" lon="6.39525">
        <ele>569.7</ele>
        <time>2026-02-22T10:49:59Z</time>
      </trkpt>
      <trkpt lat="43.59564" lon="6.39526">
        <ele>569.8</ele>
        <time>2026-02-22T10:50:00Z</time>
      </trkpt>
      <trkpt lat="43.59562" lon="6.39526">
        <ele>569.9</ele>
        <time>2026-02-22T10:50:01Z</time>
      </trkpt>
      <trkpt lat="43.59562" lon="6.39527">
        <ele>569.9</ele>
        <time>2026-02-22T10:50:02Z</time>
      </trkpt>
      <trkpt lat="43.59561" lon="6.39527">
        <ele>570</ele>
        <time>2026-02-22T10:50:03Z</time>
      </trkpt>
      <trkpt lat="43.59559" lon="6.39528">
        <ele>570</ele>
        <time>2026-02-22T10:50:04Z</time>
      </trkpt>
      <trkpt lat="43.59559" lon="6.39529">
        <ele>570</ele>
        <time>2026-02-22T10:50:05Z</time>
      </trkpt>
      <trkpt lat="43.59559" lon="6.3953">
        <ele>570.1</ele>
        <time>2026-02-22T10:50:06Z</time>
      </trkpt>
      <trkpt lat="43.59559" lon="6.39532">
        <ele>570.2</ele>
        <time>2026-02-22T10:50:07Z</time>
      </trkpt>
      <trkpt lat="43.59556" lon="6.39533">
        <ele>570.2</ele>
        <time>2026-02-22T10:50:08Z</time>
      </trkpt>
      <trkpt lat="43.59555" lon="6.39536">
        <ele>570.2</ele>
        <time>2026-02-22T10:50:09Z</time>
      </trkpt>
      <trkpt lat="43.59554" lon="6.39538">
        <ele>570.2</ele>
        <time>2026-02-22T10:50:10Z</time>
      </trkpt>
      <trkpt lat="43.59554" lon="6.39539">
        <ele>570.2</ele>
        <time>2026-02-22T10:50:11Z</time>
      </trkpt>
      <trkpt lat="43.59553" lon="6.3954">
        <ele>570.2</ele>
        <time>2026-02-22T10:50:12Z</time>
      </trkpt>
      <trkpt lat="43.59551" lon="6.39542">
        <ele>570.3</ele>
        <time>2026-02-22T10:50:13Z</time>
      </trkpt>
      <trkpt lat="43.59551" lon="6.39543">
        <ele>570.3</ele>
        <time>2026-02-22T10:50:14Z</time>
      </trkpt>
      <trkpt lat="43.5955" lon="6.39544">
        <ele>570.4</ele>
        <time>2026-02-22T10:50:15Z</time>
      </trkpt>
      <trkpt lat="43.59549" lon="6.39545">
        <ele>570.5</ele>
        <time>2026-02-22T10:50:16Z</time>
      </trkpt>
      <trkpt lat="43.59548" lon="6.39545">
        <ele>570.6</ele>
        <time>2026-02-22T10:50:17Z</time>
      </trkpt>
      <trkpt lat="43.59547" lon="6.39545">
        <ele>570.8</ele>
        <time>2026-02-22T10:50:18Z</time>
      </trkpt>
      <trkpt lat="43.59546" lon="6.39546">
        <ele>571</ele>
        <time>2026-02-22T10:50:19Z</time>
      </trkpt>
      <trkpt lat="43.59545" lon="6.39546">
        <ele>571.2</ele>
        <time>2026-02-22T10:50:20Z</time>
      </trkpt>
      <trkpt lat="43.59543" lon="6.39547">
        <ele>571.3</ele>
        <time>2026-02-22T10:50:21Z</time>
      </trkpt>
      <trkpt lat="43.59542" lon="6.39549">
        <ele>571.4</ele>
        <time>2026-02-22T10:50:22Z</time>
      </trkpt>
      <trkpt lat="43.59541" lon="6.39549">
        <ele>571.5</ele>
        <time>2026-02-22T10:50:23Z</time>
      </trkpt>
      <trkpt lat="43.5954" lon="6.3955">
        <ele>571.6</ele>
        <time>2026-02-22T10:50:24Z</time>
      </trkpt>
      <trkpt lat="43.59539" lon="6.39551">
        <ele>571.6</ele>
        <time>2026-02-22T10:50:25Z</time>
      </trkpt>
      <trkpt lat="43.59538" lon="6.39552">
        <ele>571.8</ele>
        <time>2026-02-22T10:50:26Z</time>
      </trkpt>
      <trkpt lat="43.59538" lon="6.39553">
        <ele>571.9</ele>
        <time>2026-02-22T10:50:27Z</time>
      </trkpt>
      <trkpt lat="43.59537" lon="6.39553">
        <ele>572.1</ele>
        <time>2026-02-22T10:50:28Z</time>
      </trkpt>
      <trkpt lat="43.59537" lon="6.39556">
        <ele>572.3</ele>
        <time>2026-02-22T10:50:29Z</time>
      </trkpt>
      <trkpt lat="43.59536" lon="6.39556">
        <ele>572.4</ele>
        <time>2026-02-22T10:50:30Z</time>
      </trkpt>
      <trkpt lat="43.59535" lon="6.39557">
        <ele>572.4</ele>
        <time>2026-02-22T10:50:31Z</time>
      </trkpt>
      <trkpt lat="43.59534" lon="6.39557">
        <ele>572.6</ele>
        <time>2026-02-22T10:50:32Z</time>
      </trkpt>
      <trkpt lat="43.59533" lon="6.39558">
        <ele>572.6</ele>
        <time>2026-02-22T10:50:33Z</time>
      </trkpt>
      <trkpt lat="43.59532" lon="6.39559">
        <ele>572.8</ele>
        <time>2026-02-22T10:50:34Z</time>
      </trkpt>
      <trkpt lat="43.5953" lon="6.39559">
        <ele>572.9</ele>
        <time>2026-02-22T10:50:35Z</time>
      </trkpt>
      <trkpt lat="43.5953" lon="6.3956">
        <ele>573.1</ele>
        <time>2026-02-22T10:50:36Z</time>
      </trkpt>
      <trkpt lat="43.59529" lon="6.39561">
        <ele>573.3</ele>
        <time>2026-02-22T10:50:37Z</time>
      </trkpt>
      <trkpt lat="43.59529" lon="6.39562">
        <ele>573.5</ele>
        <time>2026-02-22T10:50:38Z</time>
      </trkpt>
      <trkpt lat="43.59528" lon="6.39562">
        <ele>573.7</ele>
        <time>2026-02-22T10:50:39Z</time>
      </trkpt>
      <trkpt lat="43.59527" lon="6.39562">
        <ele>573.9</ele>
        <time>2026-02-22T10:50:40Z</time>
      </trkpt>
      <trkpt lat="43.59526" lon="6.39563">
        <ele>574.1</ele>
        <time>2026-02-22T10:50:41Z</time>
      </trkpt>
      <trkpt lat="43.59526" lon="6.39564">
        <ele>574.3</ele>
        <time>2026-02-22T10:50:42Z</time>
      </trkpt>
      <trkpt lat="43.59525" lon="6.39565">
        <ele>574.4</ele>
        <time>2026-02-22T10:50:43Z</time>
      </trkpt>
      <trkpt lat="43.59525" lon="6.39565">
        <ele>574.6</ele>
        <time>2026-02-22T10:50:44Z</time>
      </trkpt>
      <trkpt lat="43.59524" lon="6.39566">
        <ele>574.7</ele>
        <time>2026-02-22T10:50:45Z</time>
      </trkpt>
      <trkpt lat="43.59524" lon="6.39566">
        <ele>574.9</ele>
        <time>2026-02-22T10:50:46Z</time>
      </trkpt>
      <trkpt lat="43.59523" lon="6.39566">
        <ele>575</ele>
        <time>2026-02-22T10:50:47Z</time>
      </trkpt>
      <trkpt lat="43.59523" lon="6.39566">
        <ele>575.2</ele>
        <time>2026-02-22T10:50:48Z</time>
      </trkpt>
      <trkpt lat="43.59523" lon="6.39567">
        <ele>575.2</ele>
        <time>2026-02-22T10:50:49Z</time>
      </trkpt>
      <trkpt lat="43.59522" lon="6.39568">
        <ele>575.3</ele>
        <time>2026-02-22T10:50:50Z</time>
      </trkpt>
      <trkpt lat="43.59521" lon="6.39568">
        <ele>575.4</ele>
        <time>2026-02-22T10:50:51Z</time>
      </trkpt>
      <trkpt lat="43.59519" lon="6.39569">
        <ele>575.4</ele>
        <time>2026-02-22T10:50:52Z</time>
      </trkpt>
      <trkpt lat="43.59517" lon="6.39569">
        <ele>575.6</ele>
        <time>2026-02-22T10:50:53Z</time>
      </trkpt>
      <trkpt lat="43.59514" lon="6.39569">
        <ele>575.6</ele>
        <time>2026-02-22T10:50:54Z</time>
      </trkpt>
      <trkpt lat="43.59513" lon="6.39569">
        <ele>575.7</ele>
        <time>2026-02-22T10:50:55Z</time>
      </trkpt>
      <trkpt lat="43.59513" lon="6.39569">
        <ele>575.8</ele>
        <time>2026-02-22T10:50:56Z</time>
      </trkpt>
      <trkpt lat="43.59513" lon="6.3957">
        <ele>575.8</ele>
        <time>2026-02-22T10:50:57Z</time>
      </trkpt>
      <trkpt lat="43.59511" lon="6.3957">
        <ele>575.9</ele>
        <time>2026-02-22T10:50:58Z</time>
      </trkpt>
      <trkpt lat="43.5951" lon="6.39572">
        <ele>576</ele>
        <time>2026-02-22T10:50:59Z</time>
      </trkpt>
      <trkpt lat="43.59508" lon="6.39572">
        <ele>576.1</ele>
        <time>2026-02-22T10:51:00Z</time>
      </trkpt>
      <trkpt lat="43.59507" lon="6.39572">
        <ele>576.2</ele>
        <time>2026-02-22T10:51:01Z</time>
      </trkpt>
      <trkpt lat="43.59506" lon="6.39572">
        <ele>576.2</ele>
        <time>2026-02-22T10:51:02Z</time>
      </trkpt>
      <trkpt lat="43.59504" lon="6.39573">
        <ele>576.3</ele>
        <time>2026-02-22T10:51:03Z</time>
      </trkpt>
      <trkpt lat="43.59504" lon="6.39574">
        <ele>576.4</ele>
        <time>2026-02-22T10:51:04Z</time>
      </trkpt>
      <trkpt lat="43.59503" lon="6.39575">
        <ele>576.4</ele>
        <time>2026-02-22T10:51:05Z</time>
      </trkpt>
      <trkpt lat="43.59502" lon="6.39576">
        <ele>576.4</ele>
        <time>2026-02-22T10:51:06Z</time>
      </trkpt>
      <trkpt lat="43.59502" lon="6.39576">
        <ele>576.5</ele>
        <time>2026-02-22T10:51:07Z</time>
      </trkpt>
      <trkpt lat="43.59502" lon="6.39576">
        <ele>576.5</ele>
        <time>2026-02-22T10:51:08Z</time>
      </trkpt>
      <trkpt lat="43.59501" lon="6.39577">
        <ele>576.5</ele>
        <time>2026-02-22T10:51:09Z</time>
      </trkpt>
      <trkpt lat="43.595" lon="6.39577">
        <ele>576.5</ele>
        <time>2026-02-22T10:51:10Z</time>
      </trkpt>
      <trkpt lat="43.59499" lon="6.39577">
        <ele>576.5</ele>
        <time>2026-02-22T10:51:11Z</time>
      </trkpt>
      <trkpt lat="43.595" lon="6.39578">
        <ele>576.5</ele>
        <time>2026-02-22T10:51:12Z</time>
      </trkpt>
      <trkpt lat="43.595" lon="6.39578">
        <ele>576.5</ele>
        <time>2026-02-22T10:51:13Z</time>
      </trkpt>
      <trkpt lat="43.595" lon="6.3958">
        <ele>576.6</ele>
        <time>2026-02-22T10:51:14Z</time>
      </trkpt>
      <trkpt lat="43.595" lon="6.3958">
        <ele>576.6</ele>
        <time>2026-02-22T10:51:15Z</time>
      </trkpt>
      <trkpt lat="43.595" lon="6.39581">
        <ele>576.7</ele>
        <time>2026-02-22T10:51:16Z</time>
      </trkpt>
      <trkpt lat="43.59501" lon="6.39582">
        <ele>576.8</ele>
        <time>2026-02-22T10:51:17Z</time>
      </trkpt>
      <trkpt lat="43.59501" lon="6.39582">
        <ele>576.9</ele>
        <time>2026-02-22T10:51:18Z</time>
      </trkpt>
      <trkpt lat="43.595" lon="6.39582">
        <ele>577.1</ele>
        <time>2026-02-22T10:51:19Z</time>
      </trkpt>
      <trkpt lat="43.59498" lon="6.39583">
        <ele>577.2</ele>
        <time>2026-02-22T10:51:20Z</time>
      </trkpt>
      <trkpt lat="43.59497" lon="6.39583">
        <ele>577.2</ele>
        <time>2026-02-22T10:51:21Z</time>
      </trkpt>
      <trkpt lat="43.59496" lon="6.39584">
        <ele>577.2</ele>
        <time>2026-02-22T10:51:22Z</time>
      </trkpt>
      <trkpt lat="43.59495" lon="6.39585">
        <ele>577.2</ele>
        <time>2026-02-22T10:51:23Z</time>
      </trkpt>
      <trkpt lat="43.59494" lon="6.39585">
        <ele>577.2</ele>
        <time>2026-02-22T10:51:24Z</time>
      </trkpt>
      <trkpt lat="43.59493" lon="6.39586">
        <ele>577.2</ele>
        <time>2026-02-22T10:51:25Z</time>
      </trkpt>
      <trkpt lat="43.59493" lon="6.39587">
        <ele>577.3</ele>
        <time>2026-02-22T10:51:26Z</time>
      </trkpt>
      <trkpt lat="43.59491" lon="6.39588">
        <ele>577.4</ele>
        <time>2026-02-22T10:51:27Z</time>
      </trkpt>
      <trkpt lat="43.59489" lon="6.39588">
        <ele>577.5</ele>
        <time>2026-02-22T10:51:28Z</time>
      </trkpt>
      <trkpt lat="43.59489" lon="6.39589">
        <ele>577.6</ele>
        <time>2026-02-22T10:51:29Z</time>
      </trkpt>
      <trkpt lat="43.59488" lon="6.3959">
        <ele>577.7</ele>
        <time>2026-02-22T10:51:30Z</time>
      </trkpt>
      <trkpt lat="43.59485" lon="6.3959">
        <ele>577.9</ele>
        <time>2026-02-22T10:51:31Z</time>
      </trkpt>
      <trkpt lat="43.59483" lon="6.39591">
        <ele>578</ele>
        <time>2026-02-22T10:51:32Z</time>
      </trkpt>
      <trkpt lat="43.59483" lon="6.39593">
        <ele>578.2</ele>
        <time>2026-02-22T10:51:33Z</time>
      </trkpt>
      <trkpt lat="43.59482" lon="6.39594">
        <ele>578.5</ele>
        <time>2026-02-22T10:51:34Z</time>
      </trkpt>
      <trkpt lat="43.59481" lon="6.39596">
        <ele>578.6</ele>
        <time>2026-02-22T10:51:35Z</time>
      </trkpt>
      <trkpt lat="43.59479" lon="6.39597">
        <ele>578.7</ele>
        <time>2026-02-22T10:51:36Z</time>
      </trkpt>
      <trkpt lat="43.59478" lon="6.39598">
        <ele>578.7</ele>
        <time>2026-02-22T10:51:37Z</time>
      </trkpt>
      <trkpt lat="43.59478" lon="6.396">
        <ele>578.8</ele>
        <time>2026-02-22T10:51:38Z</time>
      </trkpt>
      <trkpt lat="43.59477" lon="6.39601">
        <ele>578.9</ele>
        <time>2026-02-22T10:51:39Z</time>
      </trkpt>
      <trkpt lat="43.59476" lon="6.39602">
        <ele>579</ele>
        <time>2026-02-22T10:51:40Z</time>
      </trkpt>
      <trkpt lat="43.59477" lon="6.39604">
        <ele>579.1</ele>
        <time>2026-02-22T10:51:41Z</time>
      </trkpt>
      <trkpt lat="43.59477" lon="6.39605">
        <ele>579.2</ele>
        <time>2026-02-22T10:51:42Z</time>
      </trkpt>
      <trkpt lat="43.59476" lon="6.39607">
        <ele>579.4</ele>
        <time>2026-02-22T10:51:43Z</time>
      </trkpt>
      <trkpt lat="43.59475" lon="6.39609">
        <ele>579.4</ele>
        <time>2026-02-22T10:51:44Z</time>
      </trkpt>
      <trkpt lat="43.59475" lon="6.3961">
        <ele>579.6</ele>
        <time>2026-02-22T10:51:45Z</time>
      </trkpt>
      <trkpt lat="43.59474" lon="6.39611">
        <ele>579.6</ele>
        <time>2026-02-22T10:51:46Z</time>
      </trkpt>
      <trkpt lat="43.59475" lon="6.39612">
        <ele>579.9</ele>
        <time>2026-02-22T10:51:47Z</time>
      </trkpt>
      <trkpt lat="43.59475" lon="6.39613">
        <ele>580</ele>
        <time>2026-02-22T10:51:48Z</time>
      </trkpt>
      <trkpt lat="43.59476" lon="6.39615">
        <ele>580.2</ele>
        <time>2026-02-22T10:51:49Z</time>
      </trkpt>
      <trkpt lat="43.59476" lon="6.39616">
        <ele>580.2</ele>
        <time>2026-02-22T10:51:50Z</time>
      </trkpt>
      <trkpt lat="43.59475" lon="6.39617">
        <ele>580.3</ele>
        <time>2026-02-22T10:51:51Z</time>
      </trkpt>
      <trkpt lat="43.59475" lon="6.39619">
        <ele>580.3</ele>
        <time>2026-02-22T10:51:52Z</time>
      </trkpt>
      <trkpt lat="43.59473" lon="6.3962">
        <ele>580.4</ele>
        <time>2026-02-22T10:51:53Z</time>
      </trkpt>
      <trkpt lat="43.59472" lon="6.39622">
        <ele>580.5</ele>
        <time>2026-02-22T10:51:54Z</time>
      </trkpt>
      <trkpt lat="43.59471" lon="6.39623">
        <ele>580.6</ele>
        <time>2026-02-22T10:51:55Z</time>
      </trkpt>
      <trkpt lat="43.59469" lon="6.39625">
        <ele>580.6</ele>
        <time>2026-02-22T10:51:56Z</time>
      </trkpt>
      <trkpt lat="43.59469" lon="6.39626">
        <ele>580.6</ele>
        <time>2026-02-22T10:51:57Z</time>
      </trkpt>
      <trkpt lat="43.59468" lon="6.39627">
        <ele>580.8</ele>
        <time>2026-02-22T10:51:58Z</time>
      </trkpt>
      <trkpt lat="43.59468" lon="6.39629">
        <ele>580.9</ele>
        <time>2026-02-22T10:51:59Z</time>
      </trkpt>
      <trkpt lat="43.59467" lon="6.3963">
        <ele>581</ele>
        <time>2026-02-22T10:52:00Z</time>
      </trkpt>
      <trkpt lat="43.59468" lon="6.39631">
        <ele>581.1</ele>
        <time>2026-02-22T10:52:01Z</time>
      </trkpt>
      <trkpt lat="43.59466" lon="6.39631">
        <ele>581.2</ele>
        <time>2026-02-22T10:52:02Z</time>
      </trkpt>
      <trkpt lat="43.59465" lon="6.39633">
        <ele>581.3</ele>
        <time>2026-02-22T10:52:03Z</time>
      </trkpt>
      <trkpt lat="43.59465" lon="6.39634">
        <ele>581.4</ele>
        <time>2026-02-22T10:52:04Z</time>
      </trkpt>
      <trkpt lat="43.59464" lon="6.39635">
        <ele>581.4</ele>
        <time>2026-02-22T10:52:05Z</time>
      </trkpt>
      <trkpt lat="43.59463" lon="6.39636">
        <ele>581.5</ele>
        <time>2026-02-22T10:52:06Z</time>
      </trkpt>
      <trkpt lat="43.59463" lon="6.39638">
        <ele>581.6</ele>
        <time>2026-02-22T10:52:07Z</time>
      </trkpt>
      <trkpt lat="43.59462" lon="6.3964">
        <ele>581.7</ele>
        <time>2026-02-22T10:52:08Z</time>
      </trkpt>
      <trkpt lat="43.59462" lon="6.39641">
        <ele>581.8</ele>
        <time>2026-02-22T10:52:09Z</time>
      </trkpt>
      <trkpt lat="43.59461" lon="6.39642">
        <ele>582</ele>
        <time>2026-02-22T10:52:10Z</time>
      </trkpt>
      <trkpt lat="43.59461" lon="6.39643">
        <ele>582.2</ele>
        <time>2026-02-22T10:52:11Z</time>
      </trkpt>
      <trkpt lat="43.59462" lon="6.39644">
        <ele>582.4</ele>
        <time>2026-02-22T10:52:12Z</time>
      </trkpt>
      <trkpt lat="43.59461" lon="6.39645">
        <ele>582.6</ele>
        <time>2026-02-22T10:52:13Z</time>
      </trkpt>
      <trkpt lat="43.59462" lon="6.39647">
        <ele>582.7</ele>
        <time>2026-02-22T10:52:14Z</time>
      </trkpt>
      <trkpt lat="43.59462" lon="6.39648">
        <ele>582.8</ele>
        <time>2026-02-22T10:52:15Z</time>
      </trkpt>
      <trkpt lat="43.59461" lon="6.39649">
        <ele>582.9</ele>
        <time>2026-02-22T10:52:16Z</time>
      </trkpt>
      <trkpt lat="43.59461" lon="6.3965">
        <ele>582.9</ele>
        <time>2026-02-22T10:52:17Z</time>
      </trkpt>
      <trkpt lat="43.59461" lon="6.39652">
        <ele>583</ele>
        <time>2026-02-22T10:52:18Z</time>
      </trkpt>
      <trkpt lat="43.5946" lon="6.39653">
        <ele>583.1</ele>
        <time>2026-02-22T10:52:19Z</time>
      </trkpt>
      <trkpt lat="43.59459" lon="6.39654">
        <ele>583.2</ele>
        <time>2026-02-22T10:52:20Z</time>
      </trkpt>
      <trkpt lat="43.59459" lon="6.39656">
        <ele>583.2</ele>
        <time>2026-02-22T10:52:21Z</time>
      </trkpt>
      <trkpt lat="43.5946" lon="6.39657">
        <ele>583.3</ele>
        <time>2026-02-22T10:52:22Z</time>
      </trkpt>
      <trkpt lat="43.59457" lon="6.39658">
        <ele>583.4</ele>
        <time>2026-02-22T10:52:23Z</time>
      </trkpt>
      <trkpt lat="43.59456" lon="6.39659">
        <ele>583.5</ele>
        <time>2026-02-22T10:52:24Z</time>
      </trkpt>
      <trkpt lat="43.59455" lon="6.3966">
        <ele>583.5</ele>
        <time>2026-02-22T10:52:25Z</time>
      </trkpt>
      <trkpt lat="43.59455" lon="6.39661">
        <ele>583.6</ele>
        <time>2026-02-22T10:52:26Z</time>
      </trkpt>
      <trkpt lat="43.59454" lon="6.39663">
        <ele>583.6</ele>
        <time>2026-02-22T10:52:27Z</time>
      </trkpt>
      <trkpt lat="43.59451" lon="6.39665">
        <ele>583.6</ele>
        <time>2026-02-22T10:52:28Z</time>
      </trkpt>
      <trkpt lat="43.59451" lon="6.39665">
        <ele>583.7</ele>
        <time>2026-02-22T10:52:29Z</time>
      </trkpt>
      <trkpt lat="43.5945" lon="6.39667">
        <ele>583.7</ele>
        <time>2026-02-22T10:52:30Z</time>
      </trkpt>
      <trkpt lat="43.59449" lon="6.39668">
        <ele>583.6</ele>
        <time>2026-02-22T10:52:31Z</time>
      </trkpt>
      <trkpt lat="43.59447" lon="6.39669">
        <ele>583.6</ele>
        <time>2026-02-22T10:52:32Z</time>
      </trkpt>
      <trkpt lat="43.59447" lon="6.39671">
        <ele>583.6</ele>
        <time>2026-02-22T10:52:33Z</time>
      </trkpt>
      <trkpt lat="43.59446" lon="6.39672">
        <ele>583.6</ele>
        <time>2026-02-22T10:52:34Z</time>
      </trkpt>
      <trkpt lat="43.59445" lon="6.39673">
        <ele>583.6</ele>
        <time>2026-02-22T10:52:35Z</time>
      </trkpt>
      <trkpt lat="43.59444" lon="6.39674">
        <ele>583.5</ele>
        <time>2026-02-22T10:52:36Z</time>
      </trkpt>
      <trkpt lat="43.59444" lon="6.39675">
        <ele>583.6</ele>
        <time>2026-02-22T10:52:37Z</time>
      </trkpt>
      <trkpt lat="43.59444" lon="6.39677">
        <ele>583.6</ele>
        <time>2026-02-22T10:52:38Z</time>
      </trkpt>
      <trkpt lat="43.59444" lon="6.39678">
        <ele>583.6</ele>
        <time>2026-02-22T10:52:39Z</time>
      </trkpt>
      <trkpt lat="43.59443" lon="6.39679">
        <ele>583.7</ele>
        <time>2026-02-22T10:52:40Z</time>
      </trkpt>
      <trkpt lat="43.59443" lon="6.3968">
        <ele>583.7</ele>
        <time>2026-02-22T10:52:41Z</time>
      </trkpt>
      <trkpt lat="43.59441" lon="6.39681">
        <ele>583.8</ele>
        <time>2026-02-22T10:52:42Z</time>
      </trkpt>
      <trkpt lat="43.59441" lon="6.39682">
        <ele>583.8</ele>
        <time>2026-02-22T10:52:43Z</time>
      </trkpt>
      <trkpt lat="43.59439" lon="6.39683">
        <ele>583.7</ele>
        <time>2026-02-22T10:52:44Z</time>
      </trkpt>
      <trkpt lat="43.59438" lon="6.39685">
        <ele>583.7</ele>
        <time>2026-02-22T10:52:45Z</time>
      </trkpt>
      <trkpt lat="43.59438" lon="6.39686">
        <ele>583.6</ele>
        <time>2026-02-22T10:52:46Z</time>
      </trkpt>
      <trkpt lat="43.59437" lon="6.39687">
        <ele>583.8</ele>
        <time>2026-02-22T10:52:47Z</time>
      </trkpt>
      <trkpt lat="43.59437" lon="6.39688">
        <ele>583.9</ele>
        <time>2026-02-22T10:52:48Z</time>
      </trkpt>
      <trkpt lat="43.59436" lon="6.39689">
        <ele>584</ele>
        <time>2026-02-22T10:52:49Z</time>
      </trkpt>
      <trkpt lat="43.59435" lon="6.3969">
        <ele>584.1</ele>
        <time>2026-02-22T10:52:50Z</time>
      </trkpt>
      <trkpt lat="43.59435" lon="6.39691">
        <ele>584</ele>
        <time>2026-02-22T10:52:51Z</time>
      </trkpt>
      <trkpt lat="43.59435" lon="6.39692">
        <ele>584.1</ele>
        <time>2026-02-22T10:52:52Z</time>
      </trkpt>
      <trkpt lat="43.59435" lon="6.39693">
        <ele>584.2</ele>
        <time>2026-02-22T10:52:53Z</time>
      </trkpt>
      <trkpt lat="43.59434" lon="6.39694">
        <ele>584.3</ele>
        <time>2026-02-22T10:52:54Z</time>
      </trkpt>
      <trkpt lat="43.59432" lon="6.39696">
        <ele>584.4</ele>
        <time>2026-02-22T10:52:55Z</time>
      </trkpt>
      <trkpt lat="43.59431" lon="6.39697">
        <ele>584.5</ele>
        <time>2026-02-22T10:52:56Z</time>
      </trkpt>
      <trkpt lat="43.5943" lon="6.39698">
        <ele>584.5</ele>
        <time>2026-02-22T10:52:57Z</time>
      </trkpt>
      <trkpt lat="43.5943" lon="6.39699">
        <ele>584.5</ele>
        <time>2026-02-22T10:52:58Z</time>
      </trkpt>
      <trkpt lat="43.59428" lon="6.397">
        <ele>584.5</ele>
        <time>2026-02-22T10:52:59Z</time>
      </trkpt>
      <trkpt lat="43.59427" lon="6.39702">
        <ele>584.5</ele>
        <time>2026-02-22T10:53:00Z</time>
      </trkpt>
      <trkpt lat="43.59426" lon="6.39703">
        <ele>584.4</ele>
        <time>2026-02-22T10:53:01Z</time>
      </trkpt>
      <trkpt lat="43.59425" lon="6.39705">
        <ele>584.4</ele>
        <time>2026-02-22T10:53:02Z</time>
      </trkpt>
      <trkpt lat="43.59425" lon="6.39706">
        <ele>584.4</ele>
        <time>2026-02-22T10:53:03Z</time>
      </trkpt>
      <trkpt lat="43.59425" lon="6.39707">
        <ele>584.3</ele>
        <time>2026-02-22T10:53:04Z</time>
      </trkpt>
      <trkpt lat="43.59424" lon="6.39708">
        <ele>584.3</ele>
        <time>2026-02-22T10:53:05Z</time>
      </trkpt>
      <trkpt lat="43.59422" lon="6.3971">
        <ele>584.2</ele>
        <time>2026-02-22T10:53:06Z</time>
      </trkpt>
      <trkpt lat="43.59422" lon="6.39711">
        <ele>584.2</ele>
        <time>2026-02-22T10:53:07Z</time>
      </trkpt>
      <trkpt lat="43.5942" lon="6.39711">
        <ele>584.2</ele>
        <time>2026-02-22T10:53:08Z</time>
      </trkpt>
      <trkpt lat="43.59419" lon="6.39712">
        <ele>584.1</ele>
        <time>2026-02-22T10:53:09Z</time>
      </trkpt>
      <trkpt lat="43.59418" lon="6.39713">
        <ele>584.1</ele>
        <time>2026-02-22T10:53:10Z</time>
      </trkpt>
      <trkpt lat="43.59417" lon="6.39715">
        <ele>584</ele>
        <time>2026-02-22T10:53:11Z</time>
      </trkpt>
      <trkpt lat="43.59416" lon="6.39715">
        <ele>584</ele>
        <time>2026-02-22T10:53:12Z</time>
      </trkpt>
      <trkpt lat="43.59416" lon="6.39717">
        <ele>584</ele>
        <time>2026-02-22T10:53:13Z</time>
      </trkpt>
      <trkpt lat="43.59416" lon="6.39719">
        <ele>584.1</ele>
        <time>2026-02-22T10:53:14Z</time>
      </trkpt>
      <trkpt lat="43.59415" lon="6.39721">
        <ele>584.2</ele>
        <time>2026-02-22T10:53:15Z</time>
      </trkpt>
      <trkpt lat="43.59414" lon="6.39722">
        <ele>584.2</ele>
        <time>2026-02-22T10:53:16Z</time>
      </trkpt>
      <trkpt lat="43.59413" lon="6.39723">
        <ele>584.4</ele>
        <time>2026-02-22T10:53:17Z</time>
      </trkpt>
      <trkpt lat="43.59412" lon="6.39725">
        <ele>584.5</ele>
        <time>2026-02-22T10:53:18Z</time>
      </trkpt>
      <trkpt lat="43.59412" lon="6.39726">
        <ele>584.7</ele>
        <time>2026-02-22T10:53:19Z</time>
      </trkpt>
      <trkpt lat="43.59411" lon="6.39728">
        <ele>584.9</ele>
        <time>2026-02-22T10:53:20Z</time>
      </trkpt>
      <trkpt lat="43.5941" lon="6.39728">
        <ele>585</ele>
        <time>2026-02-22T10:53:21Z</time>
      </trkpt>
      <trkpt lat="43.59411" lon="6.3973">
        <ele>585.1</ele>
        <time>2026-02-22T10:53:22Z</time>
      </trkpt>
      <trkpt lat="43.5941" lon="6.39731">
        <ele>585.3</ele>
        <time>2026-02-22T10:53:23Z</time>
      </trkpt>
      <trkpt lat="43.59409" lon="6.39732">
        <ele>585.5</ele>
        <time>2026-02-22T10:53:24Z</time>
      </trkpt>
      <trkpt lat="43.59411" lon="6.39734">
        <ele>585.6</ele>
        <time>2026-02-22T10:53:25Z</time>
      </trkpt>
      <trkpt lat="43.5941" lon="6.39735">
        <ele>585.7</ele>
        <time>2026-02-22T10:53:26Z</time>
      </trkpt>
      <trkpt lat="43.5941" lon="6.39736">
        <ele>585.9</ele>
        <time>2026-02-22T10:53:27Z</time>
      </trkpt>
      <trkpt lat="43.59409" lon="6.39738">
        <ele>586</ele>
        <time>2026-02-22T10:53:28Z</time>
      </trkpt>
      <trkpt lat="43.5941" lon="6.3974">
        <ele>586.2</ele>
        <time>2026-02-22T10:53:29Z</time>
      </trkpt>
      <trkpt lat="43.59409" lon="6.39742">
        <ele>586.3</ele>
        <time>2026-02-22T10:53:30Z</time>
      </trkpt>
      <trkpt lat="43.59409" lon="6.39743">
        <ele>586.4</ele>
        <time>2026-02-22T10:53:31Z</time>
      </trkpt>
      <trkpt lat="43.59409" lon="6.39745">
        <ele>586.5</ele>
        <time>2026-02-22T10:53:32Z</time>
      </trkpt>
      <trkpt lat="43.5941" lon="6.39747">
        <ele>586.6</ele>
        <time>2026-02-22T10:53:33Z</time>
      </trkpt>
      <trkpt lat="43.59409" lon="6.39749">
        <ele>586.7</ele>
        <time>2026-02-22T10:53:34Z</time>
      </trkpt>
      <trkpt lat="43.59408" lon="6.3975">
        <ele>586.8</ele>
        <time>2026-02-22T10:53:35Z</time>
      </trkpt>
      <trkpt lat="43.59407" lon="6.39751">
        <ele>586.8</ele>
        <time>2026-02-22T10:53:36Z</time>
      </trkpt>
      <trkpt lat="43.59407" lon="6.39753">
        <ele>586.9</ele>
        <time>2026-02-22T10:53:37Z</time>
      </trkpt>
      <trkpt lat="43.59407" lon="6.39755">
        <ele>587</ele>
        <time>2026-02-22T10:53:38Z</time>
      </trkpt>
      <trkpt lat="43.59407" lon="6.39757">
        <ele>587.2</ele>
        <time>2026-02-22T10:53:39Z</time>
      </trkpt>
      <trkpt lat="43.59408" lon="6.39759">
        <ele>587.3</ele>
        <time>2026-02-22T10:53:40Z</time>
      </trkpt>
      <trkpt lat="43.59408" lon="6.3976">
        <ele>587.4</ele>
        <time>2026-02-22T10:53:41Z</time>
      </trkpt>
      <trkpt lat="43.59408" lon="6.39762">
        <ele>587.5</ele>
        <time>2026-02-22T10:53:42Z</time>
      </trkpt>
      <trkpt lat="43.59407" lon="6.39763">
        <ele>587.6</ele>
        <time>2026-02-22T10:53:43Z</time>
      </trkpt>
      <trkpt lat="43.59407" lon="6.39765">
        <ele>587.7</ele>
        <time>2026-02-22T10:53:44Z</time>
      </trkpt>
      <trkpt lat="43.59408" lon="6.39766">
        <ele>587.8</ele>
        <time>2026-02-22T10:53:45Z</time>
      </trkpt>
      <trkpt lat="43.59406" lon="6.39767">
        <ele>587.9</ele>
        <time>2026-02-22T10:53:46Z</time>
      </trkpt>
      <trkpt lat="43.59405" lon="6.39769">
        <ele>587.9</ele>
        <time>2026-02-22T10:53:47Z</time>
      </trkpt>
      <trkpt lat="43.59406" lon="6.39771">
        <ele>588</ele>
        <time>2026-02-22T10:53:48Z</time>
      </trkpt>
      <trkpt lat="43.59406" lon="6.39772">
        <ele>588.1</ele>
        <time>2026-02-22T10:53:49Z</time>
      </trkpt>
      <trkpt lat="43.59405" lon="6.39773">
        <ele>588.2</ele>
        <time>2026-02-22T10:53:50Z</time>
      </trkpt>
      <trkpt lat="43.59405" lon="6.39774">
        <ele>588.3</ele>
        <time>2026-02-22T10:53:51Z</time>
      </trkpt>
      <trkpt lat="43.59405" lon="6.39776">
        <ele>588.5</ele>
        <time>2026-02-22T10:53:52Z</time>
      </trkpt>
      <trkpt lat="43.59406" lon="6.39777">
        <ele>588.5</ele>
        <time>2026-02-22T10:53:53Z</time>
      </trkpt>
      <trkpt lat="43.59404" lon="6.39778">
        <ele>588.6</ele>
        <time>2026-02-22T10:53:54Z</time>
      </trkpt>
      <trkpt lat="43.59405" lon="6.39779">
        <ele>588.8</ele>
        <time>2026-02-22T10:53:55Z</time>
      </trkpt>
      <trkpt lat="43.59405" lon="6.3978">
        <ele>588.9</ele>
        <time>2026-02-22T10:53:56Z</time>
      </trkpt>
      <trkpt lat="43.59403" lon="6.39781">
        <ele>588.9</ele>
        <time>2026-02-22T10:53:57Z</time>
      </trkpt>
      <trkpt lat="43.59403" lon="6.39782">
        <ele>589</ele>
        <time>2026-02-22T10:53:58Z</time>
      </trkpt>
      <trkpt lat="43.59403" lon="6.39783">
        <ele>589.2</ele>
        <time>2026-02-22T10:53:59Z</time>
      </trkpt>
      <trkpt lat="43.59403" lon="6.39784">
        <ele>589.3</ele>
        <time>2026-02-22T10:54:00Z</time>
      </trkpt>
      <trkpt lat="43.59403" lon="6.39785">
        <ele>589.5</ele>
        <time>2026-02-22T10:54:01Z</time>
      </trkpt>
      <trkpt lat="43.59403" lon="6.39786">
        <ele>589.7</ele>
        <time>2026-02-22T10:54:02Z</time>
      </trkpt>
      <trkpt lat="43.59404" lon="6.39787">
        <ele>589.8</ele>
        <time>2026-02-22T10:54:03Z</time>
      </trkpt>
      <trkpt lat="43.59403" lon="6.39788">
        <ele>589.9</ele>
        <time>2026-02-22T10:54:04Z</time>
      </trkpt>
      <trkpt lat="43.59403" lon="6.39789">
        <ele>590</ele>
        <time>2026-02-22T10:54:05Z</time>
      </trkpt>
      <trkpt lat="43.59403" lon="6.3979">
        <ele>590.2</ele>
        <time>2026-02-22T10:54:06Z</time>
      </trkpt>
      <trkpt lat="43.59403" lon="6.39791">
        <ele>590.4</ele>
        <time>2026-02-22T10:54:07Z</time>
      </trkpt>
      <trkpt lat="43.59402" lon="6.39792">
        <ele>590.5</ele>
        <time>2026-02-22T10:54:08Z</time>
      </trkpt>
      <trkpt lat="43.59402" lon="6.39793">
        <ele>590.7</ele>
        <time>2026-02-22T10:54:09Z</time>
      </trkpt>
      <trkpt lat="43.59401" lon="6.39794">
        <ele>591</ele>
        <time>2026-02-22T10:54:10Z</time>
      </trkpt>
      <trkpt lat="43.59401" lon="6.39795">
        <ele>591.1</ele>
        <time>2026-02-22T10:54:11Z</time>
      </trkpt>
      <trkpt lat="43.59401" lon="6.39796">
        <ele>591.3</ele>
        <time>2026-02-22T10:54:12Z</time>
      </trkpt>
      <trkpt lat="43.594" lon="6.39797">
        <ele>591.4</ele>
        <time>2026-02-22T10:54:13Z</time>
      </trkpt>
      <trkpt lat="43.59399" lon="6.39799">
        <ele>591.6</ele>
        <time>2026-02-22T10:54:14Z</time>
      </trkpt>
      <trkpt lat="43.59399" lon="6.398">
        <ele>591.7</ele>
        <time>2026-02-22T10:54:15Z</time>
      </trkpt>
      <trkpt lat="43.59399" lon="6.39801">
        <ele>591.8</ele>
        <time>2026-02-22T10:54:16Z</time>
      </trkpt>
      <trkpt lat="43.59397" lon="6.39802">
        <ele>591.9</ele>
        <time>2026-02-22T10:54:17Z</time>
      </trkpt>
      <trkpt lat="43.59396" lon="6.39803">
        <ele>592</ele>
        <time>2026-02-22T10:54:18Z</time>
      </trkpt>
      <trkpt lat="43.59396" lon="6.39805">
        <ele>591.9</ele>
        <time>2026-02-22T10:54:19Z</time>
      </trkpt>
      <trkpt lat="43.59396" lon="6.39806">
        <ele>592</ele>
        <time>2026-02-22T10:54:20Z</time>
      </trkpt>
      <trkpt lat="43.59397" lon="6.39808">
        <ele>592</ele>
        <time>2026-02-22T10:54:21Z</time>
      </trkpt>
      <trkpt lat="43.59396" lon="6.39809">
        <ele>592</ele>
        <time>2026-02-22T10:54:22Z</time>
      </trkpt>
      <trkpt lat="43.59395" lon="6.3981">
        <ele>592</ele>
        <time>2026-02-22T10:54:23Z</time>
      </trkpt>
      <trkpt lat="43.59393" lon="6.39811">
        <ele>592</ele>
        <time>2026-02-22T10:54:24Z</time>
      </trkpt>
      <trkpt lat="43.59394" lon="6.39813">
        <ele>591.9</ele>
        <time>2026-02-22T10:54:25Z</time>
      </trkpt>
      <trkpt lat="43.59395" lon="6.39815">
        <ele>592</ele>
        <time>2026-02-22T10:54:26Z</time>
      </trkpt>
      <trkpt lat="43.59395" lon="6.39816">
        <ele>592.1</ele>
        <time>2026-02-22T10:54:27Z</time>
      </trkpt>
      <trkpt lat="43.59393" lon="6.39818">
        <ele>591.9</ele>
        <time>2026-02-22T10:54:28Z</time>
      </trkpt>
      <trkpt lat="43.59394" lon="6.3982">
        <ele>591.9</ele>
        <time>2026-02-22T10:54:29Z</time>
      </trkpt>
      <trkpt lat="43.59395" lon="6.39822">
        <ele>591.9</ele>
        <time>2026-02-22T10:54:30Z</time>
      </trkpt>
      <trkpt lat="43.59395" lon="6.39823">
        <ele>591.9</ele>
        <time>2026-02-22T10:54:31Z</time>
      </trkpt>
      <trkpt lat="43.59393" lon="6.39825">
        <ele>591.9</ele>
        <time>2026-02-22T10:54:32Z</time>
      </trkpt>
      <trkpt lat="43.59393" lon="6.39826">
        <ele>591.9</ele>
        <time>2026-02-22T10:54:33Z</time>
      </trkpt>
      <trkpt lat="43.59392" lon="6.39828">
        <ele>591.8</ele>
        <time>2026-02-22T10:54:34Z</time>
      </trkpt>
      <trkpt lat="43.5939" lon="6.39829">
        <ele>591.8</ele>
        <time>2026-02-22T10:54:35Z</time>
      </trkpt>
      <trkpt lat="43.59391" lon="6.3983">
        <ele>591.8</ele>
        <time>2026-02-22T10:54:36Z</time>
      </trkpt>
      <trkpt lat="43.5939" lon="6.39831">
        <ele>591.8</ele>
        <time>2026-02-22T10:54:37Z</time>
      </trkpt>
      <trkpt lat="43.5939" lon="6.39833">
        <ele>591.8</ele>
        <time>2026-02-22T10:54:38Z</time>
      </trkpt>
      <trkpt lat="43.59388" lon="6.39833">
        <ele>591.8</ele>
        <time>2026-02-22T10:54:39Z</time>
      </trkpt>
      <trkpt lat="43.59386" lon="6.39834">
        <ele>591.9</ele>
        <time>2026-02-22T10:54:40Z</time>
      </trkpt>
      <trkpt lat="43.59385" lon="6.39834">
        <ele>592</ele>
        <time>2026-02-22T10:54:41Z</time>
      </trkpt>
      <trkpt lat="43.59384" lon="6.39835">
        <ele>592.1</ele>
        <time>2026-02-22T10:54:42Z</time>
      </trkpt>
      <trkpt lat="43.59383" lon="6.39835">
        <ele>592.2</ele>
        <time>2026-02-22T10:54:43Z</time>
      </trkpt>
      <trkpt lat="43.59381" lon="6.39836">
        <ele>592.2</ele>
        <time>2026-02-22T10:54:44Z</time>
      </trkpt>
      <trkpt lat="43.59379" lon="6.39838">
        <ele>592.3</ele>
        <time>2026-02-22T10:54:45Z</time>
      </trkpt>
      <trkpt lat="43.59379" lon="6.3984">
        <ele>592.4</ele>
        <time>2026-02-22T10:54:46Z</time>
      </trkpt>
      <trkpt lat="43.59378" lon="6.39841">
        <ele>592.5</ele>
        <time>2026-02-22T10:54:47Z</time>
      </trkpt>
      <trkpt lat="43.59378" lon="6.39841">
        <ele>592.5</ele>
        <time>2026-02-22T10:54:48Z</time>
      </trkpt>
      <trkpt lat="43.59378" lon="6.39843">
        <ele>592.6</ele>
        <time>2026-02-22T10:54:49Z</time>
      </trkpt>
      <trkpt lat="43.59378" lon="6.39845">
        <ele>592.7</ele>
        <time>2026-02-22T10:54:50Z</time>
      </trkpt>
      <trkpt lat="43.59378" lon="6.39845">
        <ele>592.8</ele>
        <time>2026-02-22T10:54:51Z</time>
      </trkpt>
      <trkpt lat="43.59379" lon="6.39847">
        <ele>592.9</ele>
        <time>2026-02-22T10:54:52Z</time>
      </trkpt>
      <trkpt lat="43.59378" lon="6.39849">
        <ele>593</ele>
        <time>2026-02-22T10:54:53Z</time>
      </trkpt>
      <trkpt lat="43.59378" lon="6.39851">
        <ele>593.1</ele>
        <time>2026-02-22T10:54:54Z</time>
      </trkpt>
      <trkpt lat="43.59378" lon="6.39852">
        <ele>593.2</ele>
        <time>2026-02-22T10:54:55Z</time>
      </trkpt>
      <trkpt lat="43.59377" lon="6.39854">
        <ele>593.3</ele>
        <time>2026-02-22T10:54:56Z</time>
      </trkpt>
      <trkpt lat="43.59376" lon="6.39856">
        <ele>593.3</ele>
        <time>2026-02-22T10:54:57Z</time>
      </trkpt>
      <trkpt lat="43.59375" lon="6.39856">
        <ele>593.2</ele>
        <time>2026-02-22T10:54:58Z</time>
      </trkpt>
      <trkpt lat="43.59375" lon="6.39858">
        <ele>593.2</ele>
        <time>2026-02-22T10:54:59Z</time>
      </trkpt>
      <trkpt lat="43.59375" lon="6.3986">
        <ele>593.1</ele>
        <time>2026-02-22T10:55:00Z</time>
      </trkpt>
      <trkpt lat="43.59375" lon="6.39861">
        <ele>593</ele>
        <time>2026-02-22T10:55:01Z</time>
      </trkpt>
      <trkpt lat="43.59374" lon="6.39862">
        <ele>593</ele>
        <time>2026-02-22T10:55:02Z</time>
      </trkpt>
      <trkpt lat="43.59374" lon="6.39862">
        <ele>593</ele>
        <time>2026-02-22T10:55:03Z</time>
      </trkpt>
      <trkpt lat="43.59374" lon="6.39863">
        <ele>592.9</ele>
        <time>2026-02-22T10:55:04Z</time>
      </trkpt>
      <trkpt lat="43.59372" lon="6.39865">
        <ele>592.9</ele>
        <time>2026-02-22T10:55:05Z</time>
      </trkpt>
      <trkpt lat="43.59373" lon="6.39866">
        <ele>593</ele>
        <time>2026-02-22T10:55:06Z</time>
      </trkpt>
      <trkpt lat="43.59373" lon="6.39868">
        <ele>593</ele>
        <time>2026-02-22T10:55:07Z</time>
      </trkpt>
      <trkpt lat="43.59374" lon="6.39869">
        <ele>593</ele>
        <time>2026-02-22T10:55:08Z</time>
      </trkpt>
      <trkpt lat="43.59372" lon="6.3987">
        <ele>593.1</ele>
        <time>2026-02-22T10:55:09Z</time>
      </trkpt>
      <trkpt lat="43.59372" lon="6.39872">
        <ele>593.2</ele>
        <time>2026-02-22T10:55:10Z</time>
      </trkpt>
      <trkpt lat="43.59373" lon="6.39873">
        <ele>593.3</ele>
        <time>2026-02-22T10:55:11Z</time>
      </trkpt>
      <trkpt lat="43.59372" lon="6.39875">
        <ele>593.4</ele>
        <time>2026-02-22T10:55:12Z</time>
      </trkpt>
      <trkpt lat="43.59371" lon="6.39875">
        <ele>593.3</ele>
        <time>2026-02-22T10:55:13Z</time>
      </trkpt>
      <trkpt lat="43.59369" lon="6.39875">
        <ele>593.3</ele>
        <time>2026-02-22T10:55:14Z</time>
      </trkpt>
      <trkpt lat="43.59368" lon="6.39876">
        <ele>593.1</ele>
        <time>2026-02-22T10:55:15Z</time>
      </trkpt>
      <trkpt lat="43.59368" lon="6.39877">
        <ele>593.1</ele>
        <time>2026-02-22T10:55:16Z</time>
      </trkpt>
      <trkpt lat="43.59368" lon="6.39878">
        <ele>593.1</ele>
        <time>2026-02-22T10:55:17Z</time>
      </trkpt>
      <trkpt lat="43.59368" lon="6.39879">
        <ele>593.1</ele>
        <time>2026-02-22T10:55:18Z</time>
      </trkpt>
      <trkpt lat="43.59367" lon="6.3988">
        <ele>593</ele>
        <time>2026-02-22T10:55:19Z</time>
      </trkpt>
      <trkpt lat="43.59367" lon="6.39882">
        <ele>592.9</ele>
        <time>2026-02-22T10:55:20Z</time>
      </trkpt>
      <trkpt lat="43.59367" lon="6.39883">
        <ele>592.9</ele>
        <time>2026-02-22T10:55:21Z</time>
      </trkpt>
      <trkpt lat="43.59365" lon="6.39884">
        <ele>592.8</ele>
        <time>2026-02-22T10:55:22Z</time>
      </trkpt>
      <trkpt lat="43.59365" lon="6.39885">
        <ele>592.7</ele>
        <time>2026-02-22T10:55:23Z</time>
      </trkpt>
      <trkpt lat="43.59364" lon="6.39887">
        <ele>592.7</ele>
        <time>2026-02-22T10:55:24Z</time>
      </trkpt>
      <trkpt lat="43.5936" lon="6.39888">
        <ele>592.7</ele>
        <time>2026-02-22T10:55:25Z</time>
      </trkpt>
      <trkpt lat="43.59359" lon="6.39889">
        <ele>592.7</ele>
        <time>2026-02-22T10:55:26Z</time>
      </trkpt>
      <trkpt lat="43.5936" lon="6.39891">
        <ele>592.7</ele>
        <time>2026-02-22T10:55:27Z</time>
      </trkpt>
      <trkpt lat="43.59361" lon="6.39892">
        <ele>592.7</ele>
        <time>2026-02-22T10:55:28Z</time>
      </trkpt>
      <trkpt lat="43.5936" lon="6.39893">
        <ele>592.7</ele>
        <time>2026-02-22T10:55:29Z</time>
      </trkpt>
      <trkpt lat="43.5936" lon="6.39895">
        <ele>592.7</ele>
        <time>2026-02-22T10:55:30Z</time>
      </trkpt>
      <trkpt lat="43.59359" lon="6.39895">
        <ele>592.9</ele>
        <time>2026-02-22T10:55:31Z</time>
      </trkpt>
      <trkpt lat="43.59357" lon="6.39897">
        <ele>593</ele>
        <time>2026-02-22T10:55:32Z</time>
      </trkpt>
      <trkpt lat="43.59356" lon="6.39897">
        <ele>593</ele>
        <time>2026-02-22T10:55:33Z</time>
      </trkpt>
      <trkpt lat="43.59356" lon="6.39899">
        <ele>593.2</ele>
        <time>2026-02-22T10:55:34Z</time>
      </trkpt>
      <trkpt lat="43.59356" lon="6.399">
        <ele>593.3</ele>
        <time>2026-02-22T10:55:35Z</time>
      </trkpt>
      <trkpt lat="43.59356" lon="6.39901">
        <ele>593.4</ele>
        <time>2026-02-22T10:55:36Z</time>
      </trkpt>
      <trkpt lat="43.59356" lon="6.39902">
        <ele>593.4</ele>
        <time>2026-02-22T10:55:37Z</time>
      </trkpt>
      <trkpt lat="43.59355" lon="6.39904">
        <ele>593.5</ele>
        <time>2026-02-22T10:55:38Z</time>
      </trkpt>
      <trkpt lat="43.59352" lon="6.39905">
        <ele>593.5</ele>
        <time>2026-02-22T10:55:39Z</time>
      </trkpt>
      <trkpt lat="43.59348" lon="6.39907">
        <ele>593.6</ele>
        <time>2026-02-22T10:55:40Z</time>
      </trkpt>
      <trkpt lat="43.59348" lon="6.39908">
        <ele>593.7</ele>
        <time>2026-02-22T10:55:41Z</time>
      </trkpt>
      <trkpt lat="43.59348" lon="6.3991">
        <ele>593.8</ele>
        <time>2026-02-22T10:55:42Z</time>
      </trkpt>
      <trkpt lat="43.59348" lon="6.39912">
        <ele>593.9</ele>
        <time>2026-02-22T10:55:43Z</time>
      </trkpt>
      <trkpt lat="43.59347" lon="6.39913">
        <ele>594</ele>
        <time>2026-02-22T10:55:44Z</time>
      </trkpt>
      <trkpt lat="43.59347" lon="6.39914">
        <ele>594.1</ele>
        <time>2026-02-22T10:55:45Z</time>
      </trkpt>
      <trkpt lat="43.59347" lon="6.39916">
        <ele>594.3</ele>
        <time>2026-02-22T10:55:46Z</time>
      </trkpt>
      <trkpt lat="43.59346" lon="6.39917">
        <ele>594.3</ele>
        <time>2026-02-22T10:55:47Z</time>
      </trkpt>
      <trkpt lat="43.59347" lon="6.39919">
        <ele>594.4</ele>
        <time>2026-02-22T10:55:48Z</time>
      </trkpt>
      <trkpt lat="43.59345" lon="6.3992">
        <ele>594.5</ele>
        <time>2026-02-22T10:55:49Z</time>
      </trkpt>
      <trkpt lat="43.59345" lon="6.39921">
        <ele>594.7</ele>
        <time>2026-02-22T10:55:50Z</time>
      </trkpt>
      <trkpt lat="43.59344" lon="6.39923">
        <ele>594.9</ele>
        <time>2026-02-22T10:55:51Z</time>
      </trkpt>
      <trkpt lat="43.59344" lon="6.39923">
        <ele>595</ele>
        <time>2026-02-22T10:55:52Z</time>
      </trkpt>
      <trkpt lat="43.59344" lon="6.39925">
        <ele>595.1</ele>
        <time>2026-02-22T10:55:53Z</time>
      </trkpt>
      <trkpt lat="43.59342" lon="6.39926">
        <ele>595.2</ele>
        <time>2026-02-22T10:55:54Z</time>
      </trkpt>
      <trkpt lat="43.59341" lon="6.39928">
        <ele>595.3</ele>
        <time>2026-02-22T10:55:55Z</time>
      </trkpt>
      <trkpt lat="43.5934" lon="6.39929">
        <ele>595.3</ele>
        <time>2026-02-22T10:55:56Z</time>
      </trkpt>
      <trkpt lat="43.5934" lon="6.39931">
        <ele>595.4</ele>
        <time>2026-02-22T10:55:57Z</time>
      </trkpt>
      <trkpt lat="43.59339" lon="6.39932">
        <ele>595.4</ele>
        <time>2026-02-22T10:55:58Z</time>
      </trkpt>
      <trkpt lat="43.5934" lon="6.39933">
        <ele>595.6</ele>
        <time>2026-02-22T10:55:59Z</time>
      </trkpt>
      <trkpt lat="43.59339" lon="6.39934">
        <ele>595.5</ele>
        <time>2026-02-22T10:56:00Z</time>
      </trkpt>
      <trkpt lat="43.59339" lon="6.39934">
        <ele>595.5</ele>
        <time>2026-02-22T10:56:01Z</time>
      </trkpt>
      <trkpt lat="43.59339" lon="6.39936">
        <ele>595.4</ele>
        <time>2026-02-22T10:56:02Z</time>
      </trkpt>
      <trkpt lat="43.59339" lon="6.39937">
        <ele>595.3</ele>
        <time>2026-02-22T10:56:03Z</time>
      </trkpt>
      <trkpt lat="43.59338" lon="6.39939">
        <ele>595.4</ele>
        <time>2026-02-22T10:56:04Z</time>
      </trkpt>
      <trkpt lat="43.59337" lon="6.3994">
        <ele>595.4</ele>
        <time>2026-02-22T10:56:05Z</time>
      </trkpt>
      <trkpt lat="43.59337" lon="6.39941">
        <ele>595.4</ele>
        <time>2026-02-22T10:56:06Z</time>
      </trkpt>
      <trkpt lat="43.59337" lon="6.39943">
        <ele>595.4</ele>
        <time>2026-02-22T10:56:07Z</time>
      </trkpt>
      <trkpt lat="43.59337" lon="6.39945">
        <ele>595.4</ele>
        <time>2026-02-22T10:56:08Z</time>
      </trkpt>
      <trkpt lat="43.59337" lon="6.39946">
        <ele>595.4</ele>
        <time>2026-02-22T10:56:09Z</time>
      </trkpt>
      <trkpt lat="43.59337" lon="6.39947">
        <ele>595.3</ele>
        <time>2026-02-22T10:56:10Z</time>
      </trkpt>
      <trkpt lat="43.59338" lon="6.39948">
        <ele>595.3</ele>
        <time>2026-02-22T10:56:11Z</time>
      </trkpt>
      <trkpt lat="43.59337" lon="6.39949">
        <ele>595.4</ele>
        <time>2026-02-22T10:56:12Z</time>
      </trkpt>
      <trkpt lat="43.59336" lon="6.39951">
        <ele>595.4</ele>
        <time>2026-02-22T10:56:13Z</time>
      </trkpt>
      <trkpt lat="43.59336" lon="6.39952">
        <ele>595.4</ele>
        <time>2026-02-22T10:56:14Z</time>
      </trkpt>
      <trkpt lat="43.59336" lon="6.39953">
        <ele>595.4</ele>
        <time>2026-02-22T10:56:15Z</time>
      </trkpt>
      <trkpt lat="43.59335" lon="6.39954">
        <ele>595.4</ele>
        <time>2026-02-22T10:56:16Z</time>
      </trkpt>
      <trkpt lat="43.59334" lon="6.39955">
        <ele>595.5</ele>
        <time>2026-02-22T10:56:17Z</time>
      </trkpt>
      <trkpt lat="43.59332" lon="6.39956">
        <ele>595.6</ele>
        <time>2026-02-22T10:56:18Z</time>
      </trkpt>
      <trkpt lat="43.59332" lon="6.39958">
        <ele>595.7</ele>
        <time>2026-02-22T10:56:19Z</time>
      </trkpt>
      <trkpt lat="43.59332" lon="6.39959">
        <ele>595.8</ele>
        <time>2026-02-22T10:56:20Z</time>
      </trkpt>
      <trkpt lat="43.5933" lon="6.3996">
        <ele>595.9</ele>
        <time>2026-02-22T10:56:21Z</time>
      </trkpt>
      <trkpt lat="43.59329" lon="6.39962">
        <ele>596</ele>
        <time>2026-02-22T10:56:22Z</time>
      </trkpt>
      <trkpt lat="43.59329" lon="6.39963">
        <ele>596</ele>
        <time>2026-02-22T10:56:23Z</time>
      </trkpt>
      <trkpt lat="43.59329" lon="6.39965">
        <ele>596</ele>
        <time>2026-02-22T10:56:24Z</time>
      </trkpt>
      <trkpt lat="43.59328" lon="6.39966">
        <ele>596.1</ele>
        <time>2026-02-22T10:56:25Z</time>
      </trkpt>
      <trkpt lat="43.59328" lon="6.39967">
        <ele>596.3</ele>
        <time>2026-02-22T10:56:26Z</time>
      </trkpt>
      <trkpt lat="43.59328" lon="6.39968">
        <ele>596.4</ele>
        <time>2026-02-22T10:56:27Z</time>
      </trkpt>
      <trkpt lat="43.59327" lon="6.3997">
        <ele>596.5</ele>
        <time>2026-02-22T10:56:28Z</time>
      </trkpt>
      <trkpt lat="43.59326" lon="6.39971">
        <ele>596.6</ele>
        <time>2026-02-22T10:56:29Z</time>
      </trkpt>
      <trkpt lat="43.59325" lon="6.39972">
        <ele>596.8</ele>
        <time>2026-02-22T10:56:30Z</time>
      </trkpt>
      <trkpt lat="43.59323" lon="6.39972">
        <ele>596.9</ele>
        <time>2026-02-22T10:56:31Z</time>
      </trkpt>
      <trkpt lat="43.59323" lon="6.39973">
        <ele>597.1</ele>
        <time>2026-02-22T10:56:32Z</time>
      </trkpt>
      <trkpt lat="43.59322" lon="6.39974">
        <ele>597.2</ele>
        <time>2026-02-22T10:56:33Z</time>
      </trkpt>
      <trkpt lat="43.5932" lon="6.39975">
        <ele>597.3</ele>
        <time>2026-02-22T10:56:34Z</time>
      </trkpt>
      <trkpt lat="43.59319" lon="6.39975">
        <ele>597.3</ele>
        <time>2026-02-22T10:56:35Z</time>
      </trkpt>
      <trkpt lat="43.59319" lon="6.39977">
        <ele>597.4</ele>
        <time>2026-02-22T10:56:36Z</time>
      </trkpt>
      <trkpt lat="43.59319" lon="6.39977">
        <ele>597.5</ele>
        <time>2026-02-22T10:56:37Z</time>
      </trkpt>
      <trkpt lat="43.59319" lon="6.39978">
        <ele>597.7</ele>
        <time>2026-02-22T10:56:38Z</time>
      </trkpt>
      <trkpt lat="43.59319" lon="6.39979">
        <ele>598</ele>
        <time>2026-02-22T10:56:39Z</time>
      </trkpt>
      <trkpt lat="43.59318" lon="6.39979">
        <ele>598.1</ele>
        <time>2026-02-22T10:56:40Z</time>
      </trkpt>
      <trkpt lat="43.59317" lon="6.3998">
        <ele>598.3</ele>
        <time>2026-02-22T10:56:41Z</time>
      </trkpt>
      <trkpt lat="43.59316" lon="6.39981">
        <ele>598.4</ele>
        <time>2026-02-22T10:56:42Z</time>
      </trkpt>
      <trkpt lat="43.59315" lon="6.39981">
        <ele>598.6</ele>
        <time>2026-02-22T10:56:43Z</time>
      </trkpt>
      <trkpt lat="43.59314" lon="6.39982">
        <ele>598.8</ele>
        <time>2026-02-22T10:56:44Z</time>
      </trkpt>
      <trkpt lat="43.59313" lon="6.39982">
        <ele>598.9</ele>
        <time>2026-02-22T10:56:45Z</time>
      </trkpt>
      <trkpt lat="43.59312" lon="6.39983">
        <ele>599</ele>
        <time>2026-02-22T10:56:46Z</time>
      </trkpt>
      <trkpt lat="43.59311" lon="6.39984">
        <ele>599.1</ele>
        <time>2026-02-22T10:56:47Z</time>
      </trkpt>
      <trkpt lat="43.5931" lon="6.39984">
        <ele>599.2</ele>
        <time>2026-02-22T10:56:48Z</time>
      </trkpt>
      <trkpt lat="43.59309" lon="6.39985">
        <ele>599.4</ele>
        <time>2026-02-22T10:56:49Z</time>
      </trkpt>
      <trkpt lat="43.59308" lon="6.39986">
        <ele>599.5</ele>
        <time>2026-02-22T10:56:50Z</time>
      </trkpt>
      <trkpt lat="43.59307" lon="6.39987">
        <ele>599.7</ele>
        <time>2026-02-22T10:56:51Z</time>
      </trkpt>
      <trkpt lat="43.59307" lon="6.39988">
        <ele>599.9</ele>
        <time>2026-02-22T10:56:52Z</time>
      </trkpt>
      <trkpt lat="43.59305" lon="6.39988">
        <ele>600</ele>
        <time>2026-02-22T10:56:53Z</time>
      </trkpt>
      <trkpt lat="43.59305" lon="6.39989">
        <ele>600.1</ele>
        <time>2026-02-22T10:56:54Z</time>
      </trkpt>
      <trkpt lat="43.59304" lon="6.39991">
        <ele>600.2</ele>
        <time>2026-02-22T10:56:55Z</time>
      </trkpt>
      <trkpt lat="43.59303" lon="6.39991">
        <ele>600.4</ele>
        <time>2026-02-22T10:56:56Z</time>
      </trkpt>
      <trkpt lat="43.59302" lon="6.39992">
        <ele>600.5</ele>
        <time>2026-02-22T10:56:57Z</time>
      </trkpt>
      <trkpt lat="43.59301" lon="6.39993">
        <ele>600.7</ele>
        <time>2026-02-22T10:56:58Z</time>
      </trkpt>
      <trkpt lat="43.593" lon="6.39995">
        <ele>600.8</ele>
        <time>2026-02-22T10:56:59Z</time>
      </trkpt>
      <trkpt lat="43.59299" lon="6.39996">
        <ele>600.9</ele>
        <time>2026-02-22T10:57:00Z</time>
      </trkpt>
      <trkpt lat="43.59297" lon="6.39997">
        <ele>601.1</ele>
        <time>2026-02-22T10:57:01Z</time>
      </trkpt>
      <trkpt lat="43.59296" lon="6.39998">
        <ele>601.1</ele>
        <time>2026-02-22T10:57:02Z</time>
      </trkpt>
      <trkpt lat="43.59295" lon="6.39999">
        <ele>601.2</ele>
        <time>2026-02-22T10:57:03Z</time>
      </trkpt>
      <trkpt lat="43.59294" lon="6.4">
        <ele>601.2</ele>
        <time>2026-02-22T10:57:04Z</time>
      </trkpt>
      <trkpt lat="43.59293" lon="6.4">
        <ele>601.4</ele>
        <time>2026-02-22T10:57:05Z</time>
      </trkpt>
      <trkpt lat="43.59292" lon="6.40001">
        <ele>601.5</ele>
        <time>2026-02-22T10:57:06Z</time>
      </trkpt>
      <trkpt lat="43.59291" lon="6.40002">
        <ele>601.7</ele>
        <time>2026-02-22T10:57:07Z</time>
      </trkpt>
      <trkpt lat="43.5929" lon="6.40002">
        <ele>601.7</ele>
        <time>2026-02-22T10:57:08Z</time>
      </trkpt>
      <trkpt lat="43.5929" lon="6.40003">
        <ele>601.8</ele>
        <time>2026-02-22T10:57:09Z</time>
      </trkpt>
      <trkpt lat="43.59289" lon="6.40003">
        <ele>601.9</ele>
        <time>2026-02-22T10:57:10Z</time>
      </trkpt>
      <trkpt lat="43.59289" lon="6.40004">
        <ele>602</ele>
        <time>2026-02-22T10:57:11Z</time>
      </trkpt>
      <trkpt lat="43.59288" lon="6.40005">
        <ele>602.1</ele>
        <time>2026-02-22T10:57:12Z</time>
      </trkpt>
      <trkpt lat="43.59287" lon="6.40006">
        <ele>602.2</ele>
        <time>2026-02-22T10:57:13Z</time>
      </trkpt>
      <trkpt lat="43.59286" lon="6.40006">
        <ele>602.3</ele>
        <time>2026-02-22T10:57:14Z</time>
      </trkpt>
      <trkpt lat="43.59285" lon="6.40007">
        <ele>602.4</ele>
        <time>2026-02-22T10:57:15Z</time>
      </trkpt>
      <trkpt lat="43.59284" lon="6.40007">
        <ele>602.4</ele>
        <time>2026-02-22T10:57:16Z</time>
      </trkpt>
      <trkpt lat="43.59283" lon="6.40008">
        <ele>602.6</ele>
        <time>2026-02-22T10:57:17Z</time>
      </trkpt>
      <trkpt lat="43.59283" lon="6.4001">
        <ele>602.6</ele>
        <time>2026-02-22T10:57:18Z</time>
      </trkpt>
      <trkpt lat="43.59282" lon="6.4001">
        <ele>602.7</ele>
        <time>2026-02-22T10:57:19Z</time>
      </trkpt>
      <trkpt lat="43.59281" lon="6.4001">
        <ele>602.7</ele>
        <time>2026-02-22T10:57:20Z</time>
      </trkpt>
      <trkpt lat="43.59281" lon="6.40011">
        <ele>602.8</ele>
        <time>2026-02-22T10:57:21Z</time>
      </trkpt>
      <trkpt lat="43.5928" lon="6.40012">
        <ele>602.8</ele>
        <time>2026-02-22T10:57:22Z</time>
      </trkpt>
      <trkpt lat="43.59279" lon="6.40013">
        <ele>602.8</ele>
        <time>2026-02-22T10:57:23Z</time>
      </trkpt>
      <trkpt lat="43.59279" lon="6.40014">
        <ele>602.8</ele>
        <time>2026-02-22T10:57:24Z</time>
      </trkpt>
      <trkpt lat="43.59279" lon="6.40015">
        <ele>602.9</ele>
        <time>2026-02-22T10:57:25Z</time>
      </trkpt>
      <trkpt lat="43.59278" lon="6.40016">
        <ele>603</ele>
        <time>2026-02-22T10:57:26Z</time>
      </trkpt>
      <trkpt lat="43.59278" lon="6.40017">
        <ele>603</ele>
        <time>2026-02-22T10:57:27Z</time>
      </trkpt>
      <trkpt lat="43.59276" lon="6.40017">
        <ele>603.1</ele>
        <time>2026-02-22T10:57:28Z</time>
      </trkpt>
      <trkpt lat="43.59276" lon="6.40018">
        <ele>603.1</ele>
        <time>2026-02-22T10:57:29Z</time>
      </trkpt>
      <trkpt lat="43.59275" lon="6.40018">
        <ele>603.2</ele>
        <time>2026-02-22T10:57:30Z</time>
      </trkpt>
      <trkpt lat="43.59274" lon="6.40019">
        <ele>603.4</ele>
        <time>2026-02-22T10:57:31Z</time>
      </trkpt>
      <trkpt lat="43.59274" lon="6.4002">
        <ele>603.5</ele>
        <time>2026-02-22T10:57:32Z</time>
      </trkpt>
      <trkpt lat="43.59273" lon="6.40021">
        <ele>603.7</ele>
        <time>2026-02-22T10:57:33Z</time>
      </trkpt>
      <trkpt lat="43.59273" lon="6.40022">
        <ele>603.8</ele>
        <time>2026-02-22T10:57:34Z</time>
      </trkpt>
      <trkpt lat="43.59273" lon="6.40022">
        <ele>603.9</ele>
        <time>2026-02-22T10:57:35Z</time>
      </trkpt>
      <trkpt lat="43.59272" lon="6.40023">
        <ele>604</ele>
        <time>2026-02-22T10:57:36Z</time>
      </trkpt>
      <trkpt lat="43.59271" lon="6.40024">
        <ele>604</ele>
        <time>2026-02-22T10:57:37Z</time>
      </trkpt>
      <trkpt lat="43.59269" lon="6.40024">
        <ele>604.2</ele>
        <time>2026-02-22T10:57:38Z</time>
      </trkpt>
      <trkpt lat="43.59268" lon="6.40025">
        <ele>604.3</ele>
        <time>2026-02-22T10:57:39Z</time>
      </trkpt>
      <trkpt lat="43.59266" lon="6.40026">
        <ele>604.4</ele>
        <time>2026-02-22T10:57:40Z</time>
      </trkpt>
      <trkpt lat="43.59265" lon="6.40026">
        <ele>604.6</ele>
        <time>2026-02-22T10:57:41Z</time>
      </trkpt>
      <trkpt lat="43.59264" lon="6.40027">
        <ele>604.7</ele>
        <time>2026-02-22T10:57:42Z</time>
      </trkpt>
      <trkpt lat="43.59262" lon="6.40028">
        <ele>604.7</ele>
        <time>2026-02-22T10:57:43Z</time>
      </trkpt>
      <trkpt lat="43.59261" lon="6.40028">
        <ele>604.7</ele>
        <time>2026-02-22T10:57:44Z</time>
      </trkpt>
      <trkpt lat="43.59261" lon="6.40029">
        <ele>604.9</ele>
        <time>2026-02-22T10:57:45Z</time>
      </trkpt>
      <trkpt lat="43.59259" lon="6.40029">
        <ele>604.9</ele>
        <time>2026-02-22T10:57:46Z</time>
      </trkpt>
      <trkpt lat="43.59258" lon="6.40029">
        <ele>605</ele>
        <time>2026-02-22T10:57:47Z</time>
      </trkpt>
      <trkpt lat="43.59257" lon="6.4003">
        <ele>605.1</ele>
        <time>2026-02-22T10:57:48Z</time>
      </trkpt>
      <trkpt lat="43.59256" lon="6.4003">
        <ele>605.2</ele>
        <time>2026-02-22T10:57:49Z</time>
      </trkpt>
      <trkpt lat="43.59255" lon="6.40031">
        <ele>605.4</ele>
        <time>2026-02-22T10:57:50Z</time>
      </trkpt>
      <trkpt lat="43.59255" lon="6.40031">
        <ele>605.5</ele>
        <time>2026-02-22T10:57:51Z</time>
      </trkpt>
      <trkpt lat="43.59254" lon="6.40033">
        <ele>605.7</ele>
        <time>2026-02-22T10:57:52Z</time>
      </trkpt>
      <trkpt lat="43.59253" lon="6.40033">
        <ele>605.8</ele>
        <time>2026-02-22T10:57:53Z</time>
      </trkpt>
      <trkpt lat="43.59253" lon="6.40034">
        <ele>606</ele>
        <time>2026-02-22T10:57:54Z</time>
      </trkpt>
      <trkpt lat="43.59252" lon="6.40035">
        <ele>606</ele>
        <time>2026-02-22T10:57:55Z</time>
      </trkpt>
      <trkpt lat="43.59252" lon="6.40035">
        <ele>606.1</ele>
        <time>2026-02-22T10:57:56Z</time>
      </trkpt>
      <trkpt lat="43.59252" lon="6.40036">
        <ele>606.2</ele>
        <time>2026-02-22T10:57:57Z</time>
      </trkpt>
      <trkpt lat="43.59252" lon="6.40036">
        <ele>606.2</ele>
        <time>2026-02-22T10:57:58Z</time>
      </trkpt>
      <trkpt lat="43.59252" lon="6.40036">
        <ele>606.3</ele>
        <time>2026-02-22T10:57:59Z</time>
      </trkpt>
      <trkpt lat="43.59251" lon="6.40037">
        <ele>606.4</ele>
        <time>2026-02-22T10:58:00Z</time>
      </trkpt>
      <trkpt lat="43.59251" lon="6.40037">
        <ele>606.5</ele>
        <time>2026-02-22T10:58:01Z</time>
      </trkpt>
      <trkpt lat="43.59251" lon="6.40037">
        <ele>606.5</ele>
        <time>2026-02-22T10:58:02Z</time>
      </trkpt>
      <trkpt lat="43.59251" lon="6.40038">
        <ele>606.6</ele>
        <time>2026-02-22T10:58:03Z</time>
      </trkpt>
      <trkpt lat="43.5925" lon="6.40038">
        <ele>606.6</ele>
        <time>2026-02-22T10:58:04Z</time>
      </trkpt>
      <trkpt lat="43.5925" lon="6.40038">
        <ele>606.6</ele>
        <time>2026-02-22T10:58:05Z</time>
      </trkpt>
      <trkpt lat="43.5925" lon="6.40038">
        <ele>606.6</ele>
        <time>2026-02-22T10:58:06Z</time>
      </trkpt>
      <trkpt lat="43.59249" lon="6.40038">
        <ele>606.7</ele>
        <time>2026-02-22T10:58:07Z</time>
      </trkpt>
      <trkpt lat="43.59249" lon="6.40038">
        <ele>606.7</ele>
        <time>2026-02-22T10:58:08Z</time>
      </trkpt>
      <trkpt lat="43.59249" lon="6.40039">
        <ele>606.7</ele>
        <time>2026-02-22T10:58:09Z</time>
      </trkpt>
      <trkpt lat="43.59249" lon="6.40039">
        <ele>606.7</ele>
        <time>2026-02-22T10:58:10Z</time>
      </trkpt>
      <trkpt lat="43.59249" lon="6.40039">
        <ele>606.7</ele>
        <time>2026-02-22T10:58:11Z</time>
      </trkpt>
      <trkpt lat="43.59249" lon="6.40039">
        <ele>606.7</ele>
        <time>2026-02-22T10:58:12Z</time>
      </trkpt>
      <trkpt lat="43.59249" lon="6.40039">
        <ele>606.7</ele>
        <time>2026-02-22T10:58:13Z</time>
      </trkpt>
      <trkpt lat="43.59248" lon="6.40039">
        <ele>606.7</ele>
        <time>2026-02-22T10:58:14Z</time>
      </trkpt>
      <trkpt lat="43.59248" lon="6.4004">
        <ele>606.7</ele>
        <time>2026-02-22T10:58:15Z</time>
      </trkpt>
      <trkpt lat="43.59248" lon="6.4004">
        <ele>606.7</ele>
        <time>2026-02-22T10:58:16Z</time>
      </trkpt>
      <trkpt lat="43.59248" lon="6.4004">
        <ele>606.7</ele>
        <time>2026-02-22T10:58:17Z</time>
      </trkpt>
      <trkpt lat="43.59248" lon="6.4004">
        <ele>606.8</ele>
        <time>2026-02-22T10:58:18Z</time>
      </trkpt>
      <trkpt lat="43.59248" lon="6.40041">
        <ele>606.7</ele>
        <time>2026-02-22T10:58:19Z</time>
      </trkpt>
      <trkpt lat="43.59247" lon="6.40041">
        <ele>606.7</ele>
        <time>2026-02-22T10:58:20Z</time>
      </trkpt>
      <trkpt lat="43.59247" lon="6.40041">
        <ele>606.6</ele>
        <time>2026-02-22T10:58:21Z</time>
      </trkpt>
      <trkpt lat="43.59247" lon="6.40041">
        <ele>606.6</ele>
        <time>2026-02-22T10:58:22Z</time>
      </trkpt>
      <trkpt lat="43.59247" lon="6.40041">
        <ele>606.6</ele>
        <time>2026-02-22T10:58:23Z</time>
      </trkpt>
      <trkpt lat="43.59247" lon="6.40041">
        <ele>606.6</ele>
        <time>2026-02-22T10:58:24Z</time>
      </trkpt>
      <trkpt lat="43.59246" lon="6.40041">
        <ele>606.6</ele>
        <time>2026-02-22T10:58:25Z</time>
      </trkpt>
      <trkpt lat="43.59246" lon="6.40041">
        <ele>606.7</ele>
        <time>2026-02-22T10:58:26Z</time>
      </trkpt>
      <trkpt lat="43.59246" lon="6.40041">
        <ele>606.7</ele>
        <time>2026-02-22T10:58:27Z</time>
      </trkpt>
      <trkpt lat="43.59246" lon="6.40041">
        <ele>606.8</ele>
        <time>2026-02-22T10:58:28Z</time>
      </trkpt>
      <trkpt lat="43.59246" lon="6.40041">
        <ele>606.9</ele>
        <time>2026-02-22T10:58:29Z</time>
      </trkpt>
      <trkpt lat="43.59246" lon="6.40041">
        <ele>606.9</ele>
        <time>2026-02-22T10:58:30Z</time>
      </trkpt>
      <trkpt lat="43.59246" lon="6.40041">
        <ele>606.8</ele>
        <time>2026-02-22T10:58:31Z</time>
      </trkpt>
      <trkpt lat="43.59246" lon="6.40041">
        <ele>606.8</ele>
        <time>2026-02-22T10:58:32Z</time>
      </trkpt>
      <trkpt lat="43.59246" lon="6.40041">
        <ele>606.8</ele>
        <time>2026-02-22T10:58:33Z</time>
      </trkpt>
      <trkpt lat="43.59246" lon="6.40041">
        <ele>606.8</ele>
        <time>2026-02-22T10:58:34Z</time>
      </trkpt>
      <trkpt lat="43.59246" lon="6.40041">
        <ele>606.8</ele>
        <time>2026-02-22T10:58:35Z</time>
      </trkpt>
      <trkpt lat="43.59246" lon="6.40041">
        <ele>606.8</ele>
        <time>2026-02-22T10:58:36Z</time>
      </trkpt>
      <trkpt lat="43.59246" lon="6.40041">
        <ele>606.7</ele>
        <time>2026-02-22T10:58:37Z</time>
      </trkpt>
      <trkpt lat="43.59246" lon="6.40041">
        <ele>606.7</ele>
        <time>2026-02-22T10:58:38Z</time>
      </trkpt>
      <trkpt lat="43.59246" lon="6.40041">
        <ele>606.8</ele>
        <time>2026-02-22T10:58:39Z</time>
      </trkpt>
      <trkpt lat="43.59246" lon="6.40042">
        <ele>606.8</ele>
        <time>2026-02-22T10:58:40Z</time>
      </trkpt>
      <trkpt lat="43.59246" lon="6.40042">
        <ele>606.8</ele>
        <time>2026-02-22T10:58:41Z</time>
      </trkpt>
      <trkpt lat="43.59246" lon="6.40042">
        <ele>606.8</ele>
        <time>2026-02-22T10:58:42Z</time>
      </trkpt>
      <trkpt lat="43.59246" lon="6.40042">
        <ele>606.8</ele>
        <time>2026-02-22T10:58:43Z</time>
      </trkpt>
      <trkpt lat="43.59246" lon="6.40042">
        <ele>606.8</ele>
        <time>2026-02-22T10:58:44Z</time>
      </trkpt>
      <trkpt lat="43.59246" lon="6.40042">
        <ele>606.8</ele>
        <time>2026-02-22T10:58:45Z</time>
      </trkpt>
      <trkpt lat="43.59246" lon="6.40042">
        <ele>606.8</ele>
        <time>2026-02-22T10:58:46Z</time>
      </trkpt>
      <trkpt lat="43.59246" lon="6.40042">
        <ele>606.8</ele>
        <time>2026-02-22T10:58:47Z</time>
      </trkpt>
      <trkpt lat="43.59246" lon="6.40043">
        <ele>606.8</ele>
        <time>2026-02-22T10:58:48Z</time>
      </trkpt>
      <trkpt lat="43.59247" lon="6.40042">
        <ele>606.9</ele>
        <time>2026-02-22T10:58:49Z</time>
      </trkpt>
      <trkpt lat="43.59246" lon="6.40042">
        <ele>607</ele>
        <time>2026-02-22T10:58:50Z</time>
      </trkpt>
      <trkpt lat="43.59247" lon="6.40043">
        <ele>607</ele>
        <time>2026-02-22T10:58:51Z</time>
      </trkpt>
      <trkpt lat="43.59246" lon="6.40043">
        <ele>607</ele>
        <time>2026-02-22T10:58:52Z</time>
      </trkpt>
      <trkpt lat="43.59246" lon="6.40043">
        <ele>607</ele>
        <time>2026-02-22T10:58:53Z</time>
      </trkpt>
      <trkpt lat="43.59246" lon="6.40043">
        <ele>607</ele>
        <time>2026-02-22T10:58:54Z</time>
      </trkpt>
      <trkpt lat="43.59246" lon="6.40043">
        <ele>607</ele>
        <time>2026-02-22T10:58:55Z</time>
      </trkpt>
      <trkpt lat="43.59246" lon="6.40043">
        <ele>607</ele>
        <time>2026-02-22T10:58:56Z</time>
      </trkpt>
      <trkpt lat="43.59246" lon="6.40043">
        <ele>607</ele>
        <time>2026-02-22T10:58:57Z</time>
      </trkpt>
      <trkpt lat="43.59246" lon="6.40043">
        <ele>607</ele>
        <time>2026-02-22T10:58:58Z</time>
      </trkpt>
      <trkpt lat="43.59246" lon="6.40043">
        <ele>607</ele>
        <time>2026-02-22T10:58:59Z</time>
      </trkpt>
      <trkpt lat="43.59246" lon="6.40043">
        <ele>607</ele>
        <time>2026-02-22T10:59:00Z</time>
      </trkpt>
      <trkpt lat="43.59246" lon="6.40043">
        <ele>607</ele>
        <time>2026-02-22T10:59:01Z</time>
      </trkpt>
      <trkpt lat="43.59246" lon="6.40043">
        <ele>607</ele>
        <time>2026-02-22T10:59:02Z</time>
      </trkpt>
      <trkpt lat="43.59246" lon="6.40043">
        <ele>607</ele>
        <time>2026-02-22T10:59:03Z</time>
      </trkpt>
      <trkpt lat="43.59246" lon="6.40043">
        <ele>607</ele>
        <time>2026-02-22T10:59:04Z</time>
      </trkpt>
      <trkpt lat="43.59246" lon="6.40043">
        <ele>607.1</ele>
        <time>2026-02-22T10:59:05Z</time>
      </trkpt>
      <trkpt lat="43.59246" lon="6.40043">
        <ele>607.1</ele>
        <time>2026-02-22T10:59:06Z</time>
      </trkpt>
      <trkpt lat="43.59246" lon="6.40043">
        <ele>607.1</ele>
        <time>2026-02-22T10:59:07Z</time>
      </trkpt>
      <trkpt lat="43.59246" lon="6.40043">
        <ele>607.2</ele>
        <time>2026-02-22T10:59:08Z</time>
      </trkpt>
      <trkpt lat="43.59246" lon="6.40043">
        <ele>607.3</ele>
        <time>2026-02-22T10:59:09Z</time>
      </trkpt>
      <trkpt lat="43.59246" lon="6.40043">
        <ele>607.3</ele>
        <time>2026-02-22T10:59:10Z</time>
      </trkpt>
      <trkpt lat="43.59246" lon="6.40043">
        <ele>607.4</ele>
        <time>2026-02-22T10:59:11Z</time>
      </trkpt>
      <trkpt lat="43.59246" lon="6.40043">
        <ele>607.4</ele>
        <time>2026-02-22T10:59:12Z</time>
      </trkpt>
      <trkpt lat="43.59246" lon="6.40043">
        <ele>607.3</ele>
        <time>2026-02-22T10:59:13Z</time>
      </trkpt>
      <trkpt lat="43.59246" lon="6.40043">
        <ele>607.2</ele>
        <time>2026-02-22T10:59:14Z</time>
      </trkpt>
      <trkpt lat="43.59246" lon="6.40043">
        <ele>607.2</ele>
        <time>2026-02-22T10:59:15Z</time>
      </trkpt>
      <trkpt lat="43.59246" lon="6.40043">
        <ele>607.2</ele>
        <time>2026-02-22T10:59:16Z</time>
      </trkpt>
      <trkpt lat="43.59245" lon="6.40043">
        <ele>607.1</ele>
        <time>2026-02-22T10:59:17Z</time>
      </trkpt>
      <trkpt lat="43.59245" lon="6.40043">
        <ele>607.1</ele>
        <time>2026-02-22T10:59:18Z</time>
      </trkpt>
      <trkpt lat="43.59245" lon="6.40043">
        <ele>607.1</ele>
        <time>2026-02-22T10:59:19Z</time>
      </trkpt>
      <trkpt lat="43.59245" lon="6.40043">
        <ele>607.2</ele>
        <time>2026-02-22T10:59:20Z</time>
      </trkpt>
      <trkpt lat="43.59245" lon="6.40043">
        <ele>607.3</ele>
        <time>2026-02-22T10:59:21Z</time>
      </trkpt>
      <trkpt lat="43.59245" lon="6.40043">
        <ele>607.2</ele>
        <time>2026-02-22T10:59:22Z</time>
      </trkpt>
      <trkpt lat="43.59245" lon="6.40044">
        <ele>607.2</ele>
        <time>2026-02-22T10:59:23Z</time>
      </trkpt>
      <trkpt lat="43.59246" lon="6.40044">
        <ele>607.2</ele>
        <time>2026-02-22T10:59:24Z</time>
      </trkpt>
      <trkpt lat="43.59246" lon="6.40044">
        <ele>607.3</ele>
        <time>2026-02-22T10:59:25Z</time>
      </trkpt>
      <trkpt lat="43.59246" lon="6.40044">
        <ele>607.3</ele>
        <time>2026-02-22T10:59:26Z</time>
      </trkpt>
      <trkpt lat="43.59246" lon="6.40044">
        <ele>607.3</ele>
        <time>2026-02-22T10:59:27Z</time>
      </trkpt>
      <trkpt lat="43.59246" lon="6.40044">
        <ele>607.2</ele>
        <time>2026-02-22T10:59:28Z</time>
      </trkpt>
      <trkpt lat="43.59246" lon="6.40043">
        <ele>607.2</ele>
        <time>2026-02-22T10:59:29Z</time>
      </trkpt>
      <trkpt lat="43.59246" lon="6.40043">
        <ele>607.2</ele>
        <time>2026-02-22T10:59:30Z</time>
      </trkpt>
      <trkpt lat="43.59245" lon="6.40043">
        <ele>607.2</ele>
        <time>2026-02-22T10:59:31Z</time>
      </trkpt>
      <trkpt lat="43.59245" lon="6.40043">
        <ele>607.3</ele>
        <time>2026-02-22T10:59:32Z</time>
      </trkpt>
      <trkpt lat="43.59244" lon="6.40043">
        <ele>607.3</ele>
        <time>2026-02-22T10:59:33Z</time>
      </trkpt>
      <trkpt lat="43.59244" lon="6.40043">
        <ele>607.4</ele>
        <time>2026-02-22T10:59:34Z</time>
      </trkpt>
      <trkpt lat="43.59243" lon="6.40043">
        <ele>607.5</ele>
        <time>2026-02-22T10:59:35Z</time>
      </trkpt>
      <trkpt lat="43.59242" lon="6.40042">
        <ele>607.7</ele>
        <time>2026-02-22T10:59:36Z</time>
      </trkpt>
      <trkpt lat="43.59241" lon="6.40041">
        <ele>607.9</ele>
        <time>2026-02-22T10:59:37Z</time>
      </trkpt>
      <trkpt lat="43.59241" lon="6.40041">
        <ele>608</ele>
        <time>2026-02-22T10:59:38Z</time>
      </trkpt>
      <trkpt lat="43.5924" lon="6.40041">
        <ele>608.2</ele>
        <time>2026-02-22T10:59:39Z</time>
      </trkpt>
      <trkpt lat="43.59239" lon="6.4004">
        <ele>608.4</ele>
        <time>2026-02-22T10:59:40Z</time>
      </trkpt>
      <trkpt lat="43.59239" lon="6.4004">
        <ele>608.6</ele>
        <time>2026-02-22T10:59:41Z</time>
      </trkpt>
      <trkpt lat="43.59238" lon="6.4004">
        <ele>608.8</ele>
        <time>2026-02-22T10:59:42Z</time>
      </trkpt>
      <trkpt lat="43.59237" lon="6.4004">
        <ele>609</ele>
        <time>2026-02-22T10:59:43Z</time>
      </trkpt>
      <trkpt lat="43.59236" lon="6.40041">
        <ele>609.2</ele>
        <time>2026-02-22T10:59:44Z</time>
      </trkpt>
      <trkpt lat="43.59235" lon="6.40041">
        <ele>609.3</ele>
        <time>2026-02-22T10:59:45Z</time>
      </trkpt>
      <trkpt lat="43.59234" lon="6.40041">
        <ele>609.4</ele>
        <time>2026-02-22T10:59:46Z</time>
      </trkpt>
      <trkpt lat="43.59234" lon="6.40041">
        <ele>609.5</ele>
        <time>2026-02-22T10:59:47Z</time>
      </trkpt>
      <trkpt lat="43.59232" lon="6.40041">
        <ele>609.6</ele>
        <time>2026-02-22T10:59:48Z</time>
      </trkpt>
      <trkpt lat="43.59231" lon="6.40042">
        <ele>609.7</ele>
        <time>2026-02-22T10:59:49Z</time>
      </trkpt>
      <trkpt lat="43.5923" lon="6.40043">
        <ele>609.7</ele>
        <time>2026-02-22T10:59:50Z</time>
      </trkpt>
      <trkpt lat="43.5923" lon="6.40043">
        <ele>609.9</ele>
        <time>2026-02-22T10:59:51Z</time>
      </trkpt>
      <trkpt lat="43.59229" lon="6.40044">
        <ele>609.9</ele>
        <time>2026-02-22T10:59:52Z</time>
      </trkpt>
      <trkpt lat="43.59229" lon="6.40045">
        <ele>610.2</ele>
        <time>2026-02-22T10:59:53Z</time>
      </trkpt>
      <trkpt lat="43.59228" lon="6.40045">
        <ele>610.4</ele>
        <time>2026-02-22T10:59:54Z</time>
      </trkpt>
      <trkpt lat="43.59226" lon="6.40046">
        <ele>610.5</ele>
        <time>2026-02-22T10:59:55Z</time>
      </trkpt>
      <trkpt lat="43.59226" lon="6.40046">
        <ele>610.6</ele>
        <time>2026-02-22T10:59:56Z</time>
      </trkpt>
      <trkpt lat="43.59225" lon="6.40046">
        <ele>610.8</ele>
        <time>2026-02-22T10:59:57Z</time>
      </trkpt>
      <trkpt lat="43.59224" lon="6.40046">
        <ele>610.9</ele>
        <time>2026-02-22T10:59:58Z</time>
      </trkpt>
      <trkpt lat="43.59223" lon="6.40046">
        <ele>611</ele>
        <time>2026-02-22T10:59:59Z</time>
      </trkpt>
      <trkpt lat="43.59222" lon="6.40046">
        <ele>611</ele>
        <time>2026-02-22T11:00:00Z</time>
      </trkpt>
      <trkpt lat="43.59221" lon="6.40046">
        <ele>611.1</ele>
        <time>2026-02-22T11:00:01Z</time>
      </trkpt>
      <trkpt lat="43.59219" lon="6.40046">
        <ele>611.2</ele>
        <time>2026-02-22T11:00:02Z</time>
      </trkpt>
      <trkpt lat="43.59219" lon="6.40047">
        <ele>611.4</ele>
        <time>2026-02-22T11:00:03Z</time>
      </trkpt>
      <trkpt lat="43.59218" lon="6.40047">
        <ele>611.6</ele>
        <time>2026-02-22T11:00:04Z</time>
      </trkpt>
      <trkpt lat="43.59217" lon="6.40048">
        <ele>611.8</ele>
        <time>2026-02-22T11:00:05Z</time>
      </trkpt>
      <trkpt lat="43.59216" lon="6.40048">
        <ele>611.9</ele>
        <time>2026-02-22T11:00:06Z</time>
      </trkpt>
      <trkpt lat="43.59215" lon="6.40048">
        <ele>612.1</ele>
        <time>2026-02-22T11:00:07Z</time>
      </trkpt>
      <trkpt lat="43.59214" lon="6.40048">
        <ele>612.2</ele>
        <time>2026-02-22T11:00:08Z</time>
      </trkpt>
      <trkpt lat="43.59212" lon="6.40048">
        <ele>612.4</ele>
        <time>2026-02-22T11:00:09Z</time>
      </trkpt>
      <trkpt lat="43.59212" lon="6.40047">
        <ele>612.5</ele>
        <time>2026-02-22T11:00:10Z</time>
      </trkpt>
      <trkpt lat="43.59211" lon="6.40046">
        <ele>612.6</ele>
        <time>2026-02-22T11:00:11Z</time>
      </trkpt>
      <trkpt lat="43.5921" lon="6.40046">
        <ele>612.8</ele>
        <time>2026-02-22T11:00:12Z</time>
      </trkpt>
      <trkpt lat="43.59209" lon="6.40045">
        <ele>612.9</ele>
        <time>2026-02-22T11:00:13Z</time>
      </trkpt>
      <trkpt lat="43.59207" lon="6.40046">
        <ele>613.1</ele>
        <time>2026-02-22T11:00:14Z</time>
      </trkpt>
      <trkpt lat="43.59207" lon="6.40046">
        <ele>613.3</ele>
        <time>2026-02-22T11:00:15Z</time>
      </trkpt>
      <trkpt lat="43.59206" lon="6.40046">
        <ele>613.4</ele>
        <time>2026-02-22T11:00:16Z</time>
      </trkpt>
      <trkpt lat="43.59206" lon="6.40046">
        <ele>613.6</ele>
        <time>2026-02-22T11:00:17Z</time>
      </trkpt>
      <trkpt lat="43.59204" lon="6.40046">
        <ele>613.8</ele>
        <time>2026-02-22T11:00:18Z</time>
      </trkpt>
      <trkpt lat="43.59203" lon="6.40046">
        <ele>614</ele>
        <time>2026-02-22T11:00:19Z</time>
      </trkpt>
      <trkpt lat="43.59202" lon="6.40047">
        <ele>614.2</ele>
        <time>2026-02-22T11:00:20Z</time>
      </trkpt>
      <trkpt lat="43.59201" lon="6.40047">
        <ele>614.4</ele>
        <time>2026-02-22T11:00:21Z</time>
      </trkpt>
      <trkpt lat="43.59199" lon="6.40047">
        <ele>614.6</ele>
        <time>2026-02-22T11:00:22Z</time>
      </trkpt>
      <trkpt lat="43.59199" lon="6.40047">
        <ele>614.7</ele>
        <time>2026-02-22T11:00:23Z</time>
      </trkpt>
      <trkpt lat="43.59198" lon="6.40048">
        <ele>614.9</ele>
        <time>2026-02-22T11:00:24Z</time>
      </trkpt>
      <trkpt lat="43.59198" lon="6.40047">
        <ele>615</ele>
        <time>2026-02-22T11:00:25Z</time>
      </trkpt>
      <trkpt lat="43.59197" lon="6.40047">
        <ele>615</ele>
        <time>2026-02-22T11:00:26Z</time>
      </trkpt>
      <trkpt lat="43.59196" lon="6.40047">
        <ele>615.2</ele>
        <time>2026-02-22T11:00:27Z</time>
      </trkpt>
      <trkpt lat="43.59195" lon="6.40048">
        <ele>615.4</ele>
        <time>2026-02-22T11:00:28Z</time>
      </trkpt>
      <trkpt lat="43.59195" lon="6.40048">
        <ele>615.7</ele>
        <time>2026-02-22T11:00:29Z</time>
      </trkpt>
      <trkpt lat="43.59195" lon="6.40047">
        <ele>615.9</ele>
        <time>2026-02-22T11:00:30Z</time>
      </trkpt>
      <trkpt lat="43.59193" lon="6.40047">
        <ele>616.1</ele>
        <time>2026-02-22T11:00:31Z</time>
      </trkpt>
      <trkpt lat="43.59193" lon="6.40047">
        <ele>616.3</ele>
        <time>2026-02-22T11:00:32Z</time>
      </trkpt>
      <trkpt lat="43.59193" lon="6.40047">
        <ele>616.6</ele>
        <time>2026-02-22T11:00:33Z</time>
      </trkpt>
      <trkpt lat="43.59192" lon="6.40047">
        <ele>616.8</ele>
        <time>2026-02-22T11:00:34Z</time>
      </trkpt>
      <trkpt lat="43.59191" lon="6.40046">
        <ele>616.9</ele>
        <time>2026-02-22T11:00:35Z</time>
      </trkpt>
      <trkpt lat="43.5919" lon="6.40046">
        <ele>617.1</ele>
        <time>2026-02-22T11:00:36Z</time>
      </trkpt>
      <trkpt lat="43.5919" lon="6.40045">
        <ele>617.3</ele>
        <time>2026-02-22T11:00:37Z</time>
      </trkpt>
      <trkpt lat="43.59189" lon="6.40046">
        <ele>617.6</ele>
        <time>2026-02-22T11:00:38Z</time>
      </trkpt>
      <trkpt lat="43.59189" lon="6.40046">
        <ele>617.8</ele>
        <time>2026-02-22T11:00:39Z</time>
      </trkpt>
      <trkpt lat="43.5919" lon="6.40047">
        <ele>618</ele>
        <time>2026-02-22T11:00:40Z</time>
      </trkpt>
      <trkpt lat="43.59189" lon="6.40046">
        <ele>618.1</ele>
        <time>2026-02-22T11:00:41Z</time>
      </trkpt>
      <trkpt lat="43.59189" lon="6.40046">
        <ele>618.3</ele>
        <time>2026-02-22T11:00:42Z</time>
      </trkpt>
      <trkpt lat="43.59189" lon="6.40046">
        <ele>618.4</ele>
        <time>2026-02-22T11:00:43Z</time>
      </trkpt>
      <trkpt lat="43.59188" lon="6.40045">
        <ele>618.5</ele>
        <time>2026-02-22T11:00:44Z</time>
      </trkpt>
      <trkpt lat="43.59187" lon="6.40044">
        <ele>618.6</ele>
        <time>2026-02-22T11:00:45Z</time>
      </trkpt>
      <trkpt lat="43.59187" lon="6.40043">
        <ele>618.8</ele>
        <time>2026-02-22T11:00:46Z</time>
      </trkpt>
      <trkpt lat="43.59186" lon="6.40043">
        <ele>619.1</ele>
        <time>2026-02-22T11:00:47Z</time>
      </trkpt>
      <trkpt lat="43.59186" lon="6.40042">
        <ele>619.3</ele>
        <time>2026-02-22T11:00:48Z</time>
      </trkpt>
      <trkpt lat="43.59185" lon="6.40042">
        <ele>619.6</ele>
        <time>2026-02-22T11:00:49Z</time>
      </trkpt>
      <trkpt lat="43.59185" lon="6.40041">
        <ele>619.8</ele>
        <time>2026-02-22T11:00:50Z</time>
      </trkpt>
      <trkpt lat="43.59184" lon="6.4004">
        <ele>619.9</ele>
        <time>2026-02-22T11:00:51Z</time>
      </trkpt>
      <trkpt lat="43.59183" lon="6.4004">
        <ele>619.9</ele>
        <time>2026-02-22T11:00:52Z</time>
      </trkpt>
      <trkpt lat="43.59183" lon="6.40039">
        <ele>620.1</ele>
        <time>2026-02-22T11:00:53Z</time>
      </trkpt>
      <trkpt lat="43.59182" lon="6.40038">
        <ele>620.2</ele>
        <time>2026-02-22T11:00:54Z</time>
      </trkpt>
      <trkpt lat="43.59181" lon="6.40038">
        <ele>620.2</ele>
        <time>2026-02-22T11:00:55Z</time>
      </trkpt>
      <trkpt lat="43.59181" lon="6.40037">
        <ele>620.3</ele>
        <time>2026-02-22T11:00:56Z</time>
      </trkpt>
      <trkpt lat="43.5918" lon="6.40036">
        <ele>620.4</ele>
        <time>2026-02-22T11:00:57Z</time>
      </trkpt>
      <trkpt lat="43.59178" lon="6.40035">
        <ele>620.5</ele>
        <time>2026-02-22T11:00:58Z</time>
      </trkpt>
      <trkpt lat="43.59178" lon="6.40034">
        <ele>620.5</ele>
        <time>2026-02-22T11:00:59Z</time>
      </trkpt>
      <trkpt lat="43.59177" lon="6.40034">
        <ele>620.7</ele>
        <time>2026-02-22T11:01:00Z</time>
      </trkpt>
      <trkpt lat="43.59177" lon="6.40033">
        <ele>620.8</ele>
        <time>2026-02-22T11:01:01Z</time>
      </trkpt>
      <trkpt lat="43.59176" lon="6.40032">
        <ele>620.9</ele>
        <time>2026-02-22T11:01:02Z</time>
      </trkpt>
      <trkpt lat="43.59175" lon="6.40032">
        <ele>620.9</ele>
        <time>2026-02-22T11:01:03Z</time>
      </trkpt>
      <trkpt lat="43.59175" lon="6.40031">
        <ele>620.8</ele>
        <time>2026-02-22T11:01:04Z</time>
      </trkpt>
      <trkpt lat="43.59174" lon="6.40031">
        <ele>620.9</ele>
        <time>2026-02-22T11:01:05Z</time>
      </trkpt>
      <trkpt lat="43.59173" lon="6.4003">
        <ele>620.9</ele>
        <time>2026-02-22T11:01:06Z</time>
      </trkpt>
      <trkpt lat="43.59172" lon="6.40029">
        <ele>621</ele>
        <time>2026-02-22T11:01:07Z</time>
      </trkpt>
      <trkpt lat="43.59172" lon="6.40028">
        <ele>621.1</ele>
        <time>2026-02-22T11:01:08Z</time>
      </trkpt>
      <trkpt lat="43.59171" lon="6.40027">
        <ele>621.1</ele>
        <time>2026-02-22T11:01:09Z</time>
      </trkpt>
      <trkpt lat="43.59168" lon="6.40027">
        <ele>621.3</ele>
        <time>2026-02-22T11:01:10Z</time>
      </trkpt>
      <trkpt lat="43.59167" lon="6.40027">
        <ele>621.4</ele>
        <time>2026-02-22T11:01:11Z</time>
      </trkpt>
      <trkpt lat="43.59166" lon="6.40027">
        <ele>621.4</ele>
        <time>2026-02-22T11:01:12Z</time>
      </trkpt>
      <trkpt lat="43.59165" lon="6.40027">
        <ele>621.4</ele>
        <time>2026-02-22T11:01:13Z</time>
      </trkpt>
      <trkpt lat="43.59164" lon="6.40026">
        <ele>621.4</ele>
        <time>2026-02-22T11:01:14Z</time>
      </trkpt>
      <trkpt lat="43.59164" lon="6.40026">
        <ele>621.5</ele>
        <time>2026-02-22T11:01:15Z</time>
      </trkpt>
      <trkpt lat="43.59163" lon="6.40026">
        <ele>621.5</ele>
        <time>2026-02-22T11:01:16Z</time>
      </trkpt>
      <trkpt lat="43.59162" lon="6.40026">
        <ele>621.5</ele>
        <time>2026-02-22T11:01:17Z</time>
      </trkpt>
      <trkpt lat="43.59162" lon="6.40026">
        <ele>621.6</ele>
        <time>2026-02-22T11:01:18Z</time>
      </trkpt>
      <trkpt lat="43.59162" lon="6.40026">
        <ele>621.6</ele>
        <time>2026-02-22T11:01:19Z</time>
      </trkpt>
      <trkpt lat="43.59162" lon="6.40026">
        <ele>621.5</ele>
        <time>2026-02-22T11:01:20Z</time>
      </trkpt>
      <trkpt lat="43.59162" lon="6.40025">
        <ele>621.6</ele>
        <time>2026-02-22T11:01:21Z</time>
      </trkpt>
      <trkpt lat="43.59162" lon="6.40025">
        <ele>621.6</ele>
        <time>2026-02-22T11:01:22Z</time>
      </trkpt>
      <trkpt lat="43.59162" lon="6.40025">
        <ele>621.7</ele>
        <time>2026-02-22T11:01:23Z</time>
      </trkpt>
      <trkpt lat="43.59162" lon="6.40025">
        <ele>621.7</ele>
        <time>2026-02-22T11:01:24Z</time>
      </trkpt>
      <trkpt lat="43.59162" lon="6.40025">
        <ele>621.7</ele>
        <time>2026-02-22T11:01:25Z</time>
      </trkpt>
      <trkpt lat="43.59162" lon="6.40025">
        <ele>621.7</ele>
        <time>2026-02-22T11:01:26Z</time>
      </trkpt>
      <trkpt lat="43.59161" lon="6.40025">
        <ele>621.7</ele>
        <time>2026-02-22T11:01:27Z</time>
      </trkpt>
      <trkpt lat="43.59161" lon="6.40024">
        <ele>621.6</ele>
        <time>2026-02-22T11:01:28Z</time>
      </trkpt>
      <trkpt lat="43.59161" lon="6.40024">
        <ele>621.7</ele>
        <time>2026-02-22T11:01:29Z</time>
      </trkpt>
      <trkpt lat="43.59161" lon="6.40024">
        <ele>621.6</ele>
        <time>2026-02-22T11:01:30Z</time>
      </trkpt>
      <trkpt lat="43.59161" lon="6.40023">
        <ele>621.7</ele>
        <time>2026-02-22T11:01:31Z</time>
      </trkpt>
      <trkpt lat="43.59161" lon="6.40023">
        <ele>621.7</ele>
        <time>2026-02-22T11:01:32Z</time>
      </trkpt>
      <trkpt lat="43.59161" lon="6.40023">
        <ele>621.7</ele>
        <time>2026-02-22T11:01:33Z</time>
      </trkpt>
      <trkpt lat="43.59161" lon="6.40023">
        <ele>621.7</ele>
        <time>2026-02-22T11:01:34Z</time>
      </trkpt>
      <trkpt lat="43.59161" lon="6.40023">
        <ele>621.6</ele>
        <time>2026-02-22T11:01:35Z</time>
      </trkpt>
      <trkpt lat="43.59161" lon="6.40023">
        <ele>621.6</ele>
        <time>2026-02-22T11:01:36Z</time>
      </trkpt>
      <trkpt lat="43.59161" lon="6.40022">
        <ele>621.6</ele>
        <time>2026-02-22T11:01:37Z</time>
      </trkpt>
      <trkpt lat="43.59161" lon="6.40022">
        <ele>621.6</ele>
        <time>2026-02-22T11:01:38Z</time>
      </trkpt>
      <trkpt lat="43.59161" lon="6.40022">
        <ele>621.7</ele>
        <time>2026-02-22T11:01:39Z</time>
      </trkpt>
      <trkpt lat="43.5916" lon="6.40022">
        <ele>621.7</ele>
        <time>2026-02-22T11:01:40Z</time>
      </trkpt>
      <trkpt lat="43.5916" lon="6.40022">
        <ele>621.6</ele>
        <time>2026-02-22T11:01:41Z</time>
      </trkpt>
      <trkpt lat="43.5916" lon="6.40022">
        <ele>621.6</ele>
        <time>2026-02-22T11:01:42Z</time>
      </trkpt>
      <trkpt lat="43.5916" lon="6.40022">
        <ele>621.5</ele>
        <time>2026-02-22T11:01:43Z</time>
      </trkpt>
      <trkpt lat="43.5916" lon="6.40022">
        <ele>621.5</ele>
        <time>2026-02-22T11:01:44Z</time>
      </trkpt>
      <trkpt lat="43.5916" lon="6.40022">
        <ele>621.5</ele>
        <time>2026-02-22T11:01:45Z</time>
      </trkpt>
      <trkpt lat="43.5916" lon="6.40022">
        <ele>621.6</ele>
        <time>2026-02-22T11:01:46Z</time>
      </trkpt>
      <trkpt lat="43.5916" lon="6.40022">
        <ele>621.6</ele>
        <time>2026-02-22T11:01:47Z</time>
      </trkpt>
      <trkpt lat="43.59159" lon="6.40022">
        <ele>621.6</ele>
        <time>2026-02-22T11:01:48Z</time>
      </trkpt>
      <trkpt lat="43.59159" lon="6.40022">
        <ele>621.7</ele>
        <time>2026-02-22T11:01:49Z</time>
      </trkpt>
      <trkpt lat="43.59159" lon="6.40021">
        <ele>621.7</ele>
        <time>2026-02-22T11:01:50Z</time>
      </trkpt>
      <trkpt lat="43.59159" lon="6.40021">
        <ele>621.7</ele>
        <time>2026-02-22T11:01:51Z</time>
      </trkpt>
      <trkpt lat="43.59159" lon="6.40021">
        <ele>621.7</ele>
        <time>2026-02-22T11:01:52Z</time>
      </trkpt>
      <trkpt lat="43.59159" lon="6.40021">
        <ele>621.8</ele>
        <time>2026-02-22T11:01:53Z</time>
      </trkpt>
      <trkpt lat="43.59158" lon="6.40021">
        <ele>621.8</ele>
        <time>2026-02-22T11:01:54Z</time>
      </trkpt>
      <trkpt lat="43.59158" lon="6.40021">
        <ele>621.8</ele>
        <time>2026-02-22T11:01:55Z</time>
      </trkpt>
      <trkpt lat="43.59158" lon="6.4002">
        <ele>621.8</ele>
        <time>2026-02-22T11:01:56Z</time>
      </trkpt>
      <trkpt lat="43.59158" lon="6.4002">
        <ele>621.9</ele>
        <time>2026-02-22T11:01:57Z</time>
      </trkpt>
      <trkpt lat="43.59158" lon="6.4002">
        <ele>621.9</ele>
        <time>2026-02-22T11:01:58Z</time>
      </trkpt>
      <trkpt lat="43.59158" lon="6.40021">
        <ele>622</ele>
        <time>2026-02-22T11:01:59Z</time>
      </trkpt>
      <trkpt lat="43.59158" lon="6.4002">
        <ele>622</ele>
        <time>2026-02-22T11:02:00Z</time>
      </trkpt>
      <trkpt lat="43.59158" lon="6.4002">
        <ele>622</ele>
        <time>2026-02-22T11:02:01Z</time>
      </trkpt>
      <trkpt lat="43.59158" lon="6.4002">
        <ele>622</ele>
        <time>2026-02-22T11:02:02Z</time>
      </trkpt>
      <trkpt lat="43.59158" lon="6.4002">
        <ele>622</ele>
        <time>2026-02-22T11:02:03Z</time>
      </trkpt>
      <trkpt lat="43.59158" lon="6.4002">
        <ele>622</ele>
        <time>2026-02-22T11:02:04Z</time>
      </trkpt>
      <trkpt lat="43.59158" lon="6.4002">
        <ele>622</ele>
        <time>2026-02-22T11:02:05Z</time>
      </trkpt>
      <trkpt lat="43.59158" lon="6.4002">
        <ele>622</ele>
        <time>2026-02-22T11:02:06Z</time>
      </trkpt>
      <trkpt lat="43.59158" lon="6.4002">
        <ele>621.9</ele>
        <time>2026-02-22T11:02:07Z</time>
      </trkpt>
      <trkpt lat="43.59158" lon="6.4002">
        <ele>621.9</ele>
        <time>2026-02-22T11:02:08Z</time>
      </trkpt>
      <trkpt lat="43.59158" lon="6.4002">
        <ele>621.9</ele>
        <time>2026-02-22T11:02:09Z</time>
      </trkpt>
      <trkpt lat="43.59158" lon="6.4002">
        <ele>621.8</ele>
        <time>2026-02-22T11:02:10Z</time>
      </trkpt>
      <trkpt lat="43.59158" lon="6.4002">
        <ele>621.8</ele>
        <time>2026-02-22T11:02:11Z</time>
      </trkpt>
      <trkpt lat="43.59158" lon="6.4002">
        <ele>621.8</ele>
        <time>2026-02-22T11:02:12Z</time>
      </trkpt>
      <trkpt lat="43.59157" lon="6.4002">
        <ele>621.8</ele>
        <time>2026-02-22T11:02:13Z</time>
      </trkpt>
      <trkpt lat="43.59157" lon="6.4002">
        <ele>621.9</ele>
        <time>2026-02-22T11:02:14Z</time>
      </trkpt>
      <trkpt lat="43.59157" lon="6.4002">
        <ele>622</ele>
        <time>2026-02-22T11:02:15Z</time>
      </trkpt>
      <trkpt lat="43.59157" lon="6.4002">
        <ele>621.9</ele>
        <time>2026-02-22T11:02:16Z</time>
      </trkpt>
      <trkpt lat="43.59157" lon="6.4002">
        <ele>621.9</ele>
        <time>2026-02-22T11:02:17Z</time>
      </trkpt>
      <trkpt lat="43.59157" lon="6.4002">
        <ele>621.9</ele>
        <time>2026-02-22T11:02:18Z</time>
      </trkpt>
      <trkpt lat="43.59157" lon="6.4002">
        <ele>622</ele>
        <time>2026-02-22T11:02:19Z</time>
      </trkpt>
      <trkpt lat="43.59157" lon="6.4002">
        <ele>622</ele>
        <time>2026-02-22T11:02:20Z</time>
      </trkpt>
      <trkpt lat="43.59157" lon="6.40021">
        <ele>621.9</ele>
        <time>2026-02-22T11:02:21Z</time>
      </trkpt>
      <trkpt lat="43.59156" lon="6.40021">
        <ele>621.9</ele>
        <time>2026-02-22T11:02:22Z</time>
      </trkpt>
      <trkpt lat="43.59156" lon="6.40021">
        <ele>621.9</ele>
        <time>2026-02-22T11:02:23Z</time>
      </trkpt>
      <trkpt lat="43.59157" lon="6.40021">
        <ele>621.9</ele>
        <time>2026-02-22T11:02:24Z</time>
      </trkpt>
      <trkpt lat="43.59157" lon="6.40021">
        <ele>621.8</ele>
        <time>2026-02-22T11:02:25Z</time>
      </trkpt>
      <trkpt lat="43.59157" lon="6.40021">
        <ele>621.8</ele>
        <time>2026-02-22T11:02:26Z</time>
      </trkpt>
      <trkpt lat="43.59157" lon="6.40021">
        <ele>621.8</ele>
        <time>2026-02-22T11:02:27Z</time>
      </trkpt>
      <trkpt lat="43.59157" lon="6.40021">
        <ele>621.8</ele>
        <time>2026-02-22T11:02:28Z</time>
      </trkpt>
      <trkpt lat="43.59158" lon="6.40021">
        <ele>621.9</ele>
        <time>2026-02-22T11:02:29Z</time>
      </trkpt>
      <trkpt lat="43.59158" lon="6.40021">
        <ele>621.9</ele>
        <time>2026-02-22T11:02:30Z</time>
      </trkpt>
      <trkpt lat="43.59158" lon="6.40021">
        <ele>621.9</ele>
        <time>2026-02-22T11:02:31Z</time>
      </trkpt>
      <trkpt lat="43.59158" lon="6.40021">
        <ele>621.8</ele>
        <time>2026-02-22T11:02:32Z</time>
      </trkpt>
      <trkpt lat="43.59158" lon="6.40021">
        <ele>621.9</ele>
        <time>2026-02-22T11:02:33Z</time>
      </trkpt>
      <trkpt lat="43.59158" lon="6.40021">
        <ele>621.9</ele>
        <time>2026-02-22T11:02:34Z</time>
      </trkpt>
      <trkpt lat="43.59159" lon="6.40021">
        <ele>622</ele>
        <time>2026-02-22T11:02:35Z</time>
      </trkpt>
      <trkpt lat="43.59159" lon="6.40021">
        <ele>622.1</ele>
        <time>2026-02-22T11:02:36Z</time>
      </trkpt>
      <trkpt lat="43.59159" lon="6.40022">
        <ele>622.1</ele>
        <time>2026-02-22T11:02:37Z</time>
      </trkpt>
      <trkpt lat="43.59159" lon="6.40022">
        <ele>622.1</ele>
        <time>2026-02-22T11:02:38Z</time>
      </trkpt>
      <trkpt lat="43.59159" lon="6.40022">
        <ele>622.2</ele>
        <time>2026-02-22T11:02:39Z</time>
      </trkpt>
      <trkpt lat="43.59159" lon="6.40022">
        <ele>622.2</ele>
        <time>2026-02-22T11:02:40Z</time>
      </trkpt>
      <trkpt lat="43.59159" lon="6.40022">
        <ele>622.2</ele>
        <time>2026-02-22T11:02:41Z</time>
      </trkpt>
      <trkpt lat="43.59159" lon="6.40022">
        <ele>622.3</ele>
        <time>2026-02-22T11:02:42Z</time>
      </trkpt>
      <trkpt lat="43.59159" lon="6.40022">
        <ele>622.3</ele>
        <time>2026-02-22T11:02:43Z</time>
      </trkpt>
      <trkpt lat="43.59159" lon="6.40022">
        <ele>622.4</ele>
        <time>2026-02-22T11:02:44Z</time>
      </trkpt>
      <trkpt lat="43.59159" lon="6.40022">
        <ele>622.4</ele>
        <time>2026-02-22T11:02:45Z</time>
      </trkpt>
      <trkpt lat="43.59159" lon="6.40022">
        <ele>622.5</ele>
        <time>2026-02-22T11:02:46Z</time>
      </trkpt>
      <trkpt lat="43.59159" lon="6.40022">
        <ele>622.5</ele>
        <time>2026-02-22T11:02:47Z</time>
      </trkpt>
      <trkpt lat="43.59159" lon="6.40022">
        <ele>622.4</ele>
        <time>2026-02-22T11:02:48Z</time>
      </trkpt>
      <trkpt lat="43.59159" lon="6.40022">
        <ele>622.4</ele>
        <time>2026-02-22T11:02:49Z</time>
      </trkpt>
      <trkpt lat="43.59159" lon="6.40022">
        <ele>622.4</ele>
        <time>2026-02-22T11:02:50Z</time>
      </trkpt>
      <trkpt lat="43.59159" lon="6.40022">
        <ele>622.4</ele>
        <time>2026-02-22T11:02:51Z</time>
      </trkpt>
      <trkpt lat="43.59159" lon="6.40022">
        <ele>622.3</ele>
        <time>2026-02-22T11:02:52Z</time>
      </trkpt>
      <trkpt lat="43.59159" lon="6.40022">
        <ele>622.4</ele>
        <time>2026-02-22T11:02:53Z</time>
      </trkpt>
      <trkpt lat="43.59159" lon="6.40022">
        <ele>622.3</ele>
        <time>2026-02-22T11:02:54Z</time>
      </trkpt>
      <trkpt lat="43.59159" lon="6.40022">
        <ele>622.2</ele>
        <time>2026-02-22T11:02:55Z</time>
      </trkpt>
      <trkpt lat="43.59159" lon="6.40022">
        <ele>622.2</ele>
        <time>2026-02-22T11:02:56Z</time>
      </trkpt>
      <trkpt lat="43.59159" lon="6.40022">
        <ele>622.4</ele>
        <time>2026-02-22T11:02:57Z</time>
      </trkpt>
      <trkpt lat="43.59159" lon="6.40022">
        <ele>622.3</ele>
        <time>2026-02-22T11:02:58Z</time>
      </trkpt>
      <trkpt lat="43.59159" lon="6.40022">
        <ele>622.3</ele>
        <time>2026-02-22T11:02:59Z</time>
      </trkpt>
      <trkpt lat="43.59159" lon="6.40022">
        <ele>622.4</ele>
        <time>2026-02-22T11:03:00Z</time>
      </trkpt>
      <trkpt lat="43.59159" lon="6.40022">
        <ele>622.4</ele>
        <time>2026-02-22T11:03:01Z</time>
      </trkpt>
      <trkpt lat="43.59159" lon="6.40022">
        <ele>622.4</ele>
        <time>2026-02-22T11:03:02Z</time>
      </trkpt>
      <trkpt lat="43.59159" lon="6.40022">
        <ele>622.4</ele>
        <time>2026-02-22T11:03:03Z</time>
      </trkpt>
      <trkpt lat="43.59159" lon="6.40022">
        <ele>622.5</ele>
        <time>2026-02-22T11:03:04Z</time>
      </trkpt>
      <trkpt lat="43.59159" lon="6.40022">
        <ele>622.5</ele>
        <time>2026-02-22T11:03:05Z</time>
      </trkpt>
      <trkpt lat="43.59159" lon="6.40022">
        <ele>622.5</ele>
        <time>2026-02-22T11:03:06Z</time>
      </trkpt>
      <trkpt lat="43.59159" lon="6.40022">
        <ele>622.5</ele>
        <time>2026-02-22T11:03:07Z</time>
      </trkpt>
      <trkpt lat="43.59159" lon="6.40022">
        <ele>622.5</ele>
        <time>2026-02-22T11:03:08Z</time>
      </trkpt>
      <trkpt lat="43.59159" lon="6.40021">
        <ele>622.5</ele>
        <time>2026-02-22T11:03:09Z</time>
      </trkpt>
      <trkpt lat="43.59159" lon="6.40022">
        <ele>622.6</ele>
        <time>2026-02-22T11:03:10Z</time>
      </trkpt>
      <trkpt lat="43.59159" lon="6.40022">
        <ele>622.6</ele>
        <time>2026-02-22T11:03:11Z</time>
      </trkpt>
      <trkpt lat="43.59159" lon="6.40022">
        <ele>622.7</ele>
        <time>2026-02-22T11:03:12Z</time>
      </trkpt>
      <trkpt lat="43.59159" lon="6.40022">
        <ele>622.8</ele>
        <time>2026-02-22T11:03:13Z</time>
      </trkpt>
      <trkpt lat="43.59159" lon="6.40022">
        <ele>622.9</ele>
        <time>2026-02-22T11:03:14Z</time>
      </trkpt>
      <trkpt lat="43.59159" lon="6.40022">
        <ele>622.9</ele>
        <time>2026-02-22T11:03:15Z</time>
      </trkpt>
      <trkpt lat="43.59159" lon="6.40022">
        <ele>622.8</ele>
        <time>2026-02-22T11:03:16Z</time>
      </trkpt>
      <trkpt lat="43.59159" lon="6.40022">
        <ele>622.8</ele>
        <time>2026-02-22T11:03:17Z</time>
      </trkpt>
      <trkpt lat="43.59159" lon="6.40022">
        <ele>622.8</ele>
        <time>2026-02-22T11:03:18Z</time>
      </trkpt>
      <trkpt lat="43.59159" lon="6.40022">
        <ele>622.8</ele>
        <time>2026-02-22T11:03:19Z</time>
      </trkpt>
      <trkpt lat="43.59159" lon="6.40022">
        <ele>622.9</ele>
        <time>2026-02-22T11:03:20Z</time>
      </trkpt>
      <trkpt lat="43.59159" lon="6.40021">
        <ele>622.9</ele>
        <time>2026-02-22T11:03:21Z</time>
      </trkpt>
      <trkpt lat="43.59159" lon="6.40021">
        <ele>622.9</ele>
        <time>2026-02-22T11:03:22Z</time>
      </trkpt>
      <trkpt lat="43.59159" lon="6.40021">
        <ele>623</ele>
        <time>2026-02-22T11:03:23Z</time>
      </trkpt>
      <trkpt lat="43.59159" lon="6.40021">
        <ele>623</ele>
        <time>2026-02-22T11:03:24Z</time>
      </trkpt>
      <trkpt lat="43.59159" lon="6.40021">
        <ele>623</ele>
        <time>2026-02-22T11:03:25Z</time>
      </trkpt>
      <trkpt lat="43.59159" lon="6.40021">
        <ele>623</ele>
        <time>2026-02-22T11:03:26Z</time>
      </trkpt>
      <trkpt lat="43.59159" lon="6.40021">
        <ele>623</ele>
        <time>2026-02-22T11:03:27Z</time>
      </trkpt>
      <trkpt lat="43.59159" lon="6.40021">
        <ele>623</ele>
        <time>2026-02-22T11:03:28Z</time>
      </trkpt>
      <trkpt lat="43.59159" lon="6.40021">
        <ele>623</ele>
        <time>2026-02-22T11:03:29Z</time>
      </trkpt>
      <trkpt lat="43.59159" lon="6.40021">
        <ele>623</ele>
        <time>2026-02-22T11:03:30Z</time>
      </trkpt>
      <trkpt lat="43.59159" lon="6.40021">
        <ele>623</ele>
        <time>2026-02-22T11:03:31Z</time>
      </trkpt>
      <trkpt lat="43.59159" lon="6.40021">
        <ele>622.9</ele>
        <time>2026-02-22T11:03:32Z</time>
      </trkpt>
      <trkpt lat="43.59159" lon="6.4002">
        <ele>623</ele>
        <time>2026-02-22T11:03:33Z</time>
      </trkpt>
      <trkpt lat="43.59159" lon="6.4002">
        <ele>623.1</ele>
        <time>2026-02-22T11:03:34Z</time>
      </trkpt>
      <trkpt lat="43.59159" lon="6.4002">
        <ele>623.1</ele>
        <time>2026-02-22T11:03:35Z</time>
      </trkpt>
      <trkpt lat="43.59158" lon="6.4002">
        <ele>623.1</ele>
        <time>2026-02-22T11:03:36Z</time>
      </trkpt>
      <trkpt lat="43.59158" lon="6.4002">
        <ele>623</ele>
        <time>2026-02-22T11:03:37Z</time>
      </trkpt>
      <trkpt lat="43.59158" lon="6.4002">
        <ele>622.9</ele>
        <time>2026-02-22T11:03:38Z</time>
      </trkpt>
      <trkpt lat="43.59158" lon="6.4002">
        <ele>622.9</ele>
        <time>2026-02-22T11:03:39Z</time>
      </trkpt>
      <trkpt lat="43.59158" lon="6.4002">
        <ele>622.9</ele>
        <time>2026-02-22T11:03:40Z</time>
      </trkpt>
      <trkpt lat="43.59158" lon="6.4002">
        <ele>622.9</ele>
        <time>2026-02-22T11:03:41Z</time>
      </trkpt>
      <trkpt lat="43.59158" lon="6.4002">
        <ele>622.9</ele>
        <time>2026-02-22T11:03:42Z</time>
      </trkpt>
      <trkpt lat="43.59158" lon="6.4002">
        <ele>622.9</ele>
        <time>2026-02-22T11:03:43Z</time>
      </trkpt>
      <trkpt lat="43.59158" lon="6.4002">
        <ele>622.9</ele>
        <time>2026-02-22T11:03:44Z</time>
      </trkpt>
      <trkpt lat="43.59158" lon="6.4002">
        <ele>622.8</ele>
        <time>2026-02-22T11:03:45Z</time>
      </trkpt>
      <trkpt lat="43.59158" lon="6.4002">
        <ele>622.9</ele>
        <time>2026-02-22T11:03:46Z</time>
      </trkpt>
      <trkpt lat="43.59158" lon="6.4002">
        <ele>623</ele>
        <time>2026-02-22T11:03:47Z</time>
      </trkpt>
      <trkpt lat="43.59158" lon="6.40019">
        <ele>623</ele>
        <time>2026-02-22T11:03:48Z</time>
      </trkpt>
      <trkpt lat="43.59158" lon="6.40019">
        <ele>623</ele>
        <time>2026-02-22T11:03:49Z</time>
      </trkpt>
      <trkpt lat="43.59158" lon="6.40019">
        <ele>623.1</ele>
        <time>2026-02-22T11:03:50Z</time>
      </trkpt>
      <trkpt lat="43.59158" lon="6.40019">
        <ele>623.1</ele>
        <time>2026-02-22T11:03:51Z</time>
      </trkpt>
      <trkpt lat="43.59158" lon="6.40019">
        <ele>623.2</ele>
        <time>2026-02-22T11:03:52Z</time>
      </trkpt>
      <trkpt lat="43.59158" lon="6.40019">
        <ele>623.2</ele>
        <time>2026-02-22T11:03:53Z</time>
      </trkpt>
      <trkpt lat="43.59158" lon="6.40019">
        <ele>623.2</ele>
        <time>2026-02-22T11:03:54Z</time>
      </trkpt>
      <trkpt lat="43.59158" lon="6.40019">
        <ele>623.2</ele>
        <time>2026-02-22T11:03:55Z</time>
      </trkpt>
      <trkpt lat="43.59158" lon="6.4002">
        <ele>623.2</ele>
        <time>2026-02-22T11:03:56Z</time>
      </trkpt>
      <trkpt lat="43.59158" lon="6.4002">
        <ele>623.2</ele>
        <time>2026-02-22T11:03:57Z</time>
      </trkpt>
      <trkpt lat="43.59158" lon="6.4002">
        <ele>623.2</ele>
        <time>2026-02-22T11:03:58Z</time>
      </trkpt>
      <trkpt lat="43.59158" lon="6.4002">
        <ele>623.2</ele>
        <time>2026-02-22T11:03:59Z</time>
      </trkpt>
      <trkpt lat="43.59158" lon="6.4002">
        <ele>623.2</ele>
        <time>2026-02-22T11:04:00Z</time>
      </trkpt>
      <trkpt lat="43.59157" lon="6.4002">
        <ele>623.2</ele>
        <time>2026-02-22T11:04:01Z</time>
      </trkpt>
      <trkpt lat="43.59157" lon="6.4002">
        <ele>623.2</ele>
        <time>2026-02-22T11:04:02Z</time>
      </trkpt>
      <trkpt lat="43.59157" lon="6.4002">
        <ele>623.3</ele>
        <time>2026-02-22T11:04:03Z</time>
      </trkpt>
      <trkpt lat="43.59157" lon="6.4002">
        <ele>623.3</ele>
        <time>2026-02-22T11:04:04Z</time>
      </trkpt>
      <trkpt lat="43.59157" lon="6.4002">
        <ele>623.3</ele>
        <time>2026-02-22T11:04:05Z</time>
      </trkpt>
      <trkpt lat="43.59156" lon="6.4002">
        <ele>623.4</ele>
        <time>2026-02-22T11:04:06Z</time>
      </trkpt>
      <trkpt lat="43.59156" lon="6.4002">
        <ele>623.4</ele>
        <time>2026-02-22T11:04:07Z</time>
      </trkpt>
      <trkpt lat="43.59156" lon="6.4002">
        <ele>623.4</ele>
        <time>2026-02-22T11:04:08Z</time>
      </trkpt>
      <trkpt lat="43.59156" lon="6.4002">
        <ele>623.4</ele>
        <time>2026-02-22T11:04:09Z</time>
      </trkpt>
      <trkpt lat="43.59156" lon="6.4002">
        <ele>623.4</ele>
        <time>2026-02-22T11:04:10Z</time>
      </trkpt>
      <trkpt lat="43.59156" lon="6.4002">
        <ele>623.3</ele>
        <time>2026-02-22T11:04:11Z</time>
      </trkpt>
      <trkpt lat="43.59155" lon="6.40019">
        <ele>623.4</ele>
        <time>2026-02-22T11:04:12Z</time>
      </trkpt>
      <trkpt lat="43.59155" lon="6.40019">
        <ele>623.4</ele>
        <time>2026-02-22T11:04:13Z</time>
      </trkpt>
      <trkpt lat="43.59155" lon="6.40019">
        <ele>623.4</ele>
        <time>2026-02-22T11:04:14Z</time>
      </trkpt>
      <trkpt lat="43.59155" lon="6.40019">
        <ele>623.3</ele>
        <time>2026-02-22T11:04:15Z</time>
      </trkpt>
      <trkpt lat="43.59155" lon="6.40019">
        <ele>623.4</ele>
        <time>2026-02-22T11:04:16Z</time>
      </trkpt>
      <trkpt lat="43.59155" lon="6.40019">
        <ele>623.4</ele>
        <time>2026-02-22T11:04:17Z</time>
      </trkpt>
      <trkpt lat="43.59155" lon="6.40019">
        <ele>623.4</ele>
        <time>2026-02-22T11:04:18Z</time>
      </trkpt>
      <trkpt lat="43.59155" lon="6.40019">
        <ele>623.5</ele>
        <time>2026-02-22T11:04:19Z</time>
      </trkpt>
      <trkpt lat="43.59155" lon="6.40019">
        <ele>623.4</ele>
        <time>2026-02-22T11:04:20Z</time>
      </trkpt>
      <trkpt lat="43.59155" lon="6.40019">
        <ele>623.4</ele>
        <time>2026-02-22T11:04:21Z</time>
      </trkpt>
      <trkpt lat="43.59155" lon="6.40019">
        <ele>623.4</ele>
        <time>2026-02-22T11:04:22Z</time>
      </trkpt>
      <trkpt lat="43.59155" lon="6.40019">
        <ele>623.4</ele>
        <time>2026-02-22T11:04:23Z</time>
      </trkpt>
      <trkpt lat="43.59155" lon="6.40019">
        <ele>623.4</ele>
        <time>2026-02-22T11:04:24Z</time>
      </trkpt>
      <trkpt lat="43.59156" lon="6.40019">
        <ele>623.4</ele>
        <time>2026-02-22T11:04:25Z</time>
      </trkpt>
      <trkpt lat="43.59156" lon="6.40019">
        <ele>623.4</ele>
        <time>2026-02-22T11:04:26Z</time>
      </trkpt>
      <trkpt lat="43.59156" lon="6.40019">
        <ele>623.5</ele>
        <time>2026-02-22T11:04:27Z</time>
      </trkpt>
      <trkpt lat="43.59156" lon="6.40019">
        <ele>623.5</ele>
        <time>2026-02-22T11:04:28Z</time>
      </trkpt>
      <trkpt lat="43.59156" lon="6.40019">
        <ele>623.6</ele>
        <time>2026-02-22T11:04:29Z</time>
      </trkpt>
      <trkpt lat="43.59156" lon="6.40019">
        <ele>623.6</ele>
        <time>2026-02-22T11:04:30Z</time>
      </trkpt>
      <trkpt lat="43.59156" lon="6.4002">
        <ele>623.6</ele>
        <time>2026-02-22T11:04:31Z</time>
      </trkpt>
      <trkpt lat="43.59156" lon="6.4002">
        <ele>623.6</ele>
        <time>2026-02-22T11:04:32Z</time>
      </trkpt>
      <trkpt lat="43.59156" lon="6.4002">
        <ele>623.6</ele>
        <time>2026-02-22T11:04:33Z</time>
      </trkpt>
      <trkpt lat="43.59156" lon="6.4002">
        <ele>623.6</ele>
        <time>2026-02-22T11:04:34Z</time>
      </trkpt>
      <trkpt lat="43.59157" lon="6.40021">
        <ele>623.6</ele>
        <time>2026-02-22T11:04:35Z</time>
      </trkpt>
      <trkpt lat="43.59157" lon="6.40021">
        <ele>623.6</ele>
        <time>2026-02-22T11:04:36Z</time>
      </trkpt>
      <trkpt lat="43.59157" lon="6.40021">
        <ele>623.6</ele>
        <time>2026-02-22T11:04:37Z</time>
      </trkpt>
      <trkpt lat="43.59157" lon="6.4002">
        <ele>623.6</ele>
        <time>2026-02-22T11:04:38Z</time>
      </trkpt>
      <trkpt lat="43.59156" lon="6.40021">
        <ele>623.6</ele>
        <time>2026-02-22T11:04:39Z</time>
      </trkpt>
      <trkpt lat="43.59156" lon="6.40021">
        <ele>623.6</ele>
        <time>2026-02-22T11:04:40Z</time>
      </trkpt>
      <trkpt lat="43.59156" lon="6.40021">
        <ele>623.7</ele>
        <time>2026-02-22T11:04:41Z</time>
      </trkpt>
      <trkpt lat="43.59156" lon="6.40021">
        <ele>623.7</ele>
        <time>2026-02-22T11:04:42Z</time>
      </trkpt>
      <trkpt lat="43.59156" lon="6.40021">
        <ele>623.7</ele>
        <time>2026-02-22T11:04:43Z</time>
      </trkpt>
      <trkpt lat="43.59156" lon="6.40021">
        <ele>623.7</ele>
        <time>2026-02-22T11:04:44Z</time>
      </trkpt>
      <trkpt lat="43.59156" lon="6.40021">
        <ele>623.7</ele>
        <time>2026-02-22T11:04:45Z</time>
      </trkpt>
      <trkpt lat="43.59156" lon="6.40021">
        <ele>623.7</ele>
        <time>2026-02-22T11:04:46Z</time>
      </trkpt>
      <trkpt lat="43.59156" lon="6.40021">
        <ele>623.8</ele>
        <time>2026-02-22T11:04:47Z</time>
      </trkpt>
      <trkpt lat="43.59156" lon="6.40021">
        <ele>623.7</ele>
        <time>2026-02-22T11:04:48Z</time>
      </trkpt>
      <trkpt lat="43.59156" lon="6.40021">
        <ele>623.8</ele>
        <time>2026-02-22T11:04:49Z</time>
      </trkpt>
      <trkpt lat="43.59156" lon="6.4002">
        <ele>623.8</ele>
        <time>2026-02-22T11:04:50Z</time>
      </trkpt>
      <trkpt lat="43.59155" lon="6.4002">
        <ele>623.8</ele>
        <time>2026-02-22T11:04:51Z</time>
      </trkpt>
      <trkpt lat="43.59155" lon="6.4002">
        <ele>623.9</ele>
        <time>2026-02-22T11:04:52Z</time>
      </trkpt>
      <trkpt lat="43.59155" lon="6.4002">
        <ele>623.9</ele>
        <time>2026-02-22T11:04:53Z</time>
      </trkpt>
      <trkpt lat="43.59155" lon="6.4002">
        <ele>623.9</ele>
        <time>2026-02-22T11:04:54Z</time>
      </trkpt>
      <trkpt lat="43.59155" lon="6.40021">
        <ele>623.8</ele>
        <time>2026-02-22T11:04:55Z</time>
      </trkpt>
      <trkpt lat="43.59155" lon="6.40021">
        <ele>623.8</ele>
        <time>2026-02-22T11:04:56Z</time>
      </trkpt>
      <trkpt lat="43.59155" lon="6.40021">
        <ele>623.8</ele>
        <time>2026-02-22T11:04:57Z</time>
      </trkpt>
      <trkpt lat="43.59155" lon="6.40021">
        <ele>623.8</ele>
        <time>2026-02-22T11:04:58Z</time>
      </trkpt>
      <trkpt lat="43.59156" lon="6.40021">
        <ele>623.8</ele>
        <time>2026-02-22T11:04:59Z</time>
      </trkpt>
      <trkpt lat="43.59156" lon="6.40022">
        <ele>623.8</ele>
        <time>2026-02-22T11:05:00Z</time>
      </trkpt>
      <trkpt lat="43.59156" lon="6.40022">
        <ele>623.8</ele>
        <time>2026-02-22T11:05:01Z</time>
      </trkpt>
      <trkpt lat="43.59156" lon="6.40022">
        <ele>623.8</ele>
        <time>2026-02-22T11:05:02Z</time>
      </trkpt>
      <trkpt lat="43.59156" lon="6.40022">
        <ele>623.8</ele>
        <time>2026-02-22T11:05:03Z</time>
      </trkpt>
      <trkpt lat="43.59156" lon="6.40022">
        <ele>623.8</ele>
        <time>2026-02-22T11:05:04Z</time>
      </trkpt>
      <trkpt lat="43.59156" lon="6.40022">
        <ele>623.8</ele>
        <time>2026-02-22T11:05:05Z</time>
      </trkpt>
      <trkpt lat="43.59157" lon="6.40022">
        <ele>623.9</ele>
        <time>2026-02-22T11:05:06Z</time>
      </trkpt>
      <trkpt lat="43.59157" lon="6.40022">
        <ele>623.9</ele>
        <time>2026-02-22T11:05:07Z</time>
      </trkpt>
      <trkpt lat="43.59157" lon="6.40022">
        <ele>623.9</ele>
        <time>2026-02-22T11:05:08Z</time>
      </trkpt>
      <trkpt lat="43.59157" lon="6.40022">
        <ele>624</ele>
        <time>2026-02-22T11:05:09Z</time>
      </trkpt>
      <trkpt lat="43.59157" lon="6.40022">
        <ele>624</ele>
        <time>2026-02-22T11:05:10Z</time>
      </trkpt>
      <trkpt lat="43.59157" lon="6.40023">
        <ele>624</ele>
        <time>2026-02-22T11:05:11Z</time>
      </trkpt>
      <trkpt lat="43.59157" lon="6.40023">
        <ele>624</ele>
        <time>2026-02-22T11:05:12Z</time>
      </trkpt>
      <trkpt lat="43.59157" lon="6.40023">
        <ele>624</ele>
        <time>2026-02-22T11:05:13Z</time>
      </trkpt>
      <trkpt lat="43.59157" lon="6.40023">
        <ele>624</ele>
        <time>2026-02-22T11:05:14Z</time>
      </trkpt>
      <trkpt lat="43.59157" lon="6.40023">
        <ele>624</ele>
        <time>2026-02-22T11:05:15Z</time>
      </trkpt>
      <trkpt lat="43.59157" lon="6.40023">
        <ele>624</ele>
        <time>2026-02-22T11:05:16Z</time>
      </trkpt>
      <trkpt lat="43.59157" lon="6.40023">
        <ele>624</ele>
        <time>2026-02-22T11:05:17Z</time>
      </trkpt>
      <trkpt lat="43.59157" lon="6.40023">
        <ele>624</ele>
        <time>2026-02-22T11:05:18Z</time>
      </trkpt>
      <trkpt lat="43.59157" lon="6.40023">
        <ele>624</ele>
        <time>2026-02-22T11:05:19Z</time>
      </trkpt>
      <trkpt lat="43.59157" lon="6.40023">
        <ele>624</ele>
        <time>2026-02-22T11:05:20Z</time>
      </trkpt>
      <trkpt lat="43.59157" lon="6.40023">
        <ele>624</ele>
        <time>2026-02-22T11:05:21Z</time>
      </trkpt>
      <trkpt lat="43.59157" lon="6.40023">
        <ele>624.1</ele>
        <time>2026-02-22T11:05:22Z</time>
      </trkpt>
      <trkpt lat="43.59157" lon="6.40023">
        <ele>624.1</ele>
        <time>2026-02-22T11:05:23Z</time>
      </trkpt>
      <trkpt lat="43.59157" lon="6.40023">
        <ele>624.1</ele>
        <time>2026-02-22T11:05:24Z</time>
      </trkpt>
      <trkpt lat="43.59157" lon="6.40023">
        <ele>624.2</ele>
        <time>2026-02-22T11:05:25Z</time>
      </trkpt>
      <trkpt lat="43.59157" lon="6.40023">
        <ele>624.2</ele>
        <time>2026-02-22T11:05:26Z</time>
      </trkpt>
      <trkpt lat="43.59157" lon="6.40022">
        <ele>624.2</ele>
        <time>2026-02-22T11:05:27Z</time>
      </trkpt>
      <trkpt lat="43.59157" lon="6.40022">
        <ele>624.2</ele>
        <time>2026-02-22T11:05:28Z</time>
      </trkpt>
      <trkpt lat="43.59158" lon="6.40023">
        <ele>624.2</ele>
        <time>2026-02-22T11:05:29Z</time>
      </trkpt>
      <trkpt lat="43.59158" lon="6.40023">
        <ele>624.2</ele>
        <time>2026-02-22T11:05:30Z</time>
      </trkpt>
      <trkpt lat="43.59157" lon="6.40024">
        <ele>624.2</ele>
        <time>2026-02-22T11:05:31Z</time>
      </trkpt>
      <trkpt lat="43.59157" lon="6.40025">
        <ele>624.1</ele>
        <time>2026-02-22T11:05:32Z</time>
      </trkpt>
      <trkpt lat="43.59157" lon="6.40025">
        <ele>624.1</ele>
        <time>2026-02-22T11:05:33Z</time>
      </trkpt>
      <trkpt lat="43.59157" lon="6.40025">
        <ele>624</ele>
        <time>2026-02-22T11:05:34Z</time>
      </trkpt>
      <trkpt lat="43.59157" lon="6.40025">
        <ele>624</ele>
        <time>2026-02-22T11:05:35Z</time>
      </trkpt>
      <trkpt lat="43.59157" lon="6.40025">
        <ele>624</ele>
        <time>2026-02-22T11:05:36Z</time>
      </trkpt>
      <trkpt lat="43.59157" lon="6.40025">
        <ele>624</ele>
        <time>2026-02-22T11:05:37Z</time>
      </trkpt>
      <trkpt lat="43.59156" lon="6.40025">
        <ele>624.1</ele>
        <time>2026-02-22T11:05:38Z</time>
      </trkpt>
      <trkpt lat="43.59156" lon="6.40026">
        <ele>624.1</ele>
        <time>2026-02-22T11:05:39Z</time>
      </trkpt>
      <trkpt lat="43.59155" lon="6.40026">
        <ele>624.1</ele>
        <time>2026-02-22T11:05:40Z</time>
      </trkpt>
      <trkpt lat="43.59155" lon="6.40027">
        <ele>624.1</ele>
        <time>2026-02-22T11:05:41Z</time>
      </trkpt>
      <trkpt lat="43.59154" lon="6.40028">
        <ele>624.1</ele>
        <time>2026-02-22T11:05:42Z</time>
      </trkpt>
      <trkpt lat="43.59154" lon="6.40029">
        <ele>624.1</ele>
        <time>2026-02-22T11:05:43Z</time>
      </trkpt>
      <trkpt lat="43.59153" lon="6.4003">
        <ele>624</ele>
        <time>2026-02-22T11:05:44Z</time>
      </trkpt>
      <trkpt lat="43.59153" lon="6.4003">
        <ele>624.1</ele>
        <time>2026-02-22T11:05:45Z</time>
      </trkpt>
      <trkpt lat="43.59153" lon="6.4003">
        <ele>624.1</ele>
        <time>2026-02-22T11:05:46Z</time>
      </trkpt>
      <trkpt lat="43.59152" lon="6.40031">
        <ele>624.1</ele>
        <time>2026-02-22T11:05:47Z</time>
      </trkpt>
      <trkpt lat="43.59152" lon="6.40032">
        <ele>624.1</ele>
        <time>2026-02-22T11:05:48Z</time>
      </trkpt>
      <trkpt lat="43.59152" lon="6.40033">
        <ele>624.1</ele>
        <time>2026-02-22T11:05:49Z</time>
      </trkpt>
      <trkpt lat="43.59151" lon="6.40033">
        <ele>624.1</ele>
        <time>2026-02-22T11:05:50Z</time>
      </trkpt>
      <trkpt lat="43.59152" lon="6.40034">
        <ele>624.2</ele>
        <time>2026-02-22T11:05:51Z</time>
      </trkpt>
      <trkpt lat="43.59152" lon="6.40035">
        <ele>624.3</ele>
        <time>2026-02-22T11:05:52Z</time>
      </trkpt>
      <trkpt lat="43.59153" lon="6.40036">
        <ele>624.3</ele>
        <time>2026-02-22T11:05:53Z</time>
      </trkpt>
      <trkpt lat="43.59152" lon="6.40037">
        <ele>624.3</ele>
        <time>2026-02-22T11:05:54Z</time>
      </trkpt>
      <trkpt lat="43.59152" lon="6.40037">
        <ele>624.4</ele>
        <time>2026-02-22T11:05:55Z</time>
      </trkpt>
      <trkpt lat="43.59152" lon="6.40038">
        <ele>624.5</ele>
        <time>2026-02-22T11:05:56Z</time>
      </trkpt>
      <trkpt lat="43.59151" lon="6.40039">
        <ele>624.6</ele>
        <time>2026-02-22T11:05:57Z</time>
      </trkpt>
      <trkpt lat="43.5915" lon="6.40039">
        <ele>624.6</ele>
        <time>2026-02-22T11:05:58Z</time>
      </trkpt>
      <trkpt lat="43.59149" lon="6.4004">
        <ele>624.6</ele>
        <time>2026-02-22T11:05:59Z</time>
      </trkpt>
      <trkpt lat="43.59148" lon="6.40041">
        <ele>624.7</ele>
        <time>2026-02-22T11:06:00Z</time>
      </trkpt>
      <trkpt lat="43.59148" lon="6.40041">
        <ele>624.7</ele>
        <time>2026-02-22T11:06:01Z</time>
      </trkpt>
      <trkpt lat="43.59147" lon="6.40042">
        <ele>624.7</ele>
        <time>2026-02-22T11:06:02Z</time>
      </trkpt>
      <trkpt lat="43.59146" lon="6.40043">
        <ele>624.7</ele>
        <time>2026-02-22T11:06:03Z</time>
      </trkpt>
      <trkpt lat="43.59145" lon="6.40044">
        <ele>624.8</ele>
        <time>2026-02-22T11:06:04Z</time>
      </trkpt>
      <trkpt lat="43.59144" lon="6.40045">
        <ele>624.9</ele>
        <time>2026-02-22T11:06:05Z</time>
      </trkpt>
      <trkpt lat="43.59144" lon="6.40045">
        <ele>625</ele>
        <time>2026-02-22T11:06:06Z</time>
      </trkpt>
      <trkpt lat="43.59143" lon="6.40046">
        <ele>625</ele>
        <time>2026-02-22T11:06:07Z</time>
      </trkpt>
      <trkpt lat="43.59142" lon="6.40047">
        <ele>625.1</ele>
        <time>2026-02-22T11:06:08Z</time>
      </trkpt>
      <trkpt lat="43.59142" lon="6.40047">
        <ele>625.1</ele>
        <time>2026-02-22T11:06:09Z</time>
      </trkpt>
      <trkpt lat="43.59141" lon="6.40048">
        <ele>625.1</ele>
        <time>2026-02-22T11:06:10Z</time>
      </trkpt>
      <trkpt lat="43.5914" lon="6.40049">
        <ele>625</ele>
        <time>2026-02-22T11:06:11Z</time>
      </trkpt>
      <trkpt lat="43.59139" lon="6.4005">
        <ele>625</ele>
        <time>2026-02-22T11:06:12Z</time>
      </trkpt>
      <trkpt lat="43.59138" lon="6.40051">
        <ele>624.9</ele>
        <time>2026-02-22T11:06:13Z</time>
      </trkpt>
      <trkpt lat="43.59138" lon="6.40052">
        <ele>624.9</ele>
        <time>2026-02-22T11:06:14Z</time>
      </trkpt>
      <trkpt lat="43.59137" lon="6.40052">
        <ele>624.9</ele>
        <time>2026-02-22T11:06:15Z</time>
      </trkpt>
      <trkpt lat="43.59136" lon="6.40053">
        <ele>624.9</ele>
        <time>2026-02-22T11:06:16Z</time>
      </trkpt>
      <trkpt lat="43.59136" lon="6.40054">
        <ele>624.8</ele>
        <time>2026-02-22T11:06:17Z</time>
      </trkpt>
      <trkpt lat="43.59135" lon="6.40055">
        <ele>624.8</ele>
        <time>2026-02-22T11:06:18Z</time>
      </trkpt>
      <trkpt lat="43.59135" lon="6.40057">
        <ele>624.8</ele>
        <time>2026-02-22T11:06:19Z</time>
      </trkpt>
      <trkpt lat="43.59135" lon="6.40058">
        <ele>624.8</ele>
        <time>2026-02-22T11:06:20Z</time>
      </trkpt>
      <trkpt lat="43.59135" lon="6.40059">
        <ele>624.8</ele>
        <time>2026-02-22T11:06:21Z</time>
      </trkpt>
      <trkpt lat="43.59135" lon="6.40061">
        <ele>624.8</ele>
        <time>2026-02-22T11:06:22Z</time>
      </trkpt>
      <trkpt lat="43.59134" lon="6.40062">
        <ele>624.7</ele>
        <time>2026-02-22T11:06:23Z</time>
      </trkpt>
      <trkpt lat="43.59133" lon="6.40063">
        <ele>624.6</ele>
        <time>2026-02-22T11:06:24Z</time>
      </trkpt>
      <trkpt lat="43.59132" lon="6.40064">
        <ele>624.5</ele>
        <time>2026-02-22T11:06:25Z</time>
      </trkpt>
      <trkpt lat="43.59131" lon="6.40065">
        <ele>624.5</ele>
        <time>2026-02-22T11:06:26Z</time>
      </trkpt>
      <trkpt lat="43.5913" lon="6.40066">
        <ele>624.5</ele>
        <time>2026-02-22T11:06:27Z</time>
      </trkpt>
      <trkpt lat="43.5913" lon="6.40068">
        <ele>624.7</ele>
        <time>2026-02-22T11:06:28Z</time>
      </trkpt>
      <trkpt lat="43.59129" lon="6.40069">
        <ele>624.8</ele>
        <time>2026-02-22T11:06:29Z</time>
      </trkpt>
      <trkpt lat="43.59128" lon="6.40071">
        <ele>624.9</ele>
        <time>2026-02-22T11:06:30Z</time>
      </trkpt>
      <trkpt lat="43.59127" lon="6.40073">
        <ele>624.9</ele>
        <time>2026-02-22T11:06:31Z</time>
      </trkpt>
      <trkpt lat="43.59126" lon="6.40074">
        <ele>625</ele>
        <time>2026-02-22T11:06:32Z</time>
      </trkpt>
      <trkpt lat="43.59125" lon="6.40075">
        <ele>625</ele>
        <time>2026-02-22T11:06:33Z</time>
      </trkpt>
      <trkpt lat="43.59124" lon="6.40076">
        <ele>625</ele>
        <time>2026-02-22T11:06:34Z</time>
      </trkpt>
      <trkpt lat="43.59123" lon="6.40077">
        <ele>625</ele>
        <time>2026-02-22T11:06:35Z</time>
      </trkpt>
      <trkpt lat="43.59122" lon="6.40078">
        <ele>625.1</ele>
        <time>2026-02-22T11:06:36Z</time>
      </trkpt>
      <trkpt lat="43.59122" lon="6.40081">
        <ele>625.1</ele>
        <time>2026-02-22T11:06:37Z</time>
      </trkpt>
      <trkpt lat="43.59122" lon="6.40084">
        <ele>625.1</ele>
        <time>2026-02-22T11:06:38Z</time>
      </trkpt>
      <trkpt lat="43.59121" lon="6.40086">
        <ele>625.2</ele>
        <time>2026-02-22T11:06:39Z</time>
      </trkpt>
      <trkpt lat="43.59119" lon="6.40087">
        <ele>625.2</ele>
        <time>2026-02-22T11:06:40Z</time>
      </trkpt>
      <trkpt lat="43.59119" lon="6.40088">
        <ele>625.1</ele>
        <time>2026-02-22T11:06:41Z</time>
      </trkpt>
      <trkpt lat="43.59118" lon="6.40089">
        <ele>625.1</ele>
        <time>2026-02-22T11:06:42Z</time>
      </trkpt>
      <trkpt lat="43.59117" lon="6.4009">
        <ele>625.1</ele>
        <time>2026-02-22T11:06:43Z</time>
      </trkpt>
      <trkpt lat="43.59117" lon="6.40091">
        <ele>625.2</ele>
        <time>2026-02-22T11:06:44Z</time>
      </trkpt>
      <trkpt lat="43.59117" lon="6.40092">
        <ele>625.1</ele>
        <time>2026-02-22T11:06:45Z</time>
      </trkpt>
      <trkpt lat="43.59117" lon="6.40093">
        <ele>625</ele>
        <time>2026-02-22T11:06:46Z</time>
      </trkpt>
      <trkpt lat="43.59115" lon="6.40094">
        <ele>624.9</ele>
        <time>2026-02-22T11:06:47Z</time>
      </trkpt>
      <trkpt lat="43.59114" lon="6.40095">
        <ele>625</ele>
        <time>2026-02-22T11:06:48Z</time>
      </trkpt>
      <trkpt lat="43.59113" lon="6.40096">
        <ele>625</ele>
        <time>2026-02-22T11:06:49Z</time>
      </trkpt>
      <trkpt lat="43.59112" lon="6.40097">
        <ele>625.1</ele>
        <time>2026-02-22T11:06:50Z</time>
      </trkpt>
      <trkpt lat="43.59112" lon="6.40098">
        <ele>625.2</ele>
        <time>2026-02-22T11:06:51Z</time>
      </trkpt>
      <trkpt lat="43.59111" lon="6.40099">
        <ele>625.3</ele>
        <time>2026-02-22T11:06:52Z</time>
      </trkpt>
      <trkpt lat="43.5911" lon="6.401">
        <ele>625.4</ele>
        <time>2026-02-22T11:06:53Z</time>
      </trkpt>
      <trkpt lat="43.59109" lon="6.40101">
        <ele>625.5</ele>
        <time>2026-02-22T11:06:54Z</time>
      </trkpt>
      <trkpt lat="43.59108" lon="6.40102">
        <ele>625.6</ele>
        <time>2026-02-22T11:06:55Z</time>
      </trkpt>
      <trkpt lat="43.59106" lon="6.40103">
        <ele>625.7</ele>
        <time>2026-02-22T11:06:56Z</time>
      </trkpt>
      <trkpt lat="43.59105" lon="6.40104">
        <ele>625.6</ele>
        <time>2026-02-22T11:06:57Z</time>
      </trkpt>
      <trkpt lat="43.59104" lon="6.40105">
        <ele>625.6</ele>
        <time>2026-02-22T11:06:58Z</time>
      </trkpt>
      <trkpt lat="43.59104" lon="6.40106">
        <ele>625.7</ele>
        <time>2026-02-22T11:06:59Z</time>
      </trkpt>
      <trkpt lat="43.59103" lon="6.40106">
        <ele>625.7</ele>
        <time>2026-02-22T11:07:00Z</time>
      </trkpt>
      <trkpt lat="43.59102" lon="6.40106">
        <ele>625.7</ele>
        <time>2026-02-22T11:07:01Z</time>
      </trkpt>
      <trkpt lat="43.59101" lon="6.40107">
        <ele>625.7</ele>
        <time>2026-02-22T11:07:02Z</time>
      </trkpt>
      <trkpt lat="43.591" lon="6.40107">
        <ele>625.7</ele>
        <time>2026-02-22T11:07:03Z</time>
      </trkpt>
      <trkpt lat="43.59099" lon="6.40108">
        <ele>625.7</ele>
        <time>2026-02-22T11:07:04Z</time>
      </trkpt>
      <trkpt lat="43.59098" lon="6.40109">
        <ele>625.9</ele>
        <time>2026-02-22T11:07:05Z</time>
      </trkpt>
      <trkpt lat="43.59096" lon="6.40109">
        <ele>626</ele>
        <time>2026-02-22T11:07:06Z</time>
      </trkpt>
      <trkpt lat="43.59095" lon="6.40109">
        <ele>626</ele>
        <time>2026-02-22T11:07:07Z</time>
      </trkpt>
      <trkpt lat="43.59094" lon="6.4011">
        <ele>626</ele>
        <time>2026-02-22T11:07:08Z</time>
      </trkpt>
      <trkpt lat="43.59093" lon="6.4011">
        <ele>626</ele>
        <time>2026-02-22T11:07:09Z</time>
      </trkpt>
      <trkpt lat="43.59093" lon="6.40111">
        <ele>625.9</ele>
        <time>2026-02-22T11:07:10Z</time>
      </trkpt>
      <trkpt lat="43.59091" lon="6.40112">
        <ele>625.9</ele>
        <time>2026-02-22T11:07:11Z</time>
      </trkpt>
      <trkpt lat="43.5909" lon="6.40113">
        <ele>626</ele>
        <time>2026-02-22T11:07:12Z</time>
      </trkpt>
      <trkpt lat="43.59089" lon="6.40114">
        <ele>626.1</ele>
        <time>2026-02-22T11:07:13Z</time>
      </trkpt>
      <trkpt lat="43.59088" lon="6.40116">
        <ele>626.1</ele>
        <time>2026-02-22T11:07:14Z</time>
      </trkpt>
      <trkpt lat="43.59087" lon="6.40116">
        <ele>626.1</ele>
        <time>2026-02-22T11:07:15Z</time>
      </trkpt>
      <trkpt lat="43.59086" lon="6.40117">
        <ele>626.1</ele>
        <time>2026-02-22T11:07:16Z</time>
      </trkpt>
      <trkpt lat="43.59086" lon="6.40118">
        <ele>626.1</ele>
        <time>2026-02-22T11:07:17Z</time>
      </trkpt>
      <trkpt lat="43.59085" lon="6.4012">
        <ele>626.2</ele>
        <time>2026-02-22T11:07:18Z</time>
      </trkpt>
      <trkpt lat="43.59084" lon="6.40121">
        <ele>626.3</ele>
        <time>2026-02-22T11:07:19Z</time>
      </trkpt>
      <trkpt lat="43.59084" lon="6.40123">
        <ele>626.4</ele>
        <time>2026-02-22T11:07:20Z</time>
      </trkpt>
      <trkpt lat="43.59083" lon="6.40125">
        <ele>626.5</ele>
        <time>2026-02-22T11:07:21Z</time>
      </trkpt>
      <trkpt lat="43.59083" lon="6.40127">
        <ele>626.6</ele>
        <time>2026-02-22T11:07:22Z</time>
      </trkpt>
      <trkpt lat="43.59082" lon="6.40128">
        <ele>626.6</ele>
        <time>2026-02-22T11:07:23Z</time>
      </trkpt>
      <trkpt lat="43.59081" lon="6.40129">
        <ele>626.7</ele>
        <time>2026-02-22T11:07:24Z</time>
      </trkpt>
      <trkpt lat="43.59081" lon="6.4013">
        <ele>626.8</ele>
        <time>2026-02-22T11:07:25Z</time>
      </trkpt>
      <trkpt lat="43.59081" lon="6.4013">
        <ele>626.9</ele>
        <time>2026-02-22T11:07:26Z</time>
      </trkpt>
      <trkpt lat="43.5908" lon="6.40131">
        <ele>627</ele>
        <time>2026-02-22T11:07:27Z</time>
      </trkpt>
      <trkpt lat="43.5908" lon="6.40132">
        <ele>627</ele>
        <time>2026-02-22T11:07:28Z</time>
      </trkpt>
      <trkpt lat="43.5908" lon="6.40134">
        <ele>627.1</ele>
        <time>2026-02-22T11:07:29Z</time>
      </trkpt>
      <trkpt lat="43.59079" lon="6.40138">
        <ele>627.1</ele>
        <time>2026-02-22T11:07:30Z</time>
      </trkpt>
      <trkpt lat="43.59078" lon="6.40139">
        <ele>627.3</ele>
        <time>2026-02-22T11:07:31Z</time>
      </trkpt>
      <trkpt lat="43.59078" lon="6.4014">
        <ele>627.4</ele>
        <time>2026-02-22T11:07:32Z</time>
      </trkpt>
      <trkpt lat="43.59078" lon="6.40142">
        <ele>627.5</ele>
        <time>2026-02-22T11:07:33Z</time>
      </trkpt>
      <trkpt lat="43.59077" lon="6.40145">
        <ele>627.6</ele>
        <time>2026-02-22T11:07:34Z</time>
      </trkpt>
      <trkpt lat="43.59077" lon="6.40147">
        <ele>627.7</ele>
        <time>2026-02-22T11:07:35Z</time>
      </trkpt>
      <trkpt lat="43.59076" lon="6.40148">
        <ele>627.8</ele>
        <time>2026-02-22T11:07:36Z</time>
      </trkpt>
      <trkpt lat="43.59076" lon="6.40149">
        <ele>627.9</ele>
        <time>2026-02-22T11:07:37Z</time>
      </trkpt>
      <trkpt lat="43.59076" lon="6.4015">
        <ele>628</ele>
        <time>2026-02-22T11:07:38Z</time>
      </trkpt>
      <trkpt lat="43.59075" lon="6.40152">
        <ele>628.1</ele>
        <time>2026-02-22T11:07:39Z</time>
      </trkpt>
      <trkpt lat="43.59075" lon="6.40154">
        <ele>628.2</ele>
        <time>2026-02-22T11:07:40Z</time>
      </trkpt>
      <trkpt lat="43.59074" lon="6.40156">
        <ele>628.2</ele>
        <time>2026-02-22T11:07:41Z</time>
      </trkpt>
      <trkpt lat="43.59074" lon="6.40157">
        <ele>628.2</ele>
        <time>2026-02-22T11:07:42Z</time>
      </trkpt>
      <trkpt lat="43.59074" lon="6.40158">
        <ele>628.2</ele>
        <time>2026-02-22T11:07:43Z</time>
      </trkpt>
      <trkpt lat="43.59074" lon="6.4016">
        <ele>628.2</ele>
        <time>2026-02-22T11:07:44Z</time>
      </trkpt>
      <trkpt lat="43.59073" lon="6.40163">
        <ele>628.3</ele>
        <time>2026-02-22T11:07:45Z</time>
      </trkpt>
      <trkpt lat="43.59073" lon="6.40165">
        <ele>628.3</ele>
        <time>2026-02-22T11:07:46Z</time>
      </trkpt>
      <trkpt lat="43.59072" lon="6.40166">
        <ele>628.3</ele>
        <time>2026-02-22T11:07:47Z</time>
      </trkpt>
      <trkpt lat="43.59072" lon="6.40168">
        <ele>628.3</ele>
        <time>2026-02-22T11:07:48Z</time>
      </trkpt>
      <trkpt lat="43.59072" lon="6.40169">
        <ele>628.3</ele>
        <time>2026-02-22T11:07:49Z</time>
      </trkpt>
      <trkpt lat="43.59072" lon="6.40171">
        <ele>628.4</ele>
        <time>2026-02-22T11:07:50Z</time>
      </trkpt>
      <trkpt lat="43.59071" lon="6.40172">
        <ele>628.4</ele>
        <time>2026-02-22T11:07:51Z</time>
      </trkpt>
      <trkpt lat="43.59071" lon="6.40173">
        <ele>628.4</ele>
        <time>2026-02-22T11:07:52Z</time>
      </trkpt>
      <trkpt lat="43.5907" lon="6.40174">
        <ele>628.4</ele>
        <time>2026-02-22T11:07:53Z</time>
      </trkpt>
      <trkpt lat="43.5907" lon="6.40176">
        <ele>628.4</ele>
        <time>2026-02-22T11:07:54Z</time>
      </trkpt>
      <trkpt lat="43.59069" lon="6.40178">
        <ele>628.4</ele>
        <time>2026-02-22T11:07:55Z</time>
      </trkpt>
      <trkpt lat="43.59069" lon="6.4018">
        <ele>628.4</ele>
        <time>2026-02-22T11:07:56Z</time>
      </trkpt>
      <trkpt lat="43.59069" lon="6.40182">
        <ele>628.4</ele>
        <time>2026-02-22T11:07:57Z</time>
      </trkpt>
      <trkpt lat="43.59069" lon="6.40184">
        <ele>628.3</ele>
        <time>2026-02-22T11:07:58Z</time>
      </trkpt>
      <trkpt lat="43.59068" lon="6.40185">
        <ele>628.3</ele>
        <time>2026-02-22T11:07:59Z</time>
      </trkpt>
      <trkpt lat="43.59068" lon="6.40186">
        <ele>628.3</ele>
        <time>2026-02-22T11:08:00Z</time>
      </trkpt>
      <trkpt lat="43.59068" lon="6.40187">
        <ele>628.3</ele>
        <time>2026-02-22T11:08:01Z</time>
      </trkpt>
      <trkpt lat="43.59068" lon="6.40188">
        <ele>628.4</ele>
        <time>2026-02-22T11:08:02Z</time>
      </trkpt>
      <trkpt lat="43.59067" lon="6.40189">
        <ele>628.4</ele>
        <time>2026-02-22T11:08:03Z</time>
      </trkpt>
      <trkpt lat="43.59067" lon="6.4019">
        <ele>628.5</ele>
        <time>2026-02-22T11:08:04Z</time>
      </trkpt>
      <trkpt lat="43.59066" lon="6.40192">
        <ele>628.6</ele>
        <time>2026-02-22T11:08:05Z</time>
      </trkpt>
      <trkpt lat="43.59066" lon="6.40193">
        <ele>628.6</ele>
        <time>2026-02-22T11:08:06Z</time>
      </trkpt>
      <trkpt lat="43.59066" lon="6.40194">
        <ele>628.6</ele>
        <time>2026-02-22T11:08:07Z</time>
      </trkpt>
      <trkpt lat="43.59065" lon="6.40196">
        <ele>628.7</ele>
        <time>2026-02-22T11:08:08Z</time>
      </trkpt>
      <trkpt lat="43.59065" lon="6.40197">
        <ele>628.7</ele>
        <time>2026-02-22T11:08:09Z</time>
      </trkpt>
      <trkpt lat="43.59064" lon="6.40197">
        <ele>628.8</ele>
        <time>2026-02-22T11:08:10Z</time>
      </trkpt>
      <trkpt lat="43.59063" lon="6.40198">
        <ele>628.9</ele>
        <time>2026-02-22T11:08:11Z</time>
      </trkpt>
      <trkpt lat="43.59063" lon="6.40199">
        <ele>629</ele>
        <time>2026-02-22T11:08:12Z</time>
      </trkpt>
      <trkpt lat="43.59061" lon="6.402">
        <ele>629.1</ele>
        <time>2026-02-22T11:08:13Z</time>
      </trkpt>
      <trkpt lat="43.5906" lon="6.40202">
        <ele>629.2</ele>
        <time>2026-02-22T11:08:14Z</time>
      </trkpt>
      <trkpt lat="43.5906" lon="6.40203">
        <ele>629.3</ele>
        <time>2026-02-22T11:08:15Z</time>
      </trkpt>
      <trkpt lat="43.59059" lon="6.40205">
        <ele>629.3</ele>
        <time>2026-02-22T11:08:16Z</time>
      </trkpt>
      <trkpt lat="43.59058" lon="6.40206">
        <ele>629.4</ele>
        <time>2026-02-22T11:08:17Z</time>
      </trkpt>
      <trkpt lat="43.59057" lon="6.40207">
        <ele>629.4</ele>
        <time>2026-02-22T11:08:18Z</time>
      </trkpt>
      <trkpt lat="43.59056" lon="6.40207">
        <ele>629.5</ele>
        <time>2026-02-22T11:08:19Z</time>
      </trkpt>
      <trkpt lat="43.59055" lon="6.40207">
        <ele>629.5</ele>
        <time>2026-02-22T11:08:20Z</time>
      </trkpt>
      <trkpt lat="43.59055" lon="6.40208">
        <ele>629.5</ele>
        <time>2026-02-22T11:08:21Z</time>
      </trkpt>
      <trkpt lat="43.59054" lon="6.40208">
        <ele>629.6</ele>
        <time>2026-02-22T11:08:22Z</time>
      </trkpt>
      <trkpt lat="43.59053" lon="6.40209">
        <ele>629.6</ele>
        <time>2026-02-22T11:08:23Z</time>
      </trkpt>
      <trkpt lat="43.59052" lon="6.4021">
        <ele>629.7</ele>
        <time>2026-02-22T11:08:24Z</time>
      </trkpt>
      <trkpt lat="43.59051" lon="6.40211">
        <ele>629.7</ele>
        <time>2026-02-22T11:08:25Z</time>
      </trkpt>
      <trkpt lat="43.59051" lon="6.40213">
        <ele>629.8</ele>
        <time>2026-02-22T11:08:26Z</time>
      </trkpt>
      <trkpt lat="43.59051" lon="6.40214">
        <ele>629.8</ele>
        <time>2026-02-22T11:08:27Z</time>
      </trkpt>
      <trkpt lat="43.5905" lon="6.40215">
        <ele>629.9</ele>
        <time>2026-02-22T11:08:28Z</time>
      </trkpt>
      <trkpt lat="43.59049" lon="6.40217">
        <ele>629.9</ele>
        <time>2026-02-22T11:08:29Z</time>
      </trkpt>
      <trkpt lat="43.59048" lon="6.40218">
        <ele>629.9</ele>
        <time>2026-02-22T11:08:30Z</time>
      </trkpt>
      <trkpt lat="43.59048" lon="6.40219">
        <ele>630</ele>
        <time>2026-02-22T11:08:31Z</time>
      </trkpt>
      <trkpt lat="43.59047" lon="6.4022">
        <ele>630</ele>
        <time>2026-02-22T11:08:32Z</time>
      </trkpt>
      <trkpt lat="43.59047" lon="6.40222">
        <ele>630</ele>
        <time>2026-02-22T11:08:33Z</time>
      </trkpt>
      <trkpt lat="43.59046" lon="6.40222">
        <ele>630.1</ele>
        <time>2026-02-22T11:08:34Z</time>
      </trkpt>
      <trkpt lat="43.59046" lon="6.40224">
        <ele>630.2</ele>
        <time>2026-02-22T11:08:35Z</time>
      </trkpt>
      <trkpt lat="43.59046" lon="6.40225">
        <ele>630.3</ele>
        <time>2026-02-22T11:08:36Z</time>
      </trkpt>
      <trkpt lat="43.59045" lon="6.40226">
        <ele>630.4</ele>
        <time>2026-02-22T11:08:37Z</time>
      </trkpt>
      <trkpt lat="43.59045" lon="6.40227">
        <ele>630.4</ele>
        <time>2026-02-22T11:08:38Z</time>
      </trkpt>
      <trkpt lat="43.59045" lon="6.40229">
        <ele>630.4</ele>
        <time>2026-02-22T11:08:39Z</time>
      </trkpt>
      <trkpt lat="43.59044" lon="6.4023">
        <ele>630.5</ele>
        <time>2026-02-22T11:08:40Z</time>
      </trkpt>
      <trkpt lat="43.59044" lon="6.40232">
        <ele>630.5</ele>
        <time>2026-02-22T11:08:41Z</time>
      </trkpt>
      <trkpt lat="43.59043" lon="6.40233">
        <ele>630.5</ele>
        <time>2026-02-22T11:08:42Z</time>
      </trkpt>
      <trkpt lat="43.59041" lon="6.40234">
        <ele>630.6</ele>
        <time>2026-02-22T11:08:43Z</time>
      </trkpt>
      <trkpt lat="43.59041" lon="6.40235">
        <ele>630.7</ele>
        <time>2026-02-22T11:08:44Z</time>
      </trkpt>
      <trkpt lat="43.5904" lon="6.40237">
        <ele>630.7</ele>
        <time>2026-02-22T11:08:45Z</time>
      </trkpt>
      <trkpt lat="43.59039" lon="6.40238">
        <ele>630.6</ele>
        <time>2026-02-22T11:08:46Z</time>
      </trkpt>
      <trkpt lat="43.59039" lon="6.40239">
        <ele>630.7</ele>
        <time>2026-02-22T11:08:47Z</time>
      </trkpt>
      <trkpt lat="43.59038" lon="6.4024">
        <ele>630.7</ele>
        <time>2026-02-22T11:08:48Z</time>
      </trkpt>
      <trkpt lat="43.59037" lon="6.40241">
        <ele>630.8</ele>
        <time>2026-02-22T11:08:49Z</time>
      </trkpt>
      <trkpt lat="43.59036" lon="6.40242">
        <ele>630.8</ele>
        <time>2026-02-22T11:08:50Z</time>
      </trkpt>
      <trkpt lat="43.59035" lon="6.40243">
        <ele>630.9</ele>
        <time>2026-02-22T11:08:51Z</time>
      </trkpt>
      <trkpt lat="43.59034" lon="6.40244">
        <ele>630.9</ele>
        <time>2026-02-22T11:08:52Z</time>
      </trkpt>
      <trkpt lat="43.59033" lon="6.40244">
        <ele>631</ele>
        <time>2026-02-22T11:08:53Z</time>
      </trkpt>
      <trkpt lat="43.59032" lon="6.40244">
        <ele>631</ele>
        <time>2026-02-22T11:08:54Z</time>
      </trkpt>
      <trkpt lat="43.59032" lon="6.40245">
        <ele>631.2</ele>
        <time>2026-02-22T11:08:55Z</time>
      </trkpt>
      <trkpt lat="43.59031" lon="6.40246">
        <ele>631.3</ele>
        <time>2026-02-22T11:08:56Z</time>
      </trkpt>
      <trkpt lat="43.5903" lon="6.40247">
        <ele>631.3</ele>
        <time>2026-02-22T11:08:57Z</time>
      </trkpt>
      <trkpt lat="43.5903" lon="6.40248">
        <ele>631.4</ele>
        <time>2026-02-22T11:08:58Z</time>
      </trkpt>
      <trkpt lat="43.59028" lon="6.40248">
        <ele>631.5</ele>
        <time>2026-02-22T11:08:59Z</time>
      </trkpt>
      <trkpt lat="43.59028" lon="6.40249">
        <ele>631.6</ele>
        <time>2026-02-22T11:09:00Z</time>
      </trkpt>
      <trkpt lat="43.59027" lon="6.40249">
        <ele>631.6</ele>
        <time>2026-02-22T11:09:01Z</time>
      </trkpt>
      <trkpt lat="43.59026" lon="6.4025">
        <ele>631.7</ele>
        <time>2026-02-22T11:09:02Z</time>
      </trkpt>
      <trkpt lat="43.59025" lon="6.4025">
        <ele>631.7</ele>
        <time>2026-02-22T11:09:03Z</time>
      </trkpt>
      <trkpt lat="43.59023" lon="6.40251">
        <ele>631.8</ele>
        <time>2026-02-22T11:09:04Z</time>
      </trkpt>
      <trkpt lat="43.59022" lon="6.40252">
        <ele>631.8</ele>
        <time>2026-02-22T11:09:05Z</time>
      </trkpt>
      <trkpt lat="43.59021" lon="6.40253">
        <ele>631.9</ele>
        <time>2026-02-22T11:09:06Z</time>
      </trkpt>
      <trkpt lat="43.5902" lon="6.40254">
        <ele>631.9</ele>
        <time>2026-02-22T11:09:07Z</time>
      </trkpt>
      <trkpt lat="43.59019" lon="6.40255">
        <ele>631.9</ele>
        <time>2026-02-22T11:09:08Z</time>
      </trkpt>
      <trkpt lat="43.59018" lon="6.40256">
        <ele>632</ele>
        <time>2026-02-22T11:09:09Z</time>
      </trkpt>
      <trkpt lat="43.59018" lon="6.40257">
        <ele>632</ele>
        <time>2026-02-22T11:09:10Z</time>
      </trkpt>
      <trkpt lat="43.59017" lon="6.40259">
        <ele>632</ele>
        <time>2026-02-22T11:09:11Z</time>
      </trkpt>
      <trkpt lat="43.59017" lon="6.4026">
        <ele>631.9</ele>
        <time>2026-02-22T11:09:12Z</time>
      </trkpt>
      <trkpt lat="43.59017" lon="6.40262">
        <ele>631.9</ele>
        <time>2026-02-22T11:09:13Z</time>
      </trkpt>
      <trkpt lat="43.59016" lon="6.40263">
        <ele>631.9</ele>
        <time>2026-02-22T11:09:14Z</time>
      </trkpt>
      <trkpt lat="43.59016" lon="6.40265">
        <ele>631.9</ele>
        <time>2026-02-22T11:09:15Z</time>
      </trkpt>
      <trkpt lat="43.59015" lon="6.40267">
        <ele>631.8</ele>
        <time>2026-02-22T11:09:16Z</time>
      </trkpt>
      <trkpt lat="43.59015" lon="6.4027">
        <ele>631.9</ele>
        <time>2026-02-22T11:09:17Z</time>
      </trkpt>
      <trkpt lat="43.59016" lon="6.40271">
        <ele>631.9</ele>
        <time>2026-02-22T11:09:18Z</time>
      </trkpt>
      <trkpt lat="43.59016" lon="6.40272">
        <ele>631.9</ele>
        <time>2026-02-22T11:09:19Z</time>
      </trkpt>
      <trkpt lat="43.59017" lon="6.40274">
        <ele>631.9</ele>
        <time>2026-02-22T11:09:20Z</time>
      </trkpt>
      <trkpt lat="43.59017" lon="6.40275">
        <ele>631.9</ele>
        <time>2026-02-22T11:09:21Z</time>
      </trkpt>
      <trkpt lat="43.59017" lon="6.40276">
        <ele>631.9</ele>
        <time>2026-02-22T11:09:22Z</time>
      </trkpt>
      <trkpt lat="43.59017" lon="6.40277">
        <ele>631.9</ele>
        <time>2026-02-22T11:09:23Z</time>
      </trkpt>
      <trkpt lat="43.59016" lon="6.40278">
        <ele>632</ele>
        <time>2026-02-22T11:09:24Z</time>
      </trkpt>
      <trkpt lat="43.59015" lon="6.40279">
        <ele>631.9</ele>
        <time>2026-02-22T11:09:25Z</time>
      </trkpt>
      <trkpt lat="43.59014" lon="6.4028">
        <ele>631.9</ele>
        <time>2026-02-22T11:09:26Z</time>
      </trkpt>
      <trkpt lat="43.59013" lon="6.40281">
        <ele>631.9</ele>
        <time>2026-02-22T11:09:27Z</time>
      </trkpt>
      <trkpt lat="43.59012" lon="6.40282">
        <ele>631.7</ele>
        <time>2026-02-22T11:09:28Z</time>
      </trkpt>
      <trkpt lat="43.59012" lon="6.40283">
        <ele>631.7</ele>
        <time>2026-02-22T11:09:29Z</time>
      </trkpt>
      <trkpt lat="43.59011" lon="6.40284">
        <ele>631.6</ele>
        <time>2026-02-22T11:09:30Z</time>
      </trkpt>
      <trkpt lat="43.5901" lon="6.40286">
        <ele>631.6</ele>
        <time>2026-02-22T11:09:31Z</time>
      </trkpt>
      <trkpt lat="43.59009" lon="6.40287">
        <ele>631.6</ele>
        <time>2026-02-22T11:09:32Z</time>
      </trkpt>
      <trkpt lat="43.59009" lon="6.40289">
        <ele>631.6</ele>
        <time>2026-02-22T11:09:33Z</time>
      </trkpt>
      <trkpt lat="43.59008" lon="6.4029">
        <ele>631.6</ele>
        <time>2026-02-22T11:09:34Z</time>
      </trkpt>
      <trkpt lat="43.59008" lon="6.40292">
        <ele>631.5</ele>
        <time>2026-02-22T11:09:35Z</time>
      </trkpt>
      <trkpt lat="43.59007" lon="6.40293">
        <ele>631.5</ele>
        <time>2026-02-22T11:09:36Z</time>
      </trkpt>
      <trkpt lat="43.59007" lon="6.40294">
        <ele>631.6</ele>
        <time>2026-02-22T11:09:37Z</time>
      </trkpt>
      <trkpt lat="43.59007" lon="6.40294">
        <ele>631.6</ele>
        <time>2026-02-22T11:09:38Z</time>
      </trkpt>
      <trkpt lat="43.59006" lon="6.40295">
        <ele>631.6</ele>
        <time>2026-02-22T11:09:39Z</time>
      </trkpt>
      <trkpt lat="43.59005" lon="6.40296">
        <ele>631.6</ele>
        <time>2026-02-22T11:09:40Z</time>
      </trkpt>
      <trkpt lat="43.59004" lon="6.40297">
        <ele>631.5</ele>
        <time>2026-02-22T11:09:41Z</time>
      </trkpt>
      <trkpt lat="43.59003" lon="6.40298">
        <ele>631.5</ele>
        <time>2026-02-22T11:09:42Z</time>
      </trkpt>
      <trkpt lat="43.59002" lon="6.40299">
        <ele>631.5</ele>
        <time>2026-02-22T11:09:43Z</time>
      </trkpt>
      <trkpt lat="43.59001" lon="6.403">
        <ele>631.4</ele>
        <time>2026-02-22T11:09:44Z</time>
      </trkpt>
      <trkpt lat="43.59001" lon="6.40301">
        <ele>631.4</ele>
        <time>2026-02-22T11:09:45Z</time>
      </trkpt>
      <trkpt lat="43.58999" lon="6.40301">
        <ele>631.3</ele>
        <time>2026-02-22T11:09:46Z</time>
      </trkpt>
      <trkpt lat="43.58999" lon="6.40303">
        <ele>631.2</ele>
        <time>2026-02-22T11:09:47Z</time>
      </trkpt>
      <trkpt lat="43.58998" lon="6.40304">
        <ele>631.1</ele>
        <time>2026-02-22T11:09:48Z</time>
      </trkpt>
      <trkpt lat="43.58997" lon="6.40305">
        <ele>631</ele>
        <time>2026-02-22T11:09:49Z</time>
      </trkpt>
      <trkpt lat="43.58996" lon="6.40306">
        <ele>631</ele>
        <time>2026-02-22T11:09:50Z</time>
      </trkpt>
      <trkpt lat="43.58995" lon="6.40308">
        <ele>631.1</ele>
        <time>2026-02-22T11:09:51Z</time>
      </trkpt>
      <trkpt lat="43.58995" lon="6.4031">
        <ele>631</ele>
        <time>2026-02-22T11:09:52Z</time>
      </trkpt>
      <trkpt lat="43.58994" lon="6.40311">
        <ele>631.1</ele>
        <time>2026-02-22T11:09:53Z</time>
      </trkpt>
      <trkpt lat="43.58993" lon="6.40313">
        <ele>631</ele>
        <time>2026-02-22T11:09:54Z</time>
      </trkpt>
      <trkpt lat="43.58992" lon="6.40314">
        <ele>631</ele>
        <time>2026-02-22T11:09:55Z</time>
      </trkpt>
      <trkpt lat="43.58992" lon="6.40315">
        <ele>630.8</ele>
        <time>2026-02-22T11:09:56Z</time>
      </trkpt>
      <trkpt lat="43.58992" lon="6.40317">
        <ele>630.8</ele>
        <time>2026-02-22T11:09:57Z</time>
      </trkpt>
      <trkpt lat="43.58992" lon="6.40318">
        <ele>630.7</ele>
        <time>2026-02-22T11:09:58Z</time>
      </trkpt>
      <trkpt lat="43.58991" lon="6.4032">
        <ele>630.6</ele>
        <time>2026-02-22T11:09:59Z</time>
      </trkpt>
      <trkpt lat="43.58991" lon="6.40322">
        <ele>630.5</ele>
        <time>2026-02-22T11:10:00Z</time>
      </trkpt>
      <trkpt lat="43.5899" lon="6.40324">
        <ele>630.5</ele>
        <time>2026-02-22T11:10:01Z</time>
      </trkpt>
      <trkpt lat="43.5899" lon="6.40325">
        <ele>630.4</ele>
        <time>2026-02-22T11:10:02Z</time>
      </trkpt>
      <trkpt lat="43.5899" lon="6.40327">
        <ele>630.3</ele>
        <time>2026-02-22T11:10:03Z</time>
      </trkpt>
      <trkpt lat="43.5899" lon="6.40329">
        <ele>630.2</ele>
        <time>2026-02-22T11:10:04Z</time>
      </trkpt>
      <trkpt lat="43.58991" lon="6.4033">
        <ele>630.2</ele>
        <time>2026-02-22T11:10:05Z</time>
      </trkpt>
      <trkpt lat="43.58991" lon="6.40332">
        <ele>630.1</ele>
        <time>2026-02-22T11:10:06Z</time>
      </trkpt>
      <trkpt lat="43.58991" lon="6.40334">
        <ele>630</ele>
        <time>2026-02-22T11:10:07Z</time>
      </trkpt>
      <trkpt lat="43.58991" lon="6.40335">
        <ele>630</ele>
        <time>2026-02-22T11:10:08Z</time>
      </trkpt>
      <trkpt lat="43.58991" lon="6.40336">
        <ele>629.9</ele>
        <time>2026-02-22T11:10:09Z</time>
      </trkpt>
      <trkpt lat="43.58991" lon="6.40338">
        <ele>629.9</ele>
        <time>2026-02-22T11:10:10Z</time>
      </trkpt>
      <trkpt lat="43.5899" lon="6.40339">
        <ele>629.8</ele>
        <time>2026-02-22T11:10:11Z</time>
      </trkpt>
      <trkpt lat="43.5899" lon="6.4034">
        <ele>629.7</ele>
        <time>2026-02-22T11:10:12Z</time>
      </trkpt>
      <trkpt lat="43.5899" lon="6.40342">
        <ele>629.7</ele>
        <time>2026-02-22T11:10:13Z</time>
      </trkpt>
      <trkpt lat="43.58989" lon="6.40343">
        <ele>629.6</ele>
        <time>2026-02-22T11:10:14Z</time>
      </trkpt>
      <trkpt lat="43.58988" lon="6.40344">
        <ele>629.5</ele>
        <time>2026-02-22T11:10:15Z</time>
      </trkpt>
      <trkpt lat="43.58988" lon="6.40345">
        <ele>629.5</ele>
        <time>2026-02-22T11:10:16Z</time>
      </trkpt>
      <trkpt lat="43.58987" lon="6.40346">
        <ele>629.5</ele>
        <time>2026-02-22T11:10:17Z</time>
      </trkpt>
      <trkpt lat="43.58986" lon="6.40348">
        <ele>629.5</ele>
        <time>2026-02-22T11:10:18Z</time>
      </trkpt>
      <trkpt lat="43.58985" lon="6.40349">
        <ele>629.5</ele>
        <time>2026-02-22T11:10:19Z</time>
      </trkpt>
      <trkpt lat="43.58985" lon="6.40351">
        <ele>629.6</ele>
        <time>2026-02-22T11:10:20Z</time>
      </trkpt>
      <trkpt lat="43.58985" lon="6.40352">
        <ele>629.6</ele>
        <time>2026-02-22T11:10:21Z</time>
      </trkpt>
      <trkpt lat="43.58984" lon="6.40353">
        <ele>629.5</ele>
        <time>2026-02-22T11:10:22Z</time>
      </trkpt>
      <trkpt lat="43.58984" lon="6.40354">
        <ele>629.5</ele>
        <time>2026-02-22T11:10:23Z</time>
      </trkpt>
      <trkpt lat="43.58983" lon="6.40355">
        <ele>629.5</ele>
        <time>2026-02-22T11:10:24Z</time>
      </trkpt>
      <trkpt lat="43.58982" lon="6.40356">
        <ele>629.5</ele>
        <time>2026-02-22T11:10:25Z</time>
      </trkpt>
      <trkpt lat="43.58981" lon="6.40358">
        <ele>629.5</ele>
        <time>2026-02-22T11:10:26Z</time>
      </trkpt>
      <trkpt lat="43.58981" lon="6.40359">
        <ele>629.5</ele>
        <time>2026-02-22T11:10:27Z</time>
      </trkpt>
      <trkpt lat="43.5898" lon="6.40361">
        <ele>629.4</ele>
        <time>2026-02-22T11:10:28Z</time>
      </trkpt>
      <trkpt lat="43.5898" lon="6.40362">
        <ele>629.4</ele>
        <time>2026-02-22T11:10:29Z</time>
      </trkpt>
      <trkpt lat="43.58979" lon="6.40364">
        <ele>629.3</ele>
        <time>2026-02-22T11:10:30Z</time>
      </trkpt>
      <trkpt lat="43.58979" lon="6.40364">
        <ele>629.3</ele>
        <time>2026-02-22T11:10:31Z</time>
      </trkpt>
      <trkpt lat="43.58978" lon="6.40366">
        <ele>629.3</ele>
        <time>2026-02-22T11:10:32Z</time>
      </trkpt>
      <trkpt lat="43.58977" lon="6.40367">
        <ele>629.3</ele>
        <time>2026-02-22T11:10:33Z</time>
      </trkpt>
      <trkpt lat="43.58977" lon="6.40368">
        <ele>629.4</ele>
        <time>2026-02-22T11:10:34Z</time>
      </trkpt>
      <trkpt lat="43.58976" lon="6.40368">
        <ele>629.4</ele>
        <time>2026-02-22T11:10:35Z</time>
      </trkpt>
      <trkpt lat="43.58975" lon="6.40368">
        <ele>629.4</ele>
        <time>2026-02-22T11:10:36Z</time>
      </trkpt>
      <trkpt lat="43.58974" lon="6.4037">
        <ele>629.2</ele>
        <time>2026-02-22T11:10:37Z</time>
      </trkpt>
      <trkpt lat="43.58973" lon="6.40371">
        <ele>629.1</ele>
        <time>2026-02-22T11:10:38Z</time>
      </trkpt>
      <trkpt lat="43.58972" lon="6.40372">
        <ele>629.1</ele>
        <time>2026-02-22T11:10:39Z</time>
      </trkpt>
      <trkpt lat="43.58971" lon="6.40374">
        <ele>629.1</ele>
        <time>2026-02-22T11:10:40Z</time>
      </trkpt>
      <trkpt lat="43.5897" lon="6.40376">
        <ele>629.2</ele>
        <time>2026-02-22T11:10:41Z</time>
      </trkpt>
      <trkpt lat="43.5897" lon="6.40377">
        <ele>629.2</ele>
        <time>2026-02-22T11:10:42Z</time>
      </trkpt>
      <trkpt lat="43.58969" lon="6.40378">
        <ele>629.1</ele>
        <time>2026-02-22T11:10:43Z</time>
      </trkpt>
      <trkpt lat="43.58969" lon="6.40379">
        <ele>629.1</ele>
        <time>2026-02-22T11:10:44Z</time>
      </trkpt>
      <trkpt lat="43.58968" lon="6.4038">
        <ele>629</ele>
        <time>2026-02-22T11:10:45Z</time>
      </trkpt>
      <trkpt lat="43.58968" lon="6.40381">
        <ele>629</ele>
        <time>2026-02-22T11:10:46Z</time>
      </trkpt>
      <trkpt lat="43.58968" lon="6.40381">
        <ele>629</ele>
        <time>2026-02-22T11:10:47Z</time>
      </trkpt>
      <trkpt lat="43.58967" lon="6.40382">
        <ele>629</ele>
        <time>2026-02-22T11:10:48Z</time>
      </trkpt>
      <trkpt lat="43.58966" lon="6.40383">
        <ele>629.1</ele>
        <time>2026-02-22T11:10:49Z</time>
      </trkpt>
      <trkpt lat="43.58966" lon="6.40384">
        <ele>629.1</ele>
        <time>2026-02-22T11:10:50Z</time>
      </trkpt>
      <trkpt lat="43.58965" lon="6.40386">
        <ele>629.1</ele>
        <time>2026-02-22T11:10:51Z</time>
      </trkpt>
      <trkpt lat="43.58964" lon="6.40387">
        <ele>629.1</ele>
        <time>2026-02-22T11:10:52Z</time>
      </trkpt>
      <trkpt lat="43.58964" lon="6.40388">
        <ele>629.1</ele>
        <time>2026-02-22T11:10:53Z</time>
      </trkpt>
      <trkpt lat="43.58963" lon="6.4039">
        <ele>629</ele>
        <time>2026-02-22T11:10:54Z</time>
      </trkpt>
      <trkpt lat="43.58962" lon="6.4039">
        <ele>628.9</ele>
        <time>2026-02-22T11:10:55Z</time>
      </trkpt>
      <trkpt lat="43.58961" lon="6.40391">
        <ele>628.8</ele>
        <time>2026-02-22T11:10:56Z</time>
      </trkpt>
      <trkpt lat="43.58961" lon="6.40392">
        <ele>628.9</ele>
        <time>2026-02-22T11:10:57Z</time>
      </trkpt>
      <trkpt lat="43.5896" lon="6.40393">
        <ele>628.8</ele>
        <time>2026-02-22T11:10:58Z</time>
      </trkpt>
      <trkpt lat="43.58959" lon="6.40394">
        <ele>628.8</ele>
        <time>2026-02-22T11:10:59Z</time>
      </trkpt>
      <trkpt lat="43.58958" lon="6.40395">
        <ele>628.8</ele>
        <time>2026-02-22T11:11:00Z</time>
      </trkpt>
      <trkpt lat="43.58957" lon="6.40396">
        <ele>628.8</ele>
        <time>2026-02-22T11:11:01Z</time>
      </trkpt>
      <trkpt lat="43.58957" lon="6.40396">
        <ele>628.7</ele>
        <time>2026-02-22T11:11:02Z</time>
      </trkpt>
      <trkpt lat="43.58956" lon="6.40397">
        <ele>628.6</ele>
        <time>2026-02-22T11:11:03Z</time>
      </trkpt>
      <trkpt lat="43.58955" lon="6.40398">
        <ele>628.5</ele>
        <time>2026-02-22T11:11:04Z</time>
      </trkpt>
      <trkpt lat="43.58955" lon="6.40399">
        <ele>628.4</ele>
        <time>2026-02-22T11:11:05Z</time>
      </trkpt>
      <trkpt lat="43.58955" lon="6.404">
        <ele>628.3</ele>
        <time>2026-02-22T11:11:06Z</time>
      </trkpt>
      <trkpt lat="43.58954" lon="6.40401">
        <ele>628.2</ele>
        <time>2026-02-22T11:11:07Z</time>
      </trkpt>
      <trkpt lat="43.58953" lon="6.40402">
        <ele>628.2</ele>
        <time>2026-02-22T11:11:08Z</time>
      </trkpt>
      <trkpt lat="43.58953" lon="6.40403">
        <ele>628.2</ele>
        <time>2026-02-22T11:11:09Z</time>
      </trkpt>
      <trkpt lat="43.58952" lon="6.40404">
        <ele>628.2</ele>
        <time>2026-02-22T11:11:10Z</time>
      </trkpt>
      <trkpt lat="43.58951" lon="6.40404">
        <ele>628.2</ele>
        <time>2026-02-22T11:11:11Z</time>
      </trkpt>
      <trkpt lat="43.5895" lon="6.40405">
        <ele>628.2</ele>
        <time>2026-02-22T11:11:12Z</time>
      </trkpt>
      <trkpt lat="43.58949" lon="6.40406">
        <ele>628.2</ele>
        <time>2026-02-22T11:11:13Z</time>
      </trkpt>
      <trkpt lat="43.58948" lon="6.40407">
        <ele>628.2</ele>
        <time>2026-02-22T11:11:14Z</time>
      </trkpt>
      <trkpt lat="43.58947" lon="6.40408">
        <ele>628.1</ele>
        <time>2026-02-22T11:11:15Z</time>
      </trkpt>
      <trkpt lat="43.58946" lon="6.40409">
        <ele>628.1</ele>
        <time>2026-02-22T11:11:16Z</time>
      </trkpt>
      <trkpt lat="43.58945" lon="6.4041">
        <ele>628.1</ele>
        <time>2026-02-22T11:11:17Z</time>
      </trkpt>
      <trkpt lat="43.58944" lon="6.40411">
        <ele>628.1</ele>
        <time>2026-02-22T11:11:18Z</time>
      </trkpt>
      <trkpt lat="43.58943" lon="6.40412">
        <ele>628</ele>
        <time>2026-02-22T11:11:19Z</time>
      </trkpt>
      <trkpt lat="43.58943" lon="6.40413">
        <ele>628</ele>
        <time>2026-02-22T11:11:20Z</time>
      </trkpt>
      <trkpt lat="43.58942" lon="6.40414">
        <ele>627.9</ele>
        <time>2026-02-22T11:11:21Z</time>
      </trkpt>
      <trkpt lat="43.58941" lon="6.40416">
        <ele>627.8</ele>
        <time>2026-02-22T11:11:22Z</time>
      </trkpt>
      <trkpt lat="43.5894" lon="6.40417">
        <ele>627.9</ele>
        <time>2026-02-22T11:11:23Z</time>
      </trkpt>
      <trkpt lat="43.58939" lon="6.40419">
        <ele>627.8</ele>
        <time>2026-02-22T11:11:24Z</time>
      </trkpt>
      <trkpt lat="43.58939" lon="6.40421">
        <ele>627.8</ele>
        <time>2026-02-22T11:11:25Z</time>
      </trkpt>
      <trkpt lat="43.58939" lon="6.40423">
        <ele>627.8</ele>
        <time>2026-02-22T11:11:26Z</time>
      </trkpt>
      <trkpt lat="43.58939" lon="6.40424">
        <ele>627.9</ele>
        <time>2026-02-22T11:11:27Z</time>
      </trkpt>
      <trkpt lat="43.58938" lon="6.40425">
        <ele>627.9</ele>
        <time>2026-02-22T11:11:28Z</time>
      </trkpt>
      <trkpt lat="43.58938" lon="6.40426">
        <ele>627.9</ele>
        <time>2026-02-22T11:11:29Z</time>
      </trkpt>
      <trkpt lat="43.58937" lon="6.40428">
        <ele>627.8</ele>
        <time>2026-02-22T11:11:30Z</time>
      </trkpt>
      <trkpt lat="43.58936" lon="6.40429">
        <ele>627.8</ele>
        <time>2026-02-22T11:11:31Z</time>
      </trkpt>
      <trkpt lat="43.58935" lon="6.4043">
        <ele>627.8</ele>
        <time>2026-02-22T11:11:32Z</time>
      </trkpt>
      <trkpt lat="43.58934" lon="6.40431">
        <ele>627.7</ele>
        <time>2026-02-22T11:11:33Z</time>
      </trkpt>
      <trkpt lat="43.58934" lon="6.40433">
        <ele>627.7</ele>
        <time>2026-02-22T11:11:34Z</time>
      </trkpt>
      <trkpt lat="43.58934" lon="6.40435">
        <ele>627.6</ele>
        <time>2026-02-22T11:11:35Z</time>
      </trkpt>
      <trkpt lat="43.58933" lon="6.40437">
        <ele>627.5</ele>
        <time>2026-02-22T11:11:36Z</time>
      </trkpt>
      <trkpt lat="43.58933" lon="6.40438">
        <ele>627.5</ele>
        <time>2026-02-22T11:11:37Z</time>
      </trkpt>
      <trkpt lat="43.58932" lon="6.40439">
        <ele>627.4</ele>
        <time>2026-02-22T11:11:38Z</time>
      </trkpt>
      <trkpt lat="43.58932" lon="6.4044">
        <ele>627.3</ele>
        <time>2026-02-22T11:11:39Z</time>
      </trkpt>
      <trkpt lat="43.58932" lon="6.40441">
        <ele>627.3</ele>
        <time>2026-02-22T11:11:40Z</time>
      </trkpt>
      <trkpt lat="43.58931" lon="6.40442">
        <ele>627.3</ele>
        <time>2026-02-22T11:11:41Z</time>
      </trkpt>
      <trkpt lat="43.58931" lon="6.40443">
        <ele>627.3</ele>
        <time>2026-02-22T11:11:42Z</time>
      </trkpt>
      <trkpt lat="43.5893" lon="6.40444">
        <ele>627.3</ele>
        <time>2026-02-22T11:11:43Z</time>
      </trkpt>
      <trkpt lat="43.5893" lon="6.40445">
        <ele>627.4</ele>
        <time>2026-02-22T11:11:44Z</time>
      </trkpt>
      <trkpt lat="43.58929" lon="6.40447">
        <ele>627.3</ele>
        <time>2026-02-22T11:11:45Z</time>
      </trkpt>
      <trkpt lat="43.58928" lon="6.40447">
        <ele>627.2</ele>
        <time>2026-02-22T11:11:46Z</time>
      </trkpt>
      <trkpt lat="43.58927" lon="6.40448">
        <ele>627.3</ele>
        <time>2026-02-22T11:11:47Z</time>
      </trkpt>
      <trkpt lat="43.58926" lon="6.4045">
        <ele>627.4</ele>
        <time>2026-02-22T11:11:48Z</time>
      </trkpt>
      <trkpt lat="43.58925" lon="6.40451">
        <ele>627.3</ele>
        <time>2026-02-22T11:11:49Z</time>
      </trkpt>
      <trkpt lat="43.58925" lon="6.40452">
        <ele>627.3</ele>
        <time>2026-02-22T11:11:50Z</time>
      </trkpt>
      <trkpt lat="43.58924" lon="6.40454">
        <ele>627.3</ele>
        <time>2026-02-22T11:11:51Z</time>
      </trkpt>
      <trkpt lat="43.58924" lon="6.40455">
        <ele>627.2</ele>
        <time>2026-02-22T11:11:52Z</time>
      </trkpt>
      <trkpt lat="43.58923" lon="6.40457">
        <ele>627.2</ele>
        <time>2026-02-22T11:11:53Z</time>
      </trkpt>
      <trkpt lat="43.58922" lon="6.40458">
        <ele>627.2</ele>
        <time>2026-02-22T11:11:54Z</time>
      </trkpt>
      <trkpt lat="43.58922" lon="6.40459">
        <ele>627.2</ele>
        <time>2026-02-22T11:11:55Z</time>
      </trkpt>
      <trkpt lat="43.58921" lon="6.40461">
        <ele>627.2</ele>
        <time>2026-02-22T11:11:56Z</time>
      </trkpt>
      <trkpt lat="43.58921" lon="6.40462">
        <ele>627.1</ele>
        <time>2026-02-22T11:11:57Z</time>
      </trkpt>
      <trkpt lat="43.58921" lon="6.40464">
        <ele>627</ele>
        <time>2026-02-22T11:11:58Z</time>
      </trkpt>
      <trkpt lat="43.58921" lon="6.40465">
        <ele>627</ele>
        <time>2026-02-22T11:11:59Z</time>
      </trkpt>
      <trkpt lat="43.5892" lon="6.40466">
        <ele>627</ele>
        <time>2026-02-22T11:12:00Z</time>
      </trkpt>
      <trkpt lat="43.5892" lon="6.40468">
        <ele>627</ele>
        <time>2026-02-22T11:12:01Z</time>
      </trkpt>
      <trkpt lat="43.58919" lon="6.40469">
        <ele>627</ele>
        <time>2026-02-22T11:12:02Z</time>
      </trkpt>
      <trkpt lat="43.58918" lon="6.4047">
        <ele>626.9</ele>
        <time>2026-02-22T11:12:03Z</time>
      </trkpt>
      <trkpt lat="43.58917" lon="6.40471">
        <ele>626.9</ele>
        <time>2026-02-22T11:12:04Z</time>
      </trkpt>
      <trkpt lat="43.58916" lon="6.40471">
        <ele>626.8</ele>
        <time>2026-02-22T11:12:05Z</time>
      </trkpt>
      <trkpt lat="43.58915" lon="6.40472">
        <ele>626.8</ele>
        <time>2026-02-22T11:12:06Z</time>
      </trkpt>
      <trkpt lat="43.58915" lon="6.40473">
        <ele>626.8</ele>
        <time>2026-02-22T11:12:07Z</time>
      </trkpt>
      <trkpt lat="43.58914" lon="6.40473">
        <ele>626.8</ele>
        <time>2026-02-22T11:12:08Z</time>
      </trkpt>
      <trkpt lat="43.58913" lon="6.40474">
        <ele>626.8</ele>
        <time>2026-02-22T11:12:09Z</time>
      </trkpt>
      <trkpt lat="43.58912" lon="6.40475">
        <ele>626.7</ele>
        <time>2026-02-22T11:12:10Z</time>
      </trkpt>
      <trkpt lat="43.58912" lon="6.40476">
        <ele>626.7</ele>
        <time>2026-02-22T11:12:11Z</time>
      </trkpt>
      <trkpt lat="43.58911" lon="6.40477">
        <ele>626.7</ele>
        <time>2026-02-22T11:12:12Z</time>
      </trkpt>
      <trkpt lat="43.5891" lon="6.40478">
        <ele>626.7</ele>
        <time>2026-02-22T11:12:13Z</time>
      </trkpt>
      <trkpt lat="43.5891" lon="6.40478">
        <ele>626.7</ele>
        <time>2026-02-22T11:12:14Z</time>
      </trkpt>
      <trkpt lat="43.58909" lon="6.40479">
        <ele>626.8</ele>
        <time>2026-02-22T11:12:15Z</time>
      </trkpt>
      <trkpt lat="43.58907" lon="6.4048">
        <ele>626.9</ele>
        <time>2026-02-22T11:12:16Z</time>
      </trkpt>
      <trkpt lat="43.58906" lon="6.4048">
        <ele>626.9</ele>
        <time>2026-02-22T11:12:17Z</time>
      </trkpt>
      <trkpt lat="43.58905" lon="6.40481">
        <ele>627</ele>
        <time>2026-02-22T11:12:18Z</time>
      </trkpt>
      <trkpt lat="43.58905" lon="6.40482">
        <ele>627</ele>
        <time>2026-02-22T11:12:19Z</time>
      </trkpt>
      <trkpt lat="43.58904" lon="6.40483">
        <ele>627</ele>
        <time>2026-02-22T11:12:20Z</time>
      </trkpt>
      <trkpt lat="43.58904" lon="6.40485">
        <ele>627</ele>
        <time>2026-02-22T11:12:21Z</time>
      </trkpt>
      <trkpt lat="43.58903" lon="6.40486">
        <ele>627</ele>
        <time>2026-02-22T11:12:22Z</time>
      </trkpt>
      <trkpt lat="43.58902" lon="6.40488">
        <ele>627</ele>
        <time>2026-02-22T11:12:23Z</time>
      </trkpt>
      <trkpt lat="43.58902" lon="6.4049">
        <ele>627</ele>
        <time>2026-02-22T11:12:24Z</time>
      </trkpt>
      <trkpt lat="43.58901" lon="6.40491">
        <ele>627</ele>
        <time>2026-02-22T11:12:25Z</time>
      </trkpt>
      <trkpt lat="43.589" lon="6.40492">
        <ele>626.9</ele>
        <time>2026-02-22T11:12:26Z</time>
      </trkpt>
      <trkpt lat="43.58899" lon="6.40493">
        <ele>627</ele>
        <time>2026-02-22T11:12:27Z</time>
      </trkpt>
      <trkpt lat="43.58898" lon="6.40494">
        <ele>627.1</ele>
        <time>2026-02-22T11:12:28Z</time>
      </trkpt>
      <trkpt lat="43.58897" lon="6.40495">
        <ele>627.1</ele>
        <time>2026-02-22T11:12:29Z</time>
      </trkpt>
      <trkpt lat="43.58896" lon="6.40496">
        <ele>627.1</ele>
        <time>2026-02-22T11:12:30Z</time>
      </trkpt>
      <trkpt lat="43.58895" lon="6.40497">
        <ele>627</ele>
        <time>2026-02-22T11:12:31Z</time>
      </trkpt>
      <trkpt lat="43.58894" lon="6.40497">
        <ele>627</ele>
        <time>2026-02-22T11:12:32Z</time>
      </trkpt>
      <trkpt lat="43.58893" lon="6.40498">
        <ele>626.9</ele>
        <time>2026-02-22T11:12:33Z</time>
      </trkpt>
      <trkpt lat="43.58892" lon="6.40499">
        <ele>626.9</ele>
        <time>2026-02-22T11:12:34Z</time>
      </trkpt>
      <trkpt lat="43.5889" lon="6.40499">
        <ele>627</ele>
        <time>2026-02-22T11:12:35Z</time>
      </trkpt>
      <trkpt lat="43.58889" lon="6.405">
        <ele>627</ele>
        <time>2026-02-22T11:12:36Z</time>
      </trkpt>
      <trkpt lat="43.58888" lon="6.40501">
        <ele>627</ele>
        <time>2026-02-22T11:12:37Z</time>
      </trkpt>
      <trkpt lat="43.58887" lon="6.40501">
        <ele>627.1</ele>
        <time>2026-02-22T11:12:38Z</time>
      </trkpt>
      <trkpt lat="43.58886" lon="6.40501">
        <ele>627.1</ele>
        <time>2026-02-22T11:12:39Z</time>
      </trkpt>
      <trkpt lat="43.58885" lon="6.40502">
        <ele>627</ele>
        <time>2026-02-22T11:12:40Z</time>
      </trkpt>
      <trkpt lat="43.58884" lon="6.40502">
        <ele>627</ele>
        <time>2026-02-22T11:12:41Z</time>
      </trkpt>
      <trkpt lat="43.58882" lon="6.40502">
        <ele>627.2</ele>
        <time>2026-02-22T11:12:42Z</time>
      </trkpt>
      <trkpt lat="43.58882" lon="6.40504">
        <ele>627.3</ele>
        <time>2026-02-22T11:12:43Z</time>
      </trkpt>
      <trkpt lat="43.58881" lon="6.40504">
        <ele>627.3</ele>
        <time>2026-02-22T11:12:44Z</time>
      </trkpt>
      <trkpt lat="43.58879" lon="6.40506">
        <ele>627.4</ele>
        <time>2026-02-22T11:12:45Z</time>
      </trkpt>
      <trkpt lat="43.58878" lon="6.40508">
        <ele>627.5</ele>
        <time>2026-02-22T11:12:46Z</time>
      </trkpt>
      <trkpt lat="43.58877" lon="6.40508">
        <ele>627.5</ele>
        <time>2026-02-22T11:12:47Z</time>
      </trkpt>
      <trkpt lat="43.58876" lon="6.40509">
        <ele>627.6</ele>
        <time>2026-02-22T11:12:48Z</time>
      </trkpt>
      <trkpt lat="43.58875" lon="6.40509">
        <ele>627.6</ele>
        <time>2026-02-22T11:12:49Z</time>
      </trkpt>
      <trkpt lat="43.58874" lon="6.4051">
        <ele>627.7</ele>
        <time>2026-02-22T11:12:50Z</time>
      </trkpt>
      <trkpt lat="43.58872" lon="6.4051">
        <ele>627.8</ele>
        <time>2026-02-22T11:12:51Z</time>
      </trkpt>
      <trkpt lat="43.58871" lon="6.4051">
        <ele>627.8</ele>
        <time>2026-02-22T11:12:52Z</time>
      </trkpt>
      <trkpt lat="43.5887" lon="6.40511">
        <ele>627.8</ele>
        <time>2026-02-22T11:12:53Z</time>
      </trkpt>
      <trkpt lat="43.58869" lon="6.40512">
        <ele>627.8</ele>
        <time>2026-02-22T11:12:54Z</time>
      </trkpt>
      <trkpt lat="43.58868" lon="6.40513">
        <ele>627.8</ele>
        <time>2026-02-22T11:12:55Z</time>
      </trkpt>
      <trkpt lat="43.58868" lon="6.40513">
        <ele>627.8</ele>
        <time>2026-02-22T11:12:56Z</time>
      </trkpt>
      <trkpt lat="43.58867" lon="6.40513">
        <ele>627.8</ele>
        <time>2026-02-22T11:12:57Z</time>
      </trkpt>
      <trkpt lat="43.58866" lon="6.40514">
        <ele>627.9</ele>
        <time>2026-02-22T11:12:58Z</time>
      </trkpt>
      <trkpt lat="43.58865" lon="6.40514">
        <ele>627.9</ele>
        <time>2026-02-22T11:12:59Z</time>
      </trkpt>
      <trkpt lat="43.58863" lon="6.40514">
        <ele>627.9</ele>
        <time>2026-02-22T11:13:00Z</time>
      </trkpt>
      <trkpt lat="43.58862" lon="6.40514">
        <ele>627.9</ele>
        <time>2026-02-22T11:13:01Z</time>
      </trkpt>
      <trkpt lat="43.58861" lon="6.40515">
        <ele>627.9</ele>
        <time>2026-02-22T11:13:02Z</time>
      </trkpt>
      <trkpt lat="43.5886" lon="6.40515">
        <ele>628</ele>
        <time>2026-02-22T11:13:03Z</time>
      </trkpt>
      <trkpt lat="43.58858" lon="6.40515">
        <ele>628.1</ele>
        <time>2026-02-22T11:13:04Z</time>
      </trkpt>
      <trkpt lat="43.58857" lon="6.40515">
        <ele>628.1</ele>
        <time>2026-02-22T11:13:05Z</time>
      </trkpt>
      <trkpt lat="43.58856" lon="6.40514">
        <ele>628.1</ele>
        <time>2026-02-22T11:13:06Z</time>
      </trkpt>
      <trkpt lat="43.58855" lon="6.40514">
        <ele>628.1</ele>
        <time>2026-02-22T11:13:07Z</time>
      </trkpt>
      <trkpt lat="43.58854" lon="6.40514">
        <ele>628.1</ele>
        <time>2026-02-22T11:13:08Z</time>
      </trkpt>
      <trkpt lat="43.58853" lon="6.40514">
        <ele>628.1</ele>
        <time>2026-02-22T11:13:09Z</time>
      </trkpt>
      <trkpt lat="43.58852" lon="6.40513">
        <ele>628.2</ele>
        <time>2026-02-22T11:13:10Z</time>
      </trkpt>
      <trkpt lat="43.58851" lon="6.40514">
        <ele>628.2</ele>
        <time>2026-02-22T11:13:11Z</time>
      </trkpt>
      <trkpt lat="43.5885" lon="6.40513">
        <ele>628.3</ele>
        <time>2026-02-22T11:13:12Z</time>
      </trkpt>
      <trkpt lat="43.5885" lon="6.40514">
        <ele>628.2</ele>
        <time>2026-02-22T11:13:13Z</time>
      </trkpt>
      <trkpt lat="43.5885" lon="6.40514">
        <ele>628.2</ele>
        <time>2026-02-22T11:13:14Z</time>
      </trkpt>
      <trkpt lat="43.58849" lon="6.40514">
        <ele>628.1</ele>
        <time>2026-02-22T11:13:15Z</time>
      </trkpt>
      <trkpt lat="43.58848" lon="6.40515">
        <ele>628.1</ele>
        <time>2026-02-22T11:13:16Z</time>
      </trkpt>
      <trkpt lat="43.58848" lon="6.40516">
        <ele>628.2</ele>
        <time>2026-02-22T11:13:17Z</time>
      </trkpt>
      <trkpt lat="43.58848" lon="6.40516">
        <ele>628.2</ele>
        <time>2026-02-22T11:13:18Z</time>
      </trkpt>
      <trkpt lat="43.58847" lon="6.40517">
        <ele>628.3</ele>
        <time>2026-02-22T11:13:19Z</time>
      </trkpt>
      <trkpt lat="43.58847" lon="6.40517">
        <ele>628.2</ele>
        <time>2026-02-22T11:13:20Z</time>
      </trkpt>
      <trkpt lat="43.58847" lon="6.40518">
        <ele>628.3</ele>
        <time>2026-02-22T11:13:21Z</time>
      </trkpt>
      <trkpt lat="43.58847" lon="6.40519">
        <ele>628.3</ele>
        <time>2026-02-22T11:13:22Z</time>
      </trkpt>
      <trkpt lat="43.58846" lon="6.40519">
        <ele>628.5</ele>
        <time>2026-02-22T11:13:23Z</time>
      </trkpt>
      <trkpt lat="43.58846" lon="6.40518">
        <ele>628.5</ele>
        <time>2026-02-22T11:13:24Z</time>
      </trkpt>
      <trkpt lat="43.58846" lon="6.40519">
        <ele>628.5</ele>
        <time>2026-02-22T11:13:25Z</time>
      </trkpt>
      <trkpt lat="43.58846" lon="6.40519">
        <ele>628.5</ele>
        <time>2026-02-22T11:13:26Z</time>
      </trkpt>
      <trkpt lat="43.58846" lon="6.40519">
        <ele>628.4</ele>
        <time>2026-02-22T11:13:27Z</time>
      </trkpt>
      <trkpt lat="43.58845" lon="6.40519">
        <ele>628.4</ele>
        <time>2026-02-22T11:13:28Z</time>
      </trkpt>
      <trkpt lat="43.58845" lon="6.40519">
        <ele>628.4</ele>
        <time>2026-02-22T11:13:29Z</time>
      </trkpt>
      <trkpt lat="43.58845" lon="6.40519">
        <ele>628.4</ele>
        <time>2026-02-22T11:13:30Z</time>
      </trkpt>
      <trkpt lat="43.58845" lon="6.40519">
        <ele>628.3</ele>
        <time>2026-02-22T11:13:31Z</time>
      </trkpt>
      <trkpt lat="43.58844" lon="6.40518">
        <ele>628.2</ele>
        <time>2026-02-22T11:13:32Z</time>
      </trkpt>
      <trkpt lat="43.58843" lon="6.40518">
        <ele>628.2</ele>
        <time>2026-02-22T11:13:33Z</time>
      </trkpt>
      <trkpt lat="43.58843" lon="6.40517">
        <ele>628.2</ele>
        <time>2026-02-22T11:13:34Z</time>
      </trkpt>
      <trkpt lat="43.58843" lon="6.40517">
        <ele>628.2</ele>
        <time>2026-02-22T11:13:35Z</time>
      </trkpt>
      <trkpt lat="43.58843" lon="6.40517">
        <ele>628.1</ele>
        <time>2026-02-22T11:13:36Z</time>
      </trkpt>
      <trkpt lat="43.58843" lon="6.40517">
        <ele>628.1</ele>
        <time>2026-02-22T11:13:37Z</time>
      </trkpt>
      <trkpt lat="43.58843" lon="6.40518">
        <ele>628.1</ele>
        <time>2026-02-22T11:13:38Z</time>
      </trkpt>
      <trkpt lat="43.58843" lon="6.40517">
        <ele>628.1</ele>
        <time>2026-02-22T11:13:39Z</time>
      </trkpt>
      <trkpt lat="43.58842" lon="6.40517">
        <ele>628.1</ele>
        <time>2026-02-22T11:13:40Z</time>
      </trkpt>
      <trkpt lat="43.58842" lon="6.40517">
        <ele>628.2</ele>
        <time>2026-02-22T11:13:41Z</time>
      </trkpt>
      <trkpt lat="43.58842" lon="6.40517">
        <ele>628.1</ele>
        <time>2026-02-22T11:13:42Z</time>
      </trkpt>
      <trkpt lat="43.58842" lon="6.40517">
        <ele>628.1</ele>
        <time>2026-02-22T11:13:43Z</time>
      </trkpt>
      <trkpt lat="43.58841" lon="6.40517">
        <ele>628.1</ele>
        <time>2026-02-22T11:13:44Z</time>
      </trkpt>
      <trkpt lat="43.58841" lon="6.40517">
        <ele>628.2</ele>
        <time>2026-02-22T11:13:45Z</time>
      </trkpt>
      <trkpt lat="43.58841" lon="6.40517">
        <ele>628.2</ele>
        <time>2026-02-22T11:13:46Z</time>
      </trkpt>
      <trkpt lat="43.58841" lon="6.40517">
        <ele>628.2</ele>
        <time>2026-02-22T11:13:47Z</time>
      </trkpt>
      <trkpt lat="43.58841" lon="6.40517">
        <ele>628.3</ele>
        <time>2026-02-22T11:13:48Z</time>
      </trkpt>
      <trkpt lat="43.5884" lon="6.40517">
        <ele>628.4</ele>
        <time>2026-02-22T11:13:49Z</time>
      </trkpt>
      <trkpt lat="43.58841" lon="6.40517">
        <ele>628.4</ele>
        <time>2026-02-22T11:13:50Z</time>
      </trkpt>
      <trkpt lat="43.58841" lon="6.40517">
        <ele>628.5</ele>
        <time>2026-02-22T11:13:51Z</time>
      </trkpt>
      <trkpt lat="43.58841" lon="6.40517">
        <ele>628.5</ele>
        <time>2026-02-22T11:13:52Z</time>
      </trkpt>
      <trkpt lat="43.58841" lon="6.40517">
        <ele>628.5</ele>
        <time>2026-02-22T11:13:53Z</time>
      </trkpt>
      <trkpt lat="43.58842" lon="6.40518">
        <ele>628.6</ele>
        <time>2026-02-22T11:13:54Z</time>
      </trkpt>
      <trkpt lat="43.58842" lon="6.40518">
        <ele>628.7</ele>
        <time>2026-02-22T11:13:55Z</time>
      </trkpt>
      <trkpt lat="43.58842" lon="6.40518">
        <ele>628.8</ele>
        <time>2026-02-22T11:13:56Z</time>
      </trkpt>
      <trkpt lat="43.58842" lon="6.40518">
        <ele>628.8</ele>
        <time>2026-02-22T11:13:57Z</time>
      </trkpt>
      <trkpt lat="43.58842" lon="6.40518">
        <ele>628.8</ele>
        <time>2026-02-22T11:13:58Z</time>
      </trkpt>
      <trkpt lat="43.58842" lon="6.40518">
        <ele>628.8</ele>
        <time>2026-02-22T11:13:59Z</time>
      </trkpt>
      <trkpt lat="43.58843" lon="6.40519">
        <ele>628.7</ele>
        <time>2026-02-22T11:14:00Z</time>
      </trkpt>
      <trkpt lat="43.58843" lon="6.40519">
        <ele>628.7</ele>
        <time>2026-02-22T11:14:01Z</time>
      </trkpt>
      <trkpt lat="43.58842" lon="6.40519">
        <ele>628.6</ele>
        <time>2026-02-22T11:14:02Z</time>
      </trkpt>
      <trkpt lat="43.58842" lon="6.40519">
        <ele>628.6</ele>
        <time>2026-02-22T11:14:03Z</time>
      </trkpt>
      <trkpt lat="43.58843" lon="6.40519">
        <ele>628.6</ele>
        <time>2026-02-22T11:14:04Z</time>
      </trkpt>
      <trkpt lat="43.58843" lon="6.40519">
        <ele>628.6</ele>
        <time>2026-02-22T11:14:05Z</time>
      </trkpt>
      <trkpt lat="43.58843" lon="6.40519">
        <ele>628.7</ele>
        <time>2026-02-22T11:14:06Z</time>
      </trkpt>
      <trkpt lat="43.58843" lon="6.40519">
        <ele>628.8</ele>
        <time>2026-02-22T11:14:07Z</time>
      </trkpt>
      <trkpt lat="43.58843" lon="6.40519">
        <ele>628.8</ele>
        <time>2026-02-22T11:14:08Z</time>
      </trkpt>
      <trkpt lat="43.58843" lon="6.40519">
        <ele>628.9</ele>
        <time>2026-02-22T11:14:09Z</time>
      </trkpt>
      <trkpt lat="43.58843" lon="6.40519">
        <ele>628.8</ele>
        <time>2026-02-22T11:14:10Z</time>
      </trkpt>
      <trkpt lat="43.58843" lon="6.40519">
        <ele>628.8</ele>
        <time>2026-02-22T11:14:11Z</time>
      </trkpt>
      <trkpt lat="43.58844" lon="6.40519">
        <ele>628.9</ele>
        <time>2026-02-22T11:14:12Z</time>
      </trkpt>
      <trkpt lat="43.58844" lon="6.40519">
        <ele>628.9</ele>
        <time>2026-02-22T11:14:13Z</time>
      </trkpt>
      <trkpt lat="43.58844" lon="6.40519">
        <ele>628.9</ele>
        <time>2026-02-22T11:14:14Z</time>
      </trkpt>
      <trkpt lat="43.58844" lon="6.40519">
        <ele>628.9</ele>
        <time>2026-02-22T11:14:15Z</time>
      </trkpt>
      <trkpt lat="43.58844" lon="6.40519">
        <ele>628.9</ele>
        <time>2026-02-22T11:14:16Z</time>
      </trkpt>
      <trkpt lat="43.58843" lon="6.40518">
        <ele>628.9</ele>
        <time>2026-02-22T11:14:17Z</time>
      </trkpt>
      <trkpt lat="43.58843" lon="6.40518">
        <ele>628.9</ele>
        <time>2026-02-22T11:14:18Z</time>
      </trkpt>
      <trkpt lat="43.58843" lon="6.40518">
        <ele>629</ele>
        <time>2026-02-22T11:14:19Z</time>
      </trkpt>
      <trkpt lat="43.58842" lon="6.40518">
        <ele>629.1</ele>
        <time>2026-02-22T11:14:20Z</time>
      </trkpt>
      <trkpt lat="43.58842" lon="6.40518">
        <ele>629.1</ele>
        <time>2026-02-22T11:14:21Z</time>
      </trkpt>
      <trkpt lat="43.58842" lon="6.40518">
        <ele>629.1</ele>
        <time>2026-02-22T11:14:22Z</time>
      </trkpt>
      <trkpt lat="43.58842" lon="6.40518">
        <ele>629</ele>
        <time>2026-02-22T11:14:23Z</time>
      </trkpt>
      <trkpt lat="43.58843" lon="6.40518">
        <ele>629</ele>
        <time>2026-02-22T11:14:24Z</time>
      </trkpt>
      <trkpt lat="43.58843" lon="6.40517">
        <ele>629.1</ele>
        <time>2026-02-22T11:14:25Z</time>
      </trkpt>
      <trkpt lat="43.58843" lon="6.40517">
        <ele>629.1</ele>
        <time>2026-02-22T11:14:26Z</time>
      </trkpt>
      <trkpt lat="43.58843" lon="6.40517">
        <ele>629.1</ele>
        <time>2026-02-22T11:14:27Z</time>
      </trkpt>
      <trkpt lat="43.58843" lon="6.40517">
        <ele>629.2</ele>
        <time>2026-02-22T11:14:28Z</time>
      </trkpt>
      <trkpt lat="43.58843" lon="6.40517">
        <ele>629.2</ele>
        <time>2026-02-22T11:14:29Z</time>
      </trkpt>
      <trkpt lat="43.58843" lon="6.40517">
        <ele>629.2</ele>
        <time>2026-02-22T11:14:30Z</time>
      </trkpt>
      <trkpt lat="43.58843" lon="6.40517">
        <ele>629.2</ele>
        <time>2026-02-22T11:14:31Z</time>
      </trkpt>
      <trkpt lat="43.58843" lon="6.40517">
        <ele>629.3</ele>
        <time>2026-02-22T11:14:32Z</time>
      </trkpt>
      <trkpt lat="43.58843" lon="6.40517">
        <ele>629.3</ele>
        <time>2026-02-22T11:14:33Z</time>
      </trkpt>
      <trkpt lat="43.58843" lon="6.40517">
        <ele>629.3</ele>
        <time>2026-02-22T11:14:34Z</time>
      </trkpt>
      <trkpt lat="43.58843" lon="6.40517">
        <ele>629.3</ele>
        <time>2026-02-22T11:14:35Z</time>
      </trkpt>
      <trkpt lat="43.58843" lon="6.40517">
        <ele>629.3</ele>
        <time>2026-02-22T11:14:36Z</time>
      </trkpt>
      <trkpt lat="43.58843" lon="6.40517">
        <ele>629.3</ele>
        <time>2026-02-22T11:14:37Z</time>
      </trkpt>
      <trkpt lat="43.58843" lon="6.40517">
        <ele>629.3</ele>
        <time>2026-02-22T11:14:38Z</time>
      </trkpt>
      <trkpt lat="43.58843" lon="6.40517">
        <ele>629.3</ele>
        <time>2026-02-22T11:14:39Z</time>
      </trkpt>
      <trkpt lat="43.58843" lon="6.40518">
        <ele>629.3</ele>
        <time>2026-02-22T11:14:40Z</time>
      </trkpt>
      <trkpt lat="43.58843" lon="6.40518">
        <ele>629.3</ele>
        <time>2026-02-22T11:14:41Z</time>
      </trkpt>
      <trkpt lat="43.58843" lon="6.40518">
        <ele>629.3</ele>
        <time>2026-02-22T11:14:42Z</time>
      </trkpt>
      <trkpt lat="43.58843" lon="6.40518">
        <ele>629.3</ele>
        <time>2026-02-22T11:14:43Z</time>
      </trkpt>
      <trkpt lat="43.58843" lon="6.40518">
        <ele>629.3</ele>
        <time>2026-02-22T11:14:44Z</time>
      </trkpt>
      <trkpt lat="43.58843" lon="6.40518">
        <ele>629.3</ele>
        <time>2026-02-22T11:14:45Z</time>
      </trkpt>
      <trkpt lat="43.58843" lon="6.40518">
        <ele>629.3</ele>
        <time>2026-02-22T11:14:46Z</time>
      </trkpt>
      <trkpt lat="43.58843" lon="6.40518">
        <ele>629.3</ele>
        <time>2026-02-22T11:14:47Z</time>
      </trkpt>
      <trkpt lat="43.58844" lon="6.40518">
        <ele>629.4</ele>
        <time>2026-02-22T11:14:48Z</time>
      </trkpt>
      <trkpt lat="43.58844" lon="6.40518">
        <ele>629.4</ele>
        <time>2026-02-22T11:14:49Z</time>
      </trkpt>
      <trkpt lat="43.58843" lon="6.40517">
        <ele>629.4</ele>
        <time>2026-02-22T11:14:50Z</time>
      </trkpt>
      <trkpt lat="43.58843" lon="6.40517">
        <ele>629.4</ele>
        <time>2026-02-22T11:14:51Z</time>
      </trkpt>
      <trkpt lat="43.58843" lon="6.40517">
        <ele>629.5</ele>
        <time>2026-02-22T11:14:52Z</time>
      </trkpt>
      <trkpt lat="43.58843" lon="6.40517">
        <ele>629.6</ele>
        <time>2026-02-22T11:14:53Z</time>
      </trkpt>
      <trkpt lat="43.58843" lon="6.40516">
        <ele>629.6</ele>
        <time>2026-02-22T11:14:54Z</time>
      </trkpt>
      <trkpt lat="43.58843" lon="6.40516">
        <ele>629.7</ele>
        <time>2026-02-22T11:14:55Z</time>
      </trkpt>
      <trkpt lat="43.58843" lon="6.40517">
        <ele>629.6</ele>
        <time>2026-02-22T11:14:56Z</time>
      </trkpt>
      <trkpt lat="43.58843" lon="6.40516">
        <ele>629.6</ele>
        <time>2026-02-22T11:14:57Z</time>
      </trkpt>
      <trkpt lat="43.58843" lon="6.40517">
        <ele>629.7</ele>
        <time>2026-02-22T11:14:58Z</time>
      </trkpt>
      <trkpt lat="43.58843" lon="6.40517">
        <ele>629.7</ele>
        <time>2026-02-22T11:14:59Z</time>
      </trkpt>
      <trkpt lat="43.58843" lon="6.40517">
        <ele>629.7</ele>
        <time>2026-02-22T11:15:00Z</time>
      </trkpt>
      <trkpt lat="43.58843" lon="6.40517">
        <ele>629.6</ele>
        <time>2026-02-22T11:15:01Z</time>
      </trkpt>
      <trkpt lat="43.58843" lon="6.40517">
        <ele>629.6</ele>
        <time>2026-02-22T11:15:02Z</time>
      </trkpt>
      <trkpt lat="43.58843" lon="6.40517">
        <ele>629.6</ele>
        <time>2026-02-22T11:15:03Z</time>
      </trkpt>
      <trkpt lat="43.58843" lon="6.40517">
        <ele>629.5</ele>
        <time>2026-02-22T11:15:04Z</time>
      </trkpt>
      <trkpt lat="43.58843" lon="6.40517">
        <ele>629.4</ele>
        <time>2026-02-22T11:15:05Z</time>
      </trkpt>
      <trkpt lat="43.58843" lon="6.40517">
        <ele>629.3</ele>
        <time>2026-02-22T11:15:06Z</time>
      </trkpt>
      <trkpt lat="43.58843" lon="6.40517">
        <ele>629.2</ele>
        <time>2026-02-22T11:15:07Z</time>
      </trkpt>
      <trkpt lat="43.58843" lon="6.40517">
        <ele>629.1</ele>
        <time>2026-02-22T11:15:08Z</time>
      </trkpt>
      <trkpt lat="43.58843" lon="6.40517">
        <ele>629.2</ele>
        <time>2026-02-22T11:15:09Z</time>
      </trkpt>
      <trkpt lat="43.58843" lon="6.40517">
        <ele>629.2</ele>
        <time>2026-02-22T11:15:10Z</time>
      </trkpt>
      <trkpt lat="43.58842" lon="6.40517">
        <ele>629.2</ele>
        <time>2026-02-22T11:15:11Z</time>
      </trkpt>
      <trkpt lat="43.58842" lon="6.40517">
        <ele>629.2</ele>
        <time>2026-02-22T11:15:12Z</time>
      </trkpt>
      <trkpt lat="43.58842" lon="6.40517">
        <ele>629.2</ele>
        <time>2026-02-22T11:15:13Z</time>
      </trkpt>
      <trkpt lat="43.58842" lon="6.40517">
        <ele>629.2</ele>
        <time>2026-02-22T11:15:14Z</time>
      </trkpt>
      <trkpt lat="43.58842" lon="6.40517">
        <ele>629.3</ele>
        <time>2026-02-22T11:15:15Z</time>
      </trkpt>
      <trkpt lat="43.58843" lon="6.40517">
        <ele>629.2</ele>
        <time>2026-02-22T11:15:16Z</time>
      </trkpt>
      <trkpt lat="43.58842" lon="6.40517">
        <ele>629.3</ele>
        <time>2026-02-22T11:15:17Z</time>
      </trkpt>
      <trkpt lat="43.58842" lon="6.40517">
        <ele>629.2</ele>
        <time>2026-02-22T11:15:18Z</time>
      </trkpt>
      <trkpt lat="43.58842" lon="6.40517">
        <ele>629.2</ele>
        <time>2026-02-22T11:15:19Z</time>
      </trkpt>
      <trkpt lat="43.58841" lon="6.40517">
        <ele>629.3</ele>
        <time>2026-02-22T11:15:20Z</time>
      </trkpt>
      <trkpt lat="43.58841" lon="6.40517">
        <ele>629.4</ele>
        <time>2026-02-22T11:15:21Z</time>
      </trkpt>
      <trkpt lat="43.58841" lon="6.40517">
        <ele>629.5</ele>
        <time>2026-02-22T11:15:22Z</time>
      </trkpt>
      <trkpt lat="43.58841" lon="6.40517">
        <ele>629.5</ele>
        <time>2026-02-22T11:15:23Z</time>
      </trkpt>
      <trkpt lat="43.58841" lon="6.40517">
        <ele>629.5</ele>
        <time>2026-02-22T11:15:24Z</time>
      </trkpt>
      <trkpt lat="43.58841" lon="6.40517">
        <ele>629.5</ele>
        <time>2026-02-22T11:15:25Z</time>
      </trkpt>
      <trkpt lat="43.58841" lon="6.40518">
        <ele>629.5</ele>
        <time>2026-02-22T11:15:26Z</time>
      </trkpt>
      <trkpt lat="43.58841" lon="6.40518">
        <ele>629.6</ele>
        <time>2026-02-22T11:15:27Z</time>
      </trkpt>
      <trkpt lat="43.58841" lon="6.40518">
        <ele>629.6</ele>
        <time>2026-02-22T11:15:28Z</time>
      </trkpt>
      <trkpt lat="43.58841" lon="6.40518">
        <ele>629.6</ele>
        <time>2026-02-22T11:15:29Z</time>
      </trkpt>
      <trkpt lat="43.58841" lon="6.40518">
        <ele>629.6</ele>
        <time>2026-02-22T11:15:30Z</time>
      </trkpt>
      <trkpt lat="43.58841" lon="6.40518">
        <ele>629.5</ele>
        <time>2026-02-22T11:15:31Z</time>
      </trkpt>
      <trkpt lat="43.58841" lon="6.40518">
        <ele>629.5</ele>
        <time>2026-02-22T11:15:32Z</time>
      </trkpt>
      <trkpt lat="43.58841" lon="6.40519">
        <ele>629.5</ele>
        <time>2026-02-22T11:15:33Z</time>
      </trkpt>
      <trkpt lat="43.58841" lon="6.40519">
        <ele>629.5</ele>
        <time>2026-02-22T11:15:34Z</time>
      </trkpt>
      <trkpt lat="43.58841" lon="6.40519">
        <ele>629.6</ele>
        <time>2026-02-22T11:15:35Z</time>
      </trkpt>
      <trkpt lat="43.58842" lon="6.40519">
        <ele>629.6</ele>
        <time>2026-02-22T11:15:36Z</time>
      </trkpt>
      <trkpt lat="43.58842" lon="6.40519">
        <ele>629.7</ele>
        <time>2026-02-22T11:15:37Z</time>
      </trkpt>
      <trkpt lat="43.58842" lon="6.40519">
        <ele>629.8</ele>
        <time>2026-02-22T11:15:38Z</time>
      </trkpt>
      <trkpt lat="43.58842" lon="6.40519">
        <ele>629.8</ele>
        <time>2026-02-22T11:15:39Z</time>
      </trkpt>
      <trkpt lat="43.58842" lon="6.40519">
        <ele>629.8</ele>
        <time>2026-02-22T11:15:40Z</time>
      </trkpt>
      <trkpt lat="43.58842" lon="6.40519">
        <ele>629.9</ele>
        <time>2026-02-22T11:15:41Z</time>
      </trkpt>
      <trkpt lat="43.58842" lon="6.40519">
        <ele>630</ele>
        <time>2026-02-22T11:15:42Z</time>
      </trkpt>
      <trkpt lat="43.58842" lon="6.40519">
        <ele>630.1</ele>
        <time>2026-02-22T11:15:43Z</time>
      </trkpt>
      <trkpt lat="43.58842" lon="6.4052">
        <ele>630.1</ele>
        <time>2026-02-22T11:15:44Z</time>
      </trkpt>
      <trkpt lat="43.58842" lon="6.4052">
        <ele>630.2</ele>
        <time>2026-02-22T11:15:45Z</time>
      </trkpt>
      <trkpt lat="43.58842" lon="6.4052">
        <ele>630.2</ele>
        <time>2026-02-22T11:15:46Z</time>
      </trkpt>
      <trkpt lat="43.58842" lon="6.4052">
        <ele>630.2</ele>
        <time>2026-02-22T11:15:47Z</time>
      </trkpt>
      <trkpt lat="43.58841" lon="6.4052">
        <ele>630.2</ele>
        <time>2026-02-22T11:15:48Z</time>
      </trkpt>
      <trkpt lat="43.58841" lon="6.4052">
        <ele>630.2</ele>
        <time>2026-02-22T11:15:49Z</time>
      </trkpt>
      <trkpt lat="43.58841" lon="6.4052">
        <ele>630.2</ele>
        <time>2026-02-22T11:15:50Z</time>
      </trkpt>
      <trkpt lat="43.58841" lon="6.40521">
        <ele>630.2</ele>
        <time>2026-02-22T11:15:51Z</time>
      </trkpt>
      <trkpt lat="43.58841" lon="6.40521">
        <ele>630.2</ele>
        <time>2026-02-22T11:15:52Z</time>
      </trkpt>
      <trkpt lat="43.58841" lon="6.40521">
        <ele>630.1</ele>
        <time>2026-02-22T11:15:53Z</time>
      </trkpt>
      <trkpt lat="43.58841" lon="6.40521">
        <ele>630.1</ele>
        <time>2026-02-22T11:15:54Z</time>
      </trkpt>
      <trkpt lat="43.58841" lon="6.40521">
        <ele>630.1</ele>
        <time>2026-02-22T11:15:55Z</time>
      </trkpt>
      <trkpt lat="43.58841" lon="6.40521">
        <ele>630.2</ele>
        <time>2026-02-22T11:15:56Z</time>
      </trkpt>
      <trkpt lat="43.58841" lon="6.40521">
        <ele>630.2</ele>
        <time>2026-02-22T11:15:57Z</time>
      </trkpt>
      <trkpt lat="43.58841" lon="6.40521">
        <ele>630.3</ele>
        <time>2026-02-22T11:15:58Z</time>
      </trkpt>
      <trkpt lat="43.58841" lon="6.40521">
        <ele>630.3</ele>
        <time>2026-02-22T11:15:59Z</time>
      </trkpt>
      <trkpt lat="43.58841" lon="6.40521">
        <ele>630.3</ele>
        <time>2026-02-22T11:16:00Z</time>
      </trkpt>
      <trkpt lat="43.58842" lon="6.40521">
        <ele>630.3</ele>
        <time>2026-02-22T11:16:01Z</time>
      </trkpt>
      <trkpt lat="43.58842" lon="6.40521">
        <ele>630.3</ele>
        <time>2026-02-22T11:16:02Z</time>
      </trkpt>
      <trkpt lat="43.58842" lon="6.40521">
        <ele>630.3</ele>
        <time>2026-02-22T11:16:03Z</time>
      </trkpt>
      <trkpt lat="43.58842" lon="6.40521">
        <ele>630.4</ele>
        <time>2026-02-22T11:16:04Z</time>
      </trkpt>
      <trkpt lat="43.58842" lon="6.40521">
        <ele>630.4</ele>
        <time>2026-02-22T11:16:05Z</time>
      </trkpt>
      <trkpt lat="43.58842" lon="6.40521">
        <ele>630.4</ele>
        <time>2026-02-22T11:16:06Z</time>
      </trkpt>
      <trkpt lat="43.58842" lon="6.40521">
        <ele>630.5</ele>
        <time>2026-02-22T11:16:07Z</time>
      </trkpt>
      <trkpt lat="43.58842" lon="6.40521">
        <ele>630.4</ele>
        <time>2026-02-22T11:16:08Z</time>
      </trkpt>
      <trkpt lat="43.58842" lon="6.40522">
        <ele>630.4</ele>
        <time>2026-02-22T11:16:09Z</time>
      </trkpt>
      <trkpt lat="43.58842" lon="6.40522">
        <ele>630.5</ele>
        <time>2026-02-22T11:16:10Z</time>
      </trkpt>
      <trkpt lat="43.58842" lon="6.40522">
        <ele>630.5</ele>
        <time>2026-02-22T11:16:11Z</time>
      </trkpt>
      <trkpt lat="43.58842" lon="6.40522">
        <ele>630.4</ele>
        <time>2026-02-22T11:16:12Z</time>
      </trkpt>
      <trkpt lat="43.58842" lon="6.40521">
        <ele>630.3</ele>
        <time>2026-02-22T11:16:13Z</time>
      </trkpt>
      <trkpt lat="43.58842" lon="6.40521">
        <ele>630.2</ele>
        <time>2026-02-22T11:16:14Z</time>
      </trkpt>
      <trkpt lat="43.58842" lon="6.40521">
        <ele>630.2</ele>
        <time>2026-02-22T11:16:15Z</time>
      </trkpt>
      <trkpt lat="43.58842" lon="6.40521">
        <ele>630.1</ele>
        <time>2026-02-22T11:16:16Z</time>
      </trkpt>
      <trkpt lat="43.58842" lon="6.40521">
        <ele>630.1</ele>
        <time>2026-02-22T11:16:17Z</time>
      </trkpt>
      <trkpt lat="43.58842" lon="6.40521">
        <ele>630</ele>
        <time>2026-02-22T11:16:18Z</time>
      </trkpt>
      <trkpt lat="43.58842" lon="6.40521">
        <ele>630</ele>
        <time>2026-02-22T11:16:19Z</time>
      </trkpt>
      <trkpt lat="43.58842" lon="6.40521">
        <ele>630.1</ele>
        <time>2026-02-22T11:16:20Z</time>
      </trkpt>
      <trkpt lat="43.58842" lon="6.40521">
        <ele>630.1</ele>
        <time>2026-02-22T11:16:21Z</time>
      </trkpt>
      <trkpt lat="43.58843" lon="6.40521">
        <ele>630.1</ele>
        <time>2026-02-22T11:16:22Z</time>
      </trkpt>
      <trkpt lat="43.58842" lon="6.40521">
        <ele>630.1</ele>
        <time>2026-02-22T11:16:23Z</time>
      </trkpt>
      <trkpt lat="43.58842" lon="6.40521">
        <ele>630.1</ele>
        <time>2026-02-22T11:16:24Z</time>
      </trkpt>
      <trkpt lat="43.58842" lon="6.40521">
        <ele>630.1</ele>
        <time>2026-02-22T11:16:25Z</time>
      </trkpt>
      <trkpt lat="43.58842" lon="6.40521">
        <ele>630.2</ele>
        <time>2026-02-22T11:16:26Z</time>
      </trkpt>
      <trkpt lat="43.58842" lon="6.40521">
        <ele>630.2</ele>
        <time>2026-02-22T11:16:27Z</time>
      </trkpt>
      <trkpt lat="43.58842" lon="6.40521">
        <ele>630.4</ele>
        <time>2026-02-22T11:16:28Z</time>
      </trkpt>
      <trkpt lat="43.58842" lon="6.40521">
        <ele>630.4</ele>
        <time>2026-02-22T11:16:29Z</time>
      </trkpt>
      <trkpt lat="43.58842" lon="6.40521">
        <ele>630.4</ele>
        <time>2026-02-22T11:16:30Z</time>
      </trkpt>
      <trkpt lat="43.58842" lon="6.40521">
        <ele>630.4</ele>
        <time>2026-02-22T11:16:31Z</time>
      </trkpt>
      <trkpt lat="43.58842" lon="6.40521">
        <ele>630.4</ele>
        <time>2026-02-22T11:16:32Z</time>
      </trkpt>
      <trkpt lat="43.58842" lon="6.40521">
        <ele>630.4</ele>
        <time>2026-02-22T11:16:33Z</time>
      </trkpt>
      <trkpt lat="43.58842" lon="6.40521">
        <ele>630.4</ele>
        <time>2026-02-22T11:16:34Z</time>
      </trkpt>
      <trkpt lat="43.58842" lon="6.40521">
        <ele>630.4</ele>
        <time>2026-02-22T11:16:35Z</time>
      </trkpt>
      <trkpt lat="43.58842" lon="6.40521">
        <ele>630.4</ele>
        <time>2026-02-22T11:16:36Z</time>
      </trkpt>
      <trkpt lat="43.58842" lon="6.40521">
        <ele>630.5</ele>
        <time>2026-02-22T11:16:37Z</time>
      </trkpt>
      <trkpt lat="43.58842" lon="6.40521">
        <ele>630.5</ele>
        <time>2026-02-22T11:16:38Z</time>
      </trkpt>
      <trkpt lat="43.58842" lon="6.40521">
        <ele>630.5</ele>
        <time>2026-02-22T11:16:39Z</time>
      </trkpt>
      <trkpt lat="43.58842" lon="6.40521">
        <ele>630.5</ele>
        <time>2026-02-22T11:16:40Z</time>
      </trkpt>
      <trkpt lat="43.58842" lon="6.40521">
        <ele>630.5</ele>
        <time>2026-02-22T11:16:41Z</time>
      </trkpt>
      <trkpt lat="43.58842" lon="6.40521">
        <ele>630.6</ele>
        <time>2026-02-22T11:16:42Z</time>
      </trkpt>
      <trkpt lat="43.58842" lon="6.40521">
        <ele>630.6</ele>
        <time>2026-02-22T11:16:43Z</time>
      </trkpt>
      <trkpt lat="43.58842" lon="6.40521">
        <ele>630.6</ele>
        <time>2026-02-22T11:16:44Z</time>
      </trkpt>
      <trkpt lat="43.58842" lon="6.40521">
        <ele>630.6</ele>
        <time>2026-02-22T11:16:45Z</time>
      </trkpt>
      <trkpt lat="43.58842" lon="6.40521">
        <ele>630.6</ele>
        <time>2026-02-22T11:16:46Z</time>
      </trkpt>
      <trkpt lat="43.58842" lon="6.40521">
        <ele>630.6</ele>
        <time>2026-02-22T11:16:47Z</time>
      </trkpt>
      <trkpt lat="43.58842" lon="6.4052">
        <ele>630.5</ele>
        <time>2026-02-22T11:16:48Z</time>
      </trkpt>
      <trkpt lat="43.58842" lon="6.4052">
        <ele>630.5</ele>
        <time>2026-02-22T11:16:49Z</time>
      </trkpt>
      <trkpt lat="43.58842" lon="6.4052">
        <ele>630.4</ele>
        <time>2026-02-22T11:16:50Z</time>
      </trkpt>
      <trkpt lat="43.58842" lon="6.4052">
        <ele>630.4</ele>
        <time>2026-02-22T11:16:51Z</time>
      </trkpt>
      <trkpt lat="43.58842" lon="6.4052">
        <ele>630.5</ele>
        <time>2026-02-22T11:16:52Z</time>
      </trkpt>
      <trkpt lat="43.58842" lon="6.4052">
        <ele>630.5</ele>
        <time>2026-02-22T11:16:53Z</time>
      </trkpt>
      <trkpt lat="43.58842" lon="6.4052">
        <ele>630.5</ele>
        <time>2026-02-22T11:16:54Z</time>
      </trkpt>
      <trkpt lat="43.58842" lon="6.40521">
        <ele>630.6</ele>
        <time>2026-02-22T11:16:55Z</time>
      </trkpt>
      <trkpt lat="43.58842" lon="6.40521">
        <ele>630.6</ele>
        <time>2026-02-22T11:16:56Z</time>
      </trkpt>
      <trkpt lat="43.58842" lon="6.40521">
        <ele>630.7</ele>
        <time>2026-02-22T11:16:57Z</time>
      </trkpt>
      <trkpt lat="43.58842" lon="6.4052">
        <ele>630.7</ele>
        <time>2026-02-22T11:16:58Z</time>
      </trkpt>
      <trkpt lat="43.58842" lon="6.4052">
        <ele>630.8</ele>
        <time>2026-02-22T11:16:59Z</time>
      </trkpt>
      <trkpt lat="43.58842" lon="6.4052">
        <ele>630.7</ele>
        <time>2026-02-22T11:17:00Z</time>
      </trkpt>
      <trkpt lat="43.58842" lon="6.4052">
        <ele>630.7</ele>
        <time>2026-02-22T11:17:01Z</time>
      </trkpt>
      <trkpt lat="43.58842" lon="6.4052">
        <ele>630.6</ele>
        <time>2026-02-22T11:17:02Z</time>
      </trkpt>
      <trkpt lat="43.58842" lon="6.40519">
        <ele>630.6</ele>
        <time>2026-02-22T11:17:03Z</time>
      </trkpt>
      <trkpt lat="43.58842" lon="6.40519">
        <ele>630.6</ele>
        <time>2026-02-22T11:17:04Z</time>
      </trkpt>
      <trkpt lat="43.58842" lon="6.40519">
        <ele>630.6</ele>
        <time>2026-02-22T11:17:05Z</time>
      </trkpt>
      <trkpt lat="43.58842" lon="6.40519">
        <ele>630.7</ele>
        <time>2026-02-22T11:17:06Z</time>
      </trkpt>
      <trkpt lat="43.58842" lon="6.40519">
        <ele>630.7</ele>
        <time>2026-02-22T11:17:07Z</time>
      </trkpt>
      <trkpt lat="43.58842" lon="6.40519">
        <ele>630.7</ele>
        <time>2026-02-22T11:17:08Z</time>
      </trkpt>
      <trkpt lat="43.58843" lon="6.40519">
        <ele>630.8</ele>
        <time>2026-02-22T11:17:09Z</time>
      </trkpt>
      <trkpt lat="43.58843" lon="6.40519">
        <ele>630.8</ele>
        <time>2026-02-22T11:17:10Z</time>
      </trkpt>
      <trkpt lat="43.58843" lon="6.4052">
        <ele>630.8</ele>
        <time>2026-02-22T11:17:11Z</time>
      </trkpt>
      <trkpt lat="43.58843" lon="6.4052">
        <ele>630.8</ele>
        <time>2026-02-22T11:17:12Z</time>
      </trkpt>
      <trkpt lat="43.58843" lon="6.4052">
        <ele>630.8</ele>
        <time>2026-02-22T11:17:13Z</time>
      </trkpt>
      <trkpt lat="43.58844" lon="6.4052">
        <ele>630.7</ele>
        <time>2026-02-22T11:17:14Z</time>
      </trkpt>
      <trkpt lat="43.58844" lon="6.4052">
        <ele>630.7</ele>
        <time>2026-02-22T11:17:15Z</time>
      </trkpt>
      <trkpt lat="43.58844" lon="6.40521">
        <ele>630.7</ele>
        <time>2026-02-22T11:17:16Z</time>
      </trkpt>
      <trkpt lat="43.58843" lon="6.40521">
        <ele>630.7</ele>
        <time>2026-02-22T11:17:17Z</time>
      </trkpt>
      <trkpt lat="43.58843" lon="6.40521">
        <ele>630.7</ele>
        <time>2026-02-22T11:17:18Z</time>
      </trkpt>
      <trkpt lat="43.58843" lon="6.40521">
        <ele>630.7</ele>
        <time>2026-02-22T11:17:19Z</time>
      </trkpt>
      <trkpt lat="43.58844" lon="6.40522">
        <ele>630.8</ele>
        <time>2026-02-22T11:17:20Z</time>
      </trkpt>
      <trkpt lat="43.58843" lon="6.40522">
        <ele>630.7</ele>
        <time>2026-02-22T11:17:21Z</time>
      </trkpt>
      <trkpt lat="43.58843" lon="6.40522">
        <ele>630.9</ele>
        <time>2026-02-22T11:17:22Z</time>
      </trkpt>
      <trkpt lat="43.58844" lon="6.40523">
        <ele>630.9</ele>
        <time>2026-02-22T11:17:23Z</time>
      </trkpt>
      <trkpt lat="43.58843" lon="6.40524">
        <ele>630.9</ele>
        <time>2026-02-22T11:17:24Z</time>
      </trkpt>
      <trkpt lat="43.58843" lon="6.40525">
        <ele>630.6</ele>
        <time>2026-02-22T11:17:25Z</time>
      </trkpt>
      <trkpt lat="43.58843" lon="6.40526">
        <ele>630.7</ele>
        <time>2026-02-22T11:17:26Z</time>
      </trkpt>
      <trkpt lat="43.58843" lon="6.40527">
        <ele>630.6</ele>
        <time>2026-02-22T11:17:27Z</time>
      </trkpt>
      <trkpt lat="43.58843" lon="6.40527">
        <ele>630.6</ele>
        <time>2026-02-22T11:17:28Z</time>
      </trkpt>
      <trkpt lat="43.58843" lon="6.40528">
        <ele>630.6</ele>
        <time>2026-02-22T11:17:29Z</time>
      </trkpt>
      <trkpt lat="43.58843" lon="6.40529">
        <ele>630.6</ele>
        <time>2026-02-22T11:17:30Z</time>
      </trkpt>
      <trkpt lat="43.58843" lon="6.4053">
        <ele>630.6</ele>
        <time>2026-02-22T11:17:31Z</time>
      </trkpt>
      <trkpt lat="43.58844" lon="6.40531">
        <ele>630.5</ele>
        <time>2026-02-22T11:17:32Z</time>
      </trkpt>
      <trkpt lat="43.58844" lon="6.40532">
        <ele>630.5</ele>
        <time>2026-02-22T11:17:33Z</time>
      </trkpt>
      <trkpt lat="43.58844" lon="6.40532">
        <ele>630.5</ele>
        <time>2026-02-22T11:17:34Z</time>
      </trkpt>
      <trkpt lat="43.58844" lon="6.40532">
        <ele>630.5</ele>
        <time>2026-02-22T11:17:35Z</time>
      </trkpt>
      <trkpt lat="43.58843" lon="6.40533">
        <ele>630.5</ele>
        <time>2026-02-22T11:17:36Z</time>
      </trkpt>
      <trkpt lat="43.58843" lon="6.40533">
        <ele>630.5</ele>
        <time>2026-02-22T11:17:37Z</time>
      </trkpt>
      <trkpt lat="43.58843" lon="6.40535">
        <ele>630.5</ele>
        <time>2026-02-22T11:17:38Z</time>
      </trkpt>
      <trkpt lat="43.58842" lon="6.40536">
        <ele>630.6</ele>
        <time>2026-02-22T11:17:39Z</time>
      </trkpt>
      <trkpt lat="43.58842" lon="6.40537">
        <ele>630.3</ele>
        <time>2026-02-22T11:17:40Z</time>
      </trkpt>
      <trkpt lat="43.58841" lon="6.40538">
        <ele>630.3</ele>
        <time>2026-02-22T11:17:41Z</time>
      </trkpt>
      <trkpt lat="43.58841" lon="6.40541">
        <ele>630.3</ele>
        <time>2026-02-22T11:17:42Z</time>
      </trkpt>
      <trkpt lat="43.58841" lon="6.40542">
        <ele>630.3</ele>
        <time>2026-02-22T11:17:43Z</time>
      </trkpt>
      <trkpt lat="43.5884" lon="6.40544">
        <ele>630.2</ele>
        <time>2026-02-22T11:17:44Z</time>
      </trkpt>
      <trkpt lat="43.58839" lon="6.40545">
        <ele>630.2</ele>
        <time>2026-02-22T11:17:45Z</time>
      </trkpt>
      <trkpt lat="43.58839" lon="6.40546">
        <ele>630.2</ele>
        <time>2026-02-22T11:17:46Z</time>
      </trkpt>
      <trkpt lat="43.58838" lon="6.40547">
        <ele>630.2</ele>
        <time>2026-02-22T11:17:47Z</time>
      </trkpt>
      <trkpt lat="43.58838" lon="6.40548">
        <ele>630.2</ele>
        <time>2026-02-22T11:17:48Z</time>
      </trkpt>
      <trkpt lat="43.58837" lon="6.40549">
        <ele>630.2</ele>
        <time>2026-02-22T11:17:49Z</time>
      </trkpt>
      <trkpt lat="43.58837" lon="6.40551">
        <ele>630.1</ele>
        <time>2026-02-22T11:17:50Z</time>
      </trkpt>
      <trkpt lat="43.58836" lon="6.40552">
        <ele>630</ele>
        <time>2026-02-22T11:17:51Z</time>
      </trkpt>
      <trkpt lat="43.58835" lon="6.40552">
        <ele>629.9</ele>
        <time>2026-02-22T11:17:52Z</time>
      </trkpt>
      <trkpt lat="43.58834" lon="6.40553">
        <ele>629.9</ele>
        <time>2026-02-22T11:17:53Z</time>
      </trkpt>
      <trkpt lat="43.58833" lon="6.40554">
        <ele>630</ele>
        <time>2026-02-22T11:17:54Z</time>
      </trkpt>
      <trkpt lat="43.58832" lon="6.40555">
        <ele>630</ele>
        <time>2026-02-22T11:17:55Z</time>
      </trkpt>
      <trkpt lat="43.58832" lon="6.40557">
        <ele>630</ele>
        <time>2026-02-22T11:17:56Z</time>
      </trkpt>
      <trkpt lat="43.58832" lon="6.40557">
        <ele>629.8</ele>
        <time>2026-02-22T11:17:57Z</time>
      </trkpt>
      <trkpt lat="43.58832" lon="6.40558">
        <ele>629.8</ele>
        <time>2026-02-22T11:17:58Z</time>
      </trkpt>
      <trkpt lat="43.58831" lon="6.4056">
        <ele>629.8</ele>
        <time>2026-02-22T11:17:59Z</time>
      </trkpt>
      <trkpt lat="43.58831" lon="6.40561">
        <ele>629.8</ele>
        <time>2026-02-22T11:18:00Z</time>
      </trkpt>
      <trkpt lat="43.5883" lon="6.40562">
        <ele>629.8</ele>
        <time>2026-02-22T11:18:01Z</time>
      </trkpt>
      <trkpt lat="43.5883" lon="6.40563">
        <ele>629.9</ele>
        <time>2026-02-22T11:18:02Z</time>
      </trkpt>
      <trkpt lat="43.58829" lon="6.40564">
        <ele>629.9</ele>
        <time>2026-02-22T11:18:03Z</time>
      </trkpt>
      <trkpt lat="43.58828" lon="6.40565">
        <ele>629.9</ele>
        <time>2026-02-22T11:18:04Z</time>
      </trkpt>
      <trkpt lat="43.58827" lon="6.40566">
        <ele>629.9</ele>
        <time>2026-02-22T11:18:05Z</time>
      </trkpt>
      <trkpt lat="43.58827" lon="6.40567">
        <ele>630</ele>
        <time>2026-02-22T11:18:06Z</time>
      </trkpt>
      <trkpt lat="43.58826" lon="6.40568">
        <ele>630</ele>
        <time>2026-02-22T11:18:07Z</time>
      </trkpt>
      <trkpt lat="43.58826" lon="6.40568">
        <ele>630.1</ele>
        <time>2026-02-22T11:18:08Z</time>
      </trkpt>
      <trkpt lat="43.58825" lon="6.40569">
        <ele>630.1</ele>
        <time>2026-02-22T11:18:09Z</time>
      </trkpt>
      <trkpt lat="43.58824" lon="6.40571">
        <ele>630.1</ele>
        <time>2026-02-22T11:18:10Z</time>
      </trkpt>
      <trkpt lat="43.58824" lon="6.40572">
        <ele>630</ele>
        <time>2026-02-22T11:18:11Z</time>
      </trkpt>
      <trkpt lat="43.58824" lon="6.40573">
        <ele>630.1</ele>
        <time>2026-02-22T11:18:12Z</time>
      </trkpt>
      <trkpt lat="43.58824" lon="6.40575">
        <ele>630.2</ele>
        <time>2026-02-22T11:18:13Z</time>
      </trkpt>
      <trkpt lat="43.58824" lon="6.40576">
        <ele>630.2</ele>
        <time>2026-02-22T11:18:14Z</time>
      </trkpt>
      <trkpt lat="43.58823" lon="6.40578">
        <ele>630.3</ele>
        <time>2026-02-22T11:18:15Z</time>
      </trkpt>
      <trkpt lat="43.58823" lon="6.40579">
        <ele>630.3</ele>
        <time>2026-02-22T11:18:16Z</time>
      </trkpt>
      <trkpt lat="43.58822" lon="6.4058">
        <ele>630.3</ele>
        <time>2026-02-22T11:18:17Z</time>
      </trkpt>
      <trkpt lat="43.58822" lon="6.40581">
        <ele>630.3</ele>
        <time>2026-02-22T11:18:18Z</time>
      </trkpt>
      <trkpt lat="43.58821" lon="6.40582">
        <ele>630.3</ele>
        <time>2026-02-22T11:18:19Z</time>
      </trkpt>
      <trkpt lat="43.58821" lon="6.40583">
        <ele>630.3</ele>
        <time>2026-02-22T11:18:20Z</time>
      </trkpt>
      <trkpt lat="43.5882" lon="6.40584">
        <ele>630.5</ele>
        <time>2026-02-22T11:18:21Z</time>
      </trkpt>
      <trkpt lat="43.58819" lon="6.40585">
        <ele>630.5</ele>
        <time>2026-02-22T11:18:22Z</time>
      </trkpt>
      <trkpt lat="43.58818" lon="6.40585">
        <ele>630.6</ele>
        <time>2026-02-22T11:18:23Z</time>
      </trkpt>
      <trkpt lat="43.58817" lon="6.40586">
        <ele>630.7</ele>
        <time>2026-02-22T11:18:24Z</time>
      </trkpt>
      <trkpt lat="43.58817" lon="6.40587">
        <ele>630.7</ele>
        <time>2026-02-22T11:18:25Z</time>
      </trkpt>
      <trkpt lat="43.58815" lon="6.40588">
        <ele>630.7</ele>
        <time>2026-02-22T11:18:26Z</time>
      </trkpt>
      <trkpt lat="43.58814" lon="6.40589">
        <ele>630.8</ele>
        <time>2026-02-22T11:18:27Z</time>
      </trkpt>
      <trkpt lat="43.58814" lon="6.4059">
        <ele>630.8</ele>
        <time>2026-02-22T11:18:28Z</time>
      </trkpt>
      <trkpt lat="43.58813" lon="6.40591">
        <ele>630.9</ele>
        <time>2026-02-22T11:18:29Z</time>
      </trkpt>
      <trkpt lat="43.58813" lon="6.40592">
        <ele>630.9</ele>
        <time>2026-02-22T11:18:30Z</time>
      </trkpt>
      <trkpt lat="43.58812" lon="6.40593">
        <ele>630.9</ele>
        <time>2026-02-22T11:18:31Z</time>
      </trkpt>
      <trkpt lat="43.58812" lon="6.40595">
        <ele>630.9</ele>
        <time>2026-02-22T11:18:32Z</time>
      </trkpt>
      <trkpt lat="43.58811" lon="6.40596">
        <ele>630.9</ele>
        <time>2026-02-22T11:18:33Z</time>
      </trkpt>
      <trkpt lat="43.5881" lon="6.40597">
        <ele>631</ele>
        <time>2026-02-22T11:18:34Z</time>
      </trkpt>
      <trkpt lat="43.58809" lon="6.40598">
        <ele>631.1</ele>
        <time>2026-02-22T11:18:35Z</time>
      </trkpt>
      <trkpt lat="43.58809" lon="6.40599">
        <ele>631.1</ele>
        <time>2026-02-22T11:18:36Z</time>
      </trkpt>
      <trkpt lat="43.58808" lon="6.40601">
        <ele>631.2</ele>
        <time>2026-02-22T11:18:37Z</time>
      </trkpt>
      <trkpt lat="43.58807" lon="6.40602">
        <ele>631.3</ele>
        <time>2026-02-22T11:18:38Z</time>
      </trkpt>
      <trkpt lat="43.58807" lon="6.40603">
        <ele>631.3</ele>
        <time>2026-02-22T11:18:39Z</time>
      </trkpt>
      <trkpt lat="43.58806" lon="6.40605">
        <ele>631.5</ele>
        <time>2026-02-22T11:18:40Z</time>
      </trkpt>
      <trkpt lat="43.58805" lon="6.40606">
        <ele>631.5</ele>
        <time>2026-02-22T11:18:41Z</time>
      </trkpt>
      <trkpt lat="43.58805" lon="6.40608">
        <ele>631.6</ele>
        <time>2026-02-22T11:18:42Z</time>
      </trkpt>
      <trkpt lat="43.58805" lon="6.40609">
        <ele>631.6</ele>
        <time>2026-02-22T11:18:43Z</time>
      </trkpt>
      <trkpt lat="43.58805" lon="6.4061">
        <ele>631.6</ele>
        <time>2026-02-22T11:18:44Z</time>
      </trkpt>
      <trkpt lat="43.58805" lon="6.40611">
        <ele>631.6</ele>
        <time>2026-02-22T11:18:45Z</time>
      </trkpt>
      <trkpt lat="43.58804" lon="6.40612">
        <ele>631.7</ele>
        <time>2026-02-22T11:18:46Z</time>
      </trkpt>
      <trkpt lat="43.58803" lon="6.40614">
        <ele>631.8</ele>
        <time>2026-02-22T11:18:47Z</time>
      </trkpt>
      <trkpt lat="43.58803" lon="6.40615">
        <ele>631.9</ele>
        <time>2026-02-22T11:18:48Z</time>
      </trkpt>
      <trkpt lat="43.58802" lon="6.40616">
        <ele>632</ele>
        <time>2026-02-22T11:18:49Z</time>
      </trkpt>
      <trkpt lat="43.58801" lon="6.40617">
        <ele>632.1</ele>
        <time>2026-02-22T11:18:50Z</time>
      </trkpt>
      <trkpt lat="43.58801" lon="6.40618">
        <ele>632.1</ele>
        <time>2026-02-22T11:18:51Z</time>
      </trkpt>
      <trkpt lat="43.588" lon="6.40618">
        <ele>632.2</ele>
        <time>2026-02-22T11:18:52Z</time>
      </trkpt>
      <trkpt lat="43.588" lon="6.40619">
        <ele>632.3</ele>
        <time>2026-02-22T11:18:53Z</time>
      </trkpt>
      <trkpt lat="43.588" lon="6.4062">
        <ele>632.3</ele>
        <time>2026-02-22T11:18:54Z</time>
      </trkpt>
      <trkpt lat="43.58799" lon="6.40621">
        <ele>632.3</ele>
        <time>2026-02-22T11:18:55Z</time>
      </trkpt>
      <trkpt lat="43.58798" lon="6.40622">
        <ele>632.4</ele>
        <time>2026-02-22T11:18:56Z</time>
      </trkpt>
      <trkpt lat="43.58797" lon="6.40623">
        <ele>632.2</ele>
        <time>2026-02-22T11:18:57Z</time>
      </trkpt>
      <trkpt lat="43.58796" lon="6.40623">
        <ele>632.2</ele>
        <time>2026-02-22T11:18:58Z</time>
      </trkpt>
      <trkpt lat="43.58796" lon="6.40624">
        <ele>632.2</ele>
        <time>2026-02-22T11:18:59Z</time>
      </trkpt>
      <trkpt lat="43.58795" lon="6.40624">
        <ele>632.3</ele>
        <time>2026-02-22T11:19:00Z</time>
      </trkpt>
      <trkpt lat="43.58793" lon="6.40625">
        <ele>632.3</ele>
        <time>2026-02-22T11:19:01Z</time>
      </trkpt>
      <trkpt lat="43.58793" lon="6.40626">
        <ele>632.4</ele>
        <time>2026-02-22T11:19:02Z</time>
      </trkpt>
      <trkpt lat="43.58792" lon="6.40627">
        <ele>632.5</ele>
        <time>2026-02-22T11:19:03Z</time>
      </trkpt>
      <trkpt lat="43.58792" lon="6.40628">
        <ele>632.5</ele>
        <time>2026-02-22T11:19:04Z</time>
      </trkpt>
      <trkpt lat="43.58791" lon="6.40629">
        <ele>632.6</ele>
        <time>2026-02-22T11:19:05Z</time>
      </trkpt>
      <trkpt lat="43.58791" lon="6.40631">
        <ele>632.6</ele>
        <time>2026-02-22T11:19:06Z</time>
      </trkpt>
      <trkpt lat="43.5879" lon="6.40632">
        <ele>632.6</ele>
        <time>2026-02-22T11:19:07Z</time>
      </trkpt>
      <trkpt lat="43.5879" lon="6.40633">
        <ele>632.6</ele>
        <time>2026-02-22T11:19:08Z</time>
      </trkpt>
      <trkpt lat="43.5879" lon="6.40634">
        <ele>632.6</ele>
        <time>2026-02-22T11:19:09Z</time>
      </trkpt>
      <trkpt lat="43.58789" lon="6.40636">
        <ele>632.6</ele>
        <time>2026-02-22T11:19:10Z</time>
      </trkpt>
      <trkpt lat="43.58789" lon="6.40636">
        <ele>632.7</ele>
        <time>2026-02-22T11:19:11Z</time>
      </trkpt>
      <trkpt lat="43.58789" lon="6.40638">
        <ele>632.8</ele>
        <time>2026-02-22T11:19:12Z</time>
      </trkpt>
      <trkpt lat="43.58788" lon="6.40638">
        <ele>632.8</ele>
        <time>2026-02-22T11:19:13Z</time>
      </trkpt>
      <trkpt lat="43.58788" lon="6.4064">
        <ele>632.9</ele>
        <time>2026-02-22T11:19:14Z</time>
      </trkpt>
      <trkpt lat="43.58788" lon="6.40641">
        <ele>632.9</ele>
        <time>2026-02-22T11:19:15Z</time>
      </trkpt>
      <trkpt lat="43.58788" lon="6.40641">
        <ele>632.9</ele>
        <time>2026-02-22T11:19:16Z</time>
      </trkpt>
      <trkpt lat="43.58788" lon="6.40642">
        <ele>632.9</ele>
        <time>2026-02-22T11:19:17Z</time>
      </trkpt>
      <trkpt lat="43.58788" lon="6.40643">
        <ele>632.9</ele>
        <time>2026-02-22T11:19:18Z</time>
      </trkpt>
      <trkpt lat="43.58788" lon="6.40643">
        <ele>633</ele>
        <time>2026-02-22T11:19:19Z</time>
      </trkpt>
      <trkpt lat="43.58788" lon="6.40644">
        <ele>633</ele>
        <time>2026-02-22T11:19:20Z</time>
      </trkpt>
      <trkpt lat="43.58788" lon="6.40645">
        <ele>633.1</ele>
        <time>2026-02-22T11:19:21Z</time>
      </trkpt>
      <trkpt lat="43.58788" lon="6.40646">
        <ele>633.1</ele>
        <time>2026-02-22T11:19:22Z</time>
      </trkpt>
      <trkpt lat="43.58788" lon="6.40647">
        <ele>633.2</ele>
        <time>2026-02-22T11:19:23Z</time>
      </trkpt>
      <trkpt lat="43.58788" lon="6.40649">
        <ele>633.2</ele>
        <time>2026-02-22T11:19:24Z</time>
      </trkpt>
      <trkpt lat="43.58788" lon="6.4065">
        <ele>633.2</ele>
        <time>2026-02-22T11:19:25Z</time>
      </trkpt>
      <trkpt lat="43.58787" lon="6.40652">
        <ele>633.2</ele>
        <time>2026-02-22T11:19:26Z</time>
      </trkpt>
      <trkpt lat="43.58787" lon="6.40653">
        <ele>633.2</ele>
        <time>2026-02-22T11:19:27Z</time>
      </trkpt>
      <trkpt lat="43.58786" lon="6.40654">
        <ele>633.2</ele>
        <time>2026-02-22T11:19:28Z</time>
      </trkpt>
      <trkpt lat="43.58786" lon="6.40655">
        <ele>633.2</ele>
        <time>2026-02-22T11:19:29Z</time>
      </trkpt>
      <trkpt lat="43.58786" lon="6.40657">
        <ele>633.3</ele>
        <time>2026-02-22T11:19:30Z</time>
      </trkpt>
      <trkpt lat="43.58785" lon="6.40658">
        <ele>633.3</ele>
        <time>2026-02-22T11:19:31Z</time>
      </trkpt>
      <trkpt lat="43.58784" lon="6.40659">
        <ele>633.3</ele>
        <time>2026-02-22T11:19:32Z</time>
      </trkpt>
      <trkpt lat="43.58784" lon="6.40661">
        <ele>633.4</ele>
        <time>2026-02-22T11:19:33Z</time>
      </trkpt>
      <trkpt lat="43.58783" lon="6.40662">
        <ele>633.4</ele>
        <time>2026-02-22T11:19:34Z</time>
      </trkpt>
      <trkpt lat="43.58783" lon="6.40664">
        <ele>633.5</ele>
        <time>2026-02-22T11:19:35Z</time>
      </trkpt>
      <trkpt lat="43.58783" lon="6.40665">
        <ele>633.6</ele>
        <time>2026-02-22T11:19:36Z</time>
      </trkpt>
      <trkpt lat="43.58783" lon="6.40666">
        <ele>633.6</ele>
        <time>2026-02-22T11:19:37Z</time>
      </trkpt>
      <trkpt lat="43.58783" lon="6.40667">
        <ele>633.7</ele>
        <time>2026-02-22T11:19:38Z</time>
      </trkpt>
      <trkpt lat="43.58783" lon="6.40669">
        <ele>633.7</ele>
        <time>2026-02-22T11:19:39Z</time>
      </trkpt>
      <trkpt lat="43.58783" lon="6.40671">
        <ele>633.7</ele>
        <time>2026-02-22T11:19:40Z</time>
      </trkpt>
      <trkpt lat="43.58783" lon="6.40673">
        <ele>633.8</ele>
        <time>2026-02-22T11:19:41Z</time>
      </trkpt>
      <trkpt lat="43.58783" lon="6.40674">
        <ele>633.8</ele>
        <time>2026-02-22T11:19:42Z</time>
      </trkpt>
      <trkpt lat="43.58783" lon="6.40675">
        <ele>633.8</ele>
        <time>2026-02-22T11:19:43Z</time>
      </trkpt>
      <trkpt lat="43.58784" lon="6.40677">
        <ele>633.8</ele>
        <time>2026-02-22T11:19:44Z</time>
      </trkpt>
      <trkpt lat="43.58784" lon="6.40679">
        <ele>633.8</ele>
        <time>2026-02-22T11:19:45Z</time>
      </trkpt>
      <trkpt lat="43.58785" lon="6.4068">
        <ele>633.8</ele>
        <time>2026-02-22T11:19:46Z</time>
      </trkpt>
      <trkpt lat="43.58785" lon="6.40681">
        <ele>633.8</ele>
        <time>2026-02-22T11:19:47Z</time>
      </trkpt>
      <trkpt lat="43.58785" lon="6.40683">
        <ele>633.8</ele>
        <time>2026-02-22T11:19:48Z</time>
      </trkpt>
      <trkpt lat="43.58785" lon="6.40684">
        <ele>633.8</ele>
        <time>2026-02-22T11:19:49Z</time>
      </trkpt>
      <trkpt lat="43.58784" lon="6.40685">
        <ele>633.8</ele>
        <time>2026-02-22T11:19:50Z</time>
      </trkpt>
      <trkpt lat="43.58784" lon="6.40687">
        <ele>633.7</ele>
        <time>2026-02-22T11:19:51Z</time>
      </trkpt>
      <trkpt lat="43.58784" lon="6.40688">
        <ele>633.6</ele>
        <time>2026-02-22T11:19:52Z</time>
      </trkpt>
      <trkpt lat="43.58783" lon="6.40689">
        <ele>633.5</ele>
        <time>2026-02-22T11:19:53Z</time>
      </trkpt>
      <trkpt lat="43.58783" lon="6.4069">
        <ele>633.5</ele>
        <time>2026-02-22T11:19:54Z</time>
      </trkpt>
      <trkpt lat="43.58783" lon="6.4069">
        <ele>633.6</ele>
        <time>2026-02-22T11:19:55Z</time>
      </trkpt>
      <trkpt lat="43.58783" lon="6.40691">
        <ele>633.7</ele>
        <time>2026-02-22T11:19:56Z</time>
      </trkpt>
      <trkpt lat="43.58783" lon="6.40692">
        <ele>633.7</ele>
        <time>2026-02-22T11:19:57Z</time>
      </trkpt>
      <trkpt lat="43.58782" lon="6.40692">
        <ele>633.8</ele>
        <time>2026-02-22T11:19:58Z</time>
      </trkpt>
      <trkpt lat="43.58781" lon="6.40692">
        <ele>633.9</ele>
        <time>2026-02-22T11:19:59Z</time>
      </trkpt>
      <trkpt lat="43.58781" lon="6.40693">
        <ele>633.9</ele>
        <time>2026-02-22T11:20:00Z</time>
      </trkpt>
      <trkpt lat="43.58781" lon="6.40694">
        <ele>634</ele>
        <time>2026-02-22T11:20:01Z</time>
      </trkpt>
      <trkpt lat="43.5878" lon="6.40694">
        <ele>634.1</ele>
        <time>2026-02-22T11:20:02Z</time>
      </trkpt>
      <trkpt lat="43.58779" lon="6.40695">
        <ele>634.1</ele>
        <time>2026-02-22T11:20:03Z</time>
      </trkpt>
      <trkpt lat="43.58778" lon="6.40696">
        <ele>634.2</ele>
        <time>2026-02-22T11:20:04Z</time>
      </trkpt>
      <trkpt lat="43.58777" lon="6.40696">
        <ele>634.4</ele>
        <time>2026-02-22T11:20:05Z</time>
      </trkpt>
      <trkpt lat="43.58777" lon="6.40697">
        <ele>634.4</ele>
        <time>2026-02-22T11:20:06Z</time>
      </trkpt>
      <trkpt lat="43.58776" lon="6.40698">
        <ele>634.5</ele>
        <time>2026-02-22T11:20:07Z</time>
      </trkpt>
      <trkpt lat="43.58776" lon="6.40699">
        <ele>634.5</ele>
        <time>2026-02-22T11:20:08Z</time>
      </trkpt>
      <trkpt lat="43.58776" lon="6.40701">
        <ele>634.6</ele>
        <time>2026-02-22T11:20:09Z</time>
      </trkpt>
      <trkpt lat="43.58776" lon="6.40702">
        <ele>634.7</ele>
        <time>2026-02-22T11:20:10Z</time>
      </trkpt>
      <trkpt lat="43.58776" lon="6.40703">
        <ele>634.8</ele>
        <time>2026-02-22T11:20:11Z</time>
      </trkpt>
      <trkpt lat="43.58775" lon="6.40704">
        <ele>634.8</ele>
        <time>2026-02-22T11:20:12Z</time>
      </trkpt>
      <trkpt lat="43.58775" lon="6.40706">
        <ele>634.9</ele>
        <time>2026-02-22T11:20:13Z</time>
      </trkpt>
      <trkpt lat="43.58774" lon="6.40707">
        <ele>634.9</ele>
        <time>2026-02-22T11:20:14Z</time>
      </trkpt>
      <trkpt lat="43.58774" lon="6.40708">
        <ele>635</ele>
        <time>2026-02-22T11:20:15Z</time>
      </trkpt>
      <trkpt lat="43.58774" lon="6.40709">
        <ele>635</ele>
        <time>2026-02-22T11:20:16Z</time>
      </trkpt>
      <trkpt lat="43.58773" lon="6.40711">
        <ele>635.1</ele>
        <time>2026-02-22T11:20:17Z</time>
      </trkpt>
      <trkpt lat="43.58773" lon="6.40713">
        <ele>635.2</ele>
        <time>2026-02-22T11:20:18Z</time>
      </trkpt>
      <trkpt lat="43.58774" lon="6.40714">
        <ele>635.3</ele>
        <time>2026-02-22T11:20:19Z</time>
      </trkpt>
      <trkpt lat="43.58774" lon="6.40715">
        <ele>635.3</ele>
        <time>2026-02-22T11:20:20Z</time>
      </trkpt>
      <trkpt lat="43.58773" lon="6.40716">
        <ele>635.3</ele>
        <time>2026-02-22T11:20:21Z</time>
      </trkpt>
      <trkpt lat="43.58773" lon="6.40717">
        <ele>635.3</ele>
        <time>2026-02-22T11:20:22Z</time>
      </trkpt>
      <trkpt lat="43.58772" lon="6.40719">
        <ele>635.3</ele>
        <time>2026-02-22T11:20:23Z</time>
      </trkpt>
      <trkpt lat="43.58772" lon="6.40721">
        <ele>635.2</ele>
        <time>2026-02-22T11:20:24Z</time>
      </trkpt>
      <trkpt lat="43.58772" lon="6.40722">
        <ele>635.2</ele>
        <time>2026-02-22T11:20:25Z</time>
      </trkpt>
      <trkpt lat="43.58772" lon="6.40723">
        <ele>635.1</ele>
        <time>2026-02-22T11:20:26Z</time>
      </trkpt>
      <trkpt lat="43.58771" lon="6.40724">
        <ele>635.1</ele>
        <time>2026-02-22T11:20:27Z</time>
      </trkpt>
      <trkpt lat="43.58771" lon="6.40725">
        <ele>635.2</ele>
        <time>2026-02-22T11:20:28Z</time>
      </trkpt>
      <trkpt lat="43.58771" lon="6.40726">
        <ele>635.3</ele>
        <time>2026-02-22T11:20:29Z</time>
      </trkpt>
      <trkpt lat="43.5877" lon="6.40727">
        <ele>635.3</ele>
        <time>2026-02-22T11:20:30Z</time>
      </trkpt>
      <trkpt lat="43.5877" lon="6.40729">
        <ele>635.3</ele>
        <time>2026-02-22T11:20:31Z</time>
      </trkpt>
      <trkpt lat="43.5877" lon="6.4073">
        <ele>635.2</ele>
        <time>2026-02-22T11:20:32Z</time>
      </trkpt>
      <trkpt lat="43.5877" lon="6.4073">
        <ele>635.1</ele>
        <time>2026-02-22T11:20:33Z</time>
      </trkpt>
      <trkpt lat="43.58769" lon="6.40731">
        <ele>635.1</ele>
        <time>2026-02-22T11:20:34Z</time>
      </trkpt>
      <trkpt lat="43.58769" lon="6.40733">
        <ele>635.1</ele>
        <time>2026-02-22T11:20:35Z</time>
      </trkpt>
      <trkpt lat="43.58768" lon="6.40734">
        <ele>635.2</ele>
        <time>2026-02-22T11:20:36Z</time>
      </trkpt>
      <trkpt lat="43.58768" lon="6.40735">
        <ele>635.3</ele>
        <time>2026-02-22T11:20:37Z</time>
      </trkpt>
      <trkpt lat="43.58768" lon="6.40736">
        <ele>635.3</ele>
        <time>2026-02-22T11:20:38Z</time>
      </trkpt>
      <trkpt lat="43.58768" lon="6.40738">
        <ele>635.4</ele>
        <time>2026-02-22T11:20:39Z</time>
      </trkpt>
      <trkpt lat="43.58767" lon="6.40739">
        <ele>635.4</ele>
        <time>2026-02-22T11:20:40Z</time>
      </trkpt>
      <trkpt lat="43.58767" lon="6.4074">
        <ele>635.5</ele>
        <time>2026-02-22T11:20:41Z</time>
      </trkpt>
      <trkpt lat="43.58767" lon="6.40742">
        <ele>635.7</ele>
        <time>2026-02-22T11:20:42Z</time>
      </trkpt>
      <trkpt lat="43.58767" lon="6.40744">
        <ele>635.8</ele>
        <time>2026-02-22T11:20:43Z</time>
      </trkpt>
      <trkpt lat="43.58767" lon="6.40746">
        <ele>635.8</ele>
        <time>2026-02-22T11:20:44Z</time>
      </trkpt>
      <trkpt lat="43.58767" lon="6.40747">
        <ele>635.8</ele>
        <time>2026-02-22T11:20:45Z</time>
      </trkpt>
      <trkpt lat="43.58767" lon="6.40749">
        <ele>635.7</ele>
        <time>2026-02-22T11:20:46Z</time>
      </trkpt>
      <trkpt lat="43.58768" lon="6.4075">
        <ele>635.7</ele>
        <time>2026-02-22T11:20:47Z</time>
      </trkpt>
      <trkpt lat="43.58769" lon="6.40751">
        <ele>635.6</ele>
        <time>2026-02-22T11:20:48Z</time>
      </trkpt>
      <trkpt lat="43.58769" lon="6.40752">
        <ele>635.6</ele>
        <time>2026-02-22T11:20:49Z</time>
      </trkpt>
      <trkpt lat="43.5877" lon="6.40753">
        <ele>635.5</ele>
        <time>2026-02-22T11:20:50Z</time>
      </trkpt>
      <trkpt lat="43.5877" lon="6.40754">
        <ele>635.5</ele>
        <time>2026-02-22T11:20:51Z</time>
      </trkpt>
      <trkpt lat="43.5877" lon="6.40755">
        <ele>635.4</ele>
        <time>2026-02-22T11:20:52Z</time>
      </trkpt>
      <trkpt lat="43.5877" lon="6.40756">
        <ele>635.4</ele>
        <time>2026-02-22T11:20:53Z</time>
      </trkpt>
      <trkpt lat="43.5877" lon="6.40756">
        <ele>635.3</ele>
        <time>2026-02-22T11:20:54Z</time>
      </trkpt>
      <trkpt lat="43.5877" lon="6.40756">
        <ele>635.3</ele>
        <time>2026-02-22T11:20:55Z</time>
      </trkpt>
      <trkpt lat="43.5877" lon="6.40756">
        <ele>635.2</ele>
        <time>2026-02-22T11:20:56Z</time>
      </trkpt>
      <trkpt lat="43.5877" lon="6.40756">
        <ele>635.1</ele>
        <time>2026-02-22T11:20:57Z</time>
      </trkpt>
      <trkpt lat="43.5877" lon="6.40756">
        <ele>635.1</ele>
        <time>2026-02-22T11:20:58Z</time>
      </trkpt>
      <trkpt lat="43.5877" lon="6.40757">
        <ele>635.1</ele>
        <time>2026-02-22T11:20:59Z</time>
      </trkpt>
      <trkpt lat="43.5877" lon="6.40757">
        <ele>635.1</ele>
        <time>2026-02-22T11:21:00Z</time>
      </trkpt>
      <trkpt lat="43.5877" lon="6.40758">
        <ele>635.1</ele>
        <time>2026-02-22T11:21:01Z</time>
      </trkpt>
      <trkpt lat="43.5877" lon="6.40759">
        <ele>635</ele>
        <time>2026-02-22T11:21:02Z</time>
      </trkpt>
      <trkpt lat="43.5877" lon="6.40759">
        <ele>635</ele>
        <time>2026-02-22T11:21:03Z</time>
      </trkpt>
      <trkpt lat="43.5877" lon="6.40759">
        <ele>635</ele>
        <time>2026-02-22T11:21:04Z</time>
      </trkpt>
      <trkpt lat="43.58771" lon="6.40759">
        <ele>635</ele>
        <time>2026-02-22T11:21:05Z</time>
      </trkpt>
      <trkpt lat="43.5877" lon="6.40761">
        <ele>635.1</ele>
        <time>2026-02-22T11:21:06Z</time>
      </trkpt>
      <trkpt lat="43.5877" lon="6.40762">
        <ele>635.1</ele>
        <time>2026-02-22T11:21:07Z</time>
      </trkpt>
      <trkpt lat="43.5877" lon="6.40763">
        <ele>635.2</ele>
        <time>2026-02-22T11:21:08Z</time>
      </trkpt>
      <trkpt lat="43.5877" lon="6.40764">
        <ele>635.2</ele>
        <time>2026-02-22T11:21:09Z</time>
      </trkpt>
      <trkpt lat="43.5877" lon="6.40765">
        <ele>635.2</ele>
        <time>2026-02-22T11:21:10Z</time>
      </trkpt>
      <trkpt lat="43.58769" lon="6.40766">
        <ele>635.1</ele>
        <time>2026-02-22T11:21:11Z</time>
      </trkpt>
      <trkpt lat="43.5877" lon="6.40766">
        <ele>635.1</ele>
        <time>2026-02-22T11:21:12Z</time>
      </trkpt>
      <trkpt lat="43.5877" lon="6.40766">
        <ele>635</ele>
        <time>2026-02-22T11:21:13Z</time>
      </trkpt>
      <trkpt lat="43.5877" lon="6.40767">
        <ele>635</ele>
        <time>2026-02-22T11:21:14Z</time>
      </trkpt>
      <trkpt lat="43.5877" lon="6.40767">
        <ele>635.1</ele>
        <time>2026-02-22T11:21:15Z</time>
      </trkpt>
      <trkpt lat="43.5877" lon="6.40768">
        <ele>635.1</ele>
        <time>2026-02-22T11:21:16Z</time>
      </trkpt>
      <trkpt lat="43.5877" lon="6.40768">
        <ele>635.1</ele>
        <time>2026-02-22T11:21:17Z</time>
      </trkpt>
      <trkpt lat="43.5877" lon="6.40769">
        <ele>635.2</ele>
        <time>2026-02-22T11:21:18Z</time>
      </trkpt>
      <trkpt lat="43.5877" lon="6.40769">
        <ele>635.3</ele>
        <time>2026-02-22T11:21:19Z</time>
      </trkpt>
      <trkpt lat="43.58769" lon="6.40769">
        <ele>635.3</ele>
        <time>2026-02-22T11:21:20Z</time>
      </trkpt>
      <trkpt lat="43.58769" lon="6.4077">
        <ele>635.3</ele>
        <time>2026-02-22T11:21:21Z</time>
      </trkpt>
      <trkpt lat="43.58768" lon="6.4077">
        <ele>635.3</ele>
        <time>2026-02-22T11:21:22Z</time>
      </trkpt>
      <trkpt lat="43.58768" lon="6.40771">
        <ele>635.3</ele>
        <time>2026-02-22T11:21:23Z</time>
      </trkpt>
      <trkpt lat="43.58768" lon="6.40772">
        <ele>635.2</ele>
        <time>2026-02-22T11:21:24Z</time>
      </trkpt>
      <trkpt lat="43.58768" lon="6.40773">
        <ele>635.2</ele>
        <time>2026-02-22T11:21:25Z</time>
      </trkpt>
      <trkpt lat="43.58767" lon="6.40774">
        <ele>635.2</ele>
        <time>2026-02-22T11:21:26Z</time>
      </trkpt>
      <trkpt lat="43.58767" lon="6.40774">
        <ele>635.3</ele>
        <time>2026-02-22T11:21:27Z</time>
      </trkpt>
      <trkpt lat="43.58766" lon="6.40775">
        <ele>635.5</ele>
        <time>2026-02-22T11:21:28Z</time>
      </trkpt>
      <trkpt lat="43.58765" lon="6.40775">
        <ele>635.5</ele>
        <time>2026-02-22T11:21:29Z</time>
      </trkpt>
      <trkpt lat="43.58764" lon="6.40776">
        <ele>635.6</ele>
        <time>2026-02-22T11:21:30Z</time>
      </trkpt>
      <trkpt lat="43.58764" lon="6.40777">
        <ele>635.6</ele>
        <time>2026-02-22T11:21:31Z</time>
      </trkpt>
      <trkpt lat="43.58764" lon="6.40778">
        <ele>635.7</ele>
        <time>2026-02-22T11:21:32Z</time>
      </trkpt>
      <trkpt lat="43.58763" lon="6.40779">
        <ele>635.8</ele>
        <time>2026-02-22T11:21:33Z</time>
      </trkpt>
      <trkpt lat="43.58763" lon="6.40781">
        <ele>635.8</ele>
        <time>2026-02-22T11:21:34Z</time>
      </trkpt>
      <trkpt lat="43.58763" lon="6.40782">
        <ele>635.8</ele>
        <time>2026-02-22T11:21:35Z</time>
      </trkpt>
      <trkpt lat="43.58763" lon="6.40784">
        <ele>635.9</ele>
        <time>2026-02-22T11:21:36Z</time>
      </trkpt>
      <trkpt lat="43.58762" lon="6.40784">
        <ele>635.9</ele>
        <time>2026-02-22T11:21:37Z</time>
      </trkpt>
      <trkpt lat="43.58761" lon="6.40785">
        <ele>636</ele>
        <time>2026-02-22T11:21:38Z</time>
      </trkpt>
      <trkpt lat="43.5876" lon="6.40785">
        <ele>636</ele>
        <time>2026-02-22T11:21:39Z</time>
      </trkpt>
      <trkpt lat="43.58759" lon="6.40786">
        <ele>636.1</ele>
        <time>2026-02-22T11:21:40Z</time>
      </trkpt>
      <trkpt lat="43.58758" lon="6.40786">
        <ele>636.2</ele>
        <time>2026-02-22T11:21:41Z</time>
      </trkpt>
      <trkpt lat="43.58758" lon="6.40786">
        <ele>636.4</ele>
        <time>2026-02-22T11:21:42Z</time>
      </trkpt>
      <trkpt lat="43.58757" lon="6.40787">
        <ele>636.5</ele>
        <time>2026-02-22T11:21:43Z</time>
      </trkpt>
      <trkpt lat="43.58757" lon="6.40787">
        <ele>636.7</ele>
        <time>2026-02-22T11:21:44Z</time>
      </trkpt>
      <trkpt lat="43.58756" lon="6.40788">
        <ele>636.7</ele>
        <time>2026-02-22T11:21:45Z</time>
      </trkpt>
      <trkpt lat="43.58756" lon="6.40789">
        <ele>636.8</ele>
        <time>2026-02-22T11:21:46Z</time>
      </trkpt>
      <trkpt lat="43.58756" lon="6.40789">
        <ele>636.9</ele>
        <time>2026-02-22T11:21:47Z</time>
      </trkpt>
      <trkpt lat="43.58755" lon="6.4079">
        <ele>637</ele>
        <time>2026-02-22T11:21:48Z</time>
      </trkpt>
      <trkpt lat="43.58755" lon="6.40791">
        <ele>637.1</ele>
        <time>2026-02-22T11:21:49Z</time>
      </trkpt>
      <trkpt lat="43.58755" lon="6.40792">
        <ele>637.2</ele>
        <time>2026-02-22T11:21:50Z</time>
      </trkpt>
      <trkpt lat="43.58755" lon="6.40794">
        <ele>637.3</ele>
        <time>2026-02-22T11:21:51Z</time>
      </trkpt>
      <trkpt lat="43.58755" lon="6.40795">
        <ele>637.5</ele>
        <time>2026-02-22T11:21:52Z</time>
      </trkpt>
      <trkpt lat="43.58755" lon="6.40796">
        <ele>637.6</ele>
        <time>2026-02-22T11:21:53Z</time>
      </trkpt>
      <trkpt lat="43.58755" lon="6.40797">
        <ele>637.5</ele>
        <time>2026-02-22T11:21:54Z</time>
      </trkpt>
      <trkpt lat="43.58755" lon="6.40799">
        <ele>637.5</ele>
        <time>2026-02-22T11:21:55Z</time>
      </trkpt>
      <trkpt lat="43.58755" lon="6.408">
        <ele>637.5</ele>
        <time>2026-02-22T11:21:56Z</time>
      </trkpt>
      <trkpt lat="43.58755" lon="6.40802">
        <ele>637.5</ele>
        <time>2026-02-22T11:21:57Z</time>
      </trkpt>
      <trkpt lat="43.58755" lon="6.40803">
        <ele>637.5</ele>
        <time>2026-02-22T11:21:58Z</time>
      </trkpt>
      <trkpt lat="43.58756" lon="6.40805">
        <ele>637.5</ele>
        <time>2026-02-22T11:21:59Z</time>
      </trkpt>
      <trkpt lat="43.58756" lon="6.40807">
        <ele>637.5</ele>
        <time>2026-02-22T11:22:00Z</time>
      </trkpt>
      <trkpt lat="43.58756" lon="6.40808">
        <ele>637.5</ele>
        <time>2026-02-22T11:22:01Z</time>
      </trkpt>
      <trkpt lat="43.58757" lon="6.40809">
        <ele>637.5</ele>
        <time>2026-02-22T11:22:02Z</time>
      </trkpt>
      <trkpt lat="43.58758" lon="6.40809">
        <ele>637.4</ele>
        <time>2026-02-22T11:22:03Z</time>
      </trkpt>
      <trkpt lat="43.58758" lon="6.4081">
        <ele>637.4</ele>
        <time>2026-02-22T11:22:04Z</time>
      </trkpt>
      <trkpt lat="43.58758" lon="6.40811">
        <ele>637.4</ele>
        <time>2026-02-22T11:22:05Z</time>
      </trkpt>
      <trkpt lat="43.58758" lon="6.40812">
        <ele>637.4</ele>
        <time>2026-02-22T11:22:06Z</time>
      </trkpt>
      <trkpt lat="43.58758" lon="6.40812">
        <ele>637.3</ele>
        <time>2026-02-22T11:22:07Z</time>
      </trkpt>
      <trkpt lat="43.58758" lon="6.40812">
        <ele>637.3</ele>
        <time>2026-02-22T11:22:08Z</time>
      </trkpt>
      <trkpt lat="43.58758" lon="6.40812">
        <ele>637.2</ele>
        <time>2026-02-22T11:22:09Z</time>
      </trkpt>
      <trkpt lat="43.58758" lon="6.40813">
        <ele>637.1</ele>
        <time>2026-02-22T11:22:10Z</time>
      </trkpt>
      <trkpt lat="43.58758" lon="6.40813">
        <ele>637.1</ele>
        <time>2026-02-22T11:22:11Z</time>
      </trkpt>
      <trkpt lat="43.58758" lon="6.40813">
        <ele>637.1</ele>
        <time>2026-02-22T11:22:12Z</time>
      </trkpt>
      <trkpt lat="43.58758" lon="6.40813">
        <ele>637</ele>
        <time>2026-02-22T11:22:13Z</time>
      </trkpt>
      <trkpt lat="43.58758" lon="6.40813">
        <ele>637</ele>
        <time>2026-02-22T11:22:14Z</time>
      </trkpt>
      <trkpt lat="43.58758" lon="6.40813">
        <ele>637</ele>
        <time>2026-02-22T11:22:15Z</time>
      </trkpt>
      <trkpt lat="43.58758" lon="6.40813">
        <ele>637</ele>
        <time>2026-02-22T11:22:16Z</time>
      </trkpt>
      <trkpt lat="43.58758" lon="6.40813">
        <ele>637</ele>
        <time>2026-02-22T11:22:17Z</time>
      </trkpt>
      <trkpt lat="43.58758" lon="6.40813">
        <ele>637.1</ele>
        <time>2026-02-22T11:22:18Z</time>
      </trkpt>
      <trkpt lat="43.58758" lon="6.40813">
        <ele>637.1</ele>
        <time>2026-02-22T11:22:19Z</time>
      </trkpt>
      <trkpt lat="43.58758" lon="6.40813">
        <ele>637.1</ele>
        <time>2026-02-22T11:22:20Z</time>
      </trkpt>
      <trkpt lat="43.58758" lon="6.40813">
        <ele>637.2</ele>
        <time>2026-02-22T11:22:21Z</time>
      </trkpt>
      <trkpt lat="43.58758" lon="6.40814">
        <ele>637.2</ele>
        <time>2026-02-22T11:22:22Z</time>
      </trkpt>
      <trkpt lat="43.58758" lon="6.40814">
        <ele>637.2</ele>
        <time>2026-02-22T11:22:23Z</time>
      </trkpt>
      <trkpt lat="43.58758" lon="6.40814">
        <ele>637.2</ele>
        <time>2026-02-22T11:22:24Z</time>
      </trkpt>
      <trkpt lat="43.58758" lon="6.40814">
        <ele>637.3</ele>
        <time>2026-02-22T11:22:25Z</time>
      </trkpt>
      <trkpt lat="43.58758" lon="6.40814">
        <ele>637.3</ele>
        <time>2026-02-22T11:22:26Z</time>
      </trkpt>
      <trkpt lat="43.58758" lon="6.40814">
        <ele>637.3</ele>
        <time>2026-02-22T11:22:27Z</time>
      </trkpt>
      <trkpt lat="43.58758" lon="6.40814">
        <ele>637.3</ele>
        <time>2026-02-22T11:22:28Z</time>
      </trkpt>
      <trkpt lat="43.58758" lon="6.40814">
        <ele>637.3</ele>
        <time>2026-02-22T11:22:29Z</time>
      </trkpt>
      <trkpt lat="43.58758" lon="6.40814">
        <ele>637.4</ele>
        <time>2026-02-22T11:22:30Z</time>
      </trkpt>
      <trkpt lat="43.58758" lon="6.40814">
        <ele>637.5</ele>
        <time>2026-02-22T11:22:31Z</time>
      </trkpt>
      <trkpt lat="43.58758" lon="6.40815">
        <ele>637.5</ele>
        <time>2026-02-22T11:22:32Z</time>
      </trkpt>
      <trkpt lat="43.58758" lon="6.40815">
        <ele>637.5</ele>
        <time>2026-02-22T11:22:33Z</time>
      </trkpt>
      <trkpt lat="43.58758" lon="6.40815">
        <ele>637.5</ele>
        <time>2026-02-22T11:22:34Z</time>
      </trkpt>
      <trkpt lat="43.58758" lon="6.40815">
        <ele>637.5</ele>
        <time>2026-02-22T11:22:35Z</time>
      </trkpt>
      <trkpt lat="43.58758" lon="6.40815">
        <ele>637.5</ele>
        <time>2026-02-22T11:22:36Z</time>
      </trkpt>
      <trkpt lat="43.58758" lon="6.40815">
        <ele>637.5</ele>
        <time>2026-02-22T11:22:37Z</time>
      </trkpt>
      <trkpt lat="43.58758" lon="6.40814">
        <ele>637.6</ele>
        <time>2026-02-22T11:22:38Z</time>
      </trkpt>
      <trkpt lat="43.58758" lon="6.40814">
        <ele>637.7</ele>
        <time>2026-02-22T11:22:39Z</time>
      </trkpt>
      <trkpt lat="43.58757" lon="6.40814">
        <ele>637.8</ele>
        <time>2026-02-22T11:22:40Z</time>
      </trkpt>
      <trkpt lat="43.58757" lon="6.40814">
        <ele>637.8</ele>
        <time>2026-02-22T11:22:41Z</time>
      </trkpt>
      <trkpt lat="43.58756" lon="6.40814">
        <ele>637.9</ele>
        <time>2026-02-22T11:22:42Z</time>
      </trkpt>
      <trkpt lat="43.58756" lon="6.40815">
        <ele>637.9</ele>
        <time>2026-02-22T11:22:43Z</time>
      </trkpt>
      <trkpt lat="43.58756" lon="6.40815">
        <ele>637.9</ele>
        <time>2026-02-22T11:22:44Z</time>
      </trkpt>
      <trkpt lat="43.58756" lon="6.40814">
        <ele>637.8</ele>
        <time>2026-02-22T11:22:45Z</time>
      </trkpt>
      <trkpt lat="43.58756" lon="6.40815">
        <ele>637.8</ele>
        <time>2026-02-22T11:22:46Z</time>
      </trkpt>
      <trkpt lat="43.58756" lon="6.40816">
        <ele>637.9</ele>
        <time>2026-02-22T11:22:47Z</time>
      </trkpt>
      <trkpt lat="43.58755" lon="6.40817">
        <ele>637.9</ele>
        <time>2026-02-22T11:22:48Z</time>
      </trkpt>
      <trkpt lat="43.58755" lon="6.40819">
        <ele>637.9</ele>
        <time>2026-02-22T11:22:49Z</time>
      </trkpt>
      <trkpt lat="43.58755" lon="6.4082">
        <ele>637.9</ele>
        <time>2026-02-22T11:22:50Z</time>
      </trkpt>
      <trkpt lat="43.58754" lon="6.40821">
        <ele>637.9</ele>
        <time>2026-02-22T11:22:51Z</time>
      </trkpt>
      <trkpt lat="43.58754" lon="6.40822">
        <ele>637.9</ele>
        <time>2026-02-22T11:22:52Z</time>
      </trkpt>
      <trkpt lat="43.58754" lon="6.40823">
        <ele>638</ele>
        <time>2026-02-22T11:22:53Z</time>
      </trkpt>
      <trkpt lat="43.58754" lon="6.40823">
        <ele>638</ele>
        <time>2026-02-22T11:22:54Z</time>
      </trkpt>
      <trkpt lat="43.58754" lon="6.40823">
        <ele>637.9</ele>
        <time>2026-02-22T11:22:55Z</time>
      </trkpt>
      <trkpt lat="43.58754" lon="6.40823">
        <ele>637.9</ele>
        <time>2026-02-22T11:22:56Z</time>
      </trkpt>
      <trkpt lat="43.58754" lon="6.40824">
        <ele>637.9</ele>
        <time>2026-02-22T11:22:57Z</time>
      </trkpt>
      <trkpt lat="43.58754" lon="6.40825">
        <ele>637.9</ele>
        <time>2026-02-22T11:22:58Z</time>
      </trkpt>
      <trkpt lat="43.58753" lon="6.40827">
        <ele>638</ele>
        <time>2026-02-22T11:22:59Z</time>
      </trkpt>
      <trkpt lat="43.58753" lon="6.40828">
        <ele>637.9</ele>
        <time>2026-02-22T11:23:00Z</time>
      </trkpt>
      <trkpt lat="43.58752" lon="6.40829">
        <ele>637.9</ele>
        <time>2026-02-22T11:23:01Z</time>
      </trkpt>
      <trkpt lat="43.58751" lon="6.4083">
        <ele>638</ele>
        <time>2026-02-22T11:23:02Z</time>
      </trkpt>
      <trkpt lat="43.58751" lon="6.40831">
        <ele>638</ele>
        <time>2026-02-22T11:23:03Z</time>
      </trkpt>
      <trkpt lat="43.5875" lon="6.40832">
        <ele>638</ele>
        <time>2026-02-22T11:23:04Z</time>
      </trkpt>
      <trkpt lat="43.58749" lon="6.40832">
        <ele>638</ele>
        <time>2026-02-22T11:23:05Z</time>
      </trkpt>
      <trkpt lat="43.58748" lon="6.40833">
        <ele>638.1</ele>
        <time>2026-02-22T11:23:06Z</time>
      </trkpt>
      <trkpt lat="43.58747" lon="6.40833">
        <ele>638.2</ele>
        <time>2026-02-22T11:23:07Z</time>
      </trkpt>
      <trkpt lat="43.58746" lon="6.40834">
        <ele>638.3</ele>
        <time>2026-02-22T11:23:08Z</time>
      </trkpt>
      <trkpt lat="43.58746" lon="6.40834">
        <ele>638.4</ele>
        <time>2026-02-22T11:23:09Z</time>
      </trkpt>
      <trkpt lat="43.58745" lon="6.40835">
        <ele>638.5</ele>
        <time>2026-02-22T11:23:10Z</time>
      </trkpt>
      <trkpt lat="43.58745" lon="6.40836">
        <ele>638.5</ele>
        <time>2026-02-22T11:23:11Z</time>
      </trkpt>
      <trkpt lat="43.58744" lon="6.40836">
        <ele>638.5</ele>
        <time>2026-02-22T11:23:12Z</time>
      </trkpt>
      <trkpt lat="43.58744" lon="6.40837">
        <ele>638.6</ele>
        <time>2026-02-22T11:23:13Z</time>
      </trkpt>
      <trkpt lat="43.58744" lon="6.40837">
        <ele>638.6</ele>
        <time>2026-02-22T11:23:14Z</time>
      </trkpt>
      <trkpt lat="43.58744" lon="6.40837">
        <ele>638.6</ele>
        <time>2026-02-22T11:23:15Z</time>
      </trkpt>
      <trkpt lat="43.58743" lon="6.40837">
        <ele>638.6</ele>
        <time>2026-02-22T11:23:16Z</time>
      </trkpt>
      <trkpt lat="43.58743" lon="6.40837">
        <ele>638.6</ele>
        <time>2026-02-22T11:23:17Z</time>
      </trkpt>
      <trkpt lat="43.58743" lon="6.40838">
        <ele>638.5</ele>
        <time>2026-02-22T11:23:18Z</time>
      </trkpt>
      <trkpt lat="43.58742" lon="6.40838">
        <ele>638.6</ele>
        <time>2026-02-22T11:23:19Z</time>
      </trkpt>
      <trkpt lat="43.58742" lon="6.4084">
        <ele>638.7</ele>
        <time>2026-02-22T11:23:20Z</time>
      </trkpt>
      <trkpt lat="43.58742" lon="6.4084">
        <ele>638.8</ele>
        <time>2026-02-22T11:23:21Z</time>
      </trkpt>
      <trkpt lat="43.58742" lon="6.40842">
        <ele>638.8</ele>
        <time>2026-02-22T11:23:22Z</time>
      </trkpt>
      <trkpt lat="43.58741" lon="6.40843">
        <ele>638.8</ele>
        <time>2026-02-22T11:23:23Z</time>
      </trkpt>
      <trkpt lat="43.5874" lon="6.40844">
        <ele>638.8</ele>
        <time>2026-02-22T11:23:24Z</time>
      </trkpt>
      <trkpt lat="43.5874" lon="6.40845">
        <ele>638.9</ele>
        <time>2026-02-22T11:23:25Z</time>
      </trkpt>
      <trkpt lat="43.5874" lon="6.40847">
        <ele>638.9</ele>
        <time>2026-02-22T11:23:26Z</time>
      </trkpt>
      <trkpt lat="43.58739" lon="6.40848">
        <ele>639</ele>
        <time>2026-02-22T11:23:27Z</time>
      </trkpt>
      <trkpt lat="43.58739" lon="6.40849">
        <ele>638.9</ele>
        <time>2026-02-22T11:23:28Z</time>
      </trkpt>
      <trkpt lat="43.58739" lon="6.4085">
        <ele>638.9</ele>
        <time>2026-02-22T11:23:29Z</time>
      </trkpt>
      <trkpt lat="43.58738" lon="6.4085">
        <ele>638.8</ele>
        <time>2026-02-22T11:23:30Z</time>
      </trkpt>
      <trkpt lat="43.58738" lon="6.40851">
        <ele>638.8</ele>
        <time>2026-02-22T11:23:31Z</time>
      </trkpt>
      <trkpt lat="43.58737" lon="6.40852">
        <ele>638.8</ele>
        <time>2026-02-22T11:23:32Z</time>
      </trkpt>
      <trkpt lat="43.58736" lon="6.40854">
        <ele>638.8</ele>
        <time>2026-02-22T11:23:33Z</time>
      </trkpt>
      <trkpt lat="43.58736" lon="6.40855">
        <ele>638.8</ele>
        <time>2026-02-22T11:23:34Z</time>
      </trkpt>
      <trkpt lat="43.58735" lon="6.40856">
        <ele>638.7</ele>
        <time>2026-02-22T11:23:35Z</time>
      </trkpt>
      <trkpt lat="43.58734" lon="6.40857">
        <ele>638.7</ele>
        <time>2026-02-22T11:23:36Z</time>
      </trkpt>
      <trkpt lat="43.58734" lon="6.40858">
        <ele>638.7</ele>
        <time>2026-02-22T11:23:37Z</time>
      </trkpt>
      <trkpt lat="43.58733" lon="6.40859">
        <ele>638.8</ele>
        <time>2026-02-22T11:23:38Z</time>
      </trkpt>
      <trkpt lat="43.58732" lon="6.40861">
        <ele>638.8</ele>
        <time>2026-02-22T11:23:39Z</time>
      </trkpt>
      <trkpt lat="43.58732" lon="6.40861">
        <ele>638.7</ele>
        <time>2026-02-22T11:23:40Z</time>
      </trkpt>
      <trkpt lat="43.58732" lon="6.40861">
        <ele>638.7</ele>
        <time>2026-02-22T11:23:41Z</time>
      </trkpt>
      <trkpt lat="43.58732" lon="6.40862">
        <ele>638.8</ele>
        <time>2026-02-22T11:23:42Z</time>
      </trkpt>
      <trkpt lat="43.58732" lon="6.40863">
        <ele>638.8</ele>
        <time>2026-02-22T11:23:43Z</time>
      </trkpt>
      <trkpt lat="43.58732" lon="6.40864">
        <ele>638.7</ele>
        <time>2026-02-22T11:23:44Z</time>
      </trkpt>
      <trkpt lat="43.58732" lon="6.40865">
        <ele>638.7</ele>
        <time>2026-02-22T11:23:45Z</time>
      </trkpt>
      <trkpt lat="43.58732" lon="6.40866">
        <ele>638.7</ele>
        <time>2026-02-22T11:23:46Z</time>
      </trkpt>
      <trkpt lat="43.58731" lon="6.40867">
        <ele>638.7</ele>
        <time>2026-02-22T11:23:47Z</time>
      </trkpt>
      <trkpt lat="43.5873" lon="6.40867">
        <ele>638.7</ele>
        <time>2026-02-22T11:23:48Z</time>
      </trkpt>
      <trkpt lat="43.5873" lon="6.40869">
        <ele>638.7</ele>
        <time>2026-02-22T11:23:49Z</time>
      </trkpt>
      <trkpt lat="43.58729" lon="6.4087">
        <ele>638.6</ele>
        <time>2026-02-22T11:23:50Z</time>
      </trkpt>
      <trkpt lat="43.58729" lon="6.40871">
        <ele>638.6</ele>
        <time>2026-02-22T11:23:51Z</time>
      </trkpt>
      <trkpt lat="43.58729" lon="6.40872">
        <ele>638.6</ele>
        <time>2026-02-22T11:23:52Z</time>
      </trkpt>
      <trkpt lat="43.58728" lon="6.40873">
        <ele>638.5</ele>
        <time>2026-02-22T11:23:53Z</time>
      </trkpt>
      <trkpt lat="43.58728" lon="6.40874">
        <ele>638.5</ele>
        <time>2026-02-22T11:23:54Z</time>
      </trkpt>
      <trkpt lat="43.58728" lon="6.40876">
        <ele>638.5</ele>
        <time>2026-02-22T11:23:55Z</time>
      </trkpt>
      <trkpt lat="43.58728" lon="6.40877">
        <ele>638.4</ele>
        <time>2026-02-22T11:23:56Z</time>
      </trkpt>
      <trkpt lat="43.58728" lon="6.40877">
        <ele>638.3</ele>
        <time>2026-02-22T11:23:57Z</time>
      </trkpt>
      <trkpt lat="43.58728" lon="6.40878">
        <ele>638.2</ele>
        <time>2026-02-22T11:23:58Z</time>
      </trkpt>
      <trkpt lat="43.58727" lon="6.4088">
        <ele>638.1</ele>
        <time>2026-02-22T11:23:59Z</time>
      </trkpt>
      <trkpt lat="43.58727" lon="6.40881">
        <ele>638.1</ele>
        <time>2026-02-22T11:24:00Z</time>
      </trkpt>
      <trkpt lat="43.58727" lon="6.40882">
        <ele>638</ele>
        <time>2026-02-22T11:24:01Z</time>
      </trkpt>
      <trkpt lat="43.58726" lon="6.40884">
        <ele>637.9</ele>
        <time>2026-02-22T11:24:02Z</time>
      </trkpt>
      <trkpt lat="43.58726" lon="6.40885">
        <ele>637.9</ele>
        <time>2026-02-22T11:24:03Z</time>
      </trkpt>
      <trkpt lat="43.58725" lon="6.40886">
        <ele>637.8</ele>
        <time>2026-02-22T11:24:04Z</time>
      </trkpt>
      <trkpt lat="43.58725" lon="6.40888">
        <ele>637.8</ele>
        <time>2026-02-22T11:24:05Z</time>
      </trkpt>
      <trkpt lat="43.58725" lon="6.4089">
        <ele>637.7</ele>
        <time>2026-02-22T11:24:06Z</time>
      </trkpt>
      <trkpt lat="43.58725" lon="6.40891">
        <ele>637.7</ele>
        <time>2026-02-22T11:24:07Z</time>
      </trkpt>
      <trkpt lat="43.58725" lon="6.40892">
        <ele>637.7</ele>
        <time>2026-02-22T11:24:08Z</time>
      </trkpt>
      <trkpt lat="43.58725" lon="6.40892">
        <ele>637.6</ele>
        <time>2026-02-22T11:24:09Z</time>
      </trkpt>
      <trkpt lat="43.58725" lon="6.40893">
        <ele>637.6</ele>
        <time>2026-02-22T11:24:10Z</time>
      </trkpt>
      <trkpt lat="43.58725" lon="6.40894">
        <ele>637.4</ele>
        <time>2026-02-22T11:24:11Z</time>
      </trkpt>
      <trkpt lat="43.58725" lon="6.40896">
        <ele>637.3</ele>
        <time>2026-02-22T11:24:12Z</time>
      </trkpt>
      <trkpt lat="43.58725" lon="6.40897">
        <ele>637.2</ele>
        <time>2026-02-22T11:24:13Z</time>
      </trkpt>
      <trkpt lat="43.58724" lon="6.40898">
        <ele>637.2</ele>
        <time>2026-02-22T11:24:14Z</time>
      </trkpt>
      <trkpt lat="43.58724" lon="6.40899">
        <ele>637.1</ele>
        <time>2026-02-22T11:24:15Z</time>
      </trkpt>
      <trkpt lat="43.58723" lon="6.409">
        <ele>637</ele>
        <time>2026-02-22T11:24:16Z</time>
      </trkpt>
      <trkpt lat="43.58723" lon="6.40902">
        <ele>637</ele>
        <time>2026-02-22T11:24:17Z</time>
      </trkpt>
      <trkpt lat="43.58723" lon="6.40903">
        <ele>636.9</ele>
        <time>2026-02-22T11:24:18Z</time>
      </trkpt>
      <trkpt lat="43.58723" lon="6.40904">
        <ele>636.7</ele>
        <time>2026-02-22T11:24:19Z</time>
      </trkpt>
      <trkpt lat="43.58723" lon="6.40906">
        <ele>636.7</ele>
        <time>2026-02-22T11:24:20Z</time>
      </trkpt>
      <trkpt lat="43.58723" lon="6.40907">
        <ele>636.6</ele>
        <time>2026-02-22T11:24:21Z</time>
      </trkpt>
      <trkpt lat="43.58722" lon="6.40908">
        <ele>636.6</ele>
        <time>2026-02-22T11:24:22Z</time>
      </trkpt>
      <trkpt lat="43.58721" lon="6.40909">
        <ele>636.7</ele>
        <time>2026-02-22T11:24:23Z</time>
      </trkpt>
      <trkpt lat="43.58721" lon="6.4091">
        <ele>636.6</ele>
        <time>2026-02-22T11:24:24Z</time>
      </trkpt>
      <trkpt lat="43.58721" lon="6.40911">
        <ele>636.6</ele>
        <time>2026-02-22T11:24:25Z</time>
      </trkpt>
      <trkpt lat="43.58721" lon="6.40912">
        <ele>636.6</ele>
        <time>2026-02-22T11:24:26Z</time>
      </trkpt>
      <trkpt lat="43.5872" lon="6.40913">
        <ele>636.6</ele>
        <time>2026-02-22T11:24:27Z</time>
      </trkpt>
      <trkpt lat="43.5872" lon="6.40914">
        <ele>636.6</ele>
        <time>2026-02-22T11:24:28Z</time>
      </trkpt>
      <trkpt lat="43.58719" lon="6.40916">
        <ele>636.5</ele>
        <time>2026-02-22T11:24:29Z</time>
      </trkpt>
      <trkpt lat="43.58719" lon="6.40917">
        <ele>636.6</ele>
        <time>2026-02-22T11:24:30Z</time>
      </trkpt>
      <trkpt lat="43.58719" lon="6.40918">
        <ele>636.6</ele>
        <time>2026-02-22T11:24:31Z</time>
      </trkpt>
      <trkpt lat="43.58718" lon="6.40919">
        <ele>636.5</ele>
        <time>2026-02-22T11:24:32Z</time>
      </trkpt>
      <trkpt lat="43.58718" lon="6.4092">
        <ele>636.5</ele>
        <time>2026-02-22T11:24:33Z</time>
      </trkpt>
      <trkpt lat="43.58718" lon="6.40921">
        <ele>636.5</ele>
        <time>2026-02-22T11:24:34Z</time>
      </trkpt>
      <trkpt lat="43.58718" lon="6.40922">
        <ele>636.5</ele>
        <time>2026-02-22T11:24:35Z</time>
      </trkpt>
      <trkpt lat="43.58717" lon="6.40923">
        <ele>636.4</ele>
        <time>2026-02-22T11:24:36Z</time>
      </trkpt>
      <trkpt lat="43.58717" lon="6.40924">
        <ele>636.4</ele>
        <time>2026-02-22T11:24:37Z</time>
      </trkpt>
      <trkpt lat="43.58717" lon="6.40924">
        <ele>636.4</ele>
        <time>2026-02-22T11:24:38Z</time>
      </trkpt>
      <trkpt lat="43.58716" lon="6.40924">
        <ele>636.4</ele>
        <time>2026-02-22T11:24:39Z</time>
      </trkpt>
      <trkpt lat="43.58716" lon="6.40925">
        <ele>636.4</ele>
        <time>2026-02-22T11:24:40Z</time>
      </trkpt>
      <trkpt lat="43.58716" lon="6.40925">
        <ele>636.3</ele>
        <time>2026-02-22T11:24:41Z</time>
      </trkpt>
      <trkpt lat="43.58715" lon="6.40926">
        <ele>636.3</ele>
        <time>2026-02-22T11:24:42Z</time>
      </trkpt>
      <trkpt lat="43.58715" lon="6.40927">
        <ele>636.3</ele>
        <time>2026-02-22T11:24:43Z</time>
      </trkpt>
      <trkpt lat="43.58714" lon="6.40927">
        <ele>636.4</ele>
        <time>2026-02-22T11:24:44Z</time>
      </trkpt>
      <trkpt lat="43.58713" lon="6.40929">
        <ele>636.4</ele>
        <time>2026-02-22T11:24:45Z</time>
      </trkpt>
      <trkpt lat="43.58713" lon="6.4093">
        <ele>636.4</ele>
        <time>2026-02-22T11:24:46Z</time>
      </trkpt>
      <trkpt lat="43.58712" lon="6.40932">
        <ele>636.4</ele>
        <time>2026-02-22T11:24:47Z</time>
      </trkpt>
      <trkpt lat="43.58711" lon="6.40933">
        <ele>636.3</ele>
        <time>2026-02-22T11:24:48Z</time>
      </trkpt>
      <trkpt lat="43.58711" lon="6.40934">
        <ele>636.3</ele>
        <time>2026-02-22T11:24:49Z</time>
      </trkpt>
      <trkpt lat="43.58711" lon="6.40935">
        <ele>636.2</ele>
        <time>2026-02-22T11:24:50Z</time>
      </trkpt>
      <trkpt lat="43.58711" lon="6.40935">
        <ele>636.2</ele>
        <time>2026-02-22T11:24:51Z</time>
      </trkpt>
      <trkpt lat="43.58711" lon="6.40935">
        <ele>636.2</ele>
        <time>2026-02-22T11:24:52Z</time>
      </trkpt>
      <trkpt lat="43.58711" lon="6.40936">
        <ele>636.2</ele>
        <time>2026-02-22T11:24:53Z</time>
      </trkpt>
      <trkpt lat="43.58711" lon="6.40936">
        <ele>636.2</ele>
        <time>2026-02-22T11:24:54Z</time>
      </trkpt>
      <trkpt lat="43.58711" lon="6.40937">
        <ele>636.2</ele>
        <time>2026-02-22T11:24:55Z</time>
      </trkpt>
      <trkpt lat="43.58711" lon="6.40937">
        <ele>636.2</ele>
        <time>2026-02-22T11:24:56Z</time>
      </trkpt>
      <trkpt lat="43.58711" lon="6.40937">
        <ele>636.4</ele>
        <time>2026-02-22T11:24:57Z</time>
      </trkpt>
      <trkpt lat="43.58711" lon="6.40937">
        <ele>636.5</ele>
        <time>2026-02-22T11:24:58Z</time>
      </trkpt>
      <trkpt lat="43.58711" lon="6.40937">
        <ele>636.5</ele>
        <time>2026-02-22T11:24:59Z</time>
      </trkpt>
      <trkpt lat="43.58711" lon="6.40937">
        <ele>636.5</ele>
        <time>2026-02-22T11:25:00Z</time>
      </trkpt>
      <trkpt lat="43.58711" lon="6.40938">
        <ele>636.5</ele>
        <time>2026-02-22T11:25:01Z</time>
      </trkpt>
      <trkpt lat="43.58711" lon="6.40938">
        <ele>636.6</ele>
        <time>2026-02-22T11:25:02Z</time>
      </trkpt>
      <trkpt lat="43.58711" lon="6.40938">
        <ele>636.7</ele>
        <time>2026-02-22T11:25:03Z</time>
      </trkpt>
      <trkpt lat="43.58711" lon="6.40938">
        <ele>636.7</ele>
        <time>2026-02-22T11:25:04Z</time>
      </trkpt>
      <trkpt lat="43.58712" lon="6.40938">
        <ele>636.7</ele>
        <time>2026-02-22T11:25:05Z</time>
      </trkpt>
      <trkpt lat="43.58712" lon="6.40938">
        <ele>636.6</ele>
        <time>2026-02-22T11:25:06Z</time>
      </trkpt>
      <trkpt lat="43.58711" lon="6.40938">
        <ele>636.6</ele>
        <time>2026-02-22T11:25:07Z</time>
      </trkpt>
      <trkpt lat="43.58711" lon="6.40939">
        <ele>636.6</ele>
        <time>2026-02-22T11:25:08Z</time>
      </trkpt>
      <trkpt lat="43.58711" lon="6.40939">
        <ele>636.6</ele>
        <time>2026-02-22T11:25:09Z</time>
      </trkpt>
      <trkpt lat="43.58712" lon="6.40939">
        <ele>636.6</ele>
        <time>2026-02-22T11:25:10Z</time>
      </trkpt>
      <trkpt lat="43.58712" lon="6.40939">
        <ele>636.6</ele>
        <time>2026-02-22T11:25:11Z</time>
      </trkpt>
      <trkpt lat="43.58712" lon="6.40939">
        <ele>636.7</ele>
        <time>2026-02-22T11:25:12Z</time>
      </trkpt>
      <trkpt lat="43.58712" lon="6.40939">
        <ele>636.8</ele>
        <time>2026-02-22T11:25:13Z</time>
      </trkpt>
      <trkpt lat="43.58712" lon="6.40939">
        <ele>636.8</ele>
        <time>2026-02-22T11:25:14Z</time>
      </trkpt>
      <trkpt lat="43.58712" lon="6.4094">
        <ele>636.8</ele>
        <time>2026-02-22T11:25:15Z</time>
      </trkpt>
      <trkpt lat="43.58712" lon="6.4094">
        <ele>636.9</ele>
        <time>2026-02-22T11:25:16Z</time>
      </trkpt>
      <trkpt lat="43.58712" lon="6.4094">
        <ele>636.9</ele>
        <time>2026-02-22T11:25:17Z</time>
      </trkpt>
      <trkpt lat="43.58713" lon="6.4094">
        <ele>636.9</ele>
        <time>2026-02-22T11:25:18Z</time>
      </trkpt>
      <trkpt lat="43.58713" lon="6.40941">
        <ele>636.9</ele>
        <time>2026-02-22T11:25:19Z</time>
      </trkpt>
      <trkpt lat="43.58713" lon="6.40941">
        <ele>636.9</ele>
        <time>2026-02-22T11:25:20Z</time>
      </trkpt>
      <trkpt lat="43.58713" lon="6.40941">
        <ele>636.8</ele>
        <time>2026-02-22T11:25:21Z</time>
      </trkpt>
      <trkpt lat="43.58713" lon="6.40941">
        <ele>636.8</ele>
        <time>2026-02-22T11:25:22Z</time>
      </trkpt>
      <trkpt lat="43.58713" lon="6.40941">
        <ele>636.8</ele>
        <time>2026-02-22T11:25:23Z</time>
      </trkpt>
      <trkpt lat="43.58713" lon="6.40942">
        <ele>636.8</ele>
        <time>2026-02-22T11:25:24Z</time>
      </trkpt>
      <trkpt lat="43.58713" lon="6.40942">
        <ele>636.8</ele>
        <time>2026-02-22T11:25:25Z</time>
      </trkpt>
      <trkpt lat="43.58714" lon="6.40942">
        <ele>636.9</ele>
        <time>2026-02-22T11:25:26Z</time>
      </trkpt>
      <trkpt lat="43.58714" lon="6.40942">
        <ele>636.9</ele>
        <time>2026-02-22T11:25:27Z</time>
      </trkpt>
      <trkpt lat="43.58714" lon="6.40942">
        <ele>636.9</ele>
        <time>2026-02-22T11:25:28Z</time>
      </trkpt>
      <trkpt lat="43.58714" lon="6.40942">
        <ele>636.9</ele>
        <time>2026-02-22T11:25:29Z</time>
      </trkpt>
      <trkpt lat="43.58714" lon="6.40942">
        <ele>636.8</ele>
        <time>2026-02-22T11:25:30Z</time>
      </trkpt>
      <trkpt lat="43.58714" lon="6.40942">
        <ele>636.7</ele>
        <time>2026-02-22T11:25:31Z</time>
      </trkpt>
      <trkpt lat="43.58714" lon="6.40943">
        <ele>636.7</ele>
        <time>2026-02-22T11:25:32Z</time>
      </trkpt>
      <trkpt lat="43.58715" lon="6.40943">
        <ele>636.7</ele>
        <time>2026-02-22T11:25:33Z</time>
      </trkpt>
      <trkpt lat="43.58715" lon="6.40943">
        <ele>636.8</ele>
        <time>2026-02-22T11:25:34Z</time>
      </trkpt>
      <trkpt lat="43.58715" lon="6.40943">
        <ele>636.8</ele>
        <time>2026-02-22T11:25:35Z</time>
      </trkpt>
      <trkpt lat="43.58715" lon="6.40943">
        <ele>636.8</ele>
        <time>2026-02-22T11:25:36Z</time>
      </trkpt>
      <trkpt lat="43.58715" lon="6.40943">
        <ele>636.8</ele>
        <time>2026-02-22T11:25:37Z</time>
      </trkpt>
      <trkpt lat="43.58716" lon="6.40943">
        <ele>636.8</ele>
        <time>2026-02-22T11:25:38Z</time>
      </trkpt>
      <trkpt lat="43.58716" lon="6.40943">
        <ele>636.9</ele>
        <time>2026-02-22T11:25:39Z</time>
      </trkpt>
      <trkpt lat="43.58716" lon="6.40943">
        <ele>636.9</ele>
        <time>2026-02-22T11:25:40Z</time>
      </trkpt>
      <trkpt lat="43.58716" lon="6.40943">
        <ele>636.8</ele>
        <time>2026-02-22T11:25:41Z</time>
      </trkpt>
      <trkpt lat="43.58716" lon="6.40943">
        <ele>636.8</ele>
        <time>2026-02-22T11:25:42Z</time>
      </trkpt>
      <trkpt lat="43.58715" lon="6.40943">
        <ele>636.8</ele>
        <time>2026-02-22T11:25:43Z</time>
      </trkpt>
      <trkpt lat="43.58715" lon="6.40943">
        <ele>636.9</ele>
        <time>2026-02-22T11:25:44Z</time>
      </trkpt>
      <trkpt lat="43.58715" lon="6.40943">
        <ele>636.9</ele>
        <time>2026-02-22T11:25:45Z</time>
      </trkpt>
      <trkpt lat="43.58715" lon="6.40943">
        <ele>636.9</ele>
        <time>2026-02-22T11:25:46Z</time>
      </trkpt>
      <trkpt lat="43.58716" lon="6.40943">
        <ele>636.9</ele>
        <time>2026-02-22T11:25:47Z</time>
      </trkpt>
      <trkpt lat="43.58716" lon="6.40943">
        <ele>636.8</ele>
        <time>2026-02-22T11:25:48Z</time>
      </trkpt>
      <trkpt lat="43.58716" lon="6.40943">
        <ele>636.8</ele>
        <time>2026-02-22T11:25:49Z</time>
      </trkpt>
      <trkpt lat="43.58716" lon="6.40943">
        <ele>636.9</ele>
        <time>2026-02-22T11:25:50Z</time>
      </trkpt>
      <trkpt lat="43.58716" lon="6.40943">
        <ele>636.9</ele>
        <time>2026-02-22T11:25:51Z</time>
      </trkpt>
      <trkpt lat="43.58715" lon="6.40943">
        <ele>636.9</ele>
        <time>2026-02-22T11:25:52Z</time>
      </trkpt>
      <trkpt lat="43.58715" lon="6.40942">
        <ele>636.9</ele>
        <time>2026-02-22T11:25:53Z</time>
      </trkpt>
      <trkpt lat="43.58714" lon="6.40942">
        <ele>636.9</ele>
        <time>2026-02-22T11:25:54Z</time>
      </trkpt>
      <trkpt lat="43.58714" lon="6.40942">
        <ele>637</ele>
        <time>2026-02-22T11:25:55Z</time>
      </trkpt>
      <trkpt lat="43.58714" lon="6.40942">
        <ele>637</ele>
        <time>2026-02-22T11:25:56Z</time>
      </trkpt>
      <trkpt lat="43.58714" lon="6.40942">
        <ele>637</ele>
        <time>2026-02-22T11:25:57Z</time>
      </trkpt>
      <trkpt lat="43.58714" lon="6.40942">
        <ele>637</ele>
        <time>2026-02-22T11:25:58Z</time>
      </trkpt>
      <trkpt lat="43.58714" lon="6.40941">
        <ele>636.9</ele>
        <time>2026-02-22T11:25:59Z</time>
      </trkpt>
      <trkpt lat="43.58714" lon="6.40941">
        <ele>636.9</ele>
        <time>2026-02-22T11:26:00Z</time>
      </trkpt>
      <trkpt lat="43.58714" lon="6.40941">
        <ele>636.9</ele>
        <time>2026-02-22T11:26:01Z</time>
      </trkpt>
      <trkpt lat="43.58713" lon="6.40941">
        <ele>637</ele>
        <time>2026-02-22T11:26:02Z</time>
      </trkpt>
      <trkpt lat="43.58713" lon="6.40941">
        <ele>637</ele>
        <time>2026-02-22T11:26:03Z</time>
      </trkpt>
      <trkpt lat="43.58713" lon="6.40941">
        <ele>637.1</ele>
        <time>2026-02-22T11:26:04Z</time>
      </trkpt>
      <trkpt lat="43.58713" lon="6.40941">
        <ele>637.1</ele>
        <time>2026-02-22T11:26:05Z</time>
      </trkpt>
      <trkpt lat="43.58713" lon="6.40941">
        <ele>637.2</ele>
        <time>2026-02-22T11:26:06Z</time>
      </trkpt>
      <trkpt lat="43.58713" lon="6.40941">
        <ele>637.2</ele>
        <time>2026-02-22T11:26:07Z</time>
      </trkpt>
      <trkpt lat="43.58712" lon="6.40941">
        <ele>637.3</ele>
        <time>2026-02-22T11:26:08Z</time>
      </trkpt>
      <trkpt lat="43.58712" lon="6.40941">
        <ele>637.4</ele>
        <time>2026-02-22T11:26:09Z</time>
      </trkpt>
      <trkpt lat="43.58712" lon="6.40941">
        <ele>637.4</ele>
        <time>2026-02-22T11:26:10Z</time>
      </trkpt>
      <trkpt lat="43.58712" lon="6.40942">
        <ele>637.4</ele>
        <time>2026-02-22T11:26:11Z</time>
      </trkpt>
      <trkpt lat="43.58712" lon="6.40943">
        <ele>637.3</ele>
        <time>2026-02-22T11:26:12Z</time>
      </trkpt>
      <trkpt lat="43.58712" lon="6.40944">
        <ele>637.4</ele>
        <time>2026-02-22T11:26:13Z</time>
      </trkpt>
      <trkpt lat="43.58711" lon="6.40945">
        <ele>637.4</ele>
        <time>2026-02-22T11:26:14Z</time>
      </trkpt>
      <trkpt lat="43.58711" lon="6.40946">
        <ele>637.4</ele>
        <time>2026-02-22T11:26:15Z</time>
      </trkpt>
      <trkpt lat="43.58711" lon="6.40947">
        <ele>637.3</ele>
        <time>2026-02-22T11:26:16Z</time>
      </trkpt>
      <trkpt lat="43.58711" lon="6.40948">
        <ele>637.3</ele>
        <time>2026-02-22T11:26:17Z</time>
      </trkpt>
      <trkpt lat="43.58711" lon="6.40949">
        <ele>637.2</ele>
        <time>2026-02-22T11:26:18Z</time>
      </trkpt>
      <trkpt lat="43.5871" lon="6.40949">
        <ele>637.2</ele>
        <time>2026-02-22T11:26:19Z</time>
      </trkpt>
      <trkpt lat="43.58709" lon="6.4095">
        <ele>637.1</ele>
        <time>2026-02-22T11:26:20Z</time>
      </trkpt>
      <trkpt lat="43.58708" lon="6.40951">
        <ele>637.1</ele>
        <time>2026-02-22T11:26:21Z</time>
      </trkpt>
      <trkpt lat="43.58708" lon="6.40952">
        <ele>637.1</ele>
        <time>2026-02-22T11:26:22Z</time>
      </trkpt>
      <trkpt lat="43.58707" lon="6.40952">
        <ele>637.1</ele>
        <time>2026-02-22T11:26:23Z</time>
      </trkpt>
      <trkpt lat="43.58707" lon="6.40953">
        <ele>637.1</ele>
        <time>2026-02-22T11:26:24Z</time>
      </trkpt>
      <trkpt lat="43.58707" lon="6.40955">
        <ele>637</ele>
        <time>2026-02-22T11:26:25Z</time>
      </trkpt>
      <trkpt lat="43.58706" lon="6.40956">
        <ele>636.9</ele>
        <time>2026-02-22T11:26:26Z</time>
      </trkpt>
      <trkpt lat="43.58705" lon="6.40957">
        <ele>636.8</ele>
        <time>2026-02-22T11:26:27Z</time>
      </trkpt>
      <trkpt lat="43.58704" lon="6.40957">
        <ele>636.7</ele>
        <time>2026-02-22T11:26:28Z</time>
      </trkpt>
      <trkpt lat="43.58704" lon="6.40958">
        <ele>636.7</ele>
        <time>2026-02-22T11:26:29Z</time>
      </trkpt>
      <trkpt lat="43.58703" lon="6.40958">
        <ele>636.6</ele>
        <time>2026-02-22T11:26:30Z</time>
      </trkpt>
      <trkpt lat="43.58702" lon="6.40958">
        <ele>636.6</ele>
        <time>2026-02-22T11:26:31Z</time>
      </trkpt>
      <trkpt lat="43.58702" lon="6.40959">
        <ele>636.5</ele>
        <time>2026-02-22T11:26:32Z</time>
      </trkpt>
      <trkpt lat="43.58701" lon="6.40961">
        <ele>636.5</ele>
        <time>2026-02-22T11:26:33Z</time>
      </trkpt>
      <trkpt lat="43.58701" lon="6.40962">
        <ele>636.4</ele>
        <time>2026-02-22T11:26:34Z</time>
      </trkpt>
      <trkpt lat="43.587" lon="6.40964">
        <ele>636.4</ele>
        <time>2026-02-22T11:26:35Z</time>
      </trkpt>
      <trkpt lat="43.587" lon="6.40965">
        <ele>636.4</ele>
        <time>2026-02-22T11:26:36Z</time>
      </trkpt>
      <trkpt lat="43.58699" lon="6.40966">
        <ele>636.4</ele>
        <time>2026-02-22T11:26:37Z</time>
      </trkpt>
      <trkpt lat="43.58699" lon="6.40967">
        <ele>636.4</ele>
        <time>2026-02-22T11:26:38Z</time>
      </trkpt>
      <trkpt lat="43.58698" lon="6.40968">
        <ele>636.4</ele>
        <time>2026-02-22T11:26:39Z</time>
      </trkpt>
      <trkpt lat="43.58697" lon="6.40969">
        <ele>636.4</ele>
        <time>2026-02-22T11:26:40Z</time>
      </trkpt>
      <trkpt lat="43.58696" lon="6.40969">
        <ele>636.4</ele>
        <time>2026-02-22T11:26:41Z</time>
      </trkpt>
      <trkpt lat="43.58696" lon="6.4097">
        <ele>636.4</ele>
        <time>2026-02-22T11:26:42Z</time>
      </trkpt>
      <trkpt lat="43.58695" lon="6.40971">
        <ele>636.4</ele>
        <time>2026-02-22T11:26:43Z</time>
      </trkpt>
      <trkpt lat="43.58695" lon="6.40972">
        <ele>636.4</ele>
        <time>2026-02-22T11:26:44Z</time>
      </trkpt>
      <trkpt lat="43.58694" lon="6.40973">
        <ele>636.2</ele>
        <time>2026-02-22T11:26:45Z</time>
      </trkpt>
      <trkpt lat="43.58693" lon="6.40974">
        <ele>636.2</ele>
        <time>2026-02-22T11:26:46Z</time>
      </trkpt>
      <trkpt lat="43.58693" lon="6.40976">
        <ele>636.1</ele>
        <time>2026-02-22T11:26:47Z</time>
      </trkpt>
      <trkpt lat="43.58692" lon="6.40976">
        <ele>635.9</ele>
        <time>2026-02-22T11:26:48Z</time>
      </trkpt>
      <trkpt lat="43.58692" lon="6.40977">
        <ele>635.9</ele>
        <time>2026-02-22T11:26:49Z</time>
      </trkpt>
      <trkpt lat="43.58691" lon="6.40976">
        <ele>636</ele>
        <time>2026-02-22T11:26:50Z</time>
      </trkpt>
      <trkpt lat="43.58691" lon="6.40977">
        <ele>636</ele>
        <time>2026-02-22T11:26:51Z</time>
      </trkpt>
      <trkpt lat="43.5869" lon="6.40977">
        <ele>636</ele>
        <time>2026-02-22T11:26:52Z</time>
      </trkpt>
      <trkpt lat="43.5869" lon="6.40977">
        <ele>636</ele>
        <time>2026-02-22T11:26:53Z</time>
      </trkpt>
      <trkpt lat="43.5869" lon="6.40977">
        <ele>636.2</ele>
        <time>2026-02-22T11:26:54Z</time>
      </trkpt>
      <trkpt lat="43.5869" lon="6.40976">
        <ele>636.3</ele>
        <time>2026-02-22T11:26:55Z</time>
      </trkpt>
      <trkpt lat="43.58689" lon="6.40976">
        <ele>636.4</ele>
        <time>2026-02-22T11:26:56Z</time>
      </trkpt>
      <trkpt lat="43.58688" lon="6.40976">
        <ele>636.5</ele>
        <time>2026-02-22T11:26:57Z</time>
      </trkpt>
      <trkpt lat="43.58687" lon="6.40976">
        <ele>636.6</ele>
        <time>2026-02-22T11:26:58Z</time>
      </trkpt>
      <trkpt lat="43.58687" lon="6.40977">
        <ele>636.6</ele>
        <time>2026-02-22T11:26:59Z</time>
      </trkpt>
      <trkpt lat="43.58686" lon="6.40977">
        <ele>636.7</ele>
        <time>2026-02-22T11:27:00Z</time>
      </trkpt>
      <trkpt lat="43.58685" lon="6.40978">
        <ele>636.8</ele>
        <time>2026-02-22T11:27:01Z</time>
      </trkpt>
      <trkpt lat="43.58685" lon="6.40978">
        <ele>636.8</ele>
        <time>2026-02-22T11:27:02Z</time>
      </trkpt>
      <trkpt lat="43.58684" lon="6.40979">
        <ele>636.9</ele>
        <time>2026-02-22T11:27:03Z</time>
      </trkpt>
      <trkpt lat="43.58683" lon="6.40979">
        <ele>637</ele>
        <time>2026-02-22T11:27:04Z</time>
      </trkpt>
      <trkpt lat="43.58683" lon="6.40979">
        <ele>637</ele>
        <time>2026-02-22T11:27:05Z</time>
      </trkpt>
      <trkpt lat="43.58682" lon="6.40979">
        <ele>637.1</ele>
        <time>2026-02-22T11:27:06Z</time>
      </trkpt>
      <trkpt lat="43.58681" lon="6.4098">
        <ele>637</ele>
        <time>2026-02-22T11:27:07Z</time>
      </trkpt>
      <trkpt lat="43.5868" lon="6.40979">
        <ele>637</ele>
        <time>2026-02-22T11:27:08Z</time>
      </trkpt>
      <trkpt lat="43.58679" lon="6.40979">
        <ele>637</ele>
        <time>2026-02-22T11:27:09Z</time>
      </trkpt>
      <trkpt lat="43.58677" lon="6.40979">
        <ele>637.1</ele>
        <time>2026-02-22T11:27:10Z</time>
      </trkpt>
      <trkpt lat="43.58676" lon="6.4098">
        <ele>637.2</ele>
        <time>2026-02-22T11:27:11Z</time>
      </trkpt>
      <trkpt lat="43.58675" lon="6.40981">
        <ele>637.2</ele>
        <time>2026-02-22T11:27:12Z</time>
      </trkpt>
      <trkpt lat="43.58674" lon="6.40984">
        <ele>637.3</ele>
        <time>2026-02-22T11:27:13Z</time>
      </trkpt>
      <trkpt lat="43.58673" lon="6.40984">
        <ele>637.3</ele>
        <time>2026-02-22T11:27:14Z</time>
      </trkpt>
      <trkpt lat="43.58673" lon="6.40984">
        <ele>637.3</ele>
        <time>2026-02-22T11:27:15Z</time>
      </trkpt>
      <trkpt lat="43.58672" lon="6.40984">
        <ele>637.4</ele>
        <time>2026-02-22T11:27:16Z</time>
      </trkpt>
      <trkpt lat="43.58672" lon="6.40984">
        <ele>637.4</ele>
        <time>2026-02-22T11:27:17Z</time>
      </trkpt>
      <trkpt lat="43.58671" lon="6.40984">
        <ele>637.4</ele>
        <time>2026-02-22T11:27:18Z</time>
      </trkpt>
      <trkpt lat="43.5867" lon="6.40984">
        <ele>637.4</ele>
        <time>2026-02-22T11:27:19Z</time>
      </trkpt>
      <trkpt lat="43.5867" lon="6.40984">
        <ele>637.4</ele>
        <time>2026-02-22T11:27:20Z</time>
      </trkpt>
      <trkpt lat="43.58669" lon="6.40984">
        <ele>637.4</ele>
        <time>2026-02-22T11:27:21Z</time>
      </trkpt>
      <trkpt lat="43.58669" lon="6.40985">
        <ele>637.4</ele>
        <time>2026-02-22T11:27:22Z</time>
      </trkpt>
      <trkpt lat="43.58668" lon="6.40986">
        <ele>637.4</ele>
        <time>2026-02-22T11:27:23Z</time>
      </trkpt>
      <trkpt lat="43.58667" lon="6.40986">
        <ele>637.4</ele>
        <time>2026-02-22T11:27:24Z</time>
      </trkpt>
      <trkpt lat="43.58666" lon="6.40986">
        <ele>637.4</ele>
        <time>2026-02-22T11:27:25Z</time>
      </trkpt>
      <trkpt lat="43.58665" lon="6.40986">
        <ele>637.4</ele>
        <time>2026-02-22T11:27:26Z</time>
      </trkpt>
      <trkpt lat="43.58664" lon="6.40986">
        <ele>637.4</ele>
        <time>2026-02-22T11:27:27Z</time>
      </trkpt>
      <trkpt lat="43.58664" lon="6.40986">
        <ele>637.5</ele>
        <time>2026-02-22T11:27:28Z</time>
      </trkpt>
      <trkpt lat="43.58664" lon="6.40987">
        <ele>637.5</ele>
        <time>2026-02-22T11:27:29Z</time>
      </trkpt>
      <trkpt lat="43.58663" lon="6.40988">
        <ele>637.5</ele>
        <time>2026-02-22T11:27:30Z</time>
      </trkpt>
      <trkpt lat="43.58662" lon="6.40989">
        <ele>637.5</ele>
        <time>2026-02-22T11:27:31Z</time>
      </trkpt>
      <trkpt lat="43.58662" lon="6.40991">
        <ele>637.3</ele>
        <time>2026-02-22T11:27:32Z</time>
      </trkpt>
      <trkpt lat="43.58661" lon="6.40992">
        <ele>637.2</ele>
        <time>2026-02-22T11:27:33Z</time>
      </trkpt>
      <trkpt lat="43.58661" lon="6.40992">
        <ele>637.1</ele>
        <time>2026-02-22T11:27:34Z</time>
      </trkpt>
      <trkpt lat="43.5866" lon="6.40992">
        <ele>637.1</ele>
        <time>2026-02-22T11:27:35Z</time>
      </trkpt>
      <trkpt lat="43.58659" lon="6.40992">
        <ele>637.1</ele>
        <time>2026-02-22T11:27:36Z</time>
      </trkpt>
      <trkpt lat="43.58659" lon="6.40992">
        <ele>637.1</ele>
        <time>2026-02-22T11:27:37Z</time>
      </trkpt>
      <trkpt lat="43.58658" lon="6.40993">
        <ele>637.1</ele>
        <time>2026-02-22T11:27:38Z</time>
      </trkpt>
      <trkpt lat="43.58657" lon="6.40992">
        <ele>637.2</ele>
        <time>2026-02-22T11:27:39Z</time>
      </trkpt>
      <trkpt lat="43.58657" lon="6.40992">
        <ele>637.3</ele>
        <time>2026-02-22T11:27:40Z</time>
      </trkpt>
      <trkpt lat="43.58656" lon="6.40993">
        <ele>637.3</ele>
        <time>2026-02-22T11:27:41Z</time>
      </trkpt>
      <trkpt lat="43.58653" lon="6.40992">
        <ele>637.3</ele>
        <time>2026-02-22T11:27:42Z</time>
      </trkpt>
      <trkpt lat="43.58652" lon="6.40991">
        <ele>637.3</ele>
        <time>2026-02-22T11:27:43Z</time>
      </trkpt>
      <trkpt lat="43.58651" lon="6.40992">
        <ele>637.3</ele>
        <time>2026-02-22T11:27:44Z</time>
      </trkpt>
      <trkpt lat="43.5865" lon="6.40991">
        <ele>637.3</ele>
        <time>2026-02-22T11:27:45Z</time>
      </trkpt>
      <trkpt lat="43.58648" lon="6.40991">
        <ele>637.3</ele>
        <time>2026-02-22T11:27:46Z</time>
      </trkpt>
      <trkpt lat="43.58647" lon="6.40992">
        <ele>637.3</ele>
        <time>2026-02-22T11:27:47Z</time>
      </trkpt>
      <trkpt lat="43.58646" lon="6.40992">
        <ele>637.3</ele>
        <time>2026-02-22T11:27:48Z</time>
      </trkpt>
      <trkpt lat="43.58645" lon="6.40992">
        <ele>637.3</ele>
        <time>2026-02-22T11:27:49Z</time>
      </trkpt>
      <trkpt lat="43.58644" lon="6.40992">
        <ele>637.4</ele>
        <time>2026-02-22T11:27:50Z</time>
      </trkpt>
      <trkpt lat="43.58643" lon="6.40991">
        <ele>637.3</ele>
        <time>2026-02-22T11:27:51Z</time>
      </trkpt>
      <trkpt lat="43.58642" lon="6.40993">
        <ele>637.3</ele>
        <time>2026-02-22T11:27:52Z</time>
      </trkpt>
      <trkpt lat="43.58641" lon="6.40993">
        <ele>637.4</ele>
        <time>2026-02-22T11:27:53Z</time>
      </trkpt>
      <trkpt lat="43.5864" lon="6.40994">
        <ele>637.4</ele>
        <time>2026-02-22T11:27:54Z</time>
      </trkpt>
      <trkpt lat="43.58639" lon="6.40993">
        <ele>637.4</ele>
        <time>2026-02-22T11:27:55Z</time>
      </trkpt>
      <trkpt lat="43.58638" lon="6.40993">
        <ele>637.4</ele>
        <time>2026-02-22T11:27:56Z</time>
      </trkpt>
      <trkpt lat="43.58637" lon="6.40993">
        <ele>637.4</ele>
        <time>2026-02-22T11:27:57Z</time>
      </trkpt>
      <trkpt lat="43.58637" lon="6.40993">
        <ele>637.5</ele>
        <time>2026-02-22T11:27:58Z</time>
      </trkpt>
      <trkpt lat="43.58636" lon="6.40993">
        <ele>637.6</ele>
        <time>2026-02-22T11:27:59Z</time>
      </trkpt>
      <trkpt lat="43.58636" lon="6.40994">
        <ele>637.5</ele>
        <time>2026-02-22T11:28:00Z</time>
      </trkpt>
      <trkpt lat="43.58635" lon="6.40994">
        <ele>637.5</ele>
        <time>2026-02-22T11:28:01Z</time>
      </trkpt>
      <trkpt lat="43.58634" lon="6.40995">
        <ele>637.5</ele>
        <time>2026-02-22T11:28:02Z</time>
      </trkpt>
      <trkpt lat="43.58633" lon="6.40995">
        <ele>637.5</ele>
        <time>2026-02-22T11:28:03Z</time>
      </trkpt>
      <trkpt lat="43.58631" lon="6.40996">
        <ele>637.5</ele>
        <time>2026-02-22T11:28:04Z</time>
      </trkpt>
      <trkpt lat="43.5863" lon="6.40996">
        <ele>637.5</ele>
        <time>2026-02-22T11:28:05Z</time>
      </trkpt>
      <trkpt lat="43.58629" lon="6.40997">
        <ele>637.5</ele>
        <time>2026-02-22T11:28:06Z</time>
      </trkpt>
      <trkpt lat="43.58628" lon="6.40998">
        <ele>637.4</ele>
        <time>2026-02-22T11:28:07Z</time>
      </trkpt>
      <trkpt lat="43.58628" lon="6.40999">
        <ele>637.3</ele>
        <time>2026-02-22T11:28:08Z</time>
      </trkpt>
      <trkpt lat="43.58628" lon="6.40999">
        <ele>637.3</ele>
        <time>2026-02-22T11:28:09Z</time>
      </trkpt>
      <trkpt lat="43.58627" lon="6.41">
        <ele>637.2</ele>
        <time>2026-02-22T11:28:10Z</time>
      </trkpt>
      <trkpt lat="43.58626" lon="6.41001">
        <ele>637.1</ele>
        <time>2026-02-22T11:28:11Z</time>
      </trkpt>
      <trkpt lat="43.58626" lon="6.41002">
        <ele>637.1</ele>
        <time>2026-02-22T11:28:12Z</time>
      </trkpt>
      <trkpt lat="43.58625" lon="6.41002">
        <ele>637.1</ele>
        <time>2026-02-22T11:28:13Z</time>
      </trkpt>
      <trkpt lat="43.58624" lon="6.41003">
        <ele>637.1</ele>
        <time>2026-02-22T11:28:14Z</time>
      </trkpt>
      <trkpt lat="43.58624" lon="6.41004">
        <ele>637</ele>
        <time>2026-02-22T11:28:15Z</time>
      </trkpt>
      <trkpt lat="43.58624" lon="6.41005">
        <ele>637</ele>
        <time>2026-02-22T11:28:16Z</time>
      </trkpt>
      <trkpt lat="43.58623" lon="6.41006">
        <ele>637</ele>
        <time>2026-02-22T11:28:17Z</time>
      </trkpt>
      <trkpt lat="43.58622" lon="6.41007">
        <ele>637.1</ele>
        <time>2026-02-22T11:28:18Z</time>
      </trkpt>
      <trkpt lat="43.58622" lon="6.41009">
        <ele>637.1</ele>
        <time>2026-02-22T11:28:19Z</time>
      </trkpt>
      <trkpt lat="43.58621" lon="6.4101">
        <ele>637</ele>
        <time>2026-02-22T11:28:20Z</time>
      </trkpt>
      <trkpt lat="43.58621" lon="6.41011">
        <ele>637</ele>
        <time>2026-02-22T11:28:21Z</time>
      </trkpt>
      <trkpt lat="43.5862" lon="6.41012">
        <ele>636.9</ele>
        <time>2026-02-22T11:28:22Z</time>
      </trkpt>
      <trkpt lat="43.5862" lon="6.41014">
        <ele>636.8</ele>
        <time>2026-02-22T11:28:23Z</time>
      </trkpt>
      <trkpt lat="43.58619" lon="6.41015">
        <ele>636.8</ele>
        <time>2026-02-22T11:28:24Z</time>
      </trkpt>
      <trkpt lat="43.58618" lon="6.41017">
        <ele>636.8</ele>
        <time>2026-02-22T11:28:25Z</time>
      </trkpt>
      <trkpt lat="43.58618" lon="6.41018">
        <ele>636.8</ele>
        <time>2026-02-22T11:28:26Z</time>
      </trkpt>
      <trkpt lat="43.58618" lon="6.4102">
        <ele>636.7</ele>
        <time>2026-02-22T11:28:27Z</time>
      </trkpt>
      <trkpt lat="43.58617" lon="6.41022">
        <ele>636.7</ele>
        <time>2026-02-22T11:28:28Z</time>
      </trkpt>
      <trkpt lat="43.58617" lon="6.41024">
        <ele>636.7</ele>
        <time>2026-02-22T11:28:29Z</time>
      </trkpt>
      <trkpt lat="43.58616" lon="6.41025">
        <ele>636.7</ele>
        <time>2026-02-22T11:28:30Z</time>
      </trkpt>
      <trkpt lat="43.58616" lon="6.41026">
        <ele>636.7</ele>
        <time>2026-02-22T11:28:31Z</time>
      </trkpt>
      <trkpt lat="43.58616" lon="6.41028">
        <ele>636.6</ele>
        <time>2026-02-22T11:28:32Z</time>
      </trkpt>
      <trkpt lat="43.58615" lon="6.41029">
        <ele>636.6</ele>
        <time>2026-02-22T11:28:33Z</time>
      </trkpt>
      <trkpt lat="43.58615" lon="6.41031">
        <ele>636.5</ele>
        <time>2026-02-22T11:28:34Z</time>
      </trkpt>
      <trkpt lat="43.58615" lon="6.41032">
        <ele>636.5</ele>
        <time>2026-02-22T11:28:35Z</time>
      </trkpt>
      <trkpt lat="43.58614" lon="6.41033">
        <ele>636.5</ele>
        <time>2026-02-22T11:28:36Z</time>
      </trkpt>
      <trkpt lat="43.58613" lon="6.41034">
        <ele>636.5</ele>
        <time>2026-02-22T11:28:37Z</time>
      </trkpt>
      <trkpt lat="43.58613" lon="6.41035">
        <ele>636.4</ele>
        <time>2026-02-22T11:28:38Z</time>
      </trkpt>
      <trkpt lat="43.58612" lon="6.41036">
        <ele>636.4</ele>
        <time>2026-02-22T11:28:39Z</time>
      </trkpt>
      <trkpt lat="43.58612" lon="6.41037">
        <ele>636.4</ele>
        <time>2026-02-22T11:28:40Z</time>
      </trkpt>
      <trkpt lat="43.58611" lon="6.41038">
        <ele>636.4</ele>
        <time>2026-02-22T11:28:41Z</time>
      </trkpt>
      <trkpt lat="43.5861" lon="6.41039">
        <ele>636.4</ele>
        <time>2026-02-22T11:28:42Z</time>
      </trkpt>
      <trkpt lat="43.58609" lon="6.4104">
        <ele>636.3</ele>
        <time>2026-02-22T11:28:43Z</time>
      </trkpt>
      <trkpt lat="43.58608" lon="6.4104">
        <ele>636.3</ele>
        <time>2026-02-22T11:28:44Z</time>
      </trkpt>
      <trkpt lat="43.58608" lon="6.41041">
        <ele>636.3</ele>
        <time>2026-02-22T11:28:45Z</time>
      </trkpt>
      <trkpt lat="43.58607" lon="6.41041">
        <ele>636.3</ele>
        <time>2026-02-22T11:28:46Z</time>
      </trkpt>
      <trkpt lat="43.58606" lon="6.41042">
        <ele>636.3</ele>
        <time>2026-02-22T11:28:47Z</time>
      </trkpt>
      <trkpt lat="43.58605" lon="6.41043">
        <ele>636.3</ele>
        <time>2026-02-22T11:28:48Z</time>
      </trkpt>
      <trkpt lat="43.58605" lon="6.41044">
        <ele>636.3</ele>
        <time>2026-02-22T11:28:49Z</time>
      </trkpt>
      <trkpt lat="43.58605" lon="6.41046">
        <ele>636.4</ele>
        <time>2026-02-22T11:28:50Z</time>
      </trkpt>
      <trkpt lat="43.58604" lon="6.41048">
        <ele>636.3</ele>
        <time>2026-02-22T11:28:51Z</time>
      </trkpt>
      <trkpt lat="43.58604" lon="6.41049">
        <ele>636.2</ele>
        <time>2026-02-22T11:28:52Z</time>
      </trkpt>
      <trkpt lat="43.58604" lon="6.4105">
        <ele>636.2</ele>
        <time>2026-02-22T11:28:53Z</time>
      </trkpt>
      <trkpt lat="43.58603" lon="6.41051">
        <ele>636.1</ele>
        <time>2026-02-22T11:28:54Z</time>
      </trkpt>
      <trkpt lat="43.58603" lon="6.41053">
        <ele>636.1</ele>
        <time>2026-02-22T11:28:55Z</time>
      </trkpt>
      <trkpt lat="43.58602" lon="6.41054">
        <ele>636.1</ele>
        <time>2026-02-22T11:28:56Z</time>
      </trkpt>
      <trkpt lat="43.58602" lon="6.41055">
        <ele>636.1</ele>
        <time>2026-02-22T11:28:57Z</time>
      </trkpt>
      <trkpt lat="43.58601" lon="6.41056">
        <ele>636.1</ele>
        <time>2026-02-22T11:28:58Z</time>
      </trkpt>
      <trkpt lat="43.58601" lon="6.41057">
        <ele>636.1</ele>
        <time>2026-02-22T11:28:59Z</time>
      </trkpt>
      <trkpt lat="43.58601" lon="6.41058">
        <ele>635.9</ele>
        <time>2026-02-22T11:29:00Z</time>
      </trkpt>
      <trkpt lat="43.58601" lon="6.41058">
        <ele>635.7</ele>
        <time>2026-02-22T11:29:01Z</time>
      </trkpt>
      <trkpt lat="43.586" lon="6.41059">
        <ele>635.7</ele>
        <time>2026-02-22T11:29:02Z</time>
      </trkpt>
      <trkpt lat="43.586" lon="6.41061">
        <ele>635.6</ele>
        <time>2026-02-22T11:29:03Z</time>
      </trkpt>
      <trkpt lat="43.58599" lon="6.41061">
        <ele>635.6</ele>
        <time>2026-02-22T11:29:04Z</time>
      </trkpt>
      <trkpt lat="43.58598" lon="6.41063">
        <ele>635.5</ele>
        <time>2026-02-22T11:29:05Z</time>
      </trkpt>
      <trkpt lat="43.58598" lon="6.41064">
        <ele>635.4</ele>
        <time>2026-02-22T11:29:06Z</time>
      </trkpt>
      <trkpt lat="43.58598" lon="6.41065">
        <ele>635.3</ele>
        <time>2026-02-22T11:29:07Z</time>
      </trkpt>
      <trkpt lat="43.58598" lon="6.41066">
        <ele>635.4</ele>
        <time>2026-02-22T11:29:08Z</time>
      </trkpt>
      <trkpt lat="43.58599" lon="6.41067">
        <ele>635.4</ele>
        <time>2026-02-22T11:29:09Z</time>
      </trkpt>
      <trkpt lat="43.58599" lon="6.41068">
        <ele>635.3</ele>
        <time>2026-02-22T11:29:10Z</time>
      </trkpt>
      <trkpt lat="43.58598" lon="6.41069">
        <ele>635.3</ele>
        <time>2026-02-22T11:29:11Z</time>
      </trkpt>
      <trkpt lat="43.58598" lon="6.4107">
        <ele>635.3</ele>
        <time>2026-02-22T11:29:12Z</time>
      </trkpt>
      <trkpt lat="43.58598" lon="6.41072">
        <ele>635.2</ele>
        <time>2026-02-22T11:29:13Z</time>
      </trkpt>
      <trkpt lat="43.58598" lon="6.41073">
        <ele>635.2</ele>
        <time>2026-02-22T11:29:14Z</time>
      </trkpt>
      <trkpt lat="43.58597" lon="6.41075">
        <ele>635.1</ele>
        <time>2026-02-22T11:29:15Z</time>
      </trkpt>
      <trkpt lat="43.58597" lon="6.41076">
        <ele>635</ele>
        <time>2026-02-22T11:29:16Z</time>
      </trkpt>
      <trkpt lat="43.58596" lon="6.41077">
        <ele>635</ele>
        <time>2026-02-22T11:29:17Z</time>
      </trkpt>
      <trkpt lat="43.58596" lon="6.41078">
        <ele>634.9</ele>
        <time>2026-02-22T11:29:18Z</time>
      </trkpt>
      <trkpt lat="43.58596" lon="6.41079">
        <ele>634.9</ele>
        <time>2026-02-22T11:29:19Z</time>
      </trkpt>
      <trkpt lat="43.58596" lon="6.4108">
        <ele>634.8</ele>
        <time>2026-02-22T11:29:20Z</time>
      </trkpt>
      <trkpt lat="43.58595" lon="6.4108">
        <ele>634.8</ele>
        <time>2026-02-22T11:29:21Z</time>
      </trkpt>
      <trkpt lat="43.58595" lon="6.41081">
        <ele>634.8</ele>
        <time>2026-02-22T11:29:22Z</time>
      </trkpt>
      <trkpt lat="43.58594" lon="6.41082">
        <ele>634.9</ele>
        <time>2026-02-22T11:29:23Z</time>
      </trkpt>
      <trkpt lat="43.58593" lon="6.41083">
        <ele>634.9</ele>
        <time>2026-02-22T11:29:24Z</time>
      </trkpt>
      <trkpt lat="43.58593" lon="6.41083">
        <ele>634.9</ele>
        <time>2026-02-22T11:29:25Z</time>
      </trkpt>
      <trkpt lat="43.58593" lon="6.41084">
        <ele>634.9</ele>
        <time>2026-02-22T11:29:26Z</time>
      </trkpt>
      <trkpt lat="43.58592" lon="6.41085">
        <ele>634.9</ele>
        <time>2026-02-22T11:29:27Z</time>
      </trkpt>
      <trkpt lat="43.58592" lon="6.41086">
        <ele>634.8</ele>
        <time>2026-02-22T11:29:28Z</time>
      </trkpt>
      <trkpt lat="43.58591" lon="6.41088">
        <ele>634.7</ele>
        <time>2026-02-22T11:29:29Z</time>
      </trkpt>
      <trkpt lat="43.5859" lon="6.41089">
        <ele>634.7</ele>
        <time>2026-02-22T11:29:30Z</time>
      </trkpt>
      <trkpt lat="43.5859" lon="6.4109">
        <ele>634.7</ele>
        <time>2026-02-22T11:29:31Z</time>
      </trkpt>
      <trkpt lat="43.58589" lon="6.41092">
        <ele>634.7</ele>
        <time>2026-02-22T11:29:32Z</time>
      </trkpt>
      <trkpt lat="43.58589" lon="6.41093">
        <ele>634.5</ele>
        <time>2026-02-22T11:29:33Z</time>
      </trkpt>
      <trkpt lat="43.58588" lon="6.41094">
        <ele>634.4</ele>
        <time>2026-02-22T11:29:34Z</time>
      </trkpt>
      <trkpt lat="43.58588" lon="6.41095">
        <ele>634.4</ele>
        <time>2026-02-22T11:29:35Z</time>
      </trkpt>
      <trkpt lat="43.58587" lon="6.41096">
        <ele>634.4</ele>
        <time>2026-02-22T11:29:36Z</time>
      </trkpt>
      <trkpt lat="43.58587" lon="6.41097">
        <ele>634.5</ele>
        <time>2026-02-22T11:29:37Z</time>
      </trkpt>
      <trkpt lat="43.58586" lon="6.41097">
        <ele>634.5</ele>
        <time>2026-02-22T11:29:38Z</time>
      </trkpt>
      <trkpt lat="43.58586" lon="6.41098">
        <ele>634.4</ele>
        <time>2026-02-22T11:29:39Z</time>
      </trkpt>
      <trkpt lat="43.58585" lon="6.41099">
        <ele>634.4</ele>
        <time>2026-02-22T11:29:40Z</time>
      </trkpt>
      <trkpt lat="43.58585" lon="6.41101">
        <ele>634.4</ele>
        <time>2026-02-22T11:29:41Z</time>
      </trkpt>
      <trkpt lat="43.58584" lon="6.41102">
        <ele>634.3</ele>
        <time>2026-02-22T11:29:42Z</time>
      </trkpt>
      <trkpt lat="43.58584" lon="6.41103">
        <ele>634.2</ele>
        <time>2026-02-22T11:29:43Z</time>
      </trkpt>
      <trkpt lat="43.58583" lon="6.41105">
        <ele>634.1</ele>
        <time>2026-02-22T11:29:44Z</time>
      </trkpt>
      <trkpt lat="43.58583" lon="6.41106">
        <ele>634.2</ele>
        <time>2026-02-22T11:29:45Z</time>
      </trkpt>
      <trkpt lat="43.58582" lon="6.41107">
        <ele>634.2</ele>
        <time>2026-02-22T11:29:46Z</time>
      </trkpt>
      <trkpt lat="43.58582" lon="6.41109">
        <ele>634.2</ele>
        <time>2026-02-22T11:29:47Z</time>
      </trkpt>
      <trkpt lat="43.58582" lon="6.41111">
        <ele>634.1</ele>
        <time>2026-02-22T11:29:48Z</time>
      </trkpt>
      <trkpt lat="43.58582" lon="6.41113">
        <ele>634.1</ele>
        <time>2026-02-22T11:29:49Z</time>
      </trkpt>
      <trkpt lat="43.58582" lon="6.41114">
        <ele>634</ele>
        <time>2026-02-22T11:29:50Z</time>
      </trkpt>
      <trkpt lat="43.58582" lon="6.41116">
        <ele>634</ele>
        <time>2026-02-22T11:29:51Z</time>
      </trkpt>
      <trkpt lat="43.58582" lon="6.41117">
        <ele>634</ele>
        <time>2026-02-22T11:29:52Z</time>
      </trkpt>
      <trkpt lat="43.58581" lon="6.41119">
        <ele>634</ele>
        <time>2026-02-22T11:29:53Z</time>
      </trkpt>
      <trkpt lat="43.58582" lon="6.4112">
        <ele>634</ele>
        <time>2026-02-22T11:29:54Z</time>
      </trkpt>
      <trkpt lat="43.58581" lon="6.41122">
        <ele>634</ele>
        <time>2026-02-22T11:29:55Z</time>
      </trkpt>
      <trkpt lat="43.58581" lon="6.41123">
        <ele>634</ele>
        <time>2026-02-22T11:29:56Z</time>
      </trkpt>
      <trkpt lat="43.5858" lon="6.41124">
        <ele>634.1</ele>
        <time>2026-02-22T11:29:57Z</time>
      </trkpt>
      <trkpt lat="43.5858" lon="6.41126">
        <ele>634</ele>
        <time>2026-02-22T11:29:58Z</time>
      </trkpt>
      <trkpt lat="43.5858" lon="6.41127">
        <ele>634</ele>
        <time>2026-02-22T11:29:59Z</time>
      </trkpt>
      <trkpt lat="43.5858" lon="6.41127">
        <ele>634</ele>
        <time>2026-02-22T11:30:00Z</time>
      </trkpt>
      <trkpt lat="43.5858" lon="6.41127">
        <ele>633.9</ele>
        <time>2026-02-22T11:30:01Z</time>
      </trkpt>
      <trkpt lat="43.5858" lon="6.41127">
        <ele>633.8</ele>
        <time>2026-02-22T11:30:02Z</time>
      </trkpt>
      <trkpt lat="43.5858" lon="6.41127">
        <ele>633.7</ele>
        <time>2026-02-22T11:30:03Z</time>
      </trkpt>
      <trkpt lat="43.58579" lon="6.41126">
        <ele>633.7</ele>
        <time>2026-02-22T11:30:04Z</time>
      </trkpt>
      <trkpt lat="43.58579" lon="6.41127">
        <ele>633.8</ele>
        <time>2026-02-22T11:30:05Z</time>
      </trkpt>
      <trkpt lat="43.58579" lon="6.41128">
        <ele>633.8</ele>
        <time>2026-02-22T11:30:06Z</time>
      </trkpt>
      <trkpt lat="43.58579" lon="6.41129">
        <ele>633.8</ele>
        <time>2026-02-22T11:30:07Z</time>
      </trkpt>
      <trkpt lat="43.58579" lon="6.41129">
        <ele>633.9</ele>
        <time>2026-02-22T11:30:08Z</time>
      </trkpt>
      <trkpt lat="43.58579" lon="6.4113">
        <ele>634</ele>
        <time>2026-02-22T11:30:09Z</time>
      </trkpt>
      <trkpt lat="43.58579" lon="6.41131">
        <ele>634</ele>
        <time>2026-02-22T11:30:10Z</time>
      </trkpt>
      <trkpt lat="43.58579" lon="6.41132">
        <ele>634</ele>
        <time>2026-02-22T11:30:11Z</time>
      </trkpt>
      <trkpt lat="43.58579" lon="6.41132">
        <ele>634</ele>
        <time>2026-02-22T11:30:12Z</time>
      </trkpt>
      <trkpt lat="43.58579" lon="6.41132">
        <ele>634</ele>
        <time>2026-02-22T11:30:13Z</time>
      </trkpt>
      <trkpt lat="43.58579" lon="6.41132">
        <ele>634</ele>
        <time>2026-02-22T11:30:14Z</time>
      </trkpt>
      <trkpt lat="43.58579" lon="6.41132">
        <ele>634.1</ele>
        <time>2026-02-22T11:30:15Z</time>
      </trkpt>
      <trkpt lat="43.58579" lon="6.41132">
        <ele>634.1</ele>
        <time>2026-02-22T11:30:16Z</time>
      </trkpt>
      <trkpt lat="43.58579" lon="6.41132">
        <ele>634.1</ele>
        <time>2026-02-22T11:30:17Z</time>
      </trkpt>
      <trkpt lat="43.58579" lon="6.41133">
        <ele>634.2</ele>
        <time>2026-02-22T11:30:18Z</time>
      </trkpt>
      <trkpt lat="43.58579" lon="6.41133">
        <ele>634.2</ele>
        <time>2026-02-22T11:30:19Z</time>
      </trkpt>
      <trkpt lat="43.58579" lon="6.41133">
        <ele>634.2</ele>
        <time>2026-02-22T11:30:20Z</time>
      </trkpt>
      <trkpt lat="43.58579" lon="6.41133">
        <ele>634.1</ele>
        <time>2026-02-22T11:30:21Z</time>
      </trkpt>
      <trkpt lat="43.58579" lon="6.41133">
        <ele>634</ele>
        <time>2026-02-22T11:30:22Z</time>
      </trkpt>
      <trkpt lat="43.58579" lon="6.41133">
        <ele>634</ele>
        <time>2026-02-22T11:30:23Z</time>
      </trkpt>
      <trkpt lat="43.58579" lon="6.41133">
        <ele>633.9</ele>
        <time>2026-02-22T11:30:24Z</time>
      </trkpt>
      <trkpt lat="43.58579" lon="6.41133">
        <ele>633.9</ele>
        <time>2026-02-22T11:30:25Z</time>
      </trkpt>
      <trkpt lat="43.58579" lon="6.41133">
        <ele>634</ele>
        <time>2026-02-22T11:30:26Z</time>
      </trkpt>
      <trkpt lat="43.58579" lon="6.41133">
        <ele>634.1</ele>
        <time>2026-02-22T11:30:27Z</time>
      </trkpt>
      <trkpt lat="43.58579" lon="6.41133">
        <ele>634.1</ele>
        <time>2026-02-22T11:30:28Z</time>
      </trkpt>
      <trkpt lat="43.58579" lon="6.41133">
        <ele>634.1</ele>
        <time>2026-02-22T11:30:29Z</time>
      </trkpt>
      <trkpt lat="43.58579" lon="6.41133">
        <ele>634.1</ele>
        <time>2026-02-22T11:30:30Z</time>
      </trkpt>
      <trkpt lat="43.58579" lon="6.41133">
        <ele>634</ele>
        <time>2026-02-22T11:30:31Z</time>
      </trkpt>
      <trkpt lat="43.58579" lon="6.41134">
        <ele>634</ele>
        <time>2026-02-22T11:30:32Z</time>
      </trkpt>
      <trkpt lat="43.58579" lon="6.41134">
        <ele>633.9</ele>
        <time>2026-02-22T11:30:33Z</time>
      </trkpt>
      <trkpt lat="43.58579" lon="6.41134">
        <ele>633.9</ele>
        <time>2026-02-22T11:30:34Z</time>
      </trkpt>
      <trkpt lat="43.58579" lon="6.41134">
        <ele>633.8</ele>
        <time>2026-02-22T11:30:35Z</time>
      </trkpt>
      <trkpt lat="43.58579" lon="6.41134">
        <ele>633.8</ele>
        <time>2026-02-22T11:30:36Z</time>
      </trkpt>
      <trkpt lat="43.58579" lon="6.41134">
        <ele>633.8</ele>
        <time>2026-02-22T11:30:37Z</time>
      </trkpt>
      <trkpt lat="43.58579" lon="6.41134">
        <ele>633.7</ele>
        <time>2026-02-22T11:30:38Z</time>
      </trkpt>
      <trkpt lat="43.58579" lon="6.41135">
        <ele>633.7</ele>
        <time>2026-02-22T11:30:39Z</time>
      </trkpt>
      <trkpt lat="43.58579" lon="6.41135">
        <ele>633.7</ele>
        <time>2026-02-22T11:30:40Z</time>
      </trkpt>
      <trkpt lat="43.58579" lon="6.41134">
        <ele>633.7</ele>
        <time>2026-02-22T11:30:41Z</time>
      </trkpt>
      <trkpt lat="43.58579" lon="6.41134">
        <ele>633.7</ele>
        <time>2026-02-22T11:30:42Z</time>
      </trkpt>
      <trkpt lat="43.58579" lon="6.41134">
        <ele>633.7</ele>
        <time>2026-02-22T11:30:43Z</time>
      </trkpt>
      <trkpt lat="43.58579" lon="6.41134">
        <ele>633.7</ele>
        <time>2026-02-22T11:30:44Z</time>
      </trkpt>
      <trkpt lat="43.58579" lon="6.41134">
        <ele>633.8</ele>
        <time>2026-02-22T11:30:45Z</time>
      </trkpt>
      <trkpt lat="43.58579" lon="6.41134">
        <ele>633.8</ele>
        <time>2026-02-22T11:30:46Z</time>
      </trkpt>
      <trkpt lat="43.58579" lon="6.41135">
        <ele>633.8</ele>
        <time>2026-02-22T11:30:47Z</time>
      </trkpt>
      <trkpt lat="43.58578" lon="6.41135">
        <ele>633.9</ele>
        <time>2026-02-22T11:30:48Z</time>
      </trkpt>
      <trkpt lat="43.58578" lon="6.41135">
        <ele>634</ele>
        <time>2026-02-22T11:30:49Z</time>
      </trkpt>
      <trkpt lat="43.58578" lon="6.41135">
        <ele>633.9</ele>
        <time>2026-02-22T11:30:50Z</time>
      </trkpt>
      <trkpt lat="43.58577" lon="6.41136">
        <ele>633.9</ele>
        <time>2026-02-22T11:30:51Z</time>
      </trkpt>
      <trkpt lat="43.58578" lon="6.41136">
        <ele>633.9</ele>
        <time>2026-02-22T11:30:52Z</time>
      </trkpt>
      <trkpt lat="43.58577" lon="6.41136">
        <ele>633.9</ele>
        <time>2026-02-22T11:30:53Z</time>
      </trkpt>
      <trkpt lat="43.58577" lon="6.41136">
        <ele>633.9</ele>
        <time>2026-02-22T11:30:54Z</time>
      </trkpt>
      <trkpt lat="43.58578" lon="6.41136">
        <ele>633.9</ele>
        <time>2026-02-22T11:30:55Z</time>
      </trkpt>
      <trkpt lat="43.58578" lon="6.41136">
        <ele>633.9</ele>
        <time>2026-02-22T11:30:56Z</time>
      </trkpt>
      <trkpt lat="43.58577" lon="6.41136">
        <ele>633.9</ele>
        <time>2026-02-22T11:30:57Z</time>
      </trkpt>
      <trkpt lat="43.58577" lon="6.41137">
        <ele>633.9</ele>
        <time>2026-02-22T11:30:58Z</time>
      </trkpt>
      <trkpt lat="43.58578" lon="6.41136">
        <ele>633.9</ele>
        <time>2026-02-22T11:30:59Z</time>
      </trkpt>
      <trkpt lat="43.58577" lon="6.41136">
        <ele>633.9</ele>
        <time>2026-02-22T11:31:00Z</time>
      </trkpt>
      <trkpt lat="43.58577" lon="6.41136">
        <ele>633.9</ele>
        <time>2026-02-22T11:31:01Z</time>
      </trkpt>
      <trkpt lat="43.58577" lon="6.41136">
        <ele>634</ele>
        <time>2026-02-22T11:31:02Z</time>
      </trkpt>
      <trkpt lat="43.58577" lon="6.41136">
        <ele>634</ele>
        <time>2026-02-22T11:31:03Z</time>
      </trkpt>
      <trkpt lat="43.58577" lon="6.41136">
        <ele>634</ele>
        <time>2026-02-22T11:31:04Z</time>
      </trkpt>
      <trkpt lat="43.58577" lon="6.41136">
        <ele>634.1</ele>
        <time>2026-02-22T11:31:05Z</time>
      </trkpt>
      <trkpt lat="43.58577" lon="6.41136">
        <ele>634</ele>
        <time>2026-02-22T11:31:06Z</time>
      </trkpt>
      <trkpt lat="43.58577" lon="6.41136">
        <ele>634</ele>
        <time>2026-02-22T11:31:07Z</time>
      </trkpt>
      <trkpt lat="43.58577" lon="6.41136">
        <ele>634</ele>
        <time>2026-02-22T11:31:08Z</time>
      </trkpt>
      <trkpt lat="43.58576" lon="6.41136">
        <ele>634.1</ele>
        <time>2026-02-22T11:31:09Z</time>
      </trkpt>
      <trkpt lat="43.58577" lon="6.41136">
        <ele>634.1</ele>
        <time>2026-02-22T11:31:10Z</time>
      </trkpt>
      <trkpt lat="43.58577" lon="6.41137">
        <ele>634.2</ele>
        <time>2026-02-22T11:31:11Z</time>
      </trkpt>
      <trkpt lat="43.58579" lon="6.41137">
        <ele>634.2</ele>
        <time>2026-02-22T11:31:12Z</time>
      </trkpt>
      <trkpt lat="43.5858" lon="6.41137">
        <ele>634.2</ele>
        <time>2026-02-22T11:31:13Z</time>
      </trkpt>
      <trkpt lat="43.5858" lon="6.41137">
        <ele>634.1</ele>
        <time>2026-02-22T11:31:14Z</time>
      </trkpt>
      <trkpt lat="43.58581" lon="6.41138">
        <ele>634.1</ele>
        <time>2026-02-22T11:31:15Z</time>
      </trkpt>
      <trkpt lat="43.58582" lon="6.41138">
        <ele>634.1</ele>
        <time>2026-02-22T11:31:16Z</time>
      </trkpt>
      <trkpt lat="43.58583" lon="6.41139">
        <ele>634.1</ele>
        <time>2026-02-22T11:31:17Z</time>
      </trkpt>
      <trkpt lat="43.58583" lon="6.41139">
        <ele>634</ele>
        <time>2026-02-22T11:31:18Z</time>
      </trkpt>
      <trkpt lat="43.58584" lon="6.4114">
        <ele>634</ele>
        <time>2026-02-22T11:31:19Z</time>
      </trkpt>
      <trkpt lat="43.58585" lon="6.41141">
        <ele>634.1</ele>
        <time>2026-02-22T11:31:20Z</time>
      </trkpt>
      <trkpt lat="43.58585" lon="6.41141">
        <ele>634.2</ele>
        <time>2026-02-22T11:31:21Z</time>
      </trkpt>
      <trkpt lat="43.58587" lon="6.41141">
        <ele>634.2</ele>
        <time>2026-02-22T11:31:22Z</time>
      </trkpt>
      <trkpt lat="43.58587" lon="6.41141">
        <ele>634.1</ele>
        <time>2026-02-22T11:31:23Z</time>
      </trkpt>
      <trkpt lat="43.58588" lon="6.41141">
        <ele>634</ele>
        <time>2026-02-22T11:31:24Z</time>
      </trkpt>
      <trkpt lat="43.58589" lon="6.41141">
        <ele>634</ele>
        <time>2026-02-22T11:31:25Z</time>
      </trkpt>
      <trkpt lat="43.5859" lon="6.41141">
        <ele>633.9</ele>
        <time>2026-02-22T11:31:26Z</time>
      </trkpt>
      <trkpt lat="43.58591" lon="6.41141">
        <ele>633.9</ele>
        <time>2026-02-22T11:31:27Z</time>
      </trkpt>
      <trkpt lat="43.58592" lon="6.41141">
        <ele>633.9</ele>
        <time>2026-02-22T11:31:28Z</time>
      </trkpt>
      <trkpt lat="43.58593" lon="6.41141">
        <ele>634</ele>
        <time>2026-02-22T11:31:29Z</time>
      </trkpt>
      <trkpt lat="43.58594" lon="6.41142">
        <ele>634.1</ele>
        <time>2026-02-22T11:31:30Z</time>
      </trkpt>
      <trkpt lat="43.58595" lon="6.41143">
        <ele>634.1</ele>
        <time>2026-02-22T11:31:31Z</time>
      </trkpt>
      <trkpt lat="43.58596" lon="6.41143">
        <ele>634.1</ele>
        <time>2026-02-22T11:31:32Z</time>
      </trkpt>
      <trkpt lat="43.58597" lon="6.41143">
        <ele>634.1</ele>
        <time>2026-02-22T11:31:33Z</time>
      </trkpt>
      <trkpt lat="43.58598" lon="6.41143">
        <ele>634.2</ele>
        <time>2026-02-22T11:31:34Z</time>
      </trkpt>
      <trkpt lat="43.58599" lon="6.41143">
        <ele>634.3</ele>
        <time>2026-02-22T11:31:35Z</time>
      </trkpt>
      <trkpt lat="43.586" lon="6.41144">
        <ele>634.3</ele>
        <time>2026-02-22T11:31:36Z</time>
      </trkpt>
      <trkpt lat="43.58601" lon="6.41145">
        <ele>634.3</ele>
        <time>2026-02-22T11:31:37Z</time>
      </trkpt>
      <trkpt lat="43.58601" lon="6.41145">
        <ele>634.3</ele>
        <time>2026-02-22T11:31:38Z</time>
      </trkpt>
      <trkpt lat="43.58602" lon="6.41145">
        <ele>634.3</ele>
        <time>2026-02-22T11:31:39Z</time>
      </trkpt>
      <trkpt lat="43.58603" lon="6.41146">
        <ele>634.3</ele>
        <time>2026-02-22T11:31:40Z</time>
      </trkpt>
      <trkpt lat="43.58603" lon="6.41146">
        <ele>634.3</ele>
        <time>2026-02-22T11:31:41Z</time>
      </trkpt>
      <trkpt lat="43.58604" lon="6.41146">
        <ele>634.4</ele>
        <time>2026-02-22T11:31:42Z</time>
      </trkpt>
      <trkpt lat="43.58605" lon="6.41147">
        <ele>634.3</ele>
        <time>2026-02-22T11:31:43Z</time>
      </trkpt>
      <trkpt lat="43.58606" lon="6.41147">
        <ele>634.4</ele>
        <time>2026-02-22T11:31:44Z</time>
      </trkpt>
      <trkpt lat="43.58606" lon="6.41146">
        <ele>634.4</ele>
        <time>2026-02-22T11:31:45Z</time>
      </trkpt>
      <trkpt lat="43.58607" lon="6.41146">
        <ele>634.4</ele>
        <time>2026-02-22T11:31:46Z</time>
      </trkpt>
      <trkpt lat="43.58608" lon="6.41146">
        <ele>634.4</ele>
        <time>2026-02-22T11:31:47Z</time>
      </trkpt>
      <trkpt lat="43.58609" lon="6.41146">
        <ele>634.3</ele>
        <time>2026-02-22T11:31:48Z</time>
      </trkpt>
      <trkpt lat="43.5861" lon="6.41147">
        <ele>634.3</ele>
        <time>2026-02-22T11:31:49Z</time>
      </trkpt>
      <trkpt lat="43.58611" lon="6.41148">
        <ele>634.3</ele>
        <time>2026-02-22T11:31:50Z</time>
      </trkpt>
      <trkpt lat="43.58611" lon="6.41149">
        <ele>634.3</ele>
        <time>2026-02-22T11:31:51Z</time>
      </trkpt>
      <trkpt lat="43.58612" lon="6.41149">
        <ele>634.1</ele>
        <time>2026-02-22T11:31:52Z</time>
      </trkpt>
      <trkpt lat="43.58613" lon="6.41149">
        <ele>633.9</ele>
        <time>2026-02-22T11:31:53Z</time>
      </trkpt>
      <trkpt lat="43.58614" lon="6.4115">
        <ele>633.8</ele>
        <time>2026-02-22T11:31:54Z</time>
      </trkpt>
      <trkpt lat="43.58614" lon="6.4115">
        <ele>633.7</ele>
        <time>2026-02-22T11:31:55Z</time>
      </trkpt>
      <trkpt lat="43.58615" lon="6.41151">
        <ele>633.6</ele>
        <time>2026-02-22T11:31:56Z</time>
      </trkpt>
      <trkpt lat="43.58615" lon="6.41152">
        <ele>633.6</ele>
        <time>2026-02-22T11:31:57Z</time>
      </trkpt>
      <trkpt lat="43.58616" lon="6.41152">
        <ele>633.5</ele>
        <time>2026-02-22T11:31:58Z</time>
      </trkpt>
      <trkpt lat="43.58617" lon="6.41153">
        <ele>633.4</ele>
        <time>2026-02-22T11:31:59Z</time>
      </trkpt>
      <trkpt lat="43.58618" lon="6.41153">
        <ele>633.4</ele>
        <time>2026-02-22T11:32:00Z</time>
      </trkpt>
      <trkpt lat="43.58618" lon="6.41154">
        <ele>633.4</ele>
        <time>2026-02-22T11:32:01Z</time>
      </trkpt>
      <trkpt lat="43.58619" lon="6.41154">
        <ele>633.4</ele>
        <time>2026-02-22T11:32:02Z</time>
      </trkpt>
      <trkpt lat="43.5862" lon="6.41155">
        <ele>633.3</ele>
        <time>2026-02-22T11:32:03Z</time>
      </trkpt>
      <trkpt lat="43.58621" lon="6.41155">
        <ele>633.2</ele>
        <time>2026-02-22T11:32:04Z</time>
      </trkpt>
      <trkpt lat="43.58622" lon="6.41156">
        <ele>633.1</ele>
        <time>2026-02-22T11:32:05Z</time>
      </trkpt>
      <trkpt lat="43.58623" lon="6.41156">
        <ele>632.9</ele>
        <time>2026-02-22T11:32:06Z</time>
      </trkpt>
      <trkpt lat="43.58624" lon="6.41157">
        <ele>632.8</ele>
        <time>2026-02-22T11:32:07Z</time>
      </trkpt>
      <trkpt lat="43.58625" lon="6.41157">
        <ele>632.7</ele>
        <time>2026-02-22T11:32:08Z</time>
      </trkpt>
      <trkpt lat="43.58625" lon="6.41157">
        <ele>632.5</ele>
        <time>2026-02-22T11:32:09Z</time>
      </trkpt>
      <trkpt lat="43.58626" lon="6.41157">
        <ele>632.4</ele>
        <time>2026-02-22T11:32:10Z</time>
      </trkpt>
      <trkpt lat="43.58627" lon="6.41158">
        <ele>632.1</ele>
        <time>2026-02-22T11:32:11Z</time>
      </trkpt>
      <trkpt lat="43.58628" lon="6.41158">
        <ele>631.9</ele>
        <time>2026-02-22T11:32:12Z</time>
      </trkpt>
      <trkpt lat="43.58628" lon="6.41159">
        <ele>631.7</ele>
        <time>2026-02-22T11:32:13Z</time>
      </trkpt>
      <trkpt lat="43.58629" lon="6.41159">
        <ele>631.6</ele>
        <time>2026-02-22T11:32:14Z</time>
      </trkpt>
      <trkpt lat="43.58629" lon="6.41159">
        <ele>631.5</ele>
        <time>2026-02-22T11:32:15Z</time>
      </trkpt>
      <trkpt lat="43.5863" lon="6.4116">
        <ele>631.4</ele>
        <time>2026-02-22T11:32:16Z</time>
      </trkpt>
      <trkpt lat="43.58631" lon="6.4116">
        <ele>631.2</ele>
        <time>2026-02-22T11:32:17Z</time>
      </trkpt>
      <trkpt lat="43.58631" lon="6.41161">
        <ele>631.1</ele>
        <time>2026-02-22T11:32:18Z</time>
      </trkpt>
      <trkpt lat="43.58632" lon="6.41161">
        <ele>631</ele>
        <time>2026-02-22T11:32:19Z</time>
      </trkpt>
      <trkpt lat="43.58633" lon="6.41162">
        <ele>630.8</ele>
        <time>2026-02-22T11:32:20Z</time>
      </trkpt>
      <trkpt lat="43.58633" lon="6.41163">
        <ele>630.6</ele>
        <time>2026-02-22T11:32:21Z</time>
      </trkpt>
      <trkpt lat="43.58633" lon="6.41163">
        <ele>630.5</ele>
        <time>2026-02-22T11:32:22Z</time>
      </trkpt>
      <trkpt lat="43.58633" lon="6.41164">
        <ele>630.3</ele>
        <time>2026-02-22T11:32:23Z</time>
      </trkpt>
      <trkpt lat="43.58634" lon="6.41165">
        <ele>630.2</ele>
        <time>2026-02-22T11:32:24Z</time>
      </trkpt>
      <trkpt lat="43.58635" lon="6.41166">
        <ele>630.1</ele>
        <time>2026-02-22T11:32:25Z</time>
      </trkpt>
      <trkpt lat="43.58635" lon="6.41167">
        <ele>630</ele>
        <time>2026-02-22T11:32:26Z</time>
      </trkpt>
      <trkpt lat="43.58636" lon="6.41168">
        <ele>629.8</ele>
        <time>2026-02-22T11:32:27Z</time>
      </trkpt>
      <trkpt lat="43.58636" lon="6.41168">
        <ele>629.7</ele>
        <time>2026-02-22T11:32:28Z</time>
      </trkpt>
      <trkpt lat="43.58637" lon="6.41168">
        <ele>629.5</ele>
        <time>2026-02-22T11:32:29Z</time>
      </trkpt>
      <trkpt lat="43.58638" lon="6.41168">
        <ele>629.4</ele>
        <time>2026-02-22T11:32:30Z</time>
      </trkpt>
      <trkpt lat="43.58639" lon="6.41168">
        <ele>629.2</ele>
        <time>2026-02-22T11:32:31Z</time>
      </trkpt>
      <trkpt lat="43.5864" lon="6.41168">
        <ele>629</ele>
        <time>2026-02-22T11:32:32Z</time>
      </trkpt>
      <trkpt lat="43.5864" lon="6.41168">
        <ele>628.8</ele>
        <time>2026-02-22T11:32:33Z</time>
      </trkpt>
      <trkpt lat="43.58641" lon="6.41169">
        <ele>628.7</ele>
        <time>2026-02-22T11:32:34Z</time>
      </trkpt>
      <trkpt lat="43.58641" lon="6.41169">
        <ele>628.4</ele>
        <time>2026-02-22T11:32:35Z</time>
      </trkpt>
      <trkpt lat="43.58642" lon="6.4117">
        <ele>628.3</ele>
        <time>2026-02-22T11:32:36Z</time>
      </trkpt>
      <trkpt lat="43.58642" lon="6.41171">
        <ele>628.2</ele>
        <time>2026-02-22T11:32:37Z</time>
      </trkpt>
      <trkpt lat="43.58643" lon="6.41171">
        <ele>628.1</ele>
        <time>2026-02-22T11:32:38Z</time>
      </trkpt>
      <trkpt lat="43.58643" lon="6.41171">
        <ele>628</ele>
        <time>2026-02-22T11:32:39Z</time>
      </trkpt>
      <trkpt lat="43.58643" lon="6.41171">
        <ele>627.8</ele>
        <time>2026-02-22T11:32:40Z</time>
      </trkpt>
      <trkpt lat="43.58643" lon="6.41171">
        <ele>627.7</ele>
        <time>2026-02-22T11:32:41Z</time>
      </trkpt>
      <trkpt lat="43.58643" lon="6.41172">
        <ele>627.6</ele>
        <time>2026-02-22T11:32:42Z</time>
      </trkpt>
      <trkpt lat="43.58643" lon="6.41171">
        <ele>627.5</ele>
        <time>2026-02-22T11:32:43Z</time>
      </trkpt>
      <trkpt lat="43.58643" lon="6.41171">
        <ele>627.6</ele>
        <time>2026-02-22T11:32:44Z</time>
      </trkpt>
      <trkpt lat="43.58643" lon="6.41171">
        <ele>627.6</ele>
        <time>2026-02-22T11:32:45Z</time>
      </trkpt>
      <trkpt lat="43.58643" lon="6.41171">
        <ele>627.6</ele>
        <time>2026-02-22T11:32:46Z</time>
      </trkpt>
      <trkpt lat="43.58643" lon="6.41171">
        <ele>627.6</ele>
        <time>2026-02-22T11:32:47Z</time>
      </trkpt>
      <trkpt lat="43.58643" lon="6.41171">
        <ele>627.5</ele>
        <time>2026-02-22T11:32:48Z</time>
      </trkpt>
      <trkpt lat="43.58643" lon="6.41172">
        <ele>627.5</ele>
        <time>2026-02-22T11:32:49Z</time>
      </trkpt>
      <trkpt lat="43.58643" lon="6.41171">
        <ele>627.5</ele>
        <time>2026-02-22T11:32:50Z</time>
      </trkpt>
      <trkpt lat="43.58643" lon="6.41171">
        <ele>627.3</ele>
        <time>2026-02-22T11:32:51Z</time>
      </trkpt>
      <trkpt lat="43.58644" lon="6.4117">
        <ele>627.2</ele>
        <time>2026-02-22T11:32:52Z</time>
      </trkpt>
      <trkpt lat="43.58644" lon="6.4117">
        <ele>627.1</ele>
        <time>2026-02-22T11:32:53Z</time>
      </trkpt>
      <trkpt lat="43.58644" lon="6.41171">
        <ele>627.1</ele>
        <time>2026-02-22T11:32:54Z</time>
      </trkpt>
      <trkpt lat="43.58644" lon="6.4117">
        <ele>627</ele>
        <time>2026-02-22T11:32:55Z</time>
      </trkpt>
      <trkpt lat="43.58644" lon="6.41169">
        <ele>627</ele>
        <time>2026-02-22T11:32:56Z</time>
      </trkpt>
      <trkpt lat="43.58644" lon="6.41169">
        <ele>627</ele>
        <time>2026-02-22T11:32:57Z</time>
      </trkpt>
      <trkpt lat="43.58645" lon="6.41169">
        <ele>626.9</ele>
        <time>2026-02-22T11:32:58Z</time>
      </trkpt>
      <trkpt lat="43.58645" lon="6.4117">
        <ele>626.9</ele>
        <time>2026-02-22T11:32:59Z</time>
      </trkpt>
      <trkpt lat="43.58645" lon="6.4117">
        <ele>626.8</ele>
        <time>2026-02-22T11:33:00Z</time>
      </trkpt>
      <trkpt lat="43.58644" lon="6.4117">
        <ele>626.8</ele>
        <time>2026-02-22T11:33:01Z</time>
      </trkpt>
      <trkpt lat="43.58644" lon="6.4117">
        <ele>626.6</ele>
        <time>2026-02-22T11:33:02Z</time>
      </trkpt>
      <trkpt lat="43.58645" lon="6.4117">
        <ele>626.5</ele>
        <time>2026-02-22T11:33:03Z</time>
      </trkpt>
      <trkpt lat="43.58645" lon="6.4117">
        <ele>626.5</ele>
        <time>2026-02-22T11:33:04Z</time>
      </trkpt>
      <trkpt lat="43.58645" lon="6.4117">
        <ele>626.4</ele>
        <time>2026-02-22T11:33:05Z</time>
      </trkpt>
      <trkpt lat="43.58645" lon="6.41171">
        <ele>626.4</ele>
        <time>2026-02-22T11:33:06Z</time>
      </trkpt>
      <trkpt lat="43.58645" lon="6.41172">
        <ele>626.3</ele>
        <time>2026-02-22T11:33:07Z</time>
      </trkpt>
      <trkpt lat="43.58645" lon="6.41172">
        <ele>626.3</ele>
        <time>2026-02-22T11:33:08Z</time>
      </trkpt>
      <trkpt lat="43.58646" lon="6.41172">
        <ele>626.3</ele>
        <time>2026-02-22T11:33:09Z</time>
      </trkpt>
      <trkpt lat="43.58646" lon="6.41173">
        <ele>626.2</ele>
        <time>2026-02-22T11:33:10Z</time>
      </trkpt>
      <trkpt lat="43.58646" lon="6.41174">
        <ele>626.1</ele>
        <time>2026-02-22T11:33:11Z</time>
      </trkpt>
      <trkpt lat="43.58647" lon="6.41174">
        <ele>625.9</ele>
        <time>2026-02-22T11:33:12Z</time>
      </trkpt>
      <trkpt lat="43.58647" lon="6.41175">
        <ele>625.7</ele>
        <time>2026-02-22T11:33:13Z</time>
      </trkpt>
      <trkpt lat="43.58647" lon="6.41175">
        <ele>625.6</ele>
        <time>2026-02-22T11:33:14Z</time>
      </trkpt>
      <trkpt lat="43.58648" lon="6.41175">
        <ele>625.5</ele>
        <time>2026-02-22T11:33:15Z</time>
      </trkpt>
      <trkpt lat="43.58648" lon="6.41174">
        <ele>625.2</ele>
        <time>2026-02-22T11:33:16Z</time>
      </trkpt>
      <trkpt lat="43.58649" lon="6.41175">
        <ele>624.9</ele>
        <time>2026-02-22T11:33:17Z</time>
      </trkpt>
      <trkpt lat="43.58649" lon="6.41175">
        <ele>624.6</ele>
        <time>2026-02-22T11:33:18Z</time>
      </trkpt>
      <trkpt lat="43.58649" lon="6.41176">
        <ele>624.4</ele>
        <time>2026-02-22T11:33:19Z</time>
      </trkpt>
      <trkpt lat="43.58649" lon="6.41176">
        <ele>624.2</ele>
        <time>2026-02-22T11:33:20Z</time>
      </trkpt>
      <trkpt lat="43.58649" lon="6.41176">
        <ele>624.1</ele>
        <time>2026-02-22T11:33:21Z</time>
      </trkpt>
      <trkpt lat="43.58649" lon="6.41175">
        <ele>624.1</ele>
        <time>2026-02-22T11:33:22Z</time>
      </trkpt>
      <trkpt lat="43.58649" lon="6.41175">
        <ele>624.2</ele>
        <time>2026-02-22T11:33:23Z</time>
      </trkpt>
      <trkpt lat="43.58649" lon="6.41175">
        <ele>624.2</ele>
        <time>2026-02-22T11:33:24Z</time>
      </trkpt>
      <trkpt lat="43.58649" lon="6.41175">
        <ele>624.2</ele>
        <time>2026-02-22T11:33:25Z</time>
      </trkpt>
      <trkpt lat="43.58649" lon="6.41175">
        <ele>624.2</ele>
        <time>2026-02-22T11:33:26Z</time>
      </trkpt>
      <trkpt lat="43.58649" lon="6.41176">
        <ele>624.1</ele>
        <time>2026-02-22T11:33:27Z</time>
      </trkpt>
      <trkpt lat="43.58649" lon="6.41177">
        <ele>624</ele>
        <time>2026-02-22T11:33:28Z</time>
      </trkpt>
      <trkpt lat="43.58649" lon="6.41177">
        <ele>623.9</ele>
        <time>2026-02-22T11:33:29Z</time>
      </trkpt>
      <trkpt lat="43.58649" lon="6.41177">
        <ele>623.9</ele>
        <time>2026-02-22T11:33:30Z</time>
      </trkpt>
      <trkpt lat="43.58649" lon="6.41177">
        <ele>624</ele>
        <time>2026-02-22T11:33:31Z</time>
      </trkpt>
      <trkpt lat="43.58649" lon="6.41177">
        <ele>623.9</ele>
        <time>2026-02-22T11:33:32Z</time>
      </trkpt>
      <trkpt lat="43.58649" lon="6.41177">
        <ele>623.8</ele>
        <time>2026-02-22T11:33:33Z</time>
      </trkpt>
      <trkpt lat="43.58649" lon="6.41177">
        <ele>623.9</ele>
        <time>2026-02-22T11:33:34Z</time>
      </trkpt>
      <trkpt lat="43.58649" lon="6.41177">
        <ele>623.9</ele>
        <time>2026-02-22T11:33:35Z</time>
      </trkpt>
      <trkpt lat="43.58649" lon="6.41177">
        <ele>623.9</ele>
        <time>2026-02-22T11:33:36Z</time>
      </trkpt>
      <trkpt lat="43.58649" lon="6.41177">
        <ele>623.9</ele>
        <time>2026-02-22T11:33:37Z</time>
      </trkpt>
      <trkpt lat="43.58649" lon="6.41177">
        <ele>624</ele>
        <time>2026-02-22T11:33:38Z</time>
      </trkpt>
      <trkpt lat="43.58649" lon="6.41177">
        <ele>623.8</ele>
        <time>2026-02-22T11:33:39Z</time>
      </trkpt>
      <trkpt lat="43.58649" lon="6.41177">
        <ele>623.7</ele>
        <time>2026-02-22T11:33:40Z</time>
      </trkpt>
      <trkpt lat="43.58649" lon="6.41177">
        <ele>623.7</ele>
        <time>2026-02-22T11:33:41Z</time>
      </trkpt>
      <trkpt lat="43.58648" lon="6.41177">
        <ele>623.7</ele>
        <time>2026-02-22T11:33:42Z</time>
      </trkpt>
      <trkpt lat="43.58648" lon="6.41177">
        <ele>623.7</ele>
        <time>2026-02-22T11:33:43Z</time>
      </trkpt>
      <trkpt lat="43.58648" lon="6.41177">
        <ele>623.7</ele>
        <time>2026-02-22T11:33:44Z</time>
      </trkpt>
      <trkpt lat="43.58648" lon="6.41177">
        <ele>623.7</ele>
        <time>2026-02-22T11:33:45Z</time>
      </trkpt>
      <trkpt lat="43.58648" lon="6.41177">
        <ele>623.7</ele>
        <time>2026-02-22T11:33:46Z</time>
      </trkpt>
      <trkpt lat="43.58648" lon="6.41177">
        <ele>623.7</ele>
        <time>2026-02-22T11:33:47Z</time>
      </trkpt>
      <trkpt lat="43.58648" lon="6.41177">
        <ele>623.7</ele>
        <time>2026-02-22T11:33:48Z</time>
      </trkpt>
      <trkpt lat="43.58648" lon="6.41177">
        <ele>623.7</ele>
        <time>2026-02-22T11:33:49Z</time>
      </trkpt>
      <trkpt lat="43.58648" lon="6.41177">
        <ele>623.7</ele>
        <time>2026-02-22T11:33:50Z</time>
      </trkpt>
      <trkpt lat="43.58648" lon="6.41177">
        <ele>623.7</ele>
        <time>2026-02-22T11:33:51Z</time>
      </trkpt>
      <trkpt lat="43.58648" lon="6.41177">
        <ele>623.8</ele>
        <time>2026-02-22T11:33:52Z</time>
      </trkpt>
      <trkpt lat="43.58648" lon="6.41177">
        <ele>623.8</ele>
        <time>2026-02-22T11:33:53Z</time>
      </trkpt>
      <trkpt lat="43.58648" lon="6.41177">
        <ele>623.8</ele>
        <time>2026-02-22T11:33:54Z</time>
      </trkpt>
      <trkpt lat="43.58648" lon="6.41177">
        <ele>623.8</ele>
        <time>2026-02-22T11:33:55Z</time>
      </trkpt>
      <trkpt lat="43.58648" lon="6.41177">
        <ele>623.8</ele>
        <time>2026-02-22T11:33:56Z</time>
      </trkpt>
      <trkpt lat="43.58649" lon="6.41177">
        <ele>623.8</ele>
        <time>2026-02-22T11:33:57Z</time>
      </trkpt>
      <trkpt lat="43.58649" lon="6.41177">
        <ele>623.7</ele>
        <time>2026-02-22T11:33:58Z</time>
      </trkpt>
      <trkpt lat="43.58649" lon="6.41177">
        <ele>623.7</ele>
        <time>2026-02-22T11:33:59Z</time>
      </trkpt>
      <trkpt lat="43.58649" lon="6.41177">
        <ele>623.8</ele>
        <time>2026-02-22T11:34:00Z</time>
      </trkpt>
      <trkpt lat="43.58649" lon="6.41178">
        <ele>623.8</ele>
        <time>2026-02-22T11:34:01Z</time>
      </trkpt>
      <trkpt lat="43.58649" lon="6.41178">
        <ele>623.8</ele>
        <time>2026-02-22T11:34:02Z</time>
      </trkpt>
      <trkpt lat="43.58649" lon="6.41178">
        <ele>623.8</ele>
        <time>2026-02-22T11:34:03Z</time>
      </trkpt>
      <trkpt lat="43.58649" lon="6.41178">
        <ele>623.8</ele>
        <time>2026-02-22T11:34:04Z</time>
      </trkpt>
      <trkpt lat="43.58649" lon="6.41178">
        <ele>623.9</ele>
        <time>2026-02-22T11:34:05Z</time>
      </trkpt>
      <trkpt lat="43.58649" lon="6.41178">
        <ele>624</ele>
        <time>2026-02-22T11:34:06Z</time>
      </trkpt>
      <trkpt lat="43.58649" lon="6.41178">
        <ele>624</ele>
        <time>2026-02-22T11:34:07Z</time>
      </trkpt>
      <trkpt lat="43.58649" lon="6.41178">
        <ele>624</ele>
        <time>2026-02-22T11:34:08Z</time>
      </trkpt>
      <trkpt lat="43.58649" lon="6.41178">
        <ele>624</ele>
        <time>2026-02-22T11:34:09Z</time>
      </trkpt>
      <trkpt lat="43.58649" lon="6.41178">
        <ele>624</ele>
        <time>2026-02-22T11:34:10Z</time>
      </trkpt>
      <trkpt lat="43.5865" lon="6.41178">
        <ele>623.9</ele>
        <time>2026-02-22T11:34:11Z</time>
      </trkpt>
      <trkpt lat="43.5865" lon="6.41178">
        <ele>623.9</ele>
        <time>2026-02-22T11:34:12Z</time>
      </trkpt>
      <trkpt lat="43.5865" lon="6.41178">
        <ele>624</ele>
        <time>2026-02-22T11:34:13Z</time>
      </trkpt>
      <trkpt lat="43.5865" lon="6.41178">
        <ele>623.9</ele>
        <time>2026-02-22T11:34:14Z</time>
      </trkpt>
      <trkpt lat="43.5865" lon="6.41179">
        <ele>623.9</ele>
        <time>2026-02-22T11:34:15Z</time>
      </trkpt>
      <trkpt lat="43.5865" lon="6.41179">
        <ele>623.9</ele>
        <time>2026-02-22T11:34:16Z</time>
      </trkpt>
      <trkpt lat="43.5865" lon="6.41179">
        <ele>623.8</ele>
        <time>2026-02-22T11:34:17Z</time>
      </trkpt>
      <trkpt lat="43.5865" lon="6.41179">
        <ele>623.8</ele>
        <time>2026-02-22T11:34:18Z</time>
      </trkpt>
      <trkpt lat="43.5865" lon="6.41179">
        <ele>623.8</ele>
        <time>2026-02-22T11:34:19Z</time>
      </trkpt>
      <trkpt lat="43.5865" lon="6.41179">
        <ele>623.8</ele>
        <time>2026-02-22T11:34:20Z</time>
      </trkpt>
      <trkpt lat="43.5865" lon="6.41179">
        <ele>623.8</ele>
        <time>2026-02-22T11:34:21Z</time>
      </trkpt>
      <trkpt lat="43.5865" lon="6.41179">
        <ele>623.8</ele>
        <time>2026-02-22T11:34:22Z</time>
      </trkpt>
      <trkpt lat="43.5865" lon="6.41179">
        <ele>623.8</ele>
        <time>2026-02-22T11:34:23Z</time>
      </trkpt>
      <trkpt lat="43.5865" lon="6.41179">
        <ele>623.7</ele>
        <time>2026-02-22T11:34:24Z</time>
      </trkpt>
      <trkpt lat="43.5865" lon="6.41179">
        <ele>623.7</ele>
        <time>2026-02-22T11:34:25Z</time>
      </trkpt>
      <trkpt lat="43.5865" lon="6.4118">
        <ele>623.6</ele>
        <time>2026-02-22T11:34:26Z</time>
      </trkpt>
      <trkpt lat="43.5865" lon="6.4118">
        <ele>623.6</ele>
        <time>2026-02-22T11:34:27Z</time>
      </trkpt>
      <trkpt lat="43.5865" lon="6.4118">
        <ele>623.7</ele>
        <time>2026-02-22T11:34:28Z</time>
      </trkpt>
      <trkpt lat="43.5865" lon="6.4118">
        <ele>623.6</ele>
        <time>2026-02-22T11:34:29Z</time>
      </trkpt>
      <trkpt lat="43.5865" lon="6.4118">
        <ele>623.6</ele>
        <time>2026-02-22T11:34:30Z</time>
      </trkpt>
      <trkpt lat="43.5865" lon="6.4118">
        <ele>623.6</ele>
        <time>2026-02-22T11:34:31Z</time>
      </trkpt>
      <trkpt lat="43.5865" lon="6.4118">
        <ele>623.6</ele>
        <time>2026-02-22T11:34:32Z</time>
      </trkpt>
      <trkpt lat="43.5865" lon="6.4118">
        <ele>623.7</ele>
        <time>2026-02-22T11:34:33Z</time>
      </trkpt>
      <trkpt lat="43.5865" lon="6.4118">
        <ele>623.7</ele>
        <time>2026-02-22T11:34:34Z</time>
      </trkpt>
      <trkpt lat="43.5865" lon="6.41179">
        <ele>623.7</ele>
        <time>2026-02-22T11:34:35Z</time>
      </trkpt>
      <trkpt lat="43.5865" lon="6.41179">
        <ele>623.8</ele>
        <time>2026-02-22T11:34:36Z</time>
      </trkpt>
      <trkpt lat="43.5865" lon="6.41179">
        <ele>623.9</ele>
        <time>2026-02-22T11:34:37Z</time>
      </trkpt>
      <trkpt lat="43.58651" lon="6.41178">
        <ele>624</ele>
        <time>2026-02-22T11:34:38Z</time>
      </trkpt>
      <trkpt lat="43.58651" lon="6.41178">
        <ele>624</ele>
        <time>2026-02-22T11:34:39Z</time>
      </trkpt>
      <trkpt lat="43.58651" lon="6.41177">
        <ele>624</ele>
        <time>2026-02-22T11:34:40Z</time>
      </trkpt>
      <trkpt lat="43.58651" lon="6.41176">
        <ele>624.1</ele>
        <time>2026-02-22T11:34:41Z</time>
      </trkpt>
      <trkpt lat="43.58651" lon="6.41176">
        <ele>624.1</ele>
        <time>2026-02-22T11:34:42Z</time>
      </trkpt>
      <trkpt lat="43.5865" lon="6.41175">
        <ele>624.1</ele>
        <time>2026-02-22T11:34:43Z</time>
      </trkpt>
      <trkpt lat="43.58651" lon="6.41174">
        <ele>624.2</ele>
        <time>2026-02-22T11:34:44Z</time>
      </trkpt>
      <trkpt lat="43.58651" lon="6.41173">
        <ele>624.3</ele>
        <time>2026-02-22T11:34:45Z</time>
      </trkpt>
      <trkpt lat="43.5865" lon="6.41173">
        <ele>624.4</ele>
        <time>2026-02-22T11:34:46Z</time>
      </trkpt>
      <trkpt lat="43.5865" lon="6.41172">
        <ele>624.6</ele>
        <time>2026-02-22T11:34:47Z</time>
      </trkpt>
      <trkpt lat="43.5865" lon="6.41172">
        <ele>624.7</ele>
        <time>2026-02-22T11:34:48Z</time>
      </trkpt>
      <trkpt lat="43.58649" lon="6.41171">
        <ele>624.8</ele>
        <time>2026-02-22T11:34:49Z</time>
      </trkpt>
      <trkpt lat="43.58649" lon="6.41171">
        <ele>624.9</ele>
        <time>2026-02-22T11:34:50Z</time>
      </trkpt>
      <trkpt lat="43.58649" lon="6.41171">
        <ele>625</ele>
        <time>2026-02-22T11:34:51Z</time>
      </trkpt>
      <trkpt lat="43.58649" lon="6.41171">
        <ele>625.3</ele>
        <time>2026-02-22T11:34:52Z</time>
      </trkpt>
      <trkpt lat="43.58649" lon="6.41171">
        <ele>625.4</ele>
        <time>2026-02-22T11:34:53Z</time>
      </trkpt>
      <trkpt lat="43.58649" lon="6.41171">
        <ele>625.5</ele>
        <time>2026-02-22T11:34:54Z</time>
      </trkpt>
      <trkpt lat="43.58649" lon="6.41171">
        <ele>625.5</ele>
        <time>2026-02-22T11:34:55Z</time>
      </trkpt>
      <trkpt lat="43.58649" lon="6.4117">
        <ele>625.6</ele>
        <time>2026-02-22T11:34:56Z</time>
      </trkpt>
      <trkpt lat="43.58649" lon="6.4117">
        <ele>625.6</ele>
        <time>2026-02-22T11:34:57Z</time>
      </trkpt>
      <trkpt lat="43.58649" lon="6.4117">
        <ele>625.7</ele>
        <time>2026-02-22T11:34:58Z</time>
      </trkpt>
      <trkpt lat="43.58649" lon="6.4117">
        <ele>625.8</ele>
        <time>2026-02-22T11:34:59Z</time>
      </trkpt>
      <trkpt lat="43.58649" lon="6.41171">
        <ele>625.8</ele>
        <time>2026-02-22T11:35:00Z</time>
      </trkpt>
      <trkpt lat="43.58649" lon="6.4117">
        <ele>625.9</ele>
        <time>2026-02-22T11:35:01Z</time>
      </trkpt>
      <trkpt lat="43.58649" lon="6.4117">
        <ele>626</ele>
        <time>2026-02-22T11:35:02Z</time>
      </trkpt>
      <trkpt lat="43.58649" lon="6.4117">
        <ele>626</ele>
        <time>2026-02-22T11:35:03Z</time>
      </trkpt>
      <trkpt lat="43.58649" lon="6.4117">
        <ele>626</ele>
        <time>2026-02-22T11:35:04Z</time>
      </trkpt>
      <trkpt lat="43.58649" lon="6.41169">
        <ele>626.1</ele>
        <time>2026-02-22T11:35:05Z</time>
      </trkpt>
      <trkpt lat="43.58649" lon="6.41169">
        <ele>626</ele>
        <time>2026-02-22T11:35:06Z</time>
      </trkpt>
      <trkpt lat="43.58649" lon="6.4117">
        <ele>626</ele>
        <time>2026-02-22T11:35:07Z</time>
      </trkpt>
      <trkpt lat="43.58649" lon="6.41169">
        <ele>625.9</ele>
        <time>2026-02-22T11:35:08Z</time>
      </trkpt>
      <trkpt lat="43.58649" lon="6.41169">
        <ele>625.9</ele>
        <time>2026-02-22T11:35:09Z</time>
      </trkpt>
      <trkpt lat="43.58649" lon="6.41169">
        <ele>625.9</ele>
        <time>2026-02-22T11:35:10Z</time>
      </trkpt>
      <trkpt lat="43.58649" lon="6.41169">
        <ele>625.8</ele>
        <time>2026-02-22T11:35:11Z</time>
      </trkpt>
      <trkpt lat="43.58649" lon="6.41169">
        <ele>625.7</ele>
        <time>2026-02-22T11:35:12Z</time>
      </trkpt>
      <trkpt lat="43.5865" lon="6.41169">
        <ele>625.7</ele>
        <time>2026-02-22T11:35:13Z</time>
      </trkpt>
      <trkpt lat="43.5865" lon="6.41169">
        <ele>625.5</ele>
        <time>2026-02-22T11:35:14Z</time>
      </trkpt>
      <trkpt lat="43.5865" lon="6.41169">
        <ele>625.4</ele>
        <time>2026-02-22T11:35:15Z</time>
      </trkpt>
      <trkpt lat="43.5865" lon="6.41169">
        <ele>625.4</ele>
        <time>2026-02-22T11:35:16Z</time>
      </trkpt>
      <trkpt lat="43.5865" lon="6.41169">
        <ele>625.3</ele>
        <time>2026-02-22T11:35:17Z</time>
      </trkpt>
      <trkpt lat="43.5865" lon="6.41169">
        <ele>625.3</ele>
        <time>2026-02-22T11:35:18Z</time>
      </trkpt>
      <trkpt lat="43.5865" lon="6.41169">
        <ele>625.3</ele>
        <time>2026-02-22T11:35:19Z</time>
      </trkpt>
      <trkpt lat="43.5865" lon="6.41169">
        <ele>625.3</ele>
        <time>2026-02-22T11:35:20Z</time>
      </trkpt>
      <trkpt lat="43.5865" lon="6.41169">
        <ele>625.3</ele>
        <time>2026-02-22T11:35:21Z</time>
      </trkpt>
      <trkpt lat="43.5865" lon="6.41169">
        <ele>625.4</ele>
        <time>2026-02-22T11:35:22Z</time>
      </trkpt>
      <trkpt lat="43.5865" lon="6.41169">
        <ele>625.4</ele>
        <time>2026-02-22T11:35:23Z</time>
      </trkpt>
      <trkpt lat="43.5865" lon="6.41169">
        <ele>625.4</ele>
        <time>2026-02-22T11:35:24Z</time>
      </trkpt>
      <trkpt lat="43.5865" lon="6.41169">
        <ele>625.4</ele>
        <time>2026-02-22T11:35:25Z</time>
      </trkpt>
      <trkpt lat="43.5865" lon="6.41169">
        <ele>625.5</ele>
        <time>2026-02-22T11:35:26Z</time>
      </trkpt>
      <trkpt lat="43.5865" lon="6.41169">
        <ele>625.5</ele>
        <time>2026-02-22T11:35:27Z</time>
      </trkpt>
      <trkpt lat="43.58651" lon="6.41169">
        <ele>625.5</ele>
        <time>2026-02-22T11:35:28Z</time>
      </trkpt>
      <trkpt lat="43.58651" lon="6.41169">
        <ele>625.6</ele>
        <time>2026-02-22T11:35:29Z</time>
      </trkpt>
      <trkpt lat="43.58651" lon="6.41169">
        <ele>625.7</ele>
        <time>2026-02-22T11:35:30Z</time>
      </trkpt>
      <trkpt lat="43.58651" lon="6.41169">
        <ele>625.7</ele>
        <time>2026-02-22T11:35:31Z</time>
      </trkpt>
      <trkpt lat="43.58651" lon="6.41169">
        <ele>625.7</ele>
        <time>2026-02-22T11:35:32Z</time>
      </trkpt>
      <trkpt lat="43.58651" lon="6.4117">
        <ele>625.7</ele>
        <time>2026-02-22T11:35:33Z</time>
      </trkpt>
      <trkpt lat="43.58651" lon="6.4117">
        <ele>625.7</ele>
        <time>2026-02-22T11:35:34Z</time>
      </trkpt>
      <trkpt lat="43.58651" lon="6.4117">
        <ele>625.7</ele>
        <time>2026-02-22T11:35:35Z</time>
      </trkpt>
      <trkpt lat="43.58651" lon="6.41171">
        <ele>625.6</ele>
        <time>2026-02-22T11:35:36Z</time>
      </trkpt>
      <trkpt lat="43.58651" lon="6.41171">
        <ele>625.6</ele>
        <time>2026-02-22T11:35:37Z</time>
      </trkpt>
      <trkpt lat="43.58651" lon="6.41171">
        <ele>625.5</ele>
        <time>2026-02-22T11:35:38Z</time>
      </trkpt>
      <trkpt lat="43.58651" lon="6.41171">
        <ele>625.4</ele>
        <time>2026-02-22T11:35:39Z</time>
      </trkpt>
      <trkpt lat="43.58651" lon="6.41171">
        <ele>625.3</ele>
        <time>2026-02-22T11:35:40Z</time>
      </trkpt>
      <trkpt lat="43.58651" lon="6.41171">
        <ele>625.1</ele>
        <time>2026-02-22T11:35:41Z</time>
      </trkpt>
      <trkpt lat="43.58651" lon="6.41171">
        <ele>625</ele>
        <time>2026-02-22T11:35:42Z</time>
      </trkpt>
      <trkpt lat="43.58651" lon="6.41171">
        <ele>624.9</ele>
        <time>2026-02-22T11:35:43Z</time>
      </trkpt>
      <trkpt lat="43.58651" lon="6.41171">
        <ele>624.9</ele>
        <time>2026-02-22T11:35:44Z</time>
      </trkpt>
      <trkpt lat="43.5865" lon="6.41172">
        <ele>624.9</ele>
        <time>2026-02-22T11:35:45Z</time>
      </trkpt>
      <trkpt lat="43.58651" lon="6.41172">
        <ele>624.8</ele>
        <time>2026-02-22T11:35:46Z</time>
      </trkpt>
      <trkpt lat="43.5865" lon="6.41173">
        <ele>624.7</ele>
        <time>2026-02-22T11:35:47Z</time>
      </trkpt>
      <trkpt lat="43.5865" lon="6.41173">
        <ele>624.7</ele>
        <time>2026-02-22T11:35:48Z</time>
      </trkpt>
      <trkpt lat="43.5865" lon="6.41174">
        <ele>624.7</ele>
        <time>2026-02-22T11:35:49Z</time>
      </trkpt>
      <trkpt lat="43.5865" lon="6.41174">
        <ele>624.7</ele>
        <time>2026-02-22T11:35:50Z</time>
      </trkpt>
      <trkpt lat="43.5865" lon="6.41174">
        <ele>624.6</ele>
        <time>2026-02-22T11:35:51Z</time>
      </trkpt>
      <trkpt lat="43.5865" lon="6.41175">
        <ele>624.6</ele>
        <time>2026-02-22T11:35:52Z</time>
      </trkpt>
      <trkpt lat="43.5865" lon="6.41175">
        <ele>624.5</ele>
        <time>2026-02-22T11:35:53Z</time>
      </trkpt>
      <trkpt lat="43.5865" lon="6.41175">
        <ele>624.5</ele>
        <time>2026-02-22T11:35:54Z</time>
      </trkpt>
      <trkpt lat="43.5865" lon="6.41176">
        <ele>624.5</ele>
        <time>2026-02-22T11:35:55Z</time>
      </trkpt>
      <trkpt lat="43.5865" lon="6.41176">
        <ele>624.4</ele>
        <time>2026-02-22T11:35:56Z</time>
      </trkpt>
      <trkpt lat="43.5865" lon="6.41176">
        <ele>624.4</ele>
        <time>2026-02-22T11:35:57Z</time>
      </trkpt>
      <trkpt lat="43.5865" lon="6.41176">
        <ele>624.4</ele>
        <time>2026-02-22T11:35:58Z</time>
      </trkpt>
      <trkpt lat="43.5865" lon="6.41176">
        <ele>624.3</ele>
        <time>2026-02-22T11:35:59Z</time>
      </trkpt>
      <trkpt lat="43.5865" lon="6.41176">
        <ele>624.3</ele>
        <time>2026-02-22T11:36:00Z</time>
      </trkpt>
      <trkpt lat="43.5865" lon="6.41176">
        <ele>624.3</ele>
        <time>2026-02-22T11:36:01Z</time>
      </trkpt>
      <trkpt lat="43.5865" lon="6.41176">
        <ele>624.3</ele>
        <time>2026-02-22T11:36:02Z</time>
      </trkpt>
      <trkpt lat="43.5865" lon="6.41176">
        <ele>624.2</ele>
        <time>2026-02-22T11:36:03Z</time>
      </trkpt>
      <trkpt lat="43.5865" lon="6.41176">
        <ele>624.2</ele>
        <time>2026-02-22T11:36:04Z</time>
      </trkpt>
      <trkpt lat="43.5865" lon="6.41176">
        <ele>624.2</ele>
        <time>2026-02-22T11:36:05Z</time>
      </trkpt>
      <trkpt lat="43.5865" lon="6.41176">
        <ele>624.3</ele>
        <time>2026-02-22T11:36:06Z</time>
      </trkpt>
      <trkpt lat="43.5865" lon="6.41176">
        <ele>624.2</ele>
        <time>2026-02-22T11:36:07Z</time>
      </trkpt>
      <trkpt lat="43.5865" lon="6.41176">
        <ele>624.3</ele>
        <time>2026-02-22T11:36:08Z</time>
      </trkpt>
      <trkpt lat="43.5865" lon="6.41176">
        <ele>624.3</ele>
        <time>2026-02-22T11:36:09Z</time>
      </trkpt>
      <trkpt lat="43.5865" lon="6.41176">
        <ele>624.3</ele>
        <time>2026-02-22T11:36:10Z</time>
      </trkpt>
      <trkpt lat="43.5865" lon="6.41176">
        <ele>624.3</ele>
        <time>2026-02-22T11:36:11Z</time>
      </trkpt>
      <trkpt lat="43.5865" lon="6.41176">
        <ele>624.3</ele>
        <time>2026-02-22T11:36:12Z</time>
      </trkpt>
      <trkpt lat="43.5865" lon="6.41176">
        <ele>624.2</ele>
        <time>2026-02-22T11:36:13Z</time>
      </trkpt>
      <trkpt lat="43.5865" lon="6.41176">
        <ele>624.2</ele>
        <time>2026-02-22T11:36:14Z</time>
      </trkpt>
      <trkpt lat="43.5865" lon="6.41176">
        <ele>624.3</ele>
        <time>2026-02-22T11:36:15Z</time>
      </trkpt>
      <trkpt lat="43.5865" lon="6.41176">
        <ele>624.3</ele>
        <time>2026-02-22T11:36:16Z</time>
      </trkpt>
      <trkpt lat="43.5865" lon="6.41176">
        <ele>624.3</ele>
        <time>2026-02-22T11:36:17Z</time>
      </trkpt>
      <trkpt lat="43.5865" lon="6.41176">
        <ele>624.2</ele>
        <time>2026-02-22T11:36:18Z</time>
      </trkpt>
      <trkpt lat="43.5865" lon="6.41176">
        <ele>624.2</ele>
        <time>2026-02-22T11:36:19Z</time>
      </trkpt>
      <trkpt lat="43.5865" lon="6.41176">
        <ele>624.2</ele>
        <time>2026-02-22T11:36:20Z</time>
      </trkpt>
      <trkpt lat="43.5865" lon="6.41176">
        <ele>624.2</ele>
        <time>2026-02-22T11:36:21Z</time>
      </trkpt>
      <trkpt lat="43.5865" lon="6.41177">
        <ele>624.2</ele>
        <time>2026-02-22T11:36:22Z</time>
      </trkpt>
      <trkpt lat="43.5865" lon="6.41177">
        <ele>624.1</ele>
        <time>2026-02-22T11:36:23Z</time>
      </trkpt>
      <trkpt lat="43.5865" lon="6.41177">
        <ele>624.1</ele>
        <time>2026-02-22T11:36:24Z</time>
      </trkpt>
      <trkpt lat="43.5865" lon="6.41177">
        <ele>624.1</ele>
        <time>2026-02-22T11:36:25Z</time>
      </trkpt>
      <trkpt lat="43.5865" lon="6.41177">
        <ele>624.1</ele>
        <time>2026-02-22T11:36:26Z</time>
      </trkpt>
      <trkpt lat="43.5865" lon="6.41177">
        <ele>624</ele>
        <time>2026-02-22T11:36:27Z</time>
      </trkpt>
      <trkpt lat="43.5865" lon="6.41177">
        <ele>624.1</ele>
        <time>2026-02-22T11:36:28Z</time>
      </trkpt>
      <trkpt lat="43.5865" lon="6.41177">
        <ele>624.1</ele>
        <time>2026-02-22T11:36:29Z</time>
      </trkpt>
      <trkpt lat="43.5865" lon="6.41177">
        <ele>624.1</ele>
        <time>2026-02-22T11:36:30Z</time>
      </trkpt>
      <trkpt lat="43.58651" lon="6.41177">
        <ele>624.2</ele>
        <time>2026-02-22T11:36:31Z</time>
      </trkpt>
      <trkpt lat="43.58651" lon="6.41177">
        <ele>624.3</ele>
        <time>2026-02-22T11:36:32Z</time>
      </trkpt>
      <trkpt lat="43.58651" lon="6.41177">
        <ele>624.4</ele>
        <time>2026-02-22T11:36:33Z</time>
      </trkpt>
      <trkpt lat="43.58651" lon="6.41177">
        <ele>624.4</ele>
        <time>2026-02-22T11:36:34Z</time>
      </trkpt>
      <trkpt lat="43.58651" lon="6.41177">
        <ele>624.4</ele>
        <time>2026-02-22T11:36:35Z</time>
      </trkpt>
      <trkpt lat="43.58651" lon="6.41177">
        <ele>624.4</ele>
        <time>2026-02-22T11:36:36Z</time>
      </trkpt>
      <trkpt lat="43.58651" lon="6.41177">
        <ele>624.4</ele>
        <time>2026-02-22T11:36:37Z</time>
      </trkpt>
      <trkpt lat="43.58651" lon="6.41177">
        <ele>624.4</ele>
        <time>2026-02-22T11:36:38Z</time>
      </trkpt>
      <trkpt lat="43.58651" lon="6.41177">
        <ele>624.3</ele>
        <time>2026-02-22T11:36:39Z</time>
      </trkpt>
      <trkpt lat="43.58651" lon="6.41177">
        <ele>624.3</ele>
        <time>2026-02-22T11:36:40Z</time>
      </trkpt>
      <trkpt lat="43.58651" lon="6.41177">
        <ele>624.3</ele>
        <time>2026-02-22T11:36:41Z</time>
      </trkpt>
      <trkpt lat="43.58652" lon="6.41177">
        <ele>624.2</ele>
        <time>2026-02-22T11:36:42Z</time>
      </trkpt>
      <trkpt lat="43.58652" lon="6.41177">
        <ele>624.2</ele>
        <time>2026-02-22T11:36:43Z</time>
      </trkpt>
      <trkpt lat="43.58652" lon="6.41177">
        <ele>624.2</ele>
        <time>2026-02-22T11:36:44Z</time>
      </trkpt>
      <trkpt lat="43.58652" lon="6.41177">
        <ele>624.2</ele>
        <time>2026-02-22T11:36:45Z</time>
      </trkpt>
      <trkpt lat="43.58652" lon="6.41177">
        <ele>624.2</ele>
        <time>2026-02-22T11:36:46Z</time>
      </trkpt>
      <trkpt lat="43.58652" lon="6.41177">
        <ele>624.2</ele>
        <time>2026-02-22T11:36:47Z</time>
      </trkpt>
      <trkpt lat="43.58652" lon="6.41177">
        <ele>624.2</ele>
        <time>2026-02-22T11:36:48Z</time>
      </trkpt>
      <trkpt lat="43.58652" lon="6.41177">
        <ele>624.2</ele>
        <time>2026-02-22T11:36:49Z</time>
      </trkpt>
      <trkpt lat="43.58652" lon="6.41178">
        <ele>624.3</ele>
        <time>2026-02-22T11:36:50Z</time>
      </trkpt>
      <trkpt lat="43.58652" lon="6.41177">
        <ele>624.3</ele>
        <time>2026-02-22T11:36:51Z</time>
      </trkpt>
      <trkpt lat="43.58652" lon="6.41178">
        <ele>624.3</ele>
        <time>2026-02-22T11:36:52Z</time>
      </trkpt>
      <trkpt lat="43.58652" lon="6.41178">
        <ele>624.3</ele>
        <time>2026-02-22T11:36:53Z</time>
      </trkpt>
      <trkpt lat="43.58652" lon="6.41178">
        <ele>624.3</ele>
        <time>2026-02-22T11:36:54Z</time>
      </trkpt>
      <trkpt lat="43.58652" lon="6.41177">
        <ele>624.3</ele>
        <time>2026-02-22T11:36:55Z</time>
      </trkpt>
      <trkpt lat="43.58652" lon="6.41177">
        <ele>624.3</ele>
        <time>2026-02-22T11:36:56Z</time>
      </trkpt>
      <trkpt lat="43.58652" lon="6.41177">
        <ele>624.3</ele>
        <time>2026-02-22T11:36:57Z</time>
      </trkpt>
      <trkpt lat="43.58652" lon="6.41177">
        <ele>624.3</ele>
        <time>2026-02-22T11:36:58Z</time>
      </trkpt>
      <trkpt lat="43.58652" lon="6.41177">
        <ele>624.3</ele>
        <time>2026-02-22T11:36:59Z</time>
      </trkpt>
      <trkpt lat="43.58653" lon="6.41178">
        <ele>624.3</ele>
        <time>2026-02-22T11:37:00Z</time>
      </trkpt>
      <trkpt lat="43.58652" lon="6.41178">
        <ele>624.3</ele>
        <time>2026-02-22T11:37:01Z</time>
      </trkpt>
      <trkpt lat="43.58652" lon="6.41178">
        <ele>624.3</ele>
        <time>2026-02-22T11:37:02Z</time>
      </trkpt>
      <trkpt lat="43.58652" lon="6.41178">
        <ele>624.3</ele>
        <time>2026-02-22T11:37:03Z</time>
      </trkpt>
      <trkpt lat="43.58652" lon="6.41177">
        <ele>624.3</ele>
        <time>2026-02-22T11:37:04Z</time>
      </trkpt>
      <trkpt lat="43.58652" lon="6.41177">
        <ele>624.2</ele>
        <time>2026-02-22T11:37:05Z</time>
      </trkpt>
      <trkpt lat="43.58652" lon="6.41177">
        <ele>624.2</ele>
        <time>2026-02-22T11:37:06Z</time>
      </trkpt>
      <trkpt lat="43.58652" lon="6.41177">
        <ele>624.2</ele>
        <time>2026-02-22T11:37:07Z</time>
      </trkpt>
      <trkpt lat="43.58652" lon="6.41177">
        <ele>624.2</ele>
        <time>2026-02-22T11:37:08Z</time>
      </trkpt>
      <trkpt lat="43.58652" lon="6.41177">
        <ele>624.3</ele>
        <time>2026-02-22T11:37:09Z</time>
      </trkpt>
      <trkpt lat="43.58652" lon="6.41177">
        <ele>624.3</ele>
        <time>2026-02-22T11:37:10Z</time>
      </trkpt>
      <trkpt lat="43.58652" lon="6.41177">
        <ele>624.4</ele>
        <time>2026-02-22T11:37:11Z</time>
      </trkpt>
      <trkpt lat="43.58652" lon="6.41177">
        <ele>624.4</ele>
        <time>2026-02-22T11:37:12Z</time>
      </trkpt>
      <trkpt lat="43.58652" lon="6.41177">
        <ele>624.4</ele>
        <time>2026-02-22T11:37:13Z</time>
      </trkpt>
      <trkpt lat="43.58652" lon="6.41177">
        <ele>624.4</ele>
        <time>2026-02-22T11:37:14Z</time>
      </trkpt>
      <trkpt lat="43.58652" lon="6.41177">
        <ele>624.4</ele>
        <time>2026-02-22T11:37:15Z</time>
      </trkpt>
      <trkpt lat="43.58653" lon="6.41177">
        <ele>624.3</ele>
        <time>2026-02-22T11:37:16Z</time>
      </trkpt>
      <trkpt lat="43.58653" lon="6.41177">
        <ele>624.4</ele>
        <time>2026-02-22T11:37:17Z</time>
      </trkpt>
      <trkpt lat="43.58653" lon="6.41177">
        <ele>624.4</ele>
        <time>2026-02-22T11:37:18Z</time>
      </trkpt>
      <trkpt lat="43.58653" lon="6.41177">
        <ele>624.4</ele>
        <time>2026-02-22T11:37:19Z</time>
      </trkpt>
      <trkpt lat="43.58652" lon="6.41177">
        <ele>624.3</ele>
        <time>2026-02-22T11:37:20Z</time>
      </trkpt>
      <trkpt lat="43.58652" lon="6.41177">
        <ele>624.4</ele>
        <time>2026-02-22T11:37:21Z</time>
      </trkpt>
      <trkpt lat="43.58652" lon="6.41177">
        <ele>624.4</ele>
        <time>2026-02-22T11:37:22Z</time>
      </trkpt>
      <trkpt lat="43.58652" lon="6.41177">
        <ele>624.4</ele>
        <time>2026-02-22T11:37:23Z</time>
      </trkpt>
      <trkpt lat="43.58652" lon="6.41177">
        <ele>624.4</ele>
        <time>2026-02-22T11:37:24Z</time>
      </trkpt>
      <trkpt lat="43.58652" lon="6.41177">
        <ele>624.4</ele>
        <time>2026-02-22T11:37:25Z</time>
      </trkpt>
      <trkpt lat="43.58652" lon="6.41177">
        <ele>624.4</ele>
        <time>2026-02-22T11:37:26Z</time>
      </trkpt>
      <trkpt lat="43.58652" lon="6.41177">
        <ele>624.4</ele>
        <time>2026-02-22T11:37:27Z</time>
      </trkpt>
      <trkpt lat="43.58652" lon="6.41177">
        <ele>624.5</ele>
        <time>2026-02-22T11:37:28Z</time>
      </trkpt>
      <trkpt lat="43.58652" lon="6.41177">
        <ele>624.5</ele>
        <time>2026-02-22T11:37:29Z</time>
      </trkpt>
      <trkpt lat="43.58652" lon="6.41177">
        <ele>624.5</ele>
        <time>2026-02-22T11:37:30Z</time>
      </trkpt>
      <trkpt lat="43.58652" lon="6.41177">
        <ele>624.6</ele>
        <time>2026-02-22T11:37:31Z</time>
      </trkpt>
      <trkpt lat="43.58652" lon="6.41177">
        <ele>624.7</ele>
        <time>2026-02-22T11:37:32Z</time>
      </trkpt>
      <trkpt lat="43.58652" lon="6.41177">
        <ele>624.7</ele>
        <time>2026-02-22T11:37:33Z</time>
      </trkpt>
      <trkpt lat="43.58652" lon="6.41177">
        <ele>624.8</ele>
        <time>2026-02-22T11:37:34Z</time>
      </trkpt>
      <trkpt lat="43.58652" lon="6.41178">
        <ele>624.8</ele>
        <time>2026-02-22T11:37:35Z</time>
      </trkpt>
      <trkpt lat="43.58652" lon="6.41178">
        <ele>624.8</ele>
        <time>2026-02-22T11:37:36Z</time>
      </trkpt>
      <trkpt lat="43.58652" lon="6.41178">
        <ele>624.8</ele>
        <time>2026-02-22T11:37:37Z</time>
      </trkpt>
      <trkpt lat="43.58652" lon="6.41178">
        <ele>624.7</ele>
        <time>2026-02-22T11:37:38Z</time>
      </trkpt>
      <trkpt lat="43.58652" lon="6.41178">
        <ele>624.6</ele>
        <time>2026-02-22T11:37:39Z</time>
      </trkpt>
      <trkpt lat="43.58652" lon="6.41178">
        <ele>624.6</ele>
        <time>2026-02-22T11:37:40Z</time>
      </trkpt>
      <trkpt lat="43.58652" lon="6.41178">
        <ele>624.5</ele>
        <time>2026-02-22T11:37:41Z</time>
      </trkpt>
      <trkpt lat="43.58652" lon="6.41178">
        <ele>624.5</ele>
        <time>2026-02-22T11:37:42Z</time>
      </trkpt>
      <trkpt lat="43.58652" lon="6.41179">
        <ele>624.5</ele>
        <time>2026-02-22T11:37:43Z</time>
      </trkpt>
      <trkpt lat="43.58652" lon="6.41179">
        <ele>624.5</ele>
        <time>2026-02-22T11:37:44Z</time>
      </trkpt>
      <trkpt lat="43.58652" lon="6.41179">
        <ele>624.5</ele>
        <time>2026-02-22T11:37:45Z</time>
      </trkpt>
      <trkpt lat="43.58652" lon="6.41179">
        <ele>624.6</ele>
        <time>2026-02-22T11:37:46Z</time>
      </trkpt>
      <trkpt lat="43.58652" lon="6.41179">
        <ele>624.5</ele>
        <time>2026-02-22T11:37:47Z</time>
      </trkpt>
      <trkpt lat="43.58652" lon="6.41179">
        <ele>624.5</ele>
        <time>2026-02-22T11:37:48Z</time>
      </trkpt>
      <trkpt lat="43.58652" lon="6.41179">
        <ele>624.5</ele>
        <time>2026-02-22T11:37:49Z</time>
      </trkpt>
      <trkpt lat="43.58652" lon="6.41179">
        <ele>624.5</ele>
        <time>2026-02-22T11:37:50Z</time>
      </trkpt>
      <trkpt lat="43.58652" lon="6.41179">
        <ele>624.4</ele>
        <time>2026-02-22T11:37:51Z</time>
      </trkpt>
      <trkpt lat="43.58652" lon="6.41179">
        <ele>624.4</ele>
        <time>2026-02-22T11:37:52Z</time>
      </trkpt>
      <trkpt lat="43.58652" lon="6.41179">
        <ele>624.4</ele>
        <time>2026-02-22T11:37:53Z</time>
      </trkpt>
      <trkpt lat="43.58652" lon="6.41179">
        <ele>624.3</ele>
        <time>2026-02-22T11:37:54Z</time>
      </trkpt>
      <trkpt lat="43.58652" lon="6.41179">
        <ele>624.2</ele>
        <time>2026-02-22T11:37:55Z</time>
      </trkpt>
      <trkpt lat="43.58652" lon="6.41179">
        <ele>624.2</ele>
        <time>2026-02-22T11:37:56Z</time>
      </trkpt>
      <trkpt lat="43.58652" lon="6.41179">
        <ele>624.1</ele>
        <time>2026-02-22T11:37:57Z</time>
      </trkpt>
      <trkpt lat="43.58652" lon="6.41179">
        <ele>624</ele>
        <time>2026-02-22T11:37:58Z</time>
      </trkpt>
      <trkpt lat="43.58652" lon="6.41179">
        <ele>624</ele>
        <time>2026-02-22T11:37:59Z</time>
      </trkpt>
      <trkpt lat="43.58652" lon="6.41179">
        <ele>624</ele>
        <time>2026-02-22T11:38:00Z</time>
      </trkpt>
      <trkpt lat="43.58652" lon="6.41179">
        <ele>624.1</ele>
        <time>2026-02-22T11:38:01Z</time>
      </trkpt>
      <trkpt lat="43.58652" lon="6.41179">
        <ele>624.2</ele>
        <time>2026-02-22T11:38:02Z</time>
      </trkpt>
      <trkpt lat="43.58652" lon="6.41179">
        <ele>624.2</ele>
        <time>2026-02-22T11:38:03Z</time>
      </trkpt>
      <trkpt lat="43.58652" lon="6.41179">
        <ele>624.2</ele>
        <time>2026-02-22T11:38:04Z</time>
      </trkpt>
      <trkpt lat="43.58652" lon="6.41179">
        <ele>624.3</ele>
        <time>2026-02-22T11:38:05Z</time>
      </trkpt>
      <trkpt lat="43.58652" lon="6.41179">
        <ele>624.3</ele>
        <time>2026-02-22T11:38:06Z</time>
      </trkpt>
      <trkpt lat="43.58652" lon="6.41179">
        <ele>624.3</ele>
        <time>2026-02-22T11:38:07Z</time>
      </trkpt>
      <trkpt lat="43.58652" lon="6.41179">
        <ele>624.3</ele>
        <time>2026-02-22T11:38:08Z</time>
      </trkpt>
      <trkpt lat="43.58652" lon="6.41179">
        <ele>624.2</ele>
        <time>2026-02-22T11:38:09Z</time>
      </trkpt>
      <trkpt lat="43.58652" lon="6.4118">
        <ele>624.2</ele>
        <time>2026-02-22T11:38:10Z</time>
      </trkpt>
      <trkpt lat="43.58652" lon="6.4118">
        <ele>624.1</ele>
        <time>2026-02-22T11:38:11Z</time>
      </trkpt>
      <trkpt lat="43.58652" lon="6.4118">
        <ele>624.1</ele>
        <time>2026-02-22T11:38:12Z</time>
      </trkpt>
      <trkpt lat="43.58652" lon="6.4118">
        <ele>624.2</ele>
        <time>2026-02-22T11:38:13Z</time>
      </trkpt>
      <trkpt lat="43.58652" lon="6.4118">
        <ele>624.2</ele>
        <time>2026-02-22T11:38:14Z</time>
      </trkpt>
      <trkpt lat="43.58652" lon="6.4118">
        <ele>624.2</ele>
        <time>2026-02-22T11:38:15Z</time>
      </trkpt>
      <trkpt lat="43.58652" lon="6.4118">
        <ele>624.2</ele>
        <time>2026-02-22T11:38:16Z</time>
      </trkpt>
      <trkpt lat="43.58652" lon="6.4118">
        <ele>624.1</ele>
        <time>2026-02-22T11:38:17Z</time>
      </trkpt>
      <trkpt lat="43.58652" lon="6.4118">
        <ele>624.1</ele>
        <time>2026-02-22T11:38:18Z</time>
      </trkpt>
      <trkpt lat="43.58652" lon="6.4118">
        <ele>624.2</ele>
        <time>2026-02-22T11:38:19Z</time>
      </trkpt>
      <trkpt lat="43.58652" lon="6.4118">
        <ele>624.2</ele>
        <time>2026-02-22T11:38:20Z</time>
      </trkpt>
      <trkpt lat="43.58652" lon="6.4118">
        <ele>624.2</ele>
        <time>2026-02-22T11:38:21Z</time>
      </trkpt>
      <trkpt lat="43.58652" lon="6.4118">
        <ele>624.3</ele>
        <time>2026-02-22T11:38:22Z</time>
      </trkpt>
      <trkpt lat="43.58652" lon="6.41181">
        <ele>624.3</ele>
        <time>2026-02-22T11:38:23Z</time>
      </trkpt>
      <trkpt lat="43.58652" lon="6.4118">
        <ele>624.4</ele>
        <time>2026-02-22T11:38:24Z</time>
      </trkpt>
      <trkpt lat="43.58652" lon="6.4118">
        <ele>624.5</ele>
        <time>2026-02-22T11:38:25Z</time>
      </trkpt>
      <trkpt lat="43.58652" lon="6.4118">
        <ele>624.5</ele>
        <time>2026-02-22T11:38:26Z</time>
      </trkpt>
      <trkpt lat="43.58652" lon="6.4118">
        <ele>624.4</ele>
        <time>2026-02-22T11:38:27Z</time>
      </trkpt>
      <trkpt lat="43.58652" lon="6.4118">
        <ele>624.5</ele>
        <time>2026-02-22T11:38:28Z</time>
      </trkpt>
      <trkpt lat="43.58652" lon="6.4118">
        <ele>624.5</ele>
        <time>2026-02-22T11:38:29Z</time>
      </trkpt>
      <trkpt lat="43.58652" lon="6.4118">
        <ele>624.4</ele>
        <time>2026-02-22T11:38:30Z</time>
      </trkpt>
      <trkpt lat="43.58652" lon="6.4118">
        <ele>624.3</ele>
        <time>2026-02-22T11:38:31Z</time>
      </trkpt>
      <trkpt lat="43.58652" lon="6.4118">
        <ele>624.4</ele>
        <time>2026-02-22T11:38:32Z</time>
      </trkpt>
      <trkpt lat="43.58652" lon="6.4118">
        <ele>624.4</ele>
        <time>2026-02-22T11:38:33Z</time>
      </trkpt>
      <trkpt lat="43.58652" lon="6.4118">
        <ele>624.4</ele>
        <time>2026-02-22T11:38:34Z</time>
      </trkpt>
      <trkpt lat="43.58653" lon="6.41181">
        <ele>624.4</ele>
        <time>2026-02-22T11:38:35Z</time>
      </trkpt>
      <trkpt lat="43.58653" lon="6.41181">
        <ele>624.5</ele>
        <time>2026-02-22T11:38:36Z</time>
      </trkpt>
      <trkpt lat="43.58653" lon="6.41181">
        <ele>624.3</ele>
        <time>2026-02-22T11:38:37Z</time>
      </trkpt>
      <trkpt lat="43.58653" lon="6.41181">
        <ele>624.3</ele>
        <time>2026-02-22T11:38:38Z</time>
      </trkpt>
      <trkpt lat="43.58653" lon="6.41181">
        <ele>624.3</ele>
        <time>2026-02-22T11:38:39Z</time>
      </trkpt>
      <trkpt lat="43.58653" lon="6.41181">
        <ele>624.3</ele>
        <time>2026-02-22T11:38:40Z</time>
      </trkpt>
      <trkpt lat="43.58653" lon="6.41181">
        <ele>624.3</ele>
        <time>2026-02-22T11:38:41Z</time>
      </trkpt>
      <trkpt lat="43.58653" lon="6.41181">
        <ele>624.3</ele>
        <time>2026-02-22T11:38:42Z</time>
      </trkpt>
      <trkpt lat="43.58653" lon="6.41181">
        <ele>624.4</ele>
        <time>2026-02-22T11:38:43Z</time>
      </trkpt>
      <trkpt lat="43.58653" lon="6.41181">
        <ele>624.3</ele>
        <time>2026-02-22T11:38:44Z</time>
      </trkpt>
      <trkpt lat="43.58653" lon="6.41181">
        <ele>624.2</ele>
        <time>2026-02-22T11:38:45Z</time>
      </trkpt>
      <trkpt lat="43.58653" lon="6.41181">
        <ele>624.2</ele>
        <time>2026-02-22T11:38:46Z</time>
      </trkpt>
      <trkpt lat="43.58653" lon="6.41181">
        <ele>624.3</ele>
        <time>2026-02-22T11:38:47Z</time>
      </trkpt>
      <trkpt lat="43.58653" lon="6.41181">
        <ele>624.3</ele>
        <time>2026-02-22T11:38:48Z</time>
      </trkpt>
      <trkpt lat="43.58653" lon="6.41181">
        <ele>624.3</ele>
        <time>2026-02-22T11:38:49Z</time>
      </trkpt>
      <trkpt lat="43.58653" lon="6.41181">
        <ele>624.3</ele>
        <time>2026-02-22T11:38:50Z</time>
      </trkpt>
      <trkpt lat="43.58653" lon="6.41181">
        <ele>624.1</ele>
        <time>2026-02-22T11:38:51Z</time>
      </trkpt>
      <trkpt lat="43.58653" lon="6.41181">
        <ele>624.1</ele>
        <time>2026-02-22T11:38:52Z</time>
      </trkpt>
      <trkpt lat="43.58653" lon="6.41181">
        <ele>624</ele>
        <time>2026-02-22T11:38:53Z</time>
      </trkpt>
      <trkpt lat="43.58653" lon="6.41181">
        <ele>624</ele>
        <time>2026-02-22T11:38:54Z</time>
      </trkpt>
      <trkpt lat="43.58653" lon="6.41181">
        <ele>624.1</ele>
        <time>2026-02-22T11:38:55Z</time>
      </trkpt>
      <trkpt lat="43.58653" lon="6.41181">
        <ele>624.1</ele>
        <time>2026-02-22T11:38:56Z</time>
      </trkpt>
      <trkpt lat="43.58653" lon="6.41181">
        <ele>624.2</ele>
        <time>2026-02-22T11:38:57Z</time>
      </trkpt>
      <trkpt lat="43.58653" lon="6.41181">
        <ele>624.2</ele>
        <time>2026-02-22T11:38:58Z</time>
      </trkpt>
      <trkpt lat="43.58653" lon="6.41181">
        <ele>624.4</ele>
        <time>2026-02-22T11:38:59Z</time>
      </trkpt>
      <trkpt lat="43.58653" lon="6.41181">
        <ele>624.4</ele>
        <time>2026-02-22T11:39:00Z</time>
      </trkpt>
      <trkpt lat="43.58653" lon="6.41181">
        <ele>624.4</ele>
        <time>2026-02-22T11:39:01Z</time>
      </trkpt>
      <trkpt lat="43.58653" lon="6.41181">
        <ele>624.4</ele>
        <time>2026-02-22T11:39:02Z</time>
      </trkpt>
      <trkpt lat="43.58653" lon="6.41181">
        <ele>624.4</ele>
        <time>2026-02-22T11:39:03Z</time>
      </trkpt>
      <trkpt lat="43.58653" lon="6.41181">
        <ele>624.4</ele>
        <time>2026-02-22T11:39:04Z</time>
      </trkpt>
      <trkpt lat="43.58653" lon="6.41181">
        <ele>624.4</ele>
        <time>2026-02-22T11:39:05Z</time>
      </trkpt>
      <trkpt lat="43.58653" lon="6.41181">
        <ele>624.4</ele>
        <time>2026-02-22T11:39:06Z</time>
      </trkpt>
      <trkpt lat="43.58653" lon="6.41181">
        <ele>624.5</ele>
        <time>2026-02-22T11:39:07Z</time>
      </trkpt>
      <trkpt lat="43.58653" lon="6.41181">
        <ele>624.5</ele>
        <time>2026-02-22T11:39:08Z</time>
      </trkpt>
      <trkpt lat="43.58653" lon="6.41181">
        <ele>624.4</ele>
        <time>2026-02-22T11:39:09Z</time>
      </trkpt>
      <trkpt lat="43.58653" lon="6.41181">
        <ele>624.3</ele>
        <time>2026-02-22T11:39:10Z</time>
      </trkpt>
      <trkpt lat="43.58653" lon="6.41181">
        <ele>624.3</ele>
        <time>2026-02-22T11:39:11Z</time>
      </trkpt>
      <trkpt lat="43.58653" lon="6.41181">
        <ele>624.3</ele>
        <time>2026-02-22T11:39:12Z</time>
      </trkpt>
      <trkpt lat="43.58653" lon="6.41181">
        <ele>624.2</ele>
        <time>2026-02-22T11:39:13Z</time>
      </trkpt>
      <trkpt lat="43.58653" lon="6.41181">
        <ele>624.2</ele>
        <time>2026-02-22T11:39:14Z</time>
      </trkpt>
      <trkpt lat="43.58653" lon="6.41181">
        <ele>624.2</ele>
        <time>2026-02-22T11:39:15Z</time>
      </trkpt>
      <trkpt lat="43.58653" lon="6.41181">
        <ele>624.3</ele>
        <time>2026-02-22T11:39:16Z</time>
      </trkpt>
      <trkpt lat="43.58653" lon="6.41181">
        <ele>624.2</ele>
        <time>2026-02-22T11:39:17Z</time>
      </trkpt>
      <trkpt lat="43.58653" lon="6.41181">
        <ele>624.3</ele>
        <time>2026-02-22T11:39:18Z</time>
      </trkpt>
      <trkpt lat="43.58653" lon="6.41181">
        <ele>624.2</ele>
        <time>2026-02-22T11:39:19Z</time>
      </trkpt>
      <trkpt lat="43.58653" lon="6.41181">
        <ele>624.2</ele>
        <time>2026-02-22T11:39:20Z</time>
      </trkpt>
      <trkpt lat="43.58653" lon="6.41181">
        <ele>624.3</ele>
        <time>2026-02-22T11:39:21Z</time>
      </trkpt>
      <trkpt lat="43.58653" lon="6.41181">
        <ele>624.3</ele>
        <time>2026-02-22T11:39:22Z</time>
      </trkpt>
      <trkpt lat="43.58653" lon="6.41181">
        <ele>624.3</ele>
        <time>2026-02-22T11:39:23Z</time>
      </trkpt>
      <trkpt lat="43.58653" lon="6.41181">
        <ele>624.2</ele>
        <time>2026-02-22T11:39:24Z</time>
      </trkpt>
      <trkpt lat="43.58653" lon="6.41181">
        <ele>624.2</ele>
        <time>2026-02-22T11:39:25Z</time>
      </trkpt>
      <trkpt lat="43.58653" lon="6.41181">
        <ele>624.2</ele>
        <time>2026-02-22T11:39:26Z</time>
      </trkpt>
      <trkpt lat="43.58653" lon="6.41181">
        <ele>624.2</ele>
        <time>2026-02-22T11:39:27Z</time>
      </trkpt>
      <trkpt lat="43.58653" lon="6.41181">
        <ele>624.1</ele>
        <time>2026-02-22T11:39:28Z</time>
      </trkpt>
      <trkpt lat="43.58653" lon="6.41181">
        <ele>624.2</ele>
        <time>2026-02-22T11:39:29Z</time>
      </trkpt>
      <trkpt lat="43.58653" lon="6.41181">
        <ele>624.2</ele>
        <time>2026-02-22T11:39:30Z</time>
      </trkpt>
      <trkpt lat="43.58653" lon="6.41181">
        <ele>624.3</ele>
        <time>2026-02-22T11:39:31Z</time>
      </trkpt>
      <trkpt lat="43.58653" lon="6.41181">
        <ele>624.3</ele>
        <time>2026-02-22T11:39:32Z</time>
      </trkpt>
      <trkpt lat="43.58653" lon="6.41181">
        <ele>624.4</ele>
        <time>2026-02-22T11:39:33Z</time>
      </trkpt>
      <trkpt lat="43.58653" lon="6.41181">
        <ele>624.4</ele>
        <time>2026-02-22T11:39:34Z</time>
      </trkpt>
      <trkpt lat="43.58653" lon="6.41181">
        <ele>624.4</ele>
        <time>2026-02-22T11:39:35Z</time>
      </trkpt>
      <trkpt lat="43.58653" lon="6.41181">
        <ele>624.4</ele>
        <time>2026-02-22T11:39:36Z</time>
      </trkpt>
      <trkpt lat="43.58653" lon="6.41181">
        <ele>624.5</ele>
        <time>2026-02-22T11:39:37Z</time>
      </trkpt>
      <trkpt lat="43.58652" lon="6.41181">
        <ele>624.4</ele>
        <time>2026-02-22T11:39:38Z</time>
      </trkpt>
      <trkpt lat="43.58652" lon="6.41181">
        <ele>624.4</ele>
        <time>2026-02-22T11:39:39Z</time>
      </trkpt>
      <trkpt lat="43.58652" lon="6.41181">
        <ele>624.5</ele>
        <time>2026-02-22T11:39:40Z</time>
      </trkpt>
      <trkpt lat="43.58652" lon="6.41181">
        <ele>624.4</ele>
        <time>2026-02-22T11:39:41Z</time>
      </trkpt>
      <trkpt lat="43.58652" lon="6.41181">
        <ele>624.4</ele>
        <time>2026-02-22T11:39:42Z</time>
      </trkpt>
      <trkpt lat="43.58653" lon="6.41181">
        <ele>624.4</ele>
        <time>2026-02-22T11:39:43Z</time>
      </trkpt>
      <trkpt lat="43.58653" lon="6.41181">
        <ele>624.5</ele>
        <time>2026-02-22T11:39:44Z</time>
      </trkpt>
      <trkpt lat="43.58653" lon="6.41181">
        <ele>624.6</ele>
        <time>2026-02-22T11:39:45Z</time>
      </trkpt>
      <trkpt lat="43.58653" lon="6.41181">
        <ele>624.7</ele>
        <time>2026-02-22T11:39:46Z</time>
      </trkpt>
      <trkpt lat="43.58653" lon="6.41181">
        <ele>624.7</ele>
        <time>2026-02-22T11:39:47Z</time>
      </trkpt>
      <trkpt lat="43.58653" lon="6.41181">
        <ele>624.7</ele>
        <time>2026-02-22T11:39:48Z</time>
      </trkpt>
      <trkpt lat="43.58653" lon="6.41181">
        <ele>624.7</ele>
        <time>2026-02-22T11:39:49Z</time>
      </trkpt>
      <trkpt lat="43.58653" lon="6.41181">
        <ele>624.7</ele>
        <time>2026-02-22T11:39:50Z</time>
      </trkpt>
      <trkpt lat="43.58653" lon="6.41181">
        <ele>624.7</ele>
        <time>2026-02-22T11:39:51Z</time>
      </trkpt>
      <trkpt lat="43.58652" lon="6.41181">
        <ele>624.6</ele>
        <time>2026-02-22T11:39:52Z</time>
      </trkpt>
      <trkpt lat="43.58652" lon="6.41181">
        <ele>624.6</ele>
        <time>2026-02-22T11:39:53Z</time>
      </trkpt>
      <trkpt lat="43.58652" lon="6.41181">
        <ele>624.6</ele>
        <time>2026-02-22T11:39:54Z</time>
      </trkpt>
      <trkpt lat="43.58652" lon="6.41181">
        <ele>624.6</ele>
        <time>2026-02-22T11:39:55Z</time>
      </trkpt>
      <trkpt lat="43.58652" lon="6.41181">
        <ele>624.6</ele>
        <time>2026-02-22T11:39:56Z</time>
      </trkpt>
      <trkpt lat="43.58652" lon="6.41181">
        <ele>624.7</ele>
        <time>2026-02-22T11:39:57Z</time>
      </trkpt>
      <trkpt lat="43.58652" lon="6.41181">
        <ele>624.7</ele>
        <time>2026-02-22T11:39:58Z</time>
      </trkpt>
      <trkpt lat="43.58652" lon="6.41181">
        <ele>624.7</ele>
        <time>2026-02-22T11:39:59Z</time>
      </trkpt>
      <trkpt lat="43.58652" lon="6.41181">
        <ele>624.6</ele>
        <time>2026-02-22T11:40:00Z</time>
      </trkpt>
      <trkpt lat="43.58652" lon="6.41181">
        <ele>624.6</ele>
        <time>2026-02-22T11:40:01Z</time>
      </trkpt>
      <trkpt lat="43.58652" lon="6.41181">
        <ele>624.6</ele>
        <time>2026-02-22T11:40:02Z</time>
      </trkpt>
      <trkpt lat="43.58652" lon="6.41181">
        <ele>624.5</ele>
        <time>2026-02-22T11:40:03Z</time>
      </trkpt>
      <trkpt lat="43.58652" lon="6.41181">
        <ele>624.5</ele>
        <time>2026-02-22T11:40:04Z</time>
      </trkpt>
      <trkpt lat="43.58652" lon="6.41181">
        <ele>624.5</ele>
        <time>2026-02-22T11:40:05Z</time>
      </trkpt>
      <trkpt lat="43.58652" lon="6.41181">
        <ele>624.5</ele>
        <time>2026-02-22T11:40:06Z</time>
      </trkpt>
      <trkpt lat="43.58652" lon="6.41181">
        <ele>624.5</ele>
        <time>2026-02-22T11:40:07Z</time>
      </trkpt>
      <trkpt lat="43.58652" lon="6.41181">
        <ele>624.5</ele>
        <time>2026-02-22T11:40:08Z</time>
      </trkpt>
      <trkpt lat="43.58652" lon="6.41181">
        <ele>624.5</ele>
        <time>2026-02-22T11:40:09Z</time>
      </trkpt>
      <trkpt lat="43.58652" lon="6.41181">
        <ele>624.4</ele>
        <time>2026-02-22T11:40:10Z</time>
      </trkpt>
      <trkpt lat="43.58652" lon="6.41181">
        <ele>624.5</ele>
        <time>2026-02-22T11:40:11Z</time>
      </trkpt>
      <trkpt lat="43.58652" lon="6.41181">
        <ele>624.5</ele>
        <time>2026-02-22T11:40:12Z</time>
      </trkpt>
      <trkpt lat="43.58652" lon="6.41181">
        <ele>624.4</ele>
        <time>2026-02-22T11:40:13Z</time>
      </trkpt>
      <trkpt lat="43.58652" lon="6.41181">
        <ele>624.3</ele>
        <time>2026-02-22T11:40:14Z</time>
      </trkpt>
      <trkpt lat="43.58652" lon="6.41181">
        <ele>624.3</ele>
        <time>2026-02-22T11:40:15Z</time>
      </trkpt>
      <trkpt lat="43.58652" lon="6.41181">
        <ele>624.2</ele>
        <time>2026-02-22T11:40:16Z</time>
      </trkpt>
      <trkpt lat="43.58652" lon="6.41181">
        <ele>624.3</ele>
        <time>2026-02-22T11:40:17Z</time>
      </trkpt>
      <trkpt lat="43.58652" lon="6.41181">
        <ele>624.3</ele>
        <time>2026-02-22T11:40:18Z</time>
      </trkpt>
      <trkpt lat="43.58652" lon="6.4118">
        <ele>624.3</ele>
        <time>2026-02-22T11:40:19Z</time>
      </trkpt>
      <trkpt lat="43.58652" lon="6.4118">
        <ele>624.3</ele>
        <time>2026-02-22T11:40:20Z</time>
      </trkpt>
      <trkpt lat="43.58652" lon="6.4118">
        <ele>624.4</ele>
        <time>2026-02-22T11:40:21Z</time>
      </trkpt>
      <trkpt lat="43.58652" lon="6.4118">
        <ele>624.4</ele>
        <time>2026-02-22T11:40:22Z</time>
      </trkpt>
      <trkpt lat="43.58652" lon="6.4118">
        <ele>624.4</ele>
        <time>2026-02-22T11:40:23Z</time>
      </trkpt>
      <trkpt lat="43.58652" lon="6.4118">
        <ele>624.4</ele>
        <time>2026-02-22T11:40:24Z</time>
      </trkpt>
      <trkpt lat="43.58652" lon="6.4118">
        <ele>624.4</ele>
        <time>2026-02-22T11:40:25Z</time>
      </trkpt>
      <trkpt lat="43.58652" lon="6.4118">
        <ele>624.5</ele>
        <time>2026-02-22T11:40:26Z</time>
      </trkpt>
      <trkpt lat="43.58652" lon="6.4118">
        <ele>624.6</ele>
        <time>2026-02-22T11:40:27Z</time>
      </trkpt>
      <trkpt lat="43.58652" lon="6.4118">
        <ele>624.6</ele>
        <time>2026-02-22T11:40:28Z</time>
      </trkpt>
      <trkpt lat="43.58652" lon="6.4118">
        <ele>624.6</ele>
        <time>2026-02-22T11:40:29Z</time>
      </trkpt>
      <trkpt lat="43.58652" lon="6.4118">
        <ele>624.7</ele>
        <time>2026-02-22T11:40:30Z</time>
      </trkpt>
      <trkpt lat="43.58652" lon="6.4118">
        <ele>624.8</ele>
        <time>2026-02-22T11:40:31Z</time>
      </trkpt>
      <trkpt lat="43.58652" lon="6.4118">
        <ele>624.7</ele>
        <time>2026-02-22T11:40:32Z</time>
      </trkpt>
      <trkpt lat="43.58652" lon="6.4118">
        <ele>624.7</ele>
        <time>2026-02-22T11:40:33Z</time>
      </trkpt>
      <trkpt lat="43.58652" lon="6.4118">
        <ele>624.7</ele>
        <time>2026-02-22T11:40:34Z</time>
      </trkpt>
      <trkpt lat="43.58652" lon="6.4118">
        <ele>624.7</ele>
        <time>2026-02-22T11:40:35Z</time>
      </trkpt>
      <trkpt lat="43.58652" lon="6.4118">
        <ele>624.7</ele>
        <time>2026-02-22T11:40:36Z</time>
      </trkpt>
      <trkpt lat="43.58652" lon="6.4118">
        <ele>624.7</ele>
        <time>2026-02-22T11:40:37Z</time>
      </trkpt>
      <trkpt lat="43.58652" lon="6.4118">
        <ele>624.6</ele>
        <time>2026-02-22T11:40:38Z</time>
      </trkpt>
      <trkpt lat="43.58652" lon="6.4118">
        <ele>624.6</ele>
        <time>2026-02-22T11:40:39Z</time>
      </trkpt>
      <trkpt lat="43.58652" lon="6.4118">
        <ele>624.6</ele>
        <time>2026-02-22T11:40:40Z</time>
      </trkpt>
      <trkpt lat="43.58652" lon="6.4118">
        <ele>624.6</ele>
        <time>2026-02-22T11:40:41Z</time>
      </trkpt>
      <trkpt lat="43.58652" lon="6.4118">
        <ele>624.6</ele>
        <time>2026-02-22T11:40:42Z</time>
      </trkpt>
      <trkpt lat="43.58652" lon="6.4118">
        <ele>624.6</ele>
        <time>2026-02-22T11:40:43Z</time>
      </trkpt>
      <trkpt lat="43.58652" lon="6.4118">
        <ele>624.7</ele>
        <time>2026-02-22T11:40:44Z</time>
      </trkpt>
      <trkpt lat="43.58652" lon="6.4118">
        <ele>624.7</ele>
        <time>2026-02-22T11:40:45Z</time>
      </trkpt>
      <trkpt lat="43.58652" lon="6.4118">
        <ele>624.7</ele>
        <time>2026-02-22T11:40:46Z</time>
      </trkpt>
      <trkpt lat="43.58652" lon="6.4118">
        <ele>624.7</ele>
        <time>2026-02-22T11:40:47Z</time>
      </trkpt>
      <trkpt lat="43.58651" lon="6.4118">
        <ele>624.8</ele>
        <time>2026-02-22T11:40:48Z</time>
      </trkpt>
      <trkpt lat="43.58652" lon="6.4118">
        <ele>624.7</ele>
        <time>2026-02-22T11:40:49Z</time>
      </trkpt>
      <trkpt lat="43.58651" lon="6.4118">
        <ele>624.7</ele>
        <time>2026-02-22T11:40:50Z</time>
      </trkpt>
      <trkpt lat="43.58651" lon="6.41179">
        <ele>624.6</ele>
        <time>2026-02-22T11:40:51Z</time>
      </trkpt>
      <trkpt lat="43.58651" lon="6.41179">
        <ele>624.6</ele>
        <time>2026-02-22T11:40:52Z</time>
      </trkpt>
      <trkpt lat="43.58651" lon="6.41179">
        <ele>624.5</ele>
        <time>2026-02-22T11:40:53Z</time>
      </trkpt>
      <trkpt lat="43.58651" lon="6.41179">
        <ele>624.5</ele>
        <time>2026-02-22T11:40:54Z</time>
      </trkpt>
      <trkpt lat="43.58651" lon="6.41179">
        <ele>624.5</ele>
        <time>2026-02-22T11:40:55Z</time>
      </trkpt>
      <trkpt lat="43.58651" lon="6.41179">
        <ele>624.6</ele>
        <time>2026-02-22T11:40:56Z</time>
      </trkpt>
      <trkpt lat="43.58651" lon="6.41179">
        <ele>624.6</ele>
        <time>2026-02-22T11:40:57Z</time>
      </trkpt>
      <trkpt lat="43.58651" lon="6.41179">
        <ele>624.6</ele>
        <time>2026-02-22T11:40:58Z</time>
      </trkpt>
      <trkpt lat="43.58651" lon="6.4118">
        <ele>624.7</ele>
        <time>2026-02-22T11:40:59Z</time>
      </trkpt>
      <trkpt lat="43.58651" lon="6.4118">
        <ele>624.7</ele>
        <time>2026-02-22T11:41:00Z</time>
      </trkpt>
      <trkpt lat="43.58651" lon="6.4118">
        <ele>624.7</ele>
        <time>2026-02-22T11:41:01Z</time>
      </trkpt>
      <trkpt lat="43.58651" lon="6.4118">
        <ele>624.7</ele>
        <time>2026-02-22T11:41:02Z</time>
      </trkpt>
      <trkpt lat="43.58651" lon="6.4118">
        <ele>624.8</ele>
        <time>2026-02-22T11:41:03Z</time>
      </trkpt>
      <trkpt lat="43.58651" lon="6.41179">
        <ele>624.9</ele>
        <time>2026-02-22T11:41:04Z</time>
      </trkpt>
      <trkpt lat="43.58651" lon="6.41179">
        <ele>624.8</ele>
        <time>2026-02-22T11:41:05Z</time>
      </trkpt>
      <trkpt lat="43.58651" lon="6.41179">
        <ele>624.9</ele>
        <time>2026-02-22T11:41:06Z</time>
      </trkpt>
      <trkpt lat="43.58651" lon="6.41179">
        <ele>625</ele>
        <time>2026-02-22T11:41:07Z</time>
      </trkpt>
      <trkpt lat="43.58651" lon="6.41179">
        <ele>625.1</ele>
        <time>2026-02-22T11:41:08Z</time>
      </trkpt>
      <trkpt lat="43.58651" lon="6.41179">
        <ele>625.1</ele>
        <time>2026-02-22T11:41:09Z</time>
      </trkpt>
      <trkpt lat="43.58651" lon="6.41179">
        <ele>625.1</ele>
        <time>2026-02-22T11:41:10Z</time>
      </trkpt>
      <trkpt lat="43.58651" lon="6.41179">
        <ele>625.2</ele>
        <time>2026-02-22T11:41:11Z</time>
      </trkpt>
      <trkpt lat="43.58651" lon="6.41179">
        <ele>625.2</ele>
        <time>2026-02-22T11:41:12Z</time>
      </trkpt>
      <trkpt lat="43.58651" lon="6.4118">
        <ele>625.2</ele>
        <time>2026-02-22T11:41:13Z</time>
      </trkpt>
      <trkpt lat="43.58651" lon="6.4118">
        <ele>625.2</ele>
        <time>2026-02-22T11:41:14Z</time>
      </trkpt>
      <trkpt lat="43.58651" lon="6.4118">
        <ele>625.3</ele>
        <time>2026-02-22T11:41:15Z</time>
      </trkpt>
      <trkpt lat="43.58651" lon="6.4118">
        <ele>625.3</ele>
        <time>2026-02-22T11:41:16Z</time>
      </trkpt>
      <trkpt lat="43.58651" lon="6.4118">
        <ele>625.3</ele>
        <time>2026-02-22T11:41:17Z</time>
      </trkpt>
      <trkpt lat="43.58651" lon="6.4118">
        <ele>625.3</ele>
        <time>2026-02-22T11:41:18Z</time>
      </trkpt>
      <trkpt lat="43.58651" lon="6.4118">
        <ele>625.3</ele>
        <time>2026-02-22T11:41:19Z</time>
      </trkpt>
      <trkpt lat="43.58651" lon="6.4118">
        <ele>625.4</ele>
        <time>2026-02-22T11:41:20Z</time>
      </trkpt>
      <trkpt lat="43.58651" lon="6.4118">
        <ele>625.4</ele>
        <time>2026-02-22T11:41:21Z</time>
      </trkpt>
      <trkpt lat="43.58651" lon="6.4118">
        <ele>625.3</ele>
        <time>2026-02-22T11:41:22Z</time>
      </trkpt>
      <trkpt lat="43.58651" lon="6.41181">
        <ele>625.3</ele>
        <time>2026-02-22T11:41:23Z</time>
      </trkpt>
      <trkpt lat="43.58651" lon="6.41181">
        <ele>625.3</ele>
        <time>2026-02-22T11:41:24Z</time>
      </trkpt>
      <trkpt lat="43.58651" lon="6.41181">
        <ele>625.3</ele>
        <time>2026-02-22T11:41:25Z</time>
      </trkpt>
      <trkpt lat="43.58651" lon="6.41181">
        <ele>625.3</ele>
        <time>2026-02-22T11:41:26Z</time>
      </trkpt>
      <trkpt lat="43.58651" lon="6.41181">
        <ele>625.3</ele>
        <time>2026-02-22T11:41:27Z</time>
      </trkpt>
      <trkpt lat="43.58651" lon="6.41181">
        <ele>625.3</ele>
        <time>2026-02-22T11:41:28Z</time>
      </trkpt>
      <trkpt lat="43.58651" lon="6.41181">
        <ele>625.2</ele>
        <time>2026-02-22T11:41:29Z</time>
      </trkpt>
      <trkpt lat="43.58651" lon="6.41181">
        <ele>625.2</ele>
        <time>2026-02-22T11:41:30Z</time>
      </trkpt>
      <trkpt lat="43.58651" lon="6.41181">
        <ele>625.2</ele>
        <time>2026-02-22T11:41:31Z</time>
      </trkpt>
      <trkpt lat="43.58651" lon="6.41181">
        <ele>625.3</ele>
        <time>2026-02-22T11:41:32Z</time>
      </trkpt>
      <trkpt lat="43.58651" lon="6.41181">
        <ele>625.3</ele>
        <time>2026-02-22T11:41:33Z</time>
      </trkpt>
      <trkpt lat="43.58651" lon="6.41181">
        <ele>625.4</ele>
        <time>2026-02-22T11:41:34Z</time>
      </trkpt>
      <trkpt lat="43.58651" lon="6.41181">
        <ele>625.4</ele>
        <time>2026-02-22T11:41:35Z</time>
      </trkpt>
      <trkpt lat="43.5865" lon="6.41181">
        <ele>625.5</ele>
        <time>2026-02-22T11:41:36Z</time>
      </trkpt>
      <trkpt lat="43.5865" lon="6.41181">
        <ele>625.5</ele>
        <time>2026-02-22T11:41:37Z</time>
      </trkpt>
      <trkpt lat="43.5865" lon="6.41181">
        <ele>625.5</ele>
        <time>2026-02-22T11:41:38Z</time>
      </trkpt>
      <trkpt lat="43.5865" lon="6.41181">
        <ele>625.5</ele>
        <time>2026-02-22T11:41:39Z</time>
      </trkpt>
      <trkpt lat="43.5865" lon="6.41181">
        <ele>625.5</ele>
        <time>2026-02-22T11:41:40Z</time>
      </trkpt>
      <trkpt lat="43.5865" lon="6.41181">
        <ele>625.5</ele>
        <time>2026-02-22T11:41:41Z</time>
      </trkpt>
      <trkpt lat="43.5865" lon="6.41181">
        <ele>625.5</ele>
        <time>2026-02-22T11:41:42Z</time>
      </trkpt>
      <trkpt lat="43.5865" lon="6.41181">
        <ele>625.5</ele>
        <time>2026-02-22T11:41:43Z</time>
      </trkpt>
      <trkpt lat="43.5865" lon="6.41181">
        <ele>625.5</ele>
        <time>2026-02-22T11:41:44Z</time>
      </trkpt>
      <trkpt lat="43.5865" lon="6.41181">
        <ele>625.5</ele>
        <time>2026-02-22T11:41:45Z</time>
      </trkpt>
      <trkpt lat="43.5865" lon="6.41181">
        <ele>625.4</ele>
        <time>2026-02-22T11:41:46Z</time>
      </trkpt>
      <trkpt lat="43.5865" lon="6.41181">
        <ele>625.4</ele>
        <time>2026-02-22T11:41:47Z</time>
      </trkpt>
      <trkpt lat="43.5865" lon="6.41181">
        <ele>625.4</ele>
        <time>2026-02-22T11:41:48Z</time>
      </trkpt>
      <trkpt lat="43.5865" lon="6.41181">
        <ele>625.4</ele>
        <time>2026-02-22T11:41:49Z</time>
      </trkpt>
      <trkpt lat="43.5865" lon="6.41181">
        <ele>625.6</ele>
        <time>2026-02-22T11:41:50Z</time>
      </trkpt>
      <trkpt lat="43.5865" lon="6.41181">
        <ele>625.6</ele>
        <time>2026-02-22T11:41:51Z</time>
      </trkpt>
      <trkpt lat="43.5865" lon="6.41181">
        <ele>625.7</ele>
        <time>2026-02-22T11:41:52Z</time>
      </trkpt>
      <trkpt lat="43.5865" lon="6.41181">
        <ele>625.6</ele>
        <time>2026-02-22T11:41:53Z</time>
      </trkpt>
      <trkpt lat="43.5865" lon="6.41181">
        <ele>625.5</ele>
        <time>2026-02-22T11:41:54Z</time>
      </trkpt>
      <trkpt lat="43.5865" lon="6.41181">
        <ele>625.5</ele>
        <time>2026-02-22T11:41:55Z</time>
      </trkpt>
      <trkpt lat="43.5865" lon="6.41181">
        <ele>625.4</ele>
        <time>2026-02-22T11:41:56Z</time>
      </trkpt>
      <trkpt lat="43.5865" lon="6.41181">
        <ele>625.5</ele>
        <time>2026-02-22T11:41:57Z</time>
      </trkpt>
      <trkpt lat="43.5865" lon="6.41181">
        <ele>625.5</ele>
        <time>2026-02-22T11:41:58Z</time>
      </trkpt>
      <trkpt lat="43.5865" lon="6.41181">
        <ele>625.5</ele>
        <time>2026-02-22T11:41:59Z</time>
      </trkpt>
      <trkpt lat="43.5865" lon="6.41181">
        <ele>625.6</ele>
        <time>2026-02-22T11:42:00Z</time>
      </trkpt>
      <trkpt lat="43.5865" lon="6.41181">
        <ele>625.7</ele>
        <time>2026-02-22T11:42:01Z</time>
      </trkpt>
      <trkpt lat="43.5865" lon="6.41181">
        <ele>625.7</ele>
        <time>2026-02-22T11:42:02Z</time>
      </trkpt>
      <trkpt lat="43.5865" lon="6.41181">
        <ele>625.8</ele>
        <time>2026-02-22T11:42:03Z</time>
      </trkpt>
      <trkpt lat="43.5865" lon="6.41181">
        <ele>625.7</ele>
        <time>2026-02-22T11:42:04Z</time>
      </trkpt>
      <trkpt lat="43.5865" lon="6.41181">
        <ele>625.7</ele>
        <time>2026-02-22T11:42:05Z</time>
      </trkpt>
      <trkpt lat="43.5865" lon="6.41181">
        <ele>625.7</ele>
        <time>2026-02-22T11:42:06Z</time>
      </trkpt>
      <trkpt lat="43.5865" lon="6.41181">
        <ele>625.7</ele>
        <time>2026-02-22T11:42:07Z</time>
      </trkpt>
      <trkpt lat="43.5865" lon="6.4118">
        <ele>625.7</ele>
        <time>2026-02-22T11:42:08Z</time>
      </trkpt>
      <trkpt lat="43.5865" lon="6.41181">
        <ele>625.7</ele>
        <time>2026-02-22T11:42:09Z</time>
      </trkpt>
      <trkpt lat="43.5865" lon="6.41181">
        <ele>625.7</ele>
        <time>2026-02-22T11:42:10Z</time>
      </trkpt>
      <trkpt lat="43.5865" lon="6.41181">
        <ele>625.7</ele>
        <time>2026-02-22T11:42:11Z</time>
      </trkpt>
      <trkpt lat="43.5865" lon="6.41181">
        <ele>625.7</ele>
        <time>2026-02-22T11:42:12Z</time>
      </trkpt>
      <trkpt lat="43.5865" lon="6.41181">
        <ele>625.7</ele>
        <time>2026-02-22T11:42:13Z</time>
      </trkpt>
      <trkpt lat="43.5865" lon="6.4118">
        <ele>625.8</ele>
        <time>2026-02-22T11:42:14Z</time>
      </trkpt>
      <trkpt lat="43.5865" lon="6.4118">
        <ele>625.8</ele>
        <time>2026-02-22T11:42:15Z</time>
      </trkpt>
      <trkpt lat="43.5865" lon="6.4118">
        <ele>625.7</ele>
        <time>2026-02-22T11:42:16Z</time>
      </trkpt>
      <trkpt lat="43.5865" lon="6.4118">
        <ele>625.7</ele>
        <time>2026-02-22T11:42:17Z</time>
      </trkpt>
      <trkpt lat="43.5865" lon="6.4118">
        <ele>625.8</ele>
        <time>2026-02-22T11:42:18Z</time>
      </trkpt>
      <trkpt lat="43.5865" lon="6.4118">
        <ele>625.7</ele>
        <time>2026-02-22T11:42:19Z</time>
      </trkpt>
      <trkpt lat="43.5865" lon="6.4118">
        <ele>625.7</ele>
        <time>2026-02-22T11:42:20Z</time>
      </trkpt>
      <trkpt lat="43.5865" lon="6.4118">
        <ele>625.8</ele>
        <time>2026-02-22T11:42:21Z</time>
      </trkpt>
      <trkpt lat="43.5865" lon="6.4118">
        <ele>625.7</ele>
        <time>2026-02-22T11:42:22Z</time>
      </trkpt>
      <trkpt lat="43.5865" lon="6.4118">
        <ele>625.6</ele>
        <time>2026-02-22T11:42:23Z</time>
      </trkpt>
      <trkpt lat="43.5865" lon="6.4118">
        <ele>625.5</ele>
        <time>2026-02-22T11:42:24Z</time>
      </trkpt>
      <trkpt lat="43.5865" lon="6.4118">
        <ele>625.5</ele>
        <time>2026-02-22T11:42:25Z</time>
      </trkpt>
      <trkpt lat="43.5865" lon="6.4118">
        <ele>625.5</ele>
        <time>2026-02-22T11:42:26Z</time>
      </trkpt>
      <trkpt lat="43.5865" lon="6.4118">
        <ele>625.5</ele>
        <time>2026-02-22T11:42:27Z</time>
      </trkpt>
      <trkpt lat="43.5865" lon="6.4118">
        <ele>625.5</ele>
        <time>2026-02-22T11:42:28Z</time>
      </trkpt>
      <trkpt lat="43.5865" lon="6.4118">
        <ele>625.5</ele>
        <time>2026-02-22T11:42:29Z</time>
      </trkpt>
      <trkpt lat="43.5865" lon="6.4118">
        <ele>625.5</ele>
        <time>2026-02-22T11:42:30Z</time>
      </trkpt>
      <trkpt lat="43.5865" lon="6.4118">
        <ele>625.4</ele>
        <time>2026-02-22T11:42:31Z</time>
      </trkpt>
      <trkpt lat="43.58649" lon="6.4118">
        <ele>625.5</ele>
        <time>2026-02-22T11:42:32Z</time>
      </trkpt>
      <trkpt lat="43.58649" lon="6.4118">
        <ele>625.4</ele>
        <time>2026-02-22T11:42:33Z</time>
      </trkpt>
      <trkpt lat="43.58649" lon="6.4118">
        <ele>625.4</ele>
        <time>2026-02-22T11:42:34Z</time>
      </trkpt>
      <trkpt lat="43.58649" lon="6.4118">
        <ele>625.4</ele>
        <time>2026-02-22T11:42:35Z</time>
      </trkpt>
      <trkpt lat="43.58649" lon="6.4118">
        <ele>625.4</ele>
        <time>2026-02-22T11:42:36Z</time>
      </trkpt>
      <trkpt lat="43.58649" lon="6.4118">
        <ele>625.4</ele>
        <time>2026-02-22T11:42:37Z</time>
      </trkpt>
      <trkpt lat="43.58649" lon="6.4118">
        <ele>625.5</ele>
        <time>2026-02-22T11:42:38Z</time>
      </trkpt>
      <trkpt lat="43.58649" lon="6.4118">
        <ele>625.5</ele>
        <time>2026-02-22T11:42:39Z</time>
      </trkpt>
      <trkpt lat="43.58648" lon="6.4118">
        <ele>625.6</ele>
        <time>2026-02-22T11:42:40Z</time>
      </trkpt>
      <trkpt lat="43.58648" lon="6.41179">
        <ele>625.6</ele>
        <time>2026-02-22T11:42:41Z</time>
      </trkpt>
      <trkpt lat="43.58648" lon="6.41179">
        <ele>625.7</ele>
        <time>2026-02-22T11:42:42Z</time>
      </trkpt>
      <trkpt lat="43.58648" lon="6.41179">
        <ele>625.7</ele>
        <time>2026-02-22T11:42:43Z</time>
      </trkpt>
      <trkpt lat="43.58648" lon="6.41179">
        <ele>625.8</ele>
        <time>2026-02-22T11:42:44Z</time>
      </trkpt>
      <trkpt lat="43.58648" lon="6.41179">
        <ele>625.8</ele>
        <time>2026-02-22T11:42:45Z</time>
      </trkpt>
      <trkpt lat="43.58648" lon="6.41179">
        <ele>625.8</ele>
        <time>2026-02-22T11:42:46Z</time>
      </trkpt>
      <trkpt lat="43.58648" lon="6.41179">
        <ele>625.8</ele>
        <time>2026-02-22T11:42:47Z</time>
      </trkpt>
      <trkpt lat="43.58648" lon="6.41179">
        <ele>625.9</ele>
        <time>2026-02-22T11:42:48Z</time>
      </trkpt>
      <trkpt lat="43.58647" lon="6.41179">
        <ele>625.9</ele>
        <time>2026-02-22T11:42:49Z</time>
      </trkpt>
      <trkpt lat="43.58647" lon="6.41179">
        <ele>625.9</ele>
        <time>2026-02-22T11:42:50Z</time>
      </trkpt>
      <trkpt lat="43.58647" lon="6.41179">
        <ele>625.9</ele>
        <time>2026-02-22T11:42:51Z</time>
      </trkpt>
      <trkpt lat="43.58647" lon="6.41179">
        <ele>625.9</ele>
        <time>2026-02-22T11:42:52Z</time>
      </trkpt>
      <trkpt lat="43.58647" lon="6.4118">
        <ele>626</ele>
        <time>2026-02-22T11:42:53Z</time>
      </trkpt>
      <trkpt lat="43.58647" lon="6.4118">
        <ele>626</ele>
        <time>2026-02-22T11:42:54Z</time>
      </trkpt>
      <trkpt lat="43.58647" lon="6.4118">
        <ele>626</ele>
        <time>2026-02-22T11:42:55Z</time>
      </trkpt>
      <trkpt lat="43.58647" lon="6.4118">
        <ele>626</ele>
        <time>2026-02-22T11:42:56Z</time>
      </trkpt>
      <trkpt lat="43.58647" lon="6.4118">
        <ele>625.9</ele>
        <time>2026-02-22T11:42:57Z</time>
      </trkpt>
      <trkpt lat="43.58647" lon="6.4118">
        <ele>625.9</ele>
        <time>2026-02-22T11:42:58Z</time>
      </trkpt>
      <trkpt lat="43.58647" lon="6.4118">
        <ele>625.9</ele>
        <time>2026-02-22T11:42:59Z</time>
      </trkpt>
      <trkpt lat="43.58647" lon="6.4118">
        <ele>625.9</ele>
        <time>2026-02-22T11:43:00Z</time>
      </trkpt>
      <trkpt lat="43.58647" lon="6.4118">
        <ele>625.9</ele>
        <time>2026-02-22T11:43:01Z</time>
      </trkpt>
      <trkpt lat="43.58647" lon="6.4118">
        <ele>625.9</ele>
        <time>2026-02-22T11:43:02Z</time>
      </trkpt>
      <trkpt lat="43.58646" lon="6.4118">
        <ele>625.8</ele>
        <time>2026-02-22T11:43:03Z</time>
      </trkpt>
      <trkpt lat="43.58646" lon="6.4118">
        <ele>625.7</ele>
        <time>2026-02-22T11:43:04Z</time>
      </trkpt>
      <trkpt lat="43.58646" lon="6.4118">
        <ele>625.8</ele>
        <time>2026-02-22T11:43:05Z</time>
      </trkpt>
      <trkpt lat="43.58646" lon="6.4118">
        <ele>625.9</ele>
        <time>2026-02-22T11:43:06Z</time>
      </trkpt>
      <trkpt lat="43.58646" lon="6.4118">
        <ele>625.9</ele>
        <time>2026-02-22T11:43:07Z</time>
      </trkpt>
      <trkpt lat="43.58646" lon="6.4118">
        <ele>625.8</ele>
        <time>2026-02-22T11:43:08Z</time>
      </trkpt>
      <trkpt lat="43.58646" lon="6.4118">
        <ele>625.9</ele>
        <time>2026-02-22T11:43:09Z</time>
      </trkpt>
      <trkpt lat="43.58646" lon="6.4118">
        <ele>625.9</ele>
        <time>2026-02-22T11:43:10Z</time>
      </trkpt>
      <trkpt lat="43.58646" lon="6.4118">
        <ele>625.9</ele>
        <time>2026-02-22T11:43:11Z</time>
      </trkpt>
      <trkpt lat="43.58646" lon="6.4118">
        <ele>625.9</ele>
        <time>2026-02-22T11:43:12Z</time>
      </trkpt>
      <trkpt lat="43.58646" lon="6.4118">
        <ele>625.9</ele>
        <time>2026-02-22T11:43:13Z</time>
      </trkpt>
      <trkpt lat="43.58646" lon="6.4118">
        <ele>625.9</ele>
        <time>2026-02-22T11:43:14Z</time>
      </trkpt>
      <trkpt lat="43.58646" lon="6.4118">
        <ele>626</ele>
        <time>2026-02-22T11:43:15Z</time>
      </trkpt>
      <trkpt lat="43.58647" lon="6.41181">
        <ele>626</ele>
        <time>2026-02-22T11:43:16Z</time>
      </trkpt>
      <trkpt lat="43.58647" lon="6.41181">
        <ele>626</ele>
        <time>2026-02-22T11:43:17Z</time>
      </trkpt>
      <trkpt lat="43.58647" lon="6.41181">
        <ele>626</ele>
        <time>2026-02-22T11:43:18Z</time>
      </trkpt>
      <trkpt lat="43.58647" lon="6.41181">
        <ele>626</ele>
        <time>2026-02-22T11:43:19Z</time>
      </trkpt>
      <trkpt lat="43.58647" lon="6.41181">
        <ele>626</ele>
        <time>2026-02-22T11:43:20Z</time>
      </trkpt>
      <trkpt lat="43.58648" lon="6.41182">
        <ele>626</ele>
        <time>2026-02-22T11:43:21Z</time>
      </trkpt>
      <trkpt lat="43.58648" lon="6.41182">
        <ele>626</ele>
        <time>2026-02-22T11:43:22Z</time>
      </trkpt>
      <trkpt lat="43.58648" lon="6.41182">
        <ele>626</ele>
        <time>2026-02-22T11:43:23Z</time>
      </trkpt>
      <trkpt lat="43.58648" lon="6.41182">
        <ele>626</ele>
        <time>2026-02-22T11:43:24Z</time>
      </trkpt>
      <trkpt lat="43.58648" lon="6.41183">
        <ele>626</ele>
        <time>2026-02-22T11:43:25Z</time>
      </trkpt>
      <trkpt lat="43.58648" lon="6.41183">
        <ele>625.9</ele>
        <time>2026-02-22T11:43:26Z</time>
      </trkpt>
      <trkpt lat="43.58649" lon="6.41183">
        <ele>626</ele>
        <time>2026-02-22T11:43:27Z</time>
      </trkpt>
      <trkpt lat="43.58649" lon="6.41183">
        <ele>626</ele>
        <time>2026-02-22T11:43:28Z</time>
      </trkpt>
      <trkpt lat="43.58649" lon="6.41183">
        <ele>626.1</ele>
        <time>2026-02-22T11:43:29Z</time>
      </trkpt>
      <trkpt lat="43.58649" lon="6.41184">
        <ele>626.1</ele>
        <time>2026-02-22T11:43:30Z</time>
      </trkpt>
      <trkpt lat="43.58649" lon="6.41184">
        <ele>626.1</ele>
        <time>2026-02-22T11:43:31Z</time>
      </trkpt>
      <trkpt lat="43.58649" lon="6.41184">
        <ele>626.2</ele>
        <time>2026-02-22T11:43:32Z</time>
      </trkpt>
      <trkpt lat="43.58649" lon="6.41184">
        <ele>626.2</ele>
        <time>2026-02-22T11:43:33Z</time>
      </trkpt>
      <trkpt lat="43.58649" lon="6.41184">
        <ele>626.2</ele>
        <time>2026-02-22T11:43:34Z</time>
      </trkpt>
      <trkpt lat="43.58649" lon="6.41184">
        <ele>626.2</ele>
        <time>2026-02-22T11:43:35Z</time>
      </trkpt>
      <trkpt lat="43.58649" lon="6.41185">
        <ele>626.3</ele>
        <time>2026-02-22T11:43:36Z</time>
      </trkpt>
      <trkpt lat="43.5865" lon="6.41185">
        <ele>626.3</ele>
        <time>2026-02-22T11:43:37Z</time>
      </trkpt>
      <trkpt lat="43.5865" lon="6.41185">
        <ele>626.3</ele>
        <time>2026-02-22T11:43:38Z</time>
      </trkpt>
      <trkpt lat="43.5865" lon="6.41185">
        <ele>626.2</ele>
        <time>2026-02-22T11:43:39Z</time>
      </trkpt>
      <trkpt lat="43.5865" lon="6.41185">
        <ele>626.2</ele>
        <time>2026-02-22T11:43:40Z</time>
      </trkpt>
      <trkpt lat="43.5865" lon="6.41185">
        <ele>626.2</ele>
        <time>2026-02-22T11:43:41Z</time>
      </trkpt>
      <trkpt lat="43.5865" lon="6.41185">
        <ele>626.2</ele>
        <time>2026-02-22T11:43:42Z</time>
      </trkpt>
      <trkpt lat="43.5865" lon="6.41185">
        <ele>626.2</ele>
        <time>2026-02-22T11:43:43Z</time>
      </trkpt>
      <trkpt lat="43.5865" lon="6.41185">
        <ele>626.3</ele>
        <time>2026-02-22T11:43:44Z</time>
      </trkpt>
      <trkpt lat="43.5865" lon="6.41186">
        <ele>626.3</ele>
        <time>2026-02-22T11:43:45Z</time>
      </trkpt>
      <trkpt lat="43.5865" lon="6.41186">
        <ele>626.3</ele>
        <time>2026-02-22T11:43:46Z</time>
      </trkpt>
      <trkpt lat="43.5865" lon="6.41186">
        <ele>626.2</ele>
        <time>2026-02-22T11:43:47Z</time>
      </trkpt>
      <trkpt lat="43.5865" lon="6.41186">
        <ele>626.2</ele>
        <time>2026-02-22T11:43:48Z</time>
      </trkpt>
      <trkpt lat="43.5865" lon="6.41186">
        <ele>626.1</ele>
        <time>2026-02-22T11:43:49Z</time>
      </trkpt>
      <trkpt lat="43.5865" lon="6.41186">
        <ele>626.1</ele>
        <time>2026-02-22T11:43:50Z</time>
      </trkpt>
      <trkpt lat="43.5865" lon="6.41187">
        <ele>626.1</ele>
        <time>2026-02-22T11:43:51Z</time>
      </trkpt>
      <trkpt lat="43.5865" lon="6.41187">
        <ele>626.1</ele>
        <time>2026-02-22T11:43:52Z</time>
      </trkpt>
      <trkpt lat="43.5865" lon="6.41187">
        <ele>626.1</ele>
        <time>2026-02-22T11:43:53Z</time>
      </trkpt>
      <trkpt lat="43.5865" lon="6.41187">
        <ele>626.1</ele>
        <time>2026-02-22T11:43:54Z</time>
      </trkpt>
      <trkpt lat="43.5865" lon="6.41187">
        <ele>626.1</ele>
        <time>2026-02-22T11:43:55Z</time>
      </trkpt>
      <trkpt lat="43.5865" lon="6.41187">
        <ele>626.1</ele>
        <time>2026-02-22T11:43:56Z</time>
      </trkpt>
      <trkpt lat="43.5865" lon="6.41187">
        <ele>626.2</ele>
        <time>2026-02-22T11:43:57Z</time>
      </trkpt>
      <trkpt lat="43.58651" lon="6.41188">
        <ele>626.2</ele>
        <time>2026-02-22T11:43:58Z</time>
      </trkpt>
      <trkpt lat="43.58651" lon="6.41188">
        <ele>626.2</ele>
        <time>2026-02-22T11:43:59Z</time>
      </trkpt>
      <trkpt lat="43.58651" lon="6.41188">
        <ele>626.2</ele>
        <time>2026-02-22T11:44:00Z</time>
      </trkpt>
      <trkpt lat="43.58651" lon="6.41188">
        <ele>626.2</ele>
        <time>2026-02-22T11:44:01Z</time>
      </trkpt>
      <trkpt lat="43.58651" lon="6.41188">
        <ele>626</ele>
        <time>2026-02-22T11:44:02Z</time>
      </trkpt>
      <trkpt lat="43.58651" lon="6.41188">
        <ele>626</ele>
        <time>2026-02-22T11:44:03Z</time>
      </trkpt>
      <trkpt lat="43.58651" lon="6.41188">
        <ele>626</ele>
        <time>2026-02-22T11:44:04Z</time>
      </trkpt>
      <trkpt lat="43.58651" lon="6.41188">
        <ele>626</ele>
        <time>2026-02-22T11:44:05Z</time>
      </trkpt>
      <trkpt lat="43.58651" lon="6.41188">
        <ele>625.9</ele>
        <time>2026-02-22T11:44:06Z</time>
      </trkpt>
      <trkpt lat="43.58651" lon="6.41188">
        <ele>625.9</ele>
        <time>2026-02-22T11:44:07Z</time>
      </trkpt>
      <trkpt lat="43.58651" lon="6.41188">
        <ele>626</ele>
        <time>2026-02-22T11:44:08Z</time>
      </trkpt>
      <trkpt lat="43.58651" lon="6.41188">
        <ele>626</ele>
        <time>2026-02-22T11:44:09Z</time>
      </trkpt>
      <trkpt lat="43.58651" lon="6.41188">
        <ele>626</ele>
        <time>2026-02-22T11:44:10Z</time>
      </trkpt>
      <trkpt lat="43.58651" lon="6.41188">
        <ele>626.1</ele>
        <time>2026-02-22T11:44:11Z</time>
      </trkpt>
      <trkpt lat="43.58651" lon="6.41188">
        <ele>626.2</ele>
        <time>2026-02-22T11:44:12Z</time>
      </trkpt>
      <trkpt lat="43.58651" lon="6.41188">
        <ele>626.2</ele>
        <time>2026-02-22T11:44:13Z</time>
      </trkpt>
      <trkpt lat="43.58651" lon="6.41189">
        <ele>626.3</ele>
        <time>2026-02-22T11:44:14Z</time>
      </trkpt>
      <trkpt lat="43.58651" lon="6.41189">
        <ele>626.3</ele>
        <time>2026-02-22T11:44:15Z</time>
      </trkpt>
      <trkpt lat="43.58651" lon="6.41189">
        <ele>626.2</ele>
        <time>2026-02-22T11:44:16Z</time>
      </trkpt>
      <trkpt lat="43.58651" lon="6.41189">
        <ele>626.2</ele>
        <time>2026-02-22T11:44:17Z</time>
      </trkpt>
      <trkpt lat="43.58651" lon="6.41189">
        <ele>626.2</ele>
        <time>2026-02-22T11:44:18Z</time>
      </trkpt>
      <trkpt lat="43.58651" lon="6.41189">
        <ele>626.2</ele>
        <time>2026-02-22T11:44:19Z</time>
      </trkpt>
      <trkpt lat="43.58651" lon="6.41189">
        <ele>626.2</ele>
        <time>2026-02-22T11:44:20Z</time>
      </trkpt>
      <trkpt lat="43.58651" lon="6.41189">
        <ele>626.1</ele>
        <time>2026-02-22T11:44:21Z</time>
      </trkpt>
      <trkpt lat="43.58651" lon="6.41189">
        <ele>626.1</ele>
        <time>2026-02-22T11:44:22Z</time>
      </trkpt>
      <trkpt lat="43.58651" lon="6.41189">
        <ele>626.1</ele>
        <time>2026-02-22T11:44:23Z</time>
      </trkpt>
      <trkpt lat="43.58651" lon="6.41189">
        <ele>626.1</ele>
        <time>2026-02-22T11:44:24Z</time>
      </trkpt>
      <trkpt lat="43.58651" lon="6.41189">
        <ele>626.1</ele>
        <time>2026-02-22T11:44:25Z</time>
      </trkpt>
      <trkpt lat="43.58651" lon="6.41189">
        <ele>626.3</ele>
        <time>2026-02-22T11:44:26Z</time>
      </trkpt>
      <trkpt lat="43.58651" lon="6.41189">
        <ele>626.2</ele>
        <time>2026-02-22T11:44:27Z</time>
      </trkpt>
      <trkpt lat="43.58651" lon="6.41189">
        <ele>626.2</ele>
        <time>2026-02-22T11:44:28Z</time>
      </trkpt>
      <trkpt lat="43.58651" lon="6.41189">
        <ele>626.2</ele>
        <time>2026-02-22T11:44:29Z</time>
      </trkpt>
      <trkpt lat="43.58651" lon="6.41188">
        <ele>626.3</ele>
        <time>2026-02-22T11:44:30Z</time>
      </trkpt>
      <trkpt lat="43.58651" lon="6.41188">
        <ele>626.3</ele>
        <time>2026-02-22T11:44:31Z</time>
      </trkpt>
      <trkpt lat="43.58651" lon="6.41188">
        <ele>626.3</ele>
        <time>2026-02-22T11:44:32Z</time>
      </trkpt>
      <trkpt lat="43.58651" lon="6.41188">
        <ele>626.3</ele>
        <time>2026-02-22T11:44:33Z</time>
      </trkpt>
      <trkpt lat="43.58651" lon="6.41188">
        <ele>626.2</ele>
        <time>2026-02-22T11:44:34Z</time>
      </trkpt>
      <trkpt lat="43.58651" lon="6.41188">
        <ele>626.2</ele>
        <time>2026-02-22T11:44:35Z</time>
      </trkpt>
      <trkpt lat="43.58651" lon="6.41188">
        <ele>626.2</ele>
        <time>2026-02-22T11:44:36Z</time>
      </trkpt>
      <trkpt lat="43.58651" lon="6.41188">
        <ele>626.2</ele>
        <time>2026-02-22T11:44:37Z</time>
      </trkpt>
      <trkpt lat="43.58651" lon="6.41188">
        <ele>626.2</ele>
        <time>2026-02-22T11:44:38Z</time>
      </trkpt>
      <trkpt lat="43.58651" lon="6.41188">
        <ele>626.1</ele>
        <time>2026-02-22T11:44:39Z</time>
      </trkpt>
      <trkpt lat="43.58651" lon="6.41188">
        <ele>626</ele>
        <time>2026-02-22T11:44:40Z</time>
      </trkpt>
      <trkpt lat="43.58651" lon="6.41188">
        <ele>625.9</ele>
        <time>2026-02-22T11:44:41Z</time>
      </trkpt>
      <trkpt lat="43.58651" lon="6.41188">
        <ele>625.9</ele>
        <time>2026-02-22T11:44:42Z</time>
      </trkpt>
      <trkpt lat="43.58651" lon="6.41188">
        <ele>625.8</ele>
        <time>2026-02-22T11:44:43Z</time>
      </trkpt>
      <trkpt lat="43.58651" lon="6.41188">
        <ele>625.8</ele>
        <time>2026-02-22T11:44:44Z</time>
      </trkpt>
      <trkpt lat="43.58651" lon="6.41188">
        <ele>625.8</ele>
        <time>2026-02-22T11:44:45Z</time>
      </trkpt>
      <trkpt lat="43.58651" lon="6.41188">
        <ele>625.8</ele>
        <time>2026-02-22T11:44:46Z</time>
      </trkpt>
      <trkpt lat="43.58651" lon="6.41188">
        <ele>625.9</ele>
        <time>2026-02-22T11:44:47Z</time>
      </trkpt>
      <trkpt lat="43.58651" lon="6.41188">
        <ele>625.9</ele>
        <time>2026-02-22T11:44:48Z</time>
      </trkpt>
      <trkpt lat="43.58651" lon="6.41188">
        <ele>625.9</ele>
        <time>2026-02-22T11:44:49Z</time>
      </trkpt>
      <trkpt lat="43.58651" lon="6.41188">
        <ele>626</ele>
        <time>2026-02-22T11:44:50Z</time>
      </trkpt>
      <trkpt lat="43.58651" lon="6.41188">
        <ele>626</ele>
        <time>2026-02-22T11:44:51Z</time>
      </trkpt>
      <trkpt lat="43.58651" lon="6.41188">
        <ele>626</ele>
        <time>2026-02-22T11:44:52Z</time>
      </trkpt>
      <trkpt lat="43.58651" lon="6.41188">
        <ele>626</ele>
        <time>2026-02-22T11:44:53Z</time>
      </trkpt>
      <trkpt lat="43.58651" lon="6.41188">
        <ele>626</ele>
        <time>2026-02-22T11:44:54Z</time>
      </trkpt>
      <trkpt lat="43.58651" lon="6.41188">
        <ele>626</ele>
        <time>2026-02-22T11:44:55Z</time>
      </trkpt>
      <trkpt lat="43.58651" lon="6.41188">
        <ele>626.1</ele>
        <time>2026-02-22T11:44:56Z</time>
      </trkpt>
      <trkpt lat="43.58651" lon="6.41188">
        <ele>626</ele>
        <time>2026-02-22T11:44:57Z</time>
      </trkpt>
      <trkpt lat="43.58651" lon="6.41188">
        <ele>625.9</ele>
        <time>2026-02-22T11:44:58Z</time>
      </trkpt>
      <trkpt lat="43.58651" lon="6.41188">
        <ele>626</ele>
        <time>2026-02-22T11:44:59Z</time>
      </trkpt>
      <trkpt lat="43.58651" lon="6.41188">
        <ele>625.9</ele>
        <time>2026-02-22T11:45:00Z</time>
      </trkpt>
      <trkpt lat="43.58651" lon="6.41188">
        <ele>625.9</ele>
        <time>2026-02-22T11:45:01Z</time>
      </trkpt>
      <trkpt lat="43.58652" lon="6.41188">
        <ele>625.9</ele>
        <time>2026-02-22T11:45:02Z</time>
      </trkpt>
      <trkpt lat="43.58652" lon="6.41188">
        <ele>625.8</ele>
        <time>2026-02-22T11:45:03Z</time>
      </trkpt>
      <trkpt lat="43.58652" lon="6.41188">
        <ele>625.8</ele>
        <time>2026-02-22T11:45:04Z</time>
      </trkpt>
      <trkpt lat="43.58652" lon="6.41188">
        <ele>625.8</ele>
        <time>2026-02-22T11:45:05Z</time>
      </trkpt>
      <trkpt lat="43.58652" lon="6.41188">
        <ele>625.8</ele>
        <time>2026-02-22T11:45:06Z</time>
      </trkpt>
      <trkpt lat="43.58652" lon="6.41188">
        <ele>625.8</ele>
        <time>2026-02-22T11:45:07Z</time>
      </trkpt>
      <trkpt lat="43.58652" lon="6.41188">
        <ele>625.9</ele>
        <time>2026-02-22T11:45:08Z</time>
      </trkpt>
      <trkpt lat="43.58652" lon="6.41188">
        <ele>626</ele>
        <time>2026-02-22T11:45:09Z</time>
      </trkpt>
      <trkpt lat="43.58652" lon="6.41188">
        <ele>625.9</ele>
        <time>2026-02-22T11:45:10Z</time>
      </trkpt>
      <trkpt lat="43.58652" lon="6.41188">
        <ele>625.9</ele>
        <time>2026-02-22T11:45:11Z</time>
      </trkpt>
      <trkpt lat="43.58652" lon="6.41188">
        <ele>625.9</ele>
        <time>2026-02-22T11:45:12Z</time>
      </trkpt>
      <trkpt lat="43.58652" lon="6.41188">
        <ele>625.9</ele>
        <time>2026-02-22T11:45:13Z</time>
      </trkpt>
      <trkpt lat="43.58652" lon="6.41188">
        <ele>625.9</ele>
        <time>2026-02-22T11:45:14Z</time>
      </trkpt>
      <trkpt lat="43.58652" lon="6.41188">
        <ele>625.9</ele>
        <time>2026-02-22T11:45:15Z</time>
      </trkpt>
      <trkpt lat="43.58652" lon="6.41187">
        <ele>625.9</ele>
        <time>2026-02-22T11:45:16Z</time>
      </trkpt>
      <trkpt lat="43.58652" lon="6.41187">
        <ele>625.9</ele>
        <time>2026-02-22T11:45:17Z</time>
      </trkpt>
      <trkpt lat="43.58652" lon="6.41187">
        <ele>625.9</ele>
        <time>2026-02-22T11:45:18Z</time>
      </trkpt>
      <trkpt lat="43.58652" lon="6.41187">
        <ele>625.9</ele>
        <time>2026-02-22T11:45:19Z</time>
      </trkpt>
      <trkpt lat="43.58652" lon="6.41187">
        <ele>625.8</ele>
        <time>2026-02-22T11:45:20Z</time>
      </trkpt>
      <trkpt lat="43.58652" lon="6.41187">
        <ele>625.8</ele>
        <time>2026-02-22T11:45:21Z</time>
      </trkpt>
      <trkpt lat="43.58652" lon="6.41187">
        <ele>625.7</ele>
        <time>2026-02-22T11:45:22Z</time>
      </trkpt>
      <trkpt lat="43.58652" lon="6.41187">
        <ele>625.8</ele>
        <time>2026-02-22T11:45:23Z</time>
      </trkpt>
      <trkpt lat="43.58652" lon="6.41187">
        <ele>625.9</ele>
        <time>2026-02-22T11:45:24Z</time>
      </trkpt>
      <trkpt lat="43.58652" lon="6.41187">
        <ele>626</ele>
        <time>2026-02-22T11:45:25Z</time>
      </trkpt>
      <trkpt lat="43.58652" lon="6.41187">
        <ele>626.1</ele>
        <time>2026-02-22T11:45:26Z</time>
      </trkpt>
      <trkpt lat="43.58652" lon="6.41187">
        <ele>626</ele>
        <time>2026-02-22T11:45:27Z</time>
      </trkpt>
      <trkpt lat="43.58652" lon="6.41187">
        <ele>626</ele>
        <time>2026-02-22T11:45:28Z</time>
      </trkpt>
      <trkpt lat="43.58652" lon="6.41187">
        <ele>626</ele>
        <time>2026-02-22T11:45:29Z</time>
      </trkpt>
      <trkpt lat="43.58652" lon="6.41187">
        <ele>626</ele>
        <time>2026-02-22T11:45:30Z</time>
      </trkpt>
      <trkpt lat="43.58652" lon="6.41187">
        <ele>625.9</ele>
        <time>2026-02-22T11:45:31Z</time>
      </trkpt>
      <trkpt lat="43.58652" lon="6.41187">
        <ele>626</ele>
        <time>2026-02-22T11:45:32Z</time>
      </trkpt>
      <trkpt lat="43.58652" lon="6.41187">
        <ele>626</ele>
        <time>2026-02-22T11:45:33Z</time>
      </trkpt>
      <trkpt lat="43.58652" lon="6.41187">
        <ele>626.1</ele>
        <time>2026-02-22T11:45:34Z</time>
      </trkpt>
      <trkpt lat="43.58652" lon="6.41186">
        <ele>626.1</ele>
        <time>2026-02-22T11:45:35Z</time>
      </trkpt>
      <trkpt lat="43.58652" lon="6.41186">
        <ele>626.1</ele>
        <time>2026-02-22T11:45:36Z</time>
      </trkpt>
      <trkpt lat="43.58652" lon="6.41186">
        <ele>626.2</ele>
        <time>2026-02-22T11:45:37Z</time>
      </trkpt>
      <trkpt lat="43.58652" lon="6.41186">
        <ele>626.2</ele>
        <time>2026-02-22T11:45:38Z</time>
      </trkpt>
      <trkpt lat="43.58651" lon="6.41186">
        <ele>626.3</ele>
        <time>2026-02-22T11:45:39Z</time>
      </trkpt>
      <trkpt lat="43.58651" lon="6.41186">
        <ele>626.3</ele>
        <time>2026-02-22T11:45:40Z</time>
      </trkpt>
      <trkpt lat="43.58651" lon="6.41186">
        <ele>626.3</ele>
        <time>2026-02-22T11:45:41Z</time>
      </trkpt>
      <trkpt lat="43.58652" lon="6.41185">
        <ele>626.4</ele>
        <time>2026-02-22T11:45:42Z</time>
      </trkpt>
      <trkpt lat="43.58651" lon="6.41185">
        <ele>626.4</ele>
        <time>2026-02-22T11:45:43Z</time>
      </trkpt>
      <trkpt lat="43.58651" lon="6.41185">
        <ele>626.4</ele>
        <time>2026-02-22T11:45:44Z</time>
      </trkpt>
      <trkpt lat="43.58651" lon="6.41185">
        <ele>626.3</ele>
        <time>2026-02-22T11:45:45Z</time>
      </trkpt>
      <trkpt lat="43.58651" lon="6.41185">
        <ele>626.4</ele>
        <time>2026-02-22T11:45:46Z</time>
      </trkpt>
      <trkpt lat="43.58651" lon="6.41185">
        <ele>626.4</ele>
        <time>2026-02-22T11:45:47Z</time>
      </trkpt>
      <trkpt lat="43.58651" lon="6.41185">
        <ele>626.4</ele>
        <time>2026-02-22T11:45:48Z</time>
      </trkpt>
      <trkpt lat="43.58651" lon="6.41185">
        <ele>626.4</ele>
        <time>2026-02-22T11:45:49Z</time>
      </trkpt>
      <trkpt lat="43.58651" lon="6.41185">
        <ele>626.3</ele>
        <time>2026-02-22T11:45:50Z</time>
      </trkpt>
      <trkpt lat="43.58651" lon="6.41185">
        <ele>626.3</ele>
        <time>2026-02-22T11:45:51Z</time>
      </trkpt>
      <trkpt lat="43.58651" lon="6.41185">
        <ele>626.3</ele>
        <time>2026-02-22T11:45:52Z</time>
      </trkpt>
      <trkpt lat="43.58651" lon="6.41185">
        <ele>626.3</ele>
        <time>2026-02-22T11:45:53Z</time>
      </trkpt>
      <trkpt lat="43.5865" lon="6.41184">
        <ele>626.3</ele>
        <time>2026-02-22T11:45:54Z</time>
      </trkpt>
      <trkpt lat="43.5865" lon="6.41184">
        <ele>626.3</ele>
        <time>2026-02-22T11:45:55Z</time>
      </trkpt>
      <trkpt lat="43.5865" lon="6.41184">
        <ele>626.2</ele>
        <time>2026-02-22T11:45:56Z</time>
      </trkpt>
      <trkpt lat="43.5865" lon="6.41184">
        <ele>626.2</ele>
        <time>2026-02-22T11:45:57Z</time>
      </trkpt>
      <trkpt lat="43.5865" lon="6.41184">
        <ele>626.2</ele>
        <time>2026-02-22T11:45:58Z</time>
      </trkpt>
      <trkpt lat="43.5865" lon="6.41184">
        <ele>626.2</ele>
        <time>2026-02-22T11:45:59Z</time>
      </trkpt>
      <trkpt lat="43.5865" lon="6.41184">
        <ele>626.2</ele>
        <time>2026-02-22T11:46:00Z</time>
      </trkpt>
      <trkpt lat="43.5865" lon="6.41184">
        <ele>626.3</ele>
        <time>2026-02-22T11:46:01Z</time>
      </trkpt>
      <trkpt lat="43.5865" lon="6.41184">
        <ele>626.3</ele>
        <time>2026-02-22T11:46:02Z</time>
      </trkpt>
      <trkpt lat="43.5865" lon="6.41184">
        <ele>626.4</ele>
        <time>2026-02-22T11:46:03Z</time>
      </trkpt>
      <trkpt lat="43.58649" lon="6.41183">
        <ele>626.4</ele>
        <time>2026-02-22T11:46:04Z</time>
      </trkpt>
      <trkpt lat="43.58649" lon="6.41183">
        <ele>626.4</ele>
        <time>2026-02-22T11:46:05Z</time>
      </trkpt>
      <trkpt lat="43.58649" lon="6.41183">
        <ele>626.4</ele>
        <time>2026-02-22T11:46:06Z</time>
      </trkpt>
      <trkpt lat="43.58649" lon="6.41183">
        <ele>626.4</ele>
        <time>2026-02-22T11:46:07Z</time>
      </trkpt>
      <trkpt lat="43.58649" lon="6.41183">
        <ele>626.3</ele>
        <time>2026-02-22T11:46:08Z</time>
      </trkpt>
      <trkpt lat="43.58649" lon="6.41183">
        <ele>626.3</ele>
        <time>2026-02-22T11:46:09Z</time>
      </trkpt>
      <trkpt lat="43.58649" lon="6.41183">
        <ele>626.3</ele>
        <time>2026-02-22T11:46:10Z</time>
      </trkpt>
      <trkpt lat="43.58648" lon="6.41183">
        <ele>626.2</ele>
        <time>2026-02-22T11:46:11Z</time>
      </trkpt>
      <trkpt lat="43.58648" lon="6.41183">
        <ele>626.1</ele>
        <time>2026-02-22T11:46:12Z</time>
      </trkpt>
      <trkpt lat="43.58648" lon="6.41183">
        <ele>626.2</ele>
        <time>2026-02-22T11:46:13Z</time>
      </trkpt>
      <trkpt lat="43.58648" lon="6.41183">
        <ele>626.2</ele>
        <time>2026-02-22T11:46:14Z</time>
      </trkpt>
      <trkpt lat="43.58648" lon="6.41183">
        <ele>626.2</ele>
        <time>2026-02-22T11:46:15Z</time>
      </trkpt>
      <trkpt lat="43.58648" lon="6.41183">
        <ele>626.1</ele>
        <time>2026-02-22T11:46:16Z</time>
      </trkpt>
      <trkpt lat="43.58648" lon="6.41183">
        <ele>626</ele>
        <time>2026-02-22T11:46:17Z</time>
      </trkpt>
      <trkpt lat="43.58648" lon="6.41182">
        <ele>626.1</ele>
        <time>2026-02-22T11:46:18Z</time>
      </trkpt>
      <trkpt lat="43.58648" lon="6.41182">
        <ele>626.2</ele>
        <time>2026-02-22T11:46:19Z</time>
      </trkpt>
      <trkpt lat="43.58648" lon="6.41182">
        <ele>626.2</ele>
        <time>2026-02-22T11:46:20Z</time>
      </trkpt>
      <trkpt lat="43.58647" lon="6.41182">
        <ele>626.2</ele>
        <time>2026-02-22T11:46:21Z</time>
      </trkpt>
      <trkpt lat="43.58647" lon="6.41182">
        <ele>626.2</ele>
        <time>2026-02-22T11:46:22Z</time>
      </trkpt>
      <trkpt lat="43.58647" lon="6.41182">
        <ele>626.2</ele>
        <time>2026-02-22T11:46:23Z</time>
      </trkpt>
      <trkpt lat="43.58647" lon="6.41182">
        <ele>626.2</ele>
        <time>2026-02-22T11:46:24Z</time>
      </trkpt>
      <trkpt lat="43.58647" lon="6.41182">
        <ele>626.2</ele>
        <time>2026-02-22T11:46:25Z</time>
      </trkpt>
      <trkpt lat="43.58647" lon="6.41182">
        <ele>626.2</ele>
        <time>2026-02-22T11:46:26Z</time>
      </trkpt>
      <trkpt lat="43.58647" lon="6.41182">
        <ele>626.2</ele>
        <time>2026-02-22T11:46:27Z</time>
      </trkpt>
      <trkpt lat="43.58647" lon="6.41182">
        <ele>626.2</ele>
        <time>2026-02-22T11:46:28Z</time>
      </trkpt>
      <trkpt lat="43.58647" lon="6.41182">
        <ele>626.2</ele>
        <time>2026-02-22T11:46:29Z</time>
      </trkpt>
      <trkpt lat="43.58647" lon="6.41182">
        <ele>626.1</ele>
        <time>2026-02-22T11:46:30Z</time>
      </trkpt>
      <trkpt lat="43.58647" lon="6.41182">
        <ele>626.1</ele>
        <time>2026-02-22T11:46:31Z</time>
      </trkpt>
      <trkpt lat="43.58647" lon="6.41182">
        <ele>626.1</ele>
        <time>2026-02-22T11:46:32Z</time>
      </trkpt>
      <trkpt lat="43.58646" lon="6.41182">
        <ele>626.1</ele>
        <time>2026-02-22T11:46:33Z</time>
      </trkpt>
      <trkpt lat="43.58646" lon="6.41182">
        <ele>626.1</ele>
        <time>2026-02-22T11:46:34Z</time>
      </trkpt>
      <trkpt lat="43.58646" lon="6.41182">
        <ele>626.1</ele>
        <time>2026-02-22T11:46:35Z</time>
      </trkpt>
      <trkpt lat="43.58646" lon="6.41182">
        <ele>626</ele>
        <time>2026-02-22T11:46:36Z</time>
      </trkpt>
      <trkpt lat="43.58646" lon="6.41182">
        <ele>626</ele>
        <time>2026-02-22T11:46:37Z</time>
      </trkpt>
      <trkpt lat="43.58646" lon="6.41182">
        <ele>625.9</ele>
        <time>2026-02-22T11:46:38Z</time>
      </trkpt>
      <trkpt lat="43.58646" lon="6.41182">
        <ele>625.9</ele>
        <time>2026-02-22T11:46:39Z</time>
      </trkpt>
      <trkpt lat="43.58646" lon="6.41182">
        <ele>625.9</ele>
        <time>2026-02-22T11:46:40Z</time>
      </trkpt>
      <trkpt lat="43.58646" lon="6.41181">
        <ele>625.9</ele>
        <time>2026-02-22T11:46:41Z</time>
      </trkpt>
      <trkpt lat="43.58646" lon="6.41181">
        <ele>625.9</ele>
        <time>2026-02-22T11:46:42Z</time>
      </trkpt>
      <trkpt lat="43.58646" lon="6.41181">
        <ele>625.8</ele>
        <time>2026-02-22T11:46:43Z</time>
      </trkpt>
      <trkpt lat="43.58646" lon="6.41181">
        <ele>625.9</ele>
        <time>2026-02-22T11:46:44Z</time>
      </trkpt>
      <trkpt lat="43.58646" lon="6.41181">
        <ele>625.9</ele>
        <time>2026-02-22T11:46:45Z</time>
      </trkpt>
      <trkpt lat="43.58646" lon="6.41181">
        <ele>625.9</ele>
        <time>2026-02-22T11:46:46Z</time>
      </trkpt>
      <trkpt lat="43.58646" lon="6.41181">
        <ele>626</ele>
        <time>2026-02-22T11:46:47Z</time>
      </trkpt>
      <trkpt lat="43.58646" lon="6.41181">
        <ele>626</ele>
        <time>2026-02-22T11:46:48Z</time>
      </trkpt>
      <trkpt lat="43.58646" lon="6.41181">
        <ele>626</ele>
        <time>2026-02-22T11:46:49Z</time>
      </trkpt>
      <trkpt lat="43.58646" lon="6.41181">
        <ele>626.1</ele>
        <time>2026-02-22T11:46:50Z</time>
      </trkpt>
      <trkpt lat="43.58646" lon="6.41181">
        <ele>626.1</ele>
        <time>2026-02-22T11:46:51Z</time>
      </trkpt>
      <trkpt lat="43.58646" lon="6.41181">
        <ele>626.1</ele>
        <time>2026-02-22T11:46:52Z</time>
      </trkpt>
      <trkpt lat="43.58646" lon="6.41181">
        <ele>626.1</ele>
        <time>2026-02-22T11:46:53Z</time>
      </trkpt>
      <trkpt lat="43.58646" lon="6.41181">
        <ele>626.2</ele>
        <time>2026-02-22T11:46:54Z</time>
      </trkpt>
      <trkpt lat="43.58646" lon="6.41181">
        <ele>626.2</ele>
        <time>2026-02-22T11:46:55Z</time>
      </trkpt>
      <trkpt lat="43.58646" lon="6.41181">
        <ele>626.2</ele>
        <time>2026-02-22T11:46:56Z</time>
      </trkpt>
      <trkpt lat="43.58646" lon="6.41181">
        <ele>626.3</ele>
        <time>2026-02-22T11:46:57Z</time>
      </trkpt>
      <trkpt lat="43.58646" lon="6.41181">
        <ele>626.4</ele>
        <time>2026-02-22T11:46:58Z</time>
      </trkpt>
      <trkpt lat="43.58646" lon="6.41181">
        <ele>626.4</ele>
        <time>2026-02-22T11:46:59Z</time>
      </trkpt>
      <trkpt lat="43.58646" lon="6.41181">
        <ele>626.4</ele>
        <time>2026-02-22T11:47:00Z</time>
      </trkpt>
      <trkpt lat="43.58646" lon="6.41181">
        <ele>626.4</ele>
        <time>2026-02-22T11:47:01Z</time>
      </trkpt>
      <trkpt lat="43.58646" lon="6.41181">
        <ele>626.5</ele>
        <time>2026-02-22T11:47:02Z</time>
      </trkpt>
      <trkpt lat="43.58646" lon="6.41181">
        <ele>626.5</ele>
        <time>2026-02-22T11:47:03Z</time>
      </trkpt>
      <trkpt lat="43.58646" lon="6.41181">
        <ele>626.4</ele>
        <time>2026-02-22T11:47:04Z</time>
      </trkpt>
      <trkpt lat="43.58646" lon="6.41181">
        <ele>626.5</ele>
        <time>2026-02-22T11:47:05Z</time>
      </trkpt>
      <trkpt lat="43.58646" lon="6.41181">
        <ele>626.4</ele>
        <time>2026-02-22T11:47:06Z</time>
      </trkpt>
      <trkpt lat="43.58646" lon="6.41181">
        <ele>626.3</ele>
        <time>2026-02-22T11:47:07Z</time>
      </trkpt>
      <trkpt lat="43.58646" lon="6.41181">
        <ele>626.3</ele>
        <time>2026-02-22T11:47:08Z</time>
      </trkpt>
      <trkpt lat="43.58646" lon="6.41181">
        <ele>626.3</ele>
        <time>2026-02-22T11:47:09Z</time>
      </trkpt>
      <trkpt lat="43.58646" lon="6.41181">
        <ele>626.3</ele>
        <time>2026-02-22T11:47:10Z</time>
      </trkpt>
      <trkpt lat="43.58646" lon="6.41181">
        <ele>626.4</ele>
        <time>2026-02-22T11:47:11Z</time>
      </trkpt>
      <trkpt lat="43.58646" lon="6.41181">
        <ele>626.4</ele>
        <time>2026-02-22T11:47:12Z</time>
      </trkpt>
      <trkpt lat="43.58646" lon="6.41181">
        <ele>626.4</ele>
        <time>2026-02-22T11:47:13Z</time>
      </trkpt>
      <trkpt lat="43.58646" lon="6.41181">
        <ele>626.5</ele>
        <time>2026-02-22T11:47:14Z</time>
      </trkpt>
      <trkpt lat="43.58646" lon="6.41181">
        <ele>626.5</ele>
        <time>2026-02-22T11:47:15Z</time>
      </trkpt>
      <trkpt lat="43.58646" lon="6.41181">
        <ele>626.5</ele>
        <time>2026-02-22T11:47:16Z</time>
      </trkpt>
      <trkpt lat="43.58646" lon="6.41181">
        <ele>626.5</ele>
        <time>2026-02-22T11:47:17Z</time>
      </trkpt>
      <trkpt lat="43.58646" lon="6.41181">
        <ele>626.5</ele>
        <time>2026-02-22T11:47:18Z</time>
      </trkpt>
      <trkpt lat="43.58646" lon="6.41181">
        <ele>626.5</ele>
        <time>2026-02-22T11:47:19Z</time>
      </trkpt>
      <trkpt lat="43.58646" lon="6.41181">
        <ele>626.5</ele>
        <time>2026-02-22T11:47:20Z</time>
      </trkpt>
      <trkpt lat="43.58646" lon="6.41181">
        <ele>626.5</ele>
        <time>2026-02-22T11:47:21Z</time>
      </trkpt>
      <trkpt lat="43.58646" lon="6.41181">
        <ele>626.4</ele>
        <time>2026-02-22T11:47:22Z</time>
      </trkpt>
      <trkpt lat="43.58646" lon="6.41181">
        <ele>626.4</ele>
        <time>2026-02-22T11:47:23Z</time>
      </trkpt>
      <trkpt lat="43.58646" lon="6.41181">
        <ele>626.4</ele>
        <time>2026-02-22T11:47:24Z</time>
      </trkpt>
      <trkpt lat="43.58646" lon="6.41181">
        <ele>626.3</ele>
        <time>2026-02-22T11:47:25Z</time>
      </trkpt>
      <trkpt lat="43.58646" lon="6.4118">
        <ele>626.4</ele>
        <time>2026-02-22T11:47:26Z</time>
      </trkpt>
      <trkpt lat="43.58646" lon="6.4118">
        <ele>626.4</ele>
        <time>2026-02-22T11:47:27Z</time>
      </trkpt>
      <trkpt lat="43.58646" lon="6.4118">
        <ele>626.3</ele>
        <time>2026-02-22T11:47:28Z</time>
      </trkpt>
      <trkpt lat="43.58646" lon="6.4118">
        <ele>626.3</ele>
        <time>2026-02-22T11:47:29Z</time>
      </trkpt>
      <trkpt lat="43.58646" lon="6.4118">
        <ele>626.3</ele>
        <time>2026-02-22T11:47:30Z</time>
      </trkpt>
      <trkpt lat="43.58646" lon="6.4118">
        <ele>626.3</ele>
        <time>2026-02-22T11:47:31Z</time>
      </trkpt>
      <trkpt lat="43.58646" lon="6.4118">
        <ele>626.4</ele>
        <time>2026-02-22T11:47:32Z</time>
      </trkpt>
      <trkpt lat="43.58646" lon="6.4118">
        <ele>626.4</ele>
        <time>2026-02-22T11:47:33Z</time>
      </trkpt>
      <trkpt lat="43.58646" lon="6.4118">
        <ele>626.4</ele>
        <time>2026-02-22T11:47:34Z</time>
      </trkpt>
      <trkpt lat="43.58646" lon="6.4118">
        <ele>626.4</ele>
        <time>2026-02-22T11:47:35Z</time>
      </trkpt>
      <trkpt lat="43.58646" lon="6.4118">
        <ele>626.3</ele>
        <time>2026-02-22T11:47:36Z</time>
      </trkpt>
      <trkpt lat="43.58646" lon="6.4118">
        <ele>626.3</ele>
        <time>2026-02-22T11:47:37Z</time>
      </trkpt>
      <trkpt lat="43.58646" lon="6.4118">
        <ele>626.3</ele>
        <time>2026-02-22T11:47:38Z</time>
      </trkpt>
      <trkpt lat="43.58646" lon="6.4118">
        <ele>626.3</ele>
        <time>2026-02-22T11:47:39Z</time>
      </trkpt>
      <trkpt lat="43.58646" lon="6.4118">
        <ele>626.4</ele>
        <time>2026-02-22T11:47:40Z</time>
      </trkpt>
      <trkpt lat="43.58645" lon="6.4118">
        <ele>626.4</ele>
        <time>2026-02-22T11:47:41Z</time>
      </trkpt>
      <trkpt lat="43.58645" lon="6.4118">
        <ele>626.3</ele>
        <time>2026-02-22T11:47:42Z</time>
      </trkpt>
      <trkpt lat="43.58645" lon="6.4118">
        <ele>626.3</ele>
        <time>2026-02-22T11:47:43Z</time>
      </trkpt>
      <trkpt lat="43.58645" lon="6.4118">
        <ele>626.4</ele>
        <time>2026-02-22T11:47:44Z</time>
      </trkpt>
      <trkpt lat="43.58645" lon="6.4118">
        <ele>626.4</ele>
        <time>2026-02-22T11:47:45Z</time>
      </trkpt>
      <trkpt lat="43.58646" lon="6.4118">
        <ele>626.4</ele>
        <time>2026-02-22T11:47:46Z</time>
      </trkpt>
      <trkpt lat="43.58646" lon="6.4118">
        <ele>626.4</ele>
        <time>2026-02-22T11:47:47Z</time>
      </trkpt>
      <trkpt lat="43.58646" lon="6.4118">
        <ele>626.4</ele>
        <time>2026-02-22T11:47:48Z</time>
      </trkpt>
      <trkpt lat="43.58646" lon="6.4118">
        <ele>626.5</ele>
        <time>2026-02-22T11:47:49Z</time>
      </trkpt>
      <trkpt lat="43.58646" lon="6.4118">
        <ele>626.5</ele>
        <time>2026-02-22T11:47:50Z</time>
      </trkpt>
      <trkpt lat="43.58646" lon="6.4118">
        <ele>626.5</ele>
        <time>2026-02-22T11:47:51Z</time>
      </trkpt>
      <trkpt lat="43.58646" lon="6.4118">
        <ele>626.5</ele>
        <time>2026-02-22T11:47:52Z</time>
      </trkpt>
      <trkpt lat="43.58646" lon="6.4118">
        <ele>626.5</ele>
        <time>2026-02-22T11:47:53Z</time>
      </trkpt>
      <trkpt lat="43.58646" lon="6.4118">
        <ele>626.5</ele>
        <time>2026-02-22T11:47:54Z</time>
      </trkpt>
      <trkpt lat="43.58646" lon="6.4118">
        <ele>626.5</ele>
        <time>2026-02-22T11:47:55Z</time>
      </trkpt>
      <trkpt lat="43.58646" lon="6.4118">
        <ele>626.6</ele>
        <time>2026-02-22T11:47:56Z</time>
      </trkpt>
      <trkpt lat="43.58646" lon="6.4118">
        <ele>626.5</ele>
        <time>2026-02-22T11:47:57Z</time>
      </trkpt>
      <trkpt lat="43.58646" lon="6.4118">
        <ele>626.5</ele>
        <time>2026-02-22T11:47:58Z</time>
      </trkpt>
      <trkpt lat="43.58646" lon="6.4118">
        <ele>626.5</ele>
        <time>2026-02-22T11:47:59Z</time>
      </trkpt>
      <trkpt lat="43.58646" lon="6.4118">
        <ele>626.5</ele>
        <time>2026-02-22T11:48:00Z</time>
      </trkpt>
      <trkpt lat="43.58646" lon="6.4118">
        <ele>626.5</ele>
        <time>2026-02-22T11:48:01Z</time>
      </trkpt>
      <trkpt lat="43.58646" lon="6.4118">
        <ele>626.5</ele>
        <time>2026-02-22T11:48:02Z</time>
      </trkpt>
      <trkpt lat="43.58646" lon="6.4118">
        <ele>626.5</ele>
        <time>2026-02-22T11:48:03Z</time>
      </trkpt>
      <trkpt lat="43.58646" lon="6.4118">
        <ele>626.5</ele>
        <time>2026-02-22T11:48:04Z</time>
      </trkpt>
      <trkpt lat="43.58646" lon="6.4118">
        <ele>626.5</ele>
        <time>2026-02-22T11:48:05Z</time>
      </trkpt>
      <trkpt lat="43.58646" lon="6.4118">
        <ele>626.5</ele>
        <time>2026-02-22T11:48:06Z</time>
      </trkpt>
      <trkpt lat="43.58646" lon="6.4118">
        <ele>626.6</ele>
        <time>2026-02-22T11:48:07Z</time>
      </trkpt>
      <trkpt lat="43.58646" lon="6.4118">
        <ele>626.6</ele>
        <time>2026-02-22T11:48:08Z</time>
      </trkpt>
      <trkpt lat="43.58646" lon="6.4118">
        <ele>626.6</ele>
        <time>2026-02-22T11:48:09Z</time>
      </trkpt>
      <trkpt lat="43.58646" lon="6.4118">
        <ele>626.6</ele>
        <time>2026-02-22T11:48:10Z</time>
      </trkpt>
      <trkpt lat="43.58646" lon="6.4118">
        <ele>626.7</ele>
        <time>2026-02-22T11:48:11Z</time>
      </trkpt>
      <trkpt lat="43.58646" lon="6.4118">
        <ele>626.7</ele>
        <time>2026-02-22T11:48:12Z</time>
      </trkpt>
      <trkpt lat="43.58646" lon="6.4118">
        <ele>626.8</ele>
        <time>2026-02-22T11:48:13Z</time>
      </trkpt>
      <trkpt lat="43.58645" lon="6.4118">
        <ele>626.7</ele>
        <time>2026-02-22T11:48:14Z</time>
      </trkpt>
      <trkpt lat="43.58645" lon="6.4118">
        <ele>626.7</ele>
        <time>2026-02-22T11:48:15Z</time>
      </trkpt>
      <trkpt lat="43.58645" lon="6.4118">
        <ele>626.8</ele>
        <time>2026-02-22T11:48:16Z</time>
      </trkpt>
      <trkpt lat="43.58645" lon="6.4118">
        <ele>626.7</ele>
        <time>2026-02-22T11:48:17Z</time>
      </trkpt>
      <trkpt lat="43.58645" lon="6.4118">
        <ele>626.8</ele>
        <time>2026-02-22T11:48:18Z</time>
      </trkpt>
      <trkpt lat="43.58645" lon="6.4118">
        <ele>626.7</ele>
        <time>2026-02-22T11:48:19Z</time>
      </trkpt>
      <trkpt lat="43.58645" lon="6.4118">
        <ele>626.7</ele>
        <time>2026-02-22T11:48:20Z</time>
      </trkpt>
      <trkpt lat="43.58645" lon="6.4118">
        <ele>626.7</ele>
        <time>2026-02-22T11:48:21Z</time>
      </trkpt>
      <trkpt lat="43.58645" lon="6.4118">
        <ele>626.7</ele>
        <time>2026-02-22T11:48:22Z</time>
      </trkpt>
      <trkpt lat="43.58645" lon="6.4118">
        <ele>626.7</ele>
        <time>2026-02-22T11:48:23Z</time>
      </trkpt>
      <trkpt lat="43.58645" lon="6.4118">
        <ele>626.6</ele>
        <time>2026-02-22T11:48:24Z</time>
      </trkpt>
      <trkpt lat="43.58645" lon="6.4118">
        <ele>626.6</ele>
        <time>2026-02-22T11:48:25Z</time>
      </trkpt>
      <trkpt lat="43.58645" lon="6.4118">
        <ele>626.7</ele>
        <time>2026-02-22T11:48:26Z</time>
      </trkpt>
      <trkpt lat="43.58645" lon="6.4118">
        <ele>626.7</ele>
        <time>2026-02-22T11:48:27Z</time>
      </trkpt>
      <trkpt lat="43.58645" lon="6.4118">
        <ele>626.7</ele>
        <time>2026-02-22T11:48:28Z</time>
      </trkpt>
      <trkpt lat="43.58645" lon="6.4118">
        <ele>626.7</ele>
        <time>2026-02-22T11:48:29Z</time>
      </trkpt>
      <trkpt lat="43.58645" lon="6.4118">
        <ele>626.6</ele>
        <time>2026-02-22T11:48:30Z</time>
      </trkpt>
      <trkpt lat="43.58645" lon="6.4118">
        <ele>626.6</ele>
        <time>2026-02-22T11:48:31Z</time>
      </trkpt>
      <trkpt lat="43.58645" lon="6.4118">
        <ele>626.6</ele>
        <time>2026-02-22T11:48:32Z</time>
      </trkpt>
      <trkpt lat="43.58645" lon="6.4118">
        <ele>626.6</ele>
        <time>2026-02-22T11:48:33Z</time>
      </trkpt>
      <trkpt lat="43.58645" lon="6.4118">
        <ele>626.6</ele>
        <time>2026-02-22T11:48:34Z</time>
      </trkpt>
      <trkpt lat="43.58645" lon="6.4118">
        <ele>626.6</ele>
        <time>2026-02-22T11:48:35Z</time>
      </trkpt>
      <trkpt lat="43.58645" lon="6.41179">
        <ele>626.7</ele>
        <time>2026-02-22T11:48:36Z</time>
      </trkpt>
      <trkpt lat="43.58645" lon="6.41179">
        <ele>626.7</ele>
        <time>2026-02-22T11:48:37Z</time>
      </trkpt>
      <trkpt lat="43.58645" lon="6.41179">
        <ele>626.7</ele>
        <time>2026-02-22T11:48:38Z</time>
      </trkpt>
      <trkpt lat="43.58645" lon="6.41179">
        <ele>626.8</ele>
        <time>2026-02-22T11:48:39Z</time>
      </trkpt>
      <trkpt lat="43.58645" lon="6.41179">
        <ele>626.8</ele>
        <time>2026-02-22T11:48:40Z</time>
      </trkpt>
      <trkpt lat="43.58645" lon="6.41179">
        <ele>626.7</ele>
        <time>2026-02-22T11:48:41Z</time>
      </trkpt>
      <trkpt lat="43.58645" lon="6.41179">
        <ele>626.7</ele>
        <time>2026-02-22T11:48:42Z</time>
      </trkpt>
      <trkpt lat="43.58645" lon="6.41179">
        <ele>626.7</ele>
        <time>2026-02-22T11:48:43Z</time>
      </trkpt>
      <trkpt lat="43.58645" lon="6.41179">
        <ele>626.8</ele>
        <time>2026-02-22T11:48:44Z</time>
      </trkpt>
      <trkpt lat="43.58645" lon="6.41179">
        <ele>626.8</ele>
        <time>2026-02-22T11:48:45Z</time>
      </trkpt>
      <trkpt lat="43.58645" lon="6.41179">
        <ele>626.9</ele>
        <time>2026-02-22T11:48:46Z</time>
      </trkpt>
      <trkpt lat="43.58644" lon="6.41179">
        <ele>626.8</ele>
        <time>2026-02-22T11:48:47Z</time>
      </trkpt>
      <trkpt lat="43.58644" lon="6.41179">
        <ele>626.7</ele>
        <time>2026-02-22T11:48:48Z</time>
      </trkpt>
      <trkpt lat="43.58644" lon="6.41179">
        <ele>626.7</ele>
        <time>2026-02-22T11:48:49Z</time>
      </trkpt>
      <trkpt lat="43.58644" lon="6.41179">
        <ele>626.7</ele>
        <time>2026-02-22T11:48:50Z</time>
      </trkpt>
      <trkpt lat="43.58644" lon="6.41179">
        <ele>626.8</ele>
        <time>2026-02-22T11:48:51Z</time>
      </trkpt>
      <trkpt lat="43.58644" lon="6.41179">
        <ele>626.8</ele>
        <time>2026-02-22T11:48:52Z</time>
      </trkpt>
      <trkpt lat="43.58644" lon="6.41179">
        <ele>626.8</ele>
        <time>2026-02-22T11:48:53Z</time>
      </trkpt>
      <trkpt lat="43.58644" lon="6.41179">
        <ele>626.8</ele>
        <time>2026-02-22T11:48:54Z</time>
      </trkpt>
      <trkpt lat="43.58644" lon="6.41179">
        <ele>626.8</ele>
        <time>2026-02-22T11:48:55Z</time>
      </trkpt>
      <trkpt lat="43.58644" lon="6.41179">
        <ele>626.7</ele>
        <time>2026-02-22T11:48:56Z</time>
      </trkpt>
      <trkpt lat="43.58644" lon="6.41179">
        <ele>626.8</ele>
        <time>2026-02-22T11:48:57Z</time>
      </trkpt>
      <trkpt lat="43.58644" lon="6.41179">
        <ele>626.8</ele>
        <time>2026-02-22T11:48:58Z</time>
      </trkpt>
      <trkpt lat="43.58644" lon="6.41179">
        <ele>626.9</ele>
        <time>2026-02-22T11:48:59Z</time>
      </trkpt>
      <trkpt lat="43.58644" lon="6.41179">
        <ele>626.9</ele>
        <time>2026-02-22T11:49:00Z</time>
      </trkpt>
      <trkpt lat="43.58644" lon="6.41179">
        <ele>626.9</ele>
        <time>2026-02-22T11:49:01Z</time>
      </trkpt>
      <trkpt lat="43.58644" lon="6.41179">
        <ele>626.9</ele>
        <time>2026-02-22T11:49:02Z</time>
      </trkpt>
      <trkpt lat="43.58644" lon="6.41179">
        <ele>626.9</ele>
        <time>2026-02-22T11:49:03Z</time>
      </trkpt>
      <trkpt lat="43.58644" lon="6.41179">
        <ele>627</ele>
        <time>2026-02-22T11:49:04Z</time>
      </trkpt>
      <trkpt lat="43.58644" lon="6.41179">
        <ele>626.9</ele>
        <time>2026-02-22T11:49:05Z</time>
      </trkpt>
      <trkpt lat="43.58644" lon="6.41179">
        <ele>626.9</ele>
        <time>2026-02-22T11:49:06Z</time>
      </trkpt>
      <trkpt lat="43.58644" lon="6.41179">
        <ele>626.9</ele>
        <time>2026-02-22T11:49:07Z</time>
      </trkpt>
      <trkpt lat="43.58643" lon="6.41179">
        <ele>626.8</ele>
        <time>2026-02-22T11:49:08Z</time>
      </trkpt>
      <trkpt lat="43.58643" lon="6.41179">
        <ele>626.9</ele>
        <time>2026-02-22T11:49:09Z</time>
      </trkpt>
      <trkpt lat="43.58643" lon="6.41179">
        <ele>626.9</ele>
        <time>2026-02-22T11:49:10Z</time>
      </trkpt>
      <trkpt lat="43.58643" lon="6.41179">
        <ele>626.9</ele>
        <time>2026-02-22T11:49:11Z</time>
      </trkpt>
      <trkpt lat="43.58643" lon="6.41179">
        <ele>626.8</ele>
        <time>2026-02-22T11:49:12Z</time>
      </trkpt>
      <trkpt lat="43.58643" lon="6.41179">
        <ele>626.8</ele>
        <time>2026-02-22T11:49:13Z</time>
      </trkpt>
      <trkpt lat="43.58643" lon="6.41179">
        <ele>626.8</ele>
        <time>2026-02-22T11:49:14Z</time>
      </trkpt>
      <trkpt lat="43.58643" lon="6.41179">
        <ele>626.8</ele>
        <time>2026-02-22T11:49:15Z</time>
      </trkpt>
      <trkpt lat="43.58643" lon="6.41179">
        <ele>626.7</ele>
        <time>2026-02-22T11:49:16Z</time>
      </trkpt>
      <trkpt lat="43.58643" lon="6.41179">
        <ele>626.8</ele>
        <time>2026-02-22T11:49:17Z</time>
      </trkpt>
      <trkpt lat="43.58643" lon="6.41179">
        <ele>626.8</ele>
        <time>2026-02-22T11:49:18Z</time>
      </trkpt>
      <trkpt lat="43.58643" lon="6.41179">
        <ele>626.8</ele>
        <time>2026-02-22T11:49:19Z</time>
      </trkpt>
      <trkpt lat="43.58643" lon="6.41179">
        <ele>626.8</ele>
        <time>2026-02-22T11:49:20Z</time>
      </trkpt>
      <trkpt lat="43.58643" lon="6.41179">
        <ele>626.8</ele>
        <time>2026-02-22T11:49:21Z</time>
      </trkpt>
      <trkpt lat="43.58643" lon="6.41179">
        <ele>626.9</ele>
        <time>2026-02-22T11:49:22Z</time>
      </trkpt>
      <trkpt lat="43.58643" lon="6.41179">
        <ele>626.9</ele>
        <time>2026-02-22T11:49:23Z</time>
      </trkpt>
      <trkpt lat="43.58643" lon="6.41179">
        <ele>627</ele>
        <time>2026-02-22T11:49:24Z</time>
      </trkpt>
      <trkpt lat="43.58643" lon="6.41179">
        <ele>627</ele>
        <time>2026-02-22T11:49:25Z</time>
      </trkpt>
      <trkpt lat="43.58643" lon="6.41179">
        <ele>627</ele>
        <time>2026-02-22T11:49:26Z</time>
      </trkpt>
      <trkpt lat="43.58643" lon="6.41179">
        <ele>626.9</ele>
        <time>2026-02-22T11:49:27Z</time>
      </trkpt>
      <trkpt lat="43.58643" lon="6.41179">
        <ele>626.8</ele>
        <time>2026-02-22T11:49:28Z</time>
      </trkpt>
      <trkpt lat="43.58643" lon="6.41179">
        <ele>626.9</ele>
        <time>2026-02-22T11:49:29Z</time>
      </trkpt>
      <trkpt lat="43.58643" lon="6.41179">
        <ele>626.9</ele>
        <time>2026-02-22T11:49:30Z</time>
      </trkpt>
      <trkpt lat="43.58643" lon="6.41179">
        <ele>626.9</ele>
        <time>2026-02-22T11:49:31Z</time>
      </trkpt>
      <trkpt lat="43.58643" lon="6.41179">
        <ele>626.8</ele>
        <time>2026-02-22T11:49:32Z</time>
      </trkpt>
      <trkpt lat="43.58643" lon="6.41179">
        <ele>626.8</ele>
        <time>2026-02-22T11:49:33Z</time>
      </trkpt>
      <trkpt lat="43.58643" lon="6.41179">
        <ele>626.9</ele>
        <time>2026-02-22T11:49:34Z</time>
      </trkpt>
      <trkpt lat="43.58643" lon="6.41179">
        <ele>626.8</ele>
        <time>2026-02-22T11:49:35Z</time>
      </trkpt>
      <trkpt lat="43.58643" lon="6.41179">
        <ele>626.7</ele>
        <time>2026-02-22T11:49:36Z</time>
      </trkpt>
      <trkpt lat="43.58643" lon="6.41179">
        <ele>626.7</ele>
        <time>2026-02-22T11:49:37Z</time>
      </trkpt>
      <trkpt lat="43.58643" lon="6.41179">
        <ele>626.7</ele>
        <time>2026-02-22T11:49:38Z</time>
      </trkpt>
      <trkpt lat="43.58643" lon="6.41179">
        <ele>626.6</ele>
        <time>2026-02-22T11:49:39Z</time>
      </trkpt>
      <trkpt lat="43.58643" lon="6.41179">
        <ele>626.6</ele>
        <time>2026-02-22T11:49:40Z</time>
      </trkpt>
      <trkpt lat="43.58643" lon="6.41179">
        <ele>626.6</ele>
        <time>2026-02-22T11:49:41Z</time>
      </trkpt>
      <trkpt lat="43.58643" lon="6.41179">
        <ele>626.6</ele>
        <time>2026-02-22T11:49:42Z</time>
      </trkpt>
      <trkpt lat="43.58643" lon="6.41179">
        <ele>626.5</ele>
        <time>2026-02-22T11:49:43Z</time>
      </trkpt>
      <trkpt lat="43.58643" lon="6.41179">
        <ele>626.6</ele>
        <time>2026-02-22T11:49:44Z</time>
      </trkpt>
      <trkpt lat="43.58643" lon="6.41179">
        <ele>626.6</ele>
        <time>2026-02-22T11:49:45Z</time>
      </trkpt>
      <trkpt lat="43.58643" lon="6.41179">
        <ele>626.6</ele>
        <time>2026-02-22T11:49:46Z</time>
      </trkpt>
      <trkpt lat="43.58643" lon="6.41179">
        <ele>626.6</ele>
        <time>2026-02-22T11:49:47Z</time>
      </trkpt>
      <trkpt lat="43.58643" lon="6.41179">
        <ele>626.6</ele>
        <time>2026-02-22T11:49:48Z</time>
      </trkpt>
      <trkpt lat="43.58643" lon="6.41179">
        <ele>626.6</ele>
        <time>2026-02-22T11:49:49Z</time>
      </trkpt>
      <trkpt lat="43.58643" lon="6.41179">
        <ele>626.7</ele>
        <time>2026-02-22T11:49:50Z</time>
      </trkpt>
      <trkpt lat="43.58643" lon="6.41179">
        <ele>626.8</ele>
        <time>2026-02-22T11:49:51Z</time>
      </trkpt>
      <trkpt lat="43.58643" lon="6.41179">
        <ele>626.8</ele>
        <time>2026-02-22T11:49:52Z</time>
      </trkpt>
      <trkpt lat="43.58643" lon="6.41179">
        <ele>626.8</ele>
        <time>2026-02-22T11:49:53Z</time>
      </trkpt>
      <trkpt lat="43.58643" lon="6.41179">
        <ele>626.7</ele>
        <time>2026-02-22T11:49:54Z</time>
      </trkpt>
      <trkpt lat="43.58643" lon="6.41179">
        <ele>626.6</ele>
        <time>2026-02-22T11:49:55Z</time>
      </trkpt>
      <trkpt lat="43.58643" lon="6.41179">
        <ele>626.6</ele>
        <time>2026-02-22T11:49:56Z</time>
      </trkpt>
      <trkpt lat="43.58643" lon="6.41179">
        <ele>626.6</ele>
        <time>2026-02-22T11:49:57Z</time>
      </trkpt>
      <trkpt lat="43.58643" lon="6.41179">
        <ele>626.7</ele>
        <time>2026-02-22T11:49:58Z</time>
      </trkpt>
      <trkpt lat="43.58643" lon="6.41179">
        <ele>626.7</ele>
        <time>2026-02-22T11:49:59Z</time>
      </trkpt>
      <trkpt lat="43.58643" lon="6.41179">
        <ele>626.7</ele>
        <time>2026-02-22T11:50:00Z</time>
      </trkpt>
      <trkpt lat="43.58643" lon="6.41179">
        <ele>626.7</ele>
        <time>2026-02-22T11:50:01Z</time>
      </trkpt>
      <trkpt lat="43.58643" lon="6.41179">
        <ele>626.8</ele>
        <time>2026-02-22T11:50:02Z</time>
      </trkpt>
      <trkpt lat="43.58643" lon="6.41179">
        <ele>626.8</ele>
        <time>2026-02-22T11:50:03Z</time>
      </trkpt>
      <trkpt lat="43.58643" lon="6.41179">
        <ele>626.9</ele>
        <time>2026-02-22T11:50:04Z</time>
      </trkpt>
      <trkpt lat="43.58644" lon="6.41179">
        <ele>626.9</ele>
        <time>2026-02-22T11:50:05Z</time>
      </trkpt>
      <trkpt lat="43.58644" lon="6.41179">
        <ele>626.9</ele>
        <time>2026-02-22T11:50:06Z</time>
      </trkpt>
      <trkpt lat="43.58644" lon="6.41179">
        <ele>627</ele>
        <time>2026-02-22T11:50:07Z</time>
      </trkpt>
      <trkpt lat="43.58644" lon="6.41179">
        <ele>627.1</ele>
        <time>2026-02-22T11:50:08Z</time>
      </trkpt>
      <trkpt lat="43.58644" lon="6.41179">
        <ele>627.1</ele>
        <time>2026-02-22T11:50:09Z</time>
      </trkpt>
      <trkpt lat="43.58644" lon="6.41179">
        <ele>627.1</ele>
        <time>2026-02-22T11:50:10Z</time>
      </trkpt>
      <trkpt lat="43.58644" lon="6.41179">
        <ele>627.1</ele>
        <time>2026-02-22T11:50:11Z</time>
      </trkpt>
      <trkpt lat="43.58644" lon="6.41179">
        <ele>627</ele>
        <time>2026-02-22T11:50:12Z</time>
      </trkpt>
      <trkpt lat="43.58644" lon="6.41179">
        <ele>627</ele>
        <time>2026-02-22T11:50:13Z</time>
      </trkpt>
      <trkpt lat="43.58644" lon="6.41179">
        <ele>626.9</ele>
        <time>2026-02-22T11:50:14Z</time>
      </trkpt>
      <trkpt lat="43.58644" lon="6.41179">
        <ele>627</ele>
        <time>2026-02-22T11:50:15Z</time>
      </trkpt>
      <trkpt lat="43.58644" lon="6.41179">
        <ele>627</ele>
        <time>2026-02-22T11:50:16Z</time>
      </trkpt>
      <trkpt lat="43.58644" lon="6.41179">
        <ele>626.9</ele>
        <time>2026-02-22T11:50:17Z</time>
      </trkpt>
      <trkpt lat="43.58644" lon="6.41179">
        <ele>626.9</ele>
        <time>2026-02-22T11:50:18Z</time>
      </trkpt>
      <trkpt lat="43.58644" lon="6.41179">
        <ele>626.8</ele>
        <time>2026-02-22T11:50:19Z</time>
      </trkpt>
      <trkpt lat="43.58644" lon="6.41179">
        <ele>626.8</ele>
        <time>2026-02-22T11:50:20Z</time>
      </trkpt>
      <trkpt lat="43.58644" lon="6.41179">
        <ele>626.9</ele>
        <time>2026-02-22T11:50:21Z</time>
      </trkpt>
      <trkpt lat="43.58644" lon="6.41179">
        <ele>626.9</ele>
        <time>2026-02-22T11:50:22Z</time>
      </trkpt>
      <trkpt lat="43.58644" lon="6.41179">
        <ele>627</ele>
        <time>2026-02-22T11:50:23Z</time>
      </trkpt>
      <trkpt lat="43.58644" lon="6.41179">
        <ele>627.1</ele>
        <time>2026-02-22T11:50:24Z</time>
      </trkpt>
      <trkpt lat="43.58644" lon="6.41179">
        <ele>627.1</ele>
        <time>2026-02-22T11:50:25Z</time>
      </trkpt>
      <trkpt lat="43.58644" lon="6.4118">
        <ele>627.1</ele>
        <time>2026-02-22T11:50:26Z</time>
      </trkpt>
      <trkpt lat="43.58644" lon="6.4118">
        <ele>627.2</ele>
        <time>2026-02-22T11:50:27Z</time>
      </trkpt>
      <trkpt lat="43.58644" lon="6.4118">
        <ele>627.2</ele>
        <time>2026-02-22T11:50:28Z</time>
      </trkpt>
      <trkpt lat="43.58644" lon="6.4118">
        <ele>627.2</ele>
        <time>2026-02-22T11:50:29Z</time>
      </trkpt>
      <trkpt lat="43.58644" lon="6.4118">
        <ele>627.2</ele>
        <time>2026-02-22T11:50:30Z</time>
      </trkpt>
      <trkpt lat="43.58644" lon="6.4118">
        <ele>627.2</ele>
        <time>2026-02-22T11:50:31Z</time>
      </trkpt>
      <trkpt lat="43.58644" lon="6.4118">
        <ele>627.2</ele>
        <time>2026-02-22T11:50:32Z</time>
      </trkpt>
      <trkpt lat="43.58644" lon="6.4118">
        <ele>627.2</ele>
        <time>2026-02-22T11:50:33Z</time>
      </trkpt>
      <trkpt lat="43.58644" lon="6.4118">
        <ele>627.2</ele>
        <time>2026-02-22T11:50:34Z</time>
      </trkpt>
      <trkpt lat="43.58644" lon="6.4118">
        <ele>627.2</ele>
        <time>2026-02-22T11:50:35Z</time>
      </trkpt>
      <trkpt lat="43.58644" lon="6.4118">
        <ele>627.2</ele>
        <time>2026-02-22T11:50:36Z</time>
      </trkpt>
      <trkpt lat="43.58644" lon="6.4118">
        <ele>627.2</ele>
        <time>2026-02-22T11:50:37Z</time>
      </trkpt>
      <trkpt lat="43.58644" lon="6.4118">
        <ele>627.2</ele>
        <time>2026-02-22T11:50:38Z</time>
      </trkpt>
      <trkpt lat="43.58644" lon="6.4118">
        <ele>627.2</ele>
        <time>2026-02-22T11:50:39Z</time>
      </trkpt>
      <trkpt lat="43.58644" lon="6.4118">
        <ele>627.1</ele>
        <time>2026-02-22T11:50:40Z</time>
      </trkpt>
      <trkpt lat="43.58644" lon="6.4118">
        <ele>627.1</ele>
        <time>2026-02-22T11:50:41Z</time>
      </trkpt>
      <trkpt lat="43.58644" lon="6.4118">
        <ele>627.1</ele>
        <time>2026-02-22T11:50:42Z</time>
      </trkpt>
      <trkpt lat="43.58644" lon="6.4118">
        <ele>627.1</ele>
        <time>2026-02-22T11:50:43Z</time>
      </trkpt>
      <trkpt lat="43.58644" lon="6.4118">
        <ele>627.2</ele>
        <time>2026-02-22T11:50:44Z</time>
      </trkpt>
      <trkpt lat="43.58644" lon="6.4118">
        <ele>627.1</ele>
        <time>2026-02-22T11:50:45Z</time>
      </trkpt>
      <trkpt lat="43.58645" lon="6.4118">
        <ele>627</ele>
        <time>2026-02-22T11:50:46Z</time>
      </trkpt>
      <trkpt lat="43.58645" lon="6.4118">
        <ele>627</ele>
        <time>2026-02-22T11:50:47Z</time>
      </trkpt>
      <trkpt lat="43.58645" lon="6.4118">
        <ele>627</ele>
        <time>2026-02-22T11:50:48Z</time>
      </trkpt>
      <trkpt lat="43.58645" lon="6.4118">
        <ele>627</ele>
        <time>2026-02-22T11:50:49Z</time>
      </trkpt>
      <trkpt lat="43.58645" lon="6.4118">
        <ele>627</ele>
        <time>2026-02-22T11:50:50Z</time>
      </trkpt>
      <trkpt lat="43.58645" lon="6.4118">
        <ele>627</ele>
        <time>2026-02-22T11:50:51Z</time>
      </trkpt>
      <trkpt lat="43.58645" lon="6.4118">
        <ele>627</ele>
        <time>2026-02-22T11:50:52Z</time>
      </trkpt>
      <trkpt lat="43.58645" lon="6.4118">
        <ele>627</ele>
        <time>2026-02-22T11:50:53Z</time>
      </trkpt>
      <trkpt lat="43.58645" lon="6.4118">
        <ele>627</ele>
        <time>2026-02-22T11:50:54Z</time>
      </trkpt>
      <trkpt lat="43.58645" lon="6.4118">
        <ele>627</ele>
        <time>2026-02-22T11:50:55Z</time>
      </trkpt>
      <trkpt lat="43.58645" lon="6.4118">
        <ele>627</ele>
        <time>2026-02-22T11:50:56Z</time>
      </trkpt>
      <trkpt lat="43.58645" lon="6.4118">
        <ele>627</ele>
        <time>2026-02-22T11:50:57Z</time>
      </trkpt>
      <trkpt lat="43.58645" lon="6.4118">
        <ele>627</ele>
        <time>2026-02-22T11:50:58Z</time>
      </trkpt>
      <trkpt lat="43.58645" lon="6.4118">
        <ele>627</ele>
        <time>2026-02-22T11:50:59Z</time>
      </trkpt>
      <trkpt lat="43.58645" lon="6.4118">
        <ele>627</ele>
        <time>2026-02-22T11:51:00Z</time>
      </trkpt>
      <trkpt lat="43.58645" lon="6.4118">
        <ele>627</ele>
        <time>2026-02-22T11:51:01Z</time>
      </trkpt>
      <trkpt lat="43.58645" lon="6.4118">
        <ele>627</ele>
        <time>2026-02-22T11:51:02Z</time>
      </trkpt>
      <trkpt lat="43.58645" lon="6.4118">
        <ele>627</ele>
        <time>2026-02-22T11:51:03Z</time>
      </trkpt>
      <trkpt lat="43.58645" lon="6.4118">
        <ele>627</ele>
        <time>2026-02-22T11:51:04Z</time>
      </trkpt>
      <trkpt lat="43.58645" lon="6.4118">
        <ele>626.9</ele>
        <time>2026-02-22T11:51:05Z</time>
      </trkpt>
      <trkpt lat="43.58645" lon="6.4118">
        <ele>626.8</ele>
        <time>2026-02-22T11:51:06Z</time>
      </trkpt>
      <trkpt lat="43.58645" lon="6.4118">
        <ele>626.7</ele>
        <time>2026-02-22T11:51:07Z</time>
      </trkpt>
      <trkpt lat="43.58645" lon="6.4118">
        <ele>626.7</ele>
        <time>2026-02-22T11:51:08Z</time>
      </trkpt>
      <trkpt lat="43.58645" lon="6.4118">
        <ele>626.7</ele>
        <time>2026-02-22T11:51:09Z</time>
      </trkpt>
      <trkpt lat="43.58645" lon="6.4118">
        <ele>626.8</ele>
        <time>2026-02-22T11:51:10Z</time>
      </trkpt>
      <trkpt lat="43.58645" lon="6.4118">
        <ele>626.8</ele>
        <time>2026-02-22T11:51:11Z</time>
      </trkpt>
      <trkpt lat="43.58645" lon="6.4118">
        <ele>626.8</ele>
        <time>2026-02-22T11:51:12Z</time>
      </trkpt>
      <trkpt lat="43.58645" lon="6.4118">
        <ele>626.8</ele>
        <time>2026-02-22T11:51:13Z</time>
      </trkpt>
      <trkpt lat="43.58645" lon="6.4118">
        <ele>626.8</ele>
        <time>2026-02-22T11:51:14Z</time>
      </trkpt>
      <trkpt lat="43.58645" lon="6.4118">
        <ele>626.8</ele>
        <time>2026-02-22T11:51:15Z</time>
      </trkpt>
      <trkpt lat="43.58645" lon="6.4118">
        <ele>626.9</ele>
        <time>2026-02-22T11:51:16Z</time>
      </trkpt>
      <trkpt lat="43.58645" lon="6.4118">
        <ele>626.9</ele>
        <time>2026-02-22T11:51:17Z</time>
      </trkpt>
      <trkpt lat="43.58645" lon="6.4118">
        <ele>626.9</ele>
        <time>2026-02-22T11:51:18Z</time>
      </trkpt>
      <trkpt lat="43.58645" lon="6.4118">
        <ele>626.9</ele>
        <time>2026-02-22T11:51:19Z</time>
      </trkpt>
      <trkpt lat="43.58645" lon="6.4118">
        <ele>626.9</ele>
        <time>2026-02-22T11:51:20Z</time>
      </trkpt>
      <trkpt lat="43.58645" lon="6.4118">
        <ele>626.9</ele>
        <time>2026-02-22T11:51:21Z</time>
      </trkpt>
      <trkpt lat="43.58645" lon="6.4118">
        <ele>626.8</ele>
        <time>2026-02-22T11:51:22Z</time>
      </trkpt>
      <trkpt lat="43.58645" lon="6.4118">
        <ele>626.9</ele>
        <time>2026-02-22T11:51:23Z</time>
      </trkpt>
      <trkpt lat="43.58645" lon="6.4118">
        <ele>626.9</ele>
        <time>2026-02-22T11:51:24Z</time>
      </trkpt>
      <trkpt lat="43.58645" lon="6.4118">
        <ele>626.8</ele>
        <time>2026-02-22T11:51:25Z</time>
      </trkpt>
      <trkpt lat="43.58645" lon="6.4118">
        <ele>626.8</ele>
        <time>2026-02-22T11:51:26Z</time>
      </trkpt>
      <trkpt lat="43.58645" lon="6.4118">
        <ele>626.8</ele>
        <time>2026-02-22T11:51:27Z</time>
      </trkpt>
      <trkpt lat="43.58645" lon="6.4118">
        <ele>626.8</ele>
        <time>2026-02-22T11:51:28Z</time>
      </trkpt>
      <trkpt lat="43.58645" lon="6.4118">
        <ele>626.8</ele>
        <time>2026-02-22T11:51:29Z</time>
      </trkpt>
      <trkpt lat="43.58645" lon="6.4118">
        <ele>626.8</ele>
        <time>2026-02-22T11:51:30Z</time>
      </trkpt>
      <trkpt lat="43.58645" lon="6.4118">
        <ele>626.7</ele>
        <time>2026-02-22T11:51:31Z</time>
      </trkpt>
      <trkpt lat="43.58645" lon="6.4118">
        <ele>626.6</ele>
        <time>2026-02-22T11:51:32Z</time>
      </trkpt>
      <trkpt lat="43.58645" lon="6.4118">
        <ele>626.6</ele>
        <time>2026-02-22T11:51:33Z</time>
      </trkpt>
      <trkpt lat="43.58645" lon="6.4118">
        <ele>626.7</ele>
        <time>2026-02-22T11:51:34Z</time>
      </trkpt>
      <trkpt lat="43.58645" lon="6.4118">
        <ele>626.7</ele>
        <time>2026-02-22T11:51:35Z</time>
      </trkpt>
      <trkpt lat="43.58645" lon="6.4118">
        <ele>626.7</ele>
        <time>2026-02-22T11:51:36Z</time>
      </trkpt>
      <trkpt lat="43.58645" lon="6.4118">
        <ele>626.7</ele>
        <time>2026-02-22T11:51:37Z</time>
      </trkpt>
      <trkpt lat="43.58646" lon="6.4118">
        <ele>626.7</ele>
        <time>2026-02-22T11:51:38Z</time>
      </trkpt>
      <trkpt lat="43.58646" lon="6.4118">
        <ele>626.8</ele>
        <time>2026-02-22T11:51:39Z</time>
      </trkpt>
      <trkpt lat="43.58646" lon="6.4118">
        <ele>626.8</ele>
        <time>2026-02-22T11:51:40Z</time>
      </trkpt>
      <trkpt lat="43.58646" lon="6.4118">
        <ele>626.8</ele>
        <time>2026-02-22T11:51:41Z</time>
      </trkpt>
      <trkpt lat="43.58646" lon="6.4118">
        <ele>626.8</ele>
        <time>2026-02-22T11:51:42Z</time>
      </trkpt>
      <trkpt lat="43.58646" lon="6.4118">
        <ele>626.8</ele>
        <time>2026-02-22T11:51:43Z</time>
      </trkpt>
      <trkpt lat="43.58646" lon="6.4118">
        <ele>626.8</ele>
        <time>2026-02-22T11:51:44Z</time>
      </trkpt>
      <trkpt lat="43.58646" lon="6.4118">
        <ele>626.7</ele>
        <time>2026-02-22T11:51:45Z</time>
      </trkpt>
      <trkpt lat="43.58646" lon="6.4118">
        <ele>626.7</ele>
        <time>2026-02-22T11:51:46Z</time>
      </trkpt>
      <trkpt lat="43.58646" lon="6.4118">
        <ele>626.7</ele>
        <time>2026-02-22T11:51:47Z</time>
      </trkpt>
      <trkpt lat="43.58646" lon="6.4118">
        <ele>626.6</ele>
        <time>2026-02-22T11:51:48Z</time>
      </trkpt>
      <trkpt lat="43.58646" lon="6.4118">
        <ele>626.6</ele>
        <time>2026-02-22T11:51:49Z</time>
      </trkpt>
      <trkpt lat="43.58646" lon="6.4118">
        <ele>626.6</ele>
        <time>2026-02-22T11:51:50Z</time>
      </trkpt>
      <trkpt lat="43.58646" lon="6.4118">
        <ele>626.6</ele>
        <time>2026-02-22T11:51:51Z</time>
      </trkpt>
      <trkpt lat="43.58646" lon="6.4118">
        <ele>626.6</ele>
        <time>2026-02-22T11:51:52Z</time>
      </trkpt>
      <trkpt lat="43.58646" lon="6.4118">
        <ele>626.6</ele>
        <time>2026-02-22T11:51:53Z</time>
      </trkpt>
      <trkpt lat="43.58646" lon="6.4118">
        <ele>626.5</ele>
        <time>2026-02-22T11:51:54Z</time>
      </trkpt>
      <trkpt lat="43.58646" lon="6.4118">
        <ele>626.5</ele>
        <time>2026-02-22T11:51:55Z</time>
      </trkpt>
      <trkpt lat="43.58646" lon="6.4118">
        <ele>626.5</ele>
        <time>2026-02-22T11:51:56Z</time>
      </trkpt>
      <trkpt lat="43.58646" lon="6.4118">
        <ele>626.5</ele>
        <time>2026-02-22T11:51:57Z</time>
      </trkpt>
      <trkpt lat="43.58646" lon="6.4118">
        <ele>626.5</ele>
        <time>2026-02-22T11:51:58Z</time>
      </trkpt>
      <trkpt lat="43.58646" lon="6.4118">
        <ele>626.5</ele>
        <time>2026-02-22T11:51:59Z</time>
      </trkpt>
      <trkpt lat="43.58646" lon="6.4118">
        <ele>626.5</ele>
        <time>2026-02-22T11:52:00Z</time>
      </trkpt>
      <trkpt lat="43.58646" lon="6.4118">
        <ele>626.5</ele>
        <time>2026-02-22T11:52:01Z</time>
      </trkpt>
      <trkpt lat="43.58646" lon="6.4118">
        <ele>626.5</ele>
        <time>2026-02-22T11:52:02Z</time>
      </trkpt>
      <trkpt lat="43.58646" lon="6.4118">
        <ele>626.4</ele>
        <time>2026-02-22T11:52:03Z</time>
      </trkpt>
      <trkpt lat="43.58646" lon="6.4118">
        <ele>626.3</ele>
        <time>2026-02-22T11:52:04Z</time>
      </trkpt>
      <trkpt lat="43.58646" lon="6.4118">
        <ele>626.3</ele>
        <time>2026-02-22T11:52:05Z</time>
      </trkpt>
      <trkpt lat="43.58646" lon="6.4118">
        <ele>626.3</ele>
        <time>2026-02-22T11:52:06Z</time>
      </trkpt>
      <trkpt lat="43.58646" lon="6.4118">
        <ele>626.4</ele>
        <time>2026-02-22T11:52:07Z</time>
      </trkpt>
      <trkpt lat="43.58646" lon="6.4118">
        <ele>626.4</ele>
        <time>2026-02-22T11:52:08Z</time>
      </trkpt>
      <trkpt lat="43.58646" lon="6.4118">
        <ele>626.4</ele>
        <time>2026-02-22T11:52:09Z</time>
      </trkpt>
      <trkpt lat="43.58646" lon="6.4118">
        <ele>626.5</ele>
        <time>2026-02-22T11:52:10Z</time>
      </trkpt>
      <trkpt lat="43.58646" lon="6.4118">
        <ele>626.5</ele>
        <time>2026-02-22T11:52:11Z</time>
      </trkpt>
      <trkpt lat="43.58646" lon="6.4118">
        <ele>626.5</ele>
        <time>2026-02-22T11:52:12Z</time>
      </trkpt>
      <trkpt lat="43.58646" lon="6.4118">
        <ele>626.5</ele>
        <time>2026-02-22T11:52:13Z</time>
      </trkpt>
      <trkpt lat="43.58646" lon="6.4118">
        <ele>626.5</ele>
        <time>2026-02-22T11:52:14Z</time>
      </trkpt>
      <trkpt lat="43.58646" lon="6.4118">
        <ele>626.5</ele>
        <time>2026-02-22T11:52:15Z</time>
      </trkpt>
      <trkpt lat="43.58646" lon="6.4118">
        <ele>626.4</ele>
        <time>2026-02-22T11:52:16Z</time>
      </trkpt>
      <trkpt lat="43.58646" lon="6.4118">
        <ele>626.4</ele>
        <time>2026-02-22T11:52:17Z</time>
      </trkpt>
      <trkpt lat="43.58646" lon="6.4118">
        <ele>626.3</ele>
        <time>2026-02-22T11:52:18Z</time>
      </trkpt>
      <trkpt lat="43.58646" lon="6.4118">
        <ele>626.3</ele>
        <time>2026-02-22T11:52:19Z</time>
      </trkpt>
      <trkpt lat="43.58646" lon="6.4118">
        <ele>626.3</ele>
        <time>2026-02-22T11:52:20Z</time>
      </trkpt>
      <trkpt lat="43.58646" lon="6.4118">
        <ele>626.4</ele>
        <time>2026-02-22T11:52:21Z</time>
      </trkpt>
      <trkpt lat="43.58646" lon="6.4118">
        <ele>626.3</ele>
        <time>2026-02-22T11:52:22Z</time>
      </trkpt>
      <trkpt lat="43.58646" lon="6.4118">
        <ele>626.3</ele>
        <time>2026-02-22T11:52:23Z</time>
      </trkpt>
      <trkpt lat="43.58646" lon="6.4118">
        <ele>626.2</ele>
        <time>2026-02-22T11:52:24Z</time>
      </trkpt>
      <trkpt lat="43.58646" lon="6.4118">
        <ele>626.2</ele>
        <time>2026-02-22T11:52:25Z</time>
      </trkpt>
      <trkpt lat="43.58646" lon="6.4118">
        <ele>626.1</ele>
        <time>2026-02-22T11:52:26Z</time>
      </trkpt>
      <trkpt lat="43.58646" lon="6.4118">
        <ele>626.2</ele>
        <time>2026-02-22T11:52:27Z</time>
      </trkpt>
      <trkpt lat="43.58646" lon="6.4118">
        <ele>626.2</ele>
        <time>2026-02-22T11:52:28Z</time>
      </trkpt>
      <trkpt lat="43.58646" lon="6.4118">
        <ele>626.3</ele>
        <time>2026-02-22T11:52:29Z</time>
      </trkpt>
      <trkpt lat="43.58646" lon="6.4118">
        <ele>626.3</ele>
        <time>2026-02-22T11:52:30Z</time>
      </trkpt>
      <trkpt lat="43.58646" lon="6.4118">
        <ele>626.3</ele>
        <time>2026-02-22T11:52:31Z</time>
      </trkpt>
      <trkpt lat="43.58646" lon="6.4118">
        <ele>626.3</ele>
        <time>2026-02-22T11:52:32Z</time>
      </trkpt>
      <trkpt lat="43.58646" lon="6.4118">
        <ele>626.3</ele>
        <time>2026-02-22T11:52:33Z</time>
      </trkpt>
      <trkpt lat="43.58646" lon="6.4118">
        <ele>626.3</ele>
        <time>2026-02-22T11:52:34Z</time>
      </trkpt>
      <trkpt lat="43.58646" lon="6.4118">
        <ele>626.3</ele>
        <time>2026-02-22T11:52:35Z</time>
      </trkpt>
      <trkpt lat="43.58646" lon="6.4118">
        <ele>626.3</ele>
        <time>2026-02-22T11:52:36Z</time>
      </trkpt>
      <trkpt lat="43.58646" lon="6.4118">
        <ele>626.3</ele>
        <time>2026-02-22T11:52:37Z</time>
      </trkpt>
      <trkpt lat="43.58646" lon="6.4118">
        <ele>626.3</ele>
        <time>2026-02-22T11:52:38Z</time>
      </trkpt>
      <trkpt lat="43.58647" lon="6.4118">
        <ele>626.3</ele>
        <time>2026-02-22T11:52:39Z</time>
      </trkpt>
      <trkpt lat="43.58647" lon="6.4118">
        <ele>626.3</ele>
        <time>2026-02-22T11:52:40Z</time>
      </trkpt>
      <trkpt lat="43.58647" lon="6.4118">
        <ele>626.3</ele>
        <time>2026-02-22T11:52:41Z</time>
      </trkpt>
      <trkpt lat="43.58647" lon="6.4118">
        <ele>626.3</ele>
        <time>2026-02-22T11:52:42Z</time>
      </trkpt>
      <trkpt lat="43.58647" lon="6.4118">
        <ele>626.3</ele>
        <time>2026-02-22T11:52:43Z</time>
      </trkpt>
      <trkpt lat="43.58647" lon="6.4118">
        <ele>626.3</ele>
        <time>2026-02-22T11:52:44Z</time>
      </trkpt>
      <trkpt lat="43.58647" lon="6.4118">
        <ele>626.3</ele>
        <time>2026-02-22T11:52:45Z</time>
      </trkpt>
      <trkpt lat="43.58647" lon="6.4118">
        <ele>626.3</ele>
        <time>2026-02-22T11:52:46Z</time>
      </trkpt>
      <trkpt lat="43.58647" lon="6.4118">
        <ele>626.3</ele>
        <time>2026-02-22T11:52:47Z</time>
      </trkpt>
      <trkpt lat="43.58647" lon="6.4118">
        <ele>626.3</ele>
        <time>2026-02-22T11:52:48Z</time>
      </trkpt>
      <trkpt lat="43.58647" lon="6.4118">
        <ele>626.2</ele>
        <time>2026-02-22T11:52:49Z</time>
      </trkpt>
      <trkpt lat="43.58647" lon="6.4118">
        <ele>626.3</ele>
        <time>2026-02-22T11:52:50Z</time>
      </trkpt>
      <trkpt lat="43.58647" lon="6.4118">
        <ele>626.3</ele>
        <time>2026-02-22T11:52:51Z</time>
      </trkpt>
      <trkpt lat="43.58647" lon="6.4118">
        <ele>626.2</ele>
        <time>2026-02-22T11:52:52Z</time>
      </trkpt>
      <trkpt lat="43.58647" lon="6.4118">
        <ele>626.1</ele>
        <time>2026-02-22T11:52:53Z</time>
      </trkpt>
      <trkpt lat="43.58647" lon="6.4118">
        <ele>626.1</ele>
        <time>2026-02-22T11:52:54Z</time>
      </trkpt>
      <trkpt lat="43.58647" lon="6.4118">
        <ele>626.1</ele>
        <time>2026-02-22T11:52:55Z</time>
      </trkpt>
      <trkpt lat="43.58647" lon="6.4118">
        <ele>626.1</ele>
        <time>2026-02-22T11:52:56Z</time>
      </trkpt>
      <trkpt lat="43.58647" lon="6.4118">
        <ele>626.1</ele>
        <time>2026-02-22T11:52:57Z</time>
      </trkpt>
      <trkpt lat="43.58647" lon="6.4118">
        <ele>626.2</ele>
        <time>2026-02-22T11:52:58Z</time>
      </trkpt>
      <trkpt lat="43.58647" lon="6.4118">
        <ele>626.2</ele>
        <time>2026-02-22T11:52:59Z</time>
      </trkpt>
      <trkpt lat="43.58647" lon="6.4118">
        <ele>626.3</ele>
        <time>2026-02-22T11:53:00Z</time>
      </trkpt>
      <trkpt lat="43.58647" lon="6.4118">
        <ele>626.3</ele>
        <time>2026-02-22T11:53:01Z</time>
      </trkpt>
      <trkpt lat="43.58647" lon="6.41181">
        <ele>626.3</ele>
        <time>2026-02-22T11:53:02Z</time>
      </trkpt>
      <trkpt lat="43.58647" lon="6.41181">
        <ele>626.2</ele>
        <time>2026-02-22T11:53:03Z</time>
      </trkpt>
      <trkpt lat="43.58647" lon="6.4118">
        <ele>626.2</ele>
        <time>2026-02-22T11:53:04Z</time>
      </trkpt>
      <trkpt lat="43.58647" lon="6.4118">
        <ele>626</ele>
        <time>2026-02-22T11:53:05Z</time>
      </trkpt>
      <trkpt lat="43.58647" lon="6.4118">
        <ele>626</ele>
        <time>2026-02-22T11:53:06Z</time>
      </trkpt>
      <trkpt lat="43.58647" lon="6.4118">
        <ele>626</ele>
        <time>2026-02-22T11:53:07Z</time>
      </trkpt>
      <trkpt lat="43.58647" lon="6.4118">
        <ele>626</ele>
        <time>2026-02-22T11:53:08Z</time>
      </trkpt>
      <trkpt lat="43.58647" lon="6.4118">
        <ele>625.9</ele>
        <time>2026-02-22T11:53:09Z</time>
      </trkpt>
      <trkpt lat="43.58647" lon="6.4118">
        <ele>625.9</ele>
        <time>2026-02-22T11:53:10Z</time>
      </trkpt>
      <trkpt lat="43.58647" lon="6.4118">
        <ele>625.8</ele>
        <time>2026-02-22T11:53:11Z</time>
      </trkpt>
      <trkpt lat="43.58647" lon="6.4118">
        <ele>625.8</ele>
        <time>2026-02-22T11:53:12Z</time>
      </trkpt>
      <trkpt lat="43.58647" lon="6.4118">
        <ele>625.8</ele>
        <time>2026-02-22T11:53:13Z</time>
      </trkpt>
      <trkpt lat="43.58647" lon="6.4118">
        <ele>625.9</ele>
        <time>2026-02-22T11:53:14Z</time>
      </trkpt>
      <trkpt lat="43.58647" lon="6.4118">
        <ele>625.9</ele>
        <time>2026-02-22T11:53:15Z</time>
      </trkpt>
      <trkpt lat="43.58647" lon="6.4118">
        <ele>625.9</ele>
        <time>2026-02-22T11:53:16Z</time>
      </trkpt>
      <trkpt lat="43.58647" lon="6.4118">
        <ele>625.9</ele>
        <time>2026-02-22T11:53:17Z</time>
      </trkpt>
      <trkpt lat="43.58647" lon="6.4118">
        <ele>626</ele>
        <time>2026-02-22T11:53:18Z</time>
      </trkpt>
      <trkpt lat="43.58647" lon="6.4118">
        <ele>626</ele>
        <time>2026-02-22T11:53:19Z</time>
      </trkpt>
      <trkpt lat="43.58647" lon="6.4118">
        <ele>625.9</ele>
        <time>2026-02-22T11:53:20Z</time>
      </trkpt>
      <trkpt lat="43.58647" lon="6.4118">
        <ele>625.9</ele>
        <time>2026-02-22T11:53:21Z</time>
      </trkpt>
      <trkpt lat="43.58647" lon="6.4118">
        <ele>625.9</ele>
        <time>2026-02-22T11:53:22Z</time>
      </trkpt>
      <trkpt lat="43.58647" lon="6.4118">
        <ele>625.9</ele>
        <time>2026-02-22T11:53:23Z</time>
      </trkpt>
      <trkpt lat="43.58647" lon="6.4118">
        <ele>625.9</ele>
        <time>2026-02-22T11:53:24Z</time>
      </trkpt>
      <trkpt lat="43.58647" lon="6.4118">
        <ele>625.9</ele>
        <time>2026-02-22T11:53:25Z</time>
      </trkpt>
      <trkpt lat="43.58647" lon="6.4118">
        <ele>625.9</ele>
        <time>2026-02-22T11:53:26Z</time>
      </trkpt>
      <trkpt lat="43.58647" lon="6.4118">
        <ele>625.8</ele>
        <time>2026-02-22T11:53:27Z</time>
      </trkpt>
      <trkpt lat="43.58647" lon="6.4118">
        <ele>625.8</ele>
        <time>2026-02-22T11:53:28Z</time>
      </trkpt>
      <trkpt lat="43.58647" lon="6.4118">
        <ele>625.8</ele>
        <time>2026-02-22T11:53:29Z</time>
      </trkpt>
      <trkpt lat="43.58647" lon="6.4118">
        <ele>625.8</ele>
        <time>2026-02-22T11:53:30Z</time>
      </trkpt>
      <trkpt lat="43.58647" lon="6.4118">
        <ele>625.9</ele>
        <time>2026-02-22T11:53:31Z</time>
      </trkpt>
      <trkpt lat="43.58647" lon="6.4118">
        <ele>625.9</ele>
        <time>2026-02-22T11:53:32Z</time>
      </trkpt>
      <trkpt lat="43.58647" lon="6.4118">
        <ele>625.9</ele>
        <time>2026-02-22T11:53:33Z</time>
      </trkpt>
      <trkpt lat="43.58647" lon="6.4118">
        <ele>625.9</ele>
        <time>2026-02-22T11:53:34Z</time>
      </trkpt>
      <trkpt lat="43.58647" lon="6.4118">
        <ele>625.8</ele>
        <time>2026-02-22T11:53:35Z</time>
      </trkpt>
      <trkpt lat="43.58647" lon="6.4118">
        <ele>625.8</ele>
        <time>2026-02-22T11:53:36Z</time>
      </trkpt>
      <trkpt lat="43.58647" lon="6.4118">
        <ele>625.9</ele>
        <time>2026-02-22T11:53:37Z</time>
      </trkpt>
      <trkpt lat="43.58647" lon="6.4118">
        <ele>626</ele>
        <time>2026-02-22T11:53:38Z</time>
      </trkpt>
      <trkpt lat="43.58647" lon="6.4118">
        <ele>626.1</ele>
        <time>2026-02-22T11:53:39Z</time>
      </trkpt>
      <trkpt lat="43.58647" lon="6.4118">
        <ele>626.1</ele>
        <time>2026-02-22T11:53:40Z</time>
      </trkpt>
      <trkpt lat="43.58647" lon="6.4118">
        <ele>626</ele>
        <time>2026-02-22T11:53:41Z</time>
      </trkpt>
      <trkpt lat="43.58647" lon="6.4118">
        <ele>626</ele>
        <time>2026-02-22T11:53:42Z</time>
      </trkpt>
      <trkpt lat="43.58647" lon="6.4118">
        <ele>626</ele>
        <time>2026-02-22T11:53:43Z</time>
      </trkpt>
      <trkpt lat="43.58647" lon="6.4118">
        <ele>626</ele>
        <time>2026-02-22T11:53:44Z</time>
      </trkpt>
      <trkpt lat="43.58647" lon="6.4118">
        <ele>626.1</ele>
        <time>2026-02-22T11:53:45Z</time>
      </trkpt>
      <trkpt lat="43.58647" lon="6.4118">
        <ele>626.1</ele>
        <time>2026-02-22T11:53:46Z</time>
      </trkpt>
      <trkpt lat="43.58647" lon="6.4118">
        <ele>626</ele>
        <time>2026-02-22T11:53:47Z</time>
      </trkpt>
      <trkpt lat="43.58647" lon="6.4118">
        <ele>626</ele>
        <time>2026-02-22T11:53:48Z</time>
      </trkpt>
      <trkpt lat="43.58647" lon="6.4118">
        <ele>626</ele>
        <time>2026-02-22T11:53:49Z</time>
      </trkpt>
      <trkpt lat="43.58647" lon="6.4118">
        <ele>626</ele>
        <time>2026-02-22T11:53:50Z</time>
      </trkpt>
      <trkpt lat="43.58647" lon="6.4118">
        <ele>626.1</ele>
        <time>2026-02-22T11:53:51Z</time>
      </trkpt>
      <trkpt lat="43.58647" lon="6.4118">
        <ele>626.1</ele>
        <time>2026-02-22T11:53:52Z</time>
      </trkpt>
      <trkpt lat="43.58647" lon="6.4118">
        <ele>626.1</ele>
        <time>2026-02-22T11:53:53Z</time>
      </trkpt>
      <trkpt lat="43.58647" lon="6.4118">
        <ele>626.2</ele>
        <time>2026-02-22T11:53:54Z</time>
      </trkpt>
      <trkpt lat="43.58647" lon="6.4118">
        <ele>626.1</ele>
        <time>2026-02-22T11:53:55Z</time>
      </trkpt>
      <trkpt lat="43.58647" lon="6.4118">
        <ele>626</ele>
        <time>2026-02-22T11:53:56Z</time>
      </trkpt>
      <trkpt lat="43.58647" lon="6.4118">
        <ele>626</ele>
        <time>2026-02-22T11:53:57Z</time>
      </trkpt>
      <trkpt lat="43.58647" lon="6.41179">
        <ele>626</ele>
        <time>2026-02-22T11:53:58Z</time>
      </trkpt>
      <trkpt lat="43.58647" lon="6.41179">
        <ele>626</ele>
        <time>2026-02-22T11:53:59Z</time>
      </trkpt>
      <trkpt lat="43.58647" lon="6.41179">
        <ele>626</ele>
        <time>2026-02-22T11:54:00Z</time>
      </trkpt>
      <trkpt lat="43.58647" lon="6.41179">
        <ele>626</ele>
        <time>2026-02-22T11:54:01Z</time>
      </trkpt>
      <trkpt lat="43.58647" lon="6.41179">
        <ele>626</ele>
        <time>2026-02-22T11:54:02Z</time>
      </trkpt>
      <trkpt lat="43.58647" lon="6.41179">
        <ele>625.9</ele>
        <time>2026-02-22T11:54:03Z</time>
      </trkpt>
      <trkpt lat="43.58647" lon="6.41179">
        <ele>625.9</ele>
        <time>2026-02-22T11:54:04Z</time>
      </trkpt>
      <trkpt lat="43.58647" lon="6.41179">
        <ele>625.9</ele>
        <time>2026-02-22T11:54:05Z</time>
      </trkpt>
      <trkpt lat="43.58647" lon="6.4118">
        <ele>625.9</ele>
        <time>2026-02-22T11:54:06Z</time>
      </trkpt>
      <trkpt lat="43.58647" lon="6.4118">
        <ele>625.9</ele>
        <time>2026-02-22T11:54:07Z</time>
      </trkpt>
      <trkpt lat="43.58647" lon="6.4118">
        <ele>625.9</ele>
        <time>2026-02-22T11:54:08Z</time>
      </trkpt>
      <trkpt lat="43.58647" lon="6.4118">
        <ele>625.9</ele>
        <time>2026-02-22T11:54:09Z</time>
      </trkpt>
      <trkpt lat="43.58647" lon="6.4118">
        <ele>625.9</ele>
        <time>2026-02-22T11:54:10Z</time>
      </trkpt>
      <trkpt lat="43.58647" lon="6.4118">
        <ele>625.9</ele>
        <time>2026-02-22T11:54:11Z</time>
      </trkpt>
      <trkpt lat="43.58647" lon="6.4118">
        <ele>625.8</ele>
        <time>2026-02-22T11:54:12Z</time>
      </trkpt>
      <trkpt lat="43.58647" lon="6.4118">
        <ele>625.8</ele>
        <time>2026-02-22T11:54:13Z</time>
      </trkpt>
      <trkpt lat="43.58647" lon="6.4118">
        <ele>625.7</ele>
        <time>2026-02-22T11:54:14Z</time>
      </trkpt>
      <trkpt lat="43.58647" lon="6.4118">
        <ele>625.8</ele>
        <time>2026-02-22T11:54:15Z</time>
      </trkpt>
      <trkpt lat="43.58647" lon="6.4118">
        <ele>625.8</ele>
        <time>2026-02-22T11:54:16Z</time>
      </trkpt>
      <trkpt lat="43.58647" lon="6.4118">
        <ele>625.8</ele>
        <time>2026-02-22T11:54:17Z</time>
      </trkpt>
      <trkpt lat="43.58647" lon="6.4118">
        <ele>625.8</ele>
        <time>2026-02-22T11:54:18Z</time>
      </trkpt>
      <trkpt lat="43.58647" lon="6.4118">
        <ele>625.8</ele>
        <time>2026-02-22T11:54:19Z</time>
      </trkpt>
      <trkpt lat="43.58647" lon="6.4118">
        <ele>625.8</ele>
        <time>2026-02-22T11:54:20Z</time>
      </trkpt>
      <trkpt lat="43.58647" lon="6.4118">
        <ele>625.8</ele>
        <time>2026-02-22T11:54:21Z</time>
      </trkpt>
      <trkpt lat="43.58647" lon="6.4118">
        <ele>625.8</ele>
        <time>2026-02-22T11:54:22Z</time>
      </trkpt>
      <trkpt lat="43.58647" lon="6.4118">
        <ele>625.7</ele>
        <time>2026-02-22T11:54:23Z</time>
      </trkpt>
      <trkpt lat="43.58647" lon="6.4118">
        <ele>625.8</ele>
        <time>2026-02-22T11:54:24Z</time>
      </trkpt>
      <trkpt lat="43.58647" lon="6.4118">
        <ele>625.8</ele>
        <time>2026-02-22T11:54:25Z</time>
      </trkpt>
      <trkpt lat="43.58647" lon="6.4118">
        <ele>625.8</ele>
        <time>2026-02-22T11:54:26Z</time>
      </trkpt>
      <trkpt lat="43.58647" lon="6.4118">
        <ele>625.8</ele>
        <time>2026-02-22T11:54:27Z</time>
      </trkpt>
      <trkpt lat="43.58647" lon="6.4118">
        <ele>625.8</ele>
        <time>2026-02-22T11:54:28Z</time>
      </trkpt>
      <trkpt lat="43.58647" lon="6.4118">
        <ele>625.9</ele>
        <time>2026-02-22T11:54:29Z</time>
      </trkpt>
      <trkpt lat="43.58647" lon="6.4118">
        <ele>625.8</ele>
        <time>2026-02-22T11:54:30Z</time>
      </trkpt>
      <trkpt lat="43.58647" lon="6.4118">
        <ele>625.8</ele>
        <time>2026-02-22T11:54:31Z</time>
      </trkpt>
      <trkpt lat="43.58647" lon="6.4118">
        <ele>625.9</ele>
        <time>2026-02-22T11:54:32Z</time>
      </trkpt>
      <trkpt lat="43.58647" lon="6.4118">
        <ele>625.9</ele>
        <time>2026-02-22T11:54:33Z</time>
      </trkpt>
      <trkpt lat="43.58647" lon="6.4118">
        <ele>625.9</ele>
        <time>2026-02-22T11:54:34Z</time>
      </trkpt>
      <trkpt lat="43.58647" lon="6.4118">
        <ele>625.9</ele>
        <time>2026-02-22T11:54:35Z</time>
      </trkpt>
      <trkpt lat="43.58647" lon="6.4118">
        <ele>625.9</ele>
        <time>2026-02-22T11:54:36Z</time>
      </trkpt>
      <trkpt lat="43.58647" lon="6.4118">
        <ele>625.9</ele>
        <time>2026-02-22T11:54:37Z</time>
      </trkpt>
      <trkpt lat="43.58647" lon="6.4118">
        <ele>625.9</ele>
        <time>2026-02-22T11:54:38Z</time>
      </trkpt>
      <trkpt lat="43.58647" lon="6.4118">
        <ele>626</ele>
        <time>2026-02-22T11:54:39Z</time>
      </trkpt>
      <trkpt lat="43.58647" lon="6.4118">
        <ele>626</ele>
        <time>2026-02-22T11:54:40Z</time>
      </trkpt>
      <trkpt lat="43.58647" lon="6.4118">
        <ele>626</ele>
        <time>2026-02-22T11:54:41Z</time>
      </trkpt>
      <trkpt lat="43.58647" lon="6.4118">
        <ele>625.9</ele>
        <time>2026-02-22T11:54:42Z</time>
      </trkpt>
      <trkpt lat="43.58647" lon="6.4118">
        <ele>625.9</ele>
        <time>2026-02-22T11:54:43Z</time>
      </trkpt>
      <trkpt lat="43.58647" lon="6.4118">
        <ele>625.8</ele>
        <time>2026-02-22T11:54:44Z</time>
      </trkpt>
      <trkpt lat="43.58647" lon="6.4118">
        <ele>625.7</ele>
        <time>2026-02-22T11:54:45Z</time>
      </trkpt>
      <trkpt lat="43.58647" lon="6.4118">
        <ele>625.8</ele>
        <time>2026-02-22T11:54:46Z</time>
      </trkpt>
      <trkpt lat="43.58647" lon="6.4118">
        <ele>625.8</ele>
        <time>2026-02-22T11:54:47Z</time>
      </trkpt>
      <trkpt lat="43.58647" lon="6.4118">
        <ele>625.7</ele>
        <time>2026-02-22T11:54:48Z</time>
      </trkpt>
      <trkpt lat="43.58647" lon="6.41181">
        <ele>625.7</ele>
        <time>2026-02-22T11:54:49Z</time>
      </trkpt>
      <trkpt lat="43.58647" lon="6.41181">
        <ele>625.7</ele>
        <time>2026-02-22T11:54:50Z</time>
      </trkpt>
      <trkpt lat="43.58647" lon="6.41181">
        <ele>625.6</ele>
        <time>2026-02-22T11:54:51Z</time>
      </trkpt>
      <trkpt lat="43.58647" lon="6.41181">
        <ele>625.6</ele>
        <time>2026-02-22T11:54:52Z</time>
      </trkpt>
      <trkpt lat="43.58647" lon="6.41181">
        <ele>625.5</ele>
        <time>2026-02-22T11:54:53Z</time>
      </trkpt>
      <trkpt lat="43.58647" lon="6.41181">
        <ele>625.4</ele>
        <time>2026-02-22T11:54:54Z</time>
      </trkpt>
      <trkpt lat="43.58648" lon="6.41181">
        <ele>625.5</ele>
        <time>2026-02-22T11:54:55Z</time>
      </trkpt>
      <trkpt lat="43.58648" lon="6.41181">
        <ele>625.5</ele>
        <time>2026-02-22T11:54:56Z</time>
      </trkpt>
      <trkpt lat="43.58648" lon="6.41181">
        <ele>625.5</ele>
        <time>2026-02-22T11:54:57Z</time>
      </trkpt>
      <trkpt lat="43.58648" lon="6.41181">
        <ele>625.5</ele>
        <time>2026-02-22T11:54:58Z</time>
      </trkpt>
      <trkpt lat="43.58648" lon="6.41181">
        <ele>625.5</ele>
        <time>2026-02-22T11:54:59Z</time>
      </trkpt>
      <trkpt lat="43.58648" lon="6.41181">
        <ele>625.5</ele>
        <time>2026-02-22T11:55:00Z</time>
      </trkpt>
      <trkpt lat="43.58648" lon="6.41181">
        <ele>625.6</ele>
        <time>2026-02-22T11:55:01Z</time>
      </trkpt>
      <trkpt lat="43.58648" lon="6.41181">
        <ele>625.6</ele>
        <time>2026-02-22T11:55:02Z</time>
      </trkpt>
      <trkpt lat="43.58648" lon="6.41181">
        <ele>625.6</ele>
        <time>2026-02-22T11:55:03Z</time>
      </trkpt>
      <trkpt lat="43.58648" lon="6.41181">
        <ele>625.5</ele>
        <time>2026-02-22T11:55:04Z</time>
      </trkpt>
      <trkpt lat="43.58648" lon="6.41181">
        <ele>625.4</ele>
        <time>2026-02-22T11:55:05Z</time>
      </trkpt>
      <trkpt lat="43.58648" lon="6.41181">
        <ele>625.4</ele>
        <time>2026-02-22T11:55:06Z</time>
      </trkpt>
      <trkpt lat="43.58648" lon="6.41181">
        <ele>625.4</ele>
        <time>2026-02-22T11:55:07Z</time>
      </trkpt>
      <trkpt lat="43.58648" lon="6.41181">
        <ele>625.4</ele>
        <time>2026-02-22T11:55:08Z</time>
      </trkpt>
      <trkpt lat="43.58648" lon="6.41181">
        <ele>625.4</ele>
        <time>2026-02-22T11:55:09Z</time>
      </trkpt>
      <trkpt lat="43.58648" lon="6.41181">
        <ele>625.5</ele>
        <time>2026-02-22T11:55:10Z</time>
      </trkpt>
      <trkpt lat="43.58648" lon="6.41181">
        <ele>625.5</ele>
        <time>2026-02-22T11:55:11Z</time>
      </trkpt>
      <trkpt lat="43.58648" lon="6.4118">
        <ele>625.6</ele>
        <time>2026-02-22T11:55:12Z</time>
      </trkpt>
      <trkpt lat="43.58648" lon="6.41181">
        <ele>625.5</ele>
        <time>2026-02-22T11:55:13Z</time>
      </trkpt>
      <trkpt lat="43.58648" lon="6.4118">
        <ele>625.5</ele>
        <time>2026-02-22T11:55:14Z</time>
      </trkpt>
      <trkpt lat="43.58648" lon="6.4118">
        <ele>625.5</ele>
        <time>2026-02-22T11:55:15Z</time>
      </trkpt>
      <trkpt lat="43.58647" lon="6.4118">
        <ele>625.4</ele>
        <time>2026-02-22T11:55:16Z</time>
      </trkpt>
      <trkpt lat="43.58648" lon="6.4118">
        <ele>625.5</ele>
        <time>2026-02-22T11:55:17Z</time>
      </trkpt>
      <trkpt lat="43.58647" lon="6.4118">
        <ele>625.4</ele>
        <time>2026-02-22T11:55:18Z</time>
      </trkpt>
      <trkpt lat="43.58647" lon="6.4118">
        <ele>625.5</ele>
        <time>2026-02-22T11:55:19Z</time>
      </trkpt>
      <trkpt lat="43.58647" lon="6.4118">
        <ele>625.5</ele>
        <time>2026-02-22T11:55:20Z</time>
      </trkpt>
      <trkpt lat="43.58647" lon="6.4118">
        <ele>625.5</ele>
        <time>2026-02-22T11:55:21Z</time>
      </trkpt>
      <trkpt lat="43.58647" lon="6.4118">
        <ele>625.5</ele>
        <time>2026-02-22T11:55:22Z</time>
      </trkpt>
      <trkpt lat="43.58647" lon="6.4118">
        <ele>625.5</ele>
        <time>2026-02-22T11:55:23Z</time>
      </trkpt>
      <trkpt lat="43.58647" lon="6.4118">
        <ele>625.5</ele>
        <time>2026-02-22T11:55:24Z</time>
      </trkpt>
      <trkpt lat="43.58647" lon="6.4118">
        <ele>625.5</ele>
        <time>2026-02-22T11:55:25Z</time>
      </trkpt>
      <trkpt lat="43.58647" lon="6.4118">
        <ele>625.5</ele>
        <time>2026-02-22T11:55:26Z</time>
      </trkpt>
      <trkpt lat="43.58647" lon="6.4118">
        <ele>625.5</ele>
        <time>2026-02-22T11:55:27Z</time>
      </trkpt>
      <trkpt lat="43.58647" lon="6.4118">
        <ele>625.5</ele>
        <time>2026-02-22T11:55:28Z</time>
      </trkpt>
      <trkpt lat="43.58647" lon="6.4118">
        <ele>625.5</ele>
        <time>2026-02-22T11:55:29Z</time>
      </trkpt>
      <trkpt lat="43.58647" lon="6.4118">
        <ele>625.5</ele>
        <time>2026-02-22T11:55:30Z</time>
      </trkpt>
      <trkpt lat="43.58647" lon="6.4118">
        <ele>625.4</ele>
        <time>2026-02-22T11:55:31Z</time>
      </trkpt>
      <trkpt lat="43.58647" lon="6.4118">
        <ele>625.4</ele>
        <time>2026-02-22T11:55:32Z</time>
      </trkpt>
      <trkpt lat="43.58647" lon="6.4118">
        <ele>625.4</ele>
        <time>2026-02-22T11:55:33Z</time>
      </trkpt>
      <trkpt lat="43.58647" lon="6.4118">
        <ele>625.4</ele>
        <time>2026-02-22T11:55:34Z</time>
      </trkpt>
      <trkpt lat="43.58647" lon="6.4118">
        <ele>625.4</ele>
        <time>2026-02-22T11:55:35Z</time>
      </trkpt>
      <trkpt lat="43.58647" lon="6.4118">
        <ele>625.4</ele>
        <time>2026-02-22T11:55:36Z</time>
      </trkpt>
      <trkpt lat="43.58647" lon="6.4118">
        <ele>625.4</ele>
        <time>2026-02-22T11:55:37Z</time>
      </trkpt>
      <trkpt lat="43.58647" lon="6.4118">
        <ele>625.5</ele>
        <time>2026-02-22T11:55:38Z</time>
      </trkpt>
      <trkpt lat="43.58647" lon="6.4118">
        <ele>625.4</ele>
        <time>2026-02-22T11:55:39Z</time>
      </trkpt>
      <trkpt lat="43.58647" lon="6.4118">
        <ele>625.4</ele>
        <time>2026-02-22T11:55:40Z</time>
      </trkpt>
      <trkpt lat="43.58647" lon="6.4118">
        <ele>625.5</ele>
        <time>2026-02-22T11:55:41Z</time>
      </trkpt>
      <trkpt lat="43.58647" lon="6.4118">
        <ele>625.6</ele>
        <time>2026-02-22T11:55:42Z</time>
      </trkpt>
      <trkpt lat="43.58647" lon="6.4118">
        <ele>625.5</ele>
        <time>2026-02-22T11:55:43Z</time>
      </trkpt>
      <trkpt lat="43.58647" lon="6.4118">
        <ele>625.6</ele>
        <time>2026-02-22T11:55:44Z</time>
      </trkpt>
      <trkpt lat="43.58647" lon="6.4118">
        <ele>625.5</ele>
        <time>2026-02-22T11:55:45Z</time>
      </trkpt>
      <trkpt lat="43.58647" lon="6.41181">
        <ele>625.4</ele>
        <time>2026-02-22T11:55:46Z</time>
      </trkpt>
      <trkpt lat="43.58647" lon="6.41181">
        <ele>625.3</ele>
        <time>2026-02-22T11:55:47Z</time>
      </trkpt>
      <trkpt lat="43.58647" lon="6.4118">
        <ele>625.3</ele>
        <time>2026-02-22T11:55:48Z</time>
      </trkpt>
      <trkpt lat="43.58647" lon="6.4118">
        <ele>625.3</ele>
        <time>2026-02-22T11:55:49Z</time>
      </trkpt>
      <trkpt lat="43.58647" lon="6.4118">
        <ele>625.2</ele>
        <time>2026-02-22T11:55:50Z</time>
      </trkpt>
      <trkpt lat="43.58647" lon="6.4118">
        <ele>625.2</ele>
        <time>2026-02-22T11:55:51Z</time>
      </trkpt>
      <trkpt lat="43.58647" lon="6.4118">
        <ele>625.2</ele>
        <time>2026-02-22T11:55:52Z</time>
      </trkpt>
      <trkpt lat="43.58647" lon="6.4118">
        <ele>625.2</ele>
        <time>2026-02-22T11:55:53Z</time>
      </trkpt>
      <trkpt lat="43.58647" lon="6.4118">
        <ele>625</ele>
        <time>2026-02-22T11:55:54Z</time>
      </trkpt>
      <trkpt lat="43.58647" lon="6.4118">
        <ele>624.9</ele>
        <time>2026-02-22T11:55:55Z</time>
      </trkpt>
      <trkpt lat="43.58647" lon="6.4118">
        <ele>624.8</ele>
        <time>2026-02-22T11:55:56Z</time>
      </trkpt>
      <trkpt lat="43.58647" lon="6.4118">
        <ele>624.8</ele>
        <time>2026-02-22T11:55:57Z</time>
      </trkpt>
      <trkpt lat="43.58647" lon="6.4118">
        <ele>624.8</ele>
        <time>2026-02-22T11:55:58Z</time>
      </trkpt>
      <trkpt lat="43.58647" lon="6.4118">
        <ele>624.8</ele>
        <time>2026-02-22T11:55:59Z</time>
      </trkpt>
      <trkpt lat="43.58647" lon="6.4118">
        <ele>624.8</ele>
        <time>2026-02-22T11:56:00Z</time>
      </trkpt>
      <trkpt lat="43.58647" lon="6.4118">
        <ele>624.8</ele>
        <time>2026-02-22T11:56:01Z</time>
      </trkpt>
      <trkpt lat="43.58647" lon="6.4118">
        <ele>624.9</ele>
        <time>2026-02-22T11:56:02Z</time>
      </trkpt>
      <trkpt lat="43.58647" lon="6.4118">
        <ele>624.9</ele>
        <time>2026-02-22T11:56:03Z</time>
      </trkpt>
      <trkpt lat="43.58647" lon="6.4118">
        <ele>625</ele>
        <time>2026-02-22T11:56:04Z</time>
      </trkpt>
      <trkpt lat="43.58647" lon="6.4118">
        <ele>625</ele>
        <time>2026-02-22T11:56:05Z</time>
      </trkpt>
      <trkpt lat="43.58647" lon="6.4118">
        <ele>625</ele>
        <time>2026-02-22T11:56:06Z</time>
      </trkpt>
      <trkpt lat="43.58647" lon="6.4118">
        <ele>625</ele>
        <time>2026-02-22T11:56:07Z</time>
      </trkpt>
      <trkpt lat="43.58647" lon="6.4118">
        <ele>624.9</ele>
        <time>2026-02-22T11:56:08Z</time>
      </trkpt>
      <trkpt lat="43.58647" lon="6.4118">
        <ele>625</ele>
        <time>2026-02-22T11:56:09Z</time>
      </trkpt>
      <trkpt lat="43.58647" lon="6.4118">
        <ele>625.1</ele>
        <time>2026-02-22T11:56:10Z</time>
      </trkpt>
      <trkpt lat="43.58647" lon="6.41179">
        <ele>625.1</ele>
        <time>2026-02-22T11:56:11Z</time>
      </trkpt>
      <trkpt lat="43.58647" lon="6.41179">
        <ele>625</ele>
        <time>2026-02-22T11:56:12Z</time>
      </trkpt>
      <trkpt lat="43.58647" lon="6.41179">
        <ele>625.1</ele>
        <time>2026-02-22T11:56:13Z</time>
      </trkpt>
      <trkpt lat="43.58647" lon="6.41179">
        <ele>625.1</ele>
        <time>2026-02-22T11:56:14Z</time>
      </trkpt>
      <trkpt lat="43.58647" lon="6.41179">
        <ele>625</ele>
        <time>2026-02-22T11:56:15Z</time>
      </trkpt>
      <trkpt lat="43.58646" lon="6.41179">
        <ele>625.1</ele>
        <time>2026-02-22T11:56:16Z</time>
      </trkpt>
      <trkpt lat="43.58646" lon="6.4118">
        <ele>625.1</ele>
        <time>2026-02-22T11:56:17Z</time>
      </trkpt>
      <trkpt lat="43.58646" lon="6.4118">
        <ele>625</ele>
        <time>2026-02-22T11:56:18Z</time>
      </trkpt>
      <trkpt lat="43.58646" lon="6.4118">
        <ele>625</ele>
        <time>2026-02-22T11:56:19Z</time>
      </trkpt>
      <trkpt lat="43.58646" lon="6.41179">
        <ele>625</ele>
        <time>2026-02-22T11:56:20Z</time>
      </trkpt>
      <trkpt lat="43.58646" lon="6.41179">
        <ele>625</ele>
        <time>2026-02-22T11:56:21Z</time>
      </trkpt>
      <trkpt lat="43.58646" lon="6.41179">
        <ele>625</ele>
        <time>2026-02-22T11:56:22Z</time>
      </trkpt>
      <trkpt lat="43.58646" lon="6.41179">
        <ele>625.1</ele>
        <time>2026-02-22T11:56:23Z</time>
      </trkpt>
      <trkpt lat="43.58646" lon="6.41179">
        <ele>625.1</ele>
        <time>2026-02-22T11:56:24Z</time>
      </trkpt>
      <trkpt lat="43.58646" lon="6.41179">
        <ele>625.1</ele>
        <time>2026-02-22T11:56:25Z</time>
      </trkpt>
      <trkpt lat="43.58646" lon="6.41179">
        <ele>625</ele>
        <time>2026-02-22T11:56:26Z</time>
      </trkpt>
      <trkpt lat="43.58646" lon="6.41179">
        <ele>625</ele>
        <time>2026-02-22T11:56:27Z</time>
      </trkpt>
      <trkpt lat="43.58646" lon="6.41179">
        <ele>625</ele>
        <time>2026-02-22T11:56:28Z</time>
      </trkpt>
      <trkpt lat="43.58646" lon="6.41179">
        <ele>625</ele>
        <time>2026-02-22T11:56:29Z</time>
      </trkpt>
      <trkpt lat="43.58646" lon="6.4118">
        <ele>625</ele>
        <time>2026-02-22T11:56:30Z</time>
      </trkpt>
      <trkpt lat="43.58646" lon="6.41179">
        <ele>625</ele>
        <time>2026-02-22T11:56:31Z</time>
      </trkpt>
      <trkpt lat="43.58646" lon="6.41179">
        <ele>624.9</ele>
        <time>2026-02-22T11:56:32Z</time>
      </trkpt>
      <trkpt lat="43.58646" lon="6.41179">
        <ele>624.8</ele>
        <time>2026-02-22T11:56:33Z</time>
      </trkpt>
      <trkpt lat="43.58646" lon="6.41179">
        <ele>624.8</ele>
        <time>2026-02-22T11:56:34Z</time>
      </trkpt>
      <trkpt lat="43.58646" lon="6.41179">
        <ele>624.8</ele>
        <time>2026-02-22T11:56:35Z</time>
      </trkpt>
      <trkpt lat="43.58646" lon="6.41179">
        <ele>624.8</ele>
        <time>2026-02-22T11:56:36Z</time>
      </trkpt>
      <trkpt lat="43.58646" lon="6.41179">
        <ele>624.7</ele>
        <time>2026-02-22T11:56:37Z</time>
      </trkpt>
      <trkpt lat="43.58646" lon="6.41179">
        <ele>624.6</ele>
        <time>2026-02-22T11:56:38Z</time>
      </trkpt>
      <trkpt lat="43.58646" lon="6.41179">
        <ele>624.6</ele>
        <time>2026-02-22T11:56:39Z</time>
      </trkpt>
      <trkpt lat="43.58646" lon="6.41179">
        <ele>624.6</ele>
        <time>2026-02-22T11:56:40Z</time>
      </trkpt>
      <trkpt lat="43.58646" lon="6.41179">
        <ele>624.6</ele>
        <time>2026-02-22T11:56:41Z</time>
      </trkpt>
      <trkpt lat="43.58647" lon="6.41179">
        <ele>624.6</ele>
        <time>2026-02-22T11:56:42Z</time>
      </trkpt>
      <trkpt lat="43.58647" lon="6.41179">
        <ele>624.6</ele>
        <time>2026-02-22T11:56:43Z</time>
      </trkpt>
      <trkpt lat="43.58647" lon="6.41179">
        <ele>624.5</ele>
        <time>2026-02-22T11:56:44Z</time>
      </trkpt>
      <trkpt lat="43.58646" lon="6.41179">
        <ele>624.5</ele>
        <time>2026-02-22T11:56:45Z</time>
      </trkpt>
      <trkpt lat="43.58646" lon="6.41179">
        <ele>624.6</ele>
        <time>2026-02-22T11:56:46Z</time>
      </trkpt>
      <trkpt lat="43.58646" lon="6.41179">
        <ele>624.6</ele>
        <time>2026-02-22T11:56:47Z</time>
      </trkpt>
      <trkpt lat="43.58646" lon="6.41179">
        <ele>624.6</ele>
        <time>2026-02-22T11:56:48Z</time>
      </trkpt>
      <trkpt lat="43.58646" lon="6.41179">
        <ele>624.6</ele>
        <time>2026-02-22T11:56:49Z</time>
      </trkpt>
      <trkpt lat="43.58646" lon="6.41179">
        <ele>624.6</ele>
        <time>2026-02-22T11:56:50Z</time>
      </trkpt>
      <trkpt lat="43.58646" lon="6.41179">
        <ele>624.6</ele>
        <time>2026-02-22T11:56:51Z</time>
      </trkpt>
      <trkpt lat="43.58646" lon="6.41179">
        <ele>624.6</ele>
        <time>2026-02-22T11:56:52Z</time>
      </trkpt>
      <trkpt lat="43.58646" lon="6.41179">
        <ele>624.6</ele>
        <time>2026-02-22T11:56:53Z</time>
      </trkpt>
      <trkpt lat="43.58646" lon="6.41179">
        <ele>624.7</ele>
        <time>2026-02-22T11:56:54Z</time>
      </trkpt>
      <trkpt lat="43.58646" lon="6.41179">
        <ele>624.7</ele>
        <time>2026-02-22T11:56:55Z</time>
      </trkpt>
      <trkpt lat="43.58646" lon="6.41179">
        <ele>624.8</ele>
        <time>2026-02-22T11:56:56Z</time>
      </trkpt>
      <trkpt lat="43.58646" lon="6.41179">
        <ele>624.8</ele>
        <time>2026-02-22T11:56:57Z</time>
      </trkpt>
      <trkpt lat="43.58646" lon="6.41179">
        <ele>624.8</ele>
        <time>2026-02-22T11:56:58Z</time>
      </trkpt>
      <trkpt lat="43.58646" lon="6.41179">
        <ele>624.7</ele>
        <time>2026-02-22T11:56:59Z</time>
      </trkpt>
      <trkpt lat="43.58646" lon="6.41179">
        <ele>624.7</ele>
        <time>2026-02-22T11:57:00Z</time>
      </trkpt>
      <trkpt lat="43.58646" lon="6.41179">
        <ele>624.7</ele>
        <time>2026-02-22T11:57:01Z</time>
      </trkpt>
      <trkpt lat="43.58646" lon="6.41179">
        <ele>624.7</ele>
        <time>2026-02-22T11:57:02Z</time>
      </trkpt>
      <trkpt lat="43.58646" lon="6.41179">
        <ele>624.7</ele>
        <time>2026-02-22T11:57:03Z</time>
      </trkpt>
      <trkpt lat="43.58646" lon="6.41179">
        <ele>624.7</ele>
        <time>2026-02-22T11:57:04Z</time>
      </trkpt>
      <trkpt lat="43.58646" lon="6.41179">
        <ele>624.7</ele>
        <time>2026-02-22T11:57:05Z</time>
      </trkpt>
      <trkpt lat="43.58646" lon="6.41179">
        <ele>624.7</ele>
        <time>2026-02-22T11:57:06Z</time>
      </trkpt>
      <trkpt lat="43.58646" lon="6.41179">
        <ele>624.8</ele>
        <time>2026-02-22T11:57:07Z</time>
      </trkpt>
      <trkpt lat="43.58646" lon="6.41179">
        <ele>624.8</ele>
        <time>2026-02-22T11:57:08Z</time>
      </trkpt>
      <trkpt lat="43.58646" lon="6.41179">
        <ele>624.7</ele>
        <time>2026-02-22T11:57:09Z</time>
      </trkpt>
      <trkpt lat="43.58646" lon="6.41179">
        <ele>624.6</ele>
        <time>2026-02-22T11:57:10Z</time>
      </trkpt>
      <trkpt lat="43.58646" lon="6.41179">
        <ele>624.5</ele>
        <time>2026-02-22T11:57:11Z</time>
      </trkpt>
      <trkpt lat="43.58646" lon="6.41179">
        <ele>624.4</ele>
        <time>2026-02-22T11:57:12Z</time>
      </trkpt>
      <trkpt lat="43.58646" lon="6.41179">
        <ele>624.5</ele>
        <time>2026-02-22T11:57:13Z</time>
      </trkpt>
      <trkpt lat="43.58646" lon="6.41179">
        <ele>624.6</ele>
        <time>2026-02-22T11:57:14Z</time>
      </trkpt>
      <trkpt lat="43.58646" lon="6.41179">
        <ele>624.6</ele>
        <time>2026-02-22T11:57:15Z</time>
      </trkpt>
      <trkpt lat="43.58646" lon="6.41179">
        <ele>624.6</ele>
        <time>2026-02-22T11:57:16Z</time>
      </trkpt>
      <trkpt lat="43.58646" lon="6.41179">
        <ele>624.6</ele>
        <time>2026-02-22T11:57:17Z</time>
      </trkpt>
      <trkpt lat="43.58646" lon="6.41179">
        <ele>624.6</ele>
        <time>2026-02-22T11:57:18Z</time>
      </trkpt>
      <trkpt lat="43.58646" lon="6.41179">
        <ele>624.6</ele>
        <time>2026-02-22T11:57:19Z</time>
      </trkpt>
      <trkpt lat="43.58646" lon="6.41179">
        <ele>624.4</ele>
        <time>2026-02-22T11:57:20Z</time>
      </trkpt>
      <trkpt lat="43.58646" lon="6.41179">
        <ele>624.2</ele>
        <time>2026-02-22T11:57:21Z</time>
      </trkpt>
      <trkpt lat="43.58646" lon="6.41179">
        <ele>624.1</ele>
        <time>2026-02-22T11:57:22Z</time>
      </trkpt>
      <trkpt lat="43.58646" lon="6.41179">
        <ele>624</ele>
        <time>2026-02-22T11:57:23Z</time>
      </trkpt>
      <trkpt lat="43.58646" lon="6.41179">
        <ele>624</ele>
        <time>2026-02-22T11:57:24Z</time>
      </trkpt>
      <trkpt lat="43.58646" lon="6.41179">
        <ele>623.9</ele>
        <time>2026-02-22T11:57:25Z</time>
      </trkpt>
      <trkpt lat="43.58646" lon="6.41179">
        <ele>624</ele>
        <time>2026-02-22T11:57:26Z</time>
      </trkpt>
      <trkpt lat="43.58646" lon="6.41179">
        <ele>624</ele>
        <time>2026-02-22T11:57:27Z</time>
      </trkpt>
      <trkpt lat="43.58646" lon="6.41179">
        <ele>624.1</ele>
        <time>2026-02-22T11:57:28Z</time>
      </trkpt>
      <trkpt lat="43.58646" lon="6.41179">
        <ele>624</ele>
        <time>2026-02-22T11:57:29Z</time>
      </trkpt>
      <trkpt lat="43.58646" lon="6.41179">
        <ele>624</ele>
        <time>2026-02-22T11:57:30Z</time>
      </trkpt>
      <trkpt lat="43.58646" lon="6.41179">
        <ele>624.1</ele>
        <time>2026-02-22T11:57:31Z</time>
      </trkpt>
      <trkpt lat="43.58646" lon="6.41179">
        <ele>624.2</ele>
        <time>2026-02-22T11:57:32Z</time>
      </trkpt>
      <trkpt lat="43.58646" lon="6.41179">
        <ele>624.3</ele>
        <time>2026-02-22T11:57:33Z</time>
      </trkpt>
      <trkpt lat="43.58646" lon="6.41179">
        <ele>624.3</ele>
        <time>2026-02-22T11:57:34Z</time>
      </trkpt>
      <trkpt lat="43.58646" lon="6.41179">
        <ele>624.3</ele>
        <time>2026-02-22T11:57:35Z</time>
      </trkpt>
      <trkpt lat="43.58646" lon="6.41179">
        <ele>624.4</ele>
        <time>2026-02-22T11:57:36Z</time>
      </trkpt>
      <trkpt lat="43.58646" lon="6.41179">
        <ele>624.4</ele>
        <time>2026-02-22T11:57:37Z</time>
      </trkpt>
      <trkpt lat="43.58646" lon="6.41179">
        <ele>624.3</ele>
        <time>2026-02-22T11:57:38Z</time>
      </trkpt>
      <trkpt lat="43.58646" lon="6.41179">
        <ele>624.2</ele>
        <time>2026-02-22T11:57:39Z</time>
      </trkpt>
      <trkpt lat="43.58646" lon="6.41179">
        <ele>624.3</ele>
        <time>2026-02-22T11:57:40Z</time>
      </trkpt>
      <trkpt lat="43.58646" lon="6.41179">
        <ele>624.4</ele>
        <time>2026-02-22T11:57:41Z</time>
      </trkpt>
      <trkpt lat="43.58646" lon="6.41179">
        <ele>624.4</ele>
        <time>2026-02-22T11:57:42Z</time>
      </trkpt>
      <trkpt lat="43.58646" lon="6.4118">
        <ele>624.3</ele>
        <time>2026-02-22T11:57:43Z</time>
      </trkpt>
      <trkpt lat="43.58646" lon="6.4118">
        <ele>624.1</ele>
        <time>2026-02-22T11:57:44Z</time>
      </trkpt>
      <trkpt lat="43.58646" lon="6.4118">
        <ele>624.2</ele>
        <time>2026-02-22T11:57:45Z</time>
      </trkpt>
      <trkpt lat="43.58646" lon="6.4118">
        <ele>624.3</ele>
        <time>2026-02-22T11:57:46Z</time>
      </trkpt>
      <trkpt lat="43.58646" lon="6.4118">
        <ele>624.4</ele>
        <time>2026-02-22T11:57:47Z</time>
      </trkpt>
      <trkpt lat="43.58646" lon="6.4118">
        <ele>624.5</ele>
        <time>2026-02-22T11:57:48Z</time>
      </trkpt>
      <trkpt lat="43.58646" lon="6.4118">
        <ele>624.6</ele>
        <time>2026-02-22T11:57:49Z</time>
      </trkpt>
      <trkpt lat="43.58646" lon="6.4118">
        <ele>624.6</ele>
        <time>2026-02-22T11:57:50Z</time>
      </trkpt>
      <trkpt lat="43.58646" lon="6.41179">
        <ele>624.6</ele>
        <time>2026-02-22T11:57:51Z</time>
      </trkpt>
      <trkpt lat="43.58646" lon="6.4118">
        <ele>624.6</ele>
        <time>2026-02-22T11:57:52Z</time>
      </trkpt>
      <trkpt lat="43.58646" lon="6.4118">
        <ele>624.5</ele>
        <time>2026-02-22T11:57:53Z</time>
      </trkpt>
      <trkpt lat="43.58646" lon="6.4118">
        <ele>624.5</ele>
        <time>2026-02-22T11:57:54Z</time>
      </trkpt>
      <trkpt lat="43.58646" lon="6.4118">
        <ele>624.5</ele>
        <time>2026-02-22T11:57:55Z</time>
      </trkpt>
      <trkpt lat="43.58646" lon="6.4118">
        <ele>624.5</ele>
        <time>2026-02-22T11:57:56Z</time>
      </trkpt>
      <trkpt lat="43.58646" lon="6.4118">
        <ele>624.4</ele>
        <time>2026-02-22T11:57:57Z</time>
      </trkpt>
      <trkpt lat="43.58646" lon="6.4118">
        <ele>624.5</ele>
        <time>2026-02-22T11:57:58Z</time>
      </trkpt>
      <trkpt lat="43.58646" lon="6.4118">
        <ele>624.5</ele>
        <time>2026-02-22T11:57:59Z</time>
      </trkpt>
      <trkpt lat="43.58646" lon="6.4118">
        <ele>624.6</ele>
        <time>2026-02-22T11:58:00Z</time>
      </trkpt>
      <trkpt lat="43.58646" lon="6.4118">
        <ele>624.5</ele>
        <time>2026-02-22T11:58:01Z</time>
      </trkpt>
      <trkpt lat="43.58646" lon="6.4118">
        <ele>624.5</ele>
        <time>2026-02-22T11:58:02Z</time>
      </trkpt>
      <trkpt lat="43.58646" lon="6.4118">
        <ele>624.4</ele>
        <time>2026-02-22T11:58:03Z</time>
      </trkpt>
      <trkpt lat="43.58646" lon="6.4118">
        <ele>624.5</ele>
        <time>2026-02-22T11:58:04Z</time>
      </trkpt>
      <trkpt lat="43.58646" lon="6.4118">
        <ele>624.5</ele>
        <time>2026-02-22T11:58:05Z</time>
      </trkpt>
      <trkpt lat="43.58646" lon="6.4118">
        <ele>624.4</ele>
        <time>2026-02-22T11:58:06Z</time>
      </trkpt>
      <trkpt lat="43.58646" lon="6.4118">
        <ele>624.4</ele>
        <time>2026-02-22T11:58:07Z</time>
      </trkpt>
      <trkpt lat="43.58646" lon="6.4118">
        <ele>624.4</ele>
        <time>2026-02-22T11:58:08Z</time>
      </trkpt>
      <trkpt lat="43.58646" lon="6.4118">
        <ele>624.3</ele>
        <time>2026-02-22T11:58:09Z</time>
      </trkpt>
      <trkpt lat="43.58646" lon="6.4118">
        <ele>624.3</ele>
        <time>2026-02-22T11:58:10Z</time>
      </trkpt>
      <trkpt lat="43.58646" lon="6.4118">
        <ele>624.3</ele>
        <time>2026-02-22T11:58:11Z</time>
      </trkpt>
      <trkpt lat="43.58646" lon="6.4118">
        <ele>624.3</ele>
        <time>2026-02-22T11:58:12Z</time>
      </trkpt>
      <trkpt lat="43.58646" lon="6.4118">
        <ele>624.2</ele>
        <time>2026-02-22T11:58:13Z</time>
      </trkpt>
      <trkpt lat="43.58646" lon="6.4118">
        <ele>624.2</ele>
        <time>2026-02-22T11:58:14Z</time>
      </trkpt>
      <trkpt lat="43.58646" lon="6.4118">
        <ele>624.2</ele>
        <time>2026-02-22T11:58:15Z</time>
      </trkpt>
      <trkpt lat="43.58646" lon="6.4118">
        <ele>624.2</ele>
        <time>2026-02-22T11:58:16Z</time>
      </trkpt>
      <trkpt lat="43.58646" lon="6.4118">
        <ele>624.2</ele>
        <time>2026-02-22T11:58:17Z</time>
      </trkpt>
      <trkpt lat="43.58646" lon="6.4118">
        <ele>624.2</ele>
        <time>2026-02-22T11:58:18Z</time>
      </trkpt>
      <trkpt lat="43.58646" lon="6.4118">
        <ele>624.2</ele>
        <time>2026-02-22T11:58:19Z</time>
      </trkpt>
      <trkpt lat="43.58646" lon="6.4118">
        <ele>624.1</ele>
        <time>2026-02-22T11:58:20Z</time>
      </trkpt>
      <trkpt lat="43.58646" lon="6.4118">
        <ele>624.1</ele>
        <time>2026-02-22T11:58:21Z</time>
      </trkpt>
      <trkpt lat="43.58646" lon="6.4118">
        <ele>624</ele>
        <time>2026-02-22T11:58:22Z</time>
      </trkpt>
      <trkpt lat="43.58646" lon="6.4118">
        <ele>624</ele>
        <time>2026-02-22T11:58:23Z</time>
      </trkpt>
      <trkpt lat="43.58646" lon="6.4118">
        <ele>623.9</ele>
        <time>2026-02-22T11:58:24Z</time>
      </trkpt>
      <trkpt lat="43.58646" lon="6.4118">
        <ele>623.9</ele>
        <time>2026-02-22T11:58:25Z</time>
      </trkpt>
      <trkpt lat="43.58646" lon="6.4118">
        <ele>623.9</ele>
        <time>2026-02-22T11:58:26Z</time>
      </trkpt>
      <trkpt lat="43.58646" lon="6.4118">
        <ele>623.8</ele>
        <time>2026-02-22T11:58:27Z</time>
      </trkpt>
      <trkpt lat="43.58646" lon="6.4118">
        <ele>623.8</ele>
        <time>2026-02-22T11:58:28Z</time>
      </trkpt>
      <trkpt lat="43.58646" lon="6.4118">
        <ele>623.8</ele>
        <time>2026-02-22T11:58:29Z</time>
      </trkpt>
      <trkpt lat="43.58646" lon="6.4118">
        <ele>623.8</ele>
        <time>2026-02-22T11:58:30Z</time>
      </trkpt>
      <trkpt lat="43.58646" lon="6.4118">
        <ele>623.8</ele>
        <time>2026-02-22T11:58:31Z</time>
      </trkpt>
      <trkpt lat="43.58646" lon="6.4118">
        <ele>623.9</ele>
        <time>2026-02-22T11:58:32Z</time>
      </trkpt>
      <trkpt lat="43.58646" lon="6.4118">
        <ele>623.9</ele>
        <time>2026-02-22T11:58:33Z</time>
      </trkpt>
      <trkpt lat="43.58646" lon="6.4118">
        <ele>623.9</ele>
        <time>2026-02-22T11:58:34Z</time>
      </trkpt>
      <trkpt lat="43.58646" lon="6.4118">
        <ele>623.9</ele>
        <time>2026-02-22T11:58:35Z</time>
      </trkpt>
      <trkpt lat="43.58646" lon="6.4118">
        <ele>623.9</ele>
        <time>2026-02-22T11:58:36Z</time>
      </trkpt>
      <trkpt lat="43.58646" lon="6.4118">
        <ele>623.9</ele>
        <time>2026-02-22T11:58:37Z</time>
      </trkpt>
      <trkpt lat="43.58646" lon="6.4118">
        <ele>623.8</ele>
        <time>2026-02-22T11:58:38Z</time>
      </trkpt>
      <trkpt lat="43.58646" lon="6.4118">
        <ele>623.9</ele>
        <time>2026-02-22T11:58:39Z</time>
      </trkpt>
      <trkpt lat="43.58646" lon="6.4118">
        <ele>623.9</ele>
        <time>2026-02-22T11:58:40Z</time>
      </trkpt>
      <trkpt lat="43.58646" lon="6.4118">
        <ele>623.9</ele>
        <time>2026-02-22T11:58:41Z</time>
      </trkpt>
      <trkpt lat="43.58646" lon="6.4118">
        <ele>623.8</ele>
        <time>2026-02-22T11:58:42Z</time>
      </trkpt>
      <trkpt lat="43.58646" lon="6.4118">
        <ele>623.7</ele>
        <time>2026-02-22T11:58:43Z</time>
      </trkpt>
      <trkpt lat="43.58646" lon="6.4118">
        <ele>623.6</ele>
        <time>2026-02-22T11:58:44Z</time>
      </trkpt>
      <trkpt lat="43.58647" lon="6.4118">
        <ele>623.7</ele>
        <time>2026-02-22T11:58:45Z</time>
      </trkpt>
      <trkpt lat="43.58647" lon="6.4118">
        <ele>623.7</ele>
        <time>2026-02-22T11:58:46Z</time>
      </trkpt>
      <trkpt lat="43.58647" lon="6.4118">
        <ele>623.8</ele>
        <time>2026-02-22T11:58:47Z</time>
      </trkpt>
      <trkpt lat="43.58647" lon="6.4118">
        <ele>623.8</ele>
        <time>2026-02-22T11:58:48Z</time>
      </trkpt>
      <trkpt lat="43.58647" lon="6.4118">
        <ele>623.8</ele>
        <time>2026-02-22T11:58:49Z</time>
      </trkpt>
      <trkpt lat="43.58647" lon="6.4118">
        <ele>623.9</ele>
        <time>2026-02-22T11:58:50Z</time>
      </trkpt>
      <trkpt lat="43.58647" lon="6.4118">
        <ele>623.9</ele>
        <time>2026-02-22T11:58:51Z</time>
      </trkpt>
      <trkpt lat="43.58647" lon="6.4118">
        <ele>623.9</ele>
        <time>2026-02-22T11:58:52Z</time>
      </trkpt>
      <trkpt lat="43.58647" lon="6.4118">
        <ele>623.9</ele>
        <time>2026-02-22T11:58:53Z</time>
      </trkpt>
      <trkpt lat="43.58647" lon="6.4118">
        <ele>623.9</ele>
        <time>2026-02-22T11:58:54Z</time>
      </trkpt>
      <trkpt lat="43.58647" lon="6.4118">
        <ele>623.9</ele>
        <time>2026-02-22T11:58:55Z</time>
      </trkpt>
      <trkpt lat="43.58647" lon="6.4118">
        <ele>623.9</ele>
        <time>2026-02-22T11:58:56Z</time>
      </trkpt>
      <trkpt lat="43.58647" lon="6.4118">
        <ele>623.9</ele>
        <time>2026-02-22T11:58:57Z</time>
      </trkpt>
      <trkpt lat="43.58647" lon="6.4118">
        <ele>623.9</ele>
        <time>2026-02-22T11:58:58Z</time>
      </trkpt>
      <trkpt lat="43.58647" lon="6.4118">
        <ele>623.8</ele>
        <time>2026-02-22T11:58:59Z</time>
      </trkpt>
      <trkpt lat="43.58647" lon="6.4118">
        <ele>623.8</ele>
        <time>2026-02-22T11:59:00Z</time>
      </trkpt>
      <trkpt lat="43.58647" lon="6.4118">
        <ele>623.8</ele>
        <time>2026-02-22T11:59:01Z</time>
      </trkpt>
      <trkpt lat="43.58647" lon="6.41179">
        <ele>623.8</ele>
        <time>2026-02-22T11:59:02Z</time>
      </trkpt>
      <trkpt lat="43.58647" lon="6.41179">
        <ele>623.8</ele>
        <time>2026-02-22T11:59:03Z</time>
      </trkpt>
      <trkpt lat="43.58647" lon="6.41179">
        <ele>623.8</ele>
        <time>2026-02-22T11:59:04Z</time>
      </trkpt>
      <trkpt lat="43.58647" lon="6.41179">
        <ele>623.8</ele>
        <time>2026-02-22T11:59:05Z</time>
      </trkpt>
      <trkpt lat="43.58647" lon="6.41179">
        <ele>623.8</ele>
        <time>2026-02-22T11:59:06Z</time>
      </trkpt>
      <trkpt lat="43.58646" lon="6.41179">
        <ele>623.7</ele>
        <time>2026-02-22T11:59:07Z</time>
      </trkpt>
      <trkpt lat="43.58646" lon="6.41179">
        <ele>623.7</ele>
        <time>2026-02-22T11:59:08Z</time>
      </trkpt>
      <trkpt lat="43.58646" lon="6.41179">
        <ele>623.7</ele>
        <time>2026-02-22T11:59:09Z</time>
      </trkpt>
      <trkpt lat="43.58647" lon="6.41179">
        <ele>623.7</ele>
        <time>2026-02-22T11:59:10Z</time>
      </trkpt>
      <trkpt lat="43.58647" lon="6.41179">
        <ele>623.6</ele>
        <time>2026-02-22T11:59:11Z</time>
      </trkpt>
      <trkpt lat="43.58647" lon="6.41179">
        <ele>623.6</ele>
        <time>2026-02-22T11:59:12Z</time>
      </trkpt>
      <trkpt lat="43.58647" lon="6.4118">
        <ele>623.6</ele>
        <time>2026-02-22T11:59:13Z</time>
      </trkpt>
      <trkpt lat="43.58647" lon="6.4118">
        <ele>623.7</ele>
        <time>2026-02-22T11:59:14Z</time>
      </trkpt>
      <trkpt lat="43.58647" lon="6.4118">
        <ele>623.6</ele>
        <time>2026-02-22T11:59:15Z</time>
      </trkpt>
      <trkpt lat="43.58647" lon="6.4118">
        <ele>623.5</ele>
        <time>2026-02-22T11:59:16Z</time>
      </trkpt>
      <trkpt lat="43.58647" lon="6.4118">
        <ele>623.4</ele>
        <time>2026-02-22T11:59:17Z</time>
      </trkpt>
      <trkpt lat="43.58647" lon="6.4118">
        <ele>623.3</ele>
        <time>2026-02-22T11:59:18Z</time>
      </trkpt>
      <trkpt lat="43.58647" lon="6.4118">
        <ele>623.4</ele>
        <time>2026-02-22T11:59:19Z</time>
      </trkpt>
      <trkpt lat="43.58647" lon="6.4118">
        <ele>623.4</ele>
        <time>2026-02-22T11:59:20Z</time>
      </trkpt>
      <trkpt lat="43.58647" lon="6.4118">
        <ele>623.4</ele>
        <time>2026-02-22T11:59:21Z</time>
      </trkpt>
      <trkpt lat="43.58647" lon="6.4118">
        <ele>623.4</ele>
        <time>2026-02-22T11:59:22Z</time>
      </trkpt>
      <trkpt lat="43.58647" lon="6.4118">
        <ele>623.4</ele>
        <time>2026-02-22T11:59:23Z</time>
      </trkpt>
      <trkpt lat="43.58647" lon="6.4118">
        <ele>623.4</ele>
        <time>2026-02-22T11:59:24Z</time>
      </trkpt>
      <trkpt lat="43.58647" lon="6.41181">
        <ele>623.5</ele>
        <time>2026-02-22T11:59:25Z</time>
      </trkpt>
      <trkpt lat="43.58647" lon="6.41181">
        <ele>623.5</ele>
        <time>2026-02-22T11:59:26Z</time>
      </trkpt>
      <trkpt lat="43.58647" lon="6.41181">
        <ele>623.5</ele>
        <time>2026-02-22T11:59:27Z</time>
      </trkpt>
      <trkpt lat="43.58647" lon="6.41181">
        <ele>623.6</ele>
        <time>2026-02-22T11:59:28Z</time>
      </trkpt>
      <trkpt lat="43.58647" lon="6.4118">
        <ele>623.6</ele>
        <time>2026-02-22T11:59:29Z</time>
      </trkpt>
      <trkpt lat="43.58647" lon="6.4118">
        <ele>623.6</ele>
        <time>2026-02-22T11:59:30Z</time>
      </trkpt>
      <trkpt lat="43.58647" lon="6.4118">
        <ele>623.6</ele>
        <time>2026-02-22T11:59:31Z</time>
      </trkpt>
      <trkpt lat="43.58647" lon="6.4118">
        <ele>623.6</ele>
        <time>2026-02-22T11:59:32Z</time>
      </trkpt>
      <trkpt lat="43.58647" lon="6.4118">
        <ele>623.7</ele>
        <time>2026-02-22T11:59:33Z</time>
      </trkpt>
      <trkpt lat="43.58647" lon="6.41181">
        <ele>623.7</ele>
        <time>2026-02-22T11:59:34Z</time>
      </trkpt>
      <trkpt lat="43.58647" lon="6.41181">
        <ele>623.7</ele>
        <time>2026-02-22T11:59:35Z</time>
      </trkpt>
      <trkpt lat="43.58647" lon="6.41181">
        <ele>623.7</ele>
        <time>2026-02-22T11:59:36Z</time>
      </trkpt>
      <trkpt lat="43.58647" lon="6.41181">
        <ele>623.8</ele>
        <time>2026-02-22T11:59:37Z</time>
      </trkpt>
      <trkpt lat="43.58647" lon="6.4118">
        <ele>623.8</ele>
        <time>2026-02-22T11:59:38Z</time>
      </trkpt>
      <trkpt lat="43.58647" lon="6.4118">
        <ele>623.7</ele>
        <time>2026-02-22T11:59:39Z</time>
      </trkpt>
      <trkpt lat="43.58647" lon="6.4118">
        <ele>623.7</ele>
        <time>2026-02-22T11:59:40Z</time>
      </trkpt>
      <trkpt lat="43.58647" lon="6.4118">
        <ele>623.6</ele>
        <time>2026-02-22T11:59:41Z</time>
      </trkpt>
      <trkpt lat="43.58647" lon="6.4118">
        <ele>623.5</ele>
        <time>2026-02-22T11:59:42Z</time>
      </trkpt>
      <trkpt lat="43.58648" lon="6.4118">
        <ele>623.4</ele>
        <time>2026-02-22T11:59:43Z</time>
      </trkpt>
      <trkpt lat="43.58648" lon="6.4118">
        <ele>623.4</ele>
        <time>2026-02-22T11:59:44Z</time>
      </trkpt>
      <trkpt lat="43.58648" lon="6.4118">
        <ele>623.3</ele>
        <time>2026-02-22T11:59:45Z</time>
      </trkpt>
      <trkpt lat="43.58648" lon="6.41181">
        <ele>623.3</ele>
        <time>2026-02-22T11:59:46Z</time>
      </trkpt>
      <trkpt lat="43.58648" lon="6.41181">
        <ele>623.2</ele>
        <time>2026-02-22T11:59:47Z</time>
      </trkpt>
      <trkpt lat="43.58648" lon="6.41181">
        <ele>623.2</ele>
        <time>2026-02-22T11:59:48Z</time>
      </trkpt>
      <trkpt lat="43.58648" lon="6.41181">
        <ele>623.2</ele>
        <time>2026-02-22T11:59:49Z</time>
      </trkpt>
      <trkpt lat="43.58648" lon="6.41181">
        <ele>623.2</ele>
        <time>2026-02-22T11:59:50Z</time>
      </trkpt>
      <trkpt lat="43.58648" lon="6.41181">
        <ele>623.2</ele>
        <time>2026-02-22T11:59:51Z</time>
      </trkpt>
      <trkpt lat="43.58648" lon="6.41181">
        <ele>623.3</ele>
        <time>2026-02-22T11:59:52Z</time>
      </trkpt>
      <trkpt lat="43.58648" lon="6.41181">
        <ele>623.3</ele>
        <time>2026-02-22T11:59:53Z</time>
      </trkpt>
      <trkpt lat="43.58648" lon="6.41181">
        <ele>623.3</ele>
        <time>2026-02-22T11:59:54Z</time>
      </trkpt>
      <trkpt lat="43.58648" lon="6.41181">
        <ele>623.3</ele>
        <time>2026-02-22T11:59:55Z</time>
      </trkpt>
      <trkpt lat="43.58648" lon="6.41181">
        <ele>623.3</ele>
        <time>2026-02-22T11:59:56Z</time>
      </trkpt>
      <trkpt lat="43.58647" lon="6.41181">
        <ele>623.3</ele>
        <time>2026-02-22T11:59:57Z</time>
      </trkpt>
      <trkpt lat="43.58647" lon="6.41181">
        <ele>623.3</ele>
        <time>2026-02-22T11:59:58Z</time>
      </trkpt>
      <trkpt lat="43.58647" lon="6.41181">
        <ele>623.2</ele>
        <time>2026-02-22T11:59:59Z</time>
      </trkpt>
      <trkpt lat="43.58647" lon="6.41181">
        <ele>623.3</ele>
        <time>2026-02-22T12:00:00Z</time>
      </trkpt>
      <trkpt lat="43.58647" lon="6.41181">
        <ele>623.3</ele>
        <time>2026-02-22T12:00:01Z</time>
      </trkpt>
      <trkpt lat="43.58647" lon="6.41181">
        <ele>623.4</ele>
        <time>2026-02-22T12:00:02Z</time>
      </trkpt>
      <trkpt lat="43.58647" lon="6.41181">
        <ele>623.4</ele>
        <time>2026-02-22T12:00:03Z</time>
      </trkpt>
      <trkpt lat="43.58647" lon="6.41181">
        <ele>623.4</ele>
        <time>2026-02-22T12:00:04Z</time>
      </trkpt>
      <trkpt lat="43.58647" lon="6.41181">
        <ele>623.4</ele>
        <time>2026-02-22T12:00:05Z</time>
      </trkpt>
      <trkpt lat="43.58647" lon="6.41181">
        <ele>623.3</ele>
        <time>2026-02-22T12:00:06Z</time>
      </trkpt>
      <trkpt lat="43.58647" lon="6.41181">
        <ele>623.4</ele>
        <time>2026-02-22T12:00:07Z</time>
      </trkpt>
      <trkpt lat="43.58647" lon="6.41181">
        <ele>623.5</ele>
        <time>2026-02-22T12:00:08Z</time>
      </trkpt>
      <trkpt lat="43.58647" lon="6.41181">
        <ele>623.4</ele>
        <time>2026-02-22T12:00:09Z</time>
      </trkpt>
      <trkpt lat="43.58647" lon="6.41181">
        <ele>623.4</ele>
        <time>2026-02-22T12:00:10Z</time>
      </trkpt>
      <trkpt lat="43.58647" lon="6.41181">
        <ele>623.4</ele>
        <time>2026-02-22T12:00:11Z</time>
      </trkpt>
      <trkpt lat="43.58647" lon="6.41181">
        <ele>623.4</ele>
        <time>2026-02-22T12:00:12Z</time>
      </trkpt>
      <trkpt lat="43.58647" lon="6.41181">
        <ele>623.4</ele>
        <time>2026-02-22T12:00:13Z</time>
      </trkpt>
      <trkpt lat="43.58647" lon="6.41181">
        <ele>623.3</ele>
        <time>2026-02-22T12:00:14Z</time>
      </trkpt>
      <trkpt lat="43.58647" lon="6.41181">
        <ele>623.3</ele>
        <time>2026-02-22T12:00:15Z</time>
      </trkpt>
      <trkpt lat="43.58646" lon="6.41181">
        <ele>623.3</ele>
        <time>2026-02-22T12:00:16Z</time>
      </trkpt>
      <trkpt lat="43.58646" lon="6.41181">
        <ele>623.4</ele>
        <time>2026-02-22T12:00:17Z</time>
      </trkpt>
      <trkpt lat="43.58646" lon="6.41181">
        <ele>623.4</ele>
        <time>2026-02-22T12:00:18Z</time>
      </trkpt>
      <trkpt lat="43.58646" lon="6.41181">
        <ele>623.4</ele>
        <time>2026-02-22T12:00:19Z</time>
      </trkpt>
      <trkpt lat="43.58646" lon="6.41181">
        <ele>623.5</ele>
        <time>2026-02-22T12:00:20Z</time>
      </trkpt>
      <trkpt lat="43.58646" lon="6.41181">
        <ele>623.6</ele>
        <time>2026-02-22T12:00:21Z</time>
      </trkpt>
      <trkpt lat="43.58646" lon="6.41181">
        <ele>623.6</ele>
        <time>2026-02-22T12:00:22Z</time>
      </trkpt>
      <trkpt lat="43.58646" lon="6.41181">
        <ele>623.6</ele>
        <time>2026-02-22T12:00:23Z</time>
      </trkpt>
      <trkpt lat="43.58646" lon="6.41181">
        <ele>623.6</ele>
        <time>2026-02-22T12:00:24Z</time>
      </trkpt>
      <trkpt lat="43.58646" lon="6.41181">
        <ele>623.7</ele>
        <time>2026-02-22T12:00:25Z</time>
      </trkpt>
      <trkpt lat="43.58646" lon="6.41181">
        <ele>623.6</ele>
        <time>2026-02-22T12:00:26Z</time>
      </trkpt>
      <trkpt lat="43.58646" lon="6.4118">
        <ele>623.5</ele>
        <time>2026-02-22T12:00:27Z</time>
      </trkpt>
      <trkpt lat="43.58646" lon="6.4118">
        <ele>623.5</ele>
        <time>2026-02-22T12:00:28Z</time>
      </trkpt>
      <trkpt lat="43.58646" lon="6.4118">
        <ele>623.5</ele>
        <time>2026-02-22T12:00:29Z</time>
      </trkpt>
      <trkpt lat="43.58646" lon="6.4118">
        <ele>623.4</ele>
        <time>2026-02-22T12:00:30Z</time>
      </trkpt>
      <trkpt lat="43.58646" lon="6.4118">
        <ele>623.3</ele>
        <time>2026-02-22T12:00:31Z</time>
      </trkpt>
      <trkpt lat="43.58646" lon="6.4118">
        <ele>623.3</ele>
        <time>2026-02-22T12:00:32Z</time>
      </trkpt>
      <trkpt lat="43.58646" lon="6.4118">
        <ele>623.3</ele>
        <time>2026-02-22T12:00:33Z</time>
      </trkpt>
      <trkpt lat="43.58646" lon="6.4118">
        <ele>623.3</ele>
        <time>2026-02-22T12:00:34Z</time>
      </trkpt>
      <trkpt lat="43.58646" lon="6.4118">
        <ele>623.3</ele>
        <time>2026-02-22T12:00:35Z</time>
      </trkpt>
      <trkpt lat="43.58646" lon="6.4118">
        <ele>623.4</ele>
        <time>2026-02-22T12:00:36Z</time>
      </trkpt>
      <trkpt lat="43.58646" lon="6.4118">
        <ele>623.4</ele>
        <time>2026-02-22T12:00:37Z</time>
      </trkpt>
      <trkpt lat="43.58646" lon="6.4118">
        <ele>623.5</ele>
        <time>2026-02-22T12:00:38Z</time>
      </trkpt>
      <trkpt lat="43.58646" lon="6.4118">
        <ele>623.4</ele>
        <time>2026-02-22T12:00:39Z</time>
      </trkpt>
      <trkpt lat="43.58646" lon="6.4118">
        <ele>623.4</ele>
        <time>2026-02-22T12:00:40Z</time>
      </trkpt>
      <trkpt lat="43.58646" lon="6.4118">
        <ele>623.4</ele>
        <time>2026-02-22T12:00:41Z</time>
      </trkpt>
      <trkpt lat="43.58646" lon="6.4118">
        <ele>623.3</ele>
        <time>2026-02-22T12:00:42Z</time>
      </trkpt>
      <trkpt lat="43.58646" lon="6.4118">
        <ele>623.3</ele>
        <time>2026-02-22T12:00:43Z</time>
      </trkpt>
      <trkpt lat="43.58646" lon="6.4118">
        <ele>623.2</ele>
        <time>2026-02-22T12:00:44Z</time>
      </trkpt>
      <trkpt lat="43.58646" lon="6.4118">
        <ele>623.2</ele>
        <time>2026-02-22T12:00:45Z</time>
      </trkpt>
      <trkpt lat="43.58646" lon="6.4118">
        <ele>623.1</ele>
        <time>2026-02-22T12:00:46Z</time>
      </trkpt>
      <trkpt lat="43.58646" lon="6.4118">
        <ele>623.1</ele>
        <time>2026-02-22T12:00:47Z</time>
      </trkpt>
      <trkpt lat="43.58646" lon="6.4118">
        <ele>623.2</ele>
        <time>2026-02-22T12:00:48Z</time>
      </trkpt>
      <trkpt lat="43.58646" lon="6.4118">
        <ele>623.1</ele>
        <time>2026-02-22T12:00:49Z</time>
      </trkpt>
      <trkpt lat="43.58646" lon="6.4118">
        <ele>623.1</ele>
        <time>2026-02-22T12:00:50Z</time>
      </trkpt>
      <trkpt lat="43.58646" lon="6.41181">
        <ele>623.1</ele>
        <time>2026-02-22T12:00:51Z</time>
      </trkpt>
      <trkpt lat="43.58646" lon="6.41181">
        <ele>623</ele>
        <time>2026-02-22T12:00:52Z</time>
      </trkpt>
      <trkpt lat="43.58646" lon="6.41181">
        <ele>623</ele>
        <time>2026-02-22T12:00:53Z</time>
      </trkpt>
      <trkpt lat="43.58646" lon="6.41181">
        <ele>623</ele>
        <time>2026-02-22T12:00:54Z</time>
      </trkpt>
      <trkpt lat="43.58646" lon="6.41181">
        <ele>623.1</ele>
        <time>2026-02-22T12:00:55Z</time>
      </trkpt>
      <trkpt lat="43.58646" lon="6.41181">
        <ele>623.1</ele>
        <time>2026-02-22T12:00:56Z</time>
      </trkpt>
      <trkpt lat="43.58646" lon="6.41181">
        <ele>623</ele>
        <time>2026-02-22T12:00:57Z</time>
      </trkpt>
      <trkpt lat="43.58646" lon="6.41181">
        <ele>623</ele>
        <time>2026-02-22T12:00:58Z</time>
      </trkpt>
      <trkpt lat="43.58646" lon="6.41181">
        <ele>623</ele>
        <time>2026-02-22T12:00:59Z</time>
      </trkpt>
      <trkpt lat="43.58646" lon="6.41181">
        <ele>623</ele>
        <time>2026-02-22T12:01:00Z</time>
      </trkpt>
      <trkpt lat="43.58646" lon="6.41181">
        <ele>623</ele>
        <time>2026-02-22T12:01:01Z</time>
      </trkpt>
      <trkpt lat="43.58646" lon="6.41181">
        <ele>623</ele>
        <time>2026-02-22T12:01:02Z</time>
      </trkpt>
      <trkpt lat="43.58646" lon="6.41181">
        <ele>623</ele>
        <time>2026-02-22T12:01:03Z</time>
      </trkpt>
      <trkpt lat="43.58646" lon="6.41181">
        <ele>623</ele>
        <time>2026-02-22T12:01:04Z</time>
      </trkpt>
      <trkpt lat="43.58646" lon="6.41181">
        <ele>623</ele>
        <time>2026-02-22T12:01:05Z</time>
      </trkpt>
      <trkpt lat="43.58646" lon="6.41181">
        <ele>623</ele>
        <time>2026-02-22T12:01:06Z</time>
      </trkpt>
      <trkpt lat="43.58646" lon="6.41181">
        <ele>623</ele>
        <time>2026-02-22T12:01:07Z</time>
      </trkpt>
      <trkpt lat="43.58646" lon="6.41181">
        <ele>623</ele>
        <time>2026-02-22T12:01:08Z</time>
      </trkpt>
      <trkpt lat="43.58646" lon="6.41181">
        <ele>623</ele>
        <time>2026-02-22T12:01:09Z</time>
      </trkpt>
      <trkpt lat="43.58646" lon="6.41181">
        <ele>622.9</ele>
        <time>2026-02-22T12:01:10Z</time>
      </trkpt>
      <trkpt lat="43.58646" lon="6.41181">
        <ele>623</ele>
        <time>2026-02-22T12:01:11Z</time>
      </trkpt>
      <trkpt lat="43.58646" lon="6.41181">
        <ele>623</ele>
        <time>2026-02-22T12:01:12Z</time>
      </trkpt>
      <trkpt lat="43.58646" lon="6.41181">
        <ele>623</ele>
        <time>2026-02-22T12:01:13Z</time>
      </trkpt>
      <trkpt lat="43.58646" lon="6.41181">
        <ele>622.9</ele>
        <time>2026-02-22T12:01:14Z</time>
      </trkpt>
      <trkpt lat="43.58646" lon="6.41181">
        <ele>623</ele>
        <time>2026-02-22T12:01:15Z</time>
      </trkpt>
      <trkpt lat="43.58646" lon="6.41181">
        <ele>623.1</ele>
        <time>2026-02-22T12:01:16Z</time>
      </trkpt>
      <trkpt lat="43.58646" lon="6.41181">
        <ele>623.1</ele>
        <time>2026-02-22T12:01:17Z</time>
      </trkpt>
      <trkpt lat="43.58647" lon="6.41181">
        <ele>623.1</ele>
        <time>2026-02-22T12:01:18Z</time>
      </trkpt>
      <trkpt lat="43.58647" lon="6.41181">
        <ele>623.2</ele>
        <time>2026-02-22T12:01:19Z</time>
      </trkpt>
      <trkpt lat="43.58646" lon="6.41181">
        <ele>623.1</ele>
        <time>2026-02-22T12:01:20Z</time>
      </trkpt>
      <trkpt lat="43.58646" lon="6.41181">
        <ele>623.1</ele>
        <time>2026-02-22T12:01:21Z</time>
      </trkpt>
      <trkpt lat="43.58647" lon="6.41181">
        <ele>623.1</ele>
        <time>2026-02-22T12:01:22Z</time>
      </trkpt>
      <trkpt lat="43.58647" lon="6.41181">
        <ele>623</ele>
        <time>2026-02-22T12:01:23Z</time>
      </trkpt>
      <trkpt lat="43.58647" lon="6.41182">
        <ele>623</ele>
        <time>2026-02-22T12:01:24Z</time>
      </trkpt>
      <trkpt lat="43.58647" lon="6.41182">
        <ele>623</ele>
        <time>2026-02-22T12:01:25Z</time>
      </trkpt>
      <trkpt lat="43.58647" lon="6.41182">
        <ele>623</ele>
        <time>2026-02-22T12:01:26Z</time>
      </trkpt>
      <trkpt lat="43.58647" lon="6.41182">
        <ele>622.9</ele>
        <time>2026-02-22T12:01:27Z</time>
      </trkpt>
      <trkpt lat="43.58647" lon="6.41182">
        <ele>622.9</ele>
        <time>2026-02-22T12:01:28Z</time>
      </trkpt>
      <trkpt lat="43.58647" lon="6.41182">
        <ele>622.9</ele>
        <time>2026-02-22T12:01:29Z</time>
      </trkpt>
      <trkpt lat="43.58647" lon="6.41182">
        <ele>622.8</ele>
        <time>2026-02-22T12:01:30Z</time>
      </trkpt>
      <trkpt lat="43.58647" lon="6.41182">
        <ele>622.7</ele>
        <time>2026-02-22T12:01:31Z</time>
      </trkpt>
      <trkpt lat="43.58647" lon="6.41182">
        <ele>622.7</ele>
        <time>2026-02-22T12:01:32Z</time>
      </trkpt>
      <trkpt lat="43.58647" lon="6.41182">
        <ele>622.7</ele>
        <time>2026-02-22T12:01:33Z</time>
      </trkpt>
      <trkpt lat="43.58647" lon="6.41182">
        <ele>622.7</ele>
        <time>2026-02-22T12:01:34Z</time>
      </trkpt>
      <trkpt lat="43.58647" lon="6.41182">
        <ele>622.5</ele>
        <time>2026-02-22T12:01:35Z</time>
      </trkpt>
      <trkpt lat="43.58647" lon="6.41182">
        <ele>622.4</ele>
        <time>2026-02-22T12:01:36Z</time>
      </trkpt>
      <trkpt lat="43.58647" lon="6.41182">
        <ele>622.4</ele>
        <time>2026-02-22T12:01:37Z</time>
      </trkpt>
      <trkpt lat="43.58647" lon="6.41182">
        <ele>622.4</ele>
        <time>2026-02-22T12:01:38Z</time>
      </trkpt>
      <trkpt lat="43.58647" lon="6.41182">
        <ele>622.4</ele>
        <time>2026-02-22T12:01:39Z</time>
      </trkpt>
      <trkpt lat="43.58648" lon="6.41182">
        <ele>622.4</ele>
        <time>2026-02-22T12:01:40Z</time>
      </trkpt>
      <trkpt lat="43.58648" lon="6.41182">
        <ele>622.4</ele>
        <time>2026-02-22T12:01:41Z</time>
      </trkpt>
      <trkpt lat="43.58648" lon="6.41182">
        <ele>622.4</ele>
        <time>2026-02-22T12:01:42Z</time>
      </trkpt>
      <trkpt lat="43.58648" lon="6.41182">
        <ele>622.4</ele>
        <time>2026-02-22T12:01:43Z</time>
      </trkpt>
      <trkpt lat="43.58648" lon="6.41182">
        <ele>622.5</ele>
        <time>2026-02-22T12:01:44Z</time>
      </trkpt>
      <trkpt lat="43.58648" lon="6.41182">
        <ele>622.5</ele>
        <time>2026-02-22T12:01:45Z</time>
      </trkpt>
      <trkpt lat="43.58648" lon="6.41182">
        <ele>622.5</ele>
        <time>2026-02-22T12:01:46Z</time>
      </trkpt>
      <trkpt lat="43.58648" lon="6.41182">
        <ele>622.6</ele>
        <time>2026-02-22T12:01:47Z</time>
      </trkpt>
      <trkpt lat="43.58648" lon="6.41182">
        <ele>622.7</ele>
        <time>2026-02-22T12:01:48Z</time>
      </trkpt>
      <trkpt lat="43.58648" lon="6.41182">
        <ele>622.7</ele>
        <time>2026-02-22T12:01:49Z</time>
      </trkpt>
      <trkpt lat="43.58648" lon="6.41182">
        <ele>622.7</ele>
        <time>2026-02-22T12:01:50Z</time>
      </trkpt>
      <trkpt lat="43.58648" lon="6.41182">
        <ele>622.7</ele>
        <time>2026-02-22T12:01:51Z</time>
      </trkpt>
      <trkpt lat="43.58648" lon="6.41182">
        <ele>622.6</ele>
        <time>2026-02-22T12:01:52Z</time>
      </trkpt>
      <trkpt lat="43.58648" lon="6.41182">
        <ele>622.6</ele>
        <time>2026-02-22T12:01:53Z</time>
      </trkpt>
      <trkpt lat="43.58648" lon="6.41182">
        <ele>622.5</ele>
        <time>2026-02-22T12:01:54Z</time>
      </trkpt>
      <trkpt lat="43.58648" lon="6.41182">
        <ele>622.5</ele>
        <time>2026-02-22T12:01:55Z</time>
      </trkpt>
      <trkpt lat="43.58648" lon="6.41182">
        <ele>622.4</ele>
        <time>2026-02-22T12:01:56Z</time>
      </trkpt>
      <trkpt lat="43.58648" lon="6.41182">
        <ele>622.5</ele>
        <time>2026-02-22T12:01:57Z</time>
      </trkpt>
      <trkpt lat="43.58648" lon="6.41182">
        <ele>622.5</ele>
        <time>2026-02-22T12:01:58Z</time>
      </trkpt>
      <trkpt lat="43.58648" lon="6.41182">
        <ele>622.6</ele>
        <time>2026-02-22T12:01:59Z</time>
      </trkpt>
      <trkpt lat="43.58648" lon="6.41182">
        <ele>622.6</ele>
        <time>2026-02-22T12:02:00Z</time>
      </trkpt>
      <trkpt lat="43.58648" lon="6.41182">
        <ele>622.6</ele>
        <time>2026-02-22T12:02:01Z</time>
      </trkpt>
      <trkpt lat="43.58648" lon="6.41182">
        <ele>622.6</ele>
        <time>2026-02-22T12:02:02Z</time>
      </trkpt>
      <trkpt lat="43.58648" lon="6.41182">
        <ele>622.6</ele>
        <time>2026-02-22T12:02:03Z</time>
      </trkpt>
      <trkpt lat="43.58648" lon="6.41182">
        <ele>622.5</ele>
        <time>2026-02-22T12:02:04Z</time>
      </trkpt>
      <trkpt lat="43.58648" lon="6.41182">
        <ele>622.5</ele>
        <time>2026-02-22T12:02:05Z</time>
      </trkpt>
      <trkpt lat="43.58648" lon="6.41182">
        <ele>622.5</ele>
        <time>2026-02-22T12:02:06Z</time>
      </trkpt>
      <trkpt lat="43.58648" lon="6.41182">
        <ele>622.5</ele>
        <time>2026-02-22T12:02:07Z</time>
      </trkpt>
      <trkpt lat="43.58648" lon="6.41182">
        <ele>622.5</ele>
        <time>2026-02-22T12:02:08Z</time>
      </trkpt>
      <trkpt lat="43.58648" lon="6.41182">
        <ele>622.5</ele>
        <time>2026-02-22T12:02:09Z</time>
      </trkpt>
      <trkpt lat="43.58648" lon="6.41182">
        <ele>622.4</ele>
        <time>2026-02-22T12:02:10Z</time>
      </trkpt>
      <trkpt lat="43.58647" lon="6.41182">
        <ele>622.4</ele>
        <time>2026-02-22T12:02:11Z</time>
      </trkpt>
      <trkpt lat="43.58647" lon="6.41182">
        <ele>622.3</ele>
        <time>2026-02-22T12:02:12Z</time>
      </trkpt>
      <trkpt lat="43.58647" lon="6.41182">
        <ele>622.3</ele>
        <time>2026-02-22T12:02:13Z</time>
      </trkpt>
      <trkpt lat="43.58647" lon="6.41182">
        <ele>622.2</ele>
        <time>2026-02-22T12:02:14Z</time>
      </trkpt>
      <trkpt lat="43.58647" lon="6.41182">
        <ele>622.3</ele>
        <time>2026-02-22T12:02:15Z</time>
      </trkpt>
      <trkpt lat="43.58647" lon="6.41182">
        <ele>622.2</ele>
        <time>2026-02-22T12:02:16Z</time>
      </trkpt>
      <trkpt lat="43.58647" lon="6.41182">
        <ele>622.1</ele>
        <time>2026-02-22T12:02:17Z</time>
      </trkpt>
      <trkpt lat="43.58647" lon="6.41182">
        <ele>622.1</ele>
        <time>2026-02-22T12:02:18Z</time>
      </trkpt>
      <trkpt lat="43.58647" lon="6.41182">
        <ele>622</ele>
        <time>2026-02-22T12:02:19Z</time>
      </trkpt>
      <trkpt lat="43.58647" lon="6.41182">
        <ele>622</ele>
        <time>2026-02-22T12:02:20Z</time>
      </trkpt>
      <trkpt lat="43.58647" lon="6.41182">
        <ele>621.9</ele>
        <time>2026-02-22T12:02:21Z</time>
      </trkpt>
      <trkpt lat="43.58647" lon="6.41182">
        <ele>621.9</ele>
        <time>2026-02-22T12:02:22Z</time>
      </trkpt>
      <trkpt lat="43.58647" lon="6.41181">
        <ele>621.9</ele>
        <time>2026-02-22T12:02:23Z</time>
      </trkpt>
      <trkpt lat="43.58647" lon="6.41182">
        <ele>621.9</ele>
        <time>2026-02-22T12:02:24Z</time>
      </trkpt>
      <trkpt lat="43.58647" lon="6.41181">
        <ele>622</ele>
        <time>2026-02-22T12:02:25Z</time>
      </trkpt>
      <trkpt lat="43.58647" lon="6.41181">
        <ele>622.1</ele>
        <time>2026-02-22T12:02:26Z</time>
      </trkpt>
      <trkpt lat="43.58647" lon="6.41181">
        <ele>622.1</ele>
        <time>2026-02-22T12:02:27Z</time>
      </trkpt>
      <trkpt lat="43.58646" lon="6.41182">
        <ele>622.1</ele>
        <time>2026-02-22T12:02:28Z</time>
      </trkpt>
      <trkpt lat="43.58646" lon="6.41182">
        <ele>622</ele>
        <time>2026-02-22T12:02:29Z</time>
      </trkpt>
      <trkpt lat="43.58646" lon="6.41182">
        <ele>622</ele>
        <time>2026-02-22T12:02:30Z</time>
      </trkpt>
      <trkpt lat="43.58646" lon="6.41182">
        <ele>621.9</ele>
        <time>2026-02-22T12:02:31Z</time>
      </trkpt>
      <trkpt lat="43.58646" lon="6.41182">
        <ele>621.8</ele>
        <time>2026-02-22T12:02:32Z</time>
      </trkpt>
      <trkpt lat="43.58646" lon="6.41181">
        <ele>621.8</ele>
        <time>2026-02-22T12:02:33Z</time>
      </trkpt>
      <trkpt lat="43.58646" lon="6.41181">
        <ele>621.8</ele>
        <time>2026-02-22T12:02:34Z</time>
      </trkpt>
      <trkpt lat="43.58646" lon="6.41181">
        <ele>621.8</ele>
        <time>2026-02-22T12:02:35Z</time>
      </trkpt>
      <trkpt lat="43.58646" lon="6.41181">
        <ele>621.8</ele>
        <time>2026-02-22T12:02:36Z</time>
      </trkpt>
      <trkpt lat="43.58646" lon="6.41181">
        <ele>621.8</ele>
        <time>2026-02-22T12:02:37Z</time>
      </trkpt>
      <trkpt lat="43.58646" lon="6.41181">
        <ele>621.8</ele>
        <time>2026-02-22T12:02:38Z</time>
      </trkpt>
      <trkpt lat="43.58646" lon="6.41181">
        <ele>621.8</ele>
        <time>2026-02-22T12:02:39Z</time>
      </trkpt>
      <trkpt lat="43.58646" lon="6.41181">
        <ele>621.8</ele>
        <time>2026-02-22T12:02:40Z</time>
      </trkpt>
      <trkpt lat="43.58646" lon="6.41181">
        <ele>621.8</ele>
        <time>2026-02-22T12:02:41Z</time>
      </trkpt>
      <trkpt lat="43.58647" lon="6.41181">
        <ele>621.9</ele>
        <time>2026-02-22T12:02:42Z</time>
      </trkpt>
      <trkpt lat="43.58647" lon="6.41181">
        <ele>621.9</ele>
        <time>2026-02-22T12:02:43Z</time>
      </trkpt>
      <trkpt lat="43.58647" lon="6.41181">
        <ele>621.9</ele>
        <time>2026-02-22T12:02:44Z</time>
      </trkpt>
      <trkpt lat="43.58647" lon="6.41181">
        <ele>621.9</ele>
        <time>2026-02-22T12:02:45Z</time>
      </trkpt>
      <trkpt lat="43.58647" lon="6.41181">
        <ele>621.9</ele>
        <time>2026-02-22T12:02:46Z</time>
      </trkpt>
      <trkpt lat="43.58647" lon="6.41181">
        <ele>621.9</ele>
        <time>2026-02-22T12:02:47Z</time>
      </trkpt>
      <trkpt lat="43.58647" lon="6.41181">
        <ele>622</ele>
        <time>2026-02-22T12:02:48Z</time>
      </trkpt>
      <trkpt lat="43.58647" lon="6.41181">
        <ele>622.1</ele>
        <time>2026-02-22T12:02:49Z</time>
      </trkpt>
      <trkpt lat="43.58647" lon="6.41181">
        <ele>622.2</ele>
        <time>2026-02-22T12:02:50Z</time>
      </trkpt>
      <trkpt lat="43.58647" lon="6.41181">
        <ele>622.2</ele>
        <time>2026-02-22T12:02:51Z</time>
      </trkpt>
      <trkpt lat="43.58647" lon="6.41181">
        <ele>622.2</ele>
        <time>2026-02-22T12:02:52Z</time>
      </trkpt>
      <trkpt lat="43.58647" lon="6.41181">
        <ele>622.1</ele>
        <time>2026-02-22T12:02:53Z</time>
      </trkpt>
      <trkpt lat="43.58647" lon="6.41182">
        <ele>622</ele>
        <time>2026-02-22T12:02:54Z</time>
      </trkpt>
      <trkpt lat="43.58647" lon="6.41182">
        <ele>622.1</ele>
        <time>2026-02-22T12:02:55Z</time>
      </trkpt>
      <trkpt lat="43.58648" lon="6.41182">
        <ele>622.1</ele>
        <time>2026-02-22T12:02:56Z</time>
      </trkpt>
      <trkpt lat="43.58648" lon="6.41182">
        <ele>622.1</ele>
        <time>2026-02-22T12:02:57Z</time>
      </trkpt>
      <trkpt lat="43.58648" lon="6.41182">
        <ele>622.1</ele>
        <time>2026-02-22T12:02:58Z</time>
      </trkpt>
      <trkpt lat="43.58648" lon="6.41182">
        <ele>622.1</ele>
        <time>2026-02-22T12:02:59Z</time>
      </trkpt>
      <trkpt lat="43.58648" lon="6.41182">
        <ele>622.1</ele>
        <time>2026-02-22T12:03:00Z</time>
      </trkpt>
      <trkpt lat="43.58648" lon="6.41182">
        <ele>622</ele>
        <time>2026-02-22T12:03:01Z</time>
      </trkpt>
      <trkpt lat="43.58648" lon="6.41182">
        <ele>622</ele>
        <time>2026-02-22T12:03:02Z</time>
      </trkpt>
      <trkpt lat="43.58648" lon="6.41182">
        <ele>622</ele>
        <time>2026-02-22T12:03:03Z</time>
      </trkpt>
      <trkpt lat="43.58648" lon="6.41182">
        <ele>622.1</ele>
        <time>2026-02-22T12:03:04Z</time>
      </trkpt>
      <trkpt lat="43.58648" lon="6.41182">
        <ele>622</ele>
        <time>2026-02-22T12:03:05Z</time>
      </trkpt>
      <trkpt lat="43.58648" lon="6.41182">
        <ele>622</ele>
        <time>2026-02-22T12:03:06Z</time>
      </trkpt>
      <trkpt lat="43.58648" lon="6.41182">
        <ele>622.1</ele>
        <time>2026-02-22T12:03:07Z</time>
      </trkpt>
      <trkpt lat="43.58648" lon="6.41182">
        <ele>622.1</ele>
        <time>2026-02-22T12:03:08Z</time>
      </trkpt>
      <trkpt lat="43.58648" lon="6.41182">
        <ele>622.1</ele>
        <time>2026-02-22T12:03:09Z</time>
      </trkpt>
      <trkpt lat="43.58648" lon="6.41182">
        <ele>622</ele>
        <time>2026-02-22T12:03:10Z</time>
      </trkpt>
      <trkpt lat="43.58648" lon="6.41182">
        <ele>622</ele>
        <time>2026-02-22T12:03:11Z</time>
      </trkpt>
      <trkpt lat="43.58648" lon="6.41182">
        <ele>622</ele>
        <time>2026-02-22T12:03:12Z</time>
      </trkpt>
      <trkpt lat="43.58648" lon="6.41182">
        <ele>622</ele>
        <time>2026-02-22T12:03:13Z</time>
      </trkpt>
      <trkpt lat="43.58648" lon="6.41182">
        <ele>622</ele>
        <time>2026-02-22T12:03:14Z</time>
      </trkpt>
      <trkpt lat="43.58648" lon="6.41182">
        <ele>621.9</ele>
        <time>2026-02-22T12:03:15Z</time>
      </trkpt>
      <trkpt lat="43.58648" lon="6.41182">
        <ele>622</ele>
        <time>2026-02-22T12:03:16Z</time>
      </trkpt>
      <trkpt lat="43.58648" lon="6.41182">
        <ele>622</ele>
        <time>2026-02-22T12:03:17Z</time>
      </trkpt>
      <trkpt lat="43.58648" lon="6.41182">
        <ele>621.9</ele>
        <time>2026-02-22T12:03:18Z</time>
      </trkpt>
      <trkpt lat="43.58648" lon="6.41182">
        <ele>621.9</ele>
        <time>2026-02-22T12:03:19Z</time>
      </trkpt>
      <trkpt lat="43.58648" lon="6.41182">
        <ele>621.9</ele>
        <time>2026-02-22T12:03:20Z</time>
      </trkpt>
      <trkpt lat="43.58648" lon="6.41182">
        <ele>621.9</ele>
        <time>2026-02-22T12:03:21Z</time>
      </trkpt>
      <trkpt lat="43.58648" lon="6.41182">
        <ele>621.8</ele>
        <time>2026-02-22T12:03:22Z</time>
      </trkpt>
      <trkpt lat="43.58648" lon="6.41182">
        <ele>621.8</ele>
        <time>2026-02-22T12:03:23Z</time>
      </trkpt>
      <trkpt lat="43.58648" lon="6.41182">
        <ele>621.9</ele>
        <time>2026-02-22T12:03:24Z</time>
      </trkpt>
      <trkpt lat="43.58648" lon="6.41182">
        <ele>621.8</ele>
        <time>2026-02-22T12:03:25Z</time>
      </trkpt>
      <trkpt lat="43.58648" lon="6.41182">
        <ele>621.8</ele>
        <time>2026-02-22T12:03:26Z</time>
      </trkpt>
      <trkpt lat="43.58648" lon="6.41182">
        <ele>621.7</ele>
        <time>2026-02-22T12:03:27Z</time>
      </trkpt>
      <trkpt lat="43.58648" lon="6.41182">
        <ele>621.7</ele>
        <time>2026-02-22T12:03:28Z</time>
      </trkpt>
      <trkpt lat="43.58648" lon="6.41182">
        <ele>621.7</ele>
        <time>2026-02-22T12:03:29Z</time>
      </trkpt>
      <trkpt lat="43.58648" lon="6.41182">
        <ele>621.7</ele>
        <time>2026-02-22T12:03:30Z</time>
      </trkpt>
      <trkpt lat="43.58648" lon="6.41182">
        <ele>621.7</ele>
        <time>2026-02-22T12:03:31Z</time>
      </trkpt>
      <trkpt lat="43.58648" lon="6.41182">
        <ele>621.7</ele>
        <time>2026-02-22T12:03:32Z</time>
      </trkpt>
      <trkpt lat="43.58648" lon="6.41182">
        <ele>621.7</ele>
        <time>2026-02-22T12:03:33Z</time>
      </trkpt>
      <trkpt lat="43.58648" lon="6.41182">
        <ele>621.6</ele>
        <time>2026-02-22T12:03:34Z</time>
      </trkpt>
      <trkpt lat="43.58649" lon="6.41182">
        <ele>621.7</ele>
        <time>2026-02-22T12:03:35Z</time>
      </trkpt>
      <trkpt lat="43.58649" lon="6.41182">
        <ele>621.7</ele>
        <time>2026-02-22T12:03:36Z</time>
      </trkpt>
      <trkpt lat="43.58649" lon="6.41182">
        <ele>621.7</ele>
        <time>2026-02-22T12:03:37Z</time>
      </trkpt>
      <trkpt lat="43.58649" lon="6.41182">
        <ele>621.6</ele>
        <time>2026-02-22T12:03:38Z</time>
      </trkpt>
      <trkpt lat="43.58649" lon="6.41182">
        <ele>621.6</ele>
        <time>2026-02-22T12:03:39Z</time>
      </trkpt>
      <trkpt lat="43.58649" lon="6.41182">
        <ele>621.6</ele>
        <time>2026-02-22T12:03:40Z</time>
      </trkpt>
      <trkpt lat="43.58649" lon="6.41182">
        <ele>621.6</ele>
        <time>2026-02-22T12:03:41Z</time>
      </trkpt>
      <trkpt lat="43.58649" lon="6.41182">
        <ele>621.5</ele>
        <time>2026-02-22T12:03:42Z</time>
      </trkpt>
      <trkpt lat="43.58649" lon="6.41182">
        <ele>621.5</ele>
        <time>2026-02-22T12:03:43Z</time>
      </trkpt>
      <trkpt lat="43.58649" lon="6.41182">
        <ele>621.5</ele>
        <time>2026-02-22T12:03:44Z</time>
      </trkpt>
      <trkpt lat="43.58649" lon="6.41182">
        <ele>621.5</ele>
        <time>2026-02-22T12:03:45Z</time>
      </trkpt>
      <trkpt lat="43.58649" lon="6.41182">
        <ele>621.5</ele>
        <time>2026-02-22T12:03:46Z</time>
      </trkpt>
      <trkpt lat="43.58649" lon="6.41182">
        <ele>621.5</ele>
        <time>2026-02-22T12:03:47Z</time>
      </trkpt>
      <trkpt lat="43.58649" lon="6.41182">
        <ele>621.5</ele>
        <time>2026-02-22T12:03:48Z</time>
      </trkpt>
      <trkpt lat="43.58649" lon="6.41182">
        <ele>621.5</ele>
        <time>2026-02-22T12:03:49Z</time>
      </trkpt>
      <trkpt lat="43.58649" lon="6.41182">
        <ele>621.5</ele>
        <time>2026-02-22T12:03:50Z</time>
      </trkpt>
      <trkpt lat="43.58649" lon="6.41182">
        <ele>621.4</ele>
        <time>2026-02-22T12:03:51Z</time>
      </trkpt>
      <trkpt lat="43.58649" lon="6.41182">
        <ele>621.4</ele>
        <time>2026-02-22T12:03:52Z</time>
      </trkpt>
      <trkpt lat="43.58649" lon="6.41182">
        <ele>621.3</ele>
        <time>2026-02-22T12:03:53Z</time>
      </trkpt>
      <trkpt lat="43.58649" lon="6.41182">
        <ele>621.3</ele>
        <time>2026-02-22T12:03:54Z</time>
      </trkpt>
      <trkpt lat="43.58649" lon="6.41182">
        <ele>621.2</ele>
        <time>2026-02-22T12:03:55Z</time>
      </trkpt>
      <trkpt lat="43.58649" lon="6.41182">
        <ele>621.2</ele>
        <time>2026-02-22T12:03:56Z</time>
      </trkpt>
      <trkpt lat="43.58649" lon="6.41182">
        <ele>621.2</ele>
        <time>2026-02-22T12:03:57Z</time>
      </trkpt>
      <trkpt lat="43.58649" lon="6.41182">
        <ele>621.2</ele>
        <time>2026-02-22T12:03:58Z</time>
      </trkpt>
      <trkpt lat="43.58649" lon="6.41182">
        <ele>621.2</ele>
        <time>2026-02-22T12:03:59Z</time>
      </trkpt>
      <trkpt lat="43.58649" lon="6.41182">
        <ele>621.3</ele>
        <time>2026-02-22T12:04:00Z</time>
      </trkpt>
      <trkpt lat="43.58649" lon="6.41182">
        <ele>621.4</ele>
        <time>2026-02-22T12:04:01Z</time>
      </trkpt>
      <trkpt lat="43.58649" lon="6.41182">
        <ele>621.4</ele>
        <time>2026-02-22T12:04:02Z</time>
      </trkpt>
      <trkpt lat="43.58649" lon="6.41182">
        <ele>621.5</ele>
        <time>2026-02-22T12:04:03Z</time>
      </trkpt>
      <trkpt lat="43.58649" lon="6.41182">
        <ele>621.6</ele>
        <time>2026-02-22T12:04:04Z</time>
      </trkpt>
      <trkpt lat="43.58649" lon="6.41182">
        <ele>621.6</ele>
        <time>2026-02-22T12:04:05Z</time>
      </trkpt>
      <trkpt lat="43.58649" lon="6.41182">
        <ele>621.6</ele>
        <time>2026-02-22T12:04:06Z</time>
      </trkpt>
      <trkpt lat="43.58649" lon="6.41182">
        <ele>621.5</ele>
        <time>2026-02-22T12:04:07Z</time>
      </trkpt>
      <trkpt lat="43.58649" lon="6.41182">
        <ele>621.5</ele>
        <time>2026-02-22T12:04:08Z</time>
      </trkpt>
      <trkpt lat="43.58649" lon="6.41182">
        <ele>621.4</ele>
        <time>2026-02-22T12:04:09Z</time>
      </trkpt>
      <trkpt lat="43.58649" lon="6.41182">
        <ele>621.4</ele>
        <time>2026-02-22T12:04:10Z</time>
      </trkpt>
      <trkpt lat="43.58649" lon="6.41182">
        <ele>621.4</ele>
        <time>2026-02-22T12:04:11Z</time>
      </trkpt>
      <trkpt lat="43.58649" lon="6.41182">
        <ele>621.3</ele>
        <time>2026-02-22T12:04:12Z</time>
      </trkpt>
      <trkpt lat="43.58649" lon="6.41182">
        <ele>621.3</ele>
        <time>2026-02-22T12:04:13Z</time>
      </trkpt>
      <trkpt lat="43.58649" lon="6.41182">
        <ele>621.3</ele>
        <time>2026-02-22T12:04:14Z</time>
      </trkpt>
      <trkpt lat="43.58649" lon="6.41182">
        <ele>621.3</ele>
        <time>2026-02-22T12:04:15Z</time>
      </trkpt>
      <trkpt lat="43.58649" lon="6.41182">
        <ele>621.3</ele>
        <time>2026-02-22T12:04:16Z</time>
      </trkpt>
      <trkpt lat="43.58649" lon="6.41182">
        <ele>621.3</ele>
        <time>2026-02-22T12:04:17Z</time>
      </trkpt>
      <trkpt lat="43.58649" lon="6.41182">
        <ele>621.3</ele>
        <time>2026-02-22T12:04:18Z</time>
      </trkpt>
      <trkpt lat="43.58649" lon="6.41181">
        <ele>621.3</ele>
        <time>2026-02-22T12:04:19Z</time>
      </trkpt>
      <trkpt lat="43.58649" lon="6.41181">
        <ele>621.4</ele>
        <time>2026-02-22T12:04:20Z</time>
      </trkpt>
      <trkpt lat="43.58649" lon="6.41182">
        <ele>621.3</ele>
        <time>2026-02-22T12:04:21Z</time>
      </trkpt>
      <trkpt lat="43.58649" lon="6.41182">
        <ele>621.3</ele>
        <time>2026-02-22T12:04:22Z</time>
      </trkpt>
      <trkpt lat="43.58649" lon="6.41182">
        <ele>621.3</ele>
        <time>2026-02-22T12:04:23Z</time>
      </trkpt>
      <trkpt lat="43.58649" lon="6.41182">
        <ele>621.3</ele>
        <time>2026-02-22T12:04:24Z</time>
      </trkpt>
      <trkpt lat="43.58649" lon="6.41182">
        <ele>621.3</ele>
        <time>2026-02-22T12:04:25Z</time>
      </trkpt>
      <trkpt lat="43.58649" lon="6.41182">
        <ele>621.3</ele>
        <time>2026-02-22T12:04:26Z</time>
      </trkpt>
      <trkpt lat="43.58649" lon="6.41182">
        <ele>621.3</ele>
        <time>2026-02-22T12:04:27Z</time>
      </trkpt>
      <trkpt lat="43.58649" lon="6.41182">
        <ele>621.3</ele>
        <time>2026-02-22T12:04:28Z</time>
      </trkpt>
      <trkpt lat="43.58649" lon="6.41182">
        <ele>621.2</ele>
        <time>2026-02-22T12:04:29Z</time>
      </trkpt>
      <trkpt lat="43.58649" lon="6.41182">
        <ele>621.2</ele>
        <time>2026-02-22T12:04:30Z</time>
      </trkpt>
      <trkpt lat="43.58649" lon="6.41182">
        <ele>621.2</ele>
        <time>2026-02-22T12:04:31Z</time>
      </trkpt>
      <trkpt lat="43.58649" lon="6.41181">
        <ele>621.1</ele>
        <time>2026-02-22T12:04:32Z</time>
      </trkpt>
      <trkpt lat="43.58649" lon="6.41182">
        <ele>621.1</ele>
        <time>2026-02-22T12:04:33Z</time>
      </trkpt>
      <trkpt lat="43.58649" lon="6.41182">
        <ele>621.1</ele>
        <time>2026-02-22T12:04:34Z</time>
      </trkpt>
      <trkpt lat="43.58648" lon="6.41182">
        <ele>621.1</ele>
        <time>2026-02-22T12:04:35Z</time>
      </trkpt>
      <trkpt lat="43.58648" lon="6.41182">
        <ele>621</ele>
        <time>2026-02-22T12:04:36Z</time>
      </trkpt>
      <trkpt lat="43.58648" lon="6.41181">
        <ele>621</ele>
        <time>2026-02-22T12:04:37Z</time>
      </trkpt>
      <trkpt lat="43.58648" lon="6.41181">
        <ele>621</ele>
        <time>2026-02-22T12:04:38Z</time>
      </trkpt>
      <trkpt lat="43.58648" lon="6.41181">
        <ele>621</ele>
        <time>2026-02-22T12:04:39Z</time>
      </trkpt>
      <trkpt lat="43.58648" lon="6.41181">
        <ele>620.9</ele>
        <time>2026-02-22T12:04:40Z</time>
      </trkpt>
      <trkpt lat="43.58648" lon="6.41181">
        <ele>620.9</ele>
        <time>2026-02-22T12:04:41Z</time>
      </trkpt>
      <trkpt lat="43.58648" lon="6.41181">
        <ele>620.9</ele>
        <time>2026-02-22T12:04:42Z</time>
      </trkpt>
      <trkpt lat="43.58648" lon="6.41181">
        <ele>620.9</ele>
        <time>2026-02-22T12:04:43Z</time>
      </trkpt>
      <trkpt lat="43.58648" lon="6.41181">
        <ele>620.9</ele>
        <time>2026-02-22T12:04:44Z</time>
      </trkpt>
      <trkpt lat="43.58648" lon="6.41181">
        <ele>620.8</ele>
        <time>2026-02-22T12:04:45Z</time>
      </trkpt>
      <trkpt lat="43.58648" lon="6.41181">
        <ele>620.8</ele>
        <time>2026-02-22T12:04:46Z</time>
      </trkpt>
      <trkpt lat="43.58648" lon="6.41181">
        <ele>620.8</ele>
        <time>2026-02-22T12:04:47Z</time>
      </trkpt>
      <trkpt lat="43.58648" lon="6.41181">
        <ele>620.8</ele>
        <time>2026-02-22T12:04:48Z</time>
      </trkpt>
      <trkpt lat="43.58648" lon="6.41181">
        <ele>620.9</ele>
        <time>2026-02-22T12:04:49Z</time>
      </trkpt>
      <trkpt lat="43.58648" lon="6.41181">
        <ele>620.9</ele>
        <time>2026-02-22T12:04:50Z</time>
      </trkpt>
      <trkpt lat="43.58648" lon="6.41181">
        <ele>620.9</ele>
        <time>2026-02-22T12:04:51Z</time>
      </trkpt>
      <trkpt lat="43.58648" lon="6.41181">
        <ele>621</ele>
        <time>2026-02-22T12:04:52Z</time>
      </trkpt>
      <trkpt lat="43.58648" lon="6.41181">
        <ele>620.9</ele>
        <time>2026-02-22T12:04:53Z</time>
      </trkpt>
      <trkpt lat="43.58649" lon="6.41181">
        <ele>620.9</ele>
        <time>2026-02-22T12:04:54Z</time>
      </trkpt>
      <trkpt lat="43.58649" lon="6.41181">
        <ele>620.9</ele>
        <time>2026-02-22T12:04:55Z</time>
      </trkpt>
      <trkpt lat="43.58649" lon="6.41181">
        <ele>620.9</ele>
        <time>2026-02-22T12:04:56Z</time>
      </trkpt>
      <trkpt lat="43.58649" lon="6.41181">
        <ele>620.9</ele>
        <time>2026-02-22T12:04:57Z</time>
      </trkpt>
      <trkpt lat="43.58649" lon="6.41181">
        <ele>621</ele>
        <time>2026-02-22T12:04:58Z</time>
      </trkpt>
      <trkpt lat="43.58649" lon="6.41181">
        <ele>621</ele>
        <time>2026-02-22T12:04:59Z</time>
      </trkpt>
      <trkpt lat="43.58649" lon="6.41181">
        <ele>621</ele>
        <time>2026-02-22T12:05:00Z</time>
      </trkpt>
      <trkpt lat="43.58649" lon="6.41181">
        <ele>621</ele>
        <time>2026-02-22T12:05:01Z</time>
      </trkpt>
      <trkpt lat="43.58649" lon="6.41181">
        <ele>621</ele>
        <time>2026-02-22T12:05:02Z</time>
      </trkpt>
      <trkpt lat="43.58649" lon="6.41181">
        <ele>620.9</ele>
        <time>2026-02-22T12:05:03Z</time>
      </trkpt>
      <trkpt lat="43.58649" lon="6.41181">
        <ele>620.9</ele>
        <time>2026-02-22T12:05:04Z</time>
      </trkpt>
      <trkpt lat="43.58649" lon="6.41181">
        <ele>620.8</ele>
        <time>2026-02-22T12:05:05Z</time>
      </trkpt>
      <trkpt lat="43.58649" lon="6.41181">
        <ele>620.9</ele>
        <time>2026-02-22T12:05:06Z</time>
      </trkpt>
      <trkpt lat="43.58649" lon="6.41181">
        <ele>620.9</ele>
        <time>2026-02-22T12:05:07Z</time>
      </trkpt>
      <trkpt lat="43.58649" lon="6.41181">
        <ele>620.9</ele>
        <time>2026-02-22T12:05:08Z</time>
      </trkpt>
      <trkpt lat="43.58649" lon="6.41181">
        <ele>620.9</ele>
        <time>2026-02-22T12:05:09Z</time>
      </trkpt>
      <trkpt lat="43.58649" lon="6.41181">
        <ele>621</ele>
        <time>2026-02-22T12:05:10Z</time>
      </trkpt>
      <trkpt lat="43.58649" lon="6.41181">
        <ele>620.9</ele>
        <time>2026-02-22T12:05:11Z</time>
      </trkpt>
      <trkpt lat="43.58649" lon="6.41181">
        <ele>620.9</ele>
        <time>2026-02-22T12:05:12Z</time>
      </trkpt>
      <trkpt lat="43.58649" lon="6.41181">
        <ele>620.9</ele>
        <time>2026-02-22T12:05:13Z</time>
      </trkpt>
      <trkpt lat="43.58649" lon="6.41181">
        <ele>620.9</ele>
        <time>2026-02-22T12:05:14Z</time>
      </trkpt>
      <trkpt lat="43.58649" lon="6.41181">
        <ele>620.9</ele>
        <time>2026-02-22T12:05:15Z</time>
      </trkpt>
      <trkpt lat="43.58649" lon="6.41181">
        <ele>620.9</ele>
        <time>2026-02-22T12:05:16Z</time>
      </trkpt>
      <trkpt lat="43.58649" lon="6.41181">
        <ele>620.9</ele>
        <time>2026-02-22T12:05:17Z</time>
      </trkpt>
      <trkpt lat="43.58649" lon="6.41181">
        <ele>620.8</ele>
        <time>2026-02-22T12:05:18Z</time>
      </trkpt>
      <trkpt lat="43.58649" lon="6.41181">
        <ele>620.8</ele>
        <time>2026-02-22T12:05:19Z</time>
      </trkpt>
      <trkpt lat="43.58649" lon="6.41181">
        <ele>620.8</ele>
        <time>2026-02-22T12:05:20Z</time>
      </trkpt>
      <trkpt lat="43.5865" lon="6.41181">
        <ele>620.8</ele>
        <time>2026-02-22T12:05:21Z</time>
      </trkpt>
      <trkpt lat="43.58649" lon="6.4118">
        <ele>620.8</ele>
        <time>2026-02-22T12:05:22Z</time>
      </trkpt>
      <trkpt lat="43.58649" lon="6.4118">
        <ele>620.8</ele>
        <time>2026-02-22T12:05:23Z</time>
      </trkpt>
      <trkpt lat="43.58649" lon="6.4118">
        <ele>620.8</ele>
        <time>2026-02-22T12:05:24Z</time>
      </trkpt>
      <trkpt lat="43.58649" lon="6.41179">
        <ele>620.8</ele>
        <time>2026-02-22T12:05:25Z</time>
      </trkpt>
      <trkpt lat="43.58649" lon="6.41179">
        <ele>620.7</ele>
        <time>2026-02-22T12:05:26Z</time>
      </trkpt>
      <trkpt lat="43.58649" lon="6.41179">
        <ele>620.5</ele>
        <time>2026-02-22T12:05:27Z</time>
      </trkpt>
      <trkpt lat="43.58649" lon="6.41179">
        <ele>620.6</ele>
        <time>2026-02-22T12:05:28Z</time>
      </trkpt>
      <trkpt lat="43.58649" lon="6.41179">
        <ele>620.5</ele>
        <time>2026-02-22T12:05:29Z</time>
      </trkpt>
      <trkpt lat="43.58649" lon="6.41179">
        <ele>620.6</ele>
        <time>2026-02-22T12:05:30Z</time>
      </trkpt>
      <trkpt lat="43.58649" lon="6.41179">
        <ele>620.6</ele>
        <time>2026-02-22T12:05:31Z</time>
      </trkpt>
      <trkpt lat="43.58649" lon="6.41179">
        <ele>620.6</ele>
        <time>2026-02-22T12:05:32Z</time>
      </trkpt>
      <trkpt lat="43.58649" lon="6.41179">
        <ele>620.6</ele>
        <time>2026-02-22T12:05:33Z</time>
      </trkpt>
      <trkpt lat="43.58649" lon="6.41179">
        <ele>620.7</ele>
        <time>2026-02-22T12:05:34Z</time>
      </trkpt>
      <trkpt lat="43.58649" lon="6.41179">
        <ele>620.6</ele>
        <time>2026-02-22T12:05:35Z</time>
      </trkpt>
      <trkpt lat="43.58649" lon="6.41179">
        <ele>620.5</ele>
        <time>2026-02-22T12:05:36Z</time>
      </trkpt>
      <trkpt lat="43.58649" lon="6.41179">
        <ele>620.5</ele>
        <time>2026-02-22T12:05:37Z</time>
      </trkpt>
      <trkpt lat="43.5865" lon="6.41179">
        <ele>620.5</ele>
        <time>2026-02-22T12:05:38Z</time>
      </trkpt>
      <trkpt lat="43.5865" lon="6.41179">
        <ele>620.4</ele>
        <time>2026-02-22T12:05:39Z</time>
      </trkpt>
      <trkpt lat="43.58651" lon="6.41179">
        <ele>620.4</ele>
        <time>2026-02-22T12:05:40Z</time>
      </trkpt>
      <trkpt lat="43.58651" lon="6.4118">
        <ele>620.4</ele>
        <time>2026-02-22T12:05:41Z</time>
      </trkpt>
      <trkpt lat="43.58651" lon="6.4118">
        <ele>620.4</ele>
        <time>2026-02-22T12:05:42Z</time>
      </trkpt>
      <trkpt lat="43.58651" lon="6.4118">
        <ele>620.4</ele>
        <time>2026-02-22T12:05:43Z</time>
      </trkpt>
      <trkpt lat="43.58652" lon="6.4118">
        <ele>620.4</ele>
        <time>2026-02-22T12:05:44Z</time>
      </trkpt>
      <trkpt lat="43.58652" lon="6.41181">
        <ele>620.5</ele>
        <time>2026-02-22T12:05:45Z</time>
      </trkpt>
      <trkpt lat="43.58652" lon="6.41181">
        <ele>620.5</ele>
        <time>2026-02-22T12:05:46Z</time>
      </trkpt>
      <trkpt lat="43.58652" lon="6.41181">
        <ele>620.6</ele>
        <time>2026-02-22T12:05:47Z</time>
      </trkpt>
      <trkpt lat="43.58653" lon="6.41181">
        <ele>620.6</ele>
        <time>2026-02-22T12:05:48Z</time>
      </trkpt>
      <trkpt lat="43.58653" lon="6.41181">
        <ele>620.5</ele>
        <time>2026-02-22T12:05:49Z</time>
      </trkpt>
      <trkpt lat="43.58653" lon="6.41182">
        <ele>620.5</ele>
        <time>2026-02-22T12:05:50Z</time>
      </trkpt>
      <trkpt lat="43.58653" lon="6.41182">
        <ele>620.4</ele>
        <time>2026-02-22T12:05:51Z</time>
      </trkpt>
      <trkpt lat="43.58653" lon="6.41182">
        <ele>620.4</ele>
        <time>2026-02-22T12:05:52Z</time>
      </trkpt>
      <trkpt lat="43.58653" lon="6.41182">
        <ele>620.4</ele>
        <time>2026-02-22T12:05:53Z</time>
      </trkpt>
      <trkpt lat="43.58653" lon="6.41182">
        <ele>620.4</ele>
        <time>2026-02-22T12:05:54Z</time>
      </trkpt>
      <trkpt lat="43.58654" lon="6.41182">
        <ele>620.4</ele>
        <time>2026-02-22T12:05:55Z</time>
      </trkpt>
      <trkpt lat="43.58654" lon="6.41182">
        <ele>620.4</ele>
        <time>2026-02-22T12:05:56Z</time>
      </trkpt>
      <trkpt lat="43.58653" lon="6.41182">
        <ele>620.5</ele>
        <time>2026-02-22T12:05:57Z</time>
      </trkpt>
      <trkpt lat="43.58654" lon="6.41183">
        <ele>620.4</ele>
        <time>2026-02-22T12:05:58Z</time>
      </trkpt>
      <trkpt lat="43.58654" lon="6.41182">
        <ele>620.4</ele>
        <time>2026-02-22T12:05:59Z</time>
      </trkpt>
      <trkpt lat="43.58654" lon="6.41182">
        <ele>620.4</ele>
        <time>2026-02-22T12:06:00Z</time>
      </trkpt>
      <trkpt lat="43.58654" lon="6.41182">
        <ele>620.4</ele>
        <time>2026-02-22T12:06:01Z</time>
      </trkpt>
      <trkpt lat="43.58654" lon="6.41182">
        <ele>620.4</ele>
        <time>2026-02-22T12:06:02Z</time>
      </trkpt>
      <trkpt lat="43.58653" lon="6.41182">
        <ele>620.4</ele>
        <time>2026-02-22T12:06:03Z</time>
      </trkpt>
      <trkpt lat="43.58653" lon="6.41182">
        <ele>620.4</ele>
        <time>2026-02-22T12:06:04Z</time>
      </trkpt>
      <trkpt lat="43.58653" lon="6.41182">
        <ele>620.4</ele>
        <time>2026-02-22T12:06:05Z</time>
      </trkpt>
      <trkpt lat="43.58653" lon="6.41182">
        <ele>620.4</ele>
        <time>2026-02-22T12:06:06Z</time>
      </trkpt>
      <trkpt lat="43.58653" lon="6.41182">
        <ele>620.4</ele>
        <time>2026-02-22T12:06:07Z</time>
      </trkpt>
      <trkpt lat="43.58653" lon="6.41182">
        <ele>620.3</ele>
        <time>2026-02-22T12:06:08Z</time>
      </trkpt>
      <trkpt lat="43.58653" lon="6.41182">
        <ele>620.2</ele>
        <time>2026-02-22T12:06:09Z</time>
      </trkpt>
      <trkpt lat="43.58653" lon="6.41182">
        <ele>620.3</ele>
        <time>2026-02-22T12:06:10Z</time>
      </trkpt>
      <trkpt lat="43.58653" lon="6.41183">
        <ele>620.3</ele>
        <time>2026-02-22T12:06:11Z</time>
      </trkpt>
      <trkpt lat="43.58653" lon="6.41183">
        <ele>620.3</ele>
        <time>2026-02-22T12:06:12Z</time>
      </trkpt>
      <trkpt lat="43.58653" lon="6.41183">
        <ele>620.3</ele>
        <time>2026-02-22T12:06:13Z</time>
      </trkpt>
      <trkpt lat="43.58654" lon="6.41183">
        <ele>620.3</ele>
        <time>2026-02-22T12:06:14Z</time>
      </trkpt>
      <trkpt lat="43.58654" lon="6.41183">
        <ele>620.3</ele>
        <time>2026-02-22T12:06:15Z</time>
      </trkpt>
      <trkpt lat="43.58654" lon="6.41183">
        <ele>620.3</ele>
        <time>2026-02-22T12:06:16Z</time>
      </trkpt>
      <trkpt lat="43.58654" lon="6.41183">
        <ele>620.3</ele>
        <time>2026-02-22T12:06:17Z</time>
      </trkpt>
      <trkpt lat="43.58654" lon="6.41183">
        <ele>620.3</ele>
        <time>2026-02-22T12:06:18Z</time>
      </trkpt>
      <trkpt lat="43.58654" lon="6.41183">
        <ele>620.2</ele>
        <time>2026-02-22T12:06:19Z</time>
      </trkpt>
      <trkpt lat="43.58654" lon="6.41183">
        <ele>620.1</ele>
        <time>2026-02-22T12:06:20Z</time>
      </trkpt>
      <trkpt lat="43.58654" lon="6.41183">
        <ele>620.1</ele>
        <time>2026-02-22T12:06:21Z</time>
      </trkpt>
      <trkpt lat="43.58654" lon="6.41183">
        <ele>620.1</ele>
        <time>2026-02-22T12:06:22Z</time>
      </trkpt>
      <trkpt lat="43.58654" lon="6.41183">
        <ele>620.2</ele>
        <time>2026-02-22T12:06:23Z</time>
      </trkpt>
      <trkpt lat="43.58654" lon="6.41183">
        <ele>620.1</ele>
        <time>2026-02-22T12:06:24Z</time>
      </trkpt>
      <trkpt lat="43.58654" lon="6.41183">
        <ele>620.1</ele>
        <time>2026-02-22T12:06:25Z</time>
      </trkpt>
      <trkpt lat="43.58654" lon="6.41183">
        <ele>620.2</ele>
        <time>2026-02-22T12:06:26Z</time>
      </trkpt>
      <trkpt lat="43.58654" lon="6.41183">
        <ele>620.2</ele>
        <time>2026-02-22T12:06:27Z</time>
      </trkpt>
      <trkpt lat="43.58654" lon="6.41183">
        <ele>620.2</ele>
        <time>2026-02-22T12:06:28Z</time>
      </trkpt>
      <trkpt lat="43.58653" lon="6.41183">
        <ele>620.2</ele>
        <time>2026-02-22T12:06:29Z</time>
      </trkpt>
      <trkpt lat="43.58653" lon="6.41183">
        <ele>620.2</ele>
        <time>2026-02-22T12:06:30Z</time>
      </trkpt>
      <trkpt lat="43.58653" lon="6.41183">
        <ele>620.2</ele>
        <time>2026-02-22T12:06:31Z</time>
      </trkpt>
      <trkpt lat="43.58653" lon="6.41183">
        <ele>620.2</ele>
        <time>2026-02-22T12:06:32Z</time>
      </trkpt>
      <trkpt lat="43.58653" lon="6.41183">
        <ele>620.1</ele>
        <time>2026-02-22T12:06:33Z</time>
      </trkpt>
      <trkpt lat="43.58653" lon="6.41183">
        <ele>620.1</ele>
        <time>2026-02-22T12:06:34Z</time>
      </trkpt>
      <trkpt lat="43.58653" lon="6.41183">
        <ele>620.1</ele>
        <time>2026-02-22T12:06:35Z</time>
      </trkpt>
      <trkpt lat="43.58653" lon="6.41183">
        <ele>620.1</ele>
        <time>2026-02-22T12:06:36Z</time>
      </trkpt>
      <trkpt lat="43.58653" lon="6.41183">
        <ele>620</ele>
        <time>2026-02-22T12:06:37Z</time>
      </trkpt>
      <trkpt lat="43.58653" lon="6.41183">
        <ele>620.1</ele>
        <time>2026-02-22T12:06:38Z</time>
      </trkpt>
      <trkpt lat="43.58653" lon="6.41183">
        <ele>620.1</ele>
        <time>2026-02-22T12:06:39Z</time>
      </trkpt>
      <trkpt lat="43.58653" lon="6.41183">
        <ele>620.1</ele>
        <time>2026-02-22T12:06:40Z</time>
      </trkpt>
      <trkpt lat="43.58653" lon="6.41183">
        <ele>620.1</ele>
        <time>2026-02-22T12:06:41Z</time>
      </trkpt>
      <trkpt lat="43.58653" lon="6.41183">
        <ele>620.1</ele>
        <time>2026-02-22T12:06:42Z</time>
      </trkpt>
      <trkpt lat="43.58653" lon="6.41183">
        <ele>620.2</ele>
        <time>2026-02-22T12:06:43Z</time>
      </trkpt>
      <trkpt lat="43.58653" lon="6.41183">
        <ele>620.2</ele>
        <time>2026-02-22T12:06:44Z</time>
      </trkpt>
      <trkpt lat="43.58653" lon="6.41183">
        <ele>620.2</ele>
        <time>2026-02-22T12:06:45Z</time>
      </trkpt>
      <trkpt lat="43.58653" lon="6.41183">
        <ele>620.1</ele>
        <time>2026-02-22T12:06:46Z</time>
      </trkpt>
      <trkpt lat="43.58653" lon="6.41183">
        <ele>620.1</ele>
        <time>2026-02-22T12:06:47Z</time>
      </trkpt>
      <trkpt lat="43.58653" lon="6.41183">
        <ele>620</ele>
        <time>2026-02-22T12:06:48Z</time>
      </trkpt>
      <trkpt lat="43.58653" lon="6.41183">
        <ele>620</ele>
        <time>2026-02-22T12:06:49Z</time>
      </trkpt>
      <trkpt lat="43.58653" lon="6.41183">
        <ele>620</ele>
        <time>2026-02-22T12:06:50Z</time>
      </trkpt>
      <trkpt lat="43.58653" lon="6.41183">
        <ele>620</ele>
        <time>2026-02-22T12:06:51Z</time>
      </trkpt>
      <trkpt lat="43.58653" lon="6.41183">
        <ele>619.9</ele>
        <time>2026-02-22T12:06:52Z</time>
      </trkpt>
      <trkpt lat="43.58653" lon="6.41183">
        <ele>619.9</ele>
        <time>2026-02-22T12:06:53Z</time>
      </trkpt>
      <trkpt lat="43.58653" lon="6.41183">
        <ele>619.9</ele>
        <time>2026-02-22T12:06:54Z</time>
      </trkpt>
      <trkpt lat="43.58653" lon="6.41183">
        <ele>619.9</ele>
        <time>2026-02-22T12:06:55Z</time>
      </trkpt>
      <trkpt lat="43.58653" lon="6.41183">
        <ele>620</ele>
        <time>2026-02-22T12:06:56Z</time>
      </trkpt>
      <trkpt lat="43.58653" lon="6.41183">
        <ele>620</ele>
        <time>2026-02-22T12:06:57Z</time>
      </trkpt>
      <trkpt lat="43.58653" lon="6.41183">
        <ele>620</ele>
        <time>2026-02-22T12:06:58Z</time>
      </trkpt>
      <trkpt lat="43.58653" lon="6.41183">
        <ele>620</ele>
        <time>2026-02-22T12:06:59Z</time>
      </trkpt>
      <trkpt lat="43.58653" lon="6.41183">
        <ele>620</ele>
        <time>2026-02-22T12:07:00Z</time>
      </trkpt>
      <trkpt lat="43.58653" lon="6.41183">
        <ele>620</ele>
        <time>2026-02-22T12:07:01Z</time>
      </trkpt>
      <trkpt lat="43.58653" lon="6.41183">
        <ele>620</ele>
        <time>2026-02-22T12:07:02Z</time>
      </trkpt>
      <trkpt lat="43.58653" lon="6.41183">
        <ele>620</ele>
        <time>2026-02-22T12:07:03Z</time>
      </trkpt>
      <trkpt lat="43.58653" lon="6.41183">
        <ele>620</ele>
        <time>2026-02-22T12:07:04Z</time>
      </trkpt>
      <trkpt lat="43.58653" lon="6.41184">
        <ele>619.9</ele>
        <time>2026-02-22T12:07:05Z</time>
      </trkpt>
      <trkpt lat="43.58653" lon="6.41184">
        <ele>619.9</ele>
        <time>2026-02-22T12:07:06Z</time>
      </trkpt>
      <trkpt lat="43.58653" lon="6.41184">
        <ele>619.8</ele>
        <time>2026-02-22T12:07:07Z</time>
      </trkpt>
      <trkpt lat="43.58653" lon="6.41184">
        <ele>619.8</ele>
        <time>2026-02-22T12:07:08Z</time>
      </trkpt>
      <trkpt lat="43.58654" lon="6.41184">
        <ele>619.8</ele>
        <time>2026-02-22T12:07:09Z</time>
      </trkpt>
      <trkpt lat="43.58653" lon="6.41184">
        <ele>619.7</ele>
        <time>2026-02-22T12:07:10Z</time>
      </trkpt>
      <trkpt lat="43.58653" lon="6.41184">
        <ele>619.8</ele>
        <time>2026-02-22T12:07:11Z</time>
      </trkpt>
      <trkpt lat="43.58652" lon="6.41184">
        <ele>619.9</ele>
        <time>2026-02-22T12:07:12Z</time>
      </trkpt>
      <trkpt lat="43.58652" lon="6.41184">
        <ele>620</ele>
        <time>2026-02-22T12:07:13Z</time>
      </trkpt>
      <trkpt lat="43.58652" lon="6.41184">
        <ele>620</ele>
        <time>2026-02-22T12:07:14Z</time>
      </trkpt>
      <trkpt lat="43.58652" lon="6.41184">
        <ele>620</ele>
        <time>2026-02-22T12:07:15Z</time>
      </trkpt>
      <trkpt lat="43.58652" lon="6.41184">
        <ele>620</ele>
        <time>2026-02-22T12:07:16Z</time>
      </trkpt>
      <trkpt lat="43.58652" lon="6.41183">
        <ele>620</ele>
        <time>2026-02-22T12:07:17Z</time>
      </trkpt>
      <trkpt lat="43.58652" lon="6.41183">
        <ele>620</ele>
        <time>2026-02-22T12:07:18Z</time>
      </trkpt>
      <trkpt lat="43.58652" lon="6.41183">
        <ele>620.1</ele>
        <time>2026-02-22T12:07:19Z</time>
      </trkpt>
      <trkpt lat="43.58652" lon="6.41183">
        <ele>620.1</ele>
        <time>2026-02-22T12:07:20Z</time>
      </trkpt>
      <trkpt lat="43.58652" lon="6.41183">
        <ele>620.1</ele>
        <time>2026-02-22T12:07:21Z</time>
      </trkpt>
      <trkpt lat="43.58652" lon="6.41183">
        <ele>620.1</ele>
        <time>2026-02-22T12:07:22Z</time>
      </trkpt>
      <trkpt lat="43.58652" lon="6.41183">
        <ele>620</ele>
        <time>2026-02-22T12:07:23Z</time>
      </trkpt>
      <trkpt lat="43.58652" lon="6.41183">
        <ele>620.1</ele>
        <time>2026-02-22T12:07:24Z</time>
      </trkpt>
      <trkpt lat="43.58652" lon="6.41183">
        <ele>620</ele>
        <time>2026-02-22T12:07:25Z</time>
      </trkpt>
      <trkpt lat="43.58652" lon="6.41183">
        <ele>620</ele>
        <time>2026-02-22T12:07:26Z</time>
      </trkpt>
      <trkpt lat="43.58652" lon="6.41183">
        <ele>619.9</ele>
        <time>2026-02-22T12:07:27Z</time>
      </trkpt>
      <trkpt lat="43.58652" lon="6.41183">
        <ele>619.9</ele>
        <time>2026-02-22T12:07:28Z</time>
      </trkpt>
      <trkpt lat="43.58652" lon="6.41183">
        <ele>619.9</ele>
        <time>2026-02-22T12:07:29Z</time>
      </trkpt>
      <trkpt lat="43.58652" lon="6.41183">
        <ele>619.8</ele>
        <time>2026-02-22T12:07:30Z</time>
      </trkpt>
      <trkpt lat="43.58652" lon="6.41183">
        <ele>619.8</ele>
        <time>2026-02-22T12:07:31Z</time>
      </trkpt>
      <trkpt lat="43.58652" lon="6.41183">
        <ele>619.8</ele>
        <time>2026-02-22T12:07:32Z</time>
      </trkpt>
      <trkpt lat="43.58652" lon="6.41183">
        <ele>619.8</ele>
        <time>2026-02-22T12:07:33Z</time>
      </trkpt>
      <trkpt lat="43.58652" lon="6.41183">
        <ele>619.8</ele>
        <time>2026-02-22T12:07:34Z</time>
      </trkpt>
      <trkpt lat="43.58652" lon="6.41183">
        <ele>619.8</ele>
        <time>2026-02-22T12:07:35Z</time>
      </trkpt>
      <trkpt lat="43.58652" lon="6.41183">
        <ele>619.7</ele>
        <time>2026-02-22T12:07:36Z</time>
      </trkpt>
      <trkpt lat="43.58652" lon="6.41183">
        <ele>619.7</ele>
        <time>2026-02-22T12:07:37Z</time>
      </trkpt>
      <trkpt lat="43.58652" lon="6.41183">
        <ele>619.7</ele>
        <time>2026-02-22T12:07:38Z</time>
      </trkpt>
      <trkpt lat="43.58652" lon="6.41183">
        <ele>619.6</ele>
        <time>2026-02-22T12:07:39Z</time>
      </trkpt>
      <trkpt lat="43.58652" lon="6.41183">
        <ele>619.6</ele>
        <time>2026-02-22T12:07:40Z</time>
      </trkpt>
      <trkpt lat="43.58651" lon="6.41183">
        <ele>619.6</ele>
        <time>2026-02-22T12:07:41Z</time>
      </trkpt>
      <trkpt lat="43.58651" lon="6.41183">
        <ele>619.6</ele>
        <time>2026-02-22T12:07:42Z</time>
      </trkpt>
      <trkpt lat="43.58651" lon="6.41183">
        <ele>619.6</ele>
        <time>2026-02-22T12:07:43Z</time>
      </trkpt>
      <trkpt lat="43.58651" lon="6.41183">
        <ele>619.6</ele>
        <time>2026-02-22T12:07:44Z</time>
      </trkpt>
      <trkpt lat="43.58651" lon="6.41183">
        <ele>619.6</ele>
        <time>2026-02-22T12:07:45Z</time>
      </trkpt>
      <trkpt lat="43.58651" lon="6.41183">
        <ele>619.5</ele>
        <time>2026-02-22T12:07:46Z</time>
      </trkpt>
      <trkpt lat="43.58651" lon="6.41183">
        <ele>619.5</ele>
        <time>2026-02-22T12:07:47Z</time>
      </trkpt>
      <trkpt lat="43.58651" lon="6.41183">
        <ele>619.3</ele>
        <time>2026-02-22T12:07:48Z</time>
      </trkpt>
      <trkpt lat="43.58651" lon="6.41183">
        <ele>619.2</ele>
        <time>2026-02-22T12:07:49Z</time>
      </trkpt>
      <trkpt lat="43.58651" lon="6.41183">
        <ele>619.2</ele>
        <time>2026-02-22T12:07:50Z</time>
      </trkpt>
      <trkpt lat="43.58651" lon="6.41183">
        <ele>619.2</ele>
        <time>2026-02-22T12:07:51Z</time>
      </trkpt>
      <trkpt lat="43.58651" lon="6.41183">
        <ele>619.2</ele>
        <time>2026-02-22T12:07:52Z</time>
      </trkpt>
      <trkpt lat="43.58651" lon="6.41183">
        <ele>619.3</ele>
        <time>2026-02-22T12:07:53Z</time>
      </trkpt>
      <trkpt lat="43.58651" lon="6.41183">
        <ele>619.3</ele>
        <time>2026-02-22T12:07:54Z</time>
      </trkpt>
      <trkpt lat="43.58651" lon="6.41183">
        <ele>619.2</ele>
        <time>2026-02-22T12:07:55Z</time>
      </trkpt>
      <trkpt lat="43.58651" lon="6.41183">
        <ele>619.2</ele>
        <time>2026-02-22T12:07:56Z</time>
      </trkpt>
      <trkpt lat="43.5865" lon="6.41183">
        <ele>619.3</ele>
        <time>2026-02-22T12:07:57Z</time>
      </trkpt>
      <trkpt lat="43.5865" lon="6.41183">
        <ele>619.3</ele>
        <time>2026-02-22T12:07:58Z</time>
      </trkpt>
      <trkpt lat="43.5865" lon="6.41183">
        <ele>619.3</ele>
        <time>2026-02-22T12:07:59Z</time>
      </trkpt>
      <trkpt lat="43.5865" lon="6.41183">
        <ele>619.4</ele>
        <time>2026-02-22T12:08:00Z</time>
      </trkpt>
      <trkpt lat="43.5865" lon="6.41183">
        <ele>619.4</ele>
        <time>2026-02-22T12:08:01Z</time>
      </trkpt>
      <trkpt lat="43.5865" lon="6.41183">
        <ele>619.4</ele>
        <time>2026-02-22T12:08:02Z</time>
      </trkpt>
      <trkpt lat="43.5865" lon="6.41183">
        <ele>619.4</ele>
        <time>2026-02-22T12:08:03Z</time>
      </trkpt>
      <trkpt lat="43.5865" lon="6.41183">
        <ele>619.4</ele>
        <time>2026-02-22T12:08:04Z</time>
      </trkpt>
      <trkpt lat="43.5865" lon="6.41183">
        <ele>619.5</ele>
        <time>2026-02-22T12:08:05Z</time>
      </trkpt>
      <trkpt lat="43.5865" lon="6.41183">
        <ele>619.4</ele>
        <time>2026-02-22T12:08:06Z</time>
      </trkpt>
      <trkpt lat="43.5865" lon="6.41183">
        <ele>619.4</ele>
        <time>2026-02-22T12:08:07Z</time>
      </trkpt>
      <trkpt lat="43.5865" lon="6.41183">
        <ele>619.4</ele>
        <time>2026-02-22T12:08:08Z</time>
      </trkpt>
      <trkpt lat="43.5865" lon="6.41183">
        <ele>619.3</ele>
        <time>2026-02-22T12:08:09Z</time>
      </trkpt>
      <trkpt lat="43.5865" lon="6.41183">
        <ele>619.4</ele>
        <time>2026-02-22T12:08:10Z</time>
      </trkpt>
      <trkpt lat="43.5865" lon="6.41183">
        <ele>619.4</ele>
        <time>2026-02-22T12:08:11Z</time>
      </trkpt>
      <trkpt lat="43.5865" lon="6.41183">
        <ele>619.3</ele>
        <time>2026-02-22T12:08:12Z</time>
      </trkpt>
      <trkpt lat="43.5865" lon="6.41183">
        <ele>619.2</ele>
        <time>2026-02-22T12:08:13Z</time>
      </trkpt>
      <trkpt lat="43.5865" lon="6.41183">
        <ele>619.3</ele>
        <time>2026-02-22T12:08:14Z</time>
      </trkpt>
      <trkpt lat="43.5865" lon="6.41183">
        <ele>619.4</ele>
        <time>2026-02-22T12:08:15Z</time>
      </trkpt>
      <trkpt lat="43.5865" lon="6.41183">
        <ele>619.4</ele>
        <time>2026-02-22T12:08:16Z</time>
      </trkpt>
      <trkpt lat="43.5865" lon="6.41183">
        <ele>619.4</ele>
        <time>2026-02-22T12:08:17Z</time>
      </trkpt>
      <trkpt lat="43.5865" lon="6.41183">
        <ele>619.4</ele>
        <time>2026-02-22T12:08:18Z</time>
      </trkpt>
      <trkpt lat="43.5865" lon="6.41183">
        <ele>619.4</ele>
        <time>2026-02-22T12:08:19Z</time>
      </trkpt>
      <trkpt lat="43.5865" lon="6.41183">
        <ele>619.4</ele>
        <time>2026-02-22T12:08:20Z</time>
      </trkpt>
      <trkpt lat="43.5865" lon="6.41183">
        <ele>619.4</ele>
        <time>2026-02-22T12:08:21Z</time>
      </trkpt>
      <trkpt lat="43.5865" lon="6.41183">
        <ele>619.4</ele>
        <time>2026-02-22T12:08:22Z</time>
      </trkpt>
      <trkpt lat="43.5865" lon="6.41183">
        <ele>619.4</ele>
        <time>2026-02-22T12:08:23Z</time>
      </trkpt>
      <trkpt lat="43.5865" lon="6.41183">
        <ele>619.4</ele>
        <time>2026-02-22T12:08:24Z</time>
      </trkpt>
      <trkpt lat="43.58649" lon="6.41183">
        <ele>619.4</ele>
        <time>2026-02-22T12:08:25Z</time>
      </trkpt>
      <trkpt lat="43.58649" lon="6.41183">
        <ele>619.4</ele>
        <time>2026-02-22T12:08:26Z</time>
      </trkpt>
      <trkpt lat="43.58649" lon="6.41183">
        <ele>619.3</ele>
        <time>2026-02-22T12:08:27Z</time>
      </trkpt>
      <trkpt lat="43.5865" lon="6.41183">
        <ele>619.3</ele>
        <time>2026-02-22T12:08:28Z</time>
      </trkpt>
      <trkpt lat="43.5865" lon="6.41183">
        <ele>619.3</ele>
        <time>2026-02-22T12:08:29Z</time>
      </trkpt>
      <trkpt lat="43.5865" lon="6.41183">
        <ele>619.3</ele>
        <time>2026-02-22T12:08:30Z</time>
      </trkpt>
      <trkpt lat="43.5865" lon="6.41183">
        <ele>619.2</ele>
        <time>2026-02-22T12:08:31Z</time>
      </trkpt>
      <trkpt lat="43.5865" lon="6.41183">
        <ele>619.2</ele>
        <time>2026-02-22T12:08:32Z</time>
      </trkpt>
      <trkpt lat="43.5865" lon="6.41183">
        <ele>619.3</ele>
        <time>2026-02-22T12:08:33Z</time>
      </trkpt>
      <trkpt lat="43.5865" lon="6.41183">
        <ele>619.3</ele>
        <time>2026-02-22T12:08:34Z</time>
      </trkpt>
      <trkpt lat="43.5865" lon="6.41183">
        <ele>619.3</ele>
        <time>2026-02-22T12:08:35Z</time>
      </trkpt>
      <trkpt lat="43.5865" lon="6.41183">
        <ele>619.2</ele>
        <time>2026-02-22T12:08:36Z</time>
      </trkpt>
      <trkpt lat="43.5865" lon="6.41183">
        <ele>619.2</ele>
        <time>2026-02-22T12:08:37Z</time>
      </trkpt>
      <trkpt lat="43.5865" lon="6.41183">
        <ele>619.3</ele>
        <time>2026-02-22T12:08:38Z</time>
      </trkpt>
      <trkpt lat="43.5865" lon="6.41183">
        <ele>619.3</ele>
        <time>2026-02-22T12:08:39Z</time>
      </trkpt>
      <trkpt lat="43.5865" lon="6.41183">
        <ele>619.4</ele>
        <time>2026-02-22T12:08:40Z</time>
      </trkpt>
      <trkpt lat="43.5865" lon="6.41183">
        <ele>619.3</ele>
        <time>2026-02-22T12:08:41Z</time>
      </trkpt>
      <trkpt lat="43.58651" lon="6.41182">
        <ele>619.3</ele>
        <time>2026-02-22T12:08:42Z</time>
      </trkpt>
      <trkpt lat="43.5865" lon="6.41182">
        <ele>619.3</ele>
        <time>2026-02-22T12:08:43Z</time>
      </trkpt>
      <trkpt lat="43.5865" lon="6.41182">
        <ele>619.3</ele>
        <time>2026-02-22T12:08:44Z</time>
      </trkpt>
      <trkpt lat="43.58651" lon="6.41182">
        <ele>619.3</ele>
        <time>2026-02-22T12:08:45Z</time>
      </trkpt>
      <trkpt lat="43.58651" lon="6.41182">
        <ele>619.3</ele>
        <time>2026-02-22T12:08:46Z</time>
      </trkpt>
      <trkpt lat="43.58651" lon="6.41182">
        <ele>619.3</ele>
        <time>2026-02-22T12:08:47Z</time>
      </trkpt>
      <trkpt lat="43.58651" lon="6.41182">
        <ele>619.4</ele>
        <time>2026-02-22T12:08:48Z</time>
      </trkpt>
      <trkpt lat="43.58651" lon="6.41182">
        <ele>619.7</ele>
        <time>2026-02-22T12:08:49Z</time>
      </trkpt>
      <trkpt lat="43.58651" lon="6.41183">
        <ele>619.7</ele>
        <time>2026-02-22T12:08:50Z</time>
      </trkpt>
      <trkpt lat="43.58651" lon="6.41183">
        <ele>619.6</ele>
        <time>2026-02-22T12:08:51Z</time>
      </trkpt>
      <trkpt lat="43.58651" lon="6.41183">
        <ele>619.6</ele>
        <time>2026-02-22T12:08:52Z</time>
      </trkpt>
      <trkpt lat="43.58651" lon="6.41183">
        <ele>619.5</ele>
        <time>2026-02-22T12:08:53Z</time>
      </trkpt>
      <trkpt lat="43.58651" lon="6.41183">
        <ele>619.5</ele>
        <time>2026-02-22T12:08:54Z</time>
      </trkpt>
      <trkpt lat="43.58651" lon="6.41182">
        <ele>619.4</ele>
        <time>2026-02-22T12:08:55Z</time>
      </trkpt>
      <trkpt lat="43.58651" lon="6.41182">
        <ele>619.5</ele>
        <time>2026-02-22T12:08:56Z</time>
      </trkpt>
      <trkpt lat="43.58651" lon="6.41181">
        <ele>619.6</ele>
        <time>2026-02-22T12:08:57Z</time>
      </trkpt>
      <trkpt lat="43.58652" lon="6.41181">
        <ele>619.7</ele>
        <time>2026-02-22T12:08:58Z</time>
      </trkpt>
      <trkpt lat="43.58652" lon="6.41181">
        <ele>619.7</ele>
        <time>2026-02-22T12:08:59Z</time>
      </trkpt>
      <trkpt lat="43.58652" lon="6.41181">
        <ele>619.7</ele>
        <time>2026-02-22T12:09:00Z</time>
      </trkpt>
      <trkpt lat="43.58652" lon="6.41181">
        <ele>619.7</ele>
        <time>2026-02-22T12:09:01Z</time>
      </trkpt>
      <trkpt lat="43.58652" lon="6.41181">
        <ele>619.7</ele>
        <time>2026-02-22T12:09:02Z</time>
      </trkpt>
      <trkpt lat="43.58652" lon="6.41181">
        <ele>619.6</ele>
        <time>2026-02-22T12:09:03Z</time>
      </trkpt>
      <trkpt lat="43.58652" lon="6.41181">
        <ele>619.6</ele>
        <time>2026-02-22T12:09:04Z</time>
      </trkpt>
      <trkpt lat="43.58652" lon="6.41181">
        <ele>619.6</ele>
        <time>2026-02-22T12:09:05Z</time>
      </trkpt>
      <trkpt lat="43.58652" lon="6.41181">
        <ele>619.6</ele>
        <time>2026-02-22T12:09:06Z</time>
      </trkpt>
      <trkpt lat="43.58653" lon="6.41181">
        <ele>619.5</ele>
        <time>2026-02-22T12:09:07Z</time>
      </trkpt>
      <trkpt lat="43.58653" lon="6.41181">
        <ele>619.5</ele>
        <time>2026-02-22T12:09:08Z</time>
      </trkpt>
      <trkpt lat="43.58653" lon="6.41181">
        <ele>619.5</ele>
        <time>2026-02-22T12:09:09Z</time>
      </trkpt>
      <trkpt lat="43.58653" lon="6.41181">
        <ele>619.5</ele>
        <time>2026-02-22T12:09:10Z</time>
      </trkpt>
      <trkpt lat="43.58653" lon="6.41181">
        <ele>619.6</ele>
        <time>2026-02-22T12:09:11Z</time>
      </trkpt>
      <trkpt lat="43.58653" lon="6.41181">
        <ele>619.6</ele>
        <time>2026-02-22T12:09:12Z</time>
      </trkpt>
      <trkpt lat="43.58653" lon="6.41181">
        <ele>619.6</ele>
        <time>2026-02-22T12:09:13Z</time>
      </trkpt>
      <trkpt lat="43.58653" lon="6.41181">
        <ele>619.5</ele>
        <time>2026-02-22T12:09:14Z</time>
      </trkpt>
      <trkpt lat="43.58653" lon="6.41181">
        <ele>619.5</ele>
        <time>2026-02-22T12:09:15Z</time>
      </trkpt>
      <trkpt lat="43.58653" lon="6.41181">
        <ele>619.5</ele>
        <time>2026-02-22T12:09:16Z</time>
      </trkpt>
      <trkpt lat="43.58653" lon="6.41181">
        <ele>619.5</ele>
        <time>2026-02-22T12:09:17Z</time>
      </trkpt>
      <trkpt lat="43.58653" lon="6.4118">
        <ele>619.5</ele>
        <time>2026-02-22T12:09:18Z</time>
      </trkpt>
      <trkpt lat="43.58653" lon="6.4118">
        <ele>619.4</ele>
        <time>2026-02-22T12:09:19Z</time>
      </trkpt>
      <trkpt lat="43.58653" lon="6.4118">
        <ele>619.4</ele>
        <time>2026-02-22T12:09:20Z</time>
      </trkpt>
      <trkpt lat="43.58653" lon="6.4118">
        <ele>619.4</ele>
        <time>2026-02-22T12:09:21Z</time>
      </trkpt>
      <trkpt lat="43.58653" lon="6.4118">
        <ele>619.4</ele>
        <time>2026-02-22T12:09:22Z</time>
      </trkpt>
      <trkpt lat="43.58653" lon="6.4118">
        <ele>619.4</ele>
        <time>2026-02-22T12:09:23Z</time>
      </trkpt>
      <trkpt lat="43.58653" lon="6.4118">
        <ele>619.4</ele>
        <time>2026-02-22T12:09:24Z</time>
      </trkpt>
      <trkpt lat="43.58653" lon="6.4118">
        <ele>619.3</ele>
        <time>2026-02-22T12:09:25Z</time>
      </trkpt>
      <trkpt lat="43.58653" lon="6.4118">
        <ele>619.2</ele>
        <time>2026-02-22T12:09:26Z</time>
      </trkpt>
      <trkpt lat="43.58653" lon="6.4118">
        <ele>619.3</ele>
        <time>2026-02-22T12:09:27Z</time>
      </trkpt>
      <trkpt lat="43.58653" lon="6.4118">
        <ele>619.3</ele>
        <time>2026-02-22T12:09:28Z</time>
      </trkpt>
      <trkpt lat="43.58653" lon="6.4118">
        <ele>619.3</ele>
        <time>2026-02-22T12:09:29Z</time>
      </trkpt>
      <trkpt lat="43.58654" lon="6.4118">
        <ele>619.2</ele>
        <time>2026-02-22T12:09:30Z</time>
      </trkpt>
      <trkpt lat="43.58653" lon="6.4118">
        <ele>619.1</ele>
        <time>2026-02-22T12:09:31Z</time>
      </trkpt>
      <trkpt lat="43.58653" lon="6.41179">
        <ele>619.1</ele>
        <time>2026-02-22T12:09:32Z</time>
      </trkpt>
      <trkpt lat="43.58653" lon="6.41179">
        <ele>619.1</ele>
        <time>2026-02-22T12:09:33Z</time>
      </trkpt>
      <trkpt lat="43.58653" lon="6.41179">
        <ele>619</ele>
        <time>2026-02-22T12:09:34Z</time>
      </trkpt>
      <trkpt lat="43.58653" lon="6.41179">
        <ele>619</ele>
        <time>2026-02-22T12:09:35Z</time>
      </trkpt>
      <trkpt lat="43.58652" lon="6.41179">
        <ele>619</ele>
        <time>2026-02-22T12:09:36Z</time>
      </trkpt>
      <trkpt lat="43.58652" lon="6.41179">
        <ele>619.1</ele>
        <time>2026-02-22T12:09:37Z</time>
      </trkpt>
      <trkpt lat="43.58652" lon="6.41179">
        <ele>619.1</ele>
        <time>2026-02-22T12:09:38Z</time>
      </trkpt>
      <trkpt lat="43.58652" lon="6.41179">
        <ele>619.2</ele>
        <time>2026-02-22T12:09:39Z</time>
      </trkpt>
      <trkpt lat="43.58652" lon="6.41179">
        <ele>619.2</ele>
        <time>2026-02-22T12:09:40Z</time>
      </trkpt>
      <trkpt lat="43.58652" lon="6.41179">
        <ele>619.3</ele>
        <time>2026-02-22T12:09:41Z</time>
      </trkpt>
      <trkpt lat="43.58652" lon="6.41179">
        <ele>619.3</ele>
        <time>2026-02-22T12:09:42Z</time>
      </trkpt>
      <trkpt lat="43.58652" lon="6.41178">
        <ele>619.4</ele>
        <time>2026-02-22T12:09:43Z</time>
      </trkpt>
      <trkpt lat="43.58652" lon="6.41178">
        <ele>619.3</ele>
        <time>2026-02-22T12:09:44Z</time>
      </trkpt>
      <trkpt lat="43.58652" lon="6.41177">
        <ele>619.3</ele>
        <time>2026-02-22T12:09:45Z</time>
      </trkpt>
      <trkpt lat="43.58652" lon="6.41177">
        <ele>619.3</ele>
        <time>2026-02-22T12:09:46Z</time>
      </trkpt>
      <trkpt lat="43.58652" lon="6.41177">
        <ele>619.3</ele>
        <time>2026-02-22T12:09:47Z</time>
      </trkpt>
      <trkpt lat="43.58652" lon="6.41176">
        <ele>619.3</ele>
        <time>2026-02-22T12:09:48Z</time>
      </trkpt>
      <trkpt lat="43.58652" lon="6.41176">
        <ele>619.3</ele>
        <time>2026-02-22T12:09:49Z</time>
      </trkpt>
      <trkpt lat="43.58652" lon="6.41176">
        <ele>619.2</ele>
        <time>2026-02-22T12:09:50Z</time>
      </trkpt>
      <trkpt lat="43.58652" lon="6.41175">
        <ele>619.2</ele>
        <time>2026-02-22T12:09:51Z</time>
      </trkpt>
      <trkpt lat="43.58651" lon="6.41175">
        <ele>619.2</ele>
        <time>2026-02-22T12:09:52Z</time>
      </trkpt>
      <trkpt lat="43.58651" lon="6.41174">
        <ele>619.3</ele>
        <time>2026-02-22T12:09:53Z</time>
      </trkpt>
      <trkpt lat="43.58651" lon="6.41174">
        <ele>619.4</ele>
        <time>2026-02-22T12:09:54Z</time>
      </trkpt>
      <trkpt lat="43.5865" lon="6.41174">
        <ele>619.5</ele>
        <time>2026-02-22T12:09:55Z</time>
      </trkpt>
      <trkpt lat="43.5865" lon="6.41174">
        <ele>619.8</ele>
        <time>2026-02-22T12:09:56Z</time>
      </trkpt>
      <trkpt lat="43.5865" lon="6.41173">
        <ele>619.8</ele>
        <time>2026-02-22T12:09:57Z</time>
      </trkpt>
      <trkpt lat="43.5865" lon="6.41173">
        <ele>620</ele>
        <time>2026-02-22T12:09:58Z</time>
      </trkpt>
      <trkpt lat="43.5865" lon="6.41173">
        <ele>620.2</ele>
        <time>2026-02-22T12:09:59Z</time>
      </trkpt>
      <trkpt lat="43.5865" lon="6.41172">
        <ele>620.3</ele>
        <time>2026-02-22T12:10:00Z</time>
      </trkpt>
      <trkpt lat="43.58649" lon="6.41172">
        <ele>620.4</ele>
        <time>2026-02-22T12:10:01Z</time>
      </trkpt>
      <trkpt lat="43.58649" lon="6.41171">
        <ele>620.5</ele>
        <time>2026-02-22T12:10:02Z</time>
      </trkpt>
      <trkpt lat="43.58649" lon="6.41171">
        <ele>620.6</ele>
        <time>2026-02-22T12:10:03Z</time>
      </trkpt>
      <trkpt lat="43.58649" lon="6.41171">
        <ele>620.7</ele>
        <time>2026-02-22T12:10:04Z</time>
      </trkpt>
      <trkpt lat="43.58648" lon="6.41171">
        <ele>620.8</ele>
        <time>2026-02-22T12:10:05Z</time>
      </trkpt>
      <trkpt lat="43.58648" lon="6.41171">
        <ele>621</ele>
        <time>2026-02-22T12:10:06Z</time>
      </trkpt>
      <trkpt lat="43.58648" lon="6.4117">
        <ele>621.1</ele>
        <time>2026-02-22T12:10:07Z</time>
      </trkpt>
      <trkpt lat="43.58648" lon="6.4117">
        <ele>621.2</ele>
        <time>2026-02-22T12:10:08Z</time>
      </trkpt>
      <trkpt lat="43.58648" lon="6.4117">
        <ele>621.2</ele>
        <time>2026-02-22T12:10:09Z</time>
      </trkpt>
      <trkpt lat="43.58647" lon="6.41169">
        <ele>621.2</ele>
        <time>2026-02-22T12:10:10Z</time>
      </trkpt>
      <trkpt lat="43.58647" lon="6.41169">
        <ele>621.2</ele>
        <time>2026-02-22T12:10:11Z</time>
      </trkpt>
      <trkpt lat="43.58647" lon="6.41169">
        <ele>621.4</ele>
        <time>2026-02-22T12:10:12Z</time>
      </trkpt>
      <trkpt lat="43.58647" lon="6.41169">
        <ele>621.4</ele>
        <time>2026-02-22T12:10:13Z</time>
      </trkpt>
      <trkpt lat="43.58647" lon="6.41169">
        <ele>621.5</ele>
        <time>2026-02-22T12:10:14Z</time>
      </trkpt>
      <trkpt lat="43.58646" lon="6.41168">
        <ele>621.6</ele>
        <time>2026-02-22T12:10:15Z</time>
      </trkpt>
      <trkpt lat="43.58646" lon="6.41168">
        <ele>621.6</ele>
        <time>2026-02-22T12:10:16Z</time>
      </trkpt>
      <trkpt lat="43.58646" lon="6.41168">
        <ele>621.6</ele>
        <time>2026-02-22T12:10:17Z</time>
      </trkpt>
      <trkpt lat="43.58646" lon="6.41168">
        <ele>621.6</ele>
        <time>2026-02-22T12:10:18Z</time>
      </trkpt>
      <trkpt lat="43.58646" lon="6.41168">
        <ele>621.6</ele>
        <time>2026-02-22T12:10:19Z</time>
      </trkpt>
      <trkpt lat="43.58646" lon="6.41168">
        <ele>621.5</ele>
        <time>2026-02-22T12:10:20Z</time>
      </trkpt>
      <trkpt lat="43.58646" lon="6.41168">
        <ele>621.5</ele>
        <time>2026-02-22T12:10:21Z</time>
      </trkpt>
      <trkpt lat="43.58646" lon="6.41167">
        <ele>621.5</ele>
        <time>2026-02-22T12:10:22Z</time>
      </trkpt>
      <trkpt lat="43.58646" lon="6.41167">
        <ele>621.5</ele>
        <time>2026-02-22T12:10:23Z</time>
      </trkpt>
      <trkpt lat="43.58646" lon="6.41167">
        <ele>621.5</ele>
        <time>2026-02-22T12:10:24Z</time>
      </trkpt>
      <trkpt lat="43.58646" lon="6.41167">
        <ele>621.5</ele>
        <time>2026-02-22T12:10:25Z</time>
      </trkpt>
      <trkpt lat="43.58646" lon="6.41167">
        <ele>621.5</ele>
        <time>2026-02-22T12:10:26Z</time>
      </trkpt>
      <trkpt lat="43.58646" lon="6.41167">
        <ele>621.5</ele>
        <time>2026-02-22T12:10:27Z</time>
      </trkpt>
      <trkpt lat="43.58646" lon="6.41167">
        <ele>621.5</ele>
        <time>2026-02-22T12:10:28Z</time>
      </trkpt>
      <trkpt lat="43.58646" lon="6.41166">
        <ele>621.5</ele>
        <time>2026-02-22T12:10:29Z</time>
      </trkpt>
      <trkpt lat="43.58646" lon="6.41166">
        <ele>621.5</ele>
        <time>2026-02-22T12:10:30Z</time>
      </trkpt>
      <trkpt lat="43.58646" lon="6.41166">
        <ele>621.6</ele>
        <time>2026-02-22T12:10:31Z</time>
      </trkpt>
      <trkpt lat="43.58646" lon="6.41166">
        <ele>621.6</ele>
        <time>2026-02-22T12:10:32Z</time>
      </trkpt>
      <trkpt lat="43.58646" lon="6.41166">
        <ele>621.5</ele>
        <time>2026-02-22T12:10:33Z</time>
      </trkpt>
      <trkpt lat="43.58646" lon="6.41166">
        <ele>621.4</ele>
        <time>2026-02-22T12:10:34Z</time>
      </trkpt>
      <trkpt lat="43.58646" lon="6.41166">
        <ele>621.4</ele>
        <time>2026-02-22T12:10:35Z</time>
      </trkpt>
      <trkpt lat="43.58646" lon="6.41166">
        <ele>621.4</ele>
        <time>2026-02-22T12:10:36Z</time>
      </trkpt>
      <trkpt lat="43.58646" lon="6.41166">
        <ele>621.5</ele>
        <time>2026-02-22T12:10:37Z</time>
      </trkpt>
      <trkpt lat="43.58646" lon="6.41166">
        <ele>621.5</ele>
        <time>2026-02-22T12:10:38Z</time>
      </trkpt>
      <trkpt lat="43.58646" lon="6.41166">
        <ele>621.5</ele>
        <time>2026-02-22T12:10:39Z</time>
      </trkpt>
      <trkpt lat="43.58646" lon="6.41166">
        <ele>621.4</ele>
        <time>2026-02-22T12:10:40Z</time>
      </trkpt>
      <trkpt lat="43.58646" lon="6.41166">
        <ele>621.4</ele>
        <time>2026-02-22T12:10:41Z</time>
      </trkpt>
      <trkpt lat="43.58646" lon="6.41166">
        <ele>621.4</ele>
        <time>2026-02-22T12:10:42Z</time>
      </trkpt>
      <trkpt lat="43.58646" lon="6.41166">
        <ele>621.4</ele>
        <time>2026-02-22T12:10:43Z</time>
      </trkpt>
      <trkpt lat="43.58646" lon="6.41166">
        <ele>621.4</ele>
        <time>2026-02-22T12:10:44Z</time>
      </trkpt>
      <trkpt lat="43.58646" lon="6.41166">
        <ele>621.4</ele>
        <time>2026-02-22T12:10:45Z</time>
      </trkpt>
      <trkpt lat="43.58646" lon="6.41166">
        <ele>621.3</ele>
        <time>2026-02-22T12:10:46Z</time>
      </trkpt>
      <trkpt lat="43.58646" lon="6.41165">
        <ele>621.3</ele>
        <time>2026-02-22T12:10:47Z</time>
      </trkpt>
      <trkpt lat="43.58646" lon="6.41165">
        <ele>621.3</ele>
        <time>2026-02-22T12:10:48Z</time>
      </trkpt>
      <trkpt lat="43.58646" lon="6.41165">
        <ele>621.3</ele>
        <time>2026-02-22T12:10:49Z</time>
      </trkpt>
      <trkpt lat="43.58646" lon="6.41165">
        <ele>621.3</ele>
        <time>2026-02-22T12:10:50Z</time>
      </trkpt>
      <trkpt lat="43.58646" lon="6.41165">
        <ele>621.3</ele>
        <time>2026-02-22T12:10:51Z</time>
      </trkpt>
      <trkpt lat="43.58647" lon="6.41165">
        <ele>621.3</ele>
        <time>2026-02-22T12:10:52Z</time>
      </trkpt>
      <trkpt lat="43.58647" lon="6.41165">
        <ele>621.2</ele>
        <time>2026-02-22T12:10:53Z</time>
      </trkpt>
      <trkpt lat="43.58647" lon="6.41165">
        <ele>621.2</ele>
        <time>2026-02-22T12:10:54Z</time>
      </trkpt>
      <trkpt lat="43.58647" lon="6.41165">
        <ele>621.1</ele>
        <time>2026-02-22T12:10:55Z</time>
      </trkpt>
      <trkpt lat="43.58647" lon="6.41165">
        <ele>621</ele>
        <time>2026-02-22T12:10:56Z</time>
      </trkpt>
      <trkpt lat="43.58647" lon="6.41165">
        <ele>621</ele>
        <time>2026-02-22T12:10:57Z</time>
      </trkpt>
      <trkpt lat="43.58647" lon="6.41165">
        <ele>621</ele>
        <time>2026-02-22T12:10:58Z</time>
      </trkpt>
      <trkpt lat="43.58647" lon="6.41165">
        <ele>621</ele>
        <time>2026-02-22T12:10:59Z</time>
      </trkpt>
      <trkpt lat="43.58647" lon="6.41165">
        <ele>621</ele>
        <time>2026-02-22T12:11:00Z</time>
      </trkpt>
      <trkpt lat="43.58647" lon="6.41165">
        <ele>621</ele>
        <time>2026-02-22T12:11:01Z</time>
      </trkpt>
      <trkpt lat="43.58647" lon="6.41165">
        <ele>621.1</ele>
        <time>2026-02-22T12:11:02Z</time>
      </trkpt>
      <trkpt lat="43.58647" lon="6.41165">
        <ele>621.1</ele>
        <time>2026-02-22T12:11:03Z</time>
      </trkpt>
      <trkpt lat="43.58647" lon="6.41165">
        <ele>621.1</ele>
        <time>2026-02-22T12:11:04Z</time>
      </trkpt>
      <trkpt lat="43.58647" lon="6.41165">
        <ele>621.1</ele>
        <time>2026-02-22T12:11:05Z</time>
      </trkpt>
      <trkpt lat="43.58647" lon="6.41165">
        <ele>621.1</ele>
        <time>2026-02-22T12:11:06Z</time>
      </trkpt>
      <trkpt lat="43.58647" lon="6.41165">
        <ele>621.2</ele>
        <time>2026-02-22T12:11:07Z</time>
      </trkpt>
      <trkpt lat="43.58647" lon="6.41165">
        <ele>621.3</ele>
        <time>2026-02-22T12:11:08Z</time>
      </trkpt>
      <trkpt lat="43.58647" lon="6.41165">
        <ele>621.3</ele>
        <time>2026-02-22T12:11:09Z</time>
      </trkpt>
      <trkpt lat="43.58647" lon="6.41165">
        <ele>621.3</ele>
        <time>2026-02-22T12:11:10Z</time>
      </trkpt>
      <trkpt lat="43.58647" lon="6.41165">
        <ele>621.3</ele>
        <time>2026-02-22T12:11:11Z</time>
      </trkpt>
      <trkpt lat="43.58647" lon="6.41165">
        <ele>621.3</ele>
        <time>2026-02-22T12:11:12Z</time>
      </trkpt>
      <trkpt lat="43.58647" lon="6.41165">
        <ele>621.3</ele>
        <time>2026-02-22T12:11:13Z</time>
      </trkpt>
      <trkpt lat="43.58647" lon="6.41165">
        <ele>621.2</ele>
        <time>2026-02-22T12:11:14Z</time>
      </trkpt>
      <trkpt lat="43.58647" lon="6.41165">
        <ele>621.2</ele>
        <time>2026-02-22T12:11:15Z</time>
      </trkpt>
      <trkpt lat="43.58647" lon="6.41165">
        <ele>621.2</ele>
        <time>2026-02-22T12:11:16Z</time>
      </trkpt>
      <trkpt lat="43.58647" lon="6.41165">
        <ele>621.2</ele>
        <time>2026-02-22T12:11:17Z</time>
      </trkpt>
      <trkpt lat="43.58647" lon="6.41165">
        <ele>621.2</ele>
        <time>2026-02-22T12:11:18Z</time>
      </trkpt>
      <trkpt lat="43.58646" lon="6.41165">
        <ele>621.3</ele>
        <time>2026-02-22T12:11:19Z</time>
      </trkpt>
      <trkpt lat="43.58646" lon="6.41166">
        <ele>621.3</ele>
        <time>2026-02-22T12:11:20Z</time>
      </trkpt>
      <trkpt lat="43.58646" lon="6.41166">
        <ele>621.3</ele>
        <time>2026-02-22T12:11:21Z</time>
      </trkpt>
      <trkpt lat="43.58645" lon="6.41166">
        <ele>621.3</ele>
        <time>2026-02-22T12:11:22Z</time>
      </trkpt>
      <trkpt lat="43.58645" lon="6.41166">
        <ele>621.4</ele>
        <time>2026-02-22T12:11:23Z</time>
      </trkpt>
      <trkpt lat="43.58645" lon="6.41166">
        <ele>621.4</ele>
        <time>2026-02-22T12:11:24Z</time>
      </trkpt>
      <trkpt lat="43.58644" lon="6.41167">
        <ele>621.3</ele>
        <time>2026-02-22T12:11:25Z</time>
      </trkpt>
      <trkpt lat="43.58644" lon="6.41167">
        <ele>621.3</ele>
        <time>2026-02-22T12:11:26Z</time>
      </trkpt>
      <trkpt lat="43.58644" lon="6.41167">
        <ele>621.3</ele>
        <time>2026-02-22T12:11:27Z</time>
      </trkpt>
      <trkpt lat="43.58643" lon="6.41167">
        <ele>621.5</ele>
        <time>2026-02-22T12:11:28Z</time>
      </trkpt>
      <trkpt lat="43.58643" lon="6.41167">
        <ele>621.6</ele>
        <time>2026-02-22T12:11:29Z</time>
      </trkpt>
      <trkpt lat="43.58643" lon="6.41167">
        <ele>621.7</ele>
        <time>2026-02-22T12:11:30Z</time>
      </trkpt>
      <trkpt lat="43.58643" lon="6.41167">
        <ele>621.7</ele>
        <time>2026-02-22T12:11:31Z</time>
      </trkpt>
      <trkpt lat="43.58643" lon="6.41167">
        <ele>621.6</ele>
        <time>2026-02-22T12:11:32Z</time>
      </trkpt>
      <trkpt lat="43.58643" lon="6.41167">
        <ele>621.7</ele>
        <time>2026-02-22T12:11:33Z</time>
      </trkpt>
      <trkpt lat="43.58643" lon="6.41167">
        <ele>621.8</ele>
        <time>2026-02-22T12:11:34Z</time>
      </trkpt>
      <trkpt lat="43.58643" lon="6.41167">
        <ele>621.9</ele>
        <time>2026-02-22T12:11:35Z</time>
      </trkpt>
      <trkpt lat="43.58643" lon="6.41167">
        <ele>622</ele>
        <time>2026-02-22T12:11:36Z</time>
      </trkpt>
      <trkpt lat="43.58644" lon="6.41167">
        <ele>622</ele>
        <time>2026-02-22T12:11:37Z</time>
      </trkpt>
      <trkpt lat="43.58644" lon="6.41167">
        <ele>621.9</ele>
        <time>2026-02-22T12:11:38Z</time>
      </trkpt>
      <trkpt lat="43.58644" lon="6.41167">
        <ele>621.9</ele>
        <time>2026-02-22T12:11:39Z</time>
      </trkpt>
      <trkpt lat="43.58644" lon="6.41167">
        <ele>621.9</ele>
        <time>2026-02-22T12:11:40Z</time>
      </trkpt>
      <trkpt lat="43.58644" lon="6.41167">
        <ele>621.9</ele>
        <time>2026-02-22T12:11:41Z</time>
      </trkpt>
      <trkpt lat="43.58644" lon="6.41168">
        <ele>621.9</ele>
        <time>2026-02-22T12:11:42Z</time>
      </trkpt>
      <trkpt lat="43.58644" lon="6.41168">
        <ele>621.9</ele>
        <time>2026-02-22T12:11:43Z</time>
      </trkpt>
      <trkpt lat="43.58644" lon="6.41168">
        <ele>621.9</ele>
        <time>2026-02-22T12:11:44Z</time>
      </trkpt>
      <trkpt lat="43.58644" lon="6.41168">
        <ele>621.9</ele>
        <time>2026-02-22T12:11:45Z</time>
      </trkpt>
      <trkpt lat="43.58644" lon="6.41168">
        <ele>621.9</ele>
        <time>2026-02-22T12:11:46Z</time>
      </trkpt>
      <trkpt lat="43.58644" lon="6.41168">
        <ele>621.9</ele>
        <time>2026-02-22T12:11:47Z</time>
      </trkpt>
      <trkpt lat="43.58644" lon="6.41168">
        <ele>621.9</ele>
        <time>2026-02-22T12:11:48Z</time>
      </trkpt>
      <trkpt lat="43.58645" lon="6.41168">
        <ele>622</ele>
        <time>2026-02-22T12:11:49Z</time>
      </trkpt>
      <trkpt lat="43.58645" lon="6.41168">
        <ele>622</ele>
        <time>2026-02-22T12:11:50Z</time>
      </trkpt>
      <trkpt lat="43.58645" lon="6.41168">
        <ele>622</ele>
        <time>2026-02-22T12:11:51Z</time>
      </trkpt>
      <trkpt lat="43.58645" lon="6.41168">
        <ele>621.9</ele>
        <time>2026-02-22T12:11:52Z</time>
      </trkpt>
      <trkpt lat="43.58645" lon="6.41168">
        <ele>621.9</ele>
        <time>2026-02-22T12:11:53Z</time>
      </trkpt>
      <trkpt lat="43.58645" lon="6.41168">
        <ele>621.9</ele>
        <time>2026-02-22T12:11:54Z</time>
      </trkpt>
      <trkpt lat="43.58645" lon="6.41168">
        <ele>621.7</ele>
        <time>2026-02-22T12:11:55Z</time>
      </trkpt>
      <trkpt lat="43.58645" lon="6.41168">
        <ele>621.6</ele>
        <time>2026-02-22T12:11:56Z</time>
      </trkpt>
      <trkpt lat="43.58645" lon="6.41168">
        <ele>621.6</ele>
        <time>2026-02-22T12:11:57Z</time>
      </trkpt>
      <trkpt lat="43.58645" lon="6.41168">
        <ele>621.5</ele>
        <time>2026-02-22T12:11:58Z</time>
      </trkpt>
      <trkpt lat="43.58645" lon="6.41168">
        <ele>621.5</ele>
        <time>2026-02-22T12:11:59Z</time>
      </trkpt>
      <trkpt lat="43.58645" lon="6.41168">
        <ele>621.5</ele>
        <time>2026-02-22T12:12:00Z</time>
      </trkpt>
      <trkpt lat="43.58645" lon="6.41168">
        <ele>621.5</ele>
        <time>2026-02-22T12:12:01Z</time>
      </trkpt>
      <trkpt lat="43.58645" lon="6.41168">
        <ele>621.5</ele>
        <time>2026-02-22T12:12:02Z</time>
      </trkpt>
      <trkpt lat="43.58646" lon="6.41168">
        <ele>621.6</ele>
        <time>2026-02-22T12:12:03Z</time>
      </trkpt>
      <trkpt lat="43.58646" lon="6.41168">
        <ele>621.6</ele>
        <time>2026-02-22T12:12:04Z</time>
      </trkpt>
      <trkpt lat="43.58646" lon="6.41168">
        <ele>621.5</ele>
        <time>2026-02-22T12:12:05Z</time>
      </trkpt>
      <trkpt lat="43.58645" lon="6.41168">
        <ele>621.5</ele>
        <time>2026-02-22T12:12:06Z</time>
      </trkpt>
      <trkpt lat="43.58645" lon="6.41168">
        <ele>621.5</ele>
        <time>2026-02-22T12:12:07Z</time>
      </trkpt>
      <trkpt lat="43.58645" lon="6.41168">
        <ele>621.5</ele>
        <time>2026-02-22T12:12:08Z</time>
      </trkpt>
      <trkpt lat="43.58645" lon="6.41168">
        <ele>621.5</ele>
        <time>2026-02-22T12:12:09Z</time>
      </trkpt>
      <trkpt lat="43.58645" lon="6.41167">
        <ele>621.5</ele>
        <time>2026-02-22T12:12:10Z</time>
      </trkpt>
      <trkpt lat="43.58645" lon="6.41167">
        <ele>621.5</ele>
        <time>2026-02-22T12:12:11Z</time>
      </trkpt>
      <trkpt lat="43.58646" lon="6.41167">
        <ele>621.5</ele>
        <time>2026-02-22T12:12:12Z</time>
      </trkpt>
      <trkpt lat="43.58646" lon="6.41167">
        <ele>621.5</ele>
        <time>2026-02-22T12:12:13Z</time>
      </trkpt>
      <trkpt lat="43.58646" lon="6.41167">
        <ele>621.5</ele>
        <time>2026-02-22T12:12:14Z</time>
      </trkpt>
      <trkpt lat="43.58646" lon="6.41167">
        <ele>621.6</ele>
        <time>2026-02-22T12:12:15Z</time>
      </trkpt>
      <trkpt lat="43.58646" lon="6.41167">
        <ele>621.6</ele>
        <time>2026-02-22T12:12:16Z</time>
      </trkpt>
      <trkpt lat="43.58646" lon="6.41167">
        <ele>621.5</ele>
        <time>2026-02-22T12:12:17Z</time>
      </trkpt>
      <trkpt lat="43.58646" lon="6.41167">
        <ele>621.6</ele>
        <time>2026-02-22T12:12:18Z</time>
      </trkpt>
      <trkpt lat="43.58646" lon="6.41167">
        <ele>621.6</ele>
        <time>2026-02-22T12:12:19Z</time>
      </trkpt>
      <trkpt lat="43.58646" lon="6.41166">
        <ele>621.5</ele>
        <time>2026-02-22T12:12:20Z</time>
      </trkpt>
      <trkpt lat="43.58646" lon="6.41167">
        <ele>621.5</ele>
        <time>2026-02-22T12:12:21Z</time>
      </trkpt>
      <trkpt lat="43.58646" lon="6.41167">
        <ele>621.5</ele>
        <time>2026-02-22T12:12:22Z</time>
      </trkpt>
      <trkpt lat="43.58646" lon="6.41167">
        <ele>621.4</ele>
        <time>2026-02-22T12:12:23Z</time>
      </trkpt>
      <trkpt lat="43.58646" lon="6.41167">
        <ele>621.3</ele>
        <time>2026-02-22T12:12:24Z</time>
      </trkpt>
      <trkpt lat="43.58646" lon="6.41167">
        <ele>621.2</ele>
        <time>2026-02-22T12:12:25Z</time>
      </trkpt>
      <trkpt lat="43.58647" lon="6.41167">
        <ele>621.1</ele>
        <time>2026-02-22T12:12:26Z</time>
      </trkpt>
      <trkpt lat="43.58647" lon="6.41167">
        <ele>621.1</ele>
        <time>2026-02-22T12:12:27Z</time>
      </trkpt>
      <trkpt lat="43.58646" lon="6.41167">
        <ele>621.1</ele>
        <time>2026-02-22T12:12:28Z</time>
      </trkpt>
      <trkpt lat="43.58646" lon="6.41167">
        <ele>621.1</ele>
        <time>2026-02-22T12:12:29Z</time>
      </trkpt>
      <trkpt lat="43.58646" lon="6.41167">
        <ele>621.1</ele>
        <time>2026-02-22T12:12:30Z</time>
      </trkpt>
      <trkpt lat="43.58646" lon="6.41167">
        <ele>621.1</ele>
        <time>2026-02-22T12:12:31Z</time>
      </trkpt>
      <trkpt lat="43.58646" lon="6.41167">
        <ele>621.2</ele>
        <time>2026-02-22T12:12:32Z</time>
      </trkpt>
      <trkpt lat="43.58645" lon="6.41167">
        <ele>621.1</ele>
        <time>2026-02-22T12:12:33Z</time>
      </trkpt>
      <trkpt lat="43.58645" lon="6.41167">
        <ele>621.2</ele>
        <time>2026-02-22T12:12:34Z</time>
      </trkpt>
      <trkpt lat="43.58645" lon="6.41167">
        <ele>621.3</ele>
        <time>2026-02-22T12:12:35Z</time>
      </trkpt>
      <trkpt lat="43.58644" lon="6.41167">
        <ele>621.4</ele>
        <time>2026-02-22T12:12:36Z</time>
      </trkpt>
      <trkpt lat="43.58644" lon="6.41167">
        <ele>621.3</ele>
        <time>2026-02-22T12:12:37Z</time>
      </trkpt>
      <trkpt lat="43.58644" lon="6.41168">
        <ele>621.3</ele>
        <time>2026-02-22T12:12:38Z</time>
      </trkpt>
      <trkpt lat="43.58644" lon="6.41168">
        <ele>621.3</ele>
        <time>2026-02-22T12:12:39Z</time>
      </trkpt>
      <trkpt lat="43.58645" lon="6.41169">
        <ele>621.2</ele>
        <time>2026-02-22T12:12:40Z</time>
      </trkpt>
      <trkpt lat="43.58645" lon="6.41169">
        <ele>621.2</ele>
        <time>2026-02-22T12:12:41Z</time>
      </trkpt>
      <trkpt lat="43.58645" lon="6.4117">
        <ele>621.1</ele>
        <time>2026-02-22T12:12:42Z</time>
      </trkpt>
      <trkpt lat="43.58645" lon="6.4117">
        <ele>621</ele>
        <time>2026-02-22T12:12:43Z</time>
      </trkpt>
      <trkpt lat="43.58645" lon="6.4117">
        <ele>620.9</ele>
        <time>2026-02-22T12:12:44Z</time>
      </trkpt>
      <trkpt lat="43.58645" lon="6.4117">
        <ele>620.8</ele>
        <time>2026-02-22T12:12:45Z</time>
      </trkpt>
      <trkpt lat="43.58645" lon="6.4117">
        <ele>620.8</ele>
        <time>2026-02-22T12:12:46Z</time>
      </trkpt>
      <trkpt lat="43.58645" lon="6.4117">
        <ele>620.7</ele>
        <time>2026-02-22T12:12:47Z</time>
      </trkpt>
      <trkpt lat="43.58644" lon="6.4117">
        <ele>620.6</ele>
        <time>2026-02-22T12:12:48Z</time>
      </trkpt>
      <trkpt lat="43.58644" lon="6.4117">
        <ele>620.7</ele>
        <time>2026-02-22T12:12:49Z</time>
      </trkpt>
      <trkpt lat="43.58644" lon="6.4117">
        <ele>620.6</ele>
        <time>2026-02-22T12:12:50Z</time>
      </trkpt>
      <trkpt lat="43.58644" lon="6.4117">
        <ele>620.5</ele>
        <time>2026-02-22T12:12:51Z</time>
      </trkpt>
      <trkpt lat="43.58644" lon="6.4117">
        <ele>620.4</ele>
        <time>2026-02-22T12:12:52Z</time>
      </trkpt>
      <trkpt lat="43.58644" lon="6.4117">
        <ele>620.4</ele>
        <time>2026-02-22T12:12:53Z</time>
      </trkpt>
      <trkpt lat="43.58644" lon="6.4117">
        <ele>620.3</ele>
        <time>2026-02-22T12:12:54Z</time>
      </trkpt>
      <trkpt lat="43.58644" lon="6.4117">
        <ele>620.2</ele>
        <time>2026-02-22T12:12:55Z</time>
      </trkpt>
      <trkpt lat="43.58644" lon="6.4117">
        <ele>620.2</ele>
        <time>2026-02-22T12:12:56Z</time>
      </trkpt>
      <trkpt lat="43.58644" lon="6.4117">
        <ele>620.2</ele>
        <time>2026-02-22T12:12:57Z</time>
      </trkpt>
      <trkpt lat="43.58644" lon="6.41171">
        <ele>620.1</ele>
        <time>2026-02-22T12:12:58Z</time>
      </trkpt>
      <trkpt lat="43.58644" lon="6.41171">
        <ele>620.1</ele>
        <time>2026-02-22T12:12:59Z</time>
      </trkpt>
      <trkpt lat="43.58644" lon="6.41171">
        <ele>620</ele>
        <time>2026-02-22T12:13:00Z</time>
      </trkpt>
      <trkpt lat="43.58644" lon="6.41171">
        <ele>620</ele>
        <time>2026-02-22T12:13:01Z</time>
      </trkpt>
      <trkpt lat="43.58644" lon="6.41171">
        <ele>620</ele>
        <time>2026-02-22T12:13:02Z</time>
      </trkpt>
      <trkpt lat="43.58644" lon="6.41171">
        <ele>620</ele>
        <time>2026-02-22T12:13:03Z</time>
      </trkpt>
      <trkpt lat="43.58644" lon="6.41171">
        <ele>620</ele>
        <time>2026-02-22T12:13:04Z</time>
      </trkpt>
      <trkpt lat="43.58644" lon="6.41171">
        <ele>620</ele>
        <time>2026-02-22T12:13:05Z</time>
      </trkpt>
      <trkpt lat="43.58644" lon="6.41171">
        <ele>620</ele>
        <time>2026-02-22T12:13:06Z</time>
      </trkpt>
      <trkpt lat="43.58644" lon="6.41171">
        <ele>620</ele>
        <time>2026-02-22T12:13:07Z</time>
      </trkpt>
      <trkpt lat="43.58644" lon="6.41171">
        <ele>620</ele>
        <time>2026-02-22T12:13:08Z</time>
      </trkpt>
      <trkpt lat="43.58644" lon="6.41171">
        <ele>620</ele>
        <time>2026-02-22T12:13:09Z</time>
      </trkpt>
      <trkpt lat="43.58644" lon="6.41171">
        <ele>620</ele>
        <time>2026-02-22T12:13:10Z</time>
      </trkpt>
      <trkpt lat="43.58644" lon="6.41171">
        <ele>619.9</ele>
        <time>2026-02-22T12:13:11Z</time>
      </trkpt>
      <trkpt lat="43.58644" lon="6.41172">
        <ele>619.9</ele>
        <time>2026-02-22T12:13:12Z</time>
      </trkpt>
      <trkpt lat="43.58644" lon="6.41172">
        <ele>620</ele>
        <time>2026-02-22T12:13:13Z</time>
      </trkpt>
      <trkpt lat="43.58644" lon="6.41172">
        <ele>620.1</ele>
        <time>2026-02-22T12:13:14Z</time>
      </trkpt>
      <trkpt lat="43.58644" lon="6.41172">
        <ele>620.1</ele>
        <time>2026-02-22T12:13:15Z</time>
      </trkpt>
      <trkpt lat="43.58644" lon="6.41172">
        <ele>620.1</ele>
        <time>2026-02-22T12:13:16Z</time>
      </trkpt>
      <trkpt lat="43.58644" lon="6.41172">
        <ele>620.2</ele>
        <time>2026-02-22T12:13:17Z</time>
      </trkpt>
      <trkpt lat="43.58644" lon="6.41172">
        <ele>620.2</ele>
        <time>2026-02-22T12:13:18Z</time>
      </trkpt>
      <trkpt lat="43.58644" lon="6.41172">
        <ele>620.2</ele>
        <time>2026-02-22T12:13:19Z</time>
      </trkpt>
      <trkpt lat="43.58645" lon="6.41172">
        <ele>620.2</ele>
        <time>2026-02-22T12:13:20Z</time>
      </trkpt>
      <trkpt lat="43.58645" lon="6.41172">
        <ele>620.2</ele>
        <time>2026-02-22T12:13:21Z</time>
      </trkpt>
      <trkpt lat="43.58644" lon="6.41172">
        <ele>620.1</ele>
        <time>2026-02-22T12:13:22Z</time>
      </trkpt>
      <trkpt lat="43.58645" lon="6.41172">
        <ele>620.1</ele>
        <time>2026-02-22T12:13:23Z</time>
      </trkpt>
      <trkpt lat="43.58645" lon="6.41172">
        <ele>620</ele>
        <time>2026-02-22T12:13:24Z</time>
      </trkpt>
      <trkpt lat="43.58645" lon="6.41172">
        <ele>620</ele>
        <time>2026-02-22T12:13:25Z</time>
      </trkpt>
      <trkpt lat="43.58645" lon="6.41171">
        <ele>620.1</ele>
        <time>2026-02-22T12:13:26Z</time>
      </trkpt>
      <trkpt lat="43.58645" lon="6.41171">
        <ele>620.1</ele>
        <time>2026-02-22T12:13:27Z</time>
      </trkpt>
      <trkpt lat="43.58645" lon="6.41171">
        <ele>620</ele>
        <time>2026-02-22T12:13:28Z</time>
      </trkpt>
      <trkpt lat="43.58645" lon="6.41171">
        <ele>620.1</ele>
        <time>2026-02-22T12:13:29Z</time>
      </trkpt>
      <trkpt lat="43.58646" lon="6.41171">
        <ele>620.1</ele>
        <time>2026-02-22T12:13:30Z</time>
      </trkpt>
      <trkpt lat="43.58646" lon="6.41171">
        <ele>620.1</ele>
        <time>2026-02-22T12:13:31Z</time>
      </trkpt>
      <trkpt lat="43.58646" lon="6.41171">
        <ele>620.1</ele>
        <time>2026-02-22T12:13:32Z</time>
      </trkpt>
      <trkpt lat="43.58646" lon="6.41171">
        <ele>620.1</ele>
        <time>2026-02-22T12:13:33Z</time>
      </trkpt>
      <trkpt lat="43.58646" lon="6.41171">
        <ele>620.1</ele>
        <time>2026-02-22T12:13:34Z</time>
      </trkpt>
      <trkpt lat="43.58646" lon="6.41171">
        <ele>620.1</ele>
        <time>2026-02-22T12:13:35Z</time>
      </trkpt>
      <trkpt lat="43.58647" lon="6.41171">
        <ele>620.1</ele>
        <time>2026-02-22T12:13:36Z</time>
      </trkpt>
      <trkpt lat="43.58647" lon="6.41171">
        <ele>620</ele>
        <time>2026-02-22T12:13:37Z</time>
      </trkpt>
      <trkpt lat="43.58647" lon="6.41171">
        <ele>620</ele>
        <time>2026-02-22T12:13:38Z</time>
      </trkpt>
      <trkpt lat="43.58647" lon="6.41171">
        <ele>620</ele>
        <time>2026-02-22T12:13:39Z</time>
      </trkpt>
      <trkpt lat="43.58647" lon="6.41171">
        <ele>619.9</ele>
        <time>2026-02-22T12:13:40Z</time>
      </trkpt>
      <trkpt lat="43.58647" lon="6.41171">
        <ele>620</ele>
        <time>2026-02-22T12:13:41Z</time>
      </trkpt>
      <trkpt lat="43.58647" lon="6.41171">
        <ele>620</ele>
        <time>2026-02-22T12:13:42Z</time>
      </trkpt>
      <trkpt lat="43.58647" lon="6.41171">
        <ele>620</ele>
        <time>2026-02-22T12:13:43Z</time>
      </trkpt>
      <trkpt lat="43.58647" lon="6.41171">
        <ele>620</ele>
        <time>2026-02-22T12:13:44Z</time>
      </trkpt>
      <trkpt lat="43.58647" lon="6.41171">
        <ele>619.9</ele>
        <time>2026-02-22T12:13:45Z</time>
      </trkpt>
      <trkpt lat="43.58647" lon="6.41171">
        <ele>619.9</ele>
        <time>2026-02-22T12:13:46Z</time>
      </trkpt>
      <trkpt lat="43.58647" lon="6.41171">
        <ele>620</ele>
        <time>2026-02-22T12:13:47Z</time>
      </trkpt>
      <trkpt lat="43.58647" lon="6.41171">
        <ele>620</ele>
        <time>2026-02-22T12:13:48Z</time>
      </trkpt>
      <trkpt lat="43.58647" lon="6.4117">
        <ele>620.1</ele>
        <time>2026-02-22T12:13:49Z</time>
      </trkpt>
      <trkpt lat="43.58647" lon="6.4117">
        <ele>620.1</ele>
        <time>2026-02-22T12:13:50Z</time>
      </trkpt>
      <trkpt lat="43.58646" lon="6.4117">
        <ele>620</ele>
        <time>2026-02-22T12:13:51Z</time>
      </trkpt>
      <trkpt lat="43.58646" lon="6.4117">
        <ele>620</ele>
        <time>2026-02-22T12:13:52Z</time>
      </trkpt>
      <trkpt lat="43.58647" lon="6.4117">
        <ele>620</ele>
        <time>2026-02-22T12:13:53Z</time>
      </trkpt>
      <trkpt lat="43.58647" lon="6.4117">
        <ele>620</ele>
        <time>2026-02-22T12:13:54Z</time>
      </trkpt>
      <trkpt lat="43.58647" lon="6.4117">
        <ele>620</ele>
        <time>2026-02-22T12:13:55Z</time>
      </trkpt>
      <trkpt lat="43.58647" lon="6.41171">
        <ele>620</ele>
        <time>2026-02-22T12:13:56Z</time>
      </trkpt>
      <trkpt lat="43.58647" lon="6.41171">
        <ele>620.1</ele>
        <time>2026-02-22T12:13:57Z</time>
      </trkpt>
      <trkpt lat="43.58647" lon="6.41171">
        <ele>620.1</ele>
        <time>2026-02-22T12:13:58Z</time>
      </trkpt>
      <trkpt lat="43.58647" lon="6.41171">
        <ele>620.1</ele>
        <time>2026-02-22T12:13:59Z</time>
      </trkpt>
      <trkpt lat="43.58647" lon="6.41171">
        <ele>620.1</ele>
        <time>2026-02-22T12:14:00Z</time>
      </trkpt>
      <trkpt lat="43.58647" lon="6.41171">
        <ele>620.2</ele>
        <time>2026-02-22T12:14:01Z</time>
      </trkpt>
      <trkpt lat="43.58647" lon="6.41171">
        <ele>620.2</ele>
        <time>2026-02-22T12:14:02Z</time>
      </trkpt>
      <trkpt lat="43.58647" lon="6.41171">
        <ele>620.3</ele>
        <time>2026-02-22T12:14:03Z</time>
      </trkpt>
      <trkpt lat="43.58647" lon="6.41172">
        <ele>620.1</ele>
        <time>2026-02-22T12:14:04Z</time>
      </trkpt>
      <trkpt lat="43.58647" lon="6.41172">
        <ele>620.1</ele>
        <time>2026-02-22T12:14:05Z</time>
      </trkpt>
      <trkpt lat="43.58647" lon="6.41171">
        <ele>620.1</ele>
        <time>2026-02-22T12:14:06Z</time>
      </trkpt>
      <trkpt lat="43.58647" lon="6.41171">
        <ele>620.2</ele>
        <time>2026-02-22T12:14:07Z</time>
      </trkpt>
      <trkpt lat="43.58647" lon="6.41171">
        <ele>620.2</ele>
        <time>2026-02-22T12:14:08Z</time>
      </trkpt>
      <trkpt lat="43.58647" lon="6.41171">
        <ele>620.1</ele>
        <time>2026-02-22T12:14:09Z</time>
      </trkpt>
      <trkpt lat="43.58648" lon="6.41172">
        <ele>620.1</ele>
        <time>2026-02-22T12:14:10Z</time>
      </trkpt>
      <trkpt lat="43.58648" lon="6.41172">
        <ele>620.1</ele>
        <time>2026-02-22T12:14:11Z</time>
      </trkpt>
      <trkpt lat="43.58648" lon="6.41172">
        <ele>620.1</ele>
        <time>2026-02-22T12:14:12Z</time>
      </trkpt>
      <trkpt lat="43.58648" lon="6.41172">
        <ele>620</ele>
        <time>2026-02-22T12:14:13Z</time>
      </trkpt>
      <trkpt lat="43.58648" lon="6.41172">
        <ele>620</ele>
        <time>2026-02-22T12:14:14Z</time>
      </trkpt>
      <trkpt lat="43.58648" lon="6.41172">
        <ele>620</ele>
        <time>2026-02-22T12:14:15Z</time>
      </trkpt>
      <trkpt lat="43.58648" lon="6.41173">
        <ele>619.9</ele>
        <time>2026-02-22T12:14:16Z</time>
      </trkpt>
      <trkpt lat="43.58648" lon="6.41173">
        <ele>619.9</ele>
        <time>2026-02-22T12:14:17Z</time>
      </trkpt>
      <trkpt lat="43.58648" lon="6.41173">
        <ele>619.9</ele>
        <time>2026-02-22T12:14:18Z</time>
      </trkpt>
      <trkpt lat="43.58648" lon="6.41173">
        <ele>619.9</ele>
        <time>2026-02-22T12:14:19Z</time>
      </trkpt>
      <trkpt lat="43.58648" lon="6.41173">
        <ele>619.9</ele>
        <time>2026-02-22T12:14:20Z</time>
      </trkpt>
      <trkpt lat="43.58648" lon="6.41173">
        <ele>619.9</ele>
        <time>2026-02-22T12:14:21Z</time>
      </trkpt>
      <trkpt lat="43.58648" lon="6.41173">
        <ele>619.9</ele>
        <time>2026-02-22T12:14:22Z</time>
      </trkpt>
      <trkpt lat="43.58648" lon="6.41173">
        <ele>619.9</ele>
        <time>2026-02-22T12:14:23Z</time>
      </trkpt>
      <trkpt lat="43.58648" lon="6.41173">
        <ele>619.9</ele>
        <time>2026-02-22T12:14:24Z</time>
      </trkpt>
      <trkpt lat="43.58648" lon="6.41173">
        <ele>619.8</ele>
        <time>2026-02-22T12:14:25Z</time>
      </trkpt>
      <trkpt lat="43.58647" lon="6.41173">
        <ele>619.7</ele>
        <time>2026-02-22T12:14:26Z</time>
      </trkpt>
      <trkpt lat="43.58647" lon="6.41172">
        <ele>619.8</ele>
        <time>2026-02-22T12:14:27Z</time>
      </trkpt>
      <trkpt lat="43.58647" lon="6.41172">
        <ele>619.8</ele>
        <time>2026-02-22T12:14:28Z</time>
      </trkpt>
      <trkpt lat="43.58647" lon="6.41172">
        <ele>619.8</ele>
        <time>2026-02-22T12:14:29Z</time>
      </trkpt>
      <trkpt lat="43.58647" lon="6.41172">
        <ele>619.9</ele>
        <time>2026-02-22T12:14:30Z</time>
      </trkpt>
      <trkpt lat="43.58647" lon="6.41171">
        <ele>620</ele>
        <time>2026-02-22T12:14:31Z</time>
      </trkpt>
      <trkpt lat="43.58646" lon="6.41171">
        <ele>620.1</ele>
        <time>2026-02-22T12:14:32Z</time>
      </trkpt>
      <trkpt lat="43.58646" lon="6.41171">
        <ele>620.1</ele>
        <time>2026-02-22T12:14:33Z</time>
      </trkpt>
      <trkpt lat="43.58646" lon="6.4117">
        <ele>620.1</ele>
        <time>2026-02-22T12:14:34Z</time>
      </trkpt>
      <trkpt lat="43.58645" lon="6.4117">
        <ele>620.2</ele>
        <time>2026-02-22T12:14:35Z</time>
      </trkpt>
      <trkpt lat="43.58645" lon="6.4117">
        <ele>620.3</ele>
        <time>2026-02-22T12:14:36Z</time>
      </trkpt>
      <trkpt lat="43.58645" lon="6.4117">
        <ele>620.4</ele>
        <time>2026-02-22T12:14:37Z</time>
      </trkpt>
      <trkpt lat="43.58644" lon="6.4117">
        <ele>620.4</ele>
        <time>2026-02-22T12:14:38Z</time>
      </trkpt>
      <trkpt lat="43.58644" lon="6.4117">
        <ele>620.5</ele>
        <time>2026-02-22T12:14:39Z</time>
      </trkpt>
      <trkpt lat="43.58644" lon="6.4117">
        <ele>620.5</ele>
        <time>2026-02-22T12:14:40Z</time>
      </trkpt>
      <trkpt lat="43.58644" lon="6.4117">
        <ele>620.6</ele>
        <time>2026-02-22T12:14:41Z</time>
      </trkpt>
      <trkpt lat="43.58645" lon="6.4117">
        <ele>620.7</ele>
        <time>2026-02-22T12:14:42Z</time>
      </trkpt>
      <trkpt lat="43.58645" lon="6.4117">
        <ele>620.7</ele>
        <time>2026-02-22T12:14:43Z</time>
      </trkpt>
      <trkpt lat="43.58645" lon="6.4117">
        <ele>620.8</ele>
        <time>2026-02-22T12:14:44Z</time>
      </trkpt>
      <trkpt lat="43.58645" lon="6.4117">
        <ele>620.7</ele>
        <time>2026-02-22T12:14:45Z</time>
      </trkpt>
      <trkpt lat="43.58645" lon="6.41169">
        <ele>620.8</ele>
        <time>2026-02-22T12:14:46Z</time>
      </trkpt>
      <trkpt lat="43.58644" lon="6.41169">
        <ele>620.8</ele>
        <time>2026-02-22T12:14:47Z</time>
      </trkpt>
      <trkpt lat="43.58644" lon="6.41169">
        <ele>620.9</ele>
        <time>2026-02-22T12:14:48Z</time>
      </trkpt>
      <trkpt lat="43.58644" lon="6.41169">
        <ele>620.8</ele>
        <time>2026-02-22T12:14:49Z</time>
      </trkpt>
      <trkpt lat="43.58644" lon="6.41169">
        <ele>620.8</ele>
        <time>2026-02-22T12:14:50Z</time>
      </trkpt>
      <trkpt lat="43.58644" lon="6.41169">
        <ele>620.7</ele>
        <time>2026-02-22T12:14:51Z</time>
      </trkpt>
      <trkpt lat="43.58644" lon="6.41169">
        <ele>620.6</ele>
        <time>2026-02-22T12:14:52Z</time>
      </trkpt>
      <trkpt lat="43.58644" lon="6.41169">
        <ele>620.6</ele>
        <time>2026-02-22T12:14:53Z</time>
      </trkpt>
      <trkpt lat="43.58644" lon="6.41169">
        <ele>620.6</ele>
        <time>2026-02-22T12:14:54Z</time>
      </trkpt>
      <trkpt lat="43.58645" lon="6.41169">
        <ele>620.7</ele>
        <time>2026-02-22T12:14:55Z</time>
      </trkpt>
      <trkpt lat="43.58645" lon="6.41169">
        <ele>620.7</ele>
        <time>2026-02-22T12:14:56Z</time>
      </trkpt>
      <trkpt lat="43.58645" lon="6.41169">
        <ele>620.7</ele>
        <time>2026-02-22T12:14:57Z</time>
      </trkpt>
      <trkpt lat="43.58645" lon="6.41169">
        <ele>620.6</ele>
        <time>2026-02-22T12:14:58Z</time>
      </trkpt>
      <trkpt lat="43.58645" lon="6.41169">
        <ele>620.6</ele>
        <time>2026-02-22T12:14:59Z</time>
      </trkpt>
      <trkpt lat="43.58645" lon="6.41169">
        <ele>620.6</ele>
        <time>2026-02-22T12:15:00Z</time>
      </trkpt>
      <trkpt lat="43.58645" lon="6.41169">
        <ele>620.6</ele>
        <time>2026-02-22T12:15:01Z</time>
      </trkpt>
      <trkpt lat="43.58645" lon="6.41169">
        <ele>620.6</ele>
        <time>2026-02-22T12:15:02Z</time>
      </trkpt>
      <trkpt lat="43.58645" lon="6.41169">
        <ele>620.6</ele>
        <time>2026-02-22T12:15:03Z</time>
      </trkpt>
      <trkpt lat="43.58645" lon="6.41169">
        <ele>620.5</ele>
        <time>2026-02-22T12:15:04Z</time>
      </trkpt>
      <trkpt lat="43.58645" lon="6.41169">
        <ele>620.5</ele>
        <time>2026-02-22T12:15:05Z</time>
      </trkpt>
      <trkpt lat="43.58645" lon="6.41169">
        <ele>620.5</ele>
        <time>2026-02-22T12:15:06Z</time>
      </trkpt>
      <trkpt lat="43.58645" lon="6.41169">
        <ele>620.5</ele>
        <time>2026-02-22T12:15:07Z</time>
      </trkpt>
      <trkpt lat="43.58645" lon="6.41169">
        <ele>620.5</ele>
        <time>2026-02-22T12:15:08Z</time>
      </trkpt>
      <trkpt lat="43.58645" lon="6.41169">
        <ele>620.6</ele>
        <time>2026-02-22T12:15:09Z</time>
      </trkpt>
      <trkpt lat="43.58645" lon="6.41169">
        <ele>620.5</ele>
        <time>2026-02-22T12:15:10Z</time>
      </trkpt>
      <trkpt lat="43.58644" lon="6.41169">
        <ele>620.5</ele>
        <time>2026-02-22T12:15:11Z</time>
      </trkpt>
      <trkpt lat="43.58644" lon="6.41169">
        <ele>620.4</ele>
        <time>2026-02-22T12:15:12Z</time>
      </trkpt>
      <trkpt lat="43.58644" lon="6.4117">
        <ele>620.5</ele>
        <time>2026-02-22T12:15:13Z</time>
      </trkpt>
      <trkpt lat="43.58643" lon="6.4117">
        <ele>620.5</ele>
        <time>2026-02-22T12:15:14Z</time>
      </trkpt>
      <trkpt lat="43.58643" lon="6.4117">
        <ele>620.5</ele>
        <time>2026-02-22T12:15:15Z</time>
      </trkpt>
      <trkpt lat="43.58643" lon="6.4117">
        <ele>620.4</ele>
        <time>2026-02-22T12:15:16Z</time>
      </trkpt>
      <trkpt lat="43.58643" lon="6.41169">
        <ele>620.4</ele>
        <time>2026-02-22T12:15:17Z</time>
      </trkpt>
      <trkpt lat="43.58643" lon="6.41169">
        <ele>620.5</ele>
        <time>2026-02-22T12:15:18Z</time>
      </trkpt>
      <trkpt lat="43.58642" lon="6.41168">
        <ele>620.5</ele>
        <time>2026-02-22T12:15:19Z</time>
      </trkpt>
      <trkpt lat="43.58642" lon="6.41168">
        <ele>620.6</ele>
        <time>2026-02-22T12:15:20Z</time>
      </trkpt>
      <trkpt lat="43.58641" lon="6.41167">
        <ele>620.7</ele>
        <time>2026-02-22T12:15:21Z</time>
      </trkpt>
      <trkpt lat="43.58641" lon="6.41167">
        <ele>620.8</ele>
        <time>2026-02-22T12:15:22Z</time>
      </trkpt>
      <trkpt lat="43.5864" lon="6.41166">
        <ele>620.8</ele>
        <time>2026-02-22T12:15:23Z</time>
      </trkpt>
      <trkpt lat="43.5864" lon="6.41165">
        <ele>620.9</ele>
        <time>2026-02-22T12:15:24Z</time>
      </trkpt>
      <trkpt lat="43.5864" lon="6.41165">
        <ele>620.9</ele>
        <time>2026-02-22T12:15:25Z</time>
      </trkpt>
      <trkpt lat="43.5864" lon="6.41164">
        <ele>620.9</ele>
        <time>2026-02-22T12:15:26Z</time>
      </trkpt>
      <trkpt lat="43.5864" lon="6.41164">
        <ele>621.1</ele>
        <time>2026-02-22T12:15:27Z</time>
      </trkpt>
      <trkpt lat="43.58639" lon="6.41163">
        <ele>621.2</ele>
        <time>2026-02-22T12:15:28Z</time>
      </trkpt>
      <trkpt lat="43.58639" lon="6.41162">
        <ele>621.3</ele>
        <time>2026-02-22T12:15:29Z</time>
      </trkpt>
      <trkpt lat="43.58639" lon="6.41162">
        <ele>621.3</ele>
        <time>2026-02-22T12:15:30Z</time>
      </trkpt>
      <trkpt lat="43.58639" lon="6.41161">
        <ele>621.4</ele>
        <time>2026-02-22T12:15:31Z</time>
      </trkpt>
      <trkpt lat="43.58639" lon="6.41161">
        <ele>621.5</ele>
        <time>2026-02-22T12:15:32Z</time>
      </trkpt>
      <trkpt lat="43.58638" lon="6.41161">
        <ele>621.6</ele>
        <time>2026-02-22T12:15:33Z</time>
      </trkpt>
      <trkpt lat="43.58638" lon="6.4116">
        <ele>621.7</ele>
        <time>2026-02-22T12:15:34Z</time>
      </trkpt>
      <trkpt lat="43.58637" lon="6.4116">
        <ele>621.7</ele>
        <time>2026-02-22T12:15:35Z</time>
      </trkpt>
      <trkpt lat="43.58637" lon="6.41159">
        <ele>621.8</ele>
        <time>2026-02-22T12:15:36Z</time>
      </trkpt>
      <trkpt lat="43.58637" lon="6.41159">
        <ele>621.8</ele>
        <time>2026-02-22T12:15:37Z</time>
      </trkpt>
      <trkpt lat="43.58637" lon="6.41159">
        <ele>621.8</ele>
        <time>2026-02-22T12:15:38Z</time>
      </trkpt>
      <trkpt lat="43.58636" lon="6.41159">
        <ele>621.9</ele>
        <time>2026-02-22T12:15:39Z</time>
      </trkpt>
      <trkpt lat="43.58636" lon="6.41158">
        <ele>621.9</ele>
        <time>2026-02-22T12:15:40Z</time>
      </trkpt>
      <trkpt lat="43.58636" lon="6.41158">
        <ele>622.1</ele>
        <time>2026-02-22T12:15:41Z</time>
      </trkpt>
      <trkpt lat="43.58635" lon="6.41158">
        <ele>622.2</ele>
        <time>2026-02-22T12:15:42Z</time>
      </trkpt>
      <trkpt lat="43.58635" lon="6.41157">
        <ele>622.3</ele>
        <time>2026-02-22T12:15:43Z</time>
      </trkpt>
      <trkpt lat="43.58635" lon="6.41157">
        <ele>622.3</ele>
        <time>2026-02-22T12:15:44Z</time>
      </trkpt>
      <trkpt lat="43.58634" lon="6.41156">
        <ele>622.4</ele>
        <time>2026-02-22T12:15:45Z</time>
      </trkpt>
      <trkpt lat="43.58633" lon="6.41156">
        <ele>622.5</ele>
        <time>2026-02-22T12:15:46Z</time>
      </trkpt>
      <trkpt lat="43.58633" lon="6.41155">
        <ele>622.5</ele>
        <time>2026-02-22T12:15:47Z</time>
      </trkpt>
      <trkpt lat="43.58632" lon="6.41155">
        <ele>622.6</ele>
        <time>2026-02-22T12:15:48Z</time>
      </trkpt>
      <trkpt lat="43.58631" lon="6.41155">
        <ele>622.7</ele>
        <time>2026-02-22T12:15:49Z</time>
      </trkpt>
      <trkpt lat="43.58631" lon="6.41155">
        <ele>622.8</ele>
        <time>2026-02-22T12:15:50Z</time>
      </trkpt>
      <trkpt lat="43.5863" lon="6.41155">
        <ele>622.8</ele>
        <time>2026-02-22T12:15:51Z</time>
      </trkpt>
      <trkpt lat="43.5863" lon="6.41154">
        <ele>622.9</ele>
        <time>2026-02-22T12:15:52Z</time>
      </trkpt>
      <trkpt lat="43.5863" lon="6.41154">
        <ele>623</ele>
        <time>2026-02-22T12:15:53Z</time>
      </trkpt>
      <trkpt lat="43.58629" lon="6.41154">
        <ele>623.1</ele>
        <time>2026-02-22T12:15:54Z</time>
      </trkpt>
      <trkpt lat="43.58629" lon="6.41154">
        <ele>623.2</ele>
        <time>2026-02-22T12:15:55Z</time>
      </trkpt>
      <trkpt lat="43.58628" lon="6.41153">
        <ele>623.3</ele>
        <time>2026-02-22T12:15:56Z</time>
      </trkpt>
      <trkpt lat="43.58628" lon="6.41153">
        <ele>623.4</ele>
        <time>2026-02-22T12:15:57Z</time>
      </trkpt>
      <trkpt lat="43.58627" lon="6.41153">
        <ele>623.5</ele>
        <time>2026-02-22T12:15:58Z</time>
      </trkpt>
      <trkpt lat="43.58627" lon="6.41153">
        <ele>623.6</ele>
        <time>2026-02-22T12:15:59Z</time>
      </trkpt>
      <trkpt lat="43.58626" lon="6.41152">
        <ele>623.7</ele>
        <time>2026-02-22T12:16:00Z</time>
      </trkpt>
      <trkpt lat="43.58626" lon="6.41152">
        <ele>623.8</ele>
        <time>2026-02-22T12:16:01Z</time>
      </trkpt>
      <trkpt lat="43.58626" lon="6.41151">
        <ele>623.9</ele>
        <time>2026-02-22T12:16:02Z</time>
      </trkpt>
      <trkpt lat="43.58625" lon="6.4115">
        <ele>624</ele>
        <time>2026-02-22T12:16:03Z</time>
      </trkpt>
      <trkpt lat="43.58624" lon="6.41149">
        <ele>624.2</ele>
        <time>2026-02-22T12:16:04Z</time>
      </trkpt>
      <trkpt lat="43.58624" lon="6.41149">
        <ele>624.3</ele>
        <time>2026-02-22T12:16:05Z</time>
      </trkpt>
      <trkpt lat="43.58623" lon="6.41148">
        <ele>624.4</ele>
        <time>2026-02-22T12:16:06Z</time>
      </trkpt>
      <trkpt lat="43.58622" lon="6.41148">
        <ele>624.5</ele>
        <time>2026-02-22T12:16:07Z</time>
      </trkpt>
      <trkpt lat="43.58621" lon="6.41147">
        <ele>624.6</ele>
        <time>2026-02-22T12:16:08Z</time>
      </trkpt>
      <trkpt lat="43.5862" lon="6.41146">
        <ele>624.7</ele>
        <time>2026-02-22T12:16:09Z</time>
      </trkpt>
      <trkpt lat="43.5862" lon="6.41146">
        <ele>624.8</ele>
        <time>2026-02-22T12:16:10Z</time>
      </trkpt>
      <trkpt lat="43.58619" lon="6.41146">
        <ele>624.9</ele>
        <time>2026-02-22T12:16:11Z</time>
      </trkpt>
      <trkpt lat="43.58618" lon="6.41146">
        <ele>624.9</ele>
        <time>2026-02-22T12:16:12Z</time>
      </trkpt>
      <trkpt lat="43.58617" lon="6.41146">
        <ele>625</ele>
        <time>2026-02-22T12:16:13Z</time>
      </trkpt>
      <trkpt lat="43.58616" lon="6.41146">
        <ele>625</ele>
        <time>2026-02-22T12:16:14Z</time>
      </trkpt>
      <trkpt lat="43.58616" lon="6.41146">
        <ele>625.2</ele>
        <time>2026-02-22T12:16:15Z</time>
      </trkpt>
      <trkpt lat="43.58615" lon="6.41146">
        <ele>625.2</ele>
        <time>2026-02-22T12:16:16Z</time>
      </trkpt>
      <trkpt lat="43.58614" lon="6.41145">
        <ele>625.3</ele>
        <time>2026-02-22T12:16:17Z</time>
      </trkpt>
      <trkpt lat="43.58613" lon="6.41144">
        <ele>625.3</ele>
        <time>2026-02-22T12:16:18Z</time>
      </trkpt>
      <trkpt lat="43.58612" lon="6.41144">
        <ele>625.5</ele>
        <time>2026-02-22T12:16:19Z</time>
      </trkpt>
      <trkpt lat="43.58611" lon="6.41143">
        <ele>625.5</ele>
        <time>2026-02-22T12:16:20Z</time>
      </trkpt>
      <trkpt lat="43.58611" lon="6.41142">
        <ele>625.6</ele>
        <time>2026-02-22T12:16:21Z</time>
      </trkpt>
      <trkpt lat="43.5861" lon="6.41141">
        <ele>625.6</ele>
        <time>2026-02-22T12:16:22Z</time>
      </trkpt>
      <trkpt lat="43.58609" lon="6.41141">
        <ele>625.6</ele>
        <time>2026-02-22T12:16:23Z</time>
      </trkpt>
      <trkpt lat="43.58609" lon="6.4114">
        <ele>625.7</ele>
        <time>2026-02-22T12:16:24Z</time>
      </trkpt>
      <trkpt lat="43.58607" lon="6.41139">
        <ele>625.6</ele>
        <time>2026-02-22T12:16:25Z</time>
      </trkpt>
      <trkpt lat="43.58607" lon="6.41139">
        <ele>625.6</ele>
        <time>2026-02-22T12:16:26Z</time>
      </trkpt>
      <trkpt lat="43.58605" lon="6.41138">
        <ele>625.6</ele>
        <time>2026-02-22T12:16:27Z</time>
      </trkpt>
      <trkpt lat="43.58604" lon="6.41138">
        <ele>625.6</ele>
        <time>2026-02-22T12:16:28Z</time>
      </trkpt>
      <trkpt lat="43.58603" lon="6.41138">
        <ele>625.6</ele>
        <time>2026-02-22T12:16:29Z</time>
      </trkpt>
      <trkpt lat="43.58602" lon="6.41138">
        <ele>625.5</ele>
        <time>2026-02-22T12:16:30Z</time>
      </trkpt>
      <trkpt lat="43.58602" lon="6.41138">
        <ele>625.5</ele>
        <time>2026-02-22T12:16:31Z</time>
      </trkpt>
      <trkpt lat="43.58601" lon="6.41138">
        <ele>625.5</ele>
        <time>2026-02-22T12:16:32Z</time>
      </trkpt>
      <trkpt lat="43.586" lon="6.41138">
        <ele>625.4</ele>
        <time>2026-02-22T12:16:33Z</time>
      </trkpt>
      <trkpt lat="43.58599" lon="6.41138">
        <ele>625.4</ele>
        <time>2026-02-22T12:16:34Z</time>
      </trkpt>
      <trkpt lat="43.58598" lon="6.41137">
        <ele>625.4</ele>
        <time>2026-02-22T12:16:35Z</time>
      </trkpt>
      <trkpt lat="43.58597" lon="6.41137">
        <ele>625.3</ele>
        <time>2026-02-22T12:16:36Z</time>
      </trkpt>
      <trkpt lat="43.58597" lon="6.41137">
        <ele>625.3</ele>
        <time>2026-02-22T12:16:37Z</time>
      </trkpt>
      <trkpt lat="43.58596" lon="6.41137">
        <ele>625.3</ele>
        <time>2026-02-22T12:16:38Z</time>
      </trkpt>
      <trkpt lat="43.58595" lon="6.41136">
        <ele>625.3</ele>
        <time>2026-02-22T12:16:39Z</time>
      </trkpt>
      <trkpt lat="43.58594" lon="6.41136">
        <ele>625.3</ele>
        <time>2026-02-22T12:16:40Z</time>
      </trkpt>
      <trkpt lat="43.58593" lon="6.41135">
        <ele>625.3</ele>
        <time>2026-02-22T12:16:41Z</time>
      </trkpt>
      <trkpt lat="43.58593" lon="6.41135">
        <ele>625.3</ele>
        <time>2026-02-22T12:16:42Z</time>
      </trkpt>
      <trkpt lat="43.58591" lon="6.41134">
        <ele>625.3</ele>
        <time>2026-02-22T12:16:43Z</time>
      </trkpt>
      <trkpt lat="43.5859" lon="6.41134">
        <ele>625.3</ele>
        <time>2026-02-22T12:16:44Z</time>
      </trkpt>
      <trkpt lat="43.58589" lon="6.41134">
        <ele>625.3</ele>
        <time>2026-02-22T12:16:45Z</time>
      </trkpt>
      <trkpt lat="43.58588" lon="6.41134">
        <ele>625.3</ele>
        <time>2026-02-22T12:16:46Z</time>
      </trkpt>
      <trkpt lat="43.58588" lon="6.41135">
        <ele>625.2</ele>
        <time>2026-02-22T12:16:47Z</time>
      </trkpt>
      <trkpt lat="43.58587" lon="6.41135">
        <ele>625.1</ele>
        <time>2026-02-22T12:16:48Z</time>
      </trkpt>
      <trkpt lat="43.58586" lon="6.41135">
        <ele>625.1</ele>
        <time>2026-02-22T12:16:49Z</time>
      </trkpt>
      <trkpt lat="43.58585" lon="6.41136">
        <ele>625</ele>
        <time>2026-02-22T12:16:50Z</time>
      </trkpt>
      <trkpt lat="43.58585" lon="6.41137">
        <ele>625.1</ele>
        <time>2026-02-22T12:16:51Z</time>
      </trkpt>
      <trkpt lat="43.58584" lon="6.41137">
        <ele>625.1</ele>
        <time>2026-02-22T12:16:52Z</time>
      </trkpt>
      <trkpt lat="43.58584" lon="6.41138">
        <ele>625.1</ele>
        <time>2026-02-22T12:16:53Z</time>
      </trkpt>
      <trkpt lat="43.58584" lon="6.41138">
        <ele>625.1</ele>
        <time>2026-02-22T12:16:54Z</time>
      </trkpt>
      <trkpt lat="43.58584" lon="6.41139">
        <ele>625.1</ele>
        <time>2026-02-22T12:16:55Z</time>
      </trkpt>
      <trkpt lat="43.58584" lon="6.41138">
        <ele>625</ele>
        <time>2026-02-22T12:16:56Z</time>
      </trkpt>
      <trkpt lat="43.58583" lon="6.41139">
        <ele>625</ele>
        <time>2026-02-22T12:16:57Z</time>
      </trkpt>
      <trkpt lat="43.58583" lon="6.41139">
        <ele>625</ele>
        <time>2026-02-22T12:16:58Z</time>
      </trkpt>
      <trkpt lat="43.58582" lon="6.41138">
        <ele>625</ele>
        <time>2026-02-22T12:16:59Z</time>
      </trkpt>
      <trkpt lat="43.58582" lon="6.41139">
        <ele>625.1</ele>
        <time>2026-02-22T12:17:00Z</time>
      </trkpt>
      <trkpt lat="43.58581" lon="6.41139">
        <ele>625.1</ele>
        <time>2026-02-22T12:17:01Z</time>
      </trkpt>
      <trkpt lat="43.58581" lon="6.41139">
        <ele>625.2</ele>
        <time>2026-02-22T12:17:02Z</time>
      </trkpt>
      <trkpt lat="43.58581" lon="6.41139">
        <ele>625.2</ele>
        <time>2026-02-22T12:17:03Z</time>
      </trkpt>
      <trkpt lat="43.5858" lon="6.41139">
        <ele>625.3</ele>
        <time>2026-02-22T12:17:04Z</time>
      </trkpt>
      <trkpt lat="43.5858" lon="6.4114">
        <ele>625.3</ele>
        <time>2026-02-22T12:17:05Z</time>
      </trkpt>
      <trkpt lat="43.5858" lon="6.4114">
        <ele>625.3</ele>
        <time>2026-02-22T12:17:06Z</time>
      </trkpt>
      <trkpt lat="43.58579" lon="6.41141">
        <ele>625.2</ele>
        <time>2026-02-22T12:17:07Z</time>
      </trkpt>
      <trkpt lat="43.5858" lon="6.41141">
        <ele>625.2</ele>
        <time>2026-02-22T12:17:08Z</time>
      </trkpt>
      <trkpt lat="43.5858" lon="6.41142">
        <ele>625.1</ele>
        <time>2026-02-22T12:17:09Z</time>
      </trkpt>
      <trkpt lat="43.5858" lon="6.41142">
        <ele>625.1</ele>
        <time>2026-02-22T12:17:10Z</time>
      </trkpt>
      <trkpt lat="43.5858" lon="6.41142">
        <ele>625</ele>
        <time>2026-02-22T12:17:11Z</time>
      </trkpt>
      <trkpt lat="43.5858" lon="6.41142">
        <ele>625</ele>
        <time>2026-02-22T12:17:12Z</time>
      </trkpt>
      <trkpt lat="43.5858" lon="6.41142">
        <ele>624.9</ele>
        <time>2026-02-22T12:17:13Z</time>
      </trkpt>
      <trkpt lat="43.5858" lon="6.41142">
        <ele>625</ele>
        <time>2026-02-22T12:17:14Z</time>
      </trkpt>
      <trkpt lat="43.5858" lon="6.41142">
        <ele>624.9</ele>
        <time>2026-02-22T12:17:15Z</time>
      </trkpt>
      <trkpt lat="43.58579" lon="6.41142">
        <ele>624.9</ele>
        <time>2026-02-22T12:17:16Z</time>
      </trkpt>
      <trkpt lat="43.58579" lon="6.41142">
        <ele>624.9</ele>
        <time>2026-02-22T12:17:17Z</time>
      </trkpt>
      <trkpt lat="43.58579" lon="6.41142">
        <ele>624.8</ele>
        <time>2026-02-22T12:17:18Z</time>
      </trkpt>
      <trkpt lat="43.58579" lon="6.41143">
        <ele>624.8</ele>
        <time>2026-02-22T12:17:19Z</time>
      </trkpt>
      <trkpt lat="43.58579" lon="6.41143">
        <ele>624.8</ele>
        <time>2026-02-22T12:17:20Z</time>
      </trkpt>
      <trkpt lat="43.58579" lon="6.41143">
        <ele>624.8</ele>
        <time>2026-02-22T12:17:21Z</time>
      </trkpt>
      <trkpt lat="43.58579" lon="6.41143">
        <ele>624.8</ele>
        <time>2026-02-22T12:17:22Z</time>
      </trkpt>
      <trkpt lat="43.58579" lon="6.41143">
        <ele>624.8</ele>
        <time>2026-02-22T12:17:23Z</time>
      </trkpt>
      <trkpt lat="43.58579" lon="6.41143">
        <ele>624.8</ele>
        <time>2026-02-22T12:17:24Z</time>
      </trkpt>
      <trkpt lat="43.58578" lon="6.41143">
        <ele>624.8</ele>
        <time>2026-02-22T12:17:25Z</time>
      </trkpt>
      <trkpt lat="43.58578" lon="6.41143">
        <ele>624.8</ele>
        <time>2026-02-22T12:17:26Z</time>
      </trkpt>
      <trkpt lat="43.58578" lon="6.41143">
        <ele>624.8</ele>
        <time>2026-02-22T12:17:27Z</time>
      </trkpt>
      <trkpt lat="43.58578" lon="6.41143">
        <ele>624.8</ele>
        <time>2026-02-22T12:17:28Z</time>
      </trkpt>
      <trkpt lat="43.58578" lon="6.41144">
        <ele>624.8</ele>
        <time>2026-02-22T12:17:29Z</time>
      </trkpt>
      <trkpt lat="43.58578" lon="6.41144">
        <ele>624.8</ele>
        <time>2026-02-22T12:17:30Z</time>
      </trkpt>
      <trkpt lat="43.58578" lon="6.41144">
        <ele>624.7</ele>
        <time>2026-02-22T12:17:31Z</time>
      </trkpt>
      <trkpt lat="43.58578" lon="6.41144">
        <ele>624.8</ele>
        <time>2026-02-22T12:17:32Z</time>
      </trkpt>
      <trkpt lat="43.58578" lon="6.41144">
        <ele>624.8</ele>
        <time>2026-02-22T12:17:33Z</time>
      </trkpt>
      <trkpt lat="43.58578" lon="6.41144">
        <ele>624.8</ele>
        <time>2026-02-22T12:17:34Z</time>
      </trkpt>
      <trkpt lat="43.58578" lon="6.41144">
        <ele>624.7</ele>
        <time>2026-02-22T12:17:35Z</time>
      </trkpt>
      <trkpt lat="43.58578" lon="6.41144">
        <ele>624.7</ele>
        <time>2026-02-22T12:17:36Z</time>
      </trkpt>
      <trkpt lat="43.58578" lon="6.41144">
        <ele>624.7</ele>
        <time>2026-02-22T12:17:37Z</time>
      </trkpt>
      <trkpt lat="43.58578" lon="6.41144">
        <ele>624.7</ele>
        <time>2026-02-22T12:17:38Z</time>
      </trkpt>
      <trkpt lat="43.58578" lon="6.41144">
        <ele>624.7</ele>
        <time>2026-02-22T12:17:39Z</time>
      </trkpt>
      <trkpt lat="43.58578" lon="6.41144">
        <ele>624.6</ele>
        <time>2026-02-22T12:17:40Z</time>
      </trkpt>
      <trkpt lat="43.58578" lon="6.41144">
        <ele>624.6</ele>
        <time>2026-02-22T12:17:41Z</time>
      </trkpt>
      <trkpt lat="43.58578" lon="6.41144">
        <ele>624.6</ele>
        <time>2026-02-22T12:17:42Z</time>
      </trkpt>
      <trkpt lat="43.58578" lon="6.41144">
        <ele>624.6</ele>
        <time>2026-02-22T12:17:43Z</time>
      </trkpt>
      <trkpt lat="43.58578" lon="6.41144">
        <ele>624.6</ele>
        <time>2026-02-22T12:17:44Z</time>
      </trkpt>
      <trkpt lat="43.58578" lon="6.41144">
        <ele>624.6</ele>
        <time>2026-02-22T12:17:45Z</time>
      </trkpt>
      <trkpt lat="43.58578" lon="6.41145">
        <ele>624.6</ele>
        <time>2026-02-22T12:17:46Z</time>
      </trkpt>
      <trkpt lat="43.58578" lon="6.41145">
        <ele>624.6</ele>
        <time>2026-02-22T12:17:47Z</time>
      </trkpt>
      <trkpt lat="43.58578" lon="6.41145">
        <ele>624.5</ele>
        <time>2026-02-22T12:17:48Z</time>
      </trkpt>
      <trkpt lat="43.58578" lon="6.41145">
        <ele>624.6</ele>
        <time>2026-02-22T12:17:49Z</time>
      </trkpt>
      <trkpt lat="43.58578" lon="6.41145">
        <ele>624.7</ele>
        <time>2026-02-22T12:17:50Z</time>
      </trkpt>
      <trkpt lat="43.58578" lon="6.41145">
        <ele>624.7</ele>
        <time>2026-02-22T12:17:51Z</time>
      </trkpt>
      <trkpt lat="43.58578" lon="6.41145">
        <ele>624.7</ele>
        <time>2026-02-22T12:17:52Z</time>
      </trkpt>
      <trkpt lat="43.58578" lon="6.41145">
        <ele>624.7</ele>
        <time>2026-02-22T12:17:53Z</time>
      </trkpt>
      <trkpt lat="43.58578" lon="6.41145">
        <ele>624.7</ele>
        <time>2026-02-22T12:17:54Z</time>
      </trkpt>
      <trkpt lat="43.58578" lon="6.41145">
        <ele>624.7</ele>
        <time>2026-02-22T12:17:55Z</time>
      </trkpt>
      <trkpt lat="43.58578" lon="6.41145">
        <ele>624.6</ele>
        <time>2026-02-22T12:17:56Z</time>
      </trkpt>
      <trkpt lat="43.58578" lon="6.41145">
        <ele>624.8</ele>
        <time>2026-02-22T12:17:57Z</time>
      </trkpt>
      <trkpt lat="43.58578" lon="6.41146">
        <ele>624.8</ele>
        <time>2026-02-22T12:17:58Z</time>
      </trkpt>
      <trkpt lat="43.58578" lon="6.41145">
        <ele>624.8</ele>
        <time>2026-02-22T12:17:59Z</time>
      </trkpt>
      <trkpt lat="43.58578" lon="6.41145">
        <ele>624.8</ele>
        <time>2026-02-22T12:18:00Z</time>
      </trkpt>
      <trkpt lat="43.58578" lon="6.41146">
        <ele>624.8</ele>
        <time>2026-02-22T12:18:01Z</time>
      </trkpt>
      <trkpt lat="43.58578" lon="6.41145">
        <ele>624.7</ele>
        <time>2026-02-22T12:18:02Z</time>
      </trkpt>
      <trkpt lat="43.58578" lon="6.41145">
        <ele>624.7</ele>
        <time>2026-02-22T12:18:03Z</time>
      </trkpt>
      <trkpt lat="43.58578" lon="6.41145">
        <ele>624.7</ele>
        <time>2026-02-22T12:18:04Z</time>
      </trkpt>
      <trkpt lat="43.58578" lon="6.41145">
        <ele>624.6</ele>
        <time>2026-02-22T12:18:05Z</time>
      </trkpt>
      <trkpt lat="43.58578" lon="6.41146">
        <ele>624.6</ele>
        <time>2026-02-22T12:18:06Z</time>
      </trkpt>
      <trkpt lat="43.58578" lon="6.41146">
        <ele>624.7</ele>
        <time>2026-02-22T12:18:07Z</time>
      </trkpt>
      <trkpt lat="43.58578" lon="6.41146">
        <ele>624.7</ele>
        <time>2026-02-22T12:18:08Z</time>
      </trkpt>
      <trkpt lat="43.58578" lon="6.41146">
        <ele>624.8</ele>
        <time>2026-02-22T12:18:09Z</time>
      </trkpt>
      <trkpt lat="43.58578" lon="6.41146">
        <ele>624.7</ele>
        <time>2026-02-22T12:18:10Z</time>
      </trkpt>
      <trkpt lat="43.58578" lon="6.41146">
        <ele>624.7</ele>
        <time>2026-02-22T12:18:11Z</time>
      </trkpt>
      <trkpt lat="43.58578" lon="6.41146">
        <ele>624.6</ele>
        <time>2026-02-22T12:18:12Z</time>
      </trkpt>
      <trkpt lat="43.58578" lon="6.41146">
        <ele>624.6</ele>
        <time>2026-02-22T12:18:13Z</time>
      </trkpt>
      <trkpt lat="43.58578" lon="6.41146">
        <ele>624.6</ele>
        <time>2026-02-22T12:18:14Z</time>
      </trkpt>
      <trkpt lat="43.58578" lon="6.41146">
        <ele>624.5</ele>
        <time>2026-02-22T12:18:15Z</time>
      </trkpt>
      <trkpt lat="43.58578" lon="6.41146">
        <ele>624.5</ele>
        <time>2026-02-22T12:18:16Z</time>
      </trkpt>
      <trkpt lat="43.58578" lon="6.41146">
        <ele>624.5</ele>
        <time>2026-02-22T12:18:17Z</time>
      </trkpt>
      <trkpt lat="43.58578" lon="6.41146">
        <ele>624.5</ele>
        <time>2026-02-22T12:18:18Z</time>
      </trkpt>
      <trkpt lat="43.58577" lon="6.41146">
        <ele>624.5</ele>
        <time>2026-02-22T12:18:19Z</time>
      </trkpt>
      <trkpt lat="43.58577" lon="6.41146">
        <ele>624.5</ele>
        <time>2026-02-22T12:18:20Z</time>
      </trkpt>
      <trkpt lat="43.58577" lon="6.41146">
        <ele>624.5</ele>
        <time>2026-02-22T12:18:21Z</time>
      </trkpt>
      <trkpt lat="43.58577" lon="6.41146">
        <ele>624.5</ele>
        <time>2026-02-22T12:18:22Z</time>
      </trkpt>
      <trkpt lat="43.58577" lon="6.41146">
        <ele>624.5</ele>
        <time>2026-02-22T12:18:23Z</time>
      </trkpt>
      <trkpt lat="43.58577" lon="6.41146">
        <ele>624.5</ele>
        <time>2026-02-22T12:18:24Z</time>
      </trkpt>
      <trkpt lat="43.58577" lon="6.41146">
        <ele>624.5</ele>
        <time>2026-02-22T12:18:25Z</time>
      </trkpt>
      <trkpt lat="43.58577" lon="6.41146">
        <ele>624.5</ele>
        <time>2026-02-22T12:18:26Z</time>
      </trkpt>
      <trkpt lat="43.58577" lon="6.41145">
        <ele>624.6</ele>
        <time>2026-02-22T12:18:27Z</time>
      </trkpt>
      <trkpt lat="43.58577" lon="6.41145">
        <ele>624.6</ele>
        <time>2026-02-22T12:18:28Z</time>
      </trkpt>
      <trkpt lat="43.58577" lon="6.41144">
        <ele>624.7</ele>
        <time>2026-02-22T12:18:29Z</time>
      </trkpt>
      <trkpt lat="43.58577" lon="6.41145">
        <ele>624.7</ele>
        <time>2026-02-22T12:18:30Z</time>
      </trkpt>
      <trkpt lat="43.58577" lon="6.41145">
        <ele>624.7</ele>
        <time>2026-02-22T12:18:31Z</time>
      </trkpt>
      <trkpt lat="43.58577" lon="6.41145">
        <ele>624.8</ele>
        <time>2026-02-22T12:18:32Z</time>
      </trkpt>
      <trkpt lat="43.58578" lon="6.41145">
        <ele>624.8</ele>
        <time>2026-02-22T12:18:33Z</time>
      </trkpt>
      <trkpt lat="43.58577" lon="6.41145">
        <ele>624.9</ele>
        <time>2026-02-22T12:18:34Z</time>
      </trkpt>
      <trkpt lat="43.58577" lon="6.41145">
        <ele>624.9</ele>
        <time>2026-02-22T12:18:35Z</time>
      </trkpt>
      <trkpt lat="43.58577" lon="6.41145">
        <ele>624.9</ele>
        <time>2026-02-22T12:18:36Z</time>
      </trkpt>
      <trkpt lat="43.58577" lon="6.41145">
        <ele>624.9</ele>
        <time>2026-02-22T12:18:37Z</time>
      </trkpt>
      <trkpt lat="43.58577" lon="6.41145">
        <ele>624.8</ele>
        <time>2026-02-22T12:18:38Z</time>
      </trkpt>
      <trkpt lat="43.58577" lon="6.41145">
        <ele>624.7</ele>
        <time>2026-02-22T12:18:39Z</time>
      </trkpt>
      <trkpt lat="43.58577" lon="6.41145">
        <ele>624.7</ele>
        <time>2026-02-22T12:18:40Z</time>
      </trkpt>
      <trkpt lat="43.58577" lon="6.41145">
        <ele>624.6</ele>
        <time>2026-02-22T12:18:41Z</time>
      </trkpt>
      <trkpt lat="43.58577" lon="6.41145">
        <ele>624.7</ele>
        <time>2026-02-22T12:18:42Z</time>
      </trkpt>
      <trkpt lat="43.58577" lon="6.41145">
        <ele>624.6</ele>
        <time>2026-02-22T12:18:43Z</time>
      </trkpt>
      <trkpt lat="43.58577" lon="6.41145">
        <ele>624.7</ele>
        <time>2026-02-22T12:18:44Z</time>
      </trkpt>
      <trkpt lat="43.58577" lon="6.41145">
        <ele>624.7</ele>
        <time>2026-02-22T12:18:45Z</time>
      </trkpt>
      <trkpt lat="43.58577" lon="6.41145">
        <ele>624.7</ele>
        <time>2026-02-22T12:18:46Z</time>
      </trkpt>
      <trkpt lat="43.58577" lon="6.41145">
        <ele>624.8</ele>
        <time>2026-02-22T12:18:47Z</time>
      </trkpt>
      <trkpt lat="43.58577" lon="6.41144">
        <ele>624.8</ele>
        <time>2026-02-22T12:18:48Z</time>
      </trkpt>
      <trkpt lat="43.58577" lon="6.41144">
        <ele>624.9</ele>
        <time>2026-02-22T12:18:49Z</time>
      </trkpt>
      <trkpt lat="43.58577" lon="6.41144">
        <ele>624.8</ele>
        <time>2026-02-22T12:18:50Z</time>
      </trkpt>
      <trkpt lat="43.58577" lon="6.41144">
        <ele>624.8</ele>
        <time>2026-02-22T12:18:51Z</time>
      </trkpt>
      <trkpt lat="43.58577" lon="6.41144">
        <ele>624.8</ele>
        <time>2026-02-22T12:18:52Z</time>
      </trkpt>
      <trkpt lat="43.58577" lon="6.41144">
        <ele>624.7</ele>
        <time>2026-02-22T12:18:53Z</time>
      </trkpt>
      <trkpt lat="43.58577" lon="6.41144">
        <ele>624.6</ele>
        <time>2026-02-22T12:18:54Z</time>
      </trkpt>
      <trkpt lat="43.58577" lon="6.41144">
        <ele>624.5</ele>
        <time>2026-02-22T12:18:55Z</time>
      </trkpt>
      <trkpt lat="43.58577" lon="6.41144">
        <ele>624.5</ele>
        <time>2026-02-22T12:18:56Z</time>
      </trkpt>
      <trkpt lat="43.58577" lon="6.41144">
        <ele>624.5</ele>
        <time>2026-02-22T12:18:57Z</time>
      </trkpt>
      <trkpt lat="43.58577" lon="6.41144">
        <ele>624.4</ele>
        <time>2026-02-22T12:18:58Z</time>
      </trkpt>
      <trkpt lat="43.58577" lon="6.41144">
        <ele>624.4</ele>
        <time>2026-02-22T12:18:59Z</time>
      </trkpt>
      <trkpt lat="43.58577" lon="6.41144">
        <ele>624.5</ele>
        <time>2026-02-22T12:19:00Z</time>
      </trkpt>
      <trkpt lat="43.58577" lon="6.41144">
        <ele>624.5</ele>
        <time>2026-02-22T12:19:01Z</time>
      </trkpt>
      <trkpt lat="43.58577" lon="6.41144">
        <ele>624.4</ele>
        <time>2026-02-22T12:19:02Z</time>
      </trkpt>
      <trkpt lat="43.58577" lon="6.41144">
        <ele>624.3</ele>
        <time>2026-02-22T12:19:03Z</time>
      </trkpt>
      <trkpt lat="43.58577" lon="6.41145">
        <ele>624.2</ele>
        <time>2026-02-22T12:19:04Z</time>
      </trkpt>
      <trkpt lat="43.58577" lon="6.41145">
        <ele>624.2</ele>
        <time>2026-02-22T12:19:05Z</time>
      </trkpt>
      <trkpt lat="43.58577" lon="6.41145">
        <ele>624.2</ele>
        <time>2026-02-22T12:19:06Z</time>
      </trkpt>
      <trkpt lat="43.58577" lon="6.41145">
        <ele>624.2</ele>
        <time>2026-02-22T12:19:07Z</time>
      </trkpt>
      <trkpt lat="43.58577" lon="6.41145">
        <ele>624.2</ele>
        <time>2026-02-22T12:19:08Z</time>
      </trkpt>
      <trkpt lat="43.58577" lon="6.41145">
        <ele>624.1</ele>
        <time>2026-02-22T12:19:09Z</time>
      </trkpt>
      <trkpt lat="43.58577" lon="6.41144">
        <ele>624.1</ele>
        <time>2026-02-22T12:19:10Z</time>
      </trkpt>
      <trkpt lat="43.58577" lon="6.41144">
        <ele>624.1</ele>
        <time>2026-02-22T12:19:11Z</time>
      </trkpt>
      <trkpt lat="43.58577" lon="6.41144">
        <ele>624</ele>
        <time>2026-02-22T12:19:12Z</time>
      </trkpt>
      <trkpt lat="43.58577" lon="6.41144">
        <ele>624</ele>
        <time>2026-02-22T12:19:13Z</time>
      </trkpt>
      <trkpt lat="43.58577" lon="6.41144">
        <ele>623.9</ele>
        <time>2026-02-22T12:19:14Z</time>
      </trkpt>
      <trkpt lat="43.58577" lon="6.41144">
        <ele>623.9</ele>
        <time>2026-02-22T12:19:15Z</time>
      </trkpt>
      <trkpt lat="43.58577" lon="6.41144">
        <ele>623.9</ele>
        <time>2026-02-22T12:19:16Z</time>
      </trkpt>
      <trkpt lat="43.58577" lon="6.41144">
        <ele>623.9</ele>
        <time>2026-02-22T12:19:17Z</time>
      </trkpt>
      <trkpt lat="43.58577" lon="6.41145">
        <ele>623.8</ele>
        <time>2026-02-22T12:19:18Z</time>
      </trkpt>
      <trkpt lat="43.58577" lon="6.41145">
        <ele>623.8</ele>
        <time>2026-02-22T12:19:19Z</time>
      </trkpt>
      <trkpt lat="43.58577" lon="6.41145">
        <ele>623.9</ele>
        <time>2026-02-22T12:19:20Z</time>
      </trkpt>
      <trkpt lat="43.58577" lon="6.41145">
        <ele>624</ele>
        <time>2026-02-22T12:19:21Z</time>
      </trkpt>
      <trkpt lat="43.58577" lon="6.41145">
        <ele>624.1</ele>
        <time>2026-02-22T12:19:22Z</time>
      </trkpt>
      <trkpt lat="43.58577" lon="6.41145">
        <ele>624.2</ele>
        <time>2026-02-22T12:19:23Z</time>
      </trkpt>
      <trkpt lat="43.58577" lon="6.41145">
        <ele>624.2</ele>
        <time>2026-02-22T12:19:24Z</time>
      </trkpt>
      <trkpt lat="43.58577" lon="6.41145">
        <ele>624.3</ele>
        <time>2026-02-22T12:19:25Z</time>
      </trkpt>
      <trkpt lat="43.58577" lon="6.41146">
        <ele>624.3</ele>
        <time>2026-02-22T12:19:26Z</time>
      </trkpt>
      <trkpt lat="43.58577" lon="6.41146">
        <ele>624.3</ele>
        <time>2026-02-22T12:19:27Z</time>
      </trkpt>
      <trkpt lat="43.58577" lon="6.41146">
        <ele>624.4</ele>
        <time>2026-02-22T12:19:28Z</time>
      </trkpt>
      <trkpt lat="43.58577" lon="6.41146">
        <ele>624.4</ele>
        <time>2026-02-22T12:19:29Z</time>
      </trkpt>
      <trkpt lat="43.58577" lon="6.41146">
        <ele>624.4</ele>
        <time>2026-02-22T12:19:30Z</time>
      </trkpt>
      <trkpt lat="43.58577" lon="6.41146">
        <ele>624.4</ele>
        <time>2026-02-22T12:19:31Z</time>
      </trkpt>
      <trkpt lat="43.58577" lon="6.41146">
        <ele>624.3</ele>
        <time>2026-02-22T12:19:32Z</time>
      </trkpt>
      <trkpt lat="43.58577" lon="6.41146">
        <ele>624.3</ele>
        <time>2026-02-22T12:19:33Z</time>
      </trkpt>
      <trkpt lat="43.58577" lon="6.41147">
        <ele>624.3</ele>
        <time>2026-02-22T12:19:34Z</time>
      </trkpt>
      <trkpt lat="43.58577" lon="6.41147">
        <ele>624.2</ele>
        <time>2026-02-22T12:19:35Z</time>
      </trkpt>
      <trkpt lat="43.58577" lon="6.41147">
        <ele>624.2</ele>
        <time>2026-02-22T12:19:36Z</time>
      </trkpt>
      <trkpt lat="43.58577" lon="6.41147">
        <ele>624.2</ele>
        <time>2026-02-22T12:19:37Z</time>
      </trkpt>
      <trkpt lat="43.58577" lon="6.41147">
        <ele>624.2</ele>
        <time>2026-02-22T12:19:38Z</time>
      </trkpt>
      <trkpt lat="43.58577" lon="6.41147">
        <ele>624.2</ele>
        <time>2026-02-22T12:19:39Z</time>
      </trkpt>
      <trkpt lat="43.58577" lon="6.41147">
        <ele>624.1</ele>
        <time>2026-02-22T12:19:40Z</time>
      </trkpt>
      <trkpt lat="43.58577" lon="6.41147">
        <ele>624.1</ele>
        <time>2026-02-22T12:19:41Z</time>
      </trkpt>
      <trkpt lat="43.58577" lon="6.41148">
        <ele>624.1</ele>
        <time>2026-02-22T12:19:42Z</time>
      </trkpt>
      <trkpt lat="43.58577" lon="6.41148">
        <ele>624.1</ele>
        <time>2026-02-22T12:19:43Z</time>
      </trkpt>
      <trkpt lat="43.58577" lon="6.41148">
        <ele>624.1</ele>
        <time>2026-02-22T12:19:44Z</time>
      </trkpt>
      <trkpt lat="43.58576" lon="6.41148">
        <ele>624.1</ele>
        <time>2026-02-22T12:19:45Z</time>
      </trkpt>
      <trkpt lat="43.58576" lon="6.41148">
        <ele>624.1</ele>
        <time>2026-02-22T12:19:46Z</time>
      </trkpt>
      <trkpt lat="43.58576" lon="6.41148">
        <ele>624.1</ele>
        <time>2026-02-22T12:19:47Z</time>
      </trkpt>
      <trkpt lat="43.58576" lon="6.41149">
        <ele>624</ele>
        <time>2026-02-22T12:19:48Z</time>
      </trkpt>
      <trkpt lat="43.58576" lon="6.41149">
        <ele>623.9</ele>
        <time>2026-02-22T12:19:49Z</time>
      </trkpt>
      <trkpt lat="43.58576" lon="6.41149">
        <ele>623.9</ele>
        <time>2026-02-22T12:19:50Z</time>
      </trkpt>
      <trkpt lat="43.58576" lon="6.41149">
        <ele>623.9</ele>
        <time>2026-02-22T12:19:51Z</time>
      </trkpt>
      <trkpt lat="43.58576" lon="6.41149">
        <ele>623.8</ele>
        <time>2026-02-22T12:19:52Z</time>
      </trkpt>
      <trkpt lat="43.58576" lon="6.41149">
        <ele>623.8</ele>
        <time>2026-02-22T12:19:53Z</time>
      </trkpt>
      <trkpt lat="43.58576" lon="6.41149">
        <ele>623.7</ele>
        <time>2026-02-22T12:19:54Z</time>
      </trkpt>
      <trkpt lat="43.58576" lon="6.41149">
        <ele>623.8</ele>
        <time>2026-02-22T12:19:55Z</time>
      </trkpt>
      <trkpt lat="43.58575" lon="6.41149">
        <ele>623.8</ele>
        <time>2026-02-22T12:19:56Z</time>
      </trkpt>
      <trkpt lat="43.58575" lon="6.41149">
        <ele>623.8</ele>
        <time>2026-02-22T12:19:57Z</time>
      </trkpt>
      <trkpt lat="43.58575" lon="6.41149">
        <ele>623.8</ele>
        <time>2026-02-22T12:19:58Z</time>
      </trkpt>
      <trkpt lat="43.58576" lon="6.41149">
        <ele>623.8</ele>
        <time>2026-02-22T12:19:59Z</time>
      </trkpt>
      <trkpt lat="43.58576" lon="6.41149">
        <ele>623.7</ele>
        <time>2026-02-22T12:20:00Z</time>
      </trkpt>
      <trkpt lat="43.58577" lon="6.4115">
        <ele>623.7</ele>
        <time>2026-02-22T12:20:01Z</time>
      </trkpt>
      <trkpt lat="43.58577" lon="6.4115">
        <ele>623.7</ele>
        <time>2026-02-22T12:20:02Z</time>
      </trkpt>
      <trkpt lat="43.58577" lon="6.41151">
        <ele>623.7</ele>
        <time>2026-02-22T12:20:03Z</time>
      </trkpt>
      <trkpt lat="43.58577" lon="6.41151">
        <ele>623.7</ele>
        <time>2026-02-22T12:20:04Z</time>
      </trkpt>
      <trkpt lat="43.58577" lon="6.41152">
        <ele>623.8</ele>
        <time>2026-02-22T12:20:05Z</time>
      </trkpt>
      <trkpt lat="43.58577" lon="6.41152">
        <ele>623.7</ele>
        <time>2026-02-22T12:20:06Z</time>
      </trkpt>
      <trkpt lat="43.58577" lon="6.41153">
        <ele>623.6</ele>
        <time>2026-02-22T12:20:07Z</time>
      </trkpt>
      <trkpt lat="43.58577" lon="6.41154">
        <ele>623.6</ele>
        <time>2026-02-22T12:20:08Z</time>
      </trkpt>
      <trkpt lat="43.58578" lon="6.41155">
        <ele>623.6</ele>
        <time>2026-02-22T12:20:09Z</time>
      </trkpt>
      <trkpt lat="43.58578" lon="6.41156">
        <ele>623.6</ele>
        <time>2026-02-22T12:20:10Z</time>
      </trkpt>
      <trkpt lat="43.58578" lon="6.41157">
        <ele>623.5</ele>
        <time>2026-02-22T12:20:11Z</time>
      </trkpt>
      <trkpt lat="43.58578" lon="6.41158">
        <ele>623.4</ele>
        <time>2026-02-22T12:20:12Z</time>
      </trkpt>
      <trkpt lat="43.58578" lon="6.41159">
        <ele>623.2</ele>
        <time>2026-02-22T12:20:13Z</time>
      </trkpt>
      <trkpt lat="43.58578" lon="6.4116">
        <ele>623.2</ele>
        <time>2026-02-22T12:20:14Z</time>
      </trkpt>
      <trkpt lat="43.58577" lon="6.41161">
        <ele>623.1</ele>
        <time>2026-02-22T12:20:15Z</time>
      </trkpt>
      <trkpt lat="43.58577" lon="6.41162">
        <ele>622.9</ele>
        <time>2026-02-22T12:20:16Z</time>
      </trkpt>
      <trkpt lat="43.58577" lon="6.41163">
        <ele>622.9</ele>
        <time>2026-02-22T12:20:17Z</time>
      </trkpt>
      <trkpt lat="43.58577" lon="6.41164">
        <ele>623</ele>
        <time>2026-02-22T12:20:18Z</time>
      </trkpt>
      <trkpt lat="43.58577" lon="6.41165">
        <ele>623</ele>
        <time>2026-02-22T12:20:19Z</time>
      </trkpt>
      <trkpt lat="43.58576" lon="6.41166">
        <ele>622.9</ele>
        <time>2026-02-22T12:20:20Z</time>
      </trkpt>
      <trkpt lat="43.58576" lon="6.41167">
        <ele>622.9</ele>
        <time>2026-02-22T12:20:21Z</time>
      </trkpt>
      <trkpt lat="43.58575" lon="6.41167">
        <ele>622.8</ele>
        <time>2026-02-22T12:20:22Z</time>
      </trkpt>
      <trkpt lat="43.58575" lon="6.41169">
        <ele>622.8</ele>
        <time>2026-02-22T12:20:23Z</time>
      </trkpt>
      <trkpt lat="43.58575" lon="6.4117">
        <ele>622.8</ele>
        <time>2026-02-22T12:20:24Z</time>
      </trkpt>
      <trkpt lat="43.58575" lon="6.41171">
        <ele>622.7</ele>
        <time>2026-02-22T12:20:25Z</time>
      </trkpt>
      <trkpt lat="43.58575" lon="6.41173">
        <ele>622.6</ele>
        <time>2026-02-22T12:20:26Z</time>
      </trkpt>
      <trkpt lat="43.58576" lon="6.41174">
        <ele>622.5</ele>
        <time>2026-02-22T12:20:27Z</time>
      </trkpt>
      <trkpt lat="43.58575" lon="6.41175">
        <ele>622.5</ele>
        <time>2026-02-22T12:20:28Z</time>
      </trkpt>
      <trkpt lat="43.58574" lon="6.41176">
        <ele>622.5</ele>
        <time>2026-02-22T12:20:29Z</time>
      </trkpt>
      <trkpt lat="43.58574" lon="6.41178">
        <ele>622.5</ele>
        <time>2026-02-22T12:20:30Z</time>
      </trkpt>
      <trkpt lat="43.58574" lon="6.41179">
        <ele>622.6</ele>
        <time>2026-02-22T12:20:31Z</time>
      </trkpt>
      <trkpt lat="43.58574" lon="6.4118">
        <ele>622.6</ele>
        <time>2026-02-22T12:20:32Z</time>
      </trkpt>
      <trkpt lat="43.58574" lon="6.41181">
        <ele>622.6</ele>
        <time>2026-02-22T12:20:33Z</time>
      </trkpt>
      <trkpt lat="43.58574" lon="6.41182">
        <ele>622.6</ele>
        <time>2026-02-22T12:20:34Z</time>
      </trkpt>
      <trkpt lat="43.58574" lon="6.41183">
        <ele>622.6</ele>
        <time>2026-02-22T12:20:35Z</time>
      </trkpt>
      <trkpt lat="43.58573" lon="6.41185">
        <ele>622.5</ele>
        <time>2026-02-22T12:20:36Z</time>
      </trkpt>
      <trkpt lat="43.58573" lon="6.41186">
        <ele>622.5</ele>
        <time>2026-02-22T12:20:37Z</time>
      </trkpt>
      <trkpt lat="43.58573" lon="6.41187">
        <ele>622.3</ele>
        <time>2026-02-22T12:20:38Z</time>
      </trkpt>
      <trkpt lat="43.58572" lon="6.41188">
        <ele>622.3</ele>
        <time>2026-02-22T12:20:39Z</time>
      </trkpt>
      <trkpt lat="43.58572" lon="6.41189">
        <ele>622.3</ele>
        <time>2026-02-22T12:20:40Z</time>
      </trkpt>
      <trkpt lat="43.58571" lon="6.4119">
        <ele>622.3</ele>
        <time>2026-02-22T12:20:41Z</time>
      </trkpt>
      <trkpt lat="43.58571" lon="6.41191">
        <ele>622.2</ele>
        <time>2026-02-22T12:20:42Z</time>
      </trkpt>
      <trkpt lat="43.5857" lon="6.41192">
        <ele>622.1</ele>
        <time>2026-02-22T12:20:43Z</time>
      </trkpt>
      <trkpt lat="43.58569" lon="6.41193">
        <ele>622</ele>
        <time>2026-02-22T12:20:44Z</time>
      </trkpt>
      <trkpt lat="43.58568" lon="6.41194">
        <ele>622</ele>
        <time>2026-02-22T12:20:45Z</time>
      </trkpt>
      <trkpt lat="43.58568" lon="6.41195">
        <ele>621.9</ele>
        <time>2026-02-22T12:20:46Z</time>
      </trkpt>
      <trkpt lat="43.58568" lon="6.41196">
        <ele>621.8</ele>
        <time>2026-02-22T12:20:47Z</time>
      </trkpt>
      <trkpt lat="43.58567" lon="6.41198">
        <ele>621.8</ele>
        <time>2026-02-22T12:20:48Z</time>
      </trkpt>
      <trkpt lat="43.58567" lon="6.41199">
        <ele>621.8</ele>
        <time>2026-02-22T12:20:49Z</time>
      </trkpt>
      <trkpt lat="43.58567" lon="6.412">
        <ele>621.8</ele>
        <time>2026-02-22T12:20:50Z</time>
      </trkpt>
      <trkpt lat="43.58567" lon="6.41202">
        <ele>621.8</ele>
        <time>2026-02-22T12:20:51Z</time>
      </trkpt>
      <trkpt lat="43.58568" lon="6.41203">
        <ele>621.7</ele>
        <time>2026-02-22T12:20:52Z</time>
      </trkpt>
      <trkpt lat="43.58568" lon="6.41205">
        <ele>621.7</ele>
        <time>2026-02-22T12:20:53Z</time>
      </trkpt>
      <trkpt lat="43.58568" lon="6.41206">
        <ele>621.7</ele>
        <time>2026-02-22T12:20:54Z</time>
      </trkpt>
      <trkpt lat="43.58567" lon="6.41207">
        <ele>621.7</ele>
        <time>2026-02-22T12:20:55Z</time>
      </trkpt>
      <trkpt lat="43.58567" lon="6.41208">
        <ele>621.6</ele>
        <time>2026-02-22T12:20:56Z</time>
      </trkpt>
      <trkpt lat="43.58568" lon="6.41209">
        <ele>621.6</ele>
        <time>2026-02-22T12:20:57Z</time>
      </trkpt>
      <trkpt lat="43.58568" lon="6.4121">
        <ele>621.7</ele>
        <time>2026-02-22T12:20:58Z</time>
      </trkpt>
      <trkpt lat="43.58567" lon="6.41211">
        <ele>621.8</ele>
        <time>2026-02-22T12:20:59Z</time>
      </trkpt>
      <trkpt lat="43.58567" lon="6.41213">
        <ele>621.7</ele>
        <time>2026-02-22T12:21:00Z</time>
      </trkpt>
      <trkpt lat="43.58567" lon="6.41214">
        <ele>621.6</ele>
        <time>2026-02-22T12:21:01Z</time>
      </trkpt>
      <trkpt lat="43.58566" lon="6.41216">
        <ele>621.5</ele>
        <time>2026-02-22T12:21:02Z</time>
      </trkpt>
      <trkpt lat="43.58565" lon="6.41217">
        <ele>621.5</ele>
        <time>2026-02-22T12:21:03Z</time>
      </trkpt>
      <trkpt lat="43.58565" lon="6.41219">
        <ele>621.4</ele>
        <time>2026-02-22T12:21:04Z</time>
      </trkpt>
      <trkpt lat="43.58565" lon="6.4122">
        <ele>621.4</ele>
        <time>2026-02-22T12:21:05Z</time>
      </trkpt>
      <trkpt lat="43.58565" lon="6.41221">
        <ele>621.4</ele>
        <time>2026-02-22T12:21:06Z</time>
      </trkpt>
      <trkpt lat="43.58565" lon="6.41222">
        <ele>621.4</ele>
        <time>2026-02-22T12:21:07Z</time>
      </trkpt>
      <trkpt lat="43.58565" lon="6.41223">
        <ele>621.3</ele>
        <time>2026-02-22T12:21:08Z</time>
      </trkpt>
      <trkpt lat="43.58565" lon="6.41225">
        <ele>621.2</ele>
        <time>2026-02-22T12:21:09Z</time>
      </trkpt>
      <trkpt lat="43.58565" lon="6.41227">
        <ele>621.1</ele>
        <time>2026-02-22T12:21:10Z</time>
      </trkpt>
      <trkpt lat="43.58565" lon="6.41228">
        <ele>621.1</ele>
        <time>2026-02-22T12:21:11Z</time>
      </trkpt>
      <trkpt lat="43.58564" lon="6.41229">
        <ele>621.1</ele>
        <time>2026-02-22T12:21:12Z</time>
      </trkpt>
      <trkpt lat="43.58564" lon="6.4123">
        <ele>621.1</ele>
        <time>2026-02-22T12:21:13Z</time>
      </trkpt>
      <trkpt lat="43.58563" lon="6.41231">
        <ele>621.1</ele>
        <time>2026-02-22T12:21:14Z</time>
      </trkpt>
      <trkpt lat="43.58562" lon="6.41232">
        <ele>621</ele>
        <time>2026-02-22T12:21:15Z</time>
      </trkpt>
      <trkpt lat="43.58562" lon="6.41233">
        <ele>621</ele>
        <time>2026-02-22T12:21:16Z</time>
      </trkpt>
      <trkpt lat="43.58561" lon="6.41234">
        <ele>621</ele>
        <time>2026-02-22T12:21:17Z</time>
      </trkpt>
      <trkpt lat="43.58561" lon="6.41236">
        <ele>620.9</ele>
        <time>2026-02-22T12:21:18Z</time>
      </trkpt>
      <trkpt lat="43.5856" lon="6.41237">
        <ele>620.8</ele>
        <time>2026-02-22T12:21:19Z</time>
      </trkpt>
      <trkpt lat="43.5856" lon="6.41239">
        <ele>620.7</ele>
        <time>2026-02-22T12:21:20Z</time>
      </trkpt>
      <trkpt lat="43.5856" lon="6.4124">
        <ele>620.7</ele>
        <time>2026-02-22T12:21:21Z</time>
      </trkpt>
      <trkpt lat="43.5856" lon="6.41242">
        <ele>620.7</ele>
        <time>2026-02-22T12:21:22Z</time>
      </trkpt>
      <trkpt lat="43.5856" lon="6.41243">
        <ele>620.7</ele>
        <time>2026-02-22T12:21:23Z</time>
      </trkpt>
      <trkpt lat="43.5856" lon="6.41244">
        <ele>620.6</ele>
        <time>2026-02-22T12:21:24Z</time>
      </trkpt>
      <trkpt lat="43.5856" lon="6.41246">
        <ele>620.4</ele>
        <time>2026-02-22T12:21:25Z</time>
      </trkpt>
      <trkpt lat="43.5856" lon="6.41247">
        <ele>620.2</ele>
        <time>2026-02-22T12:21:26Z</time>
      </trkpt>
      <trkpt lat="43.5856" lon="6.41249">
        <ele>620.1</ele>
        <time>2026-02-22T12:21:27Z</time>
      </trkpt>
      <trkpt lat="43.5856" lon="6.4125">
        <ele>620.1</ele>
        <time>2026-02-22T12:21:28Z</time>
      </trkpt>
      <trkpt lat="43.5856" lon="6.41252">
        <ele>619.9</ele>
        <time>2026-02-22T12:21:29Z</time>
      </trkpt>
      <trkpt lat="43.5856" lon="6.41253">
        <ele>619.8</ele>
        <time>2026-02-22T12:21:30Z</time>
      </trkpt>
      <trkpt lat="43.5856" lon="6.41255">
        <ele>619.8</ele>
        <time>2026-02-22T12:21:31Z</time>
      </trkpt>
      <trkpt lat="43.5856" lon="6.41256">
        <ele>619.9</ele>
        <time>2026-02-22T12:21:32Z</time>
      </trkpt>
      <trkpt lat="43.58559" lon="6.41258">
        <ele>619.9</ele>
        <time>2026-02-22T12:21:33Z</time>
      </trkpt>
      <trkpt lat="43.58559" lon="6.41259">
        <ele>619.9</ele>
        <time>2026-02-22T12:21:34Z</time>
      </trkpt>
      <trkpt lat="43.58559" lon="6.41262">
        <ele>619.7</ele>
        <time>2026-02-22T12:21:35Z</time>
      </trkpt>
      <trkpt lat="43.58559" lon="6.41263">
        <ele>619.7</ele>
        <time>2026-02-22T12:21:36Z</time>
      </trkpt>
      <trkpt lat="43.58558" lon="6.41265">
        <ele>619.7</ele>
        <time>2026-02-22T12:21:37Z</time>
      </trkpt>
      <trkpt lat="43.58558" lon="6.41266">
        <ele>619.5</ele>
        <time>2026-02-22T12:21:38Z</time>
      </trkpt>
      <trkpt lat="43.58557" lon="6.41267">
        <ele>619.5</ele>
        <time>2026-02-22T12:21:39Z</time>
      </trkpt>
      <trkpt lat="43.58557" lon="6.41268">
        <ele>619.5</ele>
        <time>2026-02-22T12:21:40Z</time>
      </trkpt>
      <trkpt lat="43.58556" lon="6.4127">
        <ele>619.4</ele>
        <time>2026-02-22T12:21:41Z</time>
      </trkpt>
      <trkpt lat="43.58556" lon="6.41271">
        <ele>619.4</ele>
        <time>2026-02-22T12:21:42Z</time>
      </trkpt>
      <trkpt lat="43.58555" lon="6.41273">
        <ele>619.4</ele>
        <time>2026-02-22T12:21:43Z</time>
      </trkpt>
      <trkpt lat="43.58554" lon="6.41274">
        <ele>619.3</ele>
        <time>2026-02-22T12:21:44Z</time>
      </trkpt>
      <trkpt lat="43.58554" lon="6.41275">
        <ele>619.3</ele>
        <time>2026-02-22T12:21:45Z</time>
      </trkpt>
      <trkpt lat="43.58553" lon="6.41276">
        <ele>619.2</ele>
        <time>2026-02-22T12:21:46Z</time>
      </trkpt>
      <trkpt lat="43.58552" lon="6.41277">
        <ele>619.2</ele>
        <time>2026-02-22T12:21:47Z</time>
      </trkpt>
      <trkpt lat="43.58551" lon="6.41279">
        <ele>619.2</ele>
        <time>2026-02-22T12:21:48Z</time>
      </trkpt>
      <trkpt lat="43.58551" lon="6.4128">
        <ele>619.1</ele>
        <time>2026-02-22T12:21:49Z</time>
      </trkpt>
      <trkpt lat="43.5855" lon="6.41281">
        <ele>619</ele>
        <time>2026-02-22T12:21:50Z</time>
      </trkpt>
      <trkpt lat="43.5855" lon="6.41282">
        <ele>618.9</ele>
        <time>2026-02-22T12:21:51Z</time>
      </trkpt>
      <trkpt lat="43.5855" lon="6.41284">
        <ele>618.8</ele>
        <time>2026-02-22T12:21:52Z</time>
      </trkpt>
      <trkpt lat="43.58549" lon="6.41286">
        <ele>618.7</ele>
        <time>2026-02-22T12:21:53Z</time>
      </trkpt>
      <trkpt lat="43.58549" lon="6.41287">
        <ele>618.6</ele>
        <time>2026-02-22T12:21:54Z</time>
      </trkpt>
      <trkpt lat="43.58549" lon="6.41289">
        <ele>618.6</ele>
        <time>2026-02-22T12:21:55Z</time>
      </trkpt>
      <trkpt lat="43.58549" lon="6.4129">
        <ele>618.5</ele>
        <time>2026-02-22T12:21:56Z</time>
      </trkpt>
      <trkpt lat="43.58549" lon="6.41292">
        <ele>618.4</ele>
        <time>2026-02-22T12:21:57Z</time>
      </trkpt>
      <trkpt lat="43.58549" lon="6.41293">
        <ele>618.3</ele>
        <time>2026-02-22T12:21:58Z</time>
      </trkpt>
      <trkpt lat="43.58548" lon="6.41295">
        <ele>618.2</ele>
        <time>2026-02-22T12:21:59Z</time>
      </trkpt>
      <trkpt lat="43.58548" lon="6.41296">
        <ele>618.1</ele>
        <time>2026-02-22T12:22:00Z</time>
      </trkpt>
      <trkpt lat="43.58547" lon="6.41298">
        <ele>618</ele>
        <time>2026-02-22T12:22:01Z</time>
      </trkpt>
      <trkpt lat="43.58546" lon="6.41299">
        <ele>618</ele>
        <time>2026-02-22T12:22:02Z</time>
      </trkpt>
      <trkpt lat="43.58546" lon="6.413">
        <ele>617.9</ele>
        <time>2026-02-22T12:22:03Z</time>
      </trkpt>
      <trkpt lat="43.58546" lon="6.41301">
        <ele>617.9</ele>
        <time>2026-02-22T12:22:04Z</time>
      </trkpt>
      <trkpt lat="43.58546" lon="6.41303">
        <ele>617.9</ele>
        <time>2026-02-22T12:22:05Z</time>
      </trkpt>
      <trkpt lat="43.58545" lon="6.41304">
        <ele>617.9</ele>
        <time>2026-02-22T12:22:06Z</time>
      </trkpt>
      <trkpt lat="43.58545" lon="6.41305">
        <ele>617.9</ele>
        <time>2026-02-22T12:22:07Z</time>
      </trkpt>
      <trkpt lat="43.58545" lon="6.41306">
        <ele>618</ele>
        <time>2026-02-22T12:22:08Z</time>
      </trkpt>
      <trkpt lat="43.58545" lon="6.41307">
        <ele>618</ele>
        <time>2026-02-22T12:22:09Z</time>
      </trkpt>
      <trkpt lat="43.58544" lon="6.41308">
        <ele>618</ele>
        <time>2026-02-22T12:22:10Z</time>
      </trkpt>
      <trkpt lat="43.58544" lon="6.41309">
        <ele>618</ele>
        <time>2026-02-22T12:22:11Z</time>
      </trkpt>
      <trkpt lat="43.58543" lon="6.4131">
        <ele>618</ele>
        <time>2026-02-22T12:22:12Z</time>
      </trkpt>
      <trkpt lat="43.58543" lon="6.4131">
        <ele>618</ele>
        <time>2026-02-22T12:22:13Z</time>
      </trkpt>
      <trkpt lat="43.58543" lon="6.4131">
        <ele>618</ele>
        <time>2026-02-22T12:22:14Z</time>
      </trkpt>
      <trkpt lat="43.58543" lon="6.4131">
        <ele>617.9</ele>
        <time>2026-02-22T12:22:15Z</time>
      </trkpt>
      <trkpt lat="43.58543" lon="6.4131">
        <ele>617.8</ele>
        <time>2026-02-22T12:22:16Z</time>
      </trkpt>
      <trkpt lat="43.58543" lon="6.41311">
        <ele>617.7</ele>
        <time>2026-02-22T12:22:17Z</time>
      </trkpt>
      <trkpt lat="43.58543" lon="6.41311">
        <ele>617.7</ele>
        <time>2026-02-22T12:22:18Z</time>
      </trkpt>
      <trkpt lat="43.58543" lon="6.41312">
        <ele>617.7</ele>
        <time>2026-02-22T12:22:19Z</time>
      </trkpt>
      <trkpt lat="43.58543" lon="6.41312">
        <ele>617.8</ele>
        <time>2026-02-22T12:22:20Z</time>
      </trkpt>
      <trkpt lat="43.58543" lon="6.41313">
        <ele>617.8</ele>
        <time>2026-02-22T12:22:21Z</time>
      </trkpt>
      <trkpt lat="43.58543" lon="6.41313">
        <ele>617.8</ele>
        <time>2026-02-22T12:22:22Z</time>
      </trkpt>
      <trkpt lat="43.58543" lon="6.41313">
        <ele>617.8</ele>
        <time>2026-02-22T12:22:23Z</time>
      </trkpt>
      <trkpt lat="43.58543" lon="6.41314">
        <ele>617.9</ele>
        <time>2026-02-22T12:22:24Z</time>
      </trkpt>
      <trkpt lat="43.58543" lon="6.41314">
        <ele>617.9</ele>
        <time>2026-02-22T12:22:25Z</time>
      </trkpt>
      <trkpt lat="43.58543" lon="6.41314">
        <ele>617.9</ele>
        <time>2026-02-22T12:22:26Z</time>
      </trkpt>
      <trkpt lat="43.58543" lon="6.41315">
        <ele>617.9</ele>
        <time>2026-02-22T12:22:27Z</time>
      </trkpt>
      <trkpt lat="43.58542" lon="6.41315">
        <ele>617.8</ele>
        <time>2026-02-22T12:22:28Z</time>
      </trkpt>
      <trkpt lat="43.58542" lon="6.41316">
        <ele>617.8</ele>
        <time>2026-02-22T12:22:29Z</time>
      </trkpt>
      <trkpt lat="43.58542" lon="6.41316">
        <ele>617.7</ele>
        <time>2026-02-22T12:22:30Z</time>
      </trkpt>
      <trkpt lat="43.58542" lon="6.41316">
        <ele>617.7</ele>
        <time>2026-02-22T12:22:31Z</time>
      </trkpt>
      <trkpt lat="43.58542" lon="6.41317">
        <ele>617.7</ele>
        <time>2026-02-22T12:22:32Z</time>
      </trkpt>
      <trkpt lat="43.58542" lon="6.41317">
        <ele>617.7</ele>
        <time>2026-02-22T12:22:33Z</time>
      </trkpt>
      <trkpt lat="43.58542" lon="6.41317">
        <ele>617.7</ele>
        <time>2026-02-22T12:22:34Z</time>
      </trkpt>
      <trkpt lat="43.58542" lon="6.41317">
        <ele>617.7</ele>
        <time>2026-02-22T12:22:35Z</time>
      </trkpt>
      <trkpt lat="43.58542" lon="6.41317">
        <ele>617.7</ele>
        <time>2026-02-22T12:22:36Z</time>
      </trkpt>
      <trkpt lat="43.58542" lon="6.41317">
        <ele>617.7</ele>
        <time>2026-02-22T12:22:37Z</time>
      </trkpt>
      <trkpt lat="43.58542" lon="6.41317">
        <ele>617.7</ele>
        <time>2026-02-22T12:22:38Z</time>
      </trkpt>
      <trkpt lat="43.58542" lon="6.41317">
        <ele>617.7</ele>
        <time>2026-02-22T12:22:39Z</time>
      </trkpt>
      <trkpt lat="43.58542" lon="6.41317">
        <ele>617.8</ele>
        <time>2026-02-22T12:22:40Z</time>
      </trkpt>
      <trkpt lat="43.58542" lon="6.41317">
        <ele>617.8</ele>
        <time>2026-02-22T12:22:41Z</time>
      </trkpt>
      <trkpt lat="43.58542" lon="6.41317">
        <ele>618</ele>
        <time>2026-02-22T12:22:42Z</time>
      </trkpt>
      <trkpt lat="43.58542" lon="6.41318">
        <ele>618.1</ele>
        <time>2026-02-22T12:22:43Z</time>
      </trkpt>
      <trkpt lat="43.58542" lon="6.41318">
        <ele>618.2</ele>
        <time>2026-02-22T12:22:44Z</time>
      </trkpt>
      <trkpt lat="43.58542" lon="6.41318">
        <ele>618.3</ele>
        <time>2026-02-22T12:22:45Z</time>
      </trkpt>
      <trkpt lat="43.58542" lon="6.41319">
        <ele>618.5</ele>
        <time>2026-02-22T12:22:46Z</time>
      </trkpt>
      <trkpt lat="43.58542" lon="6.41319">
        <ele>618.4</ele>
        <time>2026-02-22T12:22:47Z</time>
      </trkpt>
      <trkpt lat="43.58542" lon="6.41319">
        <ele>618.6</ele>
        <time>2026-02-22T12:22:48Z</time>
      </trkpt>
      <trkpt lat="43.58542" lon="6.41319">
        <ele>618.6</ele>
        <time>2026-02-22T12:22:49Z</time>
      </trkpt>
      <trkpt lat="43.58542" lon="6.4132">
        <ele>618.6</ele>
        <time>2026-02-22T12:22:50Z</time>
      </trkpt>
      <trkpt lat="43.58542" lon="6.4132">
        <ele>618.6</ele>
        <time>2026-02-22T12:22:51Z</time>
      </trkpt>
      <trkpt lat="43.58542" lon="6.4132">
        <ele>618.5</ele>
        <time>2026-02-22T12:22:52Z</time>
      </trkpt>
      <trkpt lat="43.58542" lon="6.41321">
        <ele>618.5</ele>
        <time>2026-02-22T12:22:53Z</time>
      </trkpt>
      <trkpt lat="43.58542" lon="6.41321">
        <ele>618.5</ele>
        <time>2026-02-22T12:22:54Z</time>
      </trkpt>
      <trkpt lat="43.58542" lon="6.41321">
        <ele>618.5</ele>
        <time>2026-02-22T12:22:55Z</time>
      </trkpt>
      <trkpt lat="43.58542" lon="6.41321">
        <ele>618.5</ele>
        <time>2026-02-22T12:22:56Z</time>
      </trkpt>
      <trkpt lat="43.58542" lon="6.41321">
        <ele>618.5</ele>
        <time>2026-02-22T12:22:57Z</time>
      </trkpt>
      <trkpt lat="43.58542" lon="6.41321">
        <ele>618.5</ele>
        <time>2026-02-22T12:22:58Z</time>
      </trkpt>
      <trkpt lat="43.58542" lon="6.41321">
        <ele>618.5</ele>
        <time>2026-02-22T12:22:59Z</time>
      </trkpt>
      <trkpt lat="43.58543" lon="6.41322">
        <ele>618.4</ele>
        <time>2026-02-22T12:23:00Z</time>
      </trkpt>
      <trkpt lat="43.58543" lon="6.41322">
        <ele>618.4</ele>
        <time>2026-02-22T12:23:01Z</time>
      </trkpt>
      <trkpt lat="43.58543" lon="6.41322">
        <ele>618.4</ele>
        <time>2026-02-22T12:23:02Z</time>
      </trkpt>
      <trkpt lat="43.58543" lon="6.41322">
        <ele>618.4</ele>
        <time>2026-02-22T12:23:03Z</time>
      </trkpt>
      <trkpt lat="43.58543" lon="6.41322">
        <ele>618.4</ele>
        <time>2026-02-22T12:23:04Z</time>
      </trkpt>
      <trkpt lat="43.58543" lon="6.41323">
        <ele>618.4</ele>
        <time>2026-02-22T12:23:05Z</time>
      </trkpt>
      <trkpt lat="43.58543" lon="6.41323">
        <ele>618.4</ele>
        <time>2026-02-22T12:23:06Z</time>
      </trkpt>
      <trkpt lat="43.58543" lon="6.41323">
        <ele>618.3</ele>
        <time>2026-02-22T12:23:07Z</time>
      </trkpt>
      <trkpt lat="43.58543" lon="6.41323">
        <ele>618.3</ele>
        <time>2026-02-22T12:23:08Z</time>
      </trkpt>
      <trkpt lat="43.58543" lon="6.41323">
        <ele>618.2</ele>
        <time>2026-02-22T12:23:09Z</time>
      </trkpt>
      <trkpt lat="43.58543" lon="6.41323">
        <ele>618.2</ele>
        <time>2026-02-22T12:23:10Z</time>
      </trkpt>
      <trkpt lat="43.58543" lon="6.41323">
        <ele>618.2</ele>
        <time>2026-02-22T12:23:11Z</time>
      </trkpt>
      <trkpt lat="43.58543" lon="6.41323">
        <ele>618.1</ele>
        <time>2026-02-22T12:23:12Z</time>
      </trkpt>
      <trkpt lat="43.58543" lon="6.41323">
        <ele>618.1</ele>
        <time>2026-02-22T12:23:13Z</time>
      </trkpt>
      <trkpt lat="43.58543" lon="6.41323">
        <ele>618.1</ele>
        <time>2026-02-22T12:23:14Z</time>
      </trkpt>
      <trkpt lat="43.58543" lon="6.41323">
        <ele>618.1</ele>
        <time>2026-02-22T12:23:15Z</time>
      </trkpt>
      <trkpt lat="43.58543" lon="6.41324">
        <ele>618.1</ele>
        <time>2026-02-22T12:23:16Z</time>
      </trkpt>
      <trkpt lat="43.58543" lon="6.41324">
        <ele>618.2</ele>
        <time>2026-02-22T12:23:17Z</time>
      </trkpt>
      <trkpt lat="43.58543" lon="6.41324">
        <ele>618.1</ele>
        <time>2026-02-22T12:23:18Z</time>
      </trkpt>
      <trkpt lat="43.58544" lon="6.41324">
        <ele>618.1</ele>
        <time>2026-02-22T12:23:19Z</time>
      </trkpt>
      <trkpt lat="43.58544" lon="6.41324">
        <ele>618.2</ele>
        <time>2026-02-22T12:23:20Z</time>
      </trkpt>
      <trkpt lat="43.58544" lon="6.41324">
        <ele>618.2</ele>
        <time>2026-02-22T12:23:21Z</time>
      </trkpt>
      <trkpt lat="43.58544" lon="6.41324">
        <ele>618.3</ele>
        <time>2026-02-22T12:23:22Z</time>
      </trkpt>
      <trkpt lat="43.58544" lon="6.41324">
        <ele>618.3</ele>
        <time>2026-02-22T12:23:23Z</time>
      </trkpt>
      <trkpt lat="43.58544" lon="6.41324">
        <ele>618.3</ele>
        <time>2026-02-22T12:23:24Z</time>
      </trkpt>
      <trkpt lat="43.58544" lon="6.41323">
        <ele>618.4</ele>
        <time>2026-02-22T12:23:25Z</time>
      </trkpt>
      <trkpt lat="43.58543" lon="6.41323">
        <ele>618.4</ele>
        <time>2026-02-22T12:23:26Z</time>
      </trkpt>
      <trkpt lat="43.58543" lon="6.41323">
        <ele>618.5</ele>
        <time>2026-02-22T12:23:27Z</time>
      </trkpt>
      <trkpt lat="43.58543" lon="6.41323">
        <ele>618.6</ele>
        <time>2026-02-22T12:23:28Z</time>
      </trkpt>
      <trkpt lat="43.58542" lon="6.41323">
        <ele>618.7</ele>
        <time>2026-02-22T12:23:29Z</time>
      </trkpt>
      <trkpt lat="43.58542" lon="6.41322">
        <ele>618.8</ele>
        <time>2026-02-22T12:23:30Z</time>
      </trkpt>
      <trkpt lat="43.58542" lon="6.41322">
        <ele>618.9</ele>
        <time>2026-02-22T12:23:31Z</time>
      </trkpt>
      <trkpt lat="43.58542" lon="6.41323">
        <ele>618.9</ele>
        <time>2026-02-22T12:23:32Z</time>
      </trkpt>
      <trkpt lat="43.58542" lon="6.41323">
        <ele>618.9</ele>
        <time>2026-02-22T12:23:33Z</time>
      </trkpt>
      <trkpt lat="43.58542" lon="6.41323">
        <ele>619</ele>
        <time>2026-02-22T12:23:34Z</time>
      </trkpt>
      <trkpt lat="43.58541" lon="6.41323">
        <ele>618.9</ele>
        <time>2026-02-22T12:23:35Z</time>
      </trkpt>
      <trkpt lat="43.58541" lon="6.41323">
        <ele>618.8</ele>
        <time>2026-02-22T12:23:36Z</time>
      </trkpt>
      <trkpt lat="43.58541" lon="6.41322">
        <ele>618.8</ele>
        <time>2026-02-22T12:23:37Z</time>
      </trkpt>
      <trkpt lat="43.58541" lon="6.41322">
        <ele>618.9</ele>
        <time>2026-02-22T12:23:38Z</time>
      </trkpt>
      <trkpt lat="43.58541" lon="6.41322">
        <ele>618.9</ele>
        <time>2026-02-22T12:23:39Z</time>
      </trkpt>
      <trkpt lat="43.58541" lon="6.41322">
        <ele>618.9</ele>
        <time>2026-02-22T12:23:40Z</time>
      </trkpt>
      <trkpt lat="43.5854" lon="6.41322">
        <ele>619</ele>
        <time>2026-02-22T12:23:41Z</time>
      </trkpt>
      <trkpt lat="43.5854" lon="6.41322">
        <ele>619</ele>
        <time>2026-02-22T12:23:42Z</time>
      </trkpt>
      <trkpt lat="43.5854" lon="6.41322">
        <ele>619</ele>
        <time>2026-02-22T12:23:43Z</time>
      </trkpt>
      <trkpt lat="43.5854" lon="6.41322">
        <ele>619.1</ele>
        <time>2026-02-22T12:23:44Z</time>
      </trkpt>
      <trkpt lat="43.5854" lon="6.41321">
        <ele>619.1</ele>
        <time>2026-02-22T12:23:45Z</time>
      </trkpt>
      <trkpt lat="43.5854" lon="6.41321">
        <ele>619.2</ele>
        <time>2026-02-22T12:23:46Z</time>
      </trkpt>
      <trkpt lat="43.5854" lon="6.41322">
        <ele>619.2</ele>
        <time>2026-02-22T12:23:47Z</time>
      </trkpt>
      <trkpt lat="43.58539" lon="6.41321">
        <ele>619.1</ele>
        <time>2026-02-22T12:23:48Z</time>
      </trkpt>
      <trkpt lat="43.58539" lon="6.41321">
        <ele>619.2</ele>
        <time>2026-02-22T12:23:49Z</time>
      </trkpt>
      <trkpt lat="43.58539" lon="6.41321">
        <ele>619.2</ele>
        <time>2026-02-22T12:23:50Z</time>
      </trkpt>
      <trkpt lat="43.58539" lon="6.41321">
        <ele>619.2</ele>
        <time>2026-02-22T12:23:51Z</time>
      </trkpt>
      <trkpt lat="43.58539" lon="6.41321">
        <ele>619.2</ele>
        <time>2026-02-22T12:23:52Z</time>
      </trkpt>
      <trkpt lat="43.58539" lon="6.41321">
        <ele>619.3</ele>
        <time>2026-02-22T12:23:53Z</time>
      </trkpt>
      <trkpt lat="43.58539" lon="6.41321">
        <ele>619.4</ele>
        <time>2026-02-22T12:23:54Z</time>
      </trkpt>
      <trkpt lat="43.58538" lon="6.41321">
        <ele>619.5</ele>
        <time>2026-02-22T12:23:55Z</time>
      </trkpt>
      <trkpt lat="43.58538" lon="6.41322">
        <ele>619.5</ele>
        <time>2026-02-22T12:23:56Z</time>
      </trkpt>
      <trkpt lat="43.58538" lon="6.41322">
        <ele>619.5</ele>
        <time>2026-02-22T12:23:57Z</time>
      </trkpt>
      <trkpt lat="43.58538" lon="6.41322">
        <ele>619.5</ele>
        <time>2026-02-22T12:23:58Z</time>
      </trkpt>
      <trkpt lat="43.58537" lon="6.41322">
        <ele>619.4</ele>
        <time>2026-02-22T12:23:59Z</time>
      </trkpt>
      <trkpt lat="43.58537" lon="6.41322">
        <ele>619.3</ele>
        <time>2026-02-22T12:24:00Z</time>
      </trkpt>
      <trkpt lat="43.58536" lon="6.41322">
        <ele>619.3</ele>
        <time>2026-02-22T12:24:01Z</time>
      </trkpt>
      <trkpt lat="43.58536" lon="6.41322">
        <ele>619.3</ele>
        <time>2026-02-22T12:24:02Z</time>
      </trkpt>
      <trkpt lat="43.58535" lon="6.41322">
        <ele>619.2</ele>
        <time>2026-02-22T12:24:03Z</time>
      </trkpt>
      <trkpt lat="43.58535" lon="6.41322">
        <ele>619.1</ele>
        <time>2026-02-22T12:24:04Z</time>
      </trkpt>
      <trkpt lat="43.58534" lon="6.41322">
        <ele>619.1</ele>
        <time>2026-02-22T12:24:05Z</time>
      </trkpt>
      <trkpt lat="43.58534" lon="6.41322">
        <ele>619.1</ele>
        <time>2026-02-22T12:24:06Z</time>
      </trkpt>
      <trkpt lat="43.58534" lon="6.41322">
        <ele>619</ele>
        <time>2026-02-22T12:24:07Z</time>
      </trkpt>
      <trkpt lat="43.58534" lon="6.41322">
        <ele>619.1</ele>
        <time>2026-02-22T12:24:08Z</time>
      </trkpt>
      <trkpt lat="43.58533" lon="6.41321">
        <ele>619.1</ele>
        <time>2026-02-22T12:24:09Z</time>
      </trkpt>
      <trkpt lat="43.58533" lon="6.41322">
        <ele>619.2</ele>
        <time>2026-02-22T12:24:10Z</time>
      </trkpt>
      <trkpt lat="43.58532" lon="6.41322">
        <ele>619.2</ele>
        <time>2026-02-22T12:24:11Z</time>
      </trkpt>
      <trkpt lat="43.58532" lon="6.41322">
        <ele>619.2</ele>
        <time>2026-02-22T12:24:12Z</time>
      </trkpt>
      <trkpt lat="43.58531" lon="6.41321">
        <ele>619.2</ele>
        <time>2026-02-22T12:24:13Z</time>
      </trkpt>
      <trkpt lat="43.58531" lon="6.41321">
        <ele>619</ele>
        <time>2026-02-22T12:24:14Z</time>
      </trkpt>
      <trkpt lat="43.58531" lon="6.41321">
        <ele>619.2</ele>
        <time>2026-02-22T12:24:15Z</time>
      </trkpt>
      <trkpt lat="43.58531" lon="6.41321">
        <ele>619.1</ele>
        <time>2026-02-22T12:24:16Z</time>
      </trkpt>
      <trkpt lat="43.58531" lon="6.41321">
        <ele>619.1</ele>
        <time>2026-02-22T12:24:17Z</time>
      </trkpt>
      <trkpt lat="43.58531" lon="6.41322">
        <ele>619.1</ele>
        <time>2026-02-22T12:24:18Z</time>
      </trkpt>
      <trkpt lat="43.58531" lon="6.41322">
        <ele>619.1</ele>
        <time>2026-02-22T12:24:19Z</time>
      </trkpt>
      <trkpt lat="43.58531" lon="6.41322">
        <ele>619.1</ele>
        <time>2026-02-22T12:24:20Z</time>
      </trkpt>
      <trkpt lat="43.58531" lon="6.41322">
        <ele>619.1</ele>
        <time>2026-02-22T12:24:21Z</time>
      </trkpt>
      <trkpt lat="43.58531" lon="6.41322">
        <ele>619.1</ele>
        <time>2026-02-22T12:24:22Z</time>
      </trkpt>
      <trkpt lat="43.58531" lon="6.41322">
        <ele>619.1</ele>
        <time>2026-02-22T12:24:23Z</time>
      </trkpt>
      <trkpt lat="43.58531" lon="6.41322">
        <ele>619.1</ele>
        <time>2026-02-22T12:24:24Z</time>
      </trkpt>
      <trkpt lat="43.5853" lon="6.41322">
        <ele>619.2</ele>
        <time>2026-02-22T12:24:25Z</time>
      </trkpt>
      <trkpt lat="43.5853" lon="6.41322">
        <ele>619.2</ele>
        <time>2026-02-22T12:24:26Z</time>
      </trkpt>
      <trkpt lat="43.5853" lon="6.41322">
        <ele>619.2</ele>
        <time>2026-02-22T12:24:27Z</time>
      </trkpt>
      <trkpt lat="43.5853" lon="6.41322">
        <ele>619.2</ele>
        <time>2026-02-22T12:24:28Z</time>
      </trkpt>
      <trkpt lat="43.5853" lon="6.41322">
        <ele>619.2</ele>
        <time>2026-02-22T12:24:29Z</time>
      </trkpt>
      <trkpt lat="43.5853" lon="6.41322">
        <ele>619.2</ele>
        <time>2026-02-22T12:24:30Z</time>
      </trkpt>
      <trkpt lat="43.58529" lon="6.41322">
        <ele>619.1</ele>
        <time>2026-02-22T12:24:31Z</time>
      </trkpt>
      <trkpt lat="43.58529" lon="6.41323">
        <ele>619.1</ele>
        <time>2026-02-22T12:24:32Z</time>
      </trkpt>
      <trkpt lat="43.58529" lon="6.41323">
        <ele>619.1</ele>
        <time>2026-02-22T12:24:33Z</time>
      </trkpt>
      <trkpt lat="43.58529" lon="6.41323">
        <ele>619.1</ele>
        <time>2026-02-22T12:24:34Z</time>
      </trkpt>
      <trkpt lat="43.58529" lon="6.41323">
        <ele>619.1</ele>
        <time>2026-02-22T12:24:35Z</time>
      </trkpt>
      <trkpt lat="43.58529" lon="6.41323">
        <ele>619.2</ele>
        <time>2026-02-22T12:24:36Z</time>
      </trkpt>
      <trkpt lat="43.58529" lon="6.41323">
        <ele>619.2</ele>
        <time>2026-02-22T12:24:37Z</time>
      </trkpt>
      <trkpt lat="43.58529" lon="6.41324">
        <ele>619.2</ele>
        <time>2026-02-22T12:24:38Z</time>
      </trkpt>
      <trkpt lat="43.58529" lon="6.41324">
        <ele>619.3</ele>
        <time>2026-02-22T12:24:39Z</time>
      </trkpt>
      <trkpt lat="43.58529" lon="6.41324">
        <ele>619.3</ele>
        <time>2026-02-22T12:24:40Z</time>
      </trkpt>
      <trkpt lat="43.58529" lon="6.41324">
        <ele>619.4</ele>
        <time>2026-02-22T12:24:41Z</time>
      </trkpt>
      <trkpt lat="43.58529" lon="6.41325">
        <ele>619.4</ele>
        <time>2026-02-22T12:24:42Z</time>
      </trkpt>
      <trkpt lat="43.58529" lon="6.41325">
        <ele>619.4</ele>
        <time>2026-02-22T12:24:43Z</time>
      </trkpt>
      <trkpt lat="43.58529" lon="6.41325">
        <ele>619.5</ele>
        <time>2026-02-22T12:24:44Z</time>
      </trkpt>
      <trkpt lat="43.58529" lon="6.41325">
        <ele>619.6</ele>
        <time>2026-02-22T12:24:45Z</time>
      </trkpt>
      <trkpt lat="43.58528" lon="6.41325">
        <ele>619.5</ele>
        <time>2026-02-22T12:24:46Z</time>
      </trkpt>
      <trkpt lat="43.58528" lon="6.41325">
        <ele>619.5</ele>
        <time>2026-02-22T12:24:47Z</time>
      </trkpt>
      <trkpt lat="43.58528" lon="6.41325">
        <ele>619.4</ele>
        <time>2026-02-22T12:24:48Z</time>
      </trkpt>
      <trkpt lat="43.58528" lon="6.41325">
        <ele>619.3</ele>
        <time>2026-02-22T12:24:49Z</time>
      </trkpt>
      <trkpt lat="43.58528" lon="6.41325">
        <ele>619.3</ele>
        <time>2026-02-22T12:24:50Z</time>
      </trkpt>
      <trkpt lat="43.58529" lon="6.41325">
        <ele>619.3</ele>
        <time>2026-02-22T12:24:51Z</time>
      </trkpt>
      <trkpt lat="43.58528" lon="6.41325">
        <ele>619.3</ele>
        <time>2026-02-22T12:24:52Z</time>
      </trkpt>
      <trkpt lat="43.58528" lon="6.41326">
        <ele>619.2</ele>
        <time>2026-02-22T12:24:53Z</time>
      </trkpt>
      <trkpt lat="43.58528" lon="6.41326">
        <ele>619.2</ele>
        <time>2026-02-22T12:24:54Z</time>
      </trkpt>
      <trkpt lat="43.58528" lon="6.41326">
        <ele>619.2</ele>
        <time>2026-02-22T12:24:55Z</time>
      </trkpt>
      <trkpt lat="43.58528" lon="6.41325">
        <ele>619.2</ele>
        <time>2026-02-22T12:24:56Z</time>
      </trkpt>
      <trkpt lat="43.58528" lon="6.41325">
        <ele>619.3</ele>
        <time>2026-02-22T12:24:57Z</time>
      </trkpt>
      <trkpt lat="43.58528" lon="6.41325">
        <ele>619.3</ele>
        <time>2026-02-22T12:24:58Z</time>
      </trkpt>
      <trkpt lat="43.58528" lon="6.41325">
        <ele>619.3</ele>
        <time>2026-02-22T12:24:59Z</time>
      </trkpt>
      <trkpt lat="43.58528" lon="6.41324">
        <ele>619.2</ele>
        <time>2026-02-22T12:25:00Z</time>
      </trkpt>
      <trkpt lat="43.58528" lon="6.41325">
        <ele>619.2</ele>
        <time>2026-02-22T12:25:01Z</time>
      </trkpt>
      <trkpt lat="43.58528" lon="6.41324">
        <ele>619.2</ele>
        <time>2026-02-22T12:25:02Z</time>
      </trkpt>
      <trkpt lat="43.58527" lon="6.41324">
        <ele>619.3</ele>
        <time>2026-02-22T12:25:03Z</time>
      </trkpt>
      <trkpt lat="43.58526" lon="6.41324">
        <ele>619.3</ele>
        <time>2026-02-22T12:25:04Z</time>
      </trkpt>
      <trkpt lat="43.58526" lon="6.41324">
        <ele>619.4</ele>
        <time>2026-02-22T12:25:05Z</time>
      </trkpt>
      <trkpt lat="43.58525" lon="6.41324">
        <ele>619.4</ele>
        <time>2026-02-22T12:25:06Z</time>
      </trkpt>
      <trkpt lat="43.58525" lon="6.41324">
        <ele>619.3</ele>
        <time>2026-02-22T12:25:07Z</time>
      </trkpt>
      <trkpt lat="43.58524" lon="6.41324">
        <ele>619.3</ele>
        <time>2026-02-22T12:25:08Z</time>
      </trkpt>
      <trkpt lat="43.58524" lon="6.41324">
        <ele>619.3</ele>
        <time>2026-02-22T12:25:09Z</time>
      </trkpt>
      <trkpt lat="43.58524" lon="6.41324">
        <ele>619.2</ele>
        <time>2026-02-22T12:25:10Z</time>
      </trkpt>
      <trkpt lat="43.58524" lon="6.41324">
        <ele>619.2</ele>
        <time>2026-02-22T12:25:11Z</time>
      </trkpt>
      <trkpt lat="43.58523" lon="6.41324">
        <ele>619.1</ele>
        <time>2026-02-22T12:25:12Z</time>
      </trkpt>
      <trkpt lat="43.58523" lon="6.41324">
        <ele>619.1</ele>
        <time>2026-02-22T12:25:13Z</time>
      </trkpt>
      <trkpt lat="43.58523" lon="6.41324">
        <ele>619.1</ele>
        <time>2026-02-22T12:25:14Z</time>
      </trkpt>
      <trkpt lat="43.58522" lon="6.41324">
        <ele>619</ele>
        <time>2026-02-22T12:25:15Z</time>
      </trkpt>
      <trkpt lat="43.58522" lon="6.41324">
        <ele>619</ele>
        <time>2026-02-22T12:25:16Z</time>
      </trkpt>
      <trkpt lat="43.58522" lon="6.41324">
        <ele>619</ele>
        <time>2026-02-22T12:25:17Z</time>
      </trkpt>
      <trkpt lat="43.58522" lon="6.41324">
        <ele>619</ele>
        <time>2026-02-22T12:25:18Z</time>
      </trkpt>
      <trkpt lat="43.58522" lon="6.41324">
        <ele>619</ele>
        <time>2026-02-22T12:25:19Z</time>
      </trkpt>
      <trkpt lat="43.58522" lon="6.41324">
        <ele>619</ele>
        <time>2026-02-22T12:25:20Z</time>
      </trkpt>
      <trkpt lat="43.58521" lon="6.41324">
        <ele>619</ele>
        <time>2026-02-22T12:25:21Z</time>
      </trkpt>
      <trkpt lat="43.58521" lon="6.41325">
        <ele>619</ele>
        <time>2026-02-22T12:25:22Z</time>
      </trkpt>
      <trkpt lat="43.58521" lon="6.41325">
        <ele>619</ele>
        <time>2026-02-22T12:25:23Z</time>
      </trkpt>
      <trkpt lat="43.5852" lon="6.41325">
        <ele>619</ele>
        <time>2026-02-22T12:25:24Z</time>
      </trkpt>
      <trkpt lat="43.58519" lon="6.41325">
        <ele>619</ele>
        <time>2026-02-22T12:25:25Z</time>
      </trkpt>
      <trkpt lat="43.58519" lon="6.41324">
        <ele>618.9</ele>
        <time>2026-02-22T12:25:26Z</time>
      </trkpt>
      <trkpt lat="43.58518" lon="6.41324">
        <ele>618.8</ele>
        <time>2026-02-22T12:25:27Z</time>
      </trkpt>
      <trkpt lat="43.58518" lon="6.41324">
        <ele>618.8</ele>
        <time>2026-02-22T12:25:28Z</time>
      </trkpt>
      <trkpt lat="43.58518" lon="6.41324">
        <ele>618.8</ele>
        <time>2026-02-22T12:25:29Z</time>
      </trkpt>
      <trkpt lat="43.58518" lon="6.41324">
        <ele>618.8</ele>
        <time>2026-02-22T12:25:30Z</time>
      </trkpt>
      <trkpt lat="43.58518" lon="6.41324">
        <ele>618.9</ele>
        <time>2026-02-22T12:25:31Z</time>
      </trkpt>
      <trkpt lat="43.58518" lon="6.41324">
        <ele>619</ele>
        <time>2026-02-22T12:25:32Z</time>
      </trkpt>
      <trkpt lat="43.58517" lon="6.41324">
        <ele>619</ele>
        <time>2026-02-22T12:25:33Z</time>
      </trkpt>
      <trkpt lat="43.58517" lon="6.41323">
        <ele>619</ele>
        <time>2026-02-22T12:25:34Z</time>
      </trkpt>
      <trkpt lat="43.58517" lon="6.41323">
        <ele>619</ele>
        <time>2026-02-22T12:25:35Z</time>
      </trkpt>
      <trkpt lat="43.58516" lon="6.41323">
        <ele>619</ele>
        <time>2026-02-22T12:25:36Z</time>
      </trkpt>
      <trkpt lat="43.58516" lon="6.41323">
        <ele>619.1</ele>
        <time>2026-02-22T12:25:37Z</time>
      </trkpt>
      <trkpt lat="43.58515" lon="6.41322">
        <ele>619.1</ele>
        <time>2026-02-22T12:25:38Z</time>
      </trkpt>
      <trkpt lat="43.58514" lon="6.41322">
        <ele>619.2</ele>
        <time>2026-02-22T12:25:39Z</time>
      </trkpt>
      <trkpt lat="43.58514" lon="6.41322">
        <ele>619.3</ele>
        <time>2026-02-22T12:25:40Z</time>
      </trkpt>
      <trkpt lat="43.58513" lon="6.41322">
        <ele>619.4</ele>
        <time>2026-02-22T12:25:41Z</time>
      </trkpt>
      <trkpt lat="43.58512" lon="6.41323">
        <ele>619.4</ele>
        <time>2026-02-22T12:25:42Z</time>
      </trkpt>
      <trkpt lat="43.58512" lon="6.41323">
        <ele>619.4</ele>
        <time>2026-02-22T12:25:43Z</time>
      </trkpt>
      <trkpt lat="43.58512" lon="6.41323">
        <ele>619.5</ele>
        <time>2026-02-22T12:25:44Z</time>
      </trkpt>
      <trkpt lat="43.58512" lon="6.41323">
        <ele>619.5</ele>
        <time>2026-02-22T12:25:45Z</time>
      </trkpt>
      <trkpt lat="43.58511" lon="6.41323">
        <ele>619.5</ele>
        <time>2026-02-22T12:25:46Z</time>
      </trkpt>
      <trkpt lat="43.58511" lon="6.41323">
        <ele>619.4</ele>
        <time>2026-02-22T12:25:47Z</time>
      </trkpt>
      <trkpt lat="43.58511" lon="6.41323">
        <ele>619.3</ele>
        <time>2026-02-22T12:25:48Z</time>
      </trkpt>
      <trkpt lat="43.58511" lon="6.41323">
        <ele>619.3</ele>
        <time>2026-02-22T12:25:49Z</time>
      </trkpt>
      <trkpt lat="43.58511" lon="6.41323">
        <ele>619.2</ele>
        <time>2026-02-22T12:25:50Z</time>
      </trkpt>
      <trkpt lat="43.58511" lon="6.41322">
        <ele>619.2</ele>
        <time>2026-02-22T12:25:51Z</time>
      </trkpt>
      <trkpt lat="43.58511" lon="6.41322">
        <ele>619.2</ele>
        <time>2026-02-22T12:25:52Z</time>
      </trkpt>
      <trkpt lat="43.58511" lon="6.41322">
        <ele>619.2</ele>
        <time>2026-02-22T12:25:53Z</time>
      </trkpt>
      <trkpt lat="43.58511" lon="6.41322">
        <ele>619.1</ele>
        <time>2026-02-22T12:25:54Z</time>
      </trkpt>
      <trkpt lat="43.58511" lon="6.41322">
        <ele>619.1</ele>
        <time>2026-02-22T12:25:55Z</time>
      </trkpt>
      <trkpt lat="43.58511" lon="6.41322">
        <ele>619.1</ele>
        <time>2026-02-22T12:25:56Z</time>
      </trkpt>
      <trkpt lat="43.58511" lon="6.41322">
        <ele>619.1</ele>
        <time>2026-02-22T12:25:57Z</time>
      </trkpt>
      <trkpt lat="43.5851" lon="6.41322">
        <ele>619</ele>
        <time>2026-02-22T12:25:58Z</time>
      </trkpt>
      <trkpt lat="43.5851" lon="6.41322">
        <ele>619</ele>
        <time>2026-02-22T12:25:59Z</time>
      </trkpt>
      <trkpt lat="43.5851" lon="6.41322">
        <ele>618.9</ele>
        <time>2026-02-22T12:26:00Z</time>
      </trkpt>
      <trkpt lat="43.58509" lon="6.41322">
        <ele>618.9</ele>
        <time>2026-02-22T12:26:01Z</time>
      </trkpt>
      <trkpt lat="43.5851" lon="6.41323">
        <ele>618.8</ele>
        <time>2026-02-22T12:26:02Z</time>
      </trkpt>
      <trkpt lat="43.5851" lon="6.41323">
        <ele>618.8</ele>
        <time>2026-02-22T12:26:03Z</time>
      </trkpt>
      <trkpt lat="43.5851" lon="6.41323">
        <ele>618.7</ele>
        <time>2026-02-22T12:26:04Z</time>
      </trkpt>
      <trkpt lat="43.5851" lon="6.41323">
        <ele>618.7</ele>
        <time>2026-02-22T12:26:05Z</time>
      </trkpt>
      <trkpt lat="43.5851" lon="6.41323">
        <ele>618.7</ele>
        <time>2026-02-22T12:26:06Z</time>
      </trkpt>
      <trkpt lat="43.5851" lon="6.41323">
        <ele>618.7</ele>
        <time>2026-02-22T12:26:07Z</time>
      </trkpt>
      <trkpt lat="43.5851" lon="6.41323">
        <ele>618.7</ele>
        <time>2026-02-22T12:26:08Z</time>
      </trkpt>
      <trkpt lat="43.5851" lon="6.41323">
        <ele>618.7</ele>
        <time>2026-02-22T12:26:09Z</time>
      </trkpt>
      <trkpt lat="43.5851" lon="6.41323">
        <ele>618.8</ele>
        <time>2026-02-22T12:26:10Z</time>
      </trkpt>
      <trkpt lat="43.5851" lon="6.41323">
        <ele>618.8</ele>
        <time>2026-02-22T12:26:11Z</time>
      </trkpt>
      <trkpt lat="43.5851" lon="6.41322">
        <ele>618.8</ele>
        <time>2026-02-22T12:26:12Z</time>
      </trkpt>
      <trkpt lat="43.5851" lon="6.41322">
        <ele>618.9</ele>
        <time>2026-02-22T12:26:13Z</time>
      </trkpt>
      <trkpt lat="43.5851" lon="6.41322">
        <ele>618.9</ele>
        <time>2026-02-22T12:26:14Z</time>
      </trkpt>
      <trkpt lat="43.5851" lon="6.41322">
        <ele>618.9</ele>
        <time>2026-02-22T12:26:15Z</time>
      </trkpt>
      <trkpt lat="43.5851" lon="6.41322">
        <ele>619</ele>
        <time>2026-02-22T12:26:16Z</time>
      </trkpt>
      <trkpt lat="43.58511" lon="6.41322">
        <ele>619</ele>
        <time>2026-02-22T12:26:17Z</time>
      </trkpt>
      <trkpt lat="43.58511" lon="6.41322">
        <ele>619</ele>
        <time>2026-02-22T12:26:18Z</time>
      </trkpt>
      <trkpt lat="43.5851" lon="6.41322">
        <ele>618.9</ele>
        <time>2026-02-22T12:26:19Z</time>
      </trkpt>
      <trkpt lat="43.5851" lon="6.41322">
        <ele>618.9</ele>
        <time>2026-02-22T12:26:20Z</time>
      </trkpt>
      <trkpt lat="43.5851" lon="6.41323">
        <ele>618.9</ele>
        <time>2026-02-22T12:26:21Z</time>
      </trkpt>
      <trkpt lat="43.5851" lon="6.41323">
        <ele>618.9</ele>
        <time>2026-02-22T12:26:22Z</time>
      </trkpt>
      <trkpt lat="43.5851" lon="6.41323">
        <ele>618.9</ele>
        <time>2026-02-22T12:26:23Z</time>
      </trkpt>
      <trkpt lat="43.5851" lon="6.41323">
        <ele>618.9</ele>
        <time>2026-02-22T12:26:24Z</time>
      </trkpt>
      <trkpt lat="43.5851" lon="6.41323">
        <ele>618.9</ele>
        <time>2026-02-22T12:26:25Z</time>
      </trkpt>
      <trkpt lat="43.5851" lon="6.41323">
        <ele>619</ele>
        <time>2026-02-22T12:26:26Z</time>
      </trkpt>
      <trkpt lat="43.5851" lon="6.41323">
        <ele>619</ele>
        <time>2026-02-22T12:26:27Z</time>
      </trkpt>
      <trkpt lat="43.5851" lon="6.41323">
        <ele>619</ele>
        <time>2026-02-22T12:26:28Z</time>
      </trkpt>
      <trkpt lat="43.5851" lon="6.41323">
        <ele>619.1</ele>
        <time>2026-02-22T12:26:29Z</time>
      </trkpt>
      <trkpt lat="43.5851" lon="6.41322">
        <ele>619</ele>
        <time>2026-02-22T12:26:30Z</time>
      </trkpt>
      <trkpt lat="43.5851" lon="6.41322">
        <ele>619</ele>
        <time>2026-02-22T12:26:31Z</time>
      </trkpt>
      <trkpt lat="43.58509" lon="6.41322">
        <ele>619</ele>
        <time>2026-02-22T12:26:32Z</time>
      </trkpt>
      <trkpt lat="43.58509" lon="6.41322">
        <ele>619</ele>
        <time>2026-02-22T12:26:33Z</time>
      </trkpt>
      <trkpt lat="43.58509" lon="6.41322">
        <ele>618.9</ele>
        <time>2026-02-22T12:26:34Z</time>
      </trkpt>
      <trkpt lat="43.58508" lon="6.41322">
        <ele>619</ele>
        <time>2026-02-22T12:26:35Z</time>
      </trkpt>
      <trkpt lat="43.58508" lon="6.41322">
        <ele>619</ele>
        <time>2026-02-22T12:26:36Z</time>
      </trkpt>
      <trkpt lat="43.58508" lon="6.41322">
        <ele>619.1</ele>
        <time>2026-02-22T12:26:37Z</time>
      </trkpt>
      <trkpt lat="43.58508" lon="6.41322">
        <ele>619.1</ele>
        <time>2026-02-22T12:26:38Z</time>
      </trkpt>
      <trkpt lat="43.58507" lon="6.41322">
        <ele>619.2</ele>
        <time>2026-02-22T12:26:39Z</time>
      </trkpt>
      <trkpt lat="43.58507" lon="6.41322">
        <ele>619.2</ele>
        <time>2026-02-22T12:26:40Z</time>
      </trkpt>
      <trkpt lat="43.58506" lon="6.41322">
        <ele>619.2</ele>
        <time>2026-02-22T12:26:41Z</time>
      </trkpt>
      <trkpt lat="43.58506" lon="6.41322">
        <ele>619.2</ele>
        <time>2026-02-22T12:26:42Z</time>
      </trkpt>
      <trkpt lat="43.58506" lon="6.41322">
        <ele>619.2</ele>
        <time>2026-02-22T12:26:43Z</time>
      </trkpt>
      <trkpt lat="43.58505" lon="6.41322">
        <ele>619.2</ele>
        <time>2026-02-22T12:26:44Z</time>
      </trkpt>
      <trkpt lat="43.58505" lon="6.41322">
        <ele>619.2</ele>
        <time>2026-02-22T12:26:45Z</time>
      </trkpt>
      <trkpt lat="43.58505" lon="6.41322">
        <ele>619.2</ele>
        <time>2026-02-22T12:26:46Z</time>
      </trkpt>
      <trkpt lat="43.58504" lon="6.41323">
        <ele>619.2</ele>
        <time>2026-02-22T12:26:47Z</time>
      </trkpt>
      <trkpt lat="43.58503" lon="6.41323">
        <ele>619.1</ele>
        <time>2026-02-22T12:26:48Z</time>
      </trkpt>
      <trkpt lat="43.58503" lon="6.41323">
        <ele>619.1</ele>
        <time>2026-02-22T12:26:49Z</time>
      </trkpt>
      <trkpt lat="43.58503" lon="6.41323">
        <ele>619</ele>
        <time>2026-02-22T12:26:50Z</time>
      </trkpt>
      <trkpt lat="43.58502" lon="6.41323">
        <ele>619</ele>
        <time>2026-02-22T12:26:51Z</time>
      </trkpt>
      <trkpt lat="43.58502" lon="6.41323">
        <ele>619</ele>
        <time>2026-02-22T12:26:52Z</time>
      </trkpt>
      <trkpt lat="43.58501" lon="6.41323">
        <ele>619</ele>
        <time>2026-02-22T12:26:53Z</time>
      </trkpt>
      <trkpt lat="43.58501" lon="6.41323">
        <ele>619</ele>
        <time>2026-02-22T12:26:54Z</time>
      </trkpt>
      <trkpt lat="43.585" lon="6.41324">
        <ele>618.9</ele>
        <time>2026-02-22T12:26:55Z</time>
      </trkpt>
      <trkpt lat="43.58499" lon="6.41324">
        <ele>618.9</ele>
        <time>2026-02-22T12:26:56Z</time>
      </trkpt>
      <trkpt lat="43.58499" lon="6.41325">
        <ele>618.8</ele>
        <time>2026-02-22T12:26:57Z</time>
      </trkpt>
      <trkpt lat="43.58499" lon="6.41325">
        <ele>618.8</ele>
        <time>2026-02-22T12:26:58Z</time>
      </trkpt>
      <trkpt lat="43.58498" lon="6.41325">
        <ele>618.9</ele>
        <time>2026-02-22T12:26:59Z</time>
      </trkpt>
      <trkpt lat="43.58498" lon="6.41326">
        <ele>618.9</ele>
        <time>2026-02-22T12:27:00Z</time>
      </trkpt>
      <trkpt lat="43.58497" lon="6.41326">
        <ele>618.9</ele>
        <time>2026-02-22T12:27:01Z</time>
      </trkpt>
      <trkpt lat="43.58497" lon="6.41326">
        <ele>618.9</ele>
        <time>2026-02-22T12:27:02Z</time>
      </trkpt>
      <trkpt lat="43.58496" lon="6.41327">
        <ele>618.9</ele>
        <time>2026-02-22T12:27:03Z</time>
      </trkpt>
      <trkpt lat="43.58496" lon="6.41327">
        <ele>618.8</ele>
        <time>2026-02-22T12:27:04Z</time>
      </trkpt>
      <trkpt lat="43.58496" lon="6.41327">
        <ele>618.9</ele>
        <time>2026-02-22T12:27:05Z</time>
      </trkpt>
      <trkpt lat="43.58496" lon="6.41327">
        <ele>618.9</ele>
        <time>2026-02-22T12:27:06Z</time>
      </trkpt>
      <trkpt lat="43.58496" lon="6.41327">
        <ele>618.8</ele>
        <time>2026-02-22T12:27:07Z</time>
      </trkpt>
      <trkpt lat="43.58496" lon="6.41327">
        <ele>618.8</ele>
        <time>2026-02-22T12:27:08Z</time>
      </trkpt>
      <trkpt lat="43.58495" lon="6.41327">
        <ele>618.8</ele>
        <time>2026-02-22T12:27:09Z</time>
      </trkpt>
      <trkpt lat="43.58495" lon="6.41327">
        <ele>618.8</ele>
        <time>2026-02-22T12:27:10Z</time>
      </trkpt>
      <trkpt lat="43.58495" lon="6.41328">
        <ele>618.8</ele>
        <time>2026-02-22T12:27:11Z</time>
      </trkpt>
      <trkpt lat="43.58494" lon="6.41328">
        <ele>618.9</ele>
        <time>2026-02-22T12:27:12Z</time>
      </trkpt>
      <trkpt lat="43.58494" lon="6.41328">
        <ele>618.8</ele>
        <time>2026-02-22T12:27:13Z</time>
      </trkpt>
      <trkpt lat="43.58493" lon="6.41328">
        <ele>618.7</ele>
        <time>2026-02-22T12:27:14Z</time>
      </trkpt>
      <trkpt lat="43.58492" lon="6.41328">
        <ele>618.7</ele>
        <time>2026-02-22T12:27:15Z</time>
      </trkpt>
      <trkpt lat="43.58492" lon="6.41329">
        <ele>618.6</ele>
        <time>2026-02-22T12:27:16Z</time>
      </trkpt>
      <trkpt lat="43.58492" lon="6.4133">
        <ele>618.6</ele>
        <time>2026-02-22T12:27:17Z</time>
      </trkpt>
      <trkpt lat="43.58492" lon="6.41331">
        <ele>618.6</ele>
        <time>2026-02-22T12:27:18Z</time>
      </trkpt>
      <trkpt lat="43.58491" lon="6.41331">
        <ele>618.5</ele>
        <time>2026-02-22T12:27:19Z</time>
      </trkpt>
      <trkpt lat="43.58491" lon="6.41332">
        <ele>618.4</ele>
        <time>2026-02-22T12:27:20Z</time>
      </trkpt>
      <trkpt lat="43.58491" lon="6.41332">
        <ele>618.3</ele>
        <time>2026-02-22T12:27:21Z</time>
      </trkpt>
      <trkpt lat="43.5849" lon="6.41332">
        <ele>618.3</ele>
        <time>2026-02-22T12:27:22Z</time>
      </trkpt>
      <trkpt lat="43.5849" lon="6.41331">
        <ele>618.2</ele>
        <time>2026-02-22T12:27:23Z</time>
      </trkpt>
      <trkpt lat="43.5849" lon="6.41331">
        <ele>618.2</ele>
        <time>2026-02-22T12:27:24Z</time>
      </trkpt>
      <trkpt lat="43.5849" lon="6.41331">
        <ele>618.1</ele>
        <time>2026-02-22T12:27:25Z</time>
      </trkpt>
      <trkpt lat="43.58489" lon="6.41331">
        <ele>618.1</ele>
        <time>2026-02-22T12:27:26Z</time>
      </trkpt>
      <trkpt lat="43.58489" lon="6.41331">
        <ele>618.1</ele>
        <time>2026-02-22T12:27:27Z</time>
      </trkpt>
      <trkpt lat="43.58489" lon="6.41331">
        <ele>618.1</ele>
        <time>2026-02-22T12:27:28Z</time>
      </trkpt>
      <trkpt lat="43.58489" lon="6.41331">
        <ele>618.1</ele>
        <time>2026-02-22T12:27:29Z</time>
      </trkpt>
      <trkpt lat="43.58489" lon="6.41331">
        <ele>618</ele>
        <time>2026-02-22T12:27:30Z</time>
      </trkpt>
      <trkpt lat="43.58489" lon="6.41331">
        <ele>618</ele>
        <time>2026-02-22T12:27:31Z</time>
      </trkpt>
      <trkpt lat="43.58489" lon="6.41332">
        <ele>618.1</ele>
        <time>2026-02-22T12:27:32Z</time>
      </trkpt>
      <trkpt lat="43.58489" lon="6.41332">
        <ele>618.1</ele>
        <time>2026-02-22T12:27:33Z</time>
      </trkpt>
      <trkpt lat="43.58489" lon="6.41332">
        <ele>618</ele>
        <time>2026-02-22T12:27:34Z</time>
      </trkpt>
      <trkpt lat="43.58489" lon="6.41332">
        <ele>618.1</ele>
        <time>2026-02-22T12:27:35Z</time>
      </trkpt>
      <trkpt lat="43.58489" lon="6.41332">
        <ele>618</ele>
        <time>2026-02-22T12:27:36Z</time>
      </trkpt>
      <trkpt lat="43.58489" lon="6.41332">
        <ele>617.9</ele>
        <time>2026-02-22T12:27:37Z</time>
      </trkpt>
      <trkpt lat="43.58489" lon="6.41332">
        <ele>617.8</ele>
        <time>2026-02-22T12:27:38Z</time>
      </trkpt>
      <trkpt lat="43.58489" lon="6.41332">
        <ele>617.7</ele>
        <time>2026-02-22T12:27:39Z</time>
      </trkpt>
      <trkpt lat="43.58489" lon="6.41332">
        <ele>617.6</ele>
        <time>2026-02-22T12:27:40Z</time>
      </trkpt>
      <trkpt lat="43.58489" lon="6.41332">
        <ele>617.7</ele>
        <time>2026-02-22T12:27:41Z</time>
      </trkpt>
      <trkpt lat="43.58489" lon="6.41332">
        <ele>617.7</ele>
        <time>2026-02-22T12:27:42Z</time>
      </trkpt>
      <trkpt lat="43.58489" lon="6.41332">
        <ele>617.8</ele>
        <time>2026-02-22T12:27:43Z</time>
      </trkpt>
      <trkpt lat="43.58489" lon="6.41332">
        <ele>617.8</ele>
        <time>2026-02-22T12:27:44Z</time>
      </trkpt>
      <trkpt lat="43.58489" lon="6.41332">
        <ele>617.8</ele>
        <time>2026-02-22T12:27:45Z</time>
      </trkpt>
      <trkpt lat="43.58489" lon="6.41332">
        <ele>617.8</ele>
        <time>2026-02-22T12:27:46Z</time>
      </trkpt>
      <trkpt lat="43.58489" lon="6.41332">
        <ele>617.8</ele>
        <time>2026-02-22T12:27:47Z</time>
      </trkpt>
      <trkpt lat="43.58489" lon="6.41332">
        <ele>617.9</ele>
        <time>2026-02-22T12:27:48Z</time>
      </trkpt>
      <trkpt lat="43.58489" lon="6.41332">
        <ele>617.9</ele>
        <time>2026-02-22T12:27:49Z</time>
      </trkpt>
      <trkpt lat="43.58489" lon="6.41332">
        <ele>618</ele>
        <time>2026-02-22T12:27:50Z</time>
      </trkpt>
      <trkpt lat="43.58489" lon="6.41332">
        <ele>618.1</ele>
        <time>2026-02-22T12:27:51Z</time>
      </trkpt>
      <trkpt lat="43.58489" lon="6.41332">
        <ele>618.1</ele>
        <time>2026-02-22T12:27:52Z</time>
      </trkpt>
      <trkpt lat="43.58489" lon="6.41331">
        <ele>618.1</ele>
        <time>2026-02-22T12:27:53Z</time>
      </trkpt>
      <trkpt lat="43.58489" lon="6.41331">
        <ele>618.1</ele>
        <time>2026-02-22T12:27:54Z</time>
      </trkpt>
      <trkpt lat="43.58489" lon="6.41331">
        <ele>618.1</ele>
        <time>2026-02-22T12:27:55Z</time>
      </trkpt>
      <trkpt lat="43.58489" lon="6.41331">
        <ele>618.1</ele>
        <time>2026-02-22T12:27:56Z</time>
      </trkpt>
      <trkpt lat="43.58489" lon="6.41331">
        <ele>618.1</ele>
        <time>2026-02-22T12:27:57Z</time>
      </trkpt>
      <trkpt lat="43.58488" lon="6.41331">
        <ele>618</ele>
        <time>2026-02-22T12:27:58Z</time>
      </trkpt>
      <trkpt lat="43.58488" lon="6.41331">
        <ele>618</ele>
        <time>2026-02-22T12:27:59Z</time>
      </trkpt>
      <trkpt lat="43.58488" lon="6.41331">
        <ele>618</ele>
        <time>2026-02-22T12:28:00Z</time>
      </trkpt>
      <trkpt lat="43.58489" lon="6.41331">
        <ele>617.9</ele>
        <time>2026-02-22T12:28:01Z</time>
      </trkpt>
      <trkpt lat="43.58488" lon="6.41331">
        <ele>617.9</ele>
        <time>2026-02-22T12:28:02Z</time>
      </trkpt>
      <trkpt lat="43.58488" lon="6.41331">
        <ele>617.9</ele>
        <time>2026-02-22T12:28:03Z</time>
      </trkpt>
      <trkpt lat="43.58488" lon="6.41331">
        <ele>618</ele>
        <time>2026-02-22T12:28:04Z</time>
      </trkpt>
      <trkpt lat="43.58488" lon="6.41331">
        <ele>618</ele>
        <time>2026-02-22T12:28:05Z</time>
      </trkpt>
      <trkpt lat="43.58488" lon="6.41331">
        <ele>618</ele>
        <time>2026-02-22T12:28:06Z</time>
      </trkpt>
      <trkpt lat="43.58488" lon="6.41331">
        <ele>618.1</ele>
        <time>2026-02-22T12:28:07Z</time>
      </trkpt>
      <trkpt lat="43.58488" lon="6.41331">
        <ele>618.1</ele>
        <time>2026-02-22T12:28:08Z</time>
      </trkpt>
      <trkpt lat="43.58488" lon="6.41331">
        <ele>618.2</ele>
        <time>2026-02-22T12:28:09Z</time>
      </trkpt>
      <trkpt lat="43.58488" lon="6.41331">
        <ele>618.2</ele>
        <time>2026-02-22T12:28:10Z</time>
      </trkpt>
      <trkpt lat="43.58488" lon="6.41331">
        <ele>618.2</ele>
        <time>2026-02-22T12:28:11Z</time>
      </trkpt>
      <trkpt lat="43.58488" lon="6.41331">
        <ele>618.1</ele>
        <time>2026-02-22T12:28:12Z</time>
      </trkpt>
      <trkpt lat="43.58488" lon="6.41331">
        <ele>618.1</ele>
        <time>2026-02-22T12:28:13Z</time>
      </trkpt>
      <trkpt lat="43.58488" lon="6.41331">
        <ele>618.1</ele>
        <time>2026-02-22T12:28:14Z</time>
      </trkpt>
      <trkpt lat="43.58488" lon="6.41331">
        <ele>618</ele>
        <time>2026-02-22T12:28:15Z</time>
      </trkpt>
      <trkpt lat="43.58488" lon="6.41331">
        <ele>618</ele>
        <time>2026-02-22T12:28:16Z</time>
      </trkpt>
      <trkpt lat="43.58487" lon="6.41331">
        <ele>617.9</ele>
        <time>2026-02-22T12:28:17Z</time>
      </trkpt>
      <trkpt lat="43.58487" lon="6.41331">
        <ele>617.9</ele>
        <time>2026-02-22T12:28:18Z</time>
      </trkpt>
      <trkpt lat="43.58487" lon="6.4133">
        <ele>617.9</ele>
        <time>2026-02-22T12:28:19Z</time>
      </trkpt>
      <trkpt lat="43.58487" lon="6.41331">
        <ele>617.9</ele>
        <time>2026-02-22T12:28:20Z</time>
      </trkpt>
      <trkpt lat="43.58487" lon="6.41331">
        <ele>617.9</ele>
        <time>2026-02-22T12:28:21Z</time>
      </trkpt>
      <trkpt lat="43.58487" lon="6.41331">
        <ele>617.8</ele>
        <time>2026-02-22T12:28:22Z</time>
      </trkpt>
      <trkpt lat="43.58487" lon="6.41331">
        <ele>617.8</ele>
        <time>2026-02-22T12:28:23Z</time>
      </trkpt>
      <trkpt lat="43.58487" lon="6.41331">
        <ele>617.8</ele>
        <time>2026-02-22T12:28:24Z</time>
      </trkpt>
      <trkpt lat="43.58487" lon="6.41331">
        <ele>617.7</ele>
        <time>2026-02-22T12:28:25Z</time>
      </trkpt>
      <trkpt lat="43.58487" lon="6.41332">
        <ele>617.6</ele>
        <time>2026-02-22T12:28:26Z</time>
      </trkpt>
      <trkpt lat="43.58487" lon="6.41331">
        <ele>617.5</ele>
        <time>2026-02-22T12:28:27Z</time>
      </trkpt>
      <trkpt lat="43.58487" lon="6.41331">
        <ele>617.5</ele>
        <time>2026-02-22T12:28:28Z</time>
      </trkpt>
      <trkpt lat="43.58487" lon="6.41332">
        <ele>617.3</ele>
        <time>2026-02-22T12:28:29Z</time>
      </trkpt>
      <trkpt lat="43.58487" lon="6.41332">
        <ele>617.3</ele>
        <time>2026-02-22T12:28:30Z</time>
      </trkpt>
      <trkpt lat="43.58487" lon="6.41332">
        <ele>617.2</ele>
        <time>2026-02-22T12:28:31Z</time>
      </trkpt>
      <trkpt lat="43.58487" lon="6.41332">
        <ele>617.2</ele>
        <time>2026-02-22T12:28:32Z</time>
      </trkpt>
      <trkpt lat="43.58487" lon="6.41332">
        <ele>617.2</ele>
        <time>2026-02-22T12:28:33Z</time>
      </trkpt>
      <trkpt lat="43.58487" lon="6.41331">
        <ele>617.2</ele>
        <time>2026-02-22T12:28:34Z</time>
      </trkpt>
      <trkpt lat="43.58487" lon="6.41332">
        <ele>617.2</ele>
        <time>2026-02-22T12:28:35Z</time>
      </trkpt>
      <trkpt lat="43.58487" lon="6.41332">
        <ele>617.3</ele>
        <time>2026-02-22T12:28:36Z</time>
      </trkpt>
      <trkpt lat="43.58487" lon="6.41332">
        <ele>617.3</ele>
        <time>2026-02-22T12:28:37Z</time>
      </trkpt>
      <trkpt lat="43.58487" lon="6.41332">
        <ele>617.3</ele>
        <time>2026-02-22T12:28:38Z</time>
      </trkpt>
      <trkpt lat="43.58487" lon="6.41332">
        <ele>617.3</ele>
        <time>2026-02-22T12:28:39Z</time>
      </trkpt>
      <trkpt lat="43.58487" lon="6.41332">
        <ele>617.3</ele>
        <time>2026-02-22T12:28:40Z</time>
      </trkpt>
      <trkpt lat="43.58487" lon="6.41332">
        <ele>617.2</ele>
        <time>2026-02-22T12:28:41Z</time>
      </trkpt>
      <trkpt lat="43.58487" lon="6.41332">
        <ele>617.3</ele>
        <time>2026-02-22T12:28:42Z</time>
      </trkpt>
      <trkpt lat="43.58487" lon="6.41332">
        <ele>617.4</ele>
        <time>2026-02-22T12:28:43Z</time>
      </trkpt>
      <trkpt lat="43.58487" lon="6.41332">
        <ele>617.5</ele>
        <time>2026-02-22T12:28:44Z</time>
      </trkpt>
      <trkpt lat="43.58487" lon="6.41332">
        <ele>617.5</ele>
        <time>2026-02-22T12:28:45Z</time>
      </trkpt>
      <trkpt lat="43.58487" lon="6.41332">
        <ele>617.5</ele>
        <time>2026-02-22T12:28:46Z</time>
      </trkpt>
      <trkpt lat="43.58487" lon="6.41332">
        <ele>617.5</ele>
        <time>2026-02-22T12:28:47Z</time>
      </trkpt>
      <trkpt lat="43.58487" lon="6.41333">
        <ele>617.5</ele>
        <time>2026-02-22T12:28:48Z</time>
      </trkpt>
      <trkpt lat="43.58487" lon="6.41333">
        <ele>617.5</ele>
        <time>2026-02-22T12:28:49Z</time>
      </trkpt>
      <trkpt lat="43.58487" lon="6.41333">
        <ele>617.5</ele>
        <time>2026-02-22T12:28:50Z</time>
      </trkpt>
      <trkpt lat="43.58487" lon="6.41332">
        <ele>617.5</ele>
        <time>2026-02-22T12:28:51Z</time>
      </trkpt>
      <trkpt lat="43.58487" lon="6.41332">
        <ele>617.5</ele>
        <time>2026-02-22T12:28:52Z</time>
      </trkpt>
      <trkpt lat="43.58487" lon="6.41332">
        <ele>617.5</ele>
        <time>2026-02-22T12:28:53Z</time>
      </trkpt>
      <trkpt lat="43.58487" lon="6.41332">
        <ele>617.5</ele>
        <time>2026-02-22T12:28:54Z</time>
      </trkpt>
      <trkpt lat="43.58487" lon="6.41332">
        <ele>617.5</ele>
        <time>2026-02-22T12:28:55Z</time>
      </trkpt>
      <trkpt lat="43.58487" lon="6.41332">
        <ele>617.5</ele>
        <time>2026-02-22T12:28:56Z</time>
      </trkpt>
      <trkpt lat="43.58487" lon="6.41332">
        <ele>617.5</ele>
        <time>2026-02-22T12:28:57Z</time>
      </trkpt>
      <trkpt lat="43.58487" lon="6.41332">
        <ele>617.5</ele>
        <time>2026-02-22T12:28:58Z</time>
      </trkpt>
      <trkpt lat="43.58487" lon="6.41332">
        <ele>617.5</ele>
        <time>2026-02-22T12:28:59Z</time>
      </trkpt>
      <trkpt lat="43.58487" lon="6.41332">
        <ele>617.5</ele>
        <time>2026-02-22T12:29:00Z</time>
      </trkpt>
      <trkpt lat="43.58487" lon="6.41332">
        <ele>617.6</ele>
        <time>2026-02-22T12:29:01Z</time>
      </trkpt>
      <trkpt lat="43.58487" lon="6.41332">
        <ele>617.6</ele>
        <time>2026-02-22T12:29:02Z</time>
      </trkpt>
      <trkpt lat="43.58488" lon="6.41333">
        <ele>617.6</ele>
        <time>2026-02-22T12:29:03Z</time>
      </trkpt>
      <trkpt lat="43.58488" lon="6.41333">
        <ele>617.6</ele>
        <time>2026-02-22T12:29:04Z</time>
      </trkpt>
      <trkpt lat="43.58488" lon="6.41333">
        <ele>617.7</ele>
        <time>2026-02-22T12:29:05Z</time>
      </trkpt>
      <trkpt lat="43.58488" lon="6.41333">
        <ele>617.7</ele>
        <time>2026-02-22T12:29:06Z</time>
      </trkpt>
      <trkpt lat="43.58488" lon="6.41334">
        <ele>617.7</ele>
        <time>2026-02-22T12:29:07Z</time>
      </trkpt>
      <trkpt lat="43.58488" lon="6.41334">
        <ele>617.7</ele>
        <time>2026-02-22T12:29:08Z</time>
      </trkpt>
      <trkpt lat="43.58488" lon="6.41334">
        <ele>617.7</ele>
        <time>2026-02-22T12:29:09Z</time>
      </trkpt>
      <trkpt lat="43.58488" lon="6.41334">
        <ele>617.7</ele>
        <time>2026-02-22T12:29:10Z</time>
      </trkpt>
      <trkpt lat="43.58488" lon="6.41334">
        <ele>617.6</ele>
        <time>2026-02-22T12:29:11Z</time>
      </trkpt>
      <trkpt lat="43.58488" lon="6.41335">
        <ele>617.6</ele>
        <time>2026-02-22T12:29:12Z</time>
      </trkpt>
      <trkpt lat="43.58488" lon="6.41335">
        <ele>617.6</ele>
        <time>2026-02-22T12:29:13Z</time>
      </trkpt>
      <trkpt lat="43.58488" lon="6.41335">
        <ele>617.6</ele>
        <time>2026-02-22T12:29:14Z</time>
      </trkpt>
      <trkpt lat="43.58488" lon="6.41335">
        <ele>617.6</ele>
        <time>2026-02-22T12:29:15Z</time>
      </trkpt>
      <trkpt lat="43.58488" lon="6.41336">
        <ele>617.6</ele>
        <time>2026-02-22T12:29:16Z</time>
      </trkpt>
      <trkpt lat="43.58488" lon="6.41336">
        <ele>617.6</ele>
        <time>2026-02-22T12:29:17Z</time>
      </trkpt>
      <trkpt lat="43.58488" lon="6.41336">
        <ele>617.6</ele>
        <time>2026-02-22T12:29:18Z</time>
      </trkpt>
      <trkpt lat="43.58488" lon="6.41336">
        <ele>617.6</ele>
        <time>2026-02-22T12:29:19Z</time>
      </trkpt>
      <trkpt lat="43.58488" lon="6.41336">
        <ele>617.6</ele>
        <time>2026-02-22T12:29:20Z</time>
      </trkpt>
      <trkpt lat="43.58488" lon="6.41337">
        <ele>617.6</ele>
        <time>2026-02-22T12:29:21Z</time>
      </trkpt>
      <trkpt lat="43.58488" lon="6.41337">
        <ele>617.6</ele>
        <time>2026-02-22T12:29:22Z</time>
      </trkpt>
      <trkpt lat="43.58488" lon="6.41337">
        <ele>617.5</ele>
        <time>2026-02-22T12:29:23Z</time>
      </trkpt>
      <trkpt lat="43.58488" lon="6.41337">
        <ele>617.5</ele>
        <time>2026-02-22T12:29:24Z</time>
      </trkpt>
      <trkpt lat="43.58488" lon="6.41337">
        <ele>617.5</ele>
        <time>2026-02-22T12:29:25Z</time>
      </trkpt>
      <trkpt lat="43.58488" lon="6.41338">
        <ele>617.5</ele>
        <time>2026-02-22T12:29:26Z</time>
      </trkpt>
      <trkpt lat="43.58488" lon="6.41338">
        <ele>617.5</ele>
        <time>2026-02-22T12:29:27Z</time>
      </trkpt>
      <trkpt lat="43.58488" lon="6.41338">
        <ele>617.6</ele>
        <time>2026-02-22T12:29:28Z</time>
      </trkpt>
      <trkpt lat="43.58488" lon="6.41338">
        <ele>617.7</ele>
        <time>2026-02-22T12:29:29Z</time>
      </trkpt>
      <trkpt lat="43.58488" lon="6.41338">
        <ele>617.8</ele>
        <time>2026-02-22T12:29:30Z</time>
      </trkpt>
      <trkpt lat="43.58488" lon="6.41338">
        <ele>617.8</ele>
        <time>2026-02-22T12:29:31Z</time>
      </trkpt>
      <trkpt lat="43.58488" lon="6.41338">
        <ele>617.8</ele>
        <time>2026-02-22T12:29:32Z</time>
      </trkpt>
      <trkpt lat="43.58488" lon="6.41338">
        <ele>617.9</ele>
        <time>2026-02-22T12:29:33Z</time>
      </trkpt>
      <trkpt lat="43.58488" lon="6.41338">
        <ele>617.9</ele>
        <time>2026-02-22T12:29:34Z</time>
      </trkpt>
      <trkpt lat="43.58488" lon="6.41339">
        <ele>617.8</ele>
        <time>2026-02-22T12:29:35Z</time>
      </trkpt>
      <trkpt lat="43.58488" lon="6.41339">
        <ele>617.7</ele>
        <time>2026-02-22T12:29:36Z</time>
      </trkpt>
      <trkpt lat="43.58488" lon="6.41339">
        <ele>617.7</ele>
        <time>2026-02-22T12:29:37Z</time>
      </trkpt>
      <trkpt lat="43.58489" lon="6.41339">
        <ele>617.8</ele>
        <time>2026-02-22T12:29:38Z</time>
      </trkpt>
      <trkpt lat="43.58489" lon="6.41339">
        <ele>617.8</ele>
        <time>2026-02-22T12:29:39Z</time>
      </trkpt>
      <trkpt lat="43.58489" lon="6.41339">
        <ele>617.8</ele>
        <time>2026-02-22T12:29:40Z</time>
      </trkpt>
      <trkpt lat="43.58489" lon="6.41339">
        <ele>617.8</ele>
        <time>2026-02-22T12:29:41Z</time>
      </trkpt>
      <trkpt lat="43.58489" lon="6.41339">
        <ele>617.9</ele>
        <time>2026-02-22T12:29:42Z</time>
      </trkpt>
      <trkpt lat="43.58489" lon="6.41339">
        <ele>618</ele>
        <time>2026-02-22T12:29:43Z</time>
      </trkpt>
      <trkpt lat="43.58489" lon="6.41339">
        <ele>618</ele>
        <time>2026-02-22T12:29:44Z</time>
      </trkpt>
      <trkpt lat="43.58489" lon="6.41338">
        <ele>618</ele>
        <time>2026-02-22T12:29:45Z</time>
      </trkpt>
      <trkpt lat="43.58489" lon="6.41339">
        <ele>618</ele>
        <time>2026-02-22T12:29:46Z</time>
      </trkpt>
      <trkpt lat="43.58489" lon="6.41339">
        <ele>618</ele>
        <time>2026-02-22T12:29:47Z</time>
      </trkpt>
      <trkpt lat="43.58489" lon="6.41339">
        <ele>617.9</ele>
        <time>2026-02-22T12:29:48Z</time>
      </trkpt>
      <trkpt lat="43.58489" lon="6.41338">
        <ele>617.9</ele>
        <time>2026-02-22T12:29:49Z</time>
      </trkpt>
      <trkpt lat="43.58489" lon="6.41338">
        <ele>617.9</ele>
        <time>2026-02-22T12:29:50Z</time>
      </trkpt>
      <trkpt lat="43.58489" lon="6.41338">
        <ele>618</ele>
        <time>2026-02-22T12:29:51Z</time>
      </trkpt>
      <trkpt lat="43.58489" lon="6.41338">
        <ele>618</ele>
        <time>2026-02-22T12:29:52Z</time>
      </trkpt>
      <trkpt lat="43.58489" lon="6.41338">
        <ele>618</ele>
        <time>2026-02-22T12:29:53Z</time>
      </trkpt>
      <trkpt lat="43.58489" lon="6.41338">
        <ele>618</ele>
        <time>2026-02-22T12:29:54Z</time>
      </trkpt>
      <trkpt lat="43.58489" lon="6.41338">
        <ele>618</ele>
        <time>2026-02-22T12:29:55Z</time>
      </trkpt>
      <trkpt lat="43.58489" lon="6.41338">
        <ele>617.9</ele>
        <time>2026-02-22T12:29:56Z</time>
      </trkpt>
      <trkpt lat="43.58489" lon="6.41338">
        <ele>617.9</ele>
        <time>2026-02-22T12:29:57Z</time>
      </trkpt>
      <trkpt lat="43.58489" lon="6.41338">
        <ele>617.9</ele>
        <time>2026-02-22T12:29:58Z</time>
      </trkpt>
      <trkpt lat="43.58489" lon="6.41338">
        <ele>617.8</ele>
        <time>2026-02-22T12:29:59Z</time>
      </trkpt>
      <trkpt lat="43.58489" lon="6.41338">
        <ele>617.7</ele>
        <time>2026-02-22T12:30:00Z</time>
      </trkpt>
      <trkpt lat="43.58489" lon="6.41338">
        <ele>617.6</ele>
        <time>2026-02-22T12:30:01Z</time>
      </trkpt>
      <trkpt lat="43.58489" lon="6.41338">
        <ele>617.6</ele>
        <time>2026-02-22T12:30:02Z</time>
      </trkpt>
      <trkpt lat="43.58489" lon="6.41338">
        <ele>617.6</ele>
        <time>2026-02-22T12:30:03Z</time>
      </trkpt>
      <trkpt lat="43.58489" lon="6.41338">
        <ele>617.7</ele>
        <time>2026-02-22T12:30:04Z</time>
      </trkpt>
      <trkpt lat="43.5849" lon="6.41338">
        <ele>617.7</ele>
        <time>2026-02-22T12:30:05Z</time>
      </trkpt>
      <trkpt lat="43.5849" lon="6.41338">
        <ele>617.7</ele>
        <time>2026-02-22T12:30:06Z</time>
      </trkpt>
      <trkpt lat="43.5849" lon="6.41337">
        <ele>617.7</ele>
        <time>2026-02-22T12:30:07Z</time>
      </trkpt>
      <trkpt lat="43.58491" lon="6.41337">
        <ele>617.8</ele>
        <time>2026-02-22T12:30:08Z</time>
      </trkpt>
      <trkpt lat="43.58491" lon="6.41337">
        <ele>617.8</ele>
        <time>2026-02-22T12:30:09Z</time>
      </trkpt>
      <trkpt lat="43.58491" lon="6.41336">
        <ele>617.8</ele>
        <time>2026-02-22T12:30:10Z</time>
      </trkpt>
      <trkpt lat="43.58491" lon="6.41336">
        <ele>617.9</ele>
        <time>2026-02-22T12:30:11Z</time>
      </trkpt>
      <trkpt lat="43.58492" lon="6.41335">
        <ele>617.9</ele>
        <time>2026-02-22T12:30:12Z</time>
      </trkpt>
      <trkpt lat="43.58492" lon="6.41335">
        <ele>617.9</ele>
        <time>2026-02-22T12:30:13Z</time>
      </trkpt>
      <trkpt lat="43.58493" lon="6.41335">
        <ele>617.9</ele>
        <time>2026-02-22T12:30:14Z</time>
      </trkpt>
      <trkpt lat="43.58493" lon="6.41335">
        <ele>617.9</ele>
        <time>2026-02-22T12:30:15Z</time>
      </trkpt>
      <trkpt lat="43.58493" lon="6.41334">
        <ele>618</ele>
        <time>2026-02-22T12:30:16Z</time>
      </trkpt>
      <trkpt lat="43.58494" lon="6.41334">
        <ele>618.1</ele>
        <time>2026-02-22T12:30:17Z</time>
      </trkpt>
      <trkpt lat="43.58494" lon="6.41334">
        <ele>618.2</ele>
        <time>2026-02-22T12:30:18Z</time>
      </trkpt>
      <trkpt lat="43.58494" lon="6.41334">
        <ele>618.2</ele>
        <time>2026-02-22T12:30:19Z</time>
      </trkpt>
      <trkpt lat="43.58494" lon="6.41333">
        <ele>618.3</ele>
        <time>2026-02-22T12:30:20Z</time>
      </trkpt>
      <trkpt lat="43.58493" lon="6.41333">
        <ele>618.4</ele>
        <time>2026-02-22T12:30:21Z</time>
      </trkpt>
      <trkpt lat="43.58493" lon="6.41333">
        <ele>618.5</ele>
        <time>2026-02-22T12:30:22Z</time>
      </trkpt>
      <trkpt lat="43.58493" lon="6.41333">
        <ele>618.4</ele>
        <time>2026-02-22T12:30:23Z</time>
      </trkpt>
      <trkpt lat="43.58493" lon="6.41333">
        <ele>618.4</ele>
        <time>2026-02-22T12:30:24Z</time>
      </trkpt>
      <trkpt lat="43.58493" lon="6.41332">
        <ele>618.3</ele>
        <time>2026-02-22T12:30:25Z</time>
      </trkpt>
      <trkpt lat="43.58493" lon="6.41332">
        <ele>618.4</ele>
        <time>2026-02-22T12:30:26Z</time>
      </trkpt>
      <trkpt lat="43.58493" lon="6.41332">
        <ele>618.3</ele>
        <time>2026-02-22T12:30:27Z</time>
      </trkpt>
      <trkpt lat="43.58493" lon="6.41332">
        <ele>618.3</ele>
        <time>2026-02-22T12:30:28Z</time>
      </trkpt>
      <trkpt lat="43.58493" lon="6.41332">
        <ele>618.3</ele>
        <time>2026-02-22T12:30:29Z</time>
      </trkpt>
      <trkpt lat="43.58493" lon="6.41332">
        <ele>618.3</ele>
        <time>2026-02-22T12:30:30Z</time>
      </trkpt>
      <trkpt lat="43.58493" lon="6.41332">
        <ele>618.2</ele>
        <time>2026-02-22T12:30:31Z</time>
      </trkpt>
      <trkpt lat="43.58493" lon="6.41332">
        <ele>618.2</ele>
        <time>2026-02-22T12:30:32Z</time>
      </trkpt>
      <trkpt lat="43.58494" lon="6.41332">
        <ele>618.2</ele>
        <time>2026-02-22T12:30:33Z</time>
      </trkpt>
      <trkpt lat="43.58495" lon="6.41332">
        <ele>618.2</ele>
        <time>2026-02-22T12:30:34Z</time>
      </trkpt>
      <trkpt lat="43.58495" lon="6.41331">
        <ele>618.2</ele>
        <time>2026-02-22T12:30:35Z</time>
      </trkpt>
      <trkpt lat="43.58496" lon="6.41331">
        <ele>618.2</ele>
        <time>2026-02-22T12:30:36Z</time>
      </trkpt>
      <trkpt lat="43.58497" lon="6.41331">
        <ele>618.3</ele>
        <time>2026-02-22T12:30:37Z</time>
      </trkpt>
      <trkpt lat="43.58497" lon="6.41331">
        <ele>618.3</ele>
        <time>2026-02-22T12:30:38Z</time>
      </trkpt>
      <trkpt lat="43.58498" lon="6.41331">
        <ele>618.3</ele>
        <time>2026-02-22T12:30:39Z</time>
      </trkpt>
      <trkpt lat="43.58499" lon="6.41331">
        <ele>618.4</ele>
        <time>2026-02-22T12:30:40Z</time>
      </trkpt>
      <trkpt lat="43.58499" lon="6.41331">
        <ele>618.4</ele>
        <time>2026-02-22T12:30:41Z</time>
      </trkpt>
      <trkpt lat="43.585" lon="6.4133">
        <ele>618.4</ele>
        <time>2026-02-22T12:30:42Z</time>
      </trkpt>
      <trkpt lat="43.585" lon="6.4133">
        <ele>618.5</ele>
        <time>2026-02-22T12:30:43Z</time>
      </trkpt>
      <trkpt lat="43.58501" lon="6.4133">
        <ele>618.6</ele>
        <time>2026-02-22T12:30:44Z</time>
      </trkpt>
      <trkpt lat="43.58501" lon="6.41329">
        <ele>618.7</ele>
        <time>2026-02-22T12:30:45Z</time>
      </trkpt>
      <trkpt lat="43.58502" lon="6.41328">
        <ele>618.8</ele>
        <time>2026-02-22T12:30:46Z</time>
      </trkpt>
      <trkpt lat="43.58502" lon="6.41328">
        <ele>618.8</ele>
        <time>2026-02-22T12:30:47Z</time>
      </trkpt>
      <trkpt lat="43.58502" lon="6.41328">
        <ele>618.8</ele>
        <time>2026-02-22T12:30:48Z</time>
      </trkpt>
      <trkpt lat="43.58502" lon="6.41328">
        <ele>618.8</ele>
        <time>2026-02-22T12:30:49Z</time>
      </trkpt>
      <trkpt lat="43.58502" lon="6.41328">
        <ele>618.9</ele>
        <time>2026-02-22T12:30:50Z</time>
      </trkpt>
      <trkpt lat="43.58502" lon="6.41328">
        <ele>618.9</ele>
        <time>2026-02-22T12:30:51Z</time>
      </trkpt>
      <trkpt lat="43.58503" lon="6.41329">
        <ele>618.9</ele>
        <time>2026-02-22T12:30:52Z</time>
      </trkpt>
      <trkpt lat="43.58503" lon="6.41329">
        <ele>618.9</ele>
        <time>2026-02-22T12:30:53Z</time>
      </trkpt>
      <trkpt lat="43.58504" lon="6.41329">
        <ele>618.9</ele>
        <time>2026-02-22T12:30:54Z</time>
      </trkpt>
      <trkpt lat="43.58504" lon="6.41329">
        <ele>618.9</ele>
        <time>2026-02-22T12:30:55Z</time>
      </trkpt>
      <trkpt lat="43.58505" lon="6.41328">
        <ele>618.9</ele>
        <time>2026-02-22T12:30:56Z</time>
      </trkpt>
      <trkpt lat="43.58505" lon="6.41328">
        <ele>618.9</ele>
        <time>2026-02-22T12:30:57Z</time>
      </trkpt>
      <trkpt lat="43.58506" lon="6.41328">
        <ele>618.8</ele>
        <time>2026-02-22T12:30:58Z</time>
      </trkpt>
      <trkpt lat="43.58507" lon="6.41328">
        <ele>618.8</ele>
        <time>2026-02-22T12:30:59Z</time>
      </trkpt>
      <trkpt lat="43.58508" lon="6.41328">
        <ele>618.8</ele>
        <time>2026-02-22T12:31:00Z</time>
      </trkpt>
      <trkpt lat="43.58508" lon="6.41328">
        <ele>618.8</ele>
        <time>2026-02-22T12:31:01Z</time>
      </trkpt>
      <trkpt lat="43.58508" lon="6.41328">
        <ele>619</ele>
        <time>2026-02-22T12:31:02Z</time>
      </trkpt>
      <trkpt lat="43.58509" lon="6.41327">
        <ele>619.1</ele>
        <time>2026-02-22T12:31:03Z</time>
      </trkpt>
      <trkpt lat="43.58509" lon="6.41327">
        <ele>619.1</ele>
        <time>2026-02-22T12:31:04Z</time>
      </trkpt>
      <trkpt lat="43.58509" lon="6.41327">
        <ele>619.1</ele>
        <time>2026-02-22T12:31:05Z</time>
      </trkpt>
      <trkpt lat="43.58509" lon="6.41327">
        <ele>619.1</ele>
        <time>2026-02-22T12:31:06Z</time>
      </trkpt>
      <trkpt lat="43.58509" lon="6.41327">
        <ele>619.1</ele>
        <time>2026-02-22T12:31:07Z</time>
      </trkpt>
      <trkpt lat="43.58509" lon="6.41327">
        <ele>619.1</ele>
        <time>2026-02-22T12:31:08Z</time>
      </trkpt>
      <trkpt lat="43.5851" lon="6.41327">
        <ele>619.1</ele>
        <time>2026-02-22T12:31:09Z</time>
      </trkpt>
      <trkpt lat="43.5851" lon="6.41327">
        <ele>619.1</ele>
        <time>2026-02-22T12:31:10Z</time>
      </trkpt>
      <trkpt lat="43.58511" lon="6.41327">
        <ele>619.2</ele>
        <time>2026-02-22T12:31:11Z</time>
      </trkpt>
      <trkpt lat="43.58511" lon="6.41327">
        <ele>619.2</ele>
        <time>2026-02-22T12:31:12Z</time>
      </trkpt>
      <trkpt lat="43.58512" lon="6.41328">
        <ele>619.2</ele>
        <time>2026-02-22T12:31:13Z</time>
      </trkpt>
      <trkpt lat="43.58512" lon="6.41328">
        <ele>619.2</ele>
        <time>2026-02-22T12:31:14Z</time>
      </trkpt>
      <trkpt lat="43.58513" lon="6.41328">
        <ele>619.2</ele>
        <time>2026-02-22T12:31:15Z</time>
      </trkpt>
      <trkpt lat="43.58514" lon="6.41328">
        <ele>619.3</ele>
        <time>2026-02-22T12:31:16Z</time>
      </trkpt>
      <trkpt lat="43.58514" lon="6.41328">
        <ele>619.3</ele>
        <time>2026-02-22T12:31:17Z</time>
      </trkpt>
      <trkpt lat="43.58515" lon="6.41328">
        <ele>619.3</ele>
        <time>2026-02-22T12:31:18Z</time>
      </trkpt>
      <trkpt lat="43.58515" lon="6.41329">
        <ele>619.3</ele>
        <time>2026-02-22T12:31:19Z</time>
      </trkpt>
      <trkpt lat="43.58516" lon="6.41329">
        <ele>619.3</ele>
        <time>2026-02-22T12:31:20Z</time>
      </trkpt>
      <trkpt lat="43.58516" lon="6.41329">
        <ele>619.3</ele>
        <time>2026-02-22T12:31:21Z</time>
      </trkpt>
      <trkpt lat="43.58517" lon="6.41329">
        <ele>619.4</ele>
        <time>2026-02-22T12:31:22Z</time>
      </trkpt>
      <trkpt lat="43.58517" lon="6.41329">
        <ele>619.4</ele>
        <time>2026-02-22T12:31:23Z</time>
      </trkpt>
      <trkpt lat="43.58517" lon="6.41329">
        <ele>619.3</ele>
        <time>2026-02-22T12:31:24Z</time>
      </trkpt>
      <trkpt lat="43.58517" lon="6.41329">
        <ele>619.3</ele>
        <time>2026-02-22T12:31:25Z</time>
      </trkpt>
      <trkpt lat="43.58517" lon="6.41329">
        <ele>619.3</ele>
        <time>2026-02-22T12:31:26Z</time>
      </trkpt>
      <trkpt lat="43.58517" lon="6.41329">
        <ele>619.3</ele>
        <time>2026-02-22T12:31:27Z</time>
      </trkpt>
      <trkpt lat="43.58517" lon="6.41329">
        <ele>619.3</ele>
        <time>2026-02-22T12:31:28Z</time>
      </trkpt>
      <trkpt lat="43.58517" lon="6.41329">
        <ele>619.2</ele>
        <time>2026-02-22T12:31:29Z</time>
      </trkpt>
      <trkpt lat="43.58517" lon="6.41329">
        <ele>619.3</ele>
        <time>2026-02-22T12:31:30Z</time>
      </trkpt>
      <trkpt lat="43.58518" lon="6.41329">
        <ele>619.3</ele>
        <time>2026-02-22T12:31:31Z</time>
      </trkpt>
      <trkpt lat="43.58518" lon="6.4133">
        <ele>619.3</ele>
        <time>2026-02-22T12:31:32Z</time>
      </trkpt>
      <trkpt lat="43.58518" lon="6.4133">
        <ele>619.2</ele>
        <time>2026-02-22T12:31:33Z</time>
      </trkpt>
      <trkpt lat="43.58518" lon="6.4133">
        <ele>619.3</ele>
        <time>2026-02-22T12:31:34Z</time>
      </trkpt>
      <trkpt lat="43.58518" lon="6.4133">
        <ele>619.2</ele>
        <time>2026-02-22T12:31:35Z</time>
      </trkpt>
      <trkpt lat="43.58518" lon="6.4133">
        <ele>619.1</ele>
        <time>2026-02-22T12:31:36Z</time>
      </trkpt>
      <trkpt lat="43.58519" lon="6.4133">
        <ele>619.1</ele>
        <time>2026-02-22T12:31:37Z</time>
      </trkpt>
      <trkpt lat="43.58519" lon="6.4133">
        <ele>619.1</ele>
        <time>2026-02-22T12:31:38Z</time>
      </trkpt>
      <trkpt lat="43.5852" lon="6.4133">
        <ele>619.1</ele>
        <time>2026-02-22T12:31:39Z</time>
      </trkpt>
      <trkpt lat="43.5852" lon="6.4133">
        <ele>619.1</ele>
        <time>2026-02-22T12:31:40Z</time>
      </trkpt>
      <trkpt lat="43.5852" lon="6.4133">
        <ele>619.1</ele>
        <time>2026-02-22T12:31:41Z</time>
      </trkpt>
      <trkpt lat="43.58521" lon="6.4133">
        <ele>619.1</ele>
        <time>2026-02-22T12:31:42Z</time>
      </trkpt>
      <trkpt lat="43.58521" lon="6.4133">
        <ele>619.1</ele>
        <time>2026-02-22T12:31:43Z</time>
      </trkpt>
      <trkpt lat="43.58522" lon="6.4133">
        <ele>619.2</ele>
        <time>2026-02-22T12:31:44Z</time>
      </trkpt>
      <trkpt lat="43.58522" lon="6.4133">
        <ele>619.3</ele>
        <time>2026-02-22T12:31:45Z</time>
      </trkpt>
      <trkpt lat="43.58523" lon="6.4133">
        <ele>619.4</ele>
        <time>2026-02-22T12:31:46Z</time>
      </trkpt>
      <trkpt lat="43.58523" lon="6.4133">
        <ele>619.4</ele>
        <time>2026-02-22T12:31:47Z</time>
      </trkpt>
      <trkpt lat="43.58524" lon="6.4133">
        <ele>619.4</ele>
        <time>2026-02-22T12:31:48Z</time>
      </trkpt>
      <trkpt lat="43.58524" lon="6.4133">
        <ele>619.5</ele>
        <time>2026-02-22T12:31:49Z</time>
      </trkpt>
      <trkpt lat="43.58525" lon="6.4133">
        <ele>619.5</ele>
        <time>2026-02-22T12:31:50Z</time>
      </trkpt>
      <trkpt lat="43.58526" lon="6.4133">
        <ele>619.4</ele>
        <time>2026-02-22T12:31:51Z</time>
      </trkpt>
      <trkpt lat="43.58526" lon="6.4133">
        <ele>619.4</ele>
        <time>2026-02-22T12:31:52Z</time>
      </trkpt>
      <trkpt lat="43.58527" lon="6.41329">
        <ele>619.4</ele>
        <time>2026-02-22T12:31:53Z</time>
      </trkpt>
      <trkpt lat="43.58528" lon="6.41329">
        <ele>619.3</ele>
        <time>2026-02-22T12:31:54Z</time>
      </trkpt>
      <trkpt lat="43.58528" lon="6.41329">
        <ele>619.4</ele>
        <time>2026-02-22T12:31:55Z</time>
      </trkpt>
      <trkpt lat="43.58529" lon="6.41329">
        <ele>619.4</ele>
        <time>2026-02-22T12:31:56Z</time>
      </trkpt>
      <trkpt lat="43.58529" lon="6.41329">
        <ele>619.4</ele>
        <time>2026-02-22T12:31:57Z</time>
      </trkpt>
      <trkpt lat="43.58529" lon="6.41329">
        <ele>619.5</ele>
        <time>2026-02-22T12:31:58Z</time>
      </trkpt>
      <trkpt lat="43.5853" lon="6.41329">
        <ele>619.6</ele>
        <time>2026-02-22T12:31:59Z</time>
      </trkpt>
      <trkpt lat="43.5853" lon="6.41328">
        <ele>619.7</ele>
        <time>2026-02-22T12:32:00Z</time>
      </trkpt>
      <trkpt lat="43.58531" lon="6.41328">
        <ele>619.7</ele>
        <time>2026-02-22T12:32:01Z</time>
      </trkpt>
      <trkpt lat="43.58531" lon="6.41328">
        <ele>619.7</ele>
        <time>2026-02-22T12:32:02Z</time>
      </trkpt>
      <trkpt lat="43.58532" lon="6.41328">
        <ele>619.7</ele>
        <time>2026-02-22T12:32:03Z</time>
      </trkpt>
      <trkpt lat="43.58533" lon="6.41328">
        <ele>619.7</ele>
        <time>2026-02-22T12:32:04Z</time>
      </trkpt>
      <trkpt lat="43.58533" lon="6.41328">
        <ele>619.8</ele>
        <time>2026-02-22T12:32:05Z</time>
      </trkpt>
      <trkpt lat="43.58534" lon="6.41328">
        <ele>619.8</ele>
        <time>2026-02-22T12:32:06Z</time>
      </trkpt>
      <trkpt lat="43.58534" lon="6.41328">
        <ele>619.9</ele>
        <time>2026-02-22T12:32:07Z</time>
      </trkpt>
      <trkpt lat="43.58535" lon="6.41328">
        <ele>619.9</ele>
        <time>2026-02-22T12:32:08Z</time>
      </trkpt>
      <trkpt lat="43.58535" lon="6.41328">
        <ele>620</ele>
        <time>2026-02-22T12:32:09Z</time>
      </trkpt>
      <trkpt lat="43.58536" lon="6.41328">
        <ele>620</ele>
        <time>2026-02-22T12:32:10Z</time>
      </trkpt>
      <trkpt lat="43.58536" lon="6.41328">
        <ele>620</ele>
        <time>2026-02-22T12:32:11Z</time>
      </trkpt>
      <trkpt lat="43.58537" lon="6.41328">
        <ele>619.9</ele>
        <time>2026-02-22T12:32:12Z</time>
      </trkpt>
      <trkpt lat="43.58537" lon="6.41328">
        <ele>619.9</ele>
        <time>2026-02-22T12:32:13Z</time>
      </trkpt>
      <trkpt lat="43.58538" lon="6.41328">
        <ele>620</ele>
        <time>2026-02-22T12:32:14Z</time>
      </trkpt>
      <trkpt lat="43.58538" lon="6.41327">
        <ele>620</ele>
        <time>2026-02-22T12:32:15Z</time>
      </trkpt>
      <trkpt lat="43.58539" lon="6.41327">
        <ele>620.1</ele>
        <time>2026-02-22T12:32:16Z</time>
      </trkpt>
      <trkpt lat="43.58539" lon="6.41326">
        <ele>620.1</ele>
        <time>2026-02-22T12:32:17Z</time>
      </trkpt>
      <trkpt lat="43.5854" lon="6.41326">
        <ele>620.2</ele>
        <time>2026-02-22T12:32:18Z</time>
      </trkpt>
      <trkpt lat="43.5854" lon="6.41325">
        <ele>620.2</ele>
        <time>2026-02-22T12:32:19Z</time>
      </trkpt>
      <trkpt lat="43.5854" lon="6.41325">
        <ele>620.2</ele>
        <time>2026-02-22T12:32:20Z</time>
      </trkpt>
      <trkpt lat="43.58541" lon="6.41324">
        <ele>620.1</ele>
        <time>2026-02-22T12:32:21Z</time>
      </trkpt>
      <trkpt lat="43.58541" lon="6.41324">
        <ele>620.1</ele>
        <time>2026-02-22T12:32:22Z</time>
      </trkpt>
      <trkpt lat="43.58541" lon="6.41324">
        <ele>620</ele>
        <time>2026-02-22T12:32:23Z</time>
      </trkpt>
      <trkpt lat="43.58541" lon="6.41324">
        <ele>620</ele>
        <time>2026-02-22T12:32:24Z</time>
      </trkpt>
      <trkpt lat="43.58541" lon="6.41324">
        <ele>619.9</ele>
        <time>2026-02-22T12:32:25Z</time>
      </trkpt>
      <trkpt lat="43.58541" lon="6.41324">
        <ele>620</ele>
        <time>2026-02-22T12:32:26Z</time>
      </trkpt>
      <trkpt lat="43.58541" lon="6.41324">
        <ele>619.9</ele>
        <time>2026-02-22T12:32:27Z</time>
      </trkpt>
      <trkpt lat="43.5854" lon="6.41324">
        <ele>619.8</ele>
        <time>2026-02-22T12:32:28Z</time>
      </trkpt>
      <trkpt lat="43.5854" lon="6.41324">
        <ele>619.7</ele>
        <time>2026-02-22T12:32:29Z</time>
      </trkpt>
      <trkpt lat="43.5854" lon="6.41324">
        <ele>619.6</ele>
        <time>2026-02-22T12:32:30Z</time>
      </trkpt>
      <trkpt lat="43.5854" lon="6.41324">
        <ele>619.5</ele>
        <time>2026-02-22T12:32:31Z</time>
      </trkpt>
      <trkpt lat="43.58541" lon="6.41324">
        <ele>619.3</ele>
        <time>2026-02-22T12:32:32Z</time>
      </trkpt>
      <trkpt lat="43.58541" lon="6.41323">
        <ele>619.3</ele>
        <time>2026-02-22T12:32:33Z</time>
      </trkpt>
      <trkpt lat="43.58541" lon="6.41323">
        <ele>619.2</ele>
        <time>2026-02-22T12:32:34Z</time>
      </trkpt>
      <trkpt lat="43.58542" lon="6.41324">
        <ele>619.3</ele>
        <time>2026-02-22T12:32:35Z</time>
      </trkpt>
      <trkpt lat="43.58542" lon="6.41324">
        <ele>619.2</ele>
        <time>2026-02-22T12:32:36Z</time>
      </trkpt>
      <trkpt lat="43.58543" lon="6.41323">
        <ele>619.2</ele>
        <time>2026-02-22T12:32:37Z</time>
      </trkpt>
      <trkpt lat="43.58543" lon="6.41322">
        <ele>619.2</ele>
        <time>2026-02-22T12:32:38Z</time>
      </trkpt>
      <trkpt lat="43.58543" lon="6.41322">
        <ele>619.1</ele>
        <time>2026-02-22T12:32:39Z</time>
      </trkpt>
      <trkpt lat="43.58543" lon="6.41321">
        <ele>619</ele>
        <time>2026-02-22T12:32:40Z</time>
      </trkpt>
      <trkpt lat="43.58543" lon="6.41321">
        <ele>619</ele>
        <time>2026-02-22T12:32:41Z</time>
      </trkpt>
      <trkpt lat="43.58543" lon="6.41321">
        <ele>618.9</ele>
        <time>2026-02-22T12:32:42Z</time>
      </trkpt>
      <trkpt lat="43.58543" lon="6.41321">
        <ele>618.9</ele>
        <time>2026-02-22T12:32:43Z</time>
      </trkpt>
      <trkpt lat="43.58543" lon="6.4132">
        <ele>618.9</ele>
        <time>2026-02-22T12:32:44Z</time>
      </trkpt>
      <trkpt lat="43.58543" lon="6.4132">
        <ele>618.9</ele>
        <time>2026-02-22T12:32:45Z</time>
      </trkpt>
      <trkpt lat="43.58543" lon="6.41319">
        <ele>618.9</ele>
        <time>2026-02-22T12:32:46Z</time>
      </trkpt>
      <trkpt lat="43.58543" lon="6.41319">
        <ele>618.9</ele>
        <time>2026-02-22T12:32:47Z</time>
      </trkpt>
      <trkpt lat="43.58543" lon="6.41319">
        <ele>618.9</ele>
        <time>2026-02-22T12:32:48Z</time>
      </trkpt>
      <trkpt lat="43.58543" lon="6.41318">
        <ele>618.9</ele>
        <time>2026-02-22T12:32:49Z</time>
      </trkpt>
      <trkpt lat="43.58543" lon="6.41318">
        <ele>618.9</ele>
        <time>2026-02-22T12:32:50Z</time>
      </trkpt>
      <trkpt lat="43.58543" lon="6.41318">
        <ele>618.9</ele>
        <time>2026-02-22T12:32:51Z</time>
      </trkpt>
      <trkpt lat="43.58543" lon="6.41318">
        <ele>619</ele>
        <time>2026-02-22T12:32:52Z</time>
      </trkpt>
      <trkpt lat="43.58543" lon="6.41318">
        <ele>619</ele>
        <time>2026-02-22T12:32:53Z</time>
      </trkpt>
      <trkpt lat="43.58543" lon="6.41317">
        <ele>619</ele>
        <time>2026-02-22T12:32:54Z</time>
      </trkpt>
      <trkpt lat="43.58543" lon="6.41317">
        <ele>619</ele>
        <time>2026-02-22T12:32:55Z</time>
      </trkpt>
      <trkpt lat="43.58543" lon="6.41317">
        <ele>619</ele>
        <time>2026-02-22T12:32:56Z</time>
      </trkpt>
      <trkpt lat="43.58543" lon="6.41317">
        <ele>619</ele>
        <time>2026-02-22T12:32:57Z</time>
      </trkpt>
      <trkpt lat="43.58543" lon="6.41317">
        <ele>619</ele>
        <time>2026-02-22T12:32:58Z</time>
      </trkpt>
      <trkpt lat="43.58543" lon="6.41317">
        <ele>619.1</ele>
        <time>2026-02-22T12:32:59Z</time>
      </trkpt>
      <trkpt lat="43.58543" lon="6.41317">
        <ele>619.1</ele>
        <time>2026-02-22T12:33:00Z</time>
      </trkpt>
      <trkpt lat="43.58543" lon="6.41316">
        <ele>619</ele>
        <time>2026-02-22T12:33:01Z</time>
      </trkpt>
      <trkpt lat="43.58543" lon="6.41316">
        <ele>619</ele>
        <time>2026-02-22T12:33:02Z</time>
      </trkpt>
      <trkpt lat="43.58543" lon="6.41316">
        <ele>619</ele>
        <time>2026-02-22T12:33:03Z</time>
      </trkpt>
      <trkpt lat="43.58543" lon="6.41316">
        <ele>619</ele>
        <time>2026-02-22T12:33:04Z</time>
      </trkpt>
      <trkpt lat="43.58543" lon="6.41316">
        <ele>619</ele>
        <time>2026-02-22T12:33:05Z</time>
      </trkpt>
      <trkpt lat="43.58543" lon="6.41316">
        <ele>619</ele>
        <time>2026-02-22T12:33:06Z</time>
      </trkpt>
      <trkpt lat="43.58543" lon="6.41316">
        <ele>619</ele>
        <time>2026-02-22T12:33:07Z</time>
      </trkpt>
      <trkpt lat="43.58543" lon="6.41315">
        <ele>619</ele>
        <time>2026-02-22T12:33:08Z</time>
      </trkpt>
      <trkpt lat="43.58543" lon="6.41315">
        <ele>618.9</ele>
        <time>2026-02-22T12:33:09Z</time>
      </trkpt>
      <trkpt lat="43.58543" lon="6.41315">
        <ele>618.9</ele>
        <time>2026-02-22T12:33:10Z</time>
      </trkpt>
      <trkpt lat="43.58543" lon="6.41315">
        <ele>618.9</ele>
        <time>2026-02-22T12:33:11Z</time>
      </trkpt>
      <trkpt lat="43.58543" lon="6.41315">
        <ele>619</ele>
        <time>2026-02-22T12:33:12Z</time>
      </trkpt>
      <trkpt lat="43.58543" lon="6.41315">
        <ele>618.9</ele>
        <time>2026-02-22T12:33:13Z</time>
      </trkpt>
      <trkpt lat="43.58543" lon="6.41315">
        <ele>619</ele>
        <time>2026-02-22T12:33:14Z</time>
      </trkpt>
      <trkpt lat="43.58543" lon="6.41315">
        <ele>618.9</ele>
        <time>2026-02-22T12:33:15Z</time>
      </trkpt>
      <trkpt lat="43.58543" lon="6.41315">
        <ele>618.9</ele>
        <time>2026-02-22T12:33:16Z</time>
      </trkpt>
      <trkpt lat="43.58543" lon="6.41315">
        <ele>618.9</ele>
        <time>2026-02-22T12:33:17Z</time>
      </trkpt>
      <trkpt lat="43.58543" lon="6.41315">
        <ele>618.8</ele>
        <time>2026-02-22T12:33:18Z</time>
      </trkpt>
      <trkpt lat="43.58543" lon="6.41315">
        <ele>618.8</ele>
        <time>2026-02-22T12:33:19Z</time>
      </trkpt>
      <trkpt lat="43.58543" lon="6.41315">
        <ele>618.8</ele>
        <time>2026-02-22T12:33:20Z</time>
      </trkpt>
      <trkpt lat="43.58542" lon="6.41315">
        <ele>618.8</ele>
        <time>2026-02-22T12:33:21Z</time>
      </trkpt>
      <trkpt lat="43.58542" lon="6.41315">
        <ele>618.8</ele>
        <time>2026-02-22T12:33:22Z</time>
      </trkpt>
      <trkpt lat="43.58542" lon="6.41315">
        <ele>618.9</ele>
        <time>2026-02-22T12:33:23Z</time>
      </trkpt>
      <trkpt lat="43.58542" lon="6.41315">
        <ele>618.9</ele>
        <time>2026-02-22T12:33:24Z</time>
      </trkpt>
      <trkpt lat="43.58542" lon="6.41315">
        <ele>618.9</ele>
        <time>2026-02-22T12:33:25Z</time>
      </trkpt>
      <trkpt lat="43.58542" lon="6.41315">
        <ele>618.9</ele>
        <time>2026-02-22T12:33:26Z</time>
      </trkpt>
      <trkpt lat="43.58542" lon="6.41315">
        <ele>619</ele>
        <time>2026-02-22T12:33:27Z</time>
      </trkpt>
      <trkpt lat="43.58542" lon="6.41315">
        <ele>619</ele>
        <time>2026-02-22T12:33:28Z</time>
      </trkpt>
      <trkpt lat="43.58542" lon="6.41315">
        <ele>618.9</ele>
        <time>2026-02-22T12:33:29Z</time>
      </trkpt>
      <trkpt lat="43.58542" lon="6.41316">
        <ele>618.9</ele>
        <time>2026-02-22T12:33:30Z</time>
      </trkpt>
      <trkpt lat="43.58542" lon="6.41316">
        <ele>618.9</ele>
        <time>2026-02-22T12:33:31Z</time>
      </trkpt>
      <trkpt lat="43.58542" lon="6.41316">
        <ele>618.9</ele>
        <time>2026-02-22T12:33:32Z</time>
      </trkpt>
      <trkpt lat="43.58542" lon="6.41316">
        <ele>619</ele>
        <time>2026-02-22T12:33:33Z</time>
      </trkpt>
      <trkpt lat="43.58542" lon="6.41316">
        <ele>619</ele>
        <time>2026-02-22T12:33:34Z</time>
      </trkpt>
      <trkpt lat="43.58541" lon="6.41316">
        <ele>619</ele>
        <time>2026-02-22T12:33:35Z</time>
      </trkpt>
      <trkpt lat="43.58541" lon="6.41316">
        <ele>619</ele>
        <time>2026-02-22T12:33:36Z</time>
      </trkpt>
      <trkpt lat="43.58541" lon="6.41316">
        <ele>619</ele>
        <time>2026-02-22T12:33:37Z</time>
      </trkpt>
      <trkpt lat="43.58541" lon="6.41316">
        <ele>619</ele>
        <time>2026-02-22T12:33:38Z</time>
      </trkpt>
      <trkpt lat="43.58541" lon="6.41316">
        <ele>619</ele>
        <time>2026-02-22T12:33:39Z</time>
      </trkpt>
      <trkpt lat="43.58541" lon="6.41316">
        <ele>619.1</ele>
        <time>2026-02-22T12:33:40Z</time>
      </trkpt>
      <trkpt lat="43.58541" lon="6.41316">
        <ele>619</ele>
        <time>2026-02-22T12:33:41Z</time>
      </trkpt>
      <trkpt lat="43.58541" lon="6.41317">
        <ele>619.1</ele>
        <time>2026-02-22T12:33:42Z</time>
      </trkpt>
      <trkpt lat="43.58541" lon="6.41317">
        <ele>619.1</ele>
        <time>2026-02-22T12:33:43Z</time>
      </trkpt>
      <trkpt lat="43.58541" lon="6.41317">
        <ele>619.1</ele>
        <time>2026-02-22T12:33:44Z</time>
      </trkpt>
      <trkpt lat="43.58541" lon="6.41317">
        <ele>619</ele>
        <time>2026-02-22T12:33:45Z</time>
      </trkpt>
      <trkpt lat="43.58541" lon="6.41317">
        <ele>619</ele>
        <time>2026-02-22T12:33:46Z</time>
      </trkpt>
      <trkpt lat="43.58541" lon="6.41317">
        <ele>619</ele>
        <time>2026-02-22T12:33:47Z</time>
      </trkpt>
      <trkpt lat="43.58541" lon="6.41317">
        <ele>619</ele>
        <time>2026-02-22T12:33:48Z</time>
      </trkpt>
      <trkpt lat="43.58541" lon="6.41317">
        <ele>619</ele>
        <time>2026-02-22T12:33:49Z</time>
      </trkpt>
      <trkpt lat="43.58541" lon="6.41317">
        <ele>619</ele>
        <time>2026-02-22T12:33:50Z</time>
      </trkpt>
      <trkpt lat="43.58541" lon="6.41317">
        <ele>619</ele>
        <time>2026-02-22T12:33:51Z</time>
      </trkpt>
      <trkpt lat="43.58541" lon="6.41317">
        <ele>619</ele>
        <time>2026-02-22T12:33:52Z</time>
      </trkpt>
      <trkpt lat="43.58541" lon="6.41317">
        <ele>619.1</ele>
        <time>2026-02-22T12:33:53Z</time>
      </trkpt>
      <trkpt lat="43.58541" lon="6.41317">
        <ele>619.1</ele>
        <time>2026-02-22T12:33:54Z</time>
      </trkpt>
      <trkpt lat="43.58541" lon="6.41317">
        <ele>619.1</ele>
        <time>2026-02-22T12:33:55Z</time>
      </trkpt>
      <trkpt lat="43.58541" lon="6.41317">
        <ele>619.2</ele>
        <time>2026-02-22T12:33:56Z</time>
      </trkpt>
      <trkpt lat="43.58541" lon="6.41317">
        <ele>619.3</ele>
        <time>2026-02-22T12:33:57Z</time>
      </trkpt>
      <trkpt lat="43.58541" lon="6.41317">
        <ele>619.3</ele>
        <time>2026-02-22T12:33:58Z</time>
      </trkpt>
      <trkpt lat="43.58541" lon="6.41317">
        <ele>619.4</ele>
        <time>2026-02-22T12:33:59Z</time>
      </trkpt>
      <trkpt lat="43.58541" lon="6.41317">
        <ele>619.4</ele>
        <time>2026-02-22T12:34:00Z</time>
      </trkpt>
      <trkpt lat="43.58541" lon="6.41317">
        <ele>619.3</ele>
        <time>2026-02-22T12:34:01Z</time>
      </trkpt>
      <trkpt lat="43.58541" lon="6.41317">
        <ele>619.3</ele>
        <time>2026-02-22T12:34:02Z</time>
      </trkpt>
      <trkpt lat="43.58541" lon="6.41317">
        <ele>619.3</ele>
        <time>2026-02-22T12:34:03Z</time>
      </trkpt>
      <trkpt lat="43.58541" lon="6.41317">
        <ele>619.2</ele>
        <time>2026-02-22T12:34:04Z</time>
      </trkpt>
      <trkpt lat="43.58541" lon="6.41317">
        <ele>619.2</ele>
        <time>2026-02-22T12:34:05Z</time>
      </trkpt>
      <trkpt lat="43.58541" lon="6.41317">
        <ele>619.2</ele>
        <time>2026-02-22T12:34:06Z</time>
      </trkpt>
      <trkpt lat="43.58541" lon="6.41317">
        <ele>619.2</ele>
        <time>2026-02-22T12:34:07Z</time>
      </trkpt>
      <trkpt lat="43.58541" lon="6.41317">
        <ele>619.2</ele>
        <time>2026-02-22T12:34:08Z</time>
      </trkpt>
      <trkpt lat="43.58541" lon="6.41317">
        <ele>619.2</ele>
        <time>2026-02-22T12:34:09Z</time>
      </trkpt>
      <trkpt lat="43.58541" lon="6.41317">
        <ele>619.2</ele>
        <time>2026-02-22T12:34:10Z</time>
      </trkpt>
      <trkpt lat="43.58541" lon="6.41317">
        <ele>619.1</ele>
        <time>2026-02-22T12:34:11Z</time>
      </trkpt>
      <trkpt lat="43.58541" lon="6.41317">
        <ele>619.1</ele>
        <time>2026-02-22T12:34:12Z</time>
      </trkpt>
      <trkpt lat="43.58541" lon="6.41318">
        <ele>619</ele>
        <time>2026-02-22T12:34:13Z</time>
      </trkpt>
      <trkpt lat="43.58541" lon="6.41318">
        <ele>619</ele>
        <time>2026-02-22T12:34:14Z</time>
      </trkpt>
      <trkpt lat="43.58541" lon="6.41318">
        <ele>619</ele>
        <time>2026-02-22T12:34:15Z</time>
      </trkpt>
      <trkpt lat="43.58541" lon="6.41318">
        <ele>619</ele>
        <time>2026-02-22T12:34:16Z</time>
      </trkpt>
      <trkpt lat="43.58541" lon="6.41318">
        <ele>618.9</ele>
        <time>2026-02-22T12:34:17Z</time>
      </trkpt>
      <trkpt lat="43.58541" lon="6.41318">
        <ele>618.9</ele>
        <time>2026-02-22T12:34:18Z</time>
      </trkpt>
      <trkpt lat="43.58541" lon="6.41318">
        <ele>618.9</ele>
        <time>2026-02-22T12:34:19Z</time>
      </trkpt>
      <trkpt lat="43.58541" lon="6.41318">
        <ele>618.9</ele>
        <time>2026-02-22T12:34:20Z</time>
      </trkpt>
      <trkpt lat="43.58541" lon="6.41318">
        <ele>618.9</ele>
        <time>2026-02-22T12:34:21Z</time>
      </trkpt>
      <trkpt lat="43.58541" lon="6.41318">
        <ele>618.9</ele>
        <time>2026-02-22T12:34:22Z</time>
      </trkpt>
      <trkpt lat="43.58541" lon="6.41318">
        <ele>618.9</ele>
        <time>2026-02-22T12:34:23Z</time>
      </trkpt>
      <trkpt lat="43.58541" lon="6.41318">
        <ele>618.9</ele>
        <time>2026-02-22T12:34:24Z</time>
      </trkpt>
      <trkpt lat="43.58541" lon="6.41318">
        <ele>618.9</ele>
        <time>2026-02-22T12:34:25Z</time>
      </trkpt>
      <trkpt lat="43.58541" lon="6.41318">
        <ele>618.9</ele>
        <time>2026-02-22T12:34:26Z</time>
      </trkpt>
      <trkpt lat="43.58541" lon="6.41318">
        <ele>618.9</ele>
        <time>2026-02-22T12:34:27Z</time>
      </trkpt>
      <trkpt lat="43.58541" lon="6.41318">
        <ele>619</ele>
        <time>2026-02-22T12:34:28Z</time>
      </trkpt>
      <trkpt lat="43.58541" lon="6.41318">
        <ele>619</ele>
        <time>2026-02-22T12:34:29Z</time>
      </trkpt>
      <trkpt lat="43.58541" lon="6.41318">
        <ele>619.1</ele>
        <time>2026-02-22T12:34:30Z</time>
      </trkpt>
      <trkpt lat="43.58541" lon="6.41318">
        <ele>619.1</ele>
        <time>2026-02-22T12:34:31Z</time>
      </trkpt>
      <trkpt lat="43.58541" lon="6.41318">
        <ele>619.2</ele>
        <time>2026-02-22T12:34:32Z</time>
      </trkpt>
      <trkpt lat="43.58541" lon="6.41318">
        <ele>619.2</ele>
        <time>2026-02-22T12:34:33Z</time>
      </trkpt>
      <trkpt lat="43.58541" lon="6.41318">
        <ele>619.2</ele>
        <time>2026-02-22T12:34:34Z</time>
      </trkpt>
      <trkpt lat="43.58541" lon="6.41318">
        <ele>619.2</ele>
        <time>2026-02-22T12:34:35Z</time>
      </trkpt>
      <trkpt lat="43.58541" lon="6.41319">
        <ele>619.2</ele>
        <time>2026-02-22T12:34:36Z</time>
      </trkpt>
      <trkpt lat="43.58541" lon="6.41319">
        <ele>619.2</ele>
        <time>2026-02-22T12:34:37Z</time>
      </trkpt>
      <trkpt lat="43.58541" lon="6.41319">
        <ele>619.2</ele>
        <time>2026-02-22T12:34:38Z</time>
      </trkpt>
      <trkpt lat="43.58541" lon="6.41319">
        <ele>619.2</ele>
        <time>2026-02-22T12:34:39Z</time>
      </trkpt>
      <trkpt lat="43.5854" lon="6.41319">
        <ele>619.2</ele>
        <time>2026-02-22T12:34:40Z</time>
      </trkpt>
      <trkpt lat="43.5854" lon="6.41319">
        <ele>619.2</ele>
        <time>2026-02-22T12:34:41Z</time>
      </trkpt>
      <trkpt lat="43.5854" lon="6.41319">
        <ele>619.2</ele>
        <time>2026-02-22T12:34:42Z</time>
      </trkpt>
      <trkpt lat="43.5854" lon="6.41319">
        <ele>619.2</ele>
        <time>2026-02-22T12:34:43Z</time>
      </trkpt>
      <trkpt lat="43.5854" lon="6.41319">
        <ele>619.3</ele>
        <time>2026-02-22T12:34:44Z</time>
      </trkpt>
      <trkpt lat="43.5854" lon="6.41319">
        <ele>619.3</ele>
        <time>2026-02-22T12:34:45Z</time>
      </trkpt>
      <trkpt lat="43.5854" lon="6.41319">
        <ele>619.3</ele>
        <time>2026-02-22T12:34:46Z</time>
      </trkpt>
      <trkpt lat="43.5854" lon="6.41319">
        <ele>619.3</ele>
        <time>2026-02-22T12:34:47Z</time>
      </trkpt>
      <trkpt lat="43.5854" lon="6.41319">
        <ele>619.3</ele>
        <time>2026-02-22T12:34:48Z</time>
      </trkpt>
      <trkpt lat="43.5854" lon="6.41319">
        <ele>619.3</ele>
        <time>2026-02-22T12:34:49Z</time>
      </trkpt>
      <trkpt lat="43.5854" lon="6.41319">
        <ele>619.3</ele>
        <time>2026-02-22T12:34:50Z</time>
      </trkpt>
      <trkpt lat="43.5854" lon="6.41319">
        <ele>619.3</ele>
        <time>2026-02-22T12:34:51Z</time>
      </trkpt>
      <trkpt lat="43.5854" lon="6.41319">
        <ele>619.4</ele>
        <time>2026-02-22T12:34:52Z</time>
      </trkpt>
      <trkpt lat="43.5854" lon="6.41319">
        <ele>619.4</ele>
        <time>2026-02-22T12:34:53Z</time>
      </trkpt>
      <trkpt lat="43.5854" lon="6.41319">
        <ele>619.4</ele>
        <time>2026-02-22T12:34:54Z</time>
      </trkpt>
      <trkpt lat="43.5854" lon="6.41319">
        <ele>619.4</ele>
        <time>2026-02-22T12:34:55Z</time>
      </trkpt>
      <trkpt lat="43.5854" lon="6.41319">
        <ele>619.4</ele>
        <time>2026-02-22T12:34:56Z</time>
      </trkpt>
      <trkpt lat="43.5854" lon="6.41319">
        <ele>619.4</ele>
        <time>2026-02-22T12:34:57Z</time>
      </trkpt>
      <trkpt lat="43.5854" lon="6.41319">
        <ele>619.4</ele>
        <time>2026-02-22T12:34:58Z</time>
      </trkpt>
      <trkpt lat="43.5854" lon="6.41319">
        <ele>619.4</ele>
        <time>2026-02-22T12:34:59Z</time>
      </trkpt>
      <trkpt lat="43.5854" lon="6.41319">
        <ele>619.4</ele>
        <time>2026-02-22T12:35:00Z</time>
      </trkpt>
      <trkpt lat="43.5854" lon="6.41319">
        <ele>619.4</ele>
        <time>2026-02-22T12:35:01Z</time>
      </trkpt>
      <trkpt lat="43.5854" lon="6.41319">
        <ele>619.4</ele>
        <time>2026-02-22T12:35:02Z</time>
      </trkpt>
      <trkpt lat="43.5854" lon="6.41319">
        <ele>619.4</ele>
        <time>2026-02-22T12:35:03Z</time>
      </trkpt>
      <trkpt lat="43.5854" lon="6.41319">
        <ele>619.4</ele>
        <time>2026-02-22T12:35:04Z</time>
      </trkpt>
      <trkpt lat="43.5854" lon="6.41319">
        <ele>619.4</ele>
        <time>2026-02-22T12:35:05Z</time>
      </trkpt>
      <trkpt lat="43.5854" lon="6.41318">
        <ele>619.4</ele>
        <time>2026-02-22T12:35:06Z</time>
      </trkpt>
      <trkpt lat="43.5854" lon="6.41318">
        <ele>619.4</ele>
        <time>2026-02-22T12:35:07Z</time>
      </trkpt>
      <trkpt lat="43.5854" lon="6.41318">
        <ele>619.3</ele>
        <time>2026-02-22T12:35:08Z</time>
      </trkpt>
      <trkpt lat="43.5854" lon="6.41318">
        <ele>619.4</ele>
        <time>2026-02-22T12:35:09Z</time>
      </trkpt>
      <trkpt lat="43.58541" lon="6.41318">
        <ele>619.4</ele>
        <time>2026-02-22T12:35:10Z</time>
      </trkpt>
      <trkpt lat="43.58541" lon="6.41318">
        <ele>619.3</ele>
        <time>2026-02-22T12:35:11Z</time>
      </trkpt>
      <trkpt lat="43.58541" lon="6.41318">
        <ele>619.3</ele>
        <time>2026-02-22T12:35:12Z</time>
      </trkpt>
      <trkpt lat="43.58541" lon="6.41317">
        <ele>619.3</ele>
        <time>2026-02-22T12:35:13Z</time>
      </trkpt>
      <trkpt lat="43.58541" lon="6.41317">
        <ele>619.4</ele>
        <time>2026-02-22T12:35:14Z</time>
      </trkpt>
      <trkpt lat="43.58541" lon="6.41317">
        <ele>619.4</ele>
        <time>2026-02-22T12:35:15Z</time>
      </trkpt>
      <trkpt lat="43.58541" lon="6.41317">
        <ele>619.4</ele>
        <time>2026-02-22T12:35:16Z</time>
      </trkpt>
      <trkpt lat="43.58541" lon="6.41317">
        <ele>619.4</ele>
        <time>2026-02-22T12:35:17Z</time>
      </trkpt>
      <trkpt lat="43.58541" lon="6.41317">
        <ele>619.4</ele>
        <time>2026-02-22T12:35:18Z</time>
      </trkpt>
      <trkpt lat="43.58541" lon="6.41317">
        <ele>619.3</ele>
        <time>2026-02-22T12:35:19Z</time>
      </trkpt>
      <trkpt lat="43.58541" lon="6.41316">
        <ele>619.3</ele>
        <time>2026-02-22T12:35:20Z</time>
      </trkpt>
      <trkpt lat="43.58541" lon="6.41316">
        <ele>619.3</ele>
        <time>2026-02-22T12:35:21Z</time>
      </trkpt>
      <trkpt lat="43.58541" lon="6.41316">
        <ele>619.3</ele>
        <time>2026-02-22T12:35:22Z</time>
      </trkpt>
      <trkpt lat="43.58541" lon="6.41316">
        <ele>619.3</ele>
        <time>2026-02-22T12:35:23Z</time>
      </trkpt>
      <trkpt lat="43.58541" lon="6.41316">
        <ele>619.3</ele>
        <time>2026-02-22T12:35:24Z</time>
      </trkpt>
      <trkpt lat="43.58541" lon="6.41316">
        <ele>619.2</ele>
        <time>2026-02-22T12:35:25Z</time>
      </trkpt>
      <trkpt lat="43.58541" lon="6.41315">
        <ele>619.1</ele>
        <time>2026-02-22T12:35:26Z</time>
      </trkpt>
      <trkpt lat="43.58541" lon="6.41315">
        <ele>619</ele>
        <time>2026-02-22T12:35:27Z</time>
      </trkpt>
      <trkpt lat="43.58541" lon="6.41315">
        <ele>619</ele>
        <time>2026-02-22T12:35:28Z</time>
      </trkpt>
      <trkpt lat="43.58541" lon="6.41315">
        <ele>618.9</ele>
        <time>2026-02-22T12:35:29Z</time>
      </trkpt>
      <trkpt lat="43.58541" lon="6.41315">
        <ele>618.9</ele>
        <time>2026-02-22T12:35:30Z</time>
      </trkpt>
      <trkpt lat="43.58541" lon="6.41315">
        <ele>618.9</ele>
        <time>2026-02-22T12:35:31Z</time>
      </trkpt>
      <trkpt lat="43.58541" lon="6.41315">
        <ele>618.8</ele>
        <time>2026-02-22T12:35:32Z</time>
      </trkpt>
      <trkpt lat="43.58541" lon="6.41315">
        <ele>618.8</ele>
        <time>2026-02-22T12:35:33Z</time>
      </trkpt>
      <trkpt lat="43.58541" lon="6.41315">
        <ele>618.9</ele>
        <time>2026-02-22T12:35:34Z</time>
      </trkpt>
      <trkpt lat="43.58541" lon="6.41315">
        <ele>618.9</ele>
        <time>2026-02-22T12:35:35Z</time>
      </trkpt>
      <trkpt lat="43.58541" lon="6.41315">
        <ele>618.9</ele>
        <time>2026-02-22T12:35:36Z</time>
      </trkpt>
      <trkpt lat="43.58541" lon="6.41315">
        <ele>618.9</ele>
        <time>2026-02-22T12:35:37Z</time>
      </trkpt>
      <trkpt lat="43.58541" lon="6.41315">
        <ele>618.9</ele>
        <time>2026-02-22T12:35:38Z</time>
      </trkpt>
      <trkpt lat="43.58541" lon="6.41315">
        <ele>618.9</ele>
        <time>2026-02-22T12:35:39Z</time>
      </trkpt>
      <trkpt lat="43.58541" lon="6.41315">
        <ele>618.9</ele>
        <time>2026-02-22T12:35:40Z</time>
      </trkpt>
      <trkpt lat="43.58541" lon="6.41315">
        <ele>618.9</ele>
        <time>2026-02-22T12:35:41Z</time>
      </trkpt>
      <trkpt lat="43.58541" lon="6.41315">
        <ele>618.9</ele>
        <time>2026-02-22T12:35:42Z</time>
      </trkpt>
      <trkpt lat="43.58541" lon="6.41315">
        <ele>618.9</ele>
        <time>2026-02-22T12:35:43Z</time>
      </trkpt>
      <trkpt lat="43.58541" lon="6.41315">
        <ele>619</ele>
        <time>2026-02-22T12:35:44Z</time>
      </trkpt>
      <trkpt lat="43.58541" lon="6.41315">
        <ele>619</ele>
        <time>2026-02-22T12:35:45Z</time>
      </trkpt>
      <trkpt lat="43.58541" lon="6.41315">
        <ele>619</ele>
        <time>2026-02-22T12:35:46Z</time>
      </trkpt>
      <trkpt lat="43.58541" lon="6.41315">
        <ele>619</ele>
        <time>2026-02-22T12:35:47Z</time>
      </trkpt>
      <trkpt lat="43.58541" lon="6.41315">
        <ele>619</ele>
        <time>2026-02-22T12:35:48Z</time>
      </trkpt>
      <trkpt lat="43.58541" lon="6.41315">
        <ele>618.9</ele>
        <time>2026-02-22T12:35:49Z</time>
      </trkpt>
      <trkpt lat="43.58541" lon="6.41315">
        <ele>618.9</ele>
        <time>2026-02-22T12:35:50Z</time>
      </trkpt>
      <trkpt lat="43.58541" lon="6.41315">
        <ele>619</ele>
        <time>2026-02-22T12:35:51Z</time>
      </trkpt>
      <trkpt lat="43.58541" lon="6.41315">
        <ele>619</ele>
        <time>2026-02-22T12:35:52Z</time>
      </trkpt>
      <trkpt lat="43.58541" lon="6.41315">
        <ele>619</ele>
        <time>2026-02-22T12:35:53Z</time>
      </trkpt>
      <trkpt lat="43.58541" lon="6.41315">
        <ele>618.9</ele>
        <time>2026-02-22T12:35:54Z</time>
      </trkpt>
      <trkpt lat="43.58541" lon="6.41315">
        <ele>618.9</ele>
        <time>2026-02-22T12:35:55Z</time>
      </trkpt>
      <trkpt lat="43.58541" lon="6.41315">
        <ele>618.9</ele>
        <time>2026-02-22T12:35:56Z</time>
      </trkpt>
      <trkpt lat="43.58541" lon="6.41315">
        <ele>618.8</ele>
        <time>2026-02-22T12:35:57Z</time>
      </trkpt>
      <trkpt lat="43.58541" lon="6.41315">
        <ele>618.8</ele>
        <time>2026-02-22T12:35:58Z</time>
      </trkpt>
      <trkpt lat="43.58541" lon="6.41315">
        <ele>618.8</ele>
        <time>2026-02-22T12:35:59Z</time>
      </trkpt>
      <trkpt lat="43.58541" lon="6.41315">
        <ele>618.9</ele>
        <time>2026-02-22T12:36:00Z</time>
      </trkpt>
      <trkpt lat="43.58541" lon="6.41315">
        <ele>618.9</ele>
        <time>2026-02-22T12:36:01Z</time>
      </trkpt>
      <trkpt lat="43.58541" lon="6.41315">
        <ele>618.8</ele>
        <time>2026-02-22T12:36:02Z</time>
      </trkpt>
      <trkpt lat="43.58541" lon="6.41315">
        <ele>618.9</ele>
        <time>2026-02-22T12:36:03Z</time>
      </trkpt>
      <trkpt lat="43.58541" lon="6.41315">
        <ele>619</ele>
        <time>2026-02-22T12:36:04Z</time>
      </trkpt>
      <trkpt lat="43.58542" lon="6.41315">
        <ele>619</ele>
        <time>2026-02-22T12:36:05Z</time>
      </trkpt>
      <trkpt lat="43.58542" lon="6.41315">
        <ele>619.1</ele>
        <time>2026-02-22T12:36:06Z</time>
      </trkpt>
      <trkpt lat="43.58542" lon="6.41315">
        <ele>619.2</ele>
        <time>2026-02-22T12:36:07Z</time>
      </trkpt>
      <trkpt lat="43.58542" lon="6.41315">
        <ele>619.2</ele>
        <time>2026-02-22T12:36:08Z</time>
      </trkpt>
      <trkpt lat="43.58542" lon="6.41315">
        <ele>619.3</ele>
        <time>2026-02-22T12:36:09Z</time>
      </trkpt>
      <trkpt lat="43.58542" lon="6.41315">
        <ele>619.4</ele>
        <time>2026-02-22T12:36:10Z</time>
      </trkpt>
      <trkpt lat="43.58542" lon="6.41315">
        <ele>619.4</ele>
        <time>2026-02-22T12:36:11Z</time>
      </trkpt>
      <trkpt lat="43.58542" lon="6.41315">
        <ele>619.4</ele>
        <time>2026-02-22T12:36:12Z</time>
      </trkpt>
      <trkpt lat="43.58542" lon="6.41315">
        <ele>619.3</ele>
        <time>2026-02-22T12:36:13Z</time>
      </trkpt>
      <trkpt lat="43.58542" lon="6.41314">
        <ele>619.3</ele>
        <time>2026-02-22T12:36:14Z</time>
      </trkpt>
      <trkpt lat="43.58542" lon="6.41314">
        <ele>619.3</ele>
        <time>2026-02-22T12:36:15Z</time>
      </trkpt>
      <trkpt lat="43.58542" lon="6.41314">
        <ele>619.2</ele>
        <time>2026-02-22T12:36:16Z</time>
      </trkpt>
      <trkpt lat="43.58542" lon="6.41314">
        <ele>619.2</ele>
        <time>2026-02-22T12:36:17Z</time>
      </trkpt>
      <trkpt lat="43.58542" lon="6.41315">
        <ele>619.2</ele>
        <time>2026-02-22T12:36:18Z</time>
      </trkpt>
      <trkpt lat="43.58542" lon="6.41315">
        <ele>619.2</ele>
        <time>2026-02-22T12:36:19Z</time>
      </trkpt>
      <trkpt lat="43.58542" lon="6.41315">
        <ele>619.2</ele>
        <time>2026-02-22T12:36:20Z</time>
      </trkpt>
      <trkpt lat="43.58542" lon="6.41315">
        <ele>619.2</ele>
        <time>2026-02-22T12:36:21Z</time>
      </trkpt>
      <trkpt lat="43.58542" lon="6.41314">
        <ele>619.2</ele>
        <time>2026-02-22T12:36:22Z</time>
      </trkpt>
      <trkpt lat="43.58542" lon="6.41315">
        <ele>619.2</ele>
        <time>2026-02-22T12:36:23Z</time>
      </trkpt>
      <trkpt lat="43.58542" lon="6.41315">
        <ele>619.1</ele>
        <time>2026-02-22T12:36:24Z</time>
      </trkpt>
      <trkpt lat="43.58542" lon="6.41315">
        <ele>619.1</ele>
        <time>2026-02-22T12:36:25Z</time>
      </trkpt>
      <trkpt lat="43.58542" lon="6.41315">
        <ele>619.1</ele>
        <time>2026-02-22T12:36:26Z</time>
      </trkpt>
      <trkpt lat="43.58542" lon="6.41314">
        <ele>619.1</ele>
        <time>2026-02-22T12:36:27Z</time>
      </trkpt>
      <trkpt lat="43.58542" lon="6.41314">
        <ele>619.1</ele>
        <time>2026-02-22T12:36:28Z</time>
      </trkpt>
      <trkpt lat="43.58542" lon="6.41314">
        <ele>619.1</ele>
        <time>2026-02-22T12:36:29Z</time>
      </trkpt>
      <trkpt lat="43.58542" lon="6.41314">
        <ele>619.1</ele>
        <time>2026-02-22T12:36:30Z</time>
      </trkpt>
      <trkpt lat="43.58542" lon="6.41314">
        <ele>619.1</ele>
        <time>2026-02-22T12:36:31Z</time>
      </trkpt>
      <trkpt lat="43.58542" lon="6.41314">
        <ele>619.2</ele>
        <time>2026-02-22T12:36:32Z</time>
      </trkpt>
      <trkpt lat="43.58542" lon="6.41314">
        <ele>619.2</ele>
        <time>2026-02-22T12:36:33Z</time>
      </trkpt>
      <trkpt lat="43.58542" lon="6.41315">
        <ele>619.2</ele>
        <time>2026-02-22T12:36:34Z</time>
      </trkpt>
      <trkpt lat="43.58542" lon="6.41315">
        <ele>619.2</ele>
        <time>2026-02-22T12:36:35Z</time>
      </trkpt>
      <trkpt lat="43.58542" lon="6.41315">
        <ele>619.2</ele>
        <time>2026-02-22T12:36:36Z</time>
      </trkpt>
      <trkpt lat="43.58542" lon="6.41315">
        <ele>619.3</ele>
        <time>2026-02-22T12:36:37Z</time>
      </trkpt>
      <trkpt lat="43.58542" lon="6.41315">
        <ele>619.3</ele>
        <time>2026-02-22T12:36:38Z</time>
      </trkpt>
      <trkpt lat="43.58542" lon="6.41315">
        <ele>619.3</ele>
        <time>2026-02-22T12:36:39Z</time>
      </trkpt>
      <trkpt lat="43.58542" lon="6.41316">
        <ele>619.3</ele>
        <time>2026-02-22T12:36:40Z</time>
      </trkpt>
      <trkpt lat="43.58542" lon="6.41316">
        <ele>619.4</ele>
        <time>2026-02-22T12:36:41Z</time>
      </trkpt>
      <trkpt lat="43.58542" lon="6.41316">
        <ele>619.4</ele>
        <time>2026-02-22T12:36:42Z</time>
      </trkpt>
      <trkpt lat="43.58542" lon="6.41316">
        <ele>619.4</ele>
        <time>2026-02-22T12:36:43Z</time>
      </trkpt>
      <trkpt lat="43.58542" lon="6.41316">
        <ele>619.4</ele>
        <time>2026-02-22T12:36:44Z</time>
      </trkpt>
      <trkpt lat="43.58542" lon="6.41316">
        <ele>619.4</ele>
        <time>2026-02-22T12:36:45Z</time>
      </trkpt>
      <trkpt lat="43.58542" lon="6.41316">
        <ele>619.5</ele>
        <time>2026-02-22T12:36:46Z</time>
      </trkpt>
      <trkpt lat="43.58542" lon="6.41316">
        <ele>619.5</ele>
        <time>2026-02-22T12:36:47Z</time>
      </trkpt>
      <trkpt lat="43.58542" lon="6.41316">
        <ele>619.5</ele>
        <time>2026-02-22T12:36:48Z</time>
      </trkpt>
      <trkpt lat="43.58542" lon="6.41316">
        <ele>619.5</ele>
        <time>2026-02-22T12:36:49Z</time>
      </trkpt>
      <trkpt lat="43.58542" lon="6.41316">
        <ele>619.5</ele>
        <time>2026-02-22T12:36:50Z</time>
      </trkpt>
      <trkpt lat="43.58542" lon="6.41316">
        <ele>619.5</ele>
        <time>2026-02-22T12:36:51Z</time>
      </trkpt>
      <trkpt lat="43.58542" lon="6.41316">
        <ele>619.5</ele>
        <time>2026-02-22T12:36:52Z</time>
      </trkpt>
      <trkpt lat="43.58542" lon="6.41316">
        <ele>619.5</ele>
        <time>2026-02-22T12:36:53Z</time>
      </trkpt>
      <trkpt lat="43.58542" lon="6.41316">
        <ele>619.5</ele>
        <time>2026-02-22T12:36:54Z</time>
      </trkpt>
      <trkpt lat="43.58542" lon="6.41316">
        <ele>619.4</ele>
        <time>2026-02-22T12:36:55Z</time>
      </trkpt>
      <trkpt lat="43.58542" lon="6.41316">
        <ele>619.3</ele>
        <time>2026-02-22T12:36:56Z</time>
      </trkpt>
      <trkpt lat="43.58542" lon="6.41316">
        <ele>619.3</ele>
        <time>2026-02-22T12:36:57Z</time>
      </trkpt>
      <trkpt lat="43.58542" lon="6.41316">
        <ele>619.2</ele>
        <time>2026-02-22T12:36:58Z</time>
      </trkpt>
      <trkpt lat="43.58542" lon="6.41316">
        <ele>619.2</ele>
        <time>2026-02-22T12:36:59Z</time>
      </trkpt>
      <trkpt lat="43.58543" lon="6.41316">
        <ele>619.1</ele>
        <time>2026-02-22T12:37:00Z</time>
      </trkpt>
      <trkpt lat="43.58543" lon="6.41316">
        <ele>619.1</ele>
        <time>2026-02-22T12:37:01Z</time>
      </trkpt>
      <trkpt lat="43.58543" lon="6.41316">
        <ele>619</ele>
        <time>2026-02-22T12:37:02Z</time>
      </trkpt>
      <trkpt lat="43.58543" lon="6.41316">
        <ele>619</ele>
        <time>2026-02-22T12:37:03Z</time>
      </trkpt>
      <trkpt lat="43.58543" lon="6.41316">
        <ele>619</ele>
        <time>2026-02-22T12:37:04Z</time>
      </trkpt>
      <trkpt lat="43.58543" lon="6.41316">
        <ele>618.9</ele>
        <time>2026-02-22T12:37:05Z</time>
      </trkpt>
      <trkpt lat="43.58543" lon="6.41316">
        <ele>618.9</ele>
        <time>2026-02-22T12:37:06Z</time>
      </trkpt>
      <trkpt lat="43.58543" lon="6.41317">
        <ele>618.9</ele>
        <time>2026-02-22T12:37:07Z</time>
      </trkpt>
      <trkpt lat="43.58543" lon="6.41317">
        <ele>619.1</ele>
        <time>2026-02-22T12:37:08Z</time>
      </trkpt>
      <trkpt lat="43.58543" lon="6.41318">
        <ele>619.1</ele>
        <time>2026-02-22T12:37:09Z</time>
      </trkpt>
      <trkpt lat="43.58543" lon="6.41319">
        <ele>619</ele>
        <time>2026-02-22T12:37:10Z</time>
      </trkpt>
      <trkpt lat="43.58543" lon="6.41319">
        <ele>619</ele>
        <time>2026-02-22T12:37:11Z</time>
      </trkpt>
      <trkpt lat="43.58543" lon="6.41319">
        <ele>619.1</ele>
        <time>2026-02-22T12:37:12Z</time>
      </trkpt>
      <trkpt lat="43.58543" lon="6.4132">
        <ele>619.1</ele>
        <time>2026-02-22T12:37:13Z</time>
      </trkpt>
      <trkpt lat="43.58542" lon="6.4132">
        <ele>619</ele>
        <time>2026-02-22T12:37:14Z</time>
      </trkpt>
      <trkpt lat="43.58542" lon="6.41321">
        <ele>619</ele>
        <time>2026-02-22T12:37:15Z</time>
      </trkpt>
      <trkpt lat="43.58542" lon="6.41321">
        <ele>619</ele>
        <time>2026-02-22T12:37:16Z</time>
      </trkpt>
      <trkpt lat="43.58542" lon="6.41321">
        <ele>618.9</ele>
        <time>2026-02-22T12:37:17Z</time>
      </trkpt>
      <trkpt lat="43.58542" lon="6.41322">
        <ele>618.8</ele>
        <time>2026-02-22T12:37:18Z</time>
      </trkpt>
      <trkpt lat="43.58542" lon="6.41323">
        <ele>618.8</ele>
        <time>2026-02-22T12:37:19Z</time>
      </trkpt>
      <trkpt lat="43.58542" lon="6.41323">
        <ele>618.6</ele>
        <time>2026-02-22T12:37:20Z</time>
      </trkpt>
      <trkpt lat="43.58542" lon="6.41324">
        <ele>618.5</ele>
        <time>2026-02-22T12:37:21Z</time>
      </trkpt>
      <trkpt lat="43.58542" lon="6.41324">
        <ele>618.4</ele>
        <time>2026-02-22T12:37:22Z</time>
      </trkpt>
      <trkpt lat="43.58542" lon="6.41325">
        <ele>618.4</ele>
        <time>2026-02-22T12:37:23Z</time>
      </trkpt>
      <trkpt lat="43.58542" lon="6.41326">
        <ele>618.2</ele>
        <time>2026-02-22T12:37:24Z</time>
      </trkpt>
      <trkpt lat="43.58542" lon="6.41327">
        <ele>618</ele>
        <time>2026-02-22T12:37:25Z</time>
      </trkpt>
      <trkpt lat="43.58542" lon="6.41328">
        <ele>617.9</ele>
        <time>2026-02-22T12:37:26Z</time>
      </trkpt>
      <trkpt lat="43.58542" lon="6.41329">
        <ele>617.9</ele>
        <time>2026-02-22T12:37:27Z</time>
      </trkpt>
      <trkpt lat="43.58542" lon="6.4133">
        <ele>617.8</ele>
        <time>2026-02-22T12:37:28Z</time>
      </trkpt>
      <trkpt lat="43.58542" lon="6.4133">
        <ele>617.8</ele>
        <time>2026-02-22T12:37:29Z</time>
      </trkpt>
      <trkpt lat="43.58542" lon="6.41331">
        <ele>617.7</ele>
        <time>2026-02-22T12:37:30Z</time>
      </trkpt>
      <trkpt lat="43.58543" lon="6.41331">
        <ele>617.6</ele>
        <time>2026-02-22T12:37:31Z</time>
      </trkpt>
      <trkpt lat="43.58543" lon="6.41332">
        <ele>617.6</ele>
        <time>2026-02-22T12:37:32Z</time>
      </trkpt>
      <trkpt lat="43.58543" lon="6.41333">
        <ele>617.5</ele>
        <time>2026-02-22T12:37:33Z</time>
      </trkpt>
      <trkpt lat="43.58543" lon="6.41333">
        <ele>617.3</ele>
        <time>2026-02-22T12:37:34Z</time>
      </trkpt>
      <trkpt lat="43.58544" lon="6.41334">
        <ele>617.2</ele>
        <time>2026-02-22T12:37:35Z</time>
      </trkpt>
      <trkpt lat="43.58544" lon="6.41335">
        <ele>617.1</ele>
        <time>2026-02-22T12:37:36Z</time>
      </trkpt>
      <trkpt lat="43.58544" lon="6.41336">
        <ele>617</ele>
        <time>2026-02-22T12:37:37Z</time>
      </trkpt>
      <trkpt lat="43.58544" lon="6.41337">
        <ele>617</ele>
        <time>2026-02-22T12:37:38Z</time>
      </trkpt>
      <trkpt lat="43.58544" lon="6.41338">
        <ele>616.9</ele>
        <time>2026-02-22T12:37:39Z</time>
      </trkpt>
      <trkpt lat="43.58543" lon="6.41339">
        <ele>616.9</ele>
        <time>2026-02-22T12:37:40Z</time>
      </trkpt>
      <trkpt lat="43.58543" lon="6.4134">
        <ele>616.9</ele>
        <time>2026-02-22T12:37:41Z</time>
      </trkpt>
      <trkpt lat="43.58543" lon="6.4134">
        <ele>616.9</ele>
        <time>2026-02-22T12:37:42Z</time>
      </trkpt>
      <trkpt lat="43.58542" lon="6.41341">
        <ele>616.9</ele>
        <time>2026-02-22T12:37:43Z</time>
      </trkpt>
      <trkpt lat="43.58542" lon="6.41342">
        <ele>617</ele>
        <time>2026-02-22T12:37:44Z</time>
      </trkpt>
      <trkpt lat="43.58542" lon="6.41344">
        <ele>616.8</ele>
        <time>2026-02-22T12:37:45Z</time>
      </trkpt>
      <trkpt lat="43.58541" lon="6.41344">
        <ele>616.7</ele>
        <time>2026-02-22T12:37:46Z</time>
      </trkpt>
      <trkpt lat="43.58541" lon="6.41346">
        <ele>616.6</ele>
        <time>2026-02-22T12:37:47Z</time>
      </trkpt>
      <trkpt lat="43.5854" lon="6.41346">
        <ele>616.6</ele>
        <time>2026-02-22T12:37:48Z</time>
      </trkpt>
      <trkpt lat="43.5854" lon="6.41347">
        <ele>616.7</ele>
        <time>2026-02-22T12:37:49Z</time>
      </trkpt>
      <trkpt lat="43.58539" lon="6.41348">
        <ele>616.6</ele>
        <time>2026-02-22T12:37:50Z</time>
      </trkpt>
      <trkpt lat="43.58539" lon="6.41349">
        <ele>616.5</ele>
        <time>2026-02-22T12:37:51Z</time>
      </trkpt>
      <trkpt lat="43.58539" lon="6.41349">
        <ele>616.4</ele>
        <time>2026-02-22T12:37:52Z</time>
      </trkpt>
      <trkpt lat="43.58539" lon="6.4135">
        <ele>616.2</ele>
        <time>2026-02-22T12:37:53Z</time>
      </trkpt>
      <trkpt lat="43.58538" lon="6.4135">
        <ele>616.1</ele>
        <time>2026-02-22T12:37:54Z</time>
      </trkpt>
      <trkpt lat="43.58538" lon="6.41351">
        <ele>616</ele>
        <time>2026-02-22T12:37:55Z</time>
      </trkpt>
      <trkpt lat="43.58537" lon="6.41351">
        <ele>615.9</ele>
        <time>2026-02-22T12:37:56Z</time>
      </trkpt>
      <trkpt lat="43.58537" lon="6.41352">
        <ele>615.8</ele>
        <time>2026-02-22T12:37:57Z</time>
      </trkpt>
      <trkpt lat="43.58537" lon="6.41352">
        <ele>615.7</ele>
        <time>2026-02-22T12:37:58Z</time>
      </trkpt>
      <trkpt lat="43.58537" lon="6.41353">
        <ele>615.6</ele>
        <time>2026-02-22T12:37:59Z</time>
      </trkpt>
      <trkpt lat="43.58536" lon="6.41353">
        <ele>615.4</ele>
        <time>2026-02-22T12:38:00Z</time>
      </trkpt>
      <trkpt lat="43.58535" lon="6.41354">
        <ele>615.3</ele>
        <time>2026-02-22T12:38:01Z</time>
      </trkpt>
      <trkpt lat="43.58535" lon="6.41355">
        <ele>615.2</ele>
        <time>2026-02-22T12:38:02Z</time>
      </trkpt>
      <trkpt lat="43.58534" lon="6.41355">
        <ele>615.1</ele>
        <time>2026-02-22T12:38:03Z</time>
      </trkpt>
      <trkpt lat="43.58534" lon="6.41356">
        <ele>615</ele>
        <time>2026-02-22T12:38:04Z</time>
      </trkpt>
      <trkpt lat="43.58533" lon="6.41357">
        <ele>614.9</ele>
        <time>2026-02-22T12:38:05Z</time>
      </trkpt>
      <trkpt lat="43.58533" lon="6.41358">
        <ele>614.9</ele>
        <time>2026-02-22T12:38:06Z</time>
      </trkpt>
      <trkpt lat="43.58533" lon="6.41359">
        <ele>614.8</ele>
        <time>2026-02-22T12:38:07Z</time>
      </trkpt>
      <trkpt lat="43.58532" lon="6.4136">
        <ele>614.7</ele>
        <time>2026-02-22T12:38:08Z</time>
      </trkpt>
      <trkpt lat="43.58532" lon="6.41361">
        <ele>614.6</ele>
        <time>2026-02-22T12:38:09Z</time>
      </trkpt>
      <trkpt lat="43.58532" lon="6.41362">
        <ele>614.5</ele>
        <time>2026-02-22T12:38:10Z</time>
      </trkpt>
      <trkpt lat="43.58531" lon="6.41363">
        <ele>614.5</ele>
        <time>2026-02-22T12:38:11Z</time>
      </trkpt>
      <trkpt lat="43.58531" lon="6.41364">
        <ele>614.4</ele>
        <time>2026-02-22T12:38:12Z</time>
      </trkpt>
      <trkpt lat="43.58531" lon="6.41364">
        <ele>614.4</ele>
        <time>2026-02-22T12:38:13Z</time>
      </trkpt>
      <trkpt lat="43.58531" lon="6.41365">
        <ele>614.3</ele>
        <time>2026-02-22T12:38:14Z</time>
      </trkpt>
      <trkpt lat="43.58531" lon="6.41365">
        <ele>614.2</ele>
        <time>2026-02-22T12:38:15Z</time>
      </trkpt>
      <trkpt lat="43.58531" lon="6.41365">
        <ele>614.1</ele>
        <time>2026-02-22T12:38:16Z</time>
      </trkpt>
      <trkpt lat="43.58531" lon="6.41365">
        <ele>614</ele>
        <time>2026-02-22T12:38:17Z</time>
      </trkpt>
      <trkpt lat="43.58531" lon="6.41365">
        <ele>614</ele>
        <time>2026-02-22T12:38:18Z</time>
      </trkpt>
      <trkpt lat="43.58531" lon="6.41365">
        <ele>614</ele>
        <time>2026-02-22T12:38:19Z</time>
      </trkpt>
      <trkpt lat="43.58531" lon="6.41366">
        <ele>614.1</ele>
        <time>2026-02-22T12:38:20Z</time>
      </trkpt>
      <trkpt lat="43.58531" lon="6.41366">
        <ele>614</ele>
        <time>2026-02-22T12:38:21Z</time>
      </trkpt>
      <trkpt lat="43.58531" lon="6.41366">
        <ele>614</ele>
        <time>2026-02-22T12:38:22Z</time>
      </trkpt>
      <trkpt lat="43.58531" lon="6.41367">
        <ele>613.9</ele>
        <time>2026-02-22T12:38:23Z</time>
      </trkpt>
      <trkpt lat="43.58531" lon="6.41368">
        <ele>613.9</ele>
        <time>2026-02-22T12:38:24Z</time>
      </trkpt>
      <trkpt lat="43.5853" lon="6.41369">
        <ele>613.9</ele>
        <time>2026-02-22T12:38:25Z</time>
      </trkpt>
      <trkpt lat="43.5853" lon="6.4137">
        <ele>613.7</ele>
        <time>2026-02-22T12:38:26Z</time>
      </trkpt>
      <trkpt lat="43.5853" lon="6.41371">
        <ele>613.6</ele>
        <time>2026-02-22T12:38:27Z</time>
      </trkpt>
      <trkpt lat="43.58529" lon="6.41372">
        <ele>613.6</ele>
        <time>2026-02-22T12:38:28Z</time>
      </trkpt>
      <trkpt lat="43.58529" lon="6.41373">
        <ele>613.4</ele>
        <time>2026-02-22T12:38:29Z</time>
      </trkpt>
      <trkpt lat="43.58528" lon="6.41374">
        <ele>613.4</ele>
        <time>2026-02-22T12:38:30Z</time>
      </trkpt>
      <trkpt lat="43.58528" lon="6.41375">
        <ele>613.4</ele>
        <time>2026-02-22T12:38:31Z</time>
      </trkpt>
      <trkpt lat="43.58529" lon="6.41376">
        <ele>613.2</ele>
        <time>2026-02-22T12:38:32Z</time>
      </trkpt>
      <trkpt lat="43.58528" lon="6.41377">
        <ele>613.2</ele>
        <time>2026-02-22T12:38:33Z</time>
      </trkpt>
      <trkpt lat="43.58528" lon="6.41378">
        <ele>613.1</ele>
        <time>2026-02-22T12:38:34Z</time>
      </trkpt>
      <trkpt lat="43.58527" lon="6.41379">
        <ele>613.1</ele>
        <time>2026-02-22T12:38:35Z</time>
      </trkpt>
      <trkpt lat="43.58527" lon="6.4138">
        <ele>613</ele>
        <time>2026-02-22T12:38:36Z</time>
      </trkpt>
      <trkpt lat="43.58527" lon="6.4138">
        <ele>612.9</ele>
        <time>2026-02-22T12:38:37Z</time>
      </trkpt>
      <trkpt lat="43.58527" lon="6.41382">
        <ele>612.8</ele>
        <time>2026-02-22T12:38:38Z</time>
      </trkpt>
      <trkpt lat="43.58526" lon="6.41383">
        <ele>612.7</ele>
        <time>2026-02-22T12:38:39Z</time>
      </trkpt>
      <trkpt lat="43.58525" lon="6.41384">
        <ele>612.6</ele>
        <time>2026-02-22T12:38:40Z</time>
      </trkpt>
      <trkpt lat="43.58525" lon="6.41384">
        <ele>612.5</ele>
        <time>2026-02-22T12:38:41Z</time>
      </trkpt>
      <trkpt lat="43.58525" lon="6.41384">
        <ele>612.3</ele>
        <time>2026-02-22T12:38:42Z</time>
      </trkpt>
      <trkpt lat="43.58525" lon="6.41385">
        <ele>612.2</ele>
        <time>2026-02-22T12:38:43Z</time>
      </trkpt>
      <trkpt lat="43.58524" lon="6.41385">
        <ele>612.2</ele>
        <time>2026-02-22T12:38:44Z</time>
      </trkpt>
      <trkpt lat="43.58524" lon="6.41385">
        <ele>612.1</ele>
        <time>2026-02-22T12:38:45Z</time>
      </trkpt>
      <trkpt lat="43.58523" lon="6.41386">
        <ele>612.1</ele>
        <time>2026-02-22T12:38:46Z</time>
      </trkpt>
      <trkpt lat="43.58523" lon="6.41387">
        <ele>612.1</ele>
        <time>2026-02-22T12:38:47Z</time>
      </trkpt>
      <trkpt lat="43.58522" lon="6.41388">
        <ele>612.1</ele>
        <time>2026-02-22T12:38:48Z</time>
      </trkpt>
      <trkpt lat="43.58521" lon="6.41389">
        <ele>612</ele>
        <time>2026-02-22T12:38:49Z</time>
      </trkpt>
      <trkpt lat="43.58521" lon="6.4139">
        <ele>611.9</ele>
        <time>2026-02-22T12:38:50Z</time>
      </trkpt>
      <trkpt lat="43.58521" lon="6.41391">
        <ele>611.9</ele>
        <time>2026-02-22T12:38:51Z</time>
      </trkpt>
      <trkpt lat="43.58522" lon="6.41392">
        <ele>611.8</ele>
        <time>2026-02-22T12:38:52Z</time>
      </trkpt>
      <trkpt lat="43.58522" lon="6.41392">
        <ele>611.8</ele>
        <time>2026-02-22T12:38:53Z</time>
      </trkpt>
      <trkpt lat="43.58522" lon="6.41393">
        <ele>611.8</ele>
        <time>2026-02-22T12:38:54Z</time>
      </trkpt>
      <trkpt lat="43.58522" lon="6.41394">
        <ele>611.8</ele>
        <time>2026-02-22T12:38:55Z</time>
      </trkpt>
      <trkpt lat="43.58522" lon="6.41395">
        <ele>611.7</ele>
        <time>2026-02-22T12:38:56Z</time>
      </trkpt>
      <trkpt lat="43.58522" lon="6.41396">
        <ele>611.7</ele>
        <time>2026-02-22T12:38:57Z</time>
      </trkpt>
      <trkpt lat="43.58522" lon="6.41397">
        <ele>611.7</ele>
        <time>2026-02-22T12:38:58Z</time>
      </trkpt>
      <trkpt lat="43.58522" lon="6.41399">
        <ele>611.7</ele>
        <time>2026-02-22T12:38:59Z</time>
      </trkpt>
      <trkpt lat="43.58522" lon="6.414">
        <ele>611.6</ele>
        <time>2026-02-22T12:39:00Z</time>
      </trkpt>
      <trkpt lat="43.58522" lon="6.41401">
        <ele>611.5</ele>
        <time>2026-02-22T12:39:01Z</time>
      </trkpt>
      <trkpt lat="43.58522" lon="6.41403">
        <ele>611.4</ele>
        <time>2026-02-22T12:39:02Z</time>
      </trkpt>
      <trkpt lat="43.58522" lon="6.41404">
        <ele>611.3</ele>
        <time>2026-02-22T12:39:03Z</time>
      </trkpt>
      <trkpt lat="43.58522" lon="6.41405">
        <ele>611.1</ele>
        <time>2026-02-22T12:39:04Z</time>
      </trkpt>
      <trkpt lat="43.58522" lon="6.41406">
        <ele>611</ele>
        <time>2026-02-22T12:39:05Z</time>
      </trkpt>
      <trkpt lat="43.58522" lon="6.41407">
        <ele>610.9</ele>
        <time>2026-02-22T12:39:06Z</time>
      </trkpt>
      <trkpt lat="43.58522" lon="6.41408">
        <ele>610.9</ele>
        <time>2026-02-22T12:39:07Z</time>
      </trkpt>
      <trkpt lat="43.58522" lon="6.41409">
        <ele>610.9</ele>
        <time>2026-02-22T12:39:08Z</time>
      </trkpt>
      <trkpt lat="43.58523" lon="6.4141">
        <ele>610.8</ele>
        <time>2026-02-22T12:39:09Z</time>
      </trkpt>
      <trkpt lat="43.58523" lon="6.41411">
        <ele>610.8</ele>
        <time>2026-02-22T12:39:10Z</time>
      </trkpt>
      <trkpt lat="43.58523" lon="6.41413">
        <ele>610.8</ele>
        <time>2026-02-22T12:39:11Z</time>
      </trkpt>
      <trkpt lat="43.58523" lon="6.41414">
        <ele>610.6</ele>
        <time>2026-02-22T12:39:12Z</time>
      </trkpt>
      <trkpt lat="43.58524" lon="6.41415">
        <ele>610.5</ele>
        <time>2026-02-22T12:39:13Z</time>
      </trkpt>
      <trkpt lat="43.58524" lon="6.41416">
        <ele>610.7</ele>
        <time>2026-02-22T12:39:14Z</time>
      </trkpt>
      <trkpt lat="43.58524" lon="6.41417">
        <ele>610.5</ele>
        <time>2026-02-22T12:39:15Z</time>
      </trkpt>
      <trkpt lat="43.58525" lon="6.41418">
        <ele>610.5</ele>
        <time>2026-02-22T12:39:16Z</time>
      </trkpt>
      <trkpt lat="43.58525" lon="6.41419">
        <ele>610.4</ele>
        <time>2026-02-22T12:39:17Z</time>
      </trkpt>
      <trkpt lat="43.58526" lon="6.4142">
        <ele>610.4</ele>
        <time>2026-02-22T12:39:18Z</time>
      </trkpt>
      <trkpt lat="43.58526" lon="6.41421">
        <ele>610.4</ele>
        <time>2026-02-22T12:39:19Z</time>
      </trkpt>
      <trkpt lat="43.58527" lon="6.41421">
        <ele>610.4</ele>
        <time>2026-02-22T12:39:20Z</time>
      </trkpt>
      <trkpt lat="43.58527" lon="6.41422">
        <ele>610.3</ele>
        <time>2026-02-22T12:39:21Z</time>
      </trkpt>
      <trkpt lat="43.58527" lon="6.41423">
        <ele>610.1</ele>
        <time>2026-02-22T12:39:22Z</time>
      </trkpt>
      <trkpt lat="43.58527" lon="6.41423">
        <ele>610.1</ele>
        <time>2026-02-22T12:39:23Z</time>
      </trkpt>
      <trkpt lat="43.58527" lon="6.41424">
        <ele>610</ele>
        <time>2026-02-22T12:39:24Z</time>
      </trkpt>
      <trkpt lat="43.58527" lon="6.41424">
        <ele>610</ele>
        <time>2026-02-22T12:39:25Z</time>
      </trkpt>
      <trkpt lat="43.58527" lon="6.41425">
        <ele>609.9</ele>
        <time>2026-02-22T12:39:26Z</time>
      </trkpt>
      <trkpt lat="43.58527" lon="6.41426">
        <ele>610</ele>
        <time>2026-02-22T12:39:27Z</time>
      </trkpt>
      <trkpt lat="43.58527" lon="6.41427">
        <ele>609.8</ele>
        <time>2026-02-22T12:39:28Z</time>
      </trkpt>
      <trkpt lat="43.58527" lon="6.41428">
        <ele>609.7</ele>
        <time>2026-02-22T12:39:29Z</time>
      </trkpt>
      <trkpt lat="43.58527" lon="6.41429">
        <ele>609.9</ele>
        <time>2026-02-22T12:39:30Z</time>
      </trkpt>
      <trkpt lat="43.58527" lon="6.4143">
        <ele>609.8</ele>
        <time>2026-02-22T12:39:31Z</time>
      </trkpt>
      <trkpt lat="43.58527" lon="6.41431">
        <ele>609.8</ele>
        <time>2026-02-22T12:39:32Z</time>
      </trkpt>
      <trkpt lat="43.58527" lon="6.41432">
        <ele>609.7</ele>
        <time>2026-02-22T12:39:33Z</time>
      </trkpt>
      <trkpt lat="43.58527" lon="6.41432">
        <ele>609.7</ele>
        <time>2026-02-22T12:39:34Z</time>
      </trkpt>
      <trkpt lat="43.58526" lon="6.41433">
        <ele>609.7</ele>
        <time>2026-02-22T12:39:35Z</time>
      </trkpt>
      <trkpt lat="43.58526" lon="6.41434">
        <ele>609.6</ele>
        <time>2026-02-22T12:39:36Z</time>
      </trkpt>
      <trkpt lat="43.58526" lon="6.41435">
        <ele>609.5</ele>
        <time>2026-02-22T12:39:37Z</time>
      </trkpt>
      <trkpt lat="43.58526" lon="6.41436">
        <ele>609.5</ele>
        <time>2026-02-22T12:39:38Z</time>
      </trkpt>
      <trkpt lat="43.58526" lon="6.41438">
        <ele>609.4</ele>
        <time>2026-02-22T12:39:39Z</time>
      </trkpt>
      <trkpt lat="43.58526" lon="6.41439">
        <ele>609.3</ele>
        <time>2026-02-22T12:39:40Z</time>
      </trkpt>
      <trkpt lat="43.58526" lon="6.4144">
        <ele>609.3</ele>
        <time>2026-02-22T12:39:41Z</time>
      </trkpt>
      <trkpt lat="43.58527" lon="6.41441">
        <ele>609.3</ele>
        <time>2026-02-22T12:39:42Z</time>
      </trkpt>
      <trkpt lat="43.58527" lon="6.41442">
        <ele>609.4</ele>
        <time>2026-02-22T12:39:43Z</time>
      </trkpt>
      <trkpt lat="43.58527" lon="6.41443">
        <ele>609.5</ele>
        <time>2026-02-22T12:39:44Z</time>
      </trkpt>
      <trkpt lat="43.58527" lon="6.41443">
        <ele>609.5</ele>
        <time>2026-02-22T12:39:45Z</time>
      </trkpt>
      <trkpt lat="43.58528" lon="6.41444">
        <ele>609.5</ele>
        <time>2026-02-22T12:39:46Z</time>
      </trkpt>
      <trkpt lat="43.58528" lon="6.41445">
        <ele>609.6</ele>
        <time>2026-02-22T12:39:47Z</time>
      </trkpt>
      <trkpt lat="43.58528" lon="6.41446">
        <ele>609.5</ele>
        <time>2026-02-22T12:39:48Z</time>
      </trkpt>
      <trkpt lat="43.58529" lon="6.41446">
        <ele>609.5</ele>
        <time>2026-02-22T12:39:49Z</time>
      </trkpt>
      <trkpt lat="43.58529" lon="6.41447">
        <ele>609.5</ele>
        <time>2026-02-22T12:39:50Z</time>
      </trkpt>
      <trkpt lat="43.58529" lon="6.41448">
        <ele>609.5</ele>
        <time>2026-02-22T12:39:51Z</time>
      </trkpt>
      <trkpt lat="43.5853" lon="6.41449">
        <ele>609.4</ele>
        <time>2026-02-22T12:39:52Z</time>
      </trkpt>
      <trkpt lat="43.5853" lon="6.41449">
        <ele>609.3</ele>
        <time>2026-02-22T12:39:53Z</time>
      </trkpt>
      <trkpt lat="43.5853" lon="6.41449">
        <ele>609.2</ele>
        <time>2026-02-22T12:39:54Z</time>
      </trkpt>
      <trkpt lat="43.5853" lon="6.4145">
        <ele>609.2</ele>
        <time>2026-02-22T12:39:55Z</time>
      </trkpt>
      <trkpt lat="43.5853" lon="6.4145">
        <ele>609.2</ele>
        <time>2026-02-22T12:39:56Z</time>
      </trkpt>
      <trkpt lat="43.5853" lon="6.4145">
        <ele>609.2</ele>
        <time>2026-02-22T12:39:57Z</time>
      </trkpt>
      <trkpt lat="43.5853" lon="6.4145">
        <ele>609.2</ele>
        <time>2026-02-22T12:39:58Z</time>
      </trkpt>
      <trkpt lat="43.5853" lon="6.41451">
        <ele>609.2</ele>
        <time>2026-02-22T12:39:59Z</time>
      </trkpt>
      <trkpt lat="43.5853" lon="6.41451">
        <ele>609.1</ele>
        <time>2026-02-22T12:40:00Z</time>
      </trkpt>
      <trkpt lat="43.5853" lon="6.41452">
        <ele>609</ele>
        <time>2026-02-22T12:40:01Z</time>
      </trkpt>
      <trkpt lat="43.5853" lon="6.41452">
        <ele>609</ele>
        <time>2026-02-22T12:40:02Z</time>
      </trkpt>
      <trkpt lat="43.5853" lon="6.41452">
        <ele>609</ele>
        <time>2026-02-22T12:40:03Z</time>
      </trkpt>
      <trkpt lat="43.5853" lon="6.41452">
        <ele>608.9</ele>
        <time>2026-02-22T12:40:04Z</time>
      </trkpt>
      <trkpt lat="43.5853" lon="6.41453">
        <ele>608.8</ele>
        <time>2026-02-22T12:40:05Z</time>
      </trkpt>
      <trkpt lat="43.5853" lon="6.41453">
        <ele>608.9</ele>
        <time>2026-02-22T12:40:06Z</time>
      </trkpt>
      <trkpt lat="43.5853" lon="6.41453">
        <ele>608.9</ele>
        <time>2026-02-22T12:40:07Z</time>
      </trkpt>
      <trkpt lat="43.5853" lon="6.41453">
        <ele>608.9</ele>
        <time>2026-02-22T12:40:08Z</time>
      </trkpt>
      <trkpt lat="43.5853" lon="6.41453">
        <ele>609</ele>
        <time>2026-02-22T12:40:09Z</time>
      </trkpt>
      <trkpt lat="43.5853" lon="6.41454">
        <ele>609</ele>
        <time>2026-02-22T12:40:10Z</time>
      </trkpt>
      <trkpt lat="43.5853" lon="6.41454">
        <ele>609.1</ele>
        <time>2026-02-22T12:40:11Z</time>
      </trkpt>
      <trkpt lat="43.5853" lon="6.41454">
        <ele>609.1</ele>
        <time>2026-02-22T12:40:12Z</time>
      </trkpt>
      <trkpt lat="43.5853" lon="6.41454">
        <ele>609</ele>
        <time>2026-02-22T12:40:13Z</time>
      </trkpt>
      <trkpt lat="43.5853" lon="6.41455">
        <ele>608.9</ele>
        <time>2026-02-22T12:40:14Z</time>
      </trkpt>
      <trkpt lat="43.5853" lon="6.41455">
        <ele>608.9</ele>
        <time>2026-02-22T12:40:15Z</time>
      </trkpt>
      <trkpt lat="43.58531" lon="6.41455">
        <ele>608.9</ele>
        <time>2026-02-22T12:40:16Z</time>
      </trkpt>
      <trkpt lat="43.58531" lon="6.41456">
        <ele>608.8</ele>
        <time>2026-02-22T12:40:17Z</time>
      </trkpt>
      <trkpt lat="43.58532" lon="6.41456">
        <ele>608.7</ele>
        <time>2026-02-22T12:40:18Z</time>
      </trkpt>
      <trkpt lat="43.58532" lon="6.41457">
        <ele>608.7</ele>
        <time>2026-02-22T12:40:19Z</time>
      </trkpt>
      <trkpt lat="43.58533" lon="6.41457">
        <ele>608.6</ele>
        <time>2026-02-22T12:40:20Z</time>
      </trkpt>
      <trkpt lat="43.58533" lon="6.41457">
        <ele>608.5</ele>
        <time>2026-02-22T12:40:21Z</time>
      </trkpt>
      <trkpt lat="43.58534" lon="6.41458">
        <ele>608.4</ele>
        <time>2026-02-22T12:40:22Z</time>
      </trkpt>
      <trkpt lat="43.58534" lon="6.41458">
        <ele>608.4</ele>
        <time>2026-02-22T12:40:23Z</time>
      </trkpt>
      <trkpt lat="43.58535" lon="6.41459">
        <ele>608.2</ele>
        <time>2026-02-22T12:40:24Z</time>
      </trkpt>
      <trkpt lat="43.58535" lon="6.4146">
        <ele>608</ele>
        <time>2026-02-22T12:40:25Z</time>
      </trkpt>
      <trkpt lat="43.58536" lon="6.4146">
        <ele>607.9</ele>
        <time>2026-02-22T12:40:26Z</time>
      </trkpt>
      <trkpt lat="43.58536" lon="6.41461">
        <ele>607.8</ele>
        <time>2026-02-22T12:40:27Z</time>
      </trkpt>
      <trkpt lat="43.58536" lon="6.41462">
        <ele>607.8</ele>
        <time>2026-02-22T12:40:28Z</time>
      </trkpt>
      <trkpt lat="43.58536" lon="6.41463">
        <ele>607.7</ele>
        <time>2026-02-22T12:40:29Z</time>
      </trkpt>
      <trkpt lat="43.58537" lon="6.41464">
        <ele>607.7</ele>
        <time>2026-02-22T12:40:30Z</time>
      </trkpt>
      <trkpt lat="43.58537" lon="6.41465">
        <ele>607.7</ele>
        <time>2026-02-22T12:40:31Z</time>
      </trkpt>
      <trkpt lat="43.58537" lon="6.41466">
        <ele>607.7</ele>
        <time>2026-02-22T12:40:32Z</time>
      </trkpt>
      <trkpt lat="43.58537" lon="6.41467">
        <ele>607.7</ele>
        <time>2026-02-22T12:40:33Z</time>
      </trkpt>
      <trkpt lat="43.58537" lon="6.41468">
        <ele>607.6</ele>
        <time>2026-02-22T12:40:34Z</time>
      </trkpt>
      <trkpt lat="43.58537" lon="6.41469">
        <ele>607.6</ele>
        <time>2026-02-22T12:40:35Z</time>
      </trkpt>
      <trkpt lat="43.58537" lon="6.4147">
        <ele>607.5</ele>
        <time>2026-02-22T12:40:36Z</time>
      </trkpt>
      <trkpt lat="43.58537" lon="6.41471">
        <ele>607.4</ele>
        <time>2026-02-22T12:40:37Z</time>
      </trkpt>
      <trkpt lat="43.58538" lon="6.41472">
        <ele>607.2</ele>
        <time>2026-02-22T12:40:38Z</time>
      </trkpt>
      <trkpt lat="43.58538" lon="6.41473">
        <ele>607.2</ele>
        <time>2026-02-22T12:40:39Z</time>
      </trkpt>
      <trkpt lat="43.58537" lon="6.41474">
        <ele>607.3</ele>
        <time>2026-02-22T12:40:40Z</time>
      </trkpt>
      <trkpt lat="43.58537" lon="6.41475">
        <ele>607.3</ele>
        <time>2026-02-22T12:40:41Z</time>
      </trkpt>
      <trkpt lat="43.58537" lon="6.41476">
        <ele>607.2</ele>
        <time>2026-02-22T12:40:42Z</time>
      </trkpt>
      <trkpt lat="43.58537" lon="6.41477">
        <ele>607.2</ele>
        <time>2026-02-22T12:40:43Z</time>
      </trkpt>
      <trkpt lat="43.58537" lon="6.41477">
        <ele>607.2</ele>
        <time>2026-02-22T12:40:44Z</time>
      </trkpt>
      <trkpt lat="43.58537" lon="6.41478">
        <ele>607.2</ele>
        <time>2026-02-22T12:40:45Z</time>
      </trkpt>
      <trkpt lat="43.58537" lon="6.41479">
        <ele>607.1</ele>
        <time>2026-02-22T12:40:46Z</time>
      </trkpt>
      <trkpt lat="43.58537" lon="6.41479">
        <ele>607.2</ele>
        <time>2026-02-22T12:40:47Z</time>
      </trkpt>
      <trkpt lat="43.58536" lon="6.4148">
        <ele>607.3</ele>
        <time>2026-02-22T12:40:48Z</time>
      </trkpt>
      <trkpt lat="43.58536" lon="6.4148">
        <ele>607.3</ele>
        <time>2026-02-22T12:40:49Z</time>
      </trkpt>
      <trkpt lat="43.58536" lon="6.41481">
        <ele>607.5</ele>
        <time>2026-02-22T12:40:50Z</time>
      </trkpt>
      <trkpt lat="43.58536" lon="6.41482">
        <ele>607.4</ele>
        <time>2026-02-22T12:40:51Z</time>
      </trkpt>
      <trkpt lat="43.58536" lon="6.41483">
        <ele>607.5</ele>
        <time>2026-02-22T12:40:52Z</time>
      </trkpt>
      <trkpt lat="43.58536" lon="6.41484">
        <ele>607.5</ele>
        <time>2026-02-22T12:40:53Z</time>
      </trkpt>
      <trkpt lat="43.58536" lon="6.41485">
        <ele>607.4</ele>
        <time>2026-02-22T12:40:54Z</time>
      </trkpt>
      <trkpt lat="43.58535" lon="6.41485">
        <ele>607.3</ele>
        <time>2026-02-22T12:40:55Z</time>
      </trkpt>
      <trkpt lat="43.58535" lon="6.41486">
        <ele>607.5</ele>
        <time>2026-02-22T12:40:56Z</time>
      </trkpt>
      <trkpt lat="43.58535" lon="6.41487">
        <ele>607.5</ele>
        <time>2026-02-22T12:40:57Z</time>
      </trkpt>
      <trkpt lat="43.58535" lon="6.41488">
        <ele>607.6</ele>
        <time>2026-02-22T12:40:58Z</time>
      </trkpt>
      <trkpt lat="43.58535" lon="6.41489">
        <ele>607.6</ele>
        <time>2026-02-22T12:40:59Z</time>
      </trkpt>
      <trkpt lat="43.58534" lon="6.4149">
        <ele>607.6</ele>
        <time>2026-02-22T12:41:00Z</time>
      </trkpt>
      <trkpt lat="43.58534" lon="6.41491">
        <ele>607.6</ele>
        <time>2026-02-22T12:41:01Z</time>
      </trkpt>
      <trkpt lat="43.58533" lon="6.41491">
        <ele>607.6</ele>
        <time>2026-02-22T12:41:02Z</time>
      </trkpt>
      <trkpt lat="43.58532" lon="6.41491">
        <ele>607.6</ele>
        <time>2026-02-22T12:41:03Z</time>
      </trkpt>
      <trkpt lat="43.58532" lon="6.41491">
        <ele>607.5</ele>
        <time>2026-02-22T12:41:04Z</time>
      </trkpt>
      <trkpt lat="43.58531" lon="6.41492">
        <ele>607.5</ele>
        <time>2026-02-22T12:41:05Z</time>
      </trkpt>
      <trkpt lat="43.5853" lon="6.41493">
        <ele>607.6</ele>
        <time>2026-02-22T12:41:06Z</time>
      </trkpt>
      <trkpt lat="43.5853" lon="6.41494">
        <ele>607.5</ele>
        <time>2026-02-22T12:41:07Z</time>
      </trkpt>
      <trkpt lat="43.5853" lon="6.41495">
        <ele>607.4</ele>
        <time>2026-02-22T12:41:08Z</time>
      </trkpt>
      <trkpt lat="43.58529" lon="6.41495">
        <ele>607.4</ele>
        <time>2026-02-22T12:41:09Z</time>
      </trkpt>
      <trkpt lat="43.58529" lon="6.41496">
        <ele>607.3</ele>
        <time>2026-02-22T12:41:10Z</time>
      </trkpt>
      <trkpt lat="43.58528" lon="6.41498">
        <ele>607.3</ele>
        <time>2026-02-22T12:41:11Z</time>
      </trkpt>
      <trkpt lat="43.58528" lon="6.41498">
        <ele>607.4</ele>
        <time>2026-02-22T12:41:12Z</time>
      </trkpt>
      <trkpt lat="43.58527" lon="6.415">
        <ele>607.4</ele>
        <time>2026-02-22T12:41:13Z</time>
      </trkpt>
      <trkpt lat="43.58527" lon="6.41501">
        <ele>607.5</ele>
        <time>2026-02-22T12:41:14Z</time>
      </trkpt>
      <trkpt lat="43.58527" lon="6.41503">
        <ele>607.5</ele>
        <time>2026-02-22T12:41:15Z</time>
      </trkpt>
      <trkpt lat="43.58527" lon="6.41504">
        <ele>607.5</ele>
        <time>2026-02-22T12:41:16Z</time>
      </trkpt>
      <trkpt lat="43.58527" lon="6.41505">
        <ele>607.6</ele>
        <time>2026-02-22T12:41:17Z</time>
      </trkpt>
      <trkpt lat="43.58527" lon="6.41506">
        <ele>607.7</ele>
        <time>2026-02-22T12:41:18Z</time>
      </trkpt>
      <trkpt lat="43.58528" lon="6.41507">
        <ele>607.7</ele>
        <time>2026-02-22T12:41:19Z</time>
      </trkpt>
      <trkpt lat="43.58528" lon="6.41507">
        <ele>607.7</ele>
        <time>2026-02-22T12:41:20Z</time>
      </trkpt>
      <trkpt lat="43.58528" lon="6.41507">
        <ele>607.8</ele>
        <time>2026-02-22T12:41:21Z</time>
      </trkpt>
      <trkpt lat="43.58528" lon="6.41508">
        <ele>607.8</ele>
        <time>2026-02-22T12:41:22Z</time>
      </trkpt>
      <trkpt lat="43.58528" lon="6.41508">
        <ele>607.8</ele>
        <time>2026-02-22T12:41:23Z</time>
      </trkpt>
      <trkpt lat="43.58528" lon="6.41508">
        <ele>607.8</ele>
        <time>2026-02-22T12:41:24Z</time>
      </trkpt>
      <trkpt lat="43.58529" lon="6.41508">
        <ele>607.9</ele>
        <time>2026-02-22T12:41:25Z</time>
      </trkpt>
      <trkpt lat="43.58529" lon="6.41508">
        <ele>607.9</ele>
        <time>2026-02-22T12:41:26Z</time>
      </trkpt>
      <trkpt lat="43.58529" lon="6.41508">
        <ele>608</ele>
        <time>2026-02-22T12:41:27Z</time>
      </trkpt>
      <trkpt lat="43.58529" lon="6.41508">
        <ele>608</ele>
        <time>2026-02-22T12:41:28Z</time>
      </trkpt>
      <trkpt lat="43.58529" lon="6.41508">
        <ele>608.1</ele>
        <time>2026-02-22T12:41:29Z</time>
      </trkpt>
      <trkpt lat="43.58529" lon="6.41509">
        <ele>608.2</ele>
        <time>2026-02-22T12:41:30Z</time>
      </trkpt>
      <trkpt lat="43.5853" lon="6.41509">
        <ele>608.2</ele>
        <time>2026-02-22T12:41:31Z</time>
      </trkpt>
      <trkpt lat="43.5853" lon="6.41509">
        <ele>608.1</ele>
        <time>2026-02-22T12:41:32Z</time>
      </trkpt>
      <trkpt lat="43.5853" lon="6.41509">
        <ele>608</ele>
        <time>2026-02-22T12:41:33Z</time>
      </trkpt>
      <trkpt lat="43.5853" lon="6.4151">
        <ele>608</ele>
        <time>2026-02-22T12:41:34Z</time>
      </trkpt>
      <trkpt lat="43.58529" lon="6.4151">
        <ele>608</ele>
        <time>2026-02-22T12:41:35Z</time>
      </trkpt>
      <trkpt lat="43.58529" lon="6.41511">
        <ele>608.1</ele>
        <time>2026-02-22T12:41:36Z</time>
      </trkpt>
      <trkpt lat="43.58528" lon="6.41512">
        <ele>608.2</ele>
        <time>2026-02-22T12:41:37Z</time>
      </trkpt>
      <trkpt lat="43.58528" lon="6.41513">
        <ele>608.3</ele>
        <time>2026-02-22T12:41:38Z</time>
      </trkpt>
      <trkpt lat="43.58527" lon="6.41514">
        <ele>608.3</ele>
        <time>2026-02-22T12:41:39Z</time>
      </trkpt>
      <trkpt lat="43.58527" lon="6.41515">
        <ele>608.5</ele>
        <time>2026-02-22T12:41:40Z</time>
      </trkpt>
      <trkpt lat="43.58527" lon="6.41516">
        <ele>608.6</ele>
        <time>2026-02-22T12:41:41Z</time>
      </trkpt>
      <trkpt lat="43.58527" lon="6.41517">
        <ele>608.7</ele>
        <time>2026-02-22T12:41:42Z</time>
      </trkpt>
      <trkpt lat="43.58527" lon="6.41518">
        <ele>608.7</ele>
        <time>2026-02-22T12:41:43Z</time>
      </trkpt>
      <trkpt lat="43.58526" lon="6.41519">
        <ele>608.8</ele>
        <time>2026-02-22T12:41:44Z</time>
      </trkpt>
      <trkpt lat="43.58526" lon="6.4152">
        <ele>609</ele>
        <time>2026-02-22T12:41:45Z</time>
      </trkpt>
      <trkpt lat="43.58525" lon="6.4152">
        <ele>609.2</ele>
        <time>2026-02-22T12:41:46Z</time>
      </trkpt>
      <trkpt lat="43.58525" lon="6.41521">
        <ele>609.4</ele>
        <time>2026-02-22T12:41:47Z</time>
      </trkpt>
      <trkpt lat="43.58524" lon="6.41521">
        <ele>609.5</ele>
        <time>2026-02-22T12:41:48Z</time>
      </trkpt>
      <trkpt lat="43.58523" lon="6.41522">
        <ele>609.6</ele>
        <time>2026-02-22T12:41:49Z</time>
      </trkpt>
      <trkpt lat="43.58523" lon="6.41523">
        <ele>609.7</ele>
        <time>2026-02-22T12:41:50Z</time>
      </trkpt>
      <trkpt lat="43.58522" lon="6.41523">
        <ele>609.7</ele>
        <time>2026-02-22T12:41:51Z</time>
      </trkpt>
      <trkpt lat="43.58522" lon="6.41524">
        <ele>609.7</ele>
        <time>2026-02-22T12:41:52Z</time>
      </trkpt>
      <trkpt lat="43.58521" lon="6.41525">
        <ele>609.9</ele>
        <time>2026-02-22T12:41:53Z</time>
      </trkpt>
      <trkpt lat="43.58521" lon="6.41525">
        <ele>609.9</ele>
        <time>2026-02-22T12:41:54Z</time>
      </trkpt>
      <trkpt lat="43.5852" lon="6.41526">
        <ele>609.9</ele>
        <time>2026-02-22T12:41:55Z</time>
      </trkpt>
      <trkpt lat="43.5852" lon="6.41527">
        <ele>609.9</ele>
        <time>2026-02-22T12:41:56Z</time>
      </trkpt>
      <trkpt lat="43.58519" lon="6.41529">
        <ele>609.9</ele>
        <time>2026-02-22T12:41:57Z</time>
      </trkpt>
      <trkpt lat="43.58519" lon="6.4153">
        <ele>609.8</ele>
        <time>2026-02-22T12:41:58Z</time>
      </trkpt>
      <trkpt lat="43.58519" lon="6.4153">
        <ele>609.9</ele>
        <time>2026-02-22T12:41:59Z</time>
      </trkpt>
      <trkpt lat="43.58519" lon="6.41531">
        <ele>609.9</ele>
        <time>2026-02-22T12:42:00Z</time>
      </trkpt>
      <trkpt lat="43.58519" lon="6.41531">
        <ele>609.9</ele>
        <time>2026-02-22T12:42:01Z</time>
      </trkpt>
      <trkpt lat="43.58518" lon="6.41531">
        <ele>609.9</ele>
        <time>2026-02-22T12:42:02Z</time>
      </trkpt>
      <trkpt lat="43.58517" lon="6.41531">
        <ele>609.9</ele>
        <time>2026-02-22T12:42:03Z</time>
      </trkpt>
      <trkpt lat="43.58517" lon="6.41532">
        <ele>610</ele>
        <time>2026-02-22T12:42:04Z</time>
      </trkpt>
      <trkpt lat="43.58517" lon="6.41533">
        <ele>610</ele>
        <time>2026-02-22T12:42:05Z</time>
      </trkpt>
      <trkpt lat="43.58516" lon="6.41534">
        <ele>610</ele>
        <time>2026-02-22T12:42:06Z</time>
      </trkpt>
      <trkpt lat="43.58516" lon="6.41535">
        <ele>610</ele>
        <time>2026-02-22T12:42:07Z</time>
      </trkpt>
      <trkpt lat="43.58515" lon="6.41535">
        <ele>610</ele>
        <time>2026-02-22T12:42:08Z</time>
      </trkpt>
      <trkpt lat="43.58515" lon="6.41536">
        <ele>610</ele>
        <time>2026-02-22T12:42:09Z</time>
      </trkpt>
      <trkpt lat="43.58514" lon="6.41537">
        <ele>610</ele>
        <time>2026-02-22T12:42:10Z</time>
      </trkpt>
      <trkpt lat="43.58514" lon="6.41538">
        <ele>609.9</ele>
        <time>2026-02-22T12:42:11Z</time>
      </trkpt>
      <trkpt lat="43.58513" lon="6.4154">
        <ele>609.9</ele>
        <time>2026-02-22T12:42:12Z</time>
      </trkpt>
      <trkpt lat="43.58513" lon="6.41541">
        <ele>609.9</ele>
        <time>2026-02-22T12:42:13Z</time>
      </trkpt>
      <trkpt lat="43.58514" lon="6.41542">
        <ele>609.8</ele>
        <time>2026-02-22T12:42:14Z</time>
      </trkpt>
      <trkpt lat="43.58514" lon="6.41543">
        <ele>609.7</ele>
        <time>2026-02-22T12:42:15Z</time>
      </trkpt>
      <trkpt lat="43.58514" lon="6.41543">
        <ele>609.6</ele>
        <time>2026-02-22T12:42:16Z</time>
      </trkpt>
      <trkpt lat="43.58514" lon="6.41543">
        <ele>609.6</ele>
        <time>2026-02-22T12:42:17Z</time>
      </trkpt>
      <trkpt lat="43.58515" lon="6.41543">
        <ele>609.7</ele>
        <time>2026-02-22T12:42:18Z</time>
      </trkpt>
      <trkpt lat="43.58515" lon="6.41544">
        <ele>609.7</ele>
        <time>2026-02-22T12:42:19Z</time>
      </trkpt>
      <trkpt lat="43.58514" lon="6.41544">
        <ele>609.8</ele>
        <time>2026-02-22T12:42:20Z</time>
      </trkpt>
      <trkpt lat="43.58515" lon="6.41544">
        <ele>609.8</ele>
        <time>2026-02-22T12:42:21Z</time>
      </trkpt>
      <trkpt lat="43.58515" lon="6.41545">
        <ele>609.8</ele>
        <time>2026-02-22T12:42:22Z</time>
      </trkpt>
      <trkpt lat="43.58515" lon="6.41546">
        <ele>609.8</ele>
        <time>2026-02-22T12:42:23Z</time>
      </trkpt>
      <trkpt lat="43.58515" lon="6.41546">
        <ele>609.8</ele>
        <time>2026-02-22T12:42:24Z</time>
      </trkpt>
      <trkpt lat="43.58515" lon="6.41546">
        <ele>609.7</ele>
        <time>2026-02-22T12:42:25Z</time>
      </trkpt>
      <trkpt lat="43.58515" lon="6.41546">
        <ele>609.7</ele>
        <time>2026-02-22T12:42:26Z</time>
      </trkpt>
      <trkpt lat="43.58515" lon="6.41546">
        <ele>609.7</ele>
        <time>2026-02-22T12:42:27Z</time>
      </trkpt>
      <trkpt lat="43.58515" lon="6.41547">
        <ele>609.7</ele>
        <time>2026-02-22T12:42:28Z</time>
      </trkpt>
      <trkpt lat="43.58516" lon="6.41548">
        <ele>609.7</ele>
        <time>2026-02-22T12:42:29Z</time>
      </trkpt>
      <trkpt lat="43.58516" lon="6.41548">
        <ele>609.6</ele>
        <time>2026-02-22T12:42:30Z</time>
      </trkpt>
      <trkpt lat="43.58515" lon="6.41549">
        <ele>609.7</ele>
        <time>2026-02-22T12:42:31Z</time>
      </trkpt>
      <trkpt lat="43.58515" lon="6.41549">
        <ele>609.7</ele>
        <time>2026-02-22T12:42:32Z</time>
      </trkpt>
      <trkpt lat="43.58515" lon="6.4155">
        <ele>609.7</ele>
        <time>2026-02-22T12:42:33Z</time>
      </trkpt>
      <trkpt lat="43.58515" lon="6.4155">
        <ele>609.8</ele>
        <time>2026-02-22T12:42:34Z</time>
      </trkpt>
      <trkpt lat="43.58514" lon="6.4155">
        <ele>609.8</ele>
        <time>2026-02-22T12:42:35Z</time>
      </trkpt>
      <trkpt lat="43.58514" lon="6.4155">
        <ele>609.8</ele>
        <time>2026-02-22T12:42:36Z</time>
      </trkpt>
      <trkpt lat="43.58513" lon="6.41551">
        <ele>609.7</ele>
        <time>2026-02-22T12:42:37Z</time>
      </trkpt>
      <trkpt lat="43.58513" lon="6.41551">
        <ele>609.7</ele>
        <time>2026-02-22T12:42:38Z</time>
      </trkpt>
      <trkpt lat="43.58513" lon="6.41552">
        <ele>609.6</ele>
        <time>2026-02-22T12:42:39Z</time>
      </trkpt>
      <trkpt lat="43.58513" lon="6.41553">
        <ele>609.6</ele>
        <time>2026-02-22T12:42:40Z</time>
      </trkpt>
      <trkpt lat="43.58512" lon="6.41554">
        <ele>609.6</ele>
        <time>2026-02-22T12:42:41Z</time>
      </trkpt>
      <trkpt lat="43.58512" lon="6.41555">
        <ele>609.6</ele>
        <time>2026-02-22T12:42:42Z</time>
      </trkpt>
      <trkpt lat="43.58511" lon="6.41555">
        <ele>609.6</ele>
        <time>2026-02-22T12:42:43Z</time>
      </trkpt>
      <trkpt lat="43.58511" lon="6.41556">
        <ele>609.5</ele>
        <time>2026-02-22T12:42:44Z</time>
      </trkpt>
      <trkpt lat="43.58511" lon="6.41557">
        <ele>609.5</ele>
        <time>2026-02-22T12:42:45Z</time>
      </trkpt>
      <trkpt lat="43.5851" lon="6.41558">
        <ele>609.4</ele>
        <time>2026-02-22T12:42:46Z</time>
      </trkpt>
      <trkpt lat="43.5851" lon="6.41558">
        <ele>609.5</ele>
        <time>2026-02-22T12:42:47Z</time>
      </trkpt>
      <trkpt lat="43.58509" lon="6.41559">
        <ele>609.5</ele>
        <time>2026-02-22T12:42:48Z</time>
      </trkpt>
      <trkpt lat="43.58508" lon="6.41559">
        <ele>609.5</ele>
        <time>2026-02-22T12:42:49Z</time>
      </trkpt>
      <trkpt lat="43.58508" lon="6.41559">
        <ele>609.5</ele>
        <time>2026-02-22T12:42:50Z</time>
      </trkpt>
      <trkpt lat="43.58507" lon="6.4156">
        <ele>609.6</ele>
        <time>2026-02-22T12:42:51Z</time>
      </trkpt>
      <trkpt lat="43.58507" lon="6.41561">
        <ele>609.4</ele>
        <time>2026-02-22T12:42:52Z</time>
      </trkpt>
      <trkpt lat="43.58506" lon="6.41562">
        <ele>609.4</ele>
        <time>2026-02-22T12:42:53Z</time>
      </trkpt>
      <trkpt lat="43.58506" lon="6.41562">
        <ele>609.5</ele>
        <time>2026-02-22T12:42:54Z</time>
      </trkpt>
      <trkpt lat="43.58505" lon="6.41563">
        <ele>609.4</ele>
        <time>2026-02-22T12:42:55Z</time>
      </trkpt>
      <trkpt lat="43.58505" lon="6.41564">
        <ele>609.4</ele>
        <time>2026-02-22T12:42:56Z</time>
      </trkpt>
      <trkpt lat="43.58504" lon="6.41565">
        <ele>609.4</ele>
        <time>2026-02-22T12:42:57Z</time>
      </trkpt>
      <trkpt lat="43.58504" lon="6.41566">
        <ele>609.4</ele>
        <time>2026-02-22T12:42:58Z</time>
      </trkpt>
      <trkpt lat="43.58504" lon="6.41567">
        <ele>609.4</ele>
        <time>2026-02-22T12:42:59Z</time>
      </trkpt>
      <trkpt lat="43.58504" lon="6.41568">
        <ele>609.3</ele>
        <time>2026-02-22T12:43:00Z</time>
      </trkpt>
      <trkpt lat="43.58503" lon="6.41568">
        <ele>609.4</ele>
        <time>2026-02-22T12:43:01Z</time>
      </trkpt>
      <trkpt lat="43.58503" lon="6.41569">
        <ele>609.3</ele>
        <time>2026-02-22T12:43:02Z</time>
      </trkpt>
      <trkpt lat="43.58503" lon="6.41569">
        <ele>609.4</ele>
        <time>2026-02-22T12:43:03Z</time>
      </trkpt>
      <trkpt lat="43.58503" lon="6.41569">
        <ele>609.4</ele>
        <time>2026-02-22T12:43:04Z</time>
      </trkpt>
      <trkpt lat="43.58503" lon="6.4157">
        <ele>609.4</ele>
        <time>2026-02-22T12:43:05Z</time>
      </trkpt>
      <trkpt lat="43.58502" lon="6.4157">
        <ele>609.4</ele>
        <time>2026-02-22T12:43:06Z</time>
      </trkpt>
      <trkpt lat="43.58502" lon="6.41571">
        <ele>609.4</ele>
        <time>2026-02-22T12:43:07Z</time>
      </trkpt>
      <trkpt lat="43.58502" lon="6.41572">
        <ele>609.4</ele>
        <time>2026-02-22T12:43:08Z</time>
      </trkpt>
      <trkpt lat="43.58502" lon="6.41572">
        <ele>609.4</ele>
        <time>2026-02-22T12:43:09Z</time>
      </trkpt>
      <trkpt lat="43.58502" lon="6.41573">
        <ele>609.4</ele>
        <time>2026-02-22T12:43:10Z</time>
      </trkpt>
      <trkpt lat="43.58502" lon="6.41574">
        <ele>609.3</ele>
        <time>2026-02-22T12:43:11Z</time>
      </trkpt>
      <trkpt lat="43.58501" lon="6.41575">
        <ele>609.2</ele>
        <time>2026-02-22T12:43:12Z</time>
      </trkpt>
      <trkpt lat="43.58501" lon="6.41576">
        <ele>609.2</ele>
        <time>2026-02-22T12:43:13Z</time>
      </trkpt>
      <trkpt lat="43.585" lon="6.41576">
        <ele>609.1</ele>
        <time>2026-02-22T12:43:14Z</time>
      </trkpt>
      <trkpt lat="43.585" lon="6.41577">
        <ele>609</ele>
        <time>2026-02-22T12:43:15Z</time>
      </trkpt>
      <trkpt lat="43.58499" lon="6.41578">
        <ele>608.9</ele>
        <time>2026-02-22T12:43:16Z</time>
      </trkpt>
      <trkpt lat="43.58498" lon="6.41579">
        <ele>608.9</ele>
        <time>2026-02-22T12:43:17Z</time>
      </trkpt>
      <trkpt lat="43.58498" lon="6.41579">
        <ele>608.8</ele>
        <time>2026-02-22T12:43:18Z</time>
      </trkpt>
      <trkpt lat="43.58498" lon="6.4158">
        <ele>608.7</ele>
        <time>2026-02-22T12:43:19Z</time>
      </trkpt>
      <trkpt lat="43.58498" lon="6.41581">
        <ele>608.7</ele>
        <time>2026-02-22T12:43:20Z</time>
      </trkpt>
      <trkpt lat="43.58498" lon="6.41582">
        <ele>608.6</ele>
        <time>2026-02-22T12:43:21Z</time>
      </trkpt>
      <trkpt lat="43.58498" lon="6.41582">
        <ele>608.5</ele>
        <time>2026-02-22T12:43:22Z</time>
      </trkpt>
      <trkpt lat="43.58498" lon="6.41582">
        <ele>608.5</ele>
        <time>2026-02-22T12:43:23Z</time>
      </trkpt>
      <trkpt lat="43.58498" lon="6.41583">
        <ele>608.5</ele>
        <time>2026-02-22T12:43:24Z</time>
      </trkpt>
      <trkpt lat="43.58498" lon="6.41584">
        <ele>608.5</ele>
        <time>2026-02-22T12:43:25Z</time>
      </trkpt>
      <trkpt lat="43.58497" lon="6.41585">
        <ele>608.5</ele>
        <time>2026-02-22T12:43:26Z</time>
      </trkpt>
      <trkpt lat="43.58497" lon="6.41586">
        <ele>608.5</ele>
        <time>2026-02-22T12:43:27Z</time>
      </trkpt>
      <trkpt lat="43.58496" lon="6.41587">
        <ele>608.5</ele>
        <time>2026-02-22T12:43:28Z</time>
      </trkpt>
      <trkpt lat="43.58496" lon="6.41588">
        <ele>608.6</ele>
        <time>2026-02-22T12:43:29Z</time>
      </trkpt>
      <trkpt lat="43.58496" lon="6.41589">
        <ele>608.6</ele>
        <time>2026-02-22T12:43:30Z</time>
      </trkpt>
      <trkpt lat="43.58496" lon="6.4159">
        <ele>608.5</ele>
        <time>2026-02-22T12:43:31Z</time>
      </trkpt>
      <trkpt lat="43.58496" lon="6.41591">
        <ele>608.5</ele>
        <time>2026-02-22T12:43:32Z</time>
      </trkpt>
      <trkpt lat="43.58496" lon="6.41592">
        <ele>608.4</ele>
        <time>2026-02-22T12:43:33Z</time>
      </trkpt>
      <trkpt lat="43.58496" lon="6.41593">
        <ele>608.3</ele>
        <time>2026-02-22T12:43:34Z</time>
      </trkpt>
      <trkpt lat="43.58495" lon="6.41594">
        <ele>608.3</ele>
        <time>2026-02-22T12:43:35Z</time>
      </trkpt>
      <trkpt lat="43.58495" lon="6.41595">
        <ele>608.3</ele>
        <time>2026-02-22T12:43:36Z</time>
      </trkpt>
      <trkpt lat="43.58495" lon="6.41596">
        <ele>608.2</ele>
        <time>2026-02-22T12:43:37Z</time>
      </trkpt>
      <trkpt lat="43.58495" lon="6.41596">
        <ele>608.2</ele>
        <time>2026-02-22T12:43:38Z</time>
      </trkpt>
      <trkpt lat="43.58495" lon="6.41597">
        <ele>608.2</ele>
        <time>2026-02-22T12:43:39Z</time>
      </trkpt>
      <trkpt lat="43.58496" lon="6.41598">
        <ele>608.1</ele>
        <time>2026-02-22T12:43:40Z</time>
      </trkpt>
      <trkpt lat="43.58496" lon="6.41599">
        <ele>608.2</ele>
        <time>2026-02-22T12:43:41Z</time>
      </trkpt>
      <trkpt lat="43.58496" lon="6.41599">
        <ele>608.2</ele>
        <time>2026-02-22T12:43:42Z</time>
      </trkpt>
      <trkpt lat="43.58496" lon="6.416">
        <ele>608.3</ele>
        <time>2026-02-22T12:43:43Z</time>
      </trkpt>
      <trkpt lat="43.58496" lon="6.41601">
        <ele>608.4</ele>
        <time>2026-02-22T12:43:44Z</time>
      </trkpt>
      <trkpt lat="43.58496" lon="6.41601">
        <ele>608.5</ele>
        <time>2026-02-22T12:43:45Z</time>
      </trkpt>
      <trkpt lat="43.58496" lon="6.41602">
        <ele>608.5</ele>
        <time>2026-02-22T12:43:46Z</time>
      </trkpt>
      <trkpt lat="43.58495" lon="6.41602">
        <ele>608.5</ele>
        <time>2026-02-22T12:43:47Z</time>
      </trkpt>
      <trkpt lat="43.58495" lon="6.41602">
        <ele>608.5</ele>
        <time>2026-02-22T12:43:48Z</time>
      </trkpt>
      <trkpt lat="43.58495" lon="6.41603">
        <ele>608.5</ele>
        <time>2026-02-22T12:43:49Z</time>
      </trkpt>
      <trkpt lat="43.58495" lon="6.41603">
        <ele>608.5</ele>
        <time>2026-02-22T12:43:50Z</time>
      </trkpt>
      <trkpt lat="43.58494" lon="6.41603">
        <ele>608.5</ele>
        <time>2026-02-22T12:43:51Z</time>
      </trkpt>
      <trkpt lat="43.58494" lon="6.41604">
        <ele>608.5</ele>
        <time>2026-02-22T12:43:52Z</time>
      </trkpt>
      <trkpt lat="43.58493" lon="6.41604">
        <ele>608.5</ele>
        <time>2026-02-22T12:43:53Z</time>
      </trkpt>
      <trkpt lat="43.58492" lon="6.41605">
        <ele>608.6</ele>
        <time>2026-02-22T12:43:54Z</time>
      </trkpt>
      <trkpt lat="43.58492" lon="6.41606">
        <ele>608.5</ele>
        <time>2026-02-22T12:43:55Z</time>
      </trkpt>
      <trkpt lat="43.58491" lon="6.41607">
        <ele>608.4</ele>
        <time>2026-02-22T12:43:56Z</time>
      </trkpt>
      <trkpt lat="43.58491" lon="6.41608">
        <ele>608.4</ele>
        <time>2026-02-22T12:43:57Z</time>
      </trkpt>
      <trkpt lat="43.58491" lon="6.41609">
        <ele>608.4</ele>
        <time>2026-02-22T12:43:58Z</time>
      </trkpt>
      <trkpt lat="43.58491" lon="6.4161">
        <ele>608.4</ele>
        <time>2026-02-22T12:43:59Z</time>
      </trkpt>
      <trkpt lat="43.58491" lon="6.41611">
        <ele>608.4</ele>
        <time>2026-02-22T12:44:00Z</time>
      </trkpt>
      <trkpt lat="43.58491" lon="6.41611">
        <ele>608.3</ele>
        <time>2026-02-22T12:44:01Z</time>
      </trkpt>
      <trkpt lat="43.58491" lon="6.41611">
        <ele>608.3</ele>
        <time>2026-02-22T12:44:02Z</time>
      </trkpt>
      <trkpt lat="43.58491" lon="6.41611">
        <ele>608.4</ele>
        <time>2026-02-22T12:44:03Z</time>
      </trkpt>
      <trkpt lat="43.58491" lon="6.41612">
        <ele>608.4</ele>
        <time>2026-02-22T12:44:04Z</time>
      </trkpt>
      <trkpt lat="43.58491" lon="6.41613">
        <ele>608.4</ele>
        <time>2026-02-22T12:44:05Z</time>
      </trkpt>
      <trkpt lat="43.58491" lon="6.41614">
        <ele>608.4</ele>
        <time>2026-02-22T12:44:06Z</time>
      </trkpt>
      <trkpt lat="43.58491" lon="6.41614">
        <ele>608.5</ele>
        <time>2026-02-22T12:44:07Z</time>
      </trkpt>
      <trkpt lat="43.58491" lon="6.41615">
        <ele>608.5</ele>
        <time>2026-02-22T12:44:08Z</time>
      </trkpt>
      <trkpt lat="43.58491" lon="6.41616">
        <ele>608.5</ele>
        <time>2026-02-22T12:44:09Z</time>
      </trkpt>
      <trkpt lat="43.58491" lon="6.41617">
        <ele>608.5</ele>
        <time>2026-02-22T12:44:10Z</time>
      </trkpt>
      <trkpt lat="43.58491" lon="6.41617">
        <ele>608.4</ele>
        <time>2026-02-22T12:44:11Z</time>
      </trkpt>
      <trkpt lat="43.58492" lon="6.41618">
        <ele>608.5</ele>
        <time>2026-02-22T12:44:12Z</time>
      </trkpt>
      <trkpt lat="43.58492" lon="6.41619">
        <ele>608.5</ele>
        <time>2026-02-22T12:44:13Z</time>
      </trkpt>
      <trkpt lat="43.58493" lon="6.4162">
        <ele>608.5</ele>
        <time>2026-02-22T12:44:14Z</time>
      </trkpt>
      <trkpt lat="43.58493" lon="6.41621">
        <ele>608.4</ele>
        <time>2026-02-22T12:44:15Z</time>
      </trkpt>
      <trkpt lat="43.58493" lon="6.41622">
        <ele>608.4</ele>
        <time>2026-02-22T12:44:16Z</time>
      </trkpt>
      <trkpt lat="43.58494" lon="6.41622">
        <ele>608.5</ele>
        <time>2026-02-22T12:44:17Z</time>
      </trkpt>
      <trkpt lat="43.58494" lon="6.41623">
        <ele>608.5</ele>
        <time>2026-02-22T12:44:18Z</time>
      </trkpt>
      <trkpt lat="43.58494" lon="6.41624">
        <ele>608.6</ele>
        <time>2026-02-22T12:44:19Z</time>
      </trkpt>
      <trkpt lat="43.58495" lon="6.41625">
        <ele>608.6</ele>
        <time>2026-02-22T12:44:20Z</time>
      </trkpt>
      <trkpt lat="43.58495" lon="6.41627">
        <ele>608.7</ele>
        <time>2026-02-22T12:44:21Z</time>
      </trkpt>
      <trkpt lat="43.58494" lon="6.41628">
        <ele>608.7</ele>
        <time>2026-02-22T12:44:22Z</time>
      </trkpt>
      <trkpt lat="43.58494" lon="6.41629">
        <ele>608.6</ele>
        <time>2026-02-22T12:44:23Z</time>
      </trkpt>
      <trkpt lat="43.58494" lon="6.41629">
        <ele>608.6</ele>
        <time>2026-02-22T12:44:24Z</time>
      </trkpt>
      <trkpt lat="43.58493" lon="6.41631">
        <ele>608.6</ele>
        <time>2026-02-22T12:44:25Z</time>
      </trkpt>
      <trkpt lat="43.58493" lon="6.41631">
        <ele>608.7</ele>
        <time>2026-02-22T12:44:26Z</time>
      </trkpt>
      <trkpt lat="43.58493" lon="6.41632">
        <ele>608.7</ele>
        <time>2026-02-22T12:44:27Z</time>
      </trkpt>
      <trkpt lat="43.58493" lon="6.41633">
        <ele>608.6</ele>
        <time>2026-02-22T12:44:28Z</time>
      </trkpt>
      <trkpt lat="43.58493" lon="6.41634">
        <ele>608.6</ele>
        <time>2026-02-22T12:44:29Z</time>
      </trkpt>
      <trkpt lat="43.58493" lon="6.41635">
        <ele>608.6</ele>
        <time>2026-02-22T12:44:30Z</time>
      </trkpt>
      <trkpt lat="43.58493" lon="6.41636">
        <ele>608.7</ele>
        <time>2026-02-22T12:44:31Z</time>
      </trkpt>
      <trkpt lat="43.58493" lon="6.41637">
        <ele>608.7</ele>
        <time>2026-02-22T12:44:32Z</time>
      </trkpt>
      <trkpt lat="43.58493" lon="6.41638">
        <ele>608.6</ele>
        <time>2026-02-22T12:44:33Z</time>
      </trkpt>
      <trkpt lat="43.58493" lon="6.41639">
        <ele>608.5</ele>
        <time>2026-02-22T12:44:34Z</time>
      </trkpt>
      <trkpt lat="43.58493" lon="6.4164">
        <ele>608.5</ele>
        <time>2026-02-22T12:44:35Z</time>
      </trkpt>
      <trkpt lat="43.58493" lon="6.41641">
        <ele>608.3</ele>
        <time>2026-02-22T12:44:36Z</time>
      </trkpt>
      <trkpt lat="43.58493" lon="6.41641">
        <ele>608.3</ele>
        <time>2026-02-22T12:44:37Z</time>
      </trkpt>
      <trkpt lat="43.58493" lon="6.41643">
        <ele>608.3</ele>
        <time>2026-02-22T12:44:38Z</time>
      </trkpt>
      <trkpt lat="43.58493" lon="6.41643">
        <ele>608.3</ele>
        <time>2026-02-22T12:44:39Z</time>
      </trkpt>
      <trkpt lat="43.58492" lon="6.41645">
        <ele>608.3</ele>
        <time>2026-02-22T12:44:40Z</time>
      </trkpt>
      <trkpt lat="43.58492" lon="6.41646">
        <ele>608.3</ele>
        <time>2026-02-22T12:44:41Z</time>
      </trkpt>
      <trkpt lat="43.58492" lon="6.41647">
        <ele>608.3</ele>
        <time>2026-02-22T12:44:42Z</time>
      </trkpt>
      <trkpt lat="43.58492" lon="6.41648">
        <ele>608.3</ele>
        <time>2026-02-22T12:44:43Z</time>
      </trkpt>
      <trkpt lat="43.58492" lon="6.41649">
        <ele>608.3</ele>
        <time>2026-02-22T12:44:44Z</time>
      </trkpt>
      <trkpt lat="43.58492" lon="6.4165">
        <ele>608.3</ele>
        <time>2026-02-22T12:44:45Z</time>
      </trkpt>
      <trkpt lat="43.58492" lon="6.4165">
        <ele>608.3</ele>
        <time>2026-02-22T12:44:46Z</time>
      </trkpt>
      <trkpt lat="43.58493" lon="6.41651">
        <ele>608.4</ele>
        <time>2026-02-22T12:44:47Z</time>
      </trkpt>
      <trkpt lat="43.58493" lon="6.41652">
        <ele>608.3</ele>
        <time>2026-02-22T12:44:48Z</time>
      </trkpt>
      <trkpt lat="43.58493" lon="6.41652">
        <ele>608.3</ele>
        <time>2026-02-22T12:44:49Z</time>
      </trkpt>
      <trkpt lat="43.58493" lon="6.41653">
        <ele>608.3</ele>
        <time>2026-02-22T12:44:50Z</time>
      </trkpt>
      <trkpt lat="43.58494" lon="6.41653">
        <ele>608.2</ele>
        <time>2026-02-22T12:44:51Z</time>
      </trkpt>
      <trkpt lat="43.58494" lon="6.41653">
        <ele>608.2</ele>
        <time>2026-02-22T12:44:52Z</time>
      </trkpt>
      <trkpt lat="43.58494" lon="6.41654">
        <ele>608.1</ele>
        <time>2026-02-22T12:44:53Z</time>
      </trkpt>
      <trkpt lat="43.58494" lon="6.41654">
        <ele>608.1</ele>
        <time>2026-02-22T12:44:54Z</time>
      </trkpt>
      <trkpt lat="43.58494" lon="6.41655">
        <ele>608</ele>
        <time>2026-02-22T12:44:55Z</time>
      </trkpt>
      <trkpt lat="43.58494" lon="6.41655">
        <ele>608</ele>
        <time>2026-02-22T12:44:56Z</time>
      </trkpt>
      <trkpt lat="43.58494" lon="6.41656">
        <ele>608</ele>
        <time>2026-02-22T12:44:57Z</time>
      </trkpt>
      <trkpt lat="43.58494" lon="6.41657">
        <ele>608</ele>
        <time>2026-02-22T12:44:58Z</time>
      </trkpt>
      <trkpt lat="43.58494" lon="6.41658">
        <ele>608</ele>
        <time>2026-02-22T12:44:59Z</time>
      </trkpt>
      <trkpt lat="43.58494" lon="6.41659">
        <ele>608</ele>
        <time>2026-02-22T12:45:00Z</time>
      </trkpt>
      <trkpt lat="43.58494" lon="6.4166">
        <ele>607.9</ele>
        <time>2026-02-22T12:45:01Z</time>
      </trkpt>
      <trkpt lat="43.58493" lon="6.4166">
        <ele>607.8</ele>
        <time>2026-02-22T12:45:02Z</time>
      </trkpt>
      <trkpt lat="43.58493" lon="6.41661">
        <ele>607.8</ele>
        <time>2026-02-22T12:45:03Z</time>
      </trkpt>
      <trkpt lat="43.58493" lon="6.41661">
        <ele>607.8</ele>
        <time>2026-02-22T12:45:04Z</time>
      </trkpt>
      <trkpt lat="43.58493" lon="6.41662">
        <ele>607.8</ele>
        <time>2026-02-22T12:45:05Z</time>
      </trkpt>
      <trkpt lat="43.58493" lon="6.41662">
        <ele>607.8</ele>
        <time>2026-02-22T12:45:06Z</time>
      </trkpt>
      <trkpt lat="43.58492" lon="6.41662">
        <ele>607.9</ele>
        <time>2026-02-22T12:45:07Z</time>
      </trkpt>
      <trkpt lat="43.58492" lon="6.41663">
        <ele>607.9</ele>
        <time>2026-02-22T12:45:08Z</time>
      </trkpt>
      <trkpt lat="43.58492" lon="6.41664">
        <ele>607.8</ele>
        <time>2026-02-22T12:45:09Z</time>
      </trkpt>
      <trkpt lat="43.58492" lon="6.41665">
        <ele>607.8</ele>
        <time>2026-02-22T12:45:10Z</time>
      </trkpt>
      <trkpt lat="43.58491" lon="6.41666">
        <ele>607.7</ele>
        <time>2026-02-22T12:45:11Z</time>
      </trkpt>
      <trkpt lat="43.58491" lon="6.41667">
        <ele>607.7</ele>
        <time>2026-02-22T12:45:12Z</time>
      </trkpt>
      <trkpt lat="43.58492" lon="6.41668">
        <ele>607.6</ele>
        <time>2026-02-22T12:45:13Z</time>
      </trkpt>
      <trkpt lat="43.58492" lon="6.41669">
        <ele>607.6</ele>
        <time>2026-02-22T12:45:14Z</time>
      </trkpt>
      <trkpt lat="43.58492" lon="6.4167">
        <ele>607.5</ele>
        <time>2026-02-22T12:45:15Z</time>
      </trkpt>
      <trkpt lat="43.58493" lon="6.41671">
        <ele>607.5</ele>
        <time>2026-02-22T12:45:16Z</time>
      </trkpt>
      <trkpt lat="43.58493" lon="6.41671">
        <ele>607.5</ele>
        <time>2026-02-22T12:45:17Z</time>
      </trkpt>
      <trkpt lat="43.58493" lon="6.41672">
        <ele>607.4</ele>
        <time>2026-02-22T12:45:18Z</time>
      </trkpt>
      <trkpt lat="43.58493" lon="6.41673">
        <ele>607.3</ele>
        <time>2026-02-22T12:45:19Z</time>
      </trkpt>
      <trkpt lat="43.58493" lon="6.41673">
        <ele>607.3</ele>
        <time>2026-02-22T12:45:20Z</time>
      </trkpt>
      <trkpt lat="43.58492" lon="6.41674">
        <ele>607.2</ele>
        <time>2026-02-22T12:45:21Z</time>
      </trkpt>
      <trkpt lat="43.58492" lon="6.41675">
        <ele>607.1</ele>
        <time>2026-02-22T12:45:22Z</time>
      </trkpt>
      <trkpt lat="43.58492" lon="6.41676">
        <ele>607</ele>
        <time>2026-02-22T12:45:23Z</time>
      </trkpt>
      <trkpt lat="43.58491" lon="6.41676">
        <ele>607</ele>
        <time>2026-02-22T12:45:24Z</time>
      </trkpt>
      <trkpt lat="43.58491" lon="6.41677">
        <ele>606.8</ele>
        <time>2026-02-22T12:45:25Z</time>
      </trkpt>
      <trkpt lat="43.58491" lon="6.41677">
        <ele>606.7</ele>
        <time>2026-02-22T12:45:26Z</time>
      </trkpt>
      <trkpt lat="43.58491" lon="6.41677">
        <ele>606.6</ele>
        <time>2026-02-22T12:45:27Z</time>
      </trkpt>
      <trkpt lat="43.58491" lon="6.41677">
        <ele>606.6</ele>
        <time>2026-02-22T12:45:28Z</time>
      </trkpt>
      <trkpt lat="43.58491" lon="6.41677">
        <ele>606.6</ele>
        <time>2026-02-22T12:45:29Z</time>
      </trkpt>
      <trkpt lat="43.58491" lon="6.41677">
        <ele>606.5</ele>
        <time>2026-02-22T12:45:30Z</time>
      </trkpt>
      <trkpt lat="43.58491" lon="6.41677">
        <ele>606.6</ele>
        <time>2026-02-22T12:45:31Z</time>
      </trkpt>
      <trkpt lat="43.58491" lon="6.41677">
        <ele>606.6</ele>
        <time>2026-02-22T12:45:32Z</time>
      </trkpt>
      <trkpt lat="43.58491" lon="6.41677">
        <ele>606.6</ele>
        <time>2026-02-22T12:45:33Z</time>
      </trkpt>
      <trkpt lat="43.58491" lon="6.41678">
        <ele>606.5</ele>
        <time>2026-02-22T12:45:34Z</time>
      </trkpt>
      <trkpt lat="43.58491" lon="6.41678">
        <ele>606.4</ele>
        <time>2026-02-22T12:45:35Z</time>
      </trkpt>
      <trkpt lat="43.58491" lon="6.41677">
        <ele>606.4</ele>
        <time>2026-02-22T12:45:36Z</time>
      </trkpt>
      <trkpt lat="43.58491" lon="6.41677">
        <ele>606.3</ele>
        <time>2026-02-22T12:45:37Z</time>
      </trkpt>
      <trkpt lat="43.58491" lon="6.41677">
        <ele>606.4</ele>
        <time>2026-02-22T12:45:38Z</time>
      </trkpt>
      <trkpt lat="43.58491" lon="6.41678">
        <ele>606.4</ele>
        <time>2026-02-22T12:45:39Z</time>
      </trkpt>
      <trkpt lat="43.58491" lon="6.41678">
        <ele>606.3</ele>
        <time>2026-02-22T12:45:40Z</time>
      </trkpt>
      <trkpt lat="43.58491" lon="6.41678">
        <ele>606.3</ele>
        <time>2026-02-22T12:45:41Z</time>
      </trkpt>
      <trkpt lat="43.58491" lon="6.41678">
        <ele>606.3</ele>
        <time>2026-02-22T12:45:42Z</time>
      </trkpt>
      <trkpt lat="43.58491" lon="6.41678">
        <ele>606.3</ele>
        <time>2026-02-22T12:45:43Z</time>
      </trkpt>
      <trkpt lat="43.58491" lon="6.41678">
        <ele>606.3</ele>
        <time>2026-02-22T12:45:44Z</time>
      </trkpt>
      <trkpt lat="43.58491" lon="6.41678">
        <ele>606.3</ele>
        <time>2026-02-22T12:45:45Z</time>
      </trkpt>
      <trkpt lat="43.5849" lon="6.41678">
        <ele>606.3</ele>
        <time>2026-02-22T12:45:46Z</time>
      </trkpt>
      <trkpt lat="43.5849" lon="6.41678">
        <ele>606.4</ele>
        <time>2026-02-22T12:45:47Z</time>
      </trkpt>
      <trkpt lat="43.5849" lon="6.41678">
        <ele>606.3</ele>
        <time>2026-02-22T12:45:48Z</time>
      </trkpt>
      <trkpt lat="43.5849" lon="6.41679">
        <ele>606.2</ele>
        <time>2026-02-22T12:45:49Z</time>
      </trkpt>
      <trkpt lat="43.5849" lon="6.41679">
        <ele>606.2</ele>
        <time>2026-02-22T12:45:50Z</time>
      </trkpt>
      <trkpt lat="43.5849" lon="6.41679">
        <ele>606.3</ele>
        <time>2026-02-22T12:45:51Z</time>
      </trkpt>
      <trkpt lat="43.5849" lon="6.41679">
        <ele>606.2</ele>
        <time>2026-02-22T12:45:52Z</time>
      </trkpt>
      <trkpt lat="43.5849" lon="6.41679">
        <ele>606.2</ele>
        <time>2026-02-22T12:45:53Z</time>
      </trkpt>
      <trkpt lat="43.5849" lon="6.41678">
        <ele>606.3</ele>
        <time>2026-02-22T12:45:54Z</time>
      </trkpt>
      <trkpt lat="43.5849" lon="6.41679">
        <ele>606.2</ele>
        <time>2026-02-22T12:45:55Z</time>
      </trkpt>
      <trkpt lat="43.58489" lon="6.41679">
        <ele>606.3</ele>
        <time>2026-02-22T12:45:56Z</time>
      </trkpt>
      <trkpt lat="43.58489" lon="6.41678">
        <ele>606.3</ele>
        <time>2026-02-22T12:45:57Z</time>
      </trkpt>
      <trkpt lat="43.58489" lon="6.41678">
        <ele>606.3</ele>
        <time>2026-02-22T12:45:58Z</time>
      </trkpt>
      <trkpt lat="43.58489" lon="6.41678">
        <ele>606.4</ele>
        <time>2026-02-22T12:45:59Z</time>
      </trkpt>
      <trkpt lat="43.58488" lon="6.41678">
        <ele>606.5</ele>
        <time>2026-02-22T12:46:00Z</time>
      </trkpt>
      <trkpt lat="43.58488" lon="6.41679">
        <ele>606.5</ele>
        <time>2026-02-22T12:46:01Z</time>
      </trkpt>
      <trkpt lat="43.58488" lon="6.41679">
        <ele>606.6</ele>
        <time>2026-02-22T12:46:02Z</time>
      </trkpt>
      <trkpt lat="43.58487" lon="6.4168">
        <ele>606.6</ele>
        <time>2026-02-22T12:46:03Z</time>
      </trkpt>
      <trkpt lat="43.58487" lon="6.41681">
        <ele>606.6</ele>
        <time>2026-02-22T12:46:04Z</time>
      </trkpt>
      <trkpt lat="43.58487" lon="6.41682">
        <ele>606.7</ele>
        <time>2026-02-22T12:46:05Z</time>
      </trkpt>
      <trkpt lat="43.58486" lon="6.41682">
        <ele>606.7</ele>
        <time>2026-02-22T12:46:06Z</time>
      </trkpt>
      <trkpt lat="43.58487" lon="6.41683">
        <ele>606.5</ele>
        <time>2026-02-22T12:46:07Z</time>
      </trkpt>
      <trkpt lat="43.58487" lon="6.41683">
        <ele>606.6</ele>
        <time>2026-02-22T12:46:08Z</time>
      </trkpt>
      <trkpt lat="43.58487" lon="6.41683">
        <ele>606.5</ele>
        <time>2026-02-22T12:46:09Z</time>
      </trkpt>
      <trkpt lat="43.58487" lon="6.41683">
        <ele>606.5</ele>
        <time>2026-02-22T12:46:10Z</time>
      </trkpt>
      <trkpt lat="43.58487" lon="6.41683">
        <ele>606.5</ele>
        <time>2026-02-22T12:46:11Z</time>
      </trkpt>
      <trkpt lat="43.58487" lon="6.41683">
        <ele>606.5</ele>
        <time>2026-02-22T12:46:12Z</time>
      </trkpt>
      <trkpt lat="43.58487" lon="6.41683">
        <ele>606.5</ele>
        <time>2026-02-22T12:46:13Z</time>
      </trkpt>
      <trkpt lat="43.58487" lon="6.41684">
        <ele>606.5</ele>
        <time>2026-02-22T12:46:14Z</time>
      </trkpt>
      <trkpt lat="43.58487" lon="6.41684">
        <ele>606.5</ele>
        <time>2026-02-22T12:46:15Z</time>
      </trkpt>
      <trkpt lat="43.58487" lon="6.41684">
        <ele>606.5</ele>
        <time>2026-02-22T12:46:16Z</time>
      </trkpt>
      <trkpt lat="43.58487" lon="6.41684">
        <ele>606.4</ele>
        <time>2026-02-22T12:46:17Z</time>
      </trkpt>
      <trkpt lat="43.58487" lon="6.41684">
        <ele>606.5</ele>
        <time>2026-02-22T12:46:18Z</time>
      </trkpt>
      <trkpt lat="43.58487" lon="6.41684">
        <ele>606.5</ele>
        <time>2026-02-22T12:46:19Z</time>
      </trkpt>
      <trkpt lat="43.58487" lon="6.41684">
        <ele>606.5</ele>
        <time>2026-02-22T12:46:20Z</time>
      </trkpt>
      <trkpt lat="43.58487" lon="6.41684">
        <ele>606.5</ele>
        <time>2026-02-22T12:46:21Z</time>
      </trkpt>
      <trkpt lat="43.58487" lon="6.41684">
        <ele>606.5</ele>
        <time>2026-02-22T12:46:22Z</time>
      </trkpt>
      <trkpt lat="43.58487" lon="6.41684">
        <ele>606.5</ele>
        <time>2026-02-22T12:46:23Z</time>
      </trkpt>
      <trkpt lat="43.58487" lon="6.41684">
        <ele>606.5</ele>
        <time>2026-02-22T12:46:24Z</time>
      </trkpt>
      <trkpt lat="43.58487" lon="6.41684">
        <ele>606.6</ele>
        <time>2026-02-22T12:46:25Z</time>
      </trkpt>
      <trkpt lat="43.58487" lon="6.41684">
        <ele>606.6</ele>
        <time>2026-02-22T12:46:26Z</time>
      </trkpt>
      <trkpt lat="43.58487" lon="6.41684">
        <ele>606.5</ele>
        <time>2026-02-22T12:46:27Z</time>
      </trkpt>
      <trkpt lat="43.58487" lon="6.41684">
        <ele>606.5</ele>
        <time>2026-02-22T12:46:28Z</time>
      </trkpt>
      <trkpt lat="43.58487" lon="6.41684">
        <ele>606.4</ele>
        <time>2026-02-22T12:46:29Z</time>
      </trkpt>
      <trkpt lat="43.58487" lon="6.41684">
        <ele>606.3</ele>
        <time>2026-02-22T12:46:30Z</time>
      </trkpt>
      <trkpt lat="43.58488" lon="6.41684">
        <ele>606.3</ele>
        <time>2026-02-22T12:46:31Z</time>
      </trkpt>
      <trkpt lat="43.58488" lon="6.41684">
        <ele>606.2</ele>
        <time>2026-02-22T12:46:32Z</time>
      </trkpt>
      <trkpt lat="43.58488" lon="6.41684">
        <ele>606.2</ele>
        <time>2026-02-22T12:46:33Z</time>
      </trkpt>
      <trkpt lat="43.58487" lon="6.41684">
        <ele>606.2</ele>
        <time>2026-02-22T12:46:34Z</time>
      </trkpt>
      <trkpt lat="43.58487" lon="6.41684">
        <ele>606.2</ele>
        <time>2026-02-22T12:46:35Z</time>
      </trkpt>
      <trkpt lat="43.58487" lon="6.41685">
        <ele>606.1</ele>
        <time>2026-02-22T12:46:36Z</time>
      </trkpt>
      <trkpt lat="43.58487" lon="6.41686">
        <ele>606.1</ele>
        <time>2026-02-22T12:46:37Z</time>
      </trkpt>
      <trkpt lat="43.58487" lon="6.41686">
        <ele>606.1</ele>
        <time>2026-02-22T12:46:38Z</time>
      </trkpt>
      <trkpt lat="43.58487" lon="6.41686">
        <ele>606.1</ele>
        <time>2026-02-22T12:46:39Z</time>
      </trkpt>
      <trkpt lat="43.58487" lon="6.41686">
        <ele>606.1</ele>
        <time>2026-02-22T12:46:40Z</time>
      </trkpt>
      <trkpt lat="43.58487" lon="6.41686">
        <ele>606.2</ele>
        <time>2026-02-22T12:46:41Z</time>
      </trkpt>
      <trkpt lat="43.58487" lon="6.41686">
        <ele>606.2</ele>
        <time>2026-02-22T12:46:42Z</time>
      </trkpt>
      <trkpt lat="43.58487" lon="6.41686">
        <ele>606.2</ele>
        <time>2026-02-22T12:46:43Z</time>
      </trkpt>
      <trkpt lat="43.58487" lon="6.41686">
        <ele>606.2</ele>
        <time>2026-02-22T12:46:44Z</time>
      </trkpt>
      <trkpt lat="43.58486" lon="6.41686">
        <ele>606.2</ele>
        <time>2026-02-22T12:46:45Z</time>
      </trkpt>
      <trkpt lat="43.58486" lon="6.41686">
        <ele>606.2</ele>
        <time>2026-02-22T12:46:46Z</time>
      </trkpt>
      <trkpt lat="43.58486" lon="6.41686">
        <ele>606.3</ele>
        <time>2026-02-22T12:46:47Z</time>
      </trkpt>
      <trkpt lat="43.58486" lon="6.41686">
        <ele>606.3</ele>
        <time>2026-02-22T12:46:48Z</time>
      </trkpt>
      <trkpt lat="43.58486" lon="6.41686">
        <ele>606.3</ele>
        <time>2026-02-22T12:46:49Z</time>
      </trkpt>
      <trkpt lat="43.58486" lon="6.41686">
        <ele>606.3</ele>
        <time>2026-02-22T12:46:50Z</time>
      </trkpt>
      <trkpt lat="43.58486" lon="6.41686">
        <ele>606.3</ele>
        <time>2026-02-22T12:46:51Z</time>
      </trkpt>
      <trkpt lat="43.58486" lon="6.41686">
        <ele>606.2</ele>
        <time>2026-02-22T12:46:52Z</time>
      </trkpt>
      <trkpt lat="43.58486" lon="6.41686">
        <ele>606.3</ele>
        <time>2026-02-22T12:46:53Z</time>
      </trkpt>
      <trkpt lat="43.58486" lon="6.41686">
        <ele>606.3</ele>
        <time>2026-02-22T12:46:54Z</time>
      </trkpt>
      <trkpt lat="43.58486" lon="6.41686">
        <ele>606.3</ele>
        <time>2026-02-22T12:46:55Z</time>
      </trkpt>
      <trkpt lat="43.58486" lon="6.41686">
        <ele>606.3</ele>
        <time>2026-02-22T12:46:56Z</time>
      </trkpt>
      <trkpt lat="43.58486" lon="6.41686">
        <ele>606.3</ele>
        <time>2026-02-22T12:46:57Z</time>
      </trkpt>
      <trkpt lat="43.58486" lon="6.41686">
        <ele>606.4</ele>
        <time>2026-02-22T12:46:58Z</time>
      </trkpt>
      <trkpt lat="43.58486" lon="6.41686">
        <ele>606.4</ele>
        <time>2026-02-22T12:46:59Z</time>
      </trkpt>
      <trkpt lat="43.58486" lon="6.41686">
        <ele>606.4</ele>
        <time>2026-02-22T12:47:00Z</time>
      </trkpt>
      <trkpt lat="43.58486" lon="6.41686">
        <ele>606.5</ele>
        <time>2026-02-22T12:47:01Z</time>
      </trkpt>
      <trkpt lat="43.58486" lon="6.41686">
        <ele>606.6</ele>
        <time>2026-02-22T12:47:02Z</time>
      </trkpt>
      <trkpt lat="43.58486" lon="6.41686">
        <ele>606.6</ele>
        <time>2026-02-22T12:47:03Z</time>
      </trkpt>
      <trkpt lat="43.58486" lon="6.41686">
        <ele>606.5</ele>
        <time>2026-02-22T12:47:04Z</time>
      </trkpt>
      <trkpt lat="43.58486" lon="6.41685">
        <ele>606.5</ele>
        <time>2026-02-22T12:47:05Z</time>
      </trkpt>
      <trkpt lat="43.58486" lon="6.41685">
        <ele>606.4</ele>
        <time>2026-02-22T12:47:06Z</time>
      </trkpt>
      <trkpt lat="43.58486" lon="6.41685">
        <ele>606.4</ele>
        <time>2026-02-22T12:47:07Z</time>
      </trkpt>
      <trkpt lat="43.58486" lon="6.41685">
        <ele>606.4</ele>
        <time>2026-02-22T12:47:08Z</time>
      </trkpt>
      <trkpt lat="43.58486" lon="6.41685">
        <ele>606.4</ele>
        <time>2026-02-22T12:47:09Z</time>
      </trkpt>
      <trkpt lat="43.58486" lon="6.41685">
        <ele>606.5</ele>
        <time>2026-02-22T12:47:10Z</time>
      </trkpt>
      <trkpt lat="43.58486" lon="6.41685">
        <ele>606.4</ele>
        <time>2026-02-22T12:47:11Z</time>
      </trkpt>
      <trkpt lat="43.58486" lon="6.41685">
        <ele>606.5</ele>
        <time>2026-02-22T12:47:12Z</time>
      </trkpt>
      <trkpt lat="43.58486" lon="6.41685">
        <ele>606.4</ele>
        <time>2026-02-22T12:47:13Z</time>
      </trkpt>
      <trkpt lat="43.58487" lon="6.41685">
        <ele>606.4</ele>
        <time>2026-02-22T12:47:14Z</time>
      </trkpt>
      <trkpt lat="43.58487" lon="6.41685">
        <ele>606.4</ele>
        <time>2026-02-22T12:47:15Z</time>
      </trkpt>
      <trkpt lat="43.58486" lon="6.41685">
        <ele>606.4</ele>
        <time>2026-02-22T12:47:16Z</time>
      </trkpt>
      <trkpt lat="43.58487" lon="6.41685">
        <ele>606.4</ele>
        <time>2026-02-22T12:47:17Z</time>
      </trkpt>
      <trkpt lat="43.58487" lon="6.41685">
        <ele>606.4</ele>
        <time>2026-02-22T12:47:18Z</time>
      </trkpt>
      <trkpt lat="43.58487" lon="6.41685">
        <ele>606.4</ele>
        <time>2026-02-22T12:47:19Z</time>
      </trkpt>
      <trkpt lat="43.58487" lon="6.41685">
        <ele>606.5</ele>
        <time>2026-02-22T12:47:20Z</time>
      </trkpt>
      <trkpt lat="43.58487" lon="6.41685">
        <ele>606.6</ele>
        <time>2026-02-22T12:47:21Z</time>
      </trkpt>
      <trkpt lat="43.58487" lon="6.41685">
        <ele>606.6</ele>
        <time>2026-02-22T12:47:22Z</time>
      </trkpt>
      <trkpt lat="43.58487" lon="6.41685">
        <ele>606.6</ele>
        <time>2026-02-22T12:47:23Z</time>
      </trkpt>
      <trkpt lat="43.58487" lon="6.41685">
        <ele>606.5</ele>
        <time>2026-02-22T12:47:24Z</time>
      </trkpt>
      <trkpt lat="43.58487" lon="6.41685">
        <ele>606.5</ele>
        <time>2026-02-22T12:47:25Z</time>
      </trkpt>
      <trkpt lat="43.58487" lon="6.41685">
        <ele>606.5</ele>
        <time>2026-02-22T12:47:26Z</time>
      </trkpt>
      <trkpt lat="43.58487" lon="6.41685">
        <ele>606.5</ele>
        <time>2026-02-22T12:47:27Z</time>
      </trkpt>
      <trkpt lat="43.58487" lon="6.41685">
        <ele>606.6</ele>
        <time>2026-02-22T12:47:28Z</time>
      </trkpt>
      <trkpt lat="43.58487" lon="6.41685">
        <ele>606.4</ele>
        <time>2026-02-22T12:47:29Z</time>
      </trkpt>
      <trkpt lat="43.58487" lon="6.41685">
        <ele>606.3</ele>
        <time>2026-02-22T12:47:30Z</time>
      </trkpt>
      <trkpt lat="43.58487" lon="6.41685">
        <ele>606.3</ele>
        <time>2026-02-22T12:47:31Z</time>
      </trkpt>
      <trkpt lat="43.58487" lon="6.41685">
        <ele>606.3</ele>
        <time>2026-02-22T12:47:32Z</time>
      </trkpt>
      <trkpt lat="43.58487" lon="6.41685">
        <ele>606.3</ele>
        <time>2026-02-22T12:47:33Z</time>
      </trkpt>
      <trkpt lat="43.58487" lon="6.41685">
        <ele>606.3</ele>
        <time>2026-02-22T12:47:34Z</time>
      </trkpt>
      <trkpt lat="43.58487" lon="6.41685">
        <ele>606.3</ele>
        <time>2026-02-22T12:47:35Z</time>
      </trkpt>
      <trkpt lat="43.58487" lon="6.41685">
        <ele>606.3</ele>
        <time>2026-02-22T12:47:36Z</time>
      </trkpt>
      <trkpt lat="43.58487" lon="6.41685">
        <ele>606.2</ele>
        <time>2026-02-22T12:47:37Z</time>
      </trkpt>
      <trkpt lat="43.58487" lon="6.41685">
        <ele>606.2</ele>
        <time>2026-02-22T12:47:38Z</time>
      </trkpt>
      <trkpt lat="43.58487" lon="6.41685">
        <ele>606.3</ele>
        <time>2026-02-22T12:47:39Z</time>
      </trkpt>
      <trkpt lat="43.58487" lon="6.41685">
        <ele>606.3</ele>
        <time>2026-02-22T12:47:40Z</time>
      </trkpt>
      <trkpt lat="43.58487" lon="6.41685">
        <ele>606.3</ele>
        <time>2026-02-22T12:47:41Z</time>
      </trkpt>
      <trkpt lat="43.58487" lon="6.41685">
        <ele>606.4</ele>
        <time>2026-02-22T12:47:42Z</time>
      </trkpt>
      <trkpt lat="43.58487" lon="6.41685">
        <ele>606.4</ele>
        <time>2026-02-22T12:47:43Z</time>
      </trkpt>
      <trkpt lat="43.58487" lon="6.41685">
        <ele>606.4</ele>
        <time>2026-02-22T12:47:44Z</time>
      </trkpt>
      <trkpt lat="43.58487" lon="6.41685">
        <ele>606.5</ele>
        <time>2026-02-22T12:47:45Z</time>
      </trkpt>
      <trkpt lat="43.58487" lon="6.41686">
        <ele>606.5</ele>
        <time>2026-02-22T12:47:46Z</time>
      </trkpt>
      <trkpt lat="43.58487" lon="6.41686">
        <ele>606.5</ele>
        <time>2026-02-22T12:47:47Z</time>
      </trkpt>
      <trkpt lat="43.58487" lon="6.41686">
        <ele>606.5</ele>
        <time>2026-02-22T12:47:48Z</time>
      </trkpt>
      <trkpt lat="43.58487" lon="6.41686">
        <ele>606.5</ele>
        <time>2026-02-22T12:47:49Z</time>
      </trkpt>
      <trkpt lat="43.58487" lon="6.41686">
        <ele>606.6</ele>
        <time>2026-02-22T12:47:50Z</time>
      </trkpt>
      <trkpt lat="43.58487" lon="6.41686">
        <ele>606.6</ele>
        <time>2026-02-22T12:47:51Z</time>
      </trkpt>
      <trkpt lat="43.58486" lon="6.41686">
        <ele>606.6</ele>
        <time>2026-02-22T12:47:52Z</time>
      </trkpt>
      <trkpt lat="43.58486" lon="6.41686">
        <ele>606.7</ele>
        <time>2026-02-22T12:47:53Z</time>
      </trkpt>
      <trkpt lat="43.58486" lon="6.41686">
        <ele>606.7</ele>
        <time>2026-02-22T12:47:54Z</time>
      </trkpt>
      <trkpt lat="43.58487" lon="6.41686">
        <ele>606.8</ele>
        <time>2026-02-22T12:47:55Z</time>
      </trkpt>
      <trkpt lat="43.58487" lon="6.41686">
        <ele>606.8</ele>
        <time>2026-02-22T12:47:56Z</time>
      </trkpt>
      <trkpt lat="43.58487" lon="6.41685">
        <ele>606.8</ele>
        <time>2026-02-22T12:47:57Z</time>
      </trkpt>
      <trkpt lat="43.58487" lon="6.41686">
        <ele>607</ele>
        <time>2026-02-22T12:47:58Z</time>
      </trkpt>
      <trkpt lat="43.58487" lon="6.41686">
        <ele>607</ele>
        <time>2026-02-22T12:47:59Z</time>
      </trkpt>
      <trkpt lat="43.58487" lon="6.41686">
        <ele>607.1</ele>
        <time>2026-02-22T12:48:00Z</time>
      </trkpt>
      <trkpt lat="43.58487" lon="6.41686">
        <ele>607.1</ele>
        <time>2026-02-22T12:48:01Z</time>
      </trkpt>
      <trkpt lat="43.58487" lon="6.41685">
        <ele>607</ele>
        <time>2026-02-22T12:48:02Z</time>
      </trkpt>
      <trkpt lat="43.58487" lon="6.41685">
        <ele>607.1</ele>
        <time>2026-02-22T12:48:03Z</time>
      </trkpt>
      <trkpt lat="43.58487" lon="6.41685">
        <ele>607.1</ele>
        <time>2026-02-22T12:48:04Z</time>
      </trkpt>
      <trkpt lat="43.58487" lon="6.41685">
        <ele>607.1</ele>
        <time>2026-02-22T12:48:05Z</time>
      </trkpt>
      <trkpt lat="43.58487" lon="6.41685">
        <ele>607.1</ele>
        <time>2026-02-22T12:48:06Z</time>
      </trkpt>
      <trkpt lat="43.58487" lon="6.41685">
        <ele>607.1</ele>
        <time>2026-02-22T12:48:07Z</time>
      </trkpt>
      <trkpt lat="43.58487" lon="6.41685">
        <ele>607</ele>
        <time>2026-02-22T12:48:08Z</time>
      </trkpt>
      <trkpt lat="43.58487" lon="6.41685">
        <ele>607</ele>
        <time>2026-02-22T12:48:09Z</time>
      </trkpt>
      <trkpt lat="43.58487" lon="6.41685">
        <ele>607</ele>
        <time>2026-02-22T12:48:10Z</time>
      </trkpt>
      <trkpt lat="43.58487" lon="6.41685">
        <ele>606.9</ele>
        <time>2026-02-22T12:48:11Z</time>
      </trkpt>
      <trkpt lat="43.58487" lon="6.41685">
        <ele>606.8</ele>
        <time>2026-02-22T12:48:12Z</time>
      </trkpt>
      <trkpt lat="43.58487" lon="6.41685">
        <ele>606.8</ele>
        <time>2026-02-22T12:48:13Z</time>
      </trkpt>
      <trkpt lat="43.58487" lon="6.41685">
        <ele>606.8</ele>
        <time>2026-02-22T12:48:14Z</time>
      </trkpt>
      <trkpt lat="43.58487" lon="6.41685">
        <ele>606.8</ele>
        <time>2026-02-22T12:48:15Z</time>
      </trkpt>
      <trkpt lat="43.58487" lon="6.41685">
        <ele>606.8</ele>
        <time>2026-02-22T12:48:16Z</time>
      </trkpt>
      <trkpt lat="43.58487" lon="6.41685">
        <ele>606.7</ele>
        <time>2026-02-22T12:48:17Z</time>
      </trkpt>
      <trkpt lat="43.58487" lon="6.41685">
        <ele>606.8</ele>
        <time>2026-02-22T12:48:18Z</time>
      </trkpt>
      <trkpt lat="43.58487" lon="6.41685">
        <ele>606.8</ele>
        <time>2026-02-22T12:48:19Z</time>
      </trkpt>
      <trkpt lat="43.58487" lon="6.41685">
        <ele>606.9</ele>
        <time>2026-02-22T12:48:20Z</time>
      </trkpt>
      <trkpt lat="43.58487" lon="6.41685">
        <ele>607</ele>
        <time>2026-02-22T12:48:21Z</time>
      </trkpt>
      <trkpt lat="43.58487" lon="6.41685">
        <ele>607</ele>
        <time>2026-02-22T12:48:22Z</time>
      </trkpt>
      <trkpt lat="43.58487" lon="6.41685">
        <ele>606.9</ele>
        <time>2026-02-22T12:48:23Z</time>
      </trkpt>
      <trkpt lat="43.58487" lon="6.41685">
        <ele>606.9</ele>
        <time>2026-02-22T12:48:24Z</time>
      </trkpt>
      <trkpt lat="43.58487" lon="6.41685">
        <ele>606.9</ele>
        <time>2026-02-22T12:48:25Z</time>
      </trkpt>
      <trkpt lat="43.58487" lon="6.41685">
        <ele>606.9</ele>
        <time>2026-02-22T12:48:26Z</time>
      </trkpt>
      <trkpt lat="43.58487" lon="6.41685">
        <ele>606.9</ele>
        <time>2026-02-22T12:48:27Z</time>
      </trkpt>
      <trkpt lat="43.58487" lon="6.41685">
        <ele>606.9</ele>
        <time>2026-02-22T12:48:28Z</time>
      </trkpt>
      <trkpt lat="43.58487" lon="6.41685">
        <ele>607</ele>
        <time>2026-02-22T12:48:29Z</time>
      </trkpt>
      <trkpt lat="43.58487" lon="6.41685">
        <ele>606.9</ele>
        <time>2026-02-22T12:48:30Z</time>
      </trkpt>
      <trkpt lat="43.58487" lon="6.41685">
        <ele>606.9</ele>
        <time>2026-02-22T12:48:31Z</time>
      </trkpt>
      <trkpt lat="43.58487" lon="6.41685">
        <ele>606.9</ele>
        <time>2026-02-22T12:48:32Z</time>
      </trkpt>
      <trkpt lat="43.58487" lon="6.41685">
        <ele>606.8</ele>
        <time>2026-02-22T12:48:33Z</time>
      </trkpt>
      <trkpt lat="43.58487" lon="6.41685">
        <ele>606.8</ele>
        <time>2026-02-22T12:48:34Z</time>
      </trkpt>
      <trkpt lat="43.58487" lon="6.41685">
        <ele>606.8</ele>
        <time>2026-02-22T12:48:35Z</time>
      </trkpt>
      <trkpt lat="43.58487" lon="6.41685">
        <ele>606.7</ele>
        <time>2026-02-22T12:48:36Z</time>
      </trkpt>
      <trkpt lat="43.58487" lon="6.41685">
        <ele>606.6</ele>
        <time>2026-02-22T12:48:37Z</time>
      </trkpt>
      <trkpt lat="43.58487" lon="6.41685">
        <ele>606.6</ele>
        <time>2026-02-22T12:48:38Z</time>
      </trkpt>
      <trkpt lat="43.58487" lon="6.41685">
        <ele>606.6</ele>
        <time>2026-02-22T12:48:39Z</time>
      </trkpt>
      <trkpt lat="43.58487" lon="6.41685">
        <ele>606.7</ele>
        <time>2026-02-22T12:48:40Z</time>
      </trkpt>
      <trkpt lat="43.58487" lon="6.41685">
        <ele>606.7</ele>
        <time>2026-02-22T12:48:41Z</time>
      </trkpt>
      <trkpt lat="43.58487" lon="6.41685">
        <ele>606.7</ele>
        <time>2026-02-22T12:48:42Z</time>
      </trkpt>
      <trkpt lat="43.58487" lon="6.41685">
        <ele>606.7</ele>
        <time>2026-02-22T12:48:43Z</time>
      </trkpt>
      <trkpt lat="43.58487" lon="6.41685">
        <ele>606.6</ele>
        <time>2026-02-22T12:48:44Z</time>
      </trkpt>
      <trkpt lat="43.58487" lon="6.41685">
        <ele>606.6</ele>
        <time>2026-02-22T12:48:45Z</time>
      </trkpt>
      <trkpt lat="43.58487" lon="6.41685">
        <ele>606.6</ele>
        <time>2026-02-22T12:48:46Z</time>
      </trkpt>
      <trkpt lat="43.58487" lon="6.41685">
        <ele>606.6</ele>
        <time>2026-02-22T12:48:47Z</time>
      </trkpt>
      <trkpt lat="43.58487" lon="6.41685">
        <ele>606.6</ele>
        <time>2026-02-22T12:48:48Z</time>
      </trkpt>
      <trkpt lat="43.58487" lon="6.41685">
        <ele>606.6</ele>
        <time>2026-02-22T12:48:49Z</time>
      </trkpt>
      <trkpt lat="43.58487" lon="6.41685">
        <ele>606.6</ele>
        <time>2026-02-22T12:48:50Z</time>
      </trkpt>
      <trkpt lat="43.58487" lon="6.41685">
        <ele>606.6</ele>
        <time>2026-02-22T12:48:51Z</time>
      </trkpt>
      <trkpt lat="43.58486" lon="6.41685">
        <ele>606.7</ele>
        <time>2026-02-22T12:48:52Z</time>
      </trkpt>
      <trkpt lat="43.58487" lon="6.41685">
        <ele>606.8</ele>
        <time>2026-02-22T12:48:53Z</time>
      </trkpt>
      <trkpt lat="43.58486" lon="6.41685">
        <ele>606.8</ele>
        <time>2026-02-22T12:48:54Z</time>
      </trkpt>
      <trkpt lat="43.58486" lon="6.41685">
        <ele>606.8</ele>
        <time>2026-02-22T12:48:55Z</time>
      </trkpt>
      <trkpt lat="43.58486" lon="6.41685">
        <ele>606.8</ele>
        <time>2026-02-22T12:48:56Z</time>
      </trkpt>
      <trkpt lat="43.58486" lon="6.41685">
        <ele>606.7</ele>
        <time>2026-02-22T12:48:57Z</time>
      </trkpt>
      <trkpt lat="43.58486" lon="6.41685">
        <ele>606.7</ele>
        <time>2026-02-22T12:48:58Z</time>
      </trkpt>
      <trkpt lat="43.58486" lon="6.41685">
        <ele>606.7</ele>
        <time>2026-02-22T12:48:59Z</time>
      </trkpt>
      <trkpt lat="43.58486" lon="6.41685">
        <ele>606.7</ele>
        <time>2026-02-22T12:49:00Z</time>
      </trkpt>
      <trkpt lat="43.58486" lon="6.41685">
        <ele>606.7</ele>
        <time>2026-02-22T12:49:01Z</time>
      </trkpt>
      <trkpt lat="43.58486" lon="6.41685">
        <ele>606.7</ele>
        <time>2026-02-22T12:49:02Z</time>
      </trkpt>
      <trkpt lat="43.58486" lon="6.41685">
        <ele>606.7</ele>
        <time>2026-02-22T12:49:03Z</time>
      </trkpt>
      <trkpt lat="43.58486" lon="6.41685">
        <ele>606.7</ele>
        <time>2026-02-22T12:49:04Z</time>
      </trkpt>
      <trkpt lat="43.58486" lon="6.41685">
        <ele>606.8</ele>
        <time>2026-02-22T12:49:05Z</time>
      </trkpt>
      <trkpt lat="43.58486" lon="6.41685">
        <ele>606.8</ele>
        <time>2026-02-22T12:49:06Z</time>
      </trkpt>
      <trkpt lat="43.58486" lon="6.41685">
        <ele>606.8</ele>
        <time>2026-02-22T12:49:07Z</time>
      </trkpt>
      <trkpt lat="43.58486" lon="6.41685">
        <ele>606.9</ele>
        <time>2026-02-22T12:49:08Z</time>
      </trkpt>
      <trkpt lat="43.58486" lon="6.41685">
        <ele>606.7</ele>
        <time>2026-02-22T12:49:09Z</time>
      </trkpt>
      <trkpt lat="43.58486" lon="6.41685">
        <ele>606.7</ele>
        <time>2026-02-22T12:49:10Z</time>
      </trkpt>
      <trkpt lat="43.58486" lon="6.41686">
        <ele>606.7</ele>
        <time>2026-02-22T12:49:11Z</time>
      </trkpt>
      <trkpt lat="43.58486" lon="6.41686">
        <ele>606.7</ele>
        <time>2026-02-22T12:49:12Z</time>
      </trkpt>
      <trkpt lat="43.58486" lon="6.41686">
        <ele>606.7</ele>
        <time>2026-02-22T12:49:13Z</time>
      </trkpt>
      <trkpt lat="43.58486" lon="6.41686">
        <ele>606.8</ele>
        <time>2026-02-22T12:49:14Z</time>
      </trkpt>
      <trkpt lat="43.58486" lon="6.41686">
        <ele>606.8</ele>
        <time>2026-02-22T12:49:15Z</time>
      </trkpt>
      <trkpt lat="43.58486" lon="6.41686">
        <ele>606.8</ele>
        <time>2026-02-22T12:49:16Z</time>
      </trkpt>
      <trkpt lat="43.58486" lon="6.41686">
        <ele>606.7</ele>
        <time>2026-02-22T12:49:17Z</time>
      </trkpt>
      <trkpt lat="43.58486" lon="6.41686">
        <ele>606.7</ele>
        <time>2026-02-22T12:49:18Z</time>
      </trkpt>
      <trkpt lat="43.58486" lon="6.41686">
        <ele>606.7</ele>
        <time>2026-02-22T12:49:19Z</time>
      </trkpt>
      <trkpt lat="43.58486" lon="6.41686">
        <ele>606.7</ele>
        <time>2026-02-22T12:49:20Z</time>
      </trkpt>
      <trkpt lat="43.58486" lon="6.41686">
        <ele>606.8</ele>
        <time>2026-02-22T12:49:21Z</time>
      </trkpt>
      <trkpt lat="43.58486" lon="6.41686">
        <ele>606.8</ele>
        <time>2026-02-22T12:49:22Z</time>
      </trkpt>
      <trkpt lat="43.58486" lon="6.41686">
        <ele>606.9</ele>
        <time>2026-02-22T12:49:23Z</time>
      </trkpt>
      <trkpt lat="43.58486" lon="6.41686">
        <ele>606.9</ele>
        <time>2026-02-22T12:49:24Z</time>
      </trkpt>
      <trkpt lat="43.58486" lon="6.41686">
        <ele>606.9</ele>
        <time>2026-02-22T12:49:25Z</time>
      </trkpt>
      <trkpt lat="43.58486" lon="6.41686">
        <ele>606.8</ele>
        <time>2026-02-22T12:49:26Z</time>
      </trkpt>
      <trkpt lat="43.58486" lon="6.41686">
        <ele>606.8</ele>
        <time>2026-02-22T12:49:27Z</time>
      </trkpt>
      <trkpt lat="43.58486" lon="6.41686">
        <ele>606.7</ele>
        <time>2026-02-22T12:49:28Z</time>
      </trkpt>
      <trkpt lat="43.58486" lon="6.41686">
        <ele>606.8</ele>
        <time>2026-02-22T12:49:29Z</time>
      </trkpt>
      <trkpt lat="43.58486" lon="6.41686">
        <ele>606.9</ele>
        <time>2026-02-22T12:49:30Z</time>
      </trkpt>
      <trkpt lat="43.58486" lon="6.41686">
        <ele>606.9</ele>
        <time>2026-02-22T12:49:31Z</time>
      </trkpt>
      <trkpt lat="43.58486" lon="6.41686">
        <ele>607</ele>
        <time>2026-02-22T12:49:32Z</time>
      </trkpt>
      <trkpt lat="43.58486" lon="6.41686">
        <ele>607</ele>
        <time>2026-02-22T12:49:33Z</time>
      </trkpt>
      <trkpt lat="43.58486" lon="6.41686">
        <ele>607</ele>
        <time>2026-02-22T12:49:34Z</time>
      </trkpt>
      <trkpt lat="43.58486" lon="6.41686">
        <ele>607.1</ele>
        <time>2026-02-22T12:49:35Z</time>
      </trkpt>
      <trkpt lat="43.58486" lon="6.41686">
        <ele>607.1</ele>
        <time>2026-02-22T12:49:36Z</time>
      </trkpt>
      <trkpt lat="43.58486" lon="6.41686">
        <ele>607.1</ele>
        <time>2026-02-22T12:49:37Z</time>
      </trkpt>
      <trkpt lat="43.58486" lon="6.41686">
        <ele>607.1</ele>
        <time>2026-02-22T12:49:38Z</time>
      </trkpt>
      <trkpt lat="43.58486" lon="6.41686">
        <ele>607.2</ele>
        <time>2026-02-22T12:49:39Z</time>
      </trkpt>
      <trkpt lat="43.58486" lon="6.41686">
        <ele>607.2</ele>
        <time>2026-02-22T12:49:40Z</time>
      </trkpt>
      <trkpt lat="43.58486" lon="6.41686">
        <ele>607.1</ele>
        <time>2026-02-22T12:49:41Z</time>
      </trkpt>
      <trkpt lat="43.58486" lon="6.41685">
        <ele>607</ele>
        <time>2026-02-22T12:49:42Z</time>
      </trkpt>
      <trkpt lat="43.58486" lon="6.41685">
        <ele>606.9</ele>
        <time>2026-02-22T12:49:43Z</time>
      </trkpt>
      <trkpt lat="43.58486" lon="6.41685">
        <ele>606.9</ele>
        <time>2026-02-22T12:49:44Z</time>
      </trkpt>
      <trkpt lat="43.58486" lon="6.41685">
        <ele>606.9</ele>
        <time>2026-02-22T12:49:45Z</time>
      </trkpt>
      <trkpt lat="43.58486" lon="6.41685">
        <ele>606.8</ele>
        <time>2026-02-22T12:49:46Z</time>
      </trkpt>
      <trkpt lat="43.58486" lon="6.41685">
        <ele>606.8</ele>
        <time>2026-02-22T12:49:47Z</time>
      </trkpt>
      <trkpt lat="43.58486" lon="6.41685">
        <ele>606.8</ele>
        <time>2026-02-22T12:49:48Z</time>
      </trkpt>
      <trkpt lat="43.58486" lon="6.41685">
        <ele>606.8</ele>
        <time>2026-02-22T12:49:49Z</time>
      </trkpt>
      <trkpt lat="43.58486" lon="6.41686">
        <ele>606.9</ele>
        <time>2026-02-22T12:49:50Z</time>
      </trkpt>
      <trkpt lat="43.58486" lon="6.41686">
        <ele>606.9</ele>
        <time>2026-02-22T12:49:51Z</time>
      </trkpt>
      <trkpt lat="43.58486" lon="6.41686">
        <ele>606.9</ele>
        <time>2026-02-22T12:49:52Z</time>
      </trkpt>
      <trkpt lat="43.58486" lon="6.41686">
        <ele>606.9</ele>
        <time>2026-02-22T12:49:53Z</time>
      </trkpt>
      <trkpt lat="43.58486" lon="6.41686">
        <ele>606.9</ele>
        <time>2026-02-22T12:49:54Z</time>
      </trkpt>
      <trkpt lat="43.58486" lon="6.41686">
        <ele>606.9</ele>
        <time>2026-02-22T12:49:55Z</time>
      </trkpt>
      <trkpt lat="43.58486" lon="6.41686">
        <ele>606.9</ele>
        <time>2026-02-22T12:49:56Z</time>
      </trkpt>
      <trkpt lat="43.58486" lon="6.41686">
        <ele>606.9</ele>
        <time>2026-02-22T12:49:57Z</time>
      </trkpt>
      <trkpt lat="43.58486" lon="6.41686">
        <ele>606.9</ele>
        <time>2026-02-22T12:49:58Z</time>
      </trkpt>
      <trkpt lat="43.58486" lon="6.41686">
        <ele>606.9</ele>
        <time>2026-02-22T12:49:59Z</time>
      </trkpt>
      <trkpt lat="43.58486" lon="6.41686">
        <ele>606.9</ele>
        <time>2026-02-22T12:50:00Z</time>
      </trkpt>
      <trkpt lat="43.58486" lon="6.41686">
        <ele>606.9</ele>
        <time>2026-02-22T12:50:01Z</time>
      </trkpt>
      <trkpt lat="43.58486" lon="6.41686">
        <ele>606.9</ele>
        <time>2026-02-22T12:50:02Z</time>
      </trkpt>
      <trkpt lat="43.58486" lon="6.41686">
        <ele>606.8</ele>
        <time>2026-02-22T12:50:03Z</time>
      </trkpt>
      <trkpt lat="43.58485" lon="6.41686">
        <ele>606.8</ele>
        <time>2026-02-22T12:50:04Z</time>
      </trkpt>
      <trkpt lat="43.58485" lon="6.41686">
        <ele>606.7</ele>
        <time>2026-02-22T12:50:05Z</time>
      </trkpt>
      <trkpt lat="43.58485" lon="6.41686">
        <ele>606.7</ele>
        <time>2026-02-22T12:50:06Z</time>
      </trkpt>
      <trkpt lat="43.58485" lon="6.41686">
        <ele>606.7</ele>
        <time>2026-02-22T12:50:07Z</time>
      </trkpt>
      <trkpt lat="43.58486" lon="6.41686">
        <ele>606.7</ele>
        <time>2026-02-22T12:50:08Z</time>
      </trkpt>
      <trkpt lat="43.58486" lon="6.41686">
        <ele>606.7</ele>
        <time>2026-02-22T12:50:09Z</time>
      </trkpt>
      <trkpt lat="43.58486" lon="6.41686">
        <ele>606.7</ele>
        <time>2026-02-22T12:50:10Z</time>
      </trkpt>
      <trkpt lat="43.58485" lon="6.41686">
        <ele>606.7</ele>
        <time>2026-02-22T12:50:11Z</time>
      </trkpt>
      <trkpt lat="43.58486" lon="6.41686">
        <ele>606.8</ele>
        <time>2026-02-22T12:50:12Z</time>
      </trkpt>
      <trkpt lat="43.58486" lon="6.41686">
        <ele>606.8</ele>
        <time>2026-02-22T12:50:13Z</time>
      </trkpt>
      <trkpt lat="43.58486" lon="6.41686">
        <ele>606.9</ele>
        <time>2026-02-22T12:50:14Z</time>
      </trkpt>
      <trkpt lat="43.58486" lon="6.41686">
        <ele>606.9</ele>
        <time>2026-02-22T12:50:15Z</time>
      </trkpt>
      <trkpt lat="43.58486" lon="6.41686">
        <ele>606.9</ele>
        <time>2026-02-22T12:50:16Z</time>
      </trkpt>
      <trkpt lat="43.58486" lon="6.41686">
        <ele>606.9</ele>
        <time>2026-02-22T12:50:17Z</time>
      </trkpt>
      <trkpt lat="43.58486" lon="6.41686">
        <ele>606.9</ele>
        <time>2026-02-22T12:50:18Z</time>
      </trkpt>
      <trkpt lat="43.58486" lon="6.41686">
        <ele>607</ele>
        <time>2026-02-22T12:50:19Z</time>
      </trkpt>
      <trkpt lat="43.58486" lon="6.41686">
        <ele>607</ele>
        <time>2026-02-22T12:50:20Z</time>
      </trkpt>
      <trkpt lat="43.58486" lon="6.41686">
        <ele>607</ele>
        <time>2026-02-22T12:50:21Z</time>
      </trkpt>
      <trkpt lat="43.58486" lon="6.41686">
        <ele>607</ele>
        <time>2026-02-22T12:50:22Z</time>
      </trkpt>
      <trkpt lat="43.58486" lon="6.41686">
        <ele>607.1</ele>
        <time>2026-02-22T12:50:23Z</time>
      </trkpt>
      <trkpt lat="43.58486" lon="6.41686">
        <ele>607.1</ele>
        <time>2026-02-22T12:50:24Z</time>
      </trkpt>
      <trkpt lat="43.58485" lon="6.41686">
        <ele>607.1</ele>
        <time>2026-02-22T12:50:25Z</time>
      </trkpt>
      <trkpt lat="43.58485" lon="6.41686">
        <ele>607.1</ele>
        <time>2026-02-22T12:50:26Z</time>
      </trkpt>
      <trkpt lat="43.58485" lon="6.41686">
        <ele>607</ele>
        <time>2026-02-22T12:50:27Z</time>
      </trkpt>
      <trkpt lat="43.58485" lon="6.41686">
        <ele>607</ele>
        <time>2026-02-22T12:50:28Z</time>
      </trkpt>
      <trkpt lat="43.58485" lon="6.41686">
        <ele>607</ele>
        <time>2026-02-22T12:50:29Z</time>
      </trkpt>
      <trkpt lat="43.58485" lon="6.41686">
        <ele>607.1</ele>
        <time>2026-02-22T12:50:30Z</time>
      </trkpt>
      <trkpt lat="43.58485" lon="6.41686">
        <ele>607.1</ele>
        <time>2026-02-22T12:50:31Z</time>
      </trkpt>
      <trkpt lat="43.58485" lon="6.41686">
        <ele>607</ele>
        <time>2026-02-22T12:50:32Z</time>
      </trkpt>
      <trkpt lat="43.58485" lon="6.41686">
        <ele>606.9</ele>
        <time>2026-02-22T12:50:33Z</time>
      </trkpt>
      <trkpt lat="43.58485" lon="6.41686">
        <ele>606.9</ele>
        <time>2026-02-22T12:50:34Z</time>
      </trkpt>
      <trkpt lat="43.58485" lon="6.41686">
        <ele>606.8</ele>
        <time>2026-02-22T12:50:35Z</time>
      </trkpt>
      <trkpt lat="43.58485" lon="6.41686">
        <ele>606.7</ele>
        <time>2026-02-22T12:50:36Z</time>
      </trkpt>
      <trkpt lat="43.58485" lon="6.41686">
        <ele>606.8</ele>
        <time>2026-02-22T12:50:37Z</time>
      </trkpt>
      <trkpt lat="43.58485" lon="6.41686">
        <ele>606.8</ele>
        <time>2026-02-22T12:50:38Z</time>
      </trkpt>
      <trkpt lat="43.58485" lon="6.41686">
        <ele>606.9</ele>
        <time>2026-02-22T12:50:39Z</time>
      </trkpt>
      <trkpt lat="43.58485" lon="6.41686">
        <ele>606.9</ele>
        <time>2026-02-22T12:50:40Z</time>
      </trkpt>
      <trkpt lat="43.58485" lon="6.41686">
        <ele>606.9</ele>
        <time>2026-02-22T12:50:41Z</time>
      </trkpt>
      <trkpt lat="43.58485" lon="6.41686">
        <ele>606.9</ele>
        <time>2026-02-22T12:50:42Z</time>
      </trkpt>
      <trkpt lat="43.58485" lon="6.41686">
        <ele>606.9</ele>
        <time>2026-02-22T12:50:43Z</time>
      </trkpt>
      <trkpt lat="43.58485" lon="6.41686">
        <ele>606.9</ele>
        <time>2026-02-22T12:50:44Z</time>
      </trkpt>
      <trkpt lat="43.58485" lon="6.41686">
        <ele>607</ele>
        <time>2026-02-22T12:50:45Z</time>
      </trkpt>
      <trkpt lat="43.58485" lon="6.41686">
        <ele>607</ele>
        <time>2026-02-22T12:50:46Z</time>
      </trkpt>
      <trkpt lat="43.58485" lon="6.41686">
        <ele>607</ele>
        <time>2026-02-22T12:50:47Z</time>
      </trkpt>
      <trkpt lat="43.58485" lon="6.41686">
        <ele>607</ele>
        <time>2026-02-22T12:50:48Z</time>
      </trkpt>
      <trkpt lat="43.58485" lon="6.41686">
        <ele>607</ele>
        <time>2026-02-22T12:50:49Z</time>
      </trkpt>
      <trkpt lat="43.58485" lon="6.41686">
        <ele>607</ele>
        <time>2026-02-22T12:50:50Z</time>
      </trkpt>
      <trkpt lat="43.58485" lon="6.41686">
        <ele>607</ele>
        <time>2026-02-22T12:50:51Z</time>
      </trkpt>
      <trkpt lat="43.58485" lon="6.41687">
        <ele>607.1</ele>
        <time>2026-02-22T12:50:52Z</time>
      </trkpt>
      <trkpt lat="43.58485" lon="6.41687">
        <ele>607.1</ele>
        <time>2026-02-22T12:50:53Z</time>
      </trkpt>
      <trkpt lat="43.58485" lon="6.41687">
        <ele>607.2</ele>
        <time>2026-02-22T12:50:54Z</time>
      </trkpt>
      <trkpt lat="43.58485" lon="6.41687">
        <ele>607.1</ele>
        <time>2026-02-22T12:50:55Z</time>
      </trkpt>
      <trkpt lat="43.58485" lon="6.41686">
        <ele>607.1</ele>
        <time>2026-02-22T12:50:56Z</time>
      </trkpt>
      <trkpt lat="43.58485" lon="6.41686">
        <ele>607.1</ele>
        <time>2026-02-22T12:50:57Z</time>
      </trkpt>
      <trkpt lat="43.58485" lon="6.41686">
        <ele>607.1</ele>
        <time>2026-02-22T12:50:58Z</time>
      </trkpt>
      <trkpt lat="43.58485" lon="6.41686">
        <ele>607</ele>
        <time>2026-02-22T12:50:59Z</time>
      </trkpt>
      <trkpt lat="43.58485" lon="6.41686">
        <ele>607</ele>
        <time>2026-02-22T12:51:00Z</time>
      </trkpt>
      <trkpt lat="43.58485" lon="6.41686">
        <ele>606.8</ele>
        <time>2026-02-22T12:51:01Z</time>
      </trkpt>
      <trkpt lat="43.58485" lon="6.41686">
        <ele>606.8</ele>
        <time>2026-02-22T12:51:02Z</time>
      </trkpt>
      <trkpt lat="43.58485" lon="6.41686">
        <ele>606.8</ele>
        <time>2026-02-22T12:51:03Z</time>
      </trkpt>
      <trkpt lat="43.58485" lon="6.41686">
        <ele>606.8</ele>
        <time>2026-02-22T12:51:04Z</time>
      </trkpt>
      <trkpt lat="43.58485" lon="6.41686">
        <ele>606.8</ele>
        <time>2026-02-22T12:51:05Z</time>
      </trkpt>
      <trkpt lat="43.58485" lon="6.41686">
        <ele>606.9</ele>
        <time>2026-02-22T12:51:06Z</time>
      </trkpt>
      <trkpt lat="43.58485" lon="6.41686">
        <ele>606.9</ele>
        <time>2026-02-22T12:51:07Z</time>
      </trkpt>
      <trkpt lat="43.58485" lon="6.41686">
        <ele>606.9</ele>
        <time>2026-02-22T12:51:08Z</time>
      </trkpt>
      <trkpt lat="43.58485" lon="6.41686">
        <ele>607</ele>
        <time>2026-02-22T12:51:09Z</time>
      </trkpt>
      <trkpt lat="43.58485" lon="6.41686">
        <ele>607</ele>
        <time>2026-02-22T12:51:10Z</time>
      </trkpt>
      <trkpt lat="43.58485" lon="6.41687">
        <ele>607</ele>
        <time>2026-02-22T12:51:11Z</time>
      </trkpt>
      <trkpt lat="43.58485" lon="6.41687">
        <ele>606.9</ele>
        <time>2026-02-22T12:51:12Z</time>
      </trkpt>
      <trkpt lat="43.58485" lon="6.41687">
        <ele>607</ele>
        <time>2026-02-22T12:51:13Z</time>
      </trkpt>
      <trkpt lat="43.58485" lon="6.41687">
        <ele>606.9</ele>
        <time>2026-02-22T12:51:14Z</time>
      </trkpt>
      <trkpt lat="43.58485" lon="6.41687">
        <ele>606.9</ele>
        <time>2026-02-22T12:51:15Z</time>
      </trkpt>
      <trkpt lat="43.58485" lon="6.41687">
        <ele>606.8</ele>
        <time>2026-02-22T12:51:16Z</time>
      </trkpt>
      <trkpt lat="43.58485" lon="6.41687">
        <ele>606.8</ele>
        <time>2026-02-22T12:51:17Z</time>
      </trkpt>
      <trkpt lat="43.58485" lon="6.41687">
        <ele>606.8</ele>
        <time>2026-02-22T12:51:18Z</time>
      </trkpt>
      <trkpt lat="43.58485" lon="6.41687">
        <ele>606.8</ele>
        <time>2026-02-22T12:51:19Z</time>
      </trkpt>
      <trkpt lat="43.58485" lon="6.41687">
        <ele>606.8</ele>
        <time>2026-02-22T12:51:20Z</time>
      </trkpt>
      <trkpt lat="43.58485" lon="6.41686">
        <ele>606.8</ele>
        <time>2026-02-22T12:51:21Z</time>
      </trkpt>
      <trkpt lat="43.58485" lon="6.41686">
        <ele>606.8</ele>
        <time>2026-02-22T12:51:22Z</time>
      </trkpt>
      <trkpt lat="43.58485" lon="6.41686">
        <ele>606.8</ele>
        <time>2026-02-22T12:51:23Z</time>
      </trkpt>
      <trkpt lat="43.58485" lon="6.41686">
        <ele>606.8</ele>
        <time>2026-02-22T12:51:24Z</time>
      </trkpt>
      <trkpt lat="43.58485" lon="6.41686">
        <ele>606.8</ele>
        <time>2026-02-22T12:51:25Z</time>
      </trkpt>
      <trkpt lat="43.58485" lon="6.41686">
        <ele>606.8</ele>
        <time>2026-02-22T12:51:26Z</time>
      </trkpt>
      <trkpt lat="43.58485" lon="6.41686">
        <ele>606.9</ele>
        <time>2026-02-22T12:51:27Z</time>
      </trkpt>
      <trkpt lat="43.58485" lon="6.41686">
        <ele>606.9</ele>
        <time>2026-02-22T12:51:28Z</time>
      </trkpt>
      <trkpt lat="43.58485" lon="6.41686">
        <ele>606.9</ele>
        <time>2026-02-22T12:51:29Z</time>
      </trkpt>
      <trkpt lat="43.58485" lon="6.41686">
        <ele>606.9</ele>
        <time>2026-02-22T12:51:30Z</time>
      </trkpt>
      <trkpt lat="43.58485" lon="6.41686">
        <ele>606.9</ele>
        <time>2026-02-22T12:51:31Z</time>
      </trkpt>
      <trkpt lat="43.58485" lon="6.41686">
        <ele>607</ele>
        <time>2026-02-22T12:51:32Z</time>
      </trkpt>
      <trkpt lat="43.58485" lon="6.41686">
        <ele>607</ele>
        <time>2026-02-22T12:51:33Z</time>
      </trkpt>
      <trkpt lat="43.58485" lon="6.41686">
        <ele>607</ele>
        <time>2026-02-22T12:51:34Z</time>
      </trkpt>
      <trkpt lat="43.58485" lon="6.41686">
        <ele>607</ele>
        <time>2026-02-22T12:51:35Z</time>
      </trkpt>
      <trkpt lat="43.58485" lon="6.41686">
        <ele>607</ele>
        <time>2026-02-22T12:51:36Z</time>
      </trkpt>
      <trkpt lat="43.58485" lon="6.41686">
        <ele>607.1</ele>
        <time>2026-02-22T12:51:37Z</time>
      </trkpt>
      <trkpt lat="43.58485" lon="6.41686">
        <ele>607.1</ele>
        <time>2026-02-22T12:51:38Z</time>
      </trkpt>
      <trkpt lat="43.58485" lon="6.41686">
        <ele>607.2</ele>
        <time>2026-02-22T12:51:39Z</time>
      </trkpt>
      <trkpt lat="43.58486" lon="6.41686">
        <ele>607.2</ele>
        <time>2026-02-22T12:51:40Z</time>
      </trkpt>
      <trkpt lat="43.58486" lon="6.41686">
        <ele>607.3</ele>
        <time>2026-02-22T12:51:41Z</time>
      </trkpt>
      <trkpt lat="43.58486" lon="6.41686">
        <ele>607.3</ele>
        <time>2026-02-22T12:51:42Z</time>
      </trkpt>
      <trkpt lat="43.58486" lon="6.41686">
        <ele>607.3</ele>
        <time>2026-02-22T12:51:43Z</time>
      </trkpt>
      <trkpt lat="43.58486" lon="6.41686">
        <ele>607.2</ele>
        <time>2026-02-22T12:51:44Z</time>
      </trkpt>
      <trkpt lat="43.58486" lon="6.41686">
        <ele>607.1</ele>
        <time>2026-02-22T12:51:45Z</time>
      </trkpt>
      <trkpt lat="43.58486" lon="6.41686">
        <ele>607.1</ele>
        <time>2026-02-22T12:51:46Z</time>
      </trkpt>
      <trkpt lat="43.58486" lon="6.41686">
        <ele>607</ele>
        <time>2026-02-22T12:51:47Z</time>
      </trkpt>
      <trkpt lat="43.58486" lon="6.41686">
        <ele>607</ele>
        <time>2026-02-22T12:51:48Z</time>
      </trkpt>
      <trkpt lat="43.58486" lon="6.41686">
        <ele>606.9</ele>
        <time>2026-02-22T12:51:49Z</time>
      </trkpt>
      <trkpt lat="43.58486" lon="6.41686">
        <ele>606.9</ele>
        <time>2026-02-22T12:51:50Z</time>
      </trkpt>
      <trkpt lat="43.58486" lon="6.41686">
        <ele>606.8</ele>
        <time>2026-02-22T12:51:51Z</time>
      </trkpt>
      <trkpt lat="43.58486" lon="6.41686">
        <ele>606.8</ele>
        <time>2026-02-22T12:51:52Z</time>
      </trkpt>
      <trkpt lat="43.58486" lon="6.41686">
        <ele>606.8</ele>
        <time>2026-02-22T12:51:53Z</time>
      </trkpt>
      <trkpt lat="43.58486" lon="6.41686">
        <ele>606.8</ele>
        <time>2026-02-22T12:51:54Z</time>
      </trkpt>
      <trkpt lat="43.58486" lon="6.41686">
        <ele>606.7</ele>
        <time>2026-02-22T12:51:55Z</time>
      </trkpt>
      <trkpt lat="43.58486" lon="6.41685">
        <ele>606.7</ele>
        <time>2026-02-22T12:51:56Z</time>
      </trkpt>
      <trkpt lat="43.58486" lon="6.41686">
        <ele>606.7</ele>
        <time>2026-02-22T12:51:57Z</time>
      </trkpt>
      <trkpt lat="43.58486" lon="6.41686">
        <ele>606.8</ele>
        <time>2026-02-22T12:51:58Z</time>
      </trkpt>
      <trkpt lat="43.58486" lon="6.41686">
        <ele>606.8</ele>
        <time>2026-02-22T12:51:59Z</time>
      </trkpt>
      <trkpt lat="43.58486" lon="6.41686">
        <ele>606.7</ele>
        <time>2026-02-22T12:52:00Z</time>
      </trkpt>
      <trkpt lat="43.58486" lon="6.41686">
        <ele>606.7</ele>
        <time>2026-02-22T12:52:01Z</time>
      </trkpt>
      <trkpt lat="43.58486" lon="6.41685">
        <ele>606.7</ele>
        <time>2026-02-22T12:52:02Z</time>
      </trkpt>
      <trkpt lat="43.58486" lon="6.41685">
        <ele>606.7</ele>
        <time>2026-02-22T12:52:03Z</time>
      </trkpt>
      <trkpt lat="43.58486" lon="6.41685">
        <ele>606.7</ele>
        <time>2026-02-22T12:52:04Z</time>
      </trkpt>
      <trkpt lat="43.58486" lon="6.41685">
        <ele>606.8</ele>
        <time>2026-02-22T12:52:05Z</time>
      </trkpt>
      <trkpt lat="43.58486" lon="6.41685">
        <ele>606.7</ele>
        <time>2026-02-22T12:52:06Z</time>
      </trkpt>
      <trkpt lat="43.58486" lon="6.41685">
        <ele>606.6</ele>
        <time>2026-02-22T12:52:07Z</time>
      </trkpt>
      <trkpt lat="43.58486" lon="6.41685">
        <ele>606.6</ele>
        <time>2026-02-22T12:52:08Z</time>
      </trkpt>
      <trkpt lat="43.58486" lon="6.41685">
        <ele>606.5</ele>
        <time>2026-02-22T12:52:09Z</time>
      </trkpt>
      <trkpt lat="43.58486" lon="6.41685">
        <ele>606.5</ele>
        <time>2026-02-22T12:52:10Z</time>
      </trkpt>
      <trkpt lat="43.58486" lon="6.41685">
        <ele>606.5</ele>
        <time>2026-02-22T12:52:11Z</time>
      </trkpt>
      <trkpt lat="43.58486" lon="6.41685">
        <ele>606.5</ele>
        <time>2026-02-22T12:52:12Z</time>
      </trkpt>
      <trkpt lat="43.58486" lon="6.41685">
        <ele>606.5</ele>
        <time>2026-02-22T12:52:13Z</time>
      </trkpt>
      <trkpt lat="43.58486" lon="6.41685">
        <ele>606.5</ele>
        <time>2026-02-22T12:52:14Z</time>
      </trkpt>
      <trkpt lat="43.58486" lon="6.41685">
        <ele>606.5</ele>
        <time>2026-02-22T12:52:15Z</time>
      </trkpt>
      <trkpt lat="43.58486" lon="6.41685">
        <ele>606.5</ele>
        <time>2026-02-22T12:52:16Z</time>
      </trkpt>
      <trkpt lat="43.58486" lon="6.41685">
        <ele>606.5</ele>
        <time>2026-02-22T12:52:17Z</time>
      </trkpt>
      <trkpt lat="43.58486" lon="6.41685">
        <ele>606.6</ele>
        <time>2026-02-22T12:52:18Z</time>
      </trkpt>
      <trkpt lat="43.58486" lon="6.41685">
        <ele>606.7</ele>
        <time>2026-02-22T12:52:19Z</time>
      </trkpt>
      <trkpt lat="43.58486" lon="6.41684">
        <ele>606.6</ele>
        <time>2026-02-22T12:52:20Z</time>
      </trkpt>
      <trkpt lat="43.58486" lon="6.41684">
        <ele>606.6</ele>
        <time>2026-02-22T12:52:21Z</time>
      </trkpt>
      <trkpt lat="43.58486" lon="6.41684">
        <ele>606.6</ele>
        <time>2026-02-22T12:52:22Z</time>
      </trkpt>
      <trkpt lat="43.58486" lon="6.41684">
        <ele>606.6</ele>
        <time>2026-02-22T12:52:23Z</time>
      </trkpt>
      <trkpt lat="43.58486" lon="6.41684">
        <ele>606.6</ele>
        <time>2026-02-22T12:52:24Z</time>
      </trkpt>
      <trkpt lat="43.58486" lon="6.41684">
        <ele>606.6</ele>
        <time>2026-02-22T12:52:25Z</time>
      </trkpt>
      <trkpt lat="43.58486" lon="6.41684">
        <ele>606.5</ele>
        <time>2026-02-22T12:52:26Z</time>
      </trkpt>
      <trkpt lat="43.58486" lon="6.41684">
        <ele>606.5</ele>
        <time>2026-02-22T12:52:27Z</time>
      </trkpt>
      <trkpt lat="43.58486" lon="6.41684">
        <ele>606.4</ele>
        <time>2026-02-22T12:52:28Z</time>
      </trkpt>
      <trkpt lat="43.58486" lon="6.41684">
        <ele>606.3</ele>
        <time>2026-02-22T12:52:29Z</time>
      </trkpt>
      <trkpt lat="43.58486" lon="6.41684">
        <ele>606.3</ele>
        <time>2026-02-22T12:52:30Z</time>
      </trkpt>
      <trkpt lat="43.58486" lon="6.41684">
        <ele>606.3</ele>
        <time>2026-02-22T12:52:31Z</time>
      </trkpt>
      <trkpt lat="43.58486" lon="6.41684">
        <ele>606.3</ele>
        <time>2026-02-22T12:52:32Z</time>
      </trkpt>
      <trkpt lat="43.58486" lon="6.41684">
        <ele>606.2</ele>
        <time>2026-02-22T12:52:33Z</time>
      </trkpt>
      <trkpt lat="43.58486" lon="6.41684">
        <ele>606.2</ele>
        <time>2026-02-22T12:52:34Z</time>
      </trkpt>
      <trkpt lat="43.58487" lon="6.41683">
        <ele>606.3</ele>
        <time>2026-02-22T12:52:35Z</time>
      </trkpt>
      <trkpt lat="43.58487" lon="6.41682">
        <ele>606.3</ele>
        <time>2026-02-22T12:52:36Z</time>
      </trkpt>
      <trkpt lat="43.58486" lon="6.41682">
        <ele>606.4</ele>
        <time>2026-02-22T12:52:37Z</time>
      </trkpt>
      <trkpt lat="43.58486" lon="6.41682">
        <ele>606.4</ele>
        <time>2026-02-22T12:52:38Z</time>
      </trkpt>
      <trkpt lat="43.58486" lon="6.41682">
        <ele>606.5</ele>
        <time>2026-02-22T12:52:39Z</time>
      </trkpt>
      <trkpt lat="43.58486" lon="6.41682">
        <ele>606.6</ele>
        <time>2026-02-22T12:52:40Z</time>
      </trkpt>
      <trkpt lat="43.58486" lon="6.41682">
        <ele>606.7</ele>
        <time>2026-02-22T12:52:41Z</time>
      </trkpt>
      <trkpt lat="43.58486" lon="6.41682">
        <ele>606.7</ele>
        <time>2026-02-22T12:52:42Z</time>
      </trkpt>
      <trkpt lat="43.58486" lon="6.41682">
        <ele>606.7</ele>
        <time>2026-02-22T12:52:43Z</time>
      </trkpt>
      <trkpt lat="43.58486" lon="6.41682">
        <ele>606.7</ele>
        <time>2026-02-22T12:52:44Z</time>
      </trkpt>
      <trkpt lat="43.58486" lon="6.41682">
        <ele>606.7</ele>
        <time>2026-02-22T12:52:45Z</time>
      </trkpt>
      <trkpt lat="43.58486" lon="6.41682">
        <ele>606.6</ele>
        <time>2026-02-22T12:52:46Z</time>
      </trkpt>
      <trkpt lat="43.58486" lon="6.41682">
        <ele>606.6</ele>
        <time>2026-02-22T12:52:47Z</time>
      </trkpt>
      <trkpt lat="43.58486" lon="6.41682">
        <ele>606.5</ele>
        <time>2026-02-22T12:52:48Z</time>
      </trkpt>
      <trkpt lat="43.58486" lon="6.41682">
        <ele>606.5</ele>
        <time>2026-02-22T12:52:49Z</time>
      </trkpt>
      <trkpt lat="43.58486" lon="6.41682">
        <ele>606.5</ele>
        <time>2026-02-22T12:52:50Z</time>
      </trkpt>
      <trkpt lat="43.58486" lon="6.41683">
        <ele>606.6</ele>
        <time>2026-02-22T12:52:51Z</time>
      </trkpt>
      <trkpt lat="43.58486" lon="6.41683">
        <ele>606.6</ele>
        <time>2026-02-22T12:52:52Z</time>
      </trkpt>
      <trkpt lat="43.58486" lon="6.41683">
        <ele>606.6</ele>
        <time>2026-02-22T12:52:53Z</time>
      </trkpt>
      <trkpt lat="43.58485" lon="6.41683">
        <ele>606.7</ele>
        <time>2026-02-22T12:52:54Z</time>
      </trkpt>
      <trkpt lat="43.58484" lon="6.41684">
        <ele>606.7</ele>
        <time>2026-02-22T12:52:55Z</time>
      </trkpt>
      <trkpt lat="43.58483" lon="6.41684">
        <ele>606.7</ele>
        <time>2026-02-22T12:52:56Z</time>
      </trkpt>
      <trkpt lat="43.58483" lon="6.41684">
        <ele>606.8</ele>
        <time>2026-02-22T12:52:57Z</time>
      </trkpt>
      <trkpt lat="43.58482" lon="6.41684">
        <ele>606.8</ele>
        <time>2026-02-22T12:52:58Z</time>
      </trkpt>
      <trkpt lat="43.58482" lon="6.41684">
        <ele>607</ele>
        <time>2026-02-22T12:52:59Z</time>
      </trkpt>
      <trkpt lat="43.58481" lon="6.41683">
        <ele>607</ele>
        <time>2026-02-22T12:53:00Z</time>
      </trkpt>
      <trkpt lat="43.58481" lon="6.41683">
        <ele>607.1</ele>
        <time>2026-02-22T12:53:01Z</time>
      </trkpt>
      <trkpt lat="43.5848" lon="6.41682">
        <ele>607.3</ele>
        <time>2026-02-22T12:53:02Z</time>
      </trkpt>
      <trkpt lat="43.58479" lon="6.41682">
        <ele>607.5</ele>
        <time>2026-02-22T12:53:03Z</time>
      </trkpt>
      <trkpt lat="43.58479" lon="6.41682">
        <ele>607.7</ele>
        <time>2026-02-22T12:53:04Z</time>
      </trkpt>
      <trkpt lat="43.58478" lon="6.41682">
        <ele>607.7</ele>
        <time>2026-02-22T12:53:05Z</time>
      </trkpt>
      <trkpt lat="43.58478" lon="6.41683">
        <ele>607.8</ele>
        <time>2026-02-22T12:53:06Z</time>
      </trkpt>
      <trkpt lat="43.58477" lon="6.41683">
        <ele>607.8</ele>
        <time>2026-02-22T12:53:07Z</time>
      </trkpt>
      <trkpt lat="43.58477" lon="6.41684">
        <ele>607.8</ele>
        <time>2026-02-22T12:53:08Z</time>
      </trkpt>
      <trkpt lat="43.58476" lon="6.41684">
        <ele>607.9</ele>
        <time>2026-02-22T12:53:09Z</time>
      </trkpt>
      <trkpt lat="43.58476" lon="6.41684">
        <ele>607.9</ele>
        <time>2026-02-22T12:53:10Z</time>
      </trkpt>
      <trkpt lat="43.58476" lon="6.41684">
        <ele>608.1</ele>
        <time>2026-02-22T12:53:11Z</time>
      </trkpt>
      <trkpt lat="43.58476" lon="6.41684">
        <ele>608.1</ele>
        <time>2026-02-22T12:53:12Z</time>
      </trkpt>
      <trkpt lat="43.58476" lon="6.41685">
        <ele>608.1</ele>
        <time>2026-02-22T12:53:13Z</time>
      </trkpt>
      <trkpt lat="43.58476" lon="6.41685">
        <ele>608.2</ele>
        <time>2026-02-22T12:53:14Z</time>
      </trkpt>
      <trkpt lat="43.58476" lon="6.41685">
        <ele>608.1</ele>
        <time>2026-02-22T12:53:15Z</time>
      </trkpt>
      <trkpt lat="43.58476" lon="6.41685">
        <ele>608.1</ele>
        <time>2026-02-22T12:53:16Z</time>
      </trkpt>
      <trkpt lat="43.58476" lon="6.41685">
        <ele>608</ele>
        <time>2026-02-22T12:53:17Z</time>
      </trkpt>
      <trkpt lat="43.58476" lon="6.41685">
        <ele>608.2</ele>
        <time>2026-02-22T12:53:18Z</time>
      </trkpt>
      <trkpt lat="43.58476" lon="6.41685">
        <ele>608.2</ele>
        <time>2026-02-22T12:53:19Z</time>
      </trkpt>
      <trkpt lat="43.58476" lon="6.41685">
        <ele>608.3</ele>
        <time>2026-02-22T12:53:20Z</time>
      </trkpt>
      <trkpt lat="43.58476" lon="6.41685">
        <ele>608.3</ele>
        <time>2026-02-22T12:53:21Z</time>
      </trkpt>
      <trkpt lat="43.58476" lon="6.41685">
        <ele>608.3</ele>
        <time>2026-02-22T12:53:22Z</time>
      </trkpt>
      <trkpt lat="43.58476" lon="6.41685">
        <ele>608.3</ele>
        <time>2026-02-22T12:53:23Z</time>
      </trkpt>
      <trkpt lat="43.58476" lon="6.41685">
        <ele>608.2</ele>
        <time>2026-02-22T12:53:24Z</time>
      </trkpt>
      <trkpt lat="43.58476" lon="6.41685">
        <ele>608.1</ele>
        <time>2026-02-22T12:53:25Z</time>
      </trkpt>
      <trkpt lat="43.58476" lon="6.41685">
        <ele>608.2</ele>
        <time>2026-02-22T12:53:26Z</time>
      </trkpt>
      <trkpt lat="43.58476" lon="6.41685">
        <ele>608.2</ele>
        <time>2026-02-22T12:53:27Z</time>
      </trkpt>
      <trkpt lat="43.58476" lon="6.41685">
        <ele>608.1</ele>
        <time>2026-02-22T12:53:28Z</time>
      </trkpt>
      <trkpt lat="43.58476" lon="6.41685">
        <ele>608.3</ele>
        <time>2026-02-22T12:53:29Z</time>
      </trkpt>
      <trkpt lat="43.58476" lon="6.41685">
        <ele>608.3</ele>
        <time>2026-02-22T12:53:30Z</time>
      </trkpt>
      <trkpt lat="43.58476" lon="6.41685">
        <ele>608.2</ele>
        <time>2026-02-22T12:53:31Z</time>
      </trkpt>
      <trkpt lat="43.58475" lon="6.41685">
        <ele>608.1</ele>
        <time>2026-02-22T12:53:32Z</time>
      </trkpt>
      <trkpt lat="43.58475" lon="6.41685">
        <ele>608.1</ele>
        <time>2026-02-22T12:53:33Z</time>
      </trkpt>
      <trkpt lat="43.58474" lon="6.41685">
        <ele>608</ele>
        <time>2026-02-22T12:53:34Z</time>
      </trkpt>
      <trkpt lat="43.58473" lon="6.41685">
        <ele>607.9</ele>
        <time>2026-02-22T12:53:35Z</time>
      </trkpt>
      <trkpt lat="43.58473" lon="6.41684">
        <ele>607.8</ele>
        <time>2026-02-22T12:53:36Z</time>
      </trkpt>
      <trkpt lat="43.58472" lon="6.41684">
        <ele>607.8</ele>
        <time>2026-02-22T12:53:37Z</time>
      </trkpt>
      <trkpt lat="43.58472" lon="6.41683">
        <ele>607.9</ele>
        <time>2026-02-22T12:53:38Z</time>
      </trkpt>
      <trkpt lat="43.58471" lon="6.41684">
        <ele>607.9</ele>
        <time>2026-02-22T12:53:39Z</time>
      </trkpt>
      <trkpt lat="43.58471" lon="6.41684">
        <ele>607.8</ele>
        <time>2026-02-22T12:53:40Z</time>
      </trkpt>
      <trkpt lat="43.58471" lon="6.41684">
        <ele>607.8</ele>
        <time>2026-02-22T12:53:41Z</time>
      </trkpt>
      <trkpt lat="43.5847" lon="6.41684">
        <ele>607.9</ele>
        <time>2026-02-22T12:53:42Z</time>
      </trkpt>
      <trkpt lat="43.58469" lon="6.41684">
        <ele>607.9</ele>
        <time>2026-02-22T12:53:43Z</time>
      </trkpt>
      <trkpt lat="43.58469" lon="6.41684">
        <ele>607.9</ele>
        <time>2026-02-22T12:53:44Z</time>
      </trkpt>
      <trkpt lat="43.58468" lon="6.41683">
        <ele>608</ele>
        <time>2026-02-22T12:53:45Z</time>
      </trkpt>
      <trkpt lat="43.58467" lon="6.41683">
        <ele>608.1</ele>
        <time>2026-02-22T12:53:46Z</time>
      </trkpt>
      <trkpt lat="43.58467" lon="6.41683">
        <ele>608</ele>
        <time>2026-02-22T12:53:47Z</time>
      </trkpt>
      <trkpt lat="43.58467" lon="6.41683">
        <ele>608</ele>
        <time>2026-02-22T12:53:48Z</time>
      </trkpt>
      <trkpt lat="43.58467" lon="6.41683">
        <ele>607.9</ele>
        <time>2026-02-22T12:53:49Z</time>
      </trkpt>
      <trkpt lat="43.58467" lon="6.41683">
        <ele>607.9</ele>
        <time>2026-02-22T12:53:50Z</time>
      </trkpt>
      <trkpt lat="43.58467" lon="6.41684">
        <ele>608</ele>
        <time>2026-02-22T12:53:51Z</time>
      </trkpt>
      <trkpt lat="43.58467" lon="6.41684">
        <ele>608</ele>
        <time>2026-02-22T12:53:52Z</time>
      </trkpt>
      <trkpt lat="43.58467" lon="6.41684">
        <ele>608</ele>
        <time>2026-02-22T12:53:53Z</time>
      </trkpt>
      <trkpt lat="43.58467" lon="6.41683">
        <ele>608</ele>
        <time>2026-02-22T12:53:54Z</time>
      </trkpt>
      <trkpt lat="43.58466" lon="6.41683">
        <ele>607.9</ele>
        <time>2026-02-22T12:53:55Z</time>
      </trkpt>
      <trkpt lat="43.58465" lon="6.41682">
        <ele>607.8</ele>
        <time>2026-02-22T12:53:56Z</time>
      </trkpt>
      <trkpt lat="43.58465" lon="6.41682">
        <ele>607.7</ele>
        <time>2026-02-22T12:53:57Z</time>
      </trkpt>
      <trkpt lat="43.58465" lon="6.41682">
        <ele>607.7</ele>
        <time>2026-02-22T12:53:58Z</time>
      </trkpt>
      <trkpt lat="43.58465" lon="6.41682">
        <ele>607.7</ele>
        <time>2026-02-22T12:53:59Z</time>
      </trkpt>
      <trkpt lat="43.58465" lon="6.41682">
        <ele>607.7</ele>
        <time>2026-02-22T12:54:00Z</time>
      </trkpt>
      <trkpt lat="43.58465" lon="6.41682">
        <ele>607.7</ele>
        <time>2026-02-22T12:54:01Z</time>
      </trkpt>
      <trkpt lat="43.58465" lon="6.41682">
        <ele>607.7</ele>
        <time>2026-02-22T12:54:02Z</time>
      </trkpt>
      <trkpt lat="43.58465" lon="6.41682">
        <ele>607.7</ele>
        <time>2026-02-22T12:54:03Z</time>
      </trkpt>
      <trkpt lat="43.58465" lon="6.41682">
        <ele>607.6</ele>
        <time>2026-02-22T12:54:04Z</time>
      </trkpt>
      <trkpt lat="43.58465" lon="6.41682">
        <ele>607.7</ele>
        <time>2026-02-22T12:54:05Z</time>
      </trkpt>
      <trkpt lat="43.58465" lon="6.41682">
        <ele>607.7</ele>
        <time>2026-02-22T12:54:06Z</time>
      </trkpt>
      <trkpt lat="43.58465" lon="6.41682">
        <ele>607.8</ele>
        <time>2026-02-22T12:54:07Z</time>
      </trkpt>
      <trkpt lat="43.58465" lon="6.41682">
        <ele>607.8</ele>
        <time>2026-02-22T12:54:08Z</time>
      </trkpt>
      <trkpt lat="43.58465" lon="6.41682">
        <ele>607.8</ele>
        <time>2026-02-22T12:54:09Z</time>
      </trkpt>
      <trkpt lat="43.58465" lon="6.41682">
        <ele>607.7</ele>
        <time>2026-02-22T12:54:10Z</time>
      </trkpt>
      <trkpt lat="43.58465" lon="6.41682">
        <ele>607.7</ele>
        <time>2026-02-22T12:54:11Z</time>
      </trkpt>
      <trkpt lat="43.58465" lon="6.41681">
        <ele>607.7</ele>
        <time>2026-02-22T12:54:12Z</time>
      </trkpt>
      <trkpt lat="43.58465" lon="6.41681">
        <ele>607.7</ele>
        <time>2026-02-22T12:54:13Z</time>
      </trkpt>
      <trkpt lat="43.58465" lon="6.41681">
        <ele>607.6</ele>
        <time>2026-02-22T12:54:14Z</time>
      </trkpt>
      <trkpt lat="43.58464" lon="6.41681">
        <ele>607.6</ele>
        <time>2026-02-22T12:54:15Z</time>
      </trkpt>
      <trkpt lat="43.58464" lon="6.41681">
        <ele>607.6</ele>
        <time>2026-02-22T12:54:16Z</time>
      </trkpt>
      <trkpt lat="43.58463" lon="6.41681">
        <ele>607.5</ele>
        <time>2026-02-22T12:54:17Z</time>
      </trkpt>
      <trkpt lat="43.58463" lon="6.4168">
        <ele>607.5</ele>
        <time>2026-02-22T12:54:18Z</time>
      </trkpt>
      <trkpt lat="43.58463" lon="6.41679">
        <ele>607.9</ele>
        <time>2026-02-22T12:54:19Z</time>
      </trkpt>
      <trkpt lat="43.58463" lon="6.41679">
        <ele>607.9</ele>
        <time>2026-02-22T12:54:20Z</time>
      </trkpt>
      <trkpt lat="43.58463" lon="6.41679">
        <ele>608</ele>
        <time>2026-02-22T12:54:21Z</time>
      </trkpt>
      <trkpt lat="43.58463" lon="6.41679">
        <ele>608</ele>
        <time>2026-02-22T12:54:22Z</time>
      </trkpt>
      <trkpt lat="43.58463" lon="6.41679">
        <ele>608</ele>
        <time>2026-02-22T12:54:23Z</time>
      </trkpt>
      <trkpt lat="43.58463" lon="6.41679">
        <ele>607.9</ele>
        <time>2026-02-22T12:54:24Z</time>
      </trkpt>
      <trkpt lat="43.58462" lon="6.41679">
        <ele>607.9</ele>
        <time>2026-02-22T12:54:25Z</time>
      </trkpt>
      <trkpt lat="43.58462" lon="6.41679">
        <ele>607.9</ele>
        <time>2026-02-22T12:54:26Z</time>
      </trkpt>
      <trkpt lat="43.58462" lon="6.41679">
        <ele>607.9</ele>
        <time>2026-02-22T12:54:27Z</time>
      </trkpt>
      <trkpt lat="43.58462" lon="6.41679">
        <ele>607.9</ele>
        <time>2026-02-22T12:54:28Z</time>
      </trkpt>
      <trkpt lat="43.58462" lon="6.41679">
        <ele>607.9</ele>
        <time>2026-02-22T12:54:29Z</time>
      </trkpt>
      <trkpt lat="43.58462" lon="6.41679">
        <ele>608</ele>
        <time>2026-02-22T12:54:30Z</time>
      </trkpt>
      <trkpt lat="43.58462" lon="6.41679">
        <ele>608</ele>
        <time>2026-02-22T12:54:31Z</time>
      </trkpt>
      <trkpt lat="43.58462" lon="6.41679">
        <ele>608</ele>
        <time>2026-02-22T12:54:32Z</time>
      </trkpt>
      <trkpt lat="43.58462" lon="6.41679">
        <ele>608.1</ele>
        <time>2026-02-22T12:54:33Z</time>
      </trkpt>
      <trkpt lat="43.58462" lon="6.41679">
        <ele>608.1</ele>
        <time>2026-02-22T12:54:34Z</time>
      </trkpt>
      <trkpt lat="43.58462" lon="6.41679">
        <ele>608.1</ele>
        <time>2026-02-22T12:54:35Z</time>
      </trkpt>
      <trkpt lat="43.58462" lon="6.41679">
        <ele>608.1</ele>
        <time>2026-02-22T12:54:36Z</time>
      </trkpt>
      <trkpt lat="43.58462" lon="6.41679">
        <ele>608</ele>
        <time>2026-02-22T12:54:37Z</time>
      </trkpt>
      <trkpt lat="43.58462" lon="6.41679">
        <ele>607.9</ele>
        <time>2026-02-22T12:54:38Z</time>
      </trkpt>
      <trkpt lat="43.58462" lon="6.41679">
        <ele>607.8</ele>
        <time>2026-02-22T12:54:39Z</time>
      </trkpt>
      <trkpt lat="43.58462" lon="6.41679">
        <ele>607.7</ele>
        <time>2026-02-22T12:54:40Z</time>
      </trkpt>
      <trkpt lat="43.58462" lon="6.41679">
        <ele>607.7</ele>
        <time>2026-02-22T12:54:41Z</time>
      </trkpt>
      <trkpt lat="43.58461" lon="6.41679">
        <ele>607.6</ele>
        <time>2026-02-22T12:54:42Z</time>
      </trkpt>
      <trkpt lat="43.58461" lon="6.41679">
        <ele>607.6</ele>
        <time>2026-02-22T12:54:43Z</time>
      </trkpt>
      <trkpt lat="43.58461" lon="6.41679">
        <ele>607.6</ele>
        <time>2026-02-22T12:54:44Z</time>
      </trkpt>
      <trkpt lat="43.58461" lon="6.41679">
        <ele>607.6</ele>
        <time>2026-02-22T12:54:45Z</time>
      </trkpt>
      <trkpt lat="43.58461" lon="6.41679">
        <ele>607.6</ele>
        <time>2026-02-22T12:54:46Z</time>
      </trkpt>
      <trkpt lat="43.58461" lon="6.41679">
        <ele>607.6</ele>
        <time>2026-02-22T12:54:47Z</time>
      </trkpt>
      <trkpt lat="43.58462" lon="6.41679">
        <ele>607.7</ele>
        <time>2026-02-22T12:54:48Z</time>
      </trkpt>
      <trkpt lat="43.58462" lon="6.41679">
        <ele>607.7</ele>
        <time>2026-02-22T12:54:49Z</time>
      </trkpt>
      <trkpt lat="43.58462" lon="6.41678">
        <ele>607.6</ele>
        <time>2026-02-22T12:54:50Z</time>
      </trkpt>
      <trkpt lat="43.58461" lon="6.41678">
        <ele>607.5</ele>
        <time>2026-02-22T12:54:51Z</time>
      </trkpt>
      <trkpt lat="43.58461" lon="6.41678">
        <ele>607.4</ele>
        <time>2026-02-22T12:54:52Z</time>
      </trkpt>
      <trkpt lat="43.58461" lon="6.41678">
        <ele>607.4</ele>
        <time>2026-02-22T12:54:53Z</time>
      </trkpt>
      <trkpt lat="43.58461" lon="6.41678">
        <ele>607.4</ele>
        <time>2026-02-22T12:54:54Z</time>
      </trkpt>
      <trkpt lat="43.58461" lon="6.41678">
        <ele>607.4</ele>
        <time>2026-02-22T12:54:55Z</time>
      </trkpt>
      <trkpt lat="43.5846" lon="6.41678">
        <ele>607.3</ele>
        <time>2026-02-22T12:54:56Z</time>
      </trkpt>
      <trkpt lat="43.5846" lon="6.41678">
        <ele>607.3</ele>
        <time>2026-02-22T12:54:57Z</time>
      </trkpt>
      <trkpt lat="43.58459" lon="6.41678">
        <ele>607.3</ele>
        <time>2026-02-22T12:54:58Z</time>
      </trkpt>
      <trkpt lat="43.58459" lon="6.41678">
        <ele>607.3</ele>
        <time>2026-02-22T12:54:59Z</time>
      </trkpt>
      <trkpt lat="43.58459" lon="6.41679">
        <ele>607.3</ele>
        <time>2026-02-22T12:55:00Z</time>
      </trkpt>
      <trkpt lat="43.5846" lon="6.41679">
        <ele>607.3</ele>
        <time>2026-02-22T12:55:01Z</time>
      </trkpt>
      <trkpt lat="43.5846" lon="6.41679">
        <ele>607.3</ele>
        <time>2026-02-22T12:55:02Z</time>
      </trkpt>
      <trkpt lat="43.5846" lon="6.41679">
        <ele>607.2</ele>
        <time>2026-02-22T12:55:03Z</time>
      </trkpt>
      <trkpt lat="43.5846" lon="6.41679">
        <ele>607.2</ele>
        <time>2026-02-22T12:55:04Z</time>
      </trkpt>
      <trkpt lat="43.5846" lon="6.41679">
        <ele>607.2</ele>
        <time>2026-02-22T12:55:05Z</time>
      </trkpt>
      <trkpt lat="43.5846" lon="6.41679">
        <ele>607.2</ele>
        <time>2026-02-22T12:55:06Z</time>
      </trkpt>
      <trkpt lat="43.5846" lon="6.41679">
        <ele>607.1</ele>
        <time>2026-02-22T12:55:07Z</time>
      </trkpt>
      <trkpt lat="43.5846" lon="6.41679">
        <ele>607.1</ele>
        <time>2026-02-22T12:55:08Z</time>
      </trkpt>
      <trkpt lat="43.5846" lon="6.41679">
        <ele>607.3</ele>
        <time>2026-02-22T12:55:09Z</time>
      </trkpt>
      <trkpt lat="43.5846" lon="6.41679">
        <ele>607.3</ele>
        <time>2026-02-22T12:55:10Z</time>
      </trkpt>
      <trkpt lat="43.5846" lon="6.41679">
        <ele>607.5</ele>
        <time>2026-02-22T12:55:11Z</time>
      </trkpt>
      <trkpt lat="43.5846" lon="6.41679">
        <ele>607.6</ele>
        <time>2026-02-22T12:55:12Z</time>
      </trkpt>
      <trkpt lat="43.5846" lon="6.41679">
        <ele>607.6</ele>
        <time>2026-02-22T12:55:13Z</time>
      </trkpt>
      <trkpt lat="43.5846" lon="6.41679">
        <ele>607.6</ele>
        <time>2026-02-22T12:55:14Z</time>
      </trkpt>
      <trkpt lat="43.5846" lon="6.41679">
        <ele>607.6</ele>
        <time>2026-02-22T12:55:15Z</time>
      </trkpt>
      <trkpt lat="43.5846" lon="6.41679">
        <ele>607.5</ele>
        <time>2026-02-22T12:55:16Z</time>
      </trkpt>
      <trkpt lat="43.5846" lon="6.41679">
        <ele>607.4</ele>
        <time>2026-02-22T12:55:17Z</time>
      </trkpt>
      <trkpt lat="43.5846" lon="6.41679">
        <ele>607.3</ele>
        <time>2026-02-22T12:55:18Z</time>
      </trkpt>
      <trkpt lat="43.5846" lon="6.41679">
        <ele>607.3</ele>
        <time>2026-02-22T12:55:19Z</time>
      </trkpt>
      <trkpt lat="43.5846" lon="6.41679">
        <ele>607.3</ele>
        <time>2026-02-22T12:55:20Z</time>
      </trkpt>
      <trkpt lat="43.5846" lon="6.41679">
        <ele>607.3</ele>
        <time>2026-02-22T12:55:21Z</time>
      </trkpt>
      <trkpt lat="43.5846" lon="6.41679">
        <ele>607.3</ele>
        <time>2026-02-22T12:55:22Z</time>
      </trkpt>
      <trkpt lat="43.5846" lon="6.41679">
        <ele>607.3</ele>
        <time>2026-02-22T12:55:23Z</time>
      </trkpt>
      <trkpt lat="43.5846" lon="6.41679">
        <ele>607.3</ele>
        <time>2026-02-22T12:55:24Z</time>
      </trkpt>
      <trkpt lat="43.5846" lon="6.4168">
        <ele>607.3</ele>
        <time>2026-02-22T12:55:25Z</time>
      </trkpt>
      <trkpt lat="43.5846" lon="6.4168">
        <ele>607.3</ele>
        <time>2026-02-22T12:55:26Z</time>
      </trkpt>
      <trkpt lat="43.5846" lon="6.4168">
        <ele>607.4</ele>
        <time>2026-02-22T12:55:27Z</time>
      </trkpt>
      <trkpt lat="43.5846" lon="6.4168">
        <ele>607.4</ele>
        <time>2026-02-22T12:55:28Z</time>
      </trkpt>
      <trkpt lat="43.5846" lon="6.4168">
        <ele>607.4</ele>
        <time>2026-02-22T12:55:29Z</time>
      </trkpt>
      <trkpt lat="43.5846" lon="6.4168">
        <ele>607.4</ele>
        <time>2026-02-22T12:55:30Z</time>
      </trkpt>
      <trkpt lat="43.5846" lon="6.4168">
        <ele>607.4</ele>
        <time>2026-02-22T12:55:31Z</time>
      </trkpt>
      <trkpt lat="43.5846" lon="6.4168">
        <ele>607.5</ele>
        <time>2026-02-22T12:55:32Z</time>
      </trkpt>
      <trkpt lat="43.5846" lon="6.41681">
        <ele>607.4</ele>
        <time>2026-02-22T12:55:33Z</time>
      </trkpt>
      <trkpt lat="43.5846" lon="6.4168">
        <ele>607.4</ele>
        <time>2026-02-22T12:55:34Z</time>
      </trkpt>
      <trkpt lat="43.5846" lon="6.4168">
        <ele>607.4</ele>
        <time>2026-02-22T12:55:35Z</time>
      </trkpt>
      <trkpt lat="43.5846" lon="6.4168">
        <ele>607.5</ele>
        <time>2026-02-22T12:55:36Z</time>
      </trkpt>
      <trkpt lat="43.5846" lon="6.4168">
        <ele>607.5</ele>
        <time>2026-02-22T12:55:37Z</time>
      </trkpt>
      <trkpt lat="43.5846" lon="6.41679">
        <ele>607.5</ele>
        <time>2026-02-22T12:55:38Z</time>
      </trkpt>
      <trkpt lat="43.5846" lon="6.41679">
        <ele>607.4</ele>
        <time>2026-02-22T12:55:39Z</time>
      </trkpt>
      <trkpt lat="43.58459" lon="6.41679">
        <ele>607.2</ele>
        <time>2026-02-22T12:55:40Z</time>
      </trkpt>
      <trkpt lat="43.58459" lon="6.41679">
        <ele>607.1</ele>
        <time>2026-02-22T12:55:41Z</time>
      </trkpt>
      <trkpt lat="43.58459" lon="6.41678">
        <ele>606.9</ele>
        <time>2026-02-22T12:55:42Z</time>
      </trkpt>
      <trkpt lat="43.58459" lon="6.41678">
        <ele>606.8</ele>
        <time>2026-02-22T12:55:43Z</time>
      </trkpt>
      <trkpt lat="43.58459" lon="6.41677">
        <ele>606.7</ele>
        <time>2026-02-22T12:55:44Z</time>
      </trkpt>
      <trkpt lat="43.58458" lon="6.41676">
        <ele>606.7</ele>
        <time>2026-02-22T12:55:45Z</time>
      </trkpt>
      <trkpt lat="43.58458" lon="6.41675">
        <ele>606.6</ele>
        <time>2026-02-22T12:55:46Z</time>
      </trkpt>
      <trkpt lat="43.58457" lon="6.41675">
        <ele>606.6</ele>
        <time>2026-02-22T12:55:47Z</time>
      </trkpt>
      <trkpt lat="43.58456" lon="6.41674">
        <ele>606.4</ele>
        <time>2026-02-22T12:55:48Z</time>
      </trkpt>
      <trkpt lat="43.58456" lon="6.41673">
        <ele>606.3</ele>
        <time>2026-02-22T12:55:49Z</time>
      </trkpt>
      <trkpt lat="43.58455" lon="6.41673">
        <ele>606.3</ele>
        <time>2026-02-22T12:55:50Z</time>
      </trkpt>
      <trkpt lat="43.58455" lon="6.41672">
        <ele>606.2</ele>
        <time>2026-02-22T12:55:51Z</time>
      </trkpt>
      <trkpt lat="43.58454" lon="6.41672">
        <ele>606.2</ele>
        <time>2026-02-22T12:55:52Z</time>
      </trkpt>
      <trkpt lat="43.58454" lon="6.41671">
        <ele>606.1</ele>
        <time>2026-02-22T12:55:53Z</time>
      </trkpt>
      <trkpt lat="43.58453" lon="6.4167">
        <ele>606</ele>
        <time>2026-02-22T12:55:54Z</time>
      </trkpt>
      <trkpt lat="43.58453" lon="6.4167">
        <ele>605.9</ele>
        <time>2026-02-22T12:55:55Z</time>
      </trkpt>
      <trkpt lat="43.58453" lon="6.41669">
        <ele>605.9</ele>
        <time>2026-02-22T12:55:56Z</time>
      </trkpt>
      <trkpt lat="43.58453" lon="6.41669">
        <ele>605.8</ele>
        <time>2026-02-22T12:55:57Z</time>
      </trkpt>
      <trkpt lat="43.58453" lon="6.41668">
        <ele>605.7</ele>
        <time>2026-02-22T12:55:58Z</time>
      </trkpt>
      <trkpt lat="43.58452" lon="6.41667">
        <ele>605.5</ele>
        <time>2026-02-22T12:55:59Z</time>
      </trkpt>
      <trkpt lat="43.58452" lon="6.41666">
        <ele>605.4</ele>
        <time>2026-02-22T12:56:00Z</time>
      </trkpt>
      <trkpt lat="43.58452" lon="6.41665">
        <ele>605.4</ele>
        <time>2026-02-22T12:56:01Z</time>
      </trkpt>
      <trkpt lat="43.58453" lon="6.41664">
        <ele>605.3</ele>
        <time>2026-02-22T12:56:02Z</time>
      </trkpt>
      <trkpt lat="43.58453" lon="6.41663">
        <ele>605.3</ele>
        <time>2026-02-22T12:56:03Z</time>
      </trkpt>
      <trkpt lat="43.58452" lon="6.41663">
        <ele>605.3</ele>
        <time>2026-02-22T12:56:04Z</time>
      </trkpt>
      <trkpt lat="43.58452" lon="6.41663">
        <ele>605.3</ele>
        <time>2026-02-22T12:56:05Z</time>
      </trkpt>
      <trkpt lat="43.58452" lon="6.41663">
        <ele>605.3</ele>
        <time>2026-02-22T12:56:06Z</time>
      </trkpt>
      <trkpt lat="43.58452" lon="6.41662">
        <ele>605.4</ele>
        <time>2026-02-22T12:56:07Z</time>
      </trkpt>
      <trkpt lat="43.58452" lon="6.41662">
        <ele>605.4</ele>
        <time>2026-02-22T12:56:08Z</time>
      </trkpt>
      <trkpt lat="43.58452" lon="6.41662">
        <ele>605.4</ele>
        <time>2026-02-22T12:56:09Z</time>
      </trkpt>
      <trkpt lat="43.58452" lon="6.41662">
        <ele>605.4</ele>
        <time>2026-02-22T12:56:10Z</time>
      </trkpt>
      <trkpt lat="43.58452" lon="6.41662">
        <ele>605.3</ele>
        <time>2026-02-22T12:56:11Z</time>
      </trkpt>
      <trkpt lat="43.58452" lon="6.41662">
        <ele>605.4</ele>
        <time>2026-02-22T12:56:12Z</time>
      </trkpt>
      <trkpt lat="43.58453" lon="6.41662">
        <ele>605.4</ele>
        <time>2026-02-22T12:56:13Z</time>
      </trkpt>
      <trkpt lat="43.58453" lon="6.41662">
        <ele>605.5</ele>
        <time>2026-02-22T12:56:14Z</time>
      </trkpt>
      <trkpt lat="43.58453" lon="6.41662">
        <ele>605.5</ele>
        <time>2026-02-22T12:56:15Z</time>
      </trkpt>
      <trkpt lat="43.58453" lon="6.41661">
        <ele>605.5</ele>
        <time>2026-02-22T12:56:16Z</time>
      </trkpt>
      <trkpt lat="43.58453" lon="6.41661">
        <ele>605.1</ele>
        <time>2026-02-22T12:56:17Z</time>
      </trkpt>
      <trkpt lat="43.58453" lon="6.4166">
        <ele>605.1</ele>
        <time>2026-02-22T12:56:18Z</time>
      </trkpt>
      <trkpt lat="43.58453" lon="6.41659">
        <ele>605.2</ele>
        <time>2026-02-22T12:56:19Z</time>
      </trkpt>
      <trkpt lat="43.58453" lon="6.41659">
        <ele>605.2</ele>
        <time>2026-02-22T12:56:20Z</time>
      </trkpt>
      <trkpt lat="43.58453" lon="6.41659">
        <ele>605.2</ele>
        <time>2026-02-22T12:56:21Z</time>
      </trkpt>
      <trkpt lat="43.58454" lon="6.41658">
        <ele>605.1</ele>
        <time>2026-02-22T12:56:22Z</time>
      </trkpt>
      <trkpt lat="43.58454" lon="6.41657">
        <ele>605.2</ele>
        <time>2026-02-22T12:56:23Z</time>
      </trkpt>
      <trkpt lat="43.58455" lon="6.41656">
        <ele>605.3</ele>
        <time>2026-02-22T12:56:24Z</time>
      </trkpt>
      <trkpt lat="43.58455" lon="6.41655">
        <ele>605.3</ele>
        <time>2026-02-22T12:56:25Z</time>
      </trkpt>
      <trkpt lat="43.58455" lon="6.41654">
        <ele>605.3</ele>
        <time>2026-02-22T12:56:26Z</time>
      </trkpt>
      <trkpt lat="43.58455" lon="6.41653">
        <ele>605.3</ele>
        <time>2026-02-22T12:56:27Z</time>
      </trkpt>
      <trkpt lat="43.58455" lon="6.41652">
        <ele>605.3</ele>
        <time>2026-02-22T12:56:28Z</time>
      </trkpt>
      <trkpt lat="43.58455" lon="6.41652">
        <ele>605.3</ele>
        <time>2026-02-22T12:56:29Z</time>
      </trkpt>
      <trkpt lat="43.58456" lon="6.41652">
        <ele>605.3</ele>
        <time>2026-02-22T12:56:30Z</time>
      </trkpt>
      <trkpt lat="43.58456" lon="6.41651">
        <ele>605.4</ele>
        <time>2026-02-22T12:56:31Z</time>
      </trkpt>
      <trkpt lat="43.58457" lon="6.41651">
        <ele>605.5</ele>
        <time>2026-02-22T12:56:32Z</time>
      </trkpt>
      <trkpt lat="43.58457" lon="6.41651">
        <ele>605.5</ele>
        <time>2026-02-22T12:56:33Z</time>
      </trkpt>
      <trkpt lat="43.58457" lon="6.4165">
        <ele>605.6</ele>
        <time>2026-02-22T12:56:34Z</time>
      </trkpt>
      <trkpt lat="43.58458" lon="6.41649">
        <ele>605.7</ele>
        <time>2026-02-22T12:56:35Z</time>
      </trkpt>
      <trkpt lat="43.58458" lon="6.41648">
        <ele>605.8</ele>
        <time>2026-02-22T12:56:36Z</time>
      </trkpt>
      <trkpt lat="43.58457" lon="6.41647">
        <ele>605.8</ele>
        <time>2026-02-22T12:56:37Z</time>
      </trkpt>
      <trkpt lat="43.58457" lon="6.41646">
        <ele>605.8</ele>
        <time>2026-02-22T12:56:38Z</time>
      </trkpt>
      <trkpt lat="43.58457" lon="6.41645">
        <ele>605.8</ele>
        <time>2026-02-22T12:56:39Z</time>
      </trkpt>
      <trkpt lat="43.58457" lon="6.41645">
        <ele>605.8</ele>
        <time>2026-02-22T12:56:40Z</time>
      </trkpt>
      <trkpt lat="43.58456" lon="6.41645">
        <ele>605.8</ele>
        <time>2026-02-22T12:56:41Z</time>
      </trkpt>
      <trkpt lat="43.58456" lon="6.41645">
        <ele>605.8</ele>
        <time>2026-02-22T12:56:42Z</time>
      </trkpt>
      <trkpt lat="43.58456" lon="6.41645">
        <ele>605.9</ele>
        <time>2026-02-22T12:56:43Z</time>
      </trkpt>
      <trkpt lat="43.58456" lon="6.41644">
        <ele>605.7</ele>
        <time>2026-02-22T12:56:44Z</time>
      </trkpt>
      <trkpt lat="43.58456" lon="6.41643">
        <ele>605.7</ele>
        <time>2026-02-22T12:56:45Z</time>
      </trkpt>
      <trkpt lat="43.58456" lon="6.41642">
        <ele>605.7</ele>
        <time>2026-02-22T12:56:46Z</time>
      </trkpt>
      <trkpt lat="43.58456" lon="6.41641">
        <ele>605.6</ele>
        <time>2026-02-22T12:56:47Z</time>
      </trkpt>
      <trkpt lat="43.58456" lon="6.41639">
        <ele>605.6</ele>
        <time>2026-02-22T12:56:48Z</time>
      </trkpt>
      <trkpt lat="43.58456" lon="6.41638">
        <ele>605.6</ele>
        <time>2026-02-22T12:56:49Z</time>
      </trkpt>
      <trkpt lat="43.58455" lon="6.41637">
        <ele>605.5</ele>
        <time>2026-02-22T12:56:50Z</time>
      </trkpt>
      <trkpt lat="43.58455" lon="6.41637">
        <ele>605.5</ele>
        <time>2026-02-22T12:56:51Z</time>
      </trkpt>
      <trkpt lat="43.58455" lon="6.41636">
        <ele>605.4</ele>
        <time>2026-02-22T12:56:52Z</time>
      </trkpt>
      <trkpt lat="43.58454" lon="6.41636">
        <ele>605.4</ele>
        <time>2026-02-22T12:56:53Z</time>
      </trkpt>
      <trkpt lat="43.58454" lon="6.41635">
        <ele>605.3</ele>
        <time>2026-02-22T12:56:54Z</time>
      </trkpt>
      <trkpt lat="43.58454" lon="6.41634">
        <ele>605.1</ele>
        <time>2026-02-22T12:56:55Z</time>
      </trkpt>
      <trkpt lat="43.58453" lon="6.41633">
        <ele>605</ele>
        <time>2026-02-22T12:56:56Z</time>
      </trkpt>
      <trkpt lat="43.58453" lon="6.41632">
        <ele>604.9</ele>
        <time>2026-02-22T12:56:57Z</time>
      </trkpt>
      <trkpt lat="43.58453" lon="6.41631">
        <ele>604.8</ele>
        <time>2026-02-22T12:56:58Z</time>
      </trkpt>
      <trkpt lat="43.58453" lon="6.4163">
        <ele>604.7</ele>
        <time>2026-02-22T12:56:59Z</time>
      </trkpt>
      <trkpt lat="43.58453" lon="6.41629">
        <ele>604.7</ele>
        <time>2026-02-22T12:57:00Z</time>
      </trkpt>
      <trkpt lat="43.58453" lon="6.41629">
        <ele>604.6</ele>
        <time>2026-02-22T12:57:01Z</time>
      </trkpt>
      <trkpt lat="43.58452" lon="6.41628">
        <ele>604.6</ele>
        <time>2026-02-22T12:57:02Z</time>
      </trkpt>
      <trkpt lat="43.58452" lon="6.41627">
        <ele>604.6</ele>
        <time>2026-02-22T12:57:03Z</time>
      </trkpt>
      <trkpt lat="43.58451" lon="6.41627">
        <ele>604.6</ele>
        <time>2026-02-22T12:57:04Z</time>
      </trkpt>
      <trkpt lat="43.58451" lon="6.41626">
        <ele>604.4</ele>
        <time>2026-02-22T12:57:05Z</time>
      </trkpt>
      <trkpt lat="43.58451" lon="6.41625">
        <ele>604.3</ele>
        <time>2026-02-22T12:57:06Z</time>
      </trkpt>
      <trkpt lat="43.5845" lon="6.41624">
        <ele>604.1</ele>
        <time>2026-02-22T12:57:07Z</time>
      </trkpt>
      <trkpt lat="43.5845" lon="6.41623">
        <ele>604</ele>
        <time>2026-02-22T12:57:08Z</time>
      </trkpt>
      <trkpt lat="43.5845" lon="6.41622">
        <ele>604</ele>
        <time>2026-02-22T12:57:09Z</time>
      </trkpt>
      <trkpt lat="43.5845" lon="6.41621">
        <ele>603.8</ele>
        <time>2026-02-22T12:57:10Z</time>
      </trkpt>
      <trkpt lat="43.58449" lon="6.4162">
        <ele>603.7</ele>
        <time>2026-02-22T12:57:11Z</time>
      </trkpt>
      <trkpt lat="43.58449" lon="6.41619">
        <ele>603.6</ele>
        <time>2026-02-22T12:57:12Z</time>
      </trkpt>
      <trkpt lat="43.58448" lon="6.41617">
        <ele>603.5</ele>
        <time>2026-02-22T12:57:13Z</time>
      </trkpt>
      <trkpt lat="43.58448" lon="6.41616">
        <ele>603.4</ele>
        <time>2026-02-22T12:57:14Z</time>
      </trkpt>
      <trkpt lat="43.58447" lon="6.41615">
        <ele>603.3</ele>
        <time>2026-02-22T12:57:15Z</time>
      </trkpt>
      <trkpt lat="43.58447" lon="6.41614">
        <ele>603.1</ele>
        <time>2026-02-22T12:57:16Z</time>
      </trkpt>
      <trkpt lat="43.58446" lon="6.41613">
        <ele>603</ele>
        <time>2026-02-22T12:57:17Z</time>
      </trkpt>
      <trkpt lat="43.58446" lon="6.41612">
        <ele>603</ele>
        <time>2026-02-22T12:57:18Z</time>
      </trkpt>
      <trkpt lat="43.58445" lon="6.41611">
        <ele>602.9</ele>
        <time>2026-02-22T12:57:19Z</time>
      </trkpt>
      <trkpt lat="43.58445" lon="6.4161">
        <ele>602.8</ele>
        <time>2026-02-22T12:57:20Z</time>
      </trkpt>
      <trkpt lat="43.58445" lon="6.41609">
        <ele>602.8</ele>
        <time>2026-02-22T12:57:21Z</time>
      </trkpt>
      <trkpt lat="43.58444" lon="6.41609">
        <ele>602.7</ele>
        <time>2026-02-22T12:57:22Z</time>
      </trkpt>
      <trkpt lat="43.58444" lon="6.41607">
        <ele>602.6</ele>
        <time>2026-02-22T12:57:23Z</time>
      </trkpt>
      <trkpt lat="43.58444" lon="6.41606">
        <ele>602.6</ele>
        <time>2026-02-22T12:57:24Z</time>
      </trkpt>
      <trkpt lat="43.58444" lon="6.41606">
        <ele>602.6</ele>
        <time>2026-02-22T12:57:25Z</time>
      </trkpt>
      <trkpt lat="43.58444" lon="6.41604">
        <ele>602.6</ele>
        <time>2026-02-22T12:57:26Z</time>
      </trkpt>
      <trkpt lat="43.58443" lon="6.41603">
        <ele>602.7</ele>
        <time>2026-02-22T12:57:27Z</time>
      </trkpt>
      <trkpt lat="43.58443" lon="6.41602">
        <ele>602.6</ele>
        <time>2026-02-22T12:57:28Z</time>
      </trkpt>
      <trkpt lat="43.58443" lon="6.416">
        <ele>602.7</ele>
        <time>2026-02-22T12:57:29Z</time>
      </trkpt>
      <trkpt lat="43.58442" lon="6.41599">
        <ele>602.7</ele>
        <time>2026-02-22T12:57:30Z</time>
      </trkpt>
      <trkpt lat="43.58442" lon="6.41597">
        <ele>602.8</ele>
        <time>2026-02-22T12:57:31Z</time>
      </trkpt>
      <trkpt lat="43.58442" lon="6.41596">
        <ele>602.8</ele>
        <time>2026-02-22T12:57:32Z</time>
      </trkpt>
      <trkpt lat="43.58442" lon="6.41595">
        <ele>602.8</ele>
        <time>2026-02-22T12:57:33Z</time>
      </trkpt>
      <trkpt lat="43.58443" lon="6.41594">
        <ele>602.9</ele>
        <time>2026-02-22T12:57:34Z</time>
      </trkpt>
      <trkpt lat="43.58443" lon="6.41593">
        <ele>603</ele>
        <time>2026-02-22T12:57:35Z</time>
      </trkpt>
      <trkpt lat="43.58443" lon="6.41591">
        <ele>603</ele>
        <time>2026-02-22T12:57:36Z</time>
      </trkpt>
      <trkpt lat="43.58443" lon="6.4159">
        <ele>603.1</ele>
        <time>2026-02-22T12:57:37Z</time>
      </trkpt>
      <trkpt lat="43.58443" lon="6.41589">
        <ele>603.1</ele>
        <time>2026-02-22T12:57:38Z</time>
      </trkpt>
      <trkpt lat="43.58443" lon="6.41588">
        <ele>603.2</ele>
        <time>2026-02-22T12:57:39Z</time>
      </trkpt>
      <trkpt lat="43.58442" lon="6.41586">
        <ele>603.2</ele>
        <time>2026-02-22T12:57:40Z</time>
      </trkpt>
      <trkpt lat="43.58442" lon="6.41585">
        <ele>603.2</ele>
        <time>2026-02-22T12:57:41Z</time>
      </trkpt>
      <trkpt lat="43.58441" lon="6.41584">
        <ele>603.2</ele>
        <time>2026-02-22T12:57:42Z</time>
      </trkpt>
      <trkpt lat="43.58441" lon="6.41583">
        <ele>603.2</ele>
        <time>2026-02-22T12:57:43Z</time>
      </trkpt>
      <trkpt lat="43.58441" lon="6.41582">
        <ele>603.3</ele>
        <time>2026-02-22T12:57:44Z</time>
      </trkpt>
      <trkpt lat="43.58441" lon="6.4158">
        <ele>603.3</ele>
        <time>2026-02-22T12:57:45Z</time>
      </trkpt>
      <trkpt lat="43.5844" lon="6.4158">
        <ele>603.3</ele>
        <time>2026-02-22T12:57:46Z</time>
      </trkpt>
      <trkpt lat="43.5844" lon="6.41579">
        <ele>603.3</ele>
        <time>2026-02-22T12:57:47Z</time>
      </trkpt>
      <trkpt lat="43.5844" lon="6.41578">
        <ele>603.3</ele>
        <time>2026-02-22T12:57:48Z</time>
      </trkpt>
      <trkpt lat="43.58441" lon="6.41576">
        <ele>603.4</ele>
        <time>2026-02-22T12:57:49Z</time>
      </trkpt>
      <trkpt lat="43.5844" lon="6.41575">
        <ele>603.5</ele>
        <time>2026-02-22T12:57:50Z</time>
      </trkpt>
      <trkpt lat="43.5844" lon="6.41574">
        <ele>603.4</ele>
        <time>2026-02-22T12:57:51Z</time>
      </trkpt>
      <trkpt lat="43.5844" lon="6.41573">
        <ele>603.5</ele>
        <time>2026-02-22T12:57:52Z</time>
      </trkpt>
      <trkpt lat="43.5844" lon="6.41571">
        <ele>603.6</ele>
        <time>2026-02-22T12:57:53Z</time>
      </trkpt>
      <trkpt lat="43.5844" lon="6.4157">
        <ele>603.7</ele>
        <time>2026-02-22T12:57:54Z</time>
      </trkpt>
      <trkpt lat="43.58439" lon="6.41569">
        <ele>603.7</ele>
        <time>2026-02-22T12:57:55Z</time>
      </trkpt>
      <trkpt lat="43.5844" lon="6.41567">
        <ele>603.8</ele>
        <time>2026-02-22T12:57:56Z</time>
      </trkpt>
      <trkpt lat="43.5844" lon="6.41566">
        <ele>603.8</ele>
        <time>2026-02-22T12:57:57Z</time>
      </trkpt>
      <trkpt lat="43.5844" lon="6.41565">
        <ele>603.9</ele>
        <time>2026-02-22T12:57:58Z</time>
      </trkpt>
      <trkpt lat="43.5844" lon="6.41564">
        <ele>603.9</ele>
        <time>2026-02-22T12:57:59Z</time>
      </trkpt>
      <trkpt lat="43.5844" lon="6.41563">
        <ele>604</ele>
        <time>2026-02-22T12:58:00Z</time>
      </trkpt>
      <trkpt lat="43.5844" lon="6.41561">
        <ele>604.1</ele>
        <time>2026-02-22T12:58:01Z</time>
      </trkpt>
      <trkpt lat="43.5844" lon="6.4156">
        <ele>604.1</ele>
        <time>2026-02-22T12:58:02Z</time>
      </trkpt>
      <trkpt lat="43.5844" lon="6.41559">
        <ele>604.1</ele>
        <time>2026-02-22T12:58:03Z</time>
      </trkpt>
      <trkpt lat="43.5844" lon="6.41557">
        <ele>604.1</ele>
        <time>2026-02-22T12:58:04Z</time>
      </trkpt>
      <trkpt lat="43.58439" lon="6.41557">
        <ele>604.1</ele>
        <time>2026-02-22T12:58:05Z</time>
      </trkpt>
      <trkpt lat="43.5844" lon="6.41556">
        <ele>604.1</ele>
        <time>2026-02-22T12:58:06Z</time>
      </trkpt>
      <trkpt lat="43.5844" lon="6.41554">
        <ele>604.1</ele>
        <time>2026-02-22T12:58:07Z</time>
      </trkpt>
      <trkpt lat="43.58441" lon="6.41553">
        <ele>604.2</ele>
        <time>2026-02-22T12:58:08Z</time>
      </trkpt>
      <trkpt lat="43.58441" lon="6.41553">
        <ele>604.3</ele>
        <time>2026-02-22T12:58:09Z</time>
      </trkpt>
      <trkpt lat="43.58441" lon="6.41552">
        <ele>604.3</ele>
        <time>2026-02-22T12:58:10Z</time>
      </trkpt>
      <trkpt lat="43.58441" lon="6.41551">
        <ele>604.4</ele>
        <time>2026-02-22T12:58:11Z</time>
      </trkpt>
      <trkpt lat="43.58442" lon="6.41549">
        <ele>604.5</ele>
        <time>2026-02-22T12:58:12Z</time>
      </trkpt>
      <trkpt lat="43.58442" lon="6.41548">
        <ele>604.5</ele>
        <time>2026-02-22T12:58:13Z</time>
      </trkpt>
      <trkpt lat="43.58442" lon="6.41547">
        <ele>604.5</ele>
        <time>2026-02-22T12:58:14Z</time>
      </trkpt>
      <trkpt lat="43.58443" lon="6.41546">
        <ele>604.6</ele>
        <time>2026-02-22T12:58:15Z</time>
      </trkpt>
      <trkpt lat="43.58443" lon="6.41545">
        <ele>604.7</ele>
        <time>2026-02-22T12:58:16Z</time>
      </trkpt>
      <trkpt lat="43.58444" lon="6.41544">
        <ele>604.9</ele>
        <time>2026-02-22T12:58:17Z</time>
      </trkpt>
      <trkpt lat="43.58445" lon="6.41544">
        <ele>605</ele>
        <time>2026-02-22T12:58:18Z</time>
      </trkpt>
      <trkpt lat="43.58445" lon="6.41543">
        <ele>605.1</ele>
        <time>2026-02-22T12:58:19Z</time>
      </trkpt>
      <trkpt lat="43.58445" lon="6.41542">
        <ele>605.2</ele>
        <time>2026-02-22T12:58:20Z</time>
      </trkpt>
      <trkpt lat="43.58446" lon="6.41541">
        <ele>605.3</ele>
        <time>2026-02-22T12:58:21Z</time>
      </trkpt>
      <trkpt lat="43.58446" lon="6.4154">
        <ele>605.4</ele>
        <time>2026-02-22T12:58:22Z</time>
      </trkpt>
      <trkpt lat="43.58446" lon="6.41539">
        <ele>605.5</ele>
        <time>2026-02-22T12:58:23Z</time>
      </trkpt>
      <trkpt lat="43.58447" lon="6.41539">
        <ele>605.4</ele>
        <time>2026-02-22T12:58:24Z</time>
      </trkpt>
      <trkpt lat="43.58447" lon="6.41538">
        <ele>605.4</ele>
        <time>2026-02-22T12:58:25Z</time>
      </trkpt>
      <trkpt lat="43.58448" lon="6.41537">
        <ele>605.4</ele>
        <time>2026-02-22T12:58:26Z</time>
      </trkpt>
      <trkpt lat="43.58448" lon="6.41536">
        <ele>605.4</ele>
        <time>2026-02-22T12:58:27Z</time>
      </trkpt>
      <trkpt lat="43.58448" lon="6.41535">
        <ele>605.3</ele>
        <time>2026-02-22T12:58:28Z</time>
      </trkpt>
      <trkpt lat="43.58448" lon="6.41533">
        <ele>605.3</ele>
        <time>2026-02-22T12:58:29Z</time>
      </trkpt>
      <trkpt lat="43.58448" lon="6.41532">
        <ele>605.2</ele>
        <time>2026-02-22T12:58:30Z</time>
      </trkpt>
      <trkpt lat="43.58449" lon="6.41531">
        <ele>605.1</ele>
        <time>2026-02-22T12:58:31Z</time>
      </trkpt>
      <trkpt lat="43.58449" lon="6.4153">
        <ele>604.9</ele>
        <time>2026-02-22T12:58:32Z</time>
      </trkpt>
      <trkpt lat="43.58449" lon="6.41529">
        <ele>604.7</ele>
        <time>2026-02-22T12:58:33Z</time>
      </trkpt>
      <trkpt lat="43.58449" lon="6.41529">
        <ele>604.6</ele>
        <time>2026-02-22T12:58:34Z</time>
      </trkpt>
      <trkpt lat="43.58449" lon="6.41528">
        <ele>604.4</ele>
        <time>2026-02-22T12:58:35Z</time>
      </trkpt>
      <trkpt lat="43.5845" lon="6.41527">
        <ele>604.2</ele>
        <time>2026-02-22T12:58:36Z</time>
      </trkpt>
      <trkpt lat="43.5845" lon="6.41526">
        <ele>604.1</ele>
        <time>2026-02-22T12:58:37Z</time>
      </trkpt>
      <trkpt lat="43.58451" lon="6.41525">
        <ele>603.8</ele>
        <time>2026-02-22T12:58:38Z</time>
      </trkpt>
      <trkpt lat="43.58451" lon="6.41524">
        <ele>603.6</ele>
        <time>2026-02-22T12:58:39Z</time>
      </trkpt>
      <trkpt lat="43.5845" lon="6.41523">
        <ele>603.5</ele>
        <time>2026-02-22T12:58:40Z</time>
      </trkpt>
      <trkpt lat="43.5845" lon="6.41522">
        <ele>603.3</ele>
        <time>2026-02-22T12:58:41Z</time>
      </trkpt>
      <trkpt lat="43.5845" lon="6.41522">
        <ele>603.1</ele>
        <time>2026-02-22T12:58:42Z</time>
      </trkpt>
      <trkpt lat="43.58451" lon="6.41521">
        <ele>603</ele>
        <time>2026-02-22T12:58:43Z</time>
      </trkpt>
      <trkpt lat="43.58451" lon="6.4152">
        <ele>602.9</ele>
        <time>2026-02-22T12:58:44Z</time>
      </trkpt>
      <trkpt lat="43.58451" lon="6.41519">
        <ele>602.7</ele>
        <time>2026-02-22T12:58:45Z</time>
      </trkpt>
      <trkpt lat="43.58451" lon="6.41517">
        <ele>602.5</ele>
        <time>2026-02-22T12:58:46Z</time>
      </trkpt>
      <trkpt lat="43.58451" lon="6.41516">
        <ele>602.3</ele>
        <time>2026-02-22T12:58:47Z</time>
      </trkpt>
      <trkpt lat="43.58451" lon="6.41515">
        <ele>602.1</ele>
        <time>2026-02-22T12:58:48Z</time>
      </trkpt>
      <trkpt lat="43.58451" lon="6.41514">
        <ele>602</ele>
        <time>2026-02-22T12:58:49Z</time>
      </trkpt>
      <trkpt lat="43.58451" lon="6.41513">
        <ele>601.9</ele>
        <time>2026-02-22T12:58:50Z</time>
      </trkpt>
      <trkpt lat="43.58451" lon="6.41513">
        <ele>601.8</ele>
        <time>2026-02-22T12:58:51Z</time>
      </trkpt>
      <trkpt lat="43.5845" lon="6.41511">
        <ele>601.8</ele>
        <time>2026-02-22T12:58:52Z</time>
      </trkpt>
      <trkpt lat="43.5845" lon="6.4151">
        <ele>601.8</ele>
        <time>2026-02-22T12:58:53Z</time>
      </trkpt>
      <trkpt lat="43.5845" lon="6.4151">
        <ele>601.8</ele>
        <time>2026-02-22T12:58:54Z</time>
      </trkpt>
      <trkpt lat="43.5845" lon="6.41509">
        <ele>601.8</ele>
        <time>2026-02-22T12:58:55Z</time>
      </trkpt>
      <trkpt lat="43.58449" lon="6.41508">
        <ele>601.8</ele>
        <time>2026-02-22T12:58:56Z</time>
      </trkpt>
      <trkpt lat="43.58448" lon="6.41507">
        <ele>601.7</ele>
        <time>2026-02-22T12:58:57Z</time>
      </trkpt>
      <trkpt lat="43.58448" lon="6.41505">
        <ele>601.5</ele>
        <time>2026-02-22T12:58:58Z</time>
      </trkpt>
      <trkpt lat="43.58448" lon="6.41504">
        <ele>601.4</ele>
        <time>2026-02-22T12:58:59Z</time>
      </trkpt>
      <trkpt lat="43.58448" lon="6.41504">
        <ele>601.3</ele>
        <time>2026-02-22T12:59:00Z</time>
      </trkpt>
      <trkpt lat="43.58449" lon="6.41503">
        <ele>601.3</ele>
        <time>2026-02-22T12:59:01Z</time>
      </trkpt>
      <trkpt lat="43.58449" lon="6.41503">
        <ele>601.3</ele>
        <time>2026-02-22T12:59:02Z</time>
      </trkpt>
      <trkpt lat="43.58449" lon="6.41502">
        <ele>601.3</ele>
        <time>2026-02-22T12:59:03Z</time>
      </trkpt>
      <trkpt lat="43.58449" lon="6.41502">
        <ele>601.2</ele>
        <time>2026-02-22T12:59:04Z</time>
      </trkpt>
      <trkpt lat="43.58449" lon="6.41502">
        <ele>601.2</ele>
        <time>2026-02-22T12:59:05Z</time>
      </trkpt>
      <trkpt lat="43.5845" lon="6.41502">
        <ele>601.1</ele>
        <time>2026-02-22T12:59:06Z</time>
      </trkpt>
      <trkpt lat="43.5845" lon="6.41501">
        <ele>601.2</ele>
        <time>2026-02-22T12:59:07Z</time>
      </trkpt>
      <trkpt lat="43.5845" lon="6.415">
        <ele>601.3</ele>
        <time>2026-02-22T12:59:08Z</time>
      </trkpt>
      <trkpt lat="43.5845" lon="6.41499">
        <ele>601.2</ele>
        <time>2026-02-22T12:59:09Z</time>
      </trkpt>
      <trkpt lat="43.5845" lon="6.41498">
        <ele>601.3</ele>
        <time>2026-02-22T12:59:10Z</time>
      </trkpt>
      <trkpt lat="43.5845" lon="6.41497">
        <ele>601.3</ele>
        <time>2026-02-22T12:59:11Z</time>
      </trkpt>
      <trkpt lat="43.5845" lon="6.41496">
        <ele>601.3</ele>
        <time>2026-02-22T12:59:12Z</time>
      </trkpt>
      <trkpt lat="43.5845" lon="6.41495">
        <ele>601.3</ele>
        <time>2026-02-22T12:59:13Z</time>
      </trkpt>
      <trkpt lat="43.5845" lon="6.41494">
        <ele>601.4</ele>
        <time>2026-02-22T12:59:14Z</time>
      </trkpt>
      <trkpt lat="43.5845" lon="6.41494">
        <ele>601.5</ele>
        <time>2026-02-22T12:59:15Z</time>
      </trkpt>
      <trkpt lat="43.5845" lon="6.41492">
        <ele>601.6</ele>
        <time>2026-02-22T12:59:16Z</time>
      </trkpt>
      <trkpt lat="43.5845" lon="6.4149">
        <ele>601.6</ele>
        <time>2026-02-22T12:59:17Z</time>
      </trkpt>
      <trkpt lat="43.58451" lon="6.41488">
        <ele>601.6</ele>
        <time>2026-02-22T12:59:18Z</time>
      </trkpt>
      <trkpt lat="43.58452" lon="6.41486">
        <ele>601.6</ele>
        <time>2026-02-22T12:59:19Z</time>
      </trkpt>
      <trkpt lat="43.58453" lon="6.41483">
        <ele>601.6</ele>
        <time>2026-02-22T12:59:20Z</time>
      </trkpt>
      <trkpt lat="43.58453" lon="6.41481">
        <ele>601.7</ele>
        <time>2026-02-22T12:59:21Z</time>
      </trkpt>
      <trkpt lat="43.58452" lon="6.4148">
        <ele>601.7</ele>
        <time>2026-02-22T12:59:22Z</time>
      </trkpt>
      <trkpt lat="43.58452" lon="6.41478">
        <ele>601.7</ele>
        <time>2026-02-22T12:59:23Z</time>
      </trkpt>
      <trkpt lat="43.58452" lon="6.41476">
        <ele>601.9</ele>
        <time>2026-02-22T12:59:24Z</time>
      </trkpt>
      <trkpt lat="43.58451" lon="6.41474">
        <ele>602</ele>
        <time>2026-02-22T12:59:25Z</time>
      </trkpt>
      <trkpt lat="43.58451" lon="6.41473">
        <ele>602.1</ele>
        <time>2026-02-22T12:59:26Z</time>
      </trkpt>
      <trkpt lat="43.58451" lon="6.41472">
        <ele>602.1</ele>
        <time>2026-02-22T12:59:27Z</time>
      </trkpt>
      <trkpt lat="43.5845" lon="6.4147">
        <ele>602.2</ele>
        <time>2026-02-22T12:59:28Z</time>
      </trkpt>
      <trkpt lat="43.5845" lon="6.41469">
        <ele>602.2</ele>
        <time>2026-02-22T12:59:29Z</time>
      </trkpt>
      <trkpt lat="43.5845" lon="6.41468">
        <ele>602.2</ele>
        <time>2026-02-22T12:59:30Z</time>
      </trkpt>
      <trkpt lat="43.58449" lon="6.41467">
        <ele>602.1</ele>
        <time>2026-02-22T12:59:31Z</time>
      </trkpt>
      <trkpt lat="43.58449" lon="6.41466">
        <ele>602</ele>
        <time>2026-02-22T12:59:32Z</time>
      </trkpt>
      <trkpt lat="43.58449" lon="6.41465">
        <ele>602.1</ele>
        <time>2026-02-22T12:59:33Z</time>
      </trkpt>
      <trkpt lat="43.58449" lon="6.41465">
        <ele>602</ele>
        <time>2026-02-22T12:59:34Z</time>
      </trkpt>
      <trkpt lat="43.58449" lon="6.41464">
        <ele>602</ele>
        <time>2026-02-22T12:59:35Z</time>
      </trkpt>
      <trkpt lat="43.58448" lon="6.41463">
        <ele>602</ele>
        <time>2026-02-22T12:59:36Z</time>
      </trkpt>
      <trkpt lat="43.58448" lon="6.41462">
        <ele>601.8</ele>
        <time>2026-02-22T12:59:37Z</time>
      </trkpt>
      <trkpt lat="43.58448" lon="6.41461">
        <ele>601.7</ele>
        <time>2026-02-22T12:59:38Z</time>
      </trkpt>
      <trkpt lat="43.58448" lon="6.4146">
        <ele>601.6</ele>
        <time>2026-02-22T12:59:39Z</time>
      </trkpt>
      <trkpt lat="43.58448" lon="6.41459">
        <ele>601.4</ele>
        <time>2026-02-22T12:59:40Z</time>
      </trkpt>
      <trkpt lat="43.58447" lon="6.41459">
        <ele>601.3</ele>
        <time>2026-02-22T12:59:41Z</time>
      </trkpt>
      <trkpt lat="43.58447" lon="6.41458">
        <ele>601.2</ele>
        <time>2026-02-22T12:59:42Z</time>
      </trkpt>
      <trkpt lat="43.58447" lon="6.41457">
        <ele>601.1</ele>
        <time>2026-02-22T12:59:43Z</time>
      </trkpt>
      <trkpt lat="43.58447" lon="6.41456">
        <ele>600.9</ele>
        <time>2026-02-22T12:59:44Z</time>
      </trkpt>
      <trkpt lat="43.58446" lon="6.41455">
        <ele>600.7</ele>
        <time>2026-02-22T12:59:45Z</time>
      </trkpt>
      <trkpt lat="43.58446" lon="6.41454">
        <ele>600.5</ele>
        <time>2026-02-22T12:59:46Z</time>
      </trkpt>
      <trkpt lat="43.58446" lon="6.41453">
        <ele>600.4</ele>
        <time>2026-02-22T12:59:47Z</time>
      </trkpt>
      <trkpt lat="43.58446" lon="6.41452">
        <ele>600.3</ele>
        <time>2026-02-22T12:59:48Z</time>
      </trkpt>
      <trkpt lat="43.58446" lon="6.41451">
        <ele>600.3</ele>
        <time>2026-02-22T12:59:49Z</time>
      </trkpt>
      <trkpt lat="43.58446" lon="6.4145">
        <ele>600.2</ele>
        <time>2026-02-22T12:59:50Z</time>
      </trkpt>
      <trkpt lat="43.58445" lon="6.41449">
        <ele>600.1</ele>
        <time>2026-02-22T12:59:51Z</time>
      </trkpt>
      <trkpt lat="43.58445" lon="6.41448">
        <ele>600</ele>
        <time>2026-02-22T12:59:52Z</time>
      </trkpt>
      <trkpt lat="43.58445" lon="6.41447">
        <ele>599.9</ele>
        <time>2026-02-22T12:59:53Z</time>
      </trkpt>
      <trkpt lat="43.58445" lon="6.41446">
        <ele>599.9</ele>
        <time>2026-02-22T12:59:54Z</time>
      </trkpt>
      <trkpt lat="43.58445" lon="6.41445">
        <ele>599.8</ele>
        <time>2026-02-22T12:59:55Z</time>
      </trkpt>
      <trkpt lat="43.58445" lon="6.41445">
        <ele>599.7</ele>
        <time>2026-02-22T12:59:56Z</time>
      </trkpt>
      <trkpt lat="43.58445" lon="6.41444">
        <ele>599.6</ele>
        <time>2026-02-22T12:59:57Z</time>
      </trkpt>
      <trkpt lat="43.58445" lon="6.41443">
        <ele>599.5</ele>
        <time>2026-02-22T12:59:58Z</time>
      </trkpt>
      <trkpt lat="43.58445" lon="6.41441">
        <ele>599.7</ele>
        <time>2026-02-22T12:59:59Z</time>
      </trkpt>
      <trkpt lat="43.58445" lon="6.4144">
        <ele>599.7</ele>
        <time>2026-02-22T13:00:00Z</time>
      </trkpt>
      <trkpt lat="43.58445" lon="6.41439">
        <ele>599.6</ele>
        <time>2026-02-22T13:00:01Z</time>
      </trkpt>
      <trkpt lat="43.58445" lon="6.41438">
        <ele>599.6</ele>
        <time>2026-02-22T13:00:02Z</time>
      </trkpt>
      <trkpt lat="43.58444" lon="6.41436">
        <ele>599.6</ele>
        <time>2026-02-22T13:00:03Z</time>
      </trkpt>
      <trkpt lat="43.58444" lon="6.41435">
        <ele>599.7</ele>
        <time>2026-02-22T13:00:04Z</time>
      </trkpt>
      <trkpt lat="43.58444" lon="6.41434">
        <ele>599.7</ele>
        <time>2026-02-22T13:00:05Z</time>
      </trkpt>
      <trkpt lat="43.58444" lon="6.41433">
        <ele>599.9</ele>
        <time>2026-02-22T13:00:06Z</time>
      </trkpt>
      <trkpt lat="43.58443" lon="6.41432">
        <ele>599.9</ele>
        <time>2026-02-22T13:00:07Z</time>
      </trkpt>
      <trkpt lat="43.58443" lon="6.4143">
        <ele>599.9</ele>
        <time>2026-02-22T13:00:08Z</time>
      </trkpt>
      <trkpt lat="43.58443" lon="6.41428">
        <ele>599.9</ele>
        <time>2026-02-22T13:00:09Z</time>
      </trkpt>
      <trkpt lat="43.58443" lon="6.41427">
        <ele>599.9</ele>
        <time>2026-02-22T13:00:10Z</time>
      </trkpt>
      <trkpt lat="43.58443" lon="6.41425">
        <ele>600</ele>
        <time>2026-02-22T13:00:11Z</time>
      </trkpt>
      <trkpt lat="43.58442" lon="6.41425">
        <ele>600</ele>
        <time>2026-02-22T13:00:12Z</time>
      </trkpt>
      <trkpt lat="43.58442" lon="6.41423">
        <ele>600</ele>
        <time>2026-02-22T13:00:13Z</time>
      </trkpt>
      <trkpt lat="43.58441" lon="6.41421">
        <ele>599.9</ele>
        <time>2026-02-22T13:00:14Z</time>
      </trkpt>
      <trkpt lat="43.58441" lon="6.4142">
        <ele>599.9</ele>
        <time>2026-02-22T13:00:15Z</time>
      </trkpt>
      <trkpt lat="43.58441" lon="6.41419">
        <ele>599.9</ele>
        <time>2026-02-22T13:00:16Z</time>
      </trkpt>
      <trkpt lat="43.5844" lon="6.41418">
        <ele>600</ele>
        <time>2026-02-22T13:00:17Z</time>
      </trkpt>
      <trkpt lat="43.5844" lon="6.41417">
        <ele>599.9</ele>
        <time>2026-02-22T13:00:18Z</time>
      </trkpt>
      <trkpt lat="43.5844" lon="6.41416">
        <ele>599.8</ele>
        <time>2026-02-22T13:00:19Z</time>
      </trkpt>
      <trkpt lat="43.5844" lon="6.41415">
        <ele>599.8</ele>
        <time>2026-02-22T13:00:20Z</time>
      </trkpt>
      <trkpt lat="43.5844" lon="6.41414">
        <ele>599.7</ele>
        <time>2026-02-22T13:00:21Z</time>
      </trkpt>
      <trkpt lat="43.58439" lon="6.41413">
        <ele>599.6</ele>
        <time>2026-02-22T13:00:22Z</time>
      </trkpt>
      <trkpt lat="43.58439" lon="6.41412">
        <ele>599.5</ele>
        <time>2026-02-22T13:00:23Z</time>
      </trkpt>
      <trkpt lat="43.5844" lon="6.41411">
        <ele>599.4</ele>
        <time>2026-02-22T13:00:24Z</time>
      </trkpt>
      <trkpt lat="43.5844" lon="6.4141">
        <ele>599.3</ele>
        <time>2026-02-22T13:00:25Z</time>
      </trkpt>
      <trkpt lat="43.5844" lon="6.4141">
        <ele>599.2</ele>
        <time>2026-02-22T13:00:26Z</time>
      </trkpt>
      <trkpt lat="43.58439" lon="6.41409">
        <ele>599</ele>
        <time>2026-02-22T13:00:27Z</time>
      </trkpt>
      <trkpt lat="43.58438" lon="6.41408">
        <ele>598.9</ele>
        <time>2026-02-22T13:00:28Z</time>
      </trkpt>
      <trkpt lat="43.58437" lon="6.41407">
        <ele>598.8</ele>
        <time>2026-02-22T13:00:29Z</time>
      </trkpt>
      <trkpt lat="43.58436" lon="6.41406">
        <ele>598.7</ele>
        <time>2026-02-22T13:00:30Z</time>
      </trkpt>
      <trkpt lat="43.58436" lon="6.41405">
        <ele>598.7</ele>
        <time>2026-02-22T13:00:31Z</time>
      </trkpt>
      <trkpt lat="43.58436" lon="6.41404">
        <ele>598.6</ele>
        <time>2026-02-22T13:00:32Z</time>
      </trkpt>
      <trkpt lat="43.58436" lon="6.41403">
        <ele>598.6</ele>
        <time>2026-02-22T13:00:33Z</time>
      </trkpt>
      <trkpt lat="43.58436" lon="6.41402">
        <ele>598.6</ele>
        <time>2026-02-22T13:00:34Z</time>
      </trkpt>
      <trkpt lat="43.58435" lon="6.414">
        <ele>598.6</ele>
        <time>2026-02-22T13:00:35Z</time>
      </trkpt>
      <trkpt lat="43.58435" lon="6.41399">
        <ele>598.5</ele>
        <time>2026-02-22T13:00:36Z</time>
      </trkpt>
      <trkpt lat="43.58435" lon="6.41398">
        <ele>598.5</ele>
        <time>2026-02-22T13:00:37Z</time>
      </trkpt>
      <trkpt lat="43.58435" lon="6.41397">
        <ele>598.5</ele>
        <time>2026-02-22T13:00:38Z</time>
      </trkpt>
      <trkpt lat="43.58435" lon="6.41397">
        <ele>598.5</ele>
        <time>2026-02-22T13:00:39Z</time>
      </trkpt>
      <trkpt lat="43.58435" lon="6.41396">
        <ele>598.5</ele>
        <time>2026-02-22T13:00:40Z</time>
      </trkpt>
      <trkpt lat="43.58434" lon="6.41395">
        <ele>598.5</ele>
        <time>2026-02-22T13:00:41Z</time>
      </trkpt>
      <trkpt lat="43.58432" lon="6.41394">
        <ele>598.5</ele>
        <time>2026-02-22T13:00:42Z</time>
      </trkpt>
      <trkpt lat="43.58432" lon="6.41393">
        <ele>598.5</ele>
        <time>2026-02-22T13:00:43Z</time>
      </trkpt>
      <trkpt lat="43.58431" lon="6.41392">
        <ele>598.5</ele>
        <time>2026-02-22T13:00:44Z</time>
      </trkpt>
      <trkpt lat="43.58431" lon="6.41391">
        <ele>598.5</ele>
        <time>2026-02-22T13:00:45Z</time>
      </trkpt>
      <trkpt lat="43.58431" lon="6.41389">
        <ele>598.4</ele>
        <time>2026-02-22T13:00:46Z</time>
      </trkpt>
      <trkpt lat="43.58431" lon="6.41388">
        <ele>598.4</ele>
        <time>2026-02-22T13:00:47Z</time>
      </trkpt>
      <trkpt lat="43.58431" lon="6.41387">
        <ele>598.4</ele>
        <time>2026-02-22T13:00:48Z</time>
      </trkpt>
      <trkpt lat="43.58431" lon="6.41386">
        <ele>598.4</ele>
        <time>2026-02-22T13:00:49Z</time>
      </trkpt>
      <trkpt lat="43.5843" lon="6.41384">
        <ele>598.3</ele>
        <time>2026-02-22T13:00:50Z</time>
      </trkpt>
      <trkpt lat="43.58429" lon="6.41383">
        <ele>598.2</ele>
        <time>2026-02-22T13:00:51Z</time>
      </trkpt>
      <trkpt lat="43.58429" lon="6.41381">
        <ele>598.1</ele>
        <time>2026-02-22T13:00:52Z</time>
      </trkpt>
      <trkpt lat="43.58429" lon="6.41381">
        <ele>598</ele>
        <time>2026-02-22T13:00:53Z</time>
      </trkpt>
      <trkpt lat="43.58428" lon="6.41379">
        <ele>597.9</ele>
        <time>2026-02-22T13:00:54Z</time>
      </trkpt>
      <trkpt lat="43.58427" lon="6.41378">
        <ele>597.9</ele>
        <time>2026-02-22T13:00:55Z</time>
      </trkpt>
      <trkpt lat="43.58427" lon="6.41377">
        <ele>597.9</ele>
        <time>2026-02-22T13:00:56Z</time>
      </trkpt>
      <trkpt lat="43.58427" lon="6.41376">
        <ele>597.9</ele>
        <time>2026-02-22T13:00:57Z</time>
      </trkpt>
      <trkpt lat="43.58426" lon="6.41376">
        <ele>597.8</ele>
        <time>2026-02-22T13:00:58Z</time>
      </trkpt>
      <trkpt lat="43.58426" lon="6.41374">
        <ele>597.8</ele>
        <time>2026-02-22T13:00:59Z</time>
      </trkpt>
      <trkpt lat="43.58426" lon="6.41373">
        <ele>597.8</ele>
        <time>2026-02-22T13:01:00Z</time>
      </trkpt>
      <trkpt lat="43.58425" lon="6.41372">
        <ele>597.7</ele>
        <time>2026-02-22T13:01:01Z</time>
      </trkpt>
      <trkpt lat="43.58425" lon="6.41371">
        <ele>597.6</ele>
        <time>2026-02-22T13:01:02Z</time>
      </trkpt>
      <trkpt lat="43.58425" lon="6.41369">
        <ele>597.6</ele>
        <time>2026-02-22T13:01:03Z</time>
      </trkpt>
      <trkpt lat="43.58424" lon="6.41367">
        <ele>597.6</ele>
        <time>2026-02-22T13:01:04Z</time>
      </trkpt>
      <trkpt lat="43.58423" lon="6.41366">
        <ele>597.5</ele>
        <time>2026-02-22T13:01:05Z</time>
      </trkpt>
      <trkpt lat="43.58423" lon="6.41366">
        <ele>597.4</ele>
        <time>2026-02-22T13:01:06Z</time>
      </trkpt>
      <trkpt lat="43.58422" lon="6.41365">
        <ele>597.3</ele>
        <time>2026-02-22T13:01:07Z</time>
      </trkpt>
      <trkpt lat="43.58421" lon="6.41364">
        <ele>597.3</ele>
        <time>2026-02-22T13:01:08Z</time>
      </trkpt>
      <trkpt lat="43.5842" lon="6.41363">
        <ele>597.2</ele>
        <time>2026-02-22T13:01:09Z</time>
      </trkpt>
      <trkpt lat="43.5842" lon="6.41362">
        <ele>597</ele>
        <time>2026-02-22T13:01:10Z</time>
      </trkpt>
      <trkpt lat="43.58421" lon="6.4136">
        <ele>596.9</ele>
        <time>2026-02-22T13:01:11Z</time>
      </trkpt>
      <trkpt lat="43.5842" lon="6.41359">
        <ele>596.8</ele>
        <time>2026-02-22T13:01:12Z</time>
      </trkpt>
      <trkpt lat="43.5842" lon="6.41357">
        <ele>596.7</ele>
        <time>2026-02-22T13:01:13Z</time>
      </trkpt>
      <trkpt lat="43.5842" lon="6.41356">
        <ele>596.7</ele>
        <time>2026-02-22T13:01:14Z</time>
      </trkpt>
      <trkpt lat="43.58421" lon="6.41354">
        <ele>596.7</ele>
        <time>2026-02-22T13:01:15Z</time>
      </trkpt>
      <trkpt lat="43.58421" lon="6.41354">
        <ele>596.7</ele>
        <time>2026-02-22T13:01:16Z</time>
      </trkpt>
      <trkpt lat="43.5842" lon="6.41352">
        <ele>596.7</ele>
        <time>2026-02-22T13:01:17Z</time>
      </trkpt>
      <trkpt lat="43.5842" lon="6.4135">
        <ele>596.6</ele>
        <time>2026-02-22T13:01:18Z</time>
      </trkpt>
      <trkpt lat="43.5842" lon="6.41349">
        <ele>596.5</ele>
        <time>2026-02-22T13:01:19Z</time>
      </trkpt>
      <trkpt lat="43.5842" lon="6.41348">
        <ele>596.4</ele>
        <time>2026-02-22T13:01:20Z</time>
      </trkpt>
      <trkpt lat="43.5842" lon="6.41346">
        <ele>596.2</ele>
        <time>2026-02-22T13:01:21Z</time>
      </trkpt>
      <trkpt lat="43.5842" lon="6.41346">
        <ele>596.3</ele>
        <time>2026-02-22T13:01:22Z</time>
      </trkpt>
      <trkpt lat="43.58421" lon="6.41345">
        <ele>596.4</ele>
        <time>2026-02-22T13:01:23Z</time>
      </trkpt>
      <trkpt lat="43.58421" lon="6.41344">
        <ele>596.4</ele>
        <time>2026-02-22T13:01:24Z</time>
      </trkpt>
      <trkpt lat="43.58421" lon="6.41342">
        <ele>596.4</ele>
        <time>2026-02-22T13:01:25Z</time>
      </trkpt>
      <trkpt lat="43.58421" lon="6.4134">
        <ele>596.3</ele>
        <time>2026-02-22T13:01:26Z</time>
      </trkpt>
      <trkpt lat="43.58421" lon="6.41339">
        <ele>596.4</ele>
        <time>2026-02-22T13:01:27Z</time>
      </trkpt>
      <trkpt lat="43.58421" lon="6.41338">
        <ele>596.2</ele>
        <time>2026-02-22T13:01:28Z</time>
      </trkpt>
      <trkpt lat="43.58421" lon="6.41337">
        <ele>596.2</ele>
        <time>2026-02-22T13:01:29Z</time>
      </trkpt>
      <trkpt lat="43.58421" lon="6.41336">
        <ele>596.1</ele>
        <time>2026-02-22T13:01:30Z</time>
      </trkpt>
      <trkpt lat="43.5842" lon="6.41335">
        <ele>596.1</ele>
        <time>2026-02-22T13:01:31Z</time>
      </trkpt>
      <trkpt lat="43.5842" lon="6.41334">
        <ele>596</ele>
        <time>2026-02-22T13:01:32Z</time>
      </trkpt>
      <trkpt lat="43.58419" lon="6.41334">
        <ele>595.9</ele>
        <time>2026-02-22T13:01:33Z</time>
      </trkpt>
      <trkpt lat="43.58418" lon="6.41332">
        <ele>595.7</ele>
        <time>2026-02-22T13:01:34Z</time>
      </trkpt>
      <trkpt lat="43.58418" lon="6.41331">
        <ele>595.6</ele>
        <time>2026-02-22T13:01:35Z</time>
      </trkpt>
      <trkpt lat="43.58417" lon="6.41329">
        <ele>595.4</ele>
        <time>2026-02-22T13:01:36Z</time>
      </trkpt>
      <trkpt lat="43.58418" lon="6.41328">
        <ele>595.3</ele>
        <time>2026-02-22T13:01:37Z</time>
      </trkpt>
      <trkpt lat="43.58418" lon="6.41327">
        <ele>595.2</ele>
        <time>2026-02-22T13:01:38Z</time>
      </trkpt>
      <trkpt lat="43.58418" lon="6.41326">
        <ele>595.1</ele>
        <time>2026-02-22T13:01:39Z</time>
      </trkpt>
      <trkpt lat="43.58417" lon="6.41325">
        <ele>595.1</ele>
        <time>2026-02-22T13:01:40Z</time>
      </trkpt>
      <trkpt lat="43.58417" lon="6.41324">
        <ele>595.1</ele>
        <time>2026-02-22T13:01:41Z</time>
      </trkpt>
      <trkpt lat="43.58417" lon="6.41323">
        <ele>595</ele>
        <time>2026-02-22T13:01:42Z</time>
      </trkpt>
      <trkpt lat="43.58417" lon="6.41321">
        <ele>594.9</ele>
        <time>2026-02-22T13:01:43Z</time>
      </trkpt>
      <trkpt lat="43.58417" lon="6.4132">
        <ele>594.9</ele>
        <time>2026-02-22T13:01:44Z</time>
      </trkpt>
      <trkpt lat="43.58417" lon="6.4132">
        <ele>594.8</ele>
        <time>2026-02-22T13:01:45Z</time>
      </trkpt>
      <trkpt lat="43.58417" lon="6.41319">
        <ele>594.7</ele>
        <time>2026-02-22T13:01:46Z</time>
      </trkpt>
      <trkpt lat="43.58417" lon="6.41318">
        <ele>594.6</ele>
        <time>2026-02-22T13:01:47Z</time>
      </trkpt>
      <trkpt lat="43.58417" lon="6.41318">
        <ele>594.5</ele>
        <time>2026-02-22T13:01:48Z</time>
      </trkpt>
      <trkpt lat="43.58417" lon="6.41317">
        <ele>594.5</ele>
        <time>2026-02-22T13:01:49Z</time>
      </trkpt>
      <trkpt lat="43.58417" lon="6.41317">
        <ele>594.3</ele>
        <time>2026-02-22T13:01:50Z</time>
      </trkpt>
      <trkpt lat="43.58417" lon="6.41316">
        <ele>594.2</ele>
        <time>2026-02-22T13:01:51Z</time>
      </trkpt>
      <trkpt lat="43.58417" lon="6.41316">
        <ele>594.1</ele>
        <time>2026-02-22T13:01:52Z</time>
      </trkpt>
      <trkpt lat="43.58418" lon="6.41316">
        <ele>594</ele>
        <time>2026-02-22T13:01:53Z</time>
      </trkpt>
      <trkpt lat="43.58418" lon="6.41316">
        <ele>593.9</ele>
        <time>2026-02-22T13:01:54Z</time>
      </trkpt>
      <trkpt lat="43.58418" lon="6.41315">
        <ele>593.8</ele>
        <time>2026-02-22T13:01:55Z</time>
      </trkpt>
      <trkpt lat="43.58418" lon="6.41315">
        <ele>593.7</ele>
        <time>2026-02-22T13:01:56Z</time>
      </trkpt>
      <trkpt lat="43.58418" lon="6.41315">
        <ele>593.6</ele>
        <time>2026-02-22T13:01:57Z</time>
      </trkpt>
      <trkpt lat="43.58418" lon="6.41315">
        <ele>593.5</ele>
        <time>2026-02-22T13:01:58Z</time>
      </trkpt>
      <trkpt lat="43.58418" lon="6.41315">
        <ele>593.5</ele>
        <time>2026-02-22T13:01:59Z</time>
      </trkpt>
      <trkpt lat="43.58417" lon="6.41314">
        <ele>593.4</ele>
        <time>2026-02-22T13:02:00Z</time>
      </trkpt>
      <trkpt lat="43.58417" lon="6.41315">
        <ele>593.4</ele>
        <time>2026-02-22T13:02:01Z</time>
      </trkpt>
      <trkpt lat="43.58417" lon="6.41314">
        <ele>593.4</ele>
        <time>2026-02-22T13:02:02Z</time>
      </trkpt>
      <trkpt lat="43.58417" lon="6.41315">
        <ele>593.3</ele>
        <time>2026-02-22T13:02:03Z</time>
      </trkpt>
      <trkpt lat="43.58416" lon="6.41315">
        <ele>593.3</ele>
        <time>2026-02-22T13:02:04Z</time>
      </trkpt>
      <trkpt lat="43.58416" lon="6.41315">
        <ele>593.3</ele>
        <time>2026-02-22T13:02:05Z</time>
      </trkpt>
      <trkpt lat="43.58416" lon="6.41315">
        <ele>593.4</ele>
        <time>2026-02-22T13:02:06Z</time>
      </trkpt>
      <trkpt lat="43.58416" lon="6.41315">
        <ele>593.5</ele>
        <time>2026-02-22T13:02:07Z</time>
      </trkpt>
      <trkpt lat="43.58415" lon="6.41315">
        <ele>593.4</ele>
        <time>2026-02-22T13:02:08Z</time>
      </trkpt>
      <trkpt lat="43.58415" lon="6.41315">
        <ele>593.4</ele>
        <time>2026-02-22T13:02:09Z</time>
      </trkpt>
      <trkpt lat="43.58415" lon="6.41316">
        <ele>593.4</ele>
        <time>2026-02-22T13:02:10Z</time>
      </trkpt>
      <trkpt lat="43.58414" lon="6.41316">
        <ele>593.4</ele>
        <time>2026-02-22T13:02:11Z</time>
      </trkpt>
      <trkpt lat="43.58414" lon="6.41315">
        <ele>593.2</ele>
        <time>2026-02-22T13:02:12Z</time>
      </trkpt>
      <trkpt lat="43.58414" lon="6.41315">
        <ele>593.2</ele>
        <time>2026-02-22T13:02:13Z</time>
      </trkpt>
      <trkpt lat="43.58414" lon="6.41315">
        <ele>593.1</ele>
        <time>2026-02-22T13:02:14Z</time>
      </trkpt>
      <trkpt lat="43.58415" lon="6.41314">
        <ele>593</ele>
        <time>2026-02-22T13:02:15Z</time>
      </trkpt>
      <trkpt lat="43.58414" lon="6.41313">
        <ele>593.1</ele>
        <time>2026-02-22T13:02:16Z</time>
      </trkpt>
      <trkpt lat="43.58414" lon="6.41312">
        <ele>593.1</ele>
        <time>2026-02-22T13:02:17Z</time>
      </trkpt>
      <trkpt lat="43.58414" lon="6.41312">
        <ele>593.2</ele>
        <time>2026-02-22T13:02:18Z</time>
      </trkpt>
      <trkpt lat="43.58414" lon="6.41311">
        <ele>593.2</ele>
        <time>2026-02-22T13:02:19Z</time>
      </trkpt>
      <trkpt lat="43.58414" lon="6.41311">
        <ele>593</ele>
        <time>2026-02-22T13:02:20Z</time>
      </trkpt>
      <trkpt lat="43.58414" lon="6.4131">
        <ele>592.9</ele>
        <time>2026-02-22T13:02:21Z</time>
      </trkpt>
      <trkpt lat="43.58414" lon="6.41309">
        <ele>592.9</ele>
        <time>2026-02-22T13:02:22Z</time>
      </trkpt>
      <trkpt lat="43.58414" lon="6.41308">
        <ele>592.8</ele>
        <time>2026-02-22T13:02:23Z</time>
      </trkpt>
      <trkpt lat="43.58414" lon="6.41307">
        <ele>592.8</ele>
        <time>2026-02-22T13:02:24Z</time>
      </trkpt>
      <trkpt lat="43.58413" lon="6.41307">
        <ele>592.9</ele>
        <time>2026-02-22T13:02:25Z</time>
      </trkpt>
      <trkpt lat="43.58413" lon="6.41306">
        <ele>592.9</ele>
        <time>2026-02-22T13:02:26Z</time>
      </trkpt>
      <trkpt lat="43.58413" lon="6.41304">
        <ele>593</ele>
        <time>2026-02-22T13:02:27Z</time>
      </trkpt>
      <trkpt lat="43.58413" lon="6.41303">
        <ele>593</ele>
        <time>2026-02-22T13:02:28Z</time>
      </trkpt>
      <trkpt lat="43.58413" lon="6.41303">
        <ele>593.1</ele>
        <time>2026-02-22T13:02:29Z</time>
      </trkpt>
      <trkpt lat="43.58413" lon="6.41303">
        <ele>593.2</ele>
        <time>2026-02-22T13:02:30Z</time>
      </trkpt>
      <trkpt lat="43.58413" lon="6.41302">
        <ele>593.2</ele>
        <time>2026-02-22T13:02:31Z</time>
      </trkpt>
      <trkpt lat="43.58413" lon="6.41301">
        <ele>593.3</ele>
        <time>2026-02-22T13:02:32Z</time>
      </trkpt>
      <trkpt lat="43.58412" lon="6.41301">
        <ele>593.3</ele>
        <time>2026-02-22T13:02:33Z</time>
      </trkpt>
      <trkpt lat="43.58412" lon="6.413">
        <ele>593.3</ele>
        <time>2026-02-22T13:02:34Z</time>
      </trkpt>
      <trkpt lat="43.58412" lon="6.41299">
        <ele>593.4</ele>
        <time>2026-02-22T13:02:35Z</time>
      </trkpt>
      <trkpt lat="43.58412" lon="6.41299">
        <ele>593.4</ele>
        <time>2026-02-22T13:02:36Z</time>
      </trkpt>
      <trkpt lat="43.58412" lon="6.41298">
        <ele>593.4</ele>
        <time>2026-02-22T13:02:37Z</time>
      </trkpt>
      <trkpt lat="43.58413" lon="6.41297">
        <ele>593.5</ele>
        <time>2026-02-22T13:02:38Z</time>
      </trkpt>
      <trkpt lat="43.58413" lon="6.41296">
        <ele>593.6</ele>
        <time>2026-02-22T13:02:39Z</time>
      </trkpt>
      <trkpt lat="43.58413" lon="6.41295">
        <ele>593.7</ele>
        <time>2026-02-22T13:02:40Z</time>
      </trkpt>
      <trkpt lat="43.58414" lon="6.41295">
        <ele>593.7</ele>
        <time>2026-02-22T13:02:41Z</time>
      </trkpt>
      <trkpt lat="43.58413" lon="6.41293">
        <ele>593.8</ele>
        <time>2026-02-22T13:02:42Z</time>
      </trkpt>
      <trkpt lat="43.58413" lon="6.41293">
        <ele>593.8</ele>
        <time>2026-02-22T13:02:43Z</time>
      </trkpt>
      <trkpt lat="43.58414" lon="6.41292">
        <ele>593.9</ele>
        <time>2026-02-22T13:02:44Z</time>
      </trkpt>
      <trkpt lat="43.58414" lon="6.41291">
        <ele>593.9</ele>
        <time>2026-02-22T13:02:45Z</time>
      </trkpt>
      <trkpt lat="43.58414" lon="6.4129">
        <ele>593.9</ele>
        <time>2026-02-22T13:02:46Z</time>
      </trkpt>
      <trkpt lat="43.58415" lon="6.41289">
        <ele>594</ele>
        <time>2026-02-22T13:02:47Z</time>
      </trkpt>
      <trkpt lat="43.58415" lon="6.41288">
        <ele>594</ele>
        <time>2026-02-22T13:02:48Z</time>
      </trkpt>
      <trkpt lat="43.58416" lon="6.41287">
        <ele>594.1</ele>
        <time>2026-02-22T13:02:49Z</time>
      </trkpt>
      <trkpt lat="43.58416" lon="6.41287">
        <ele>594.2</ele>
        <time>2026-02-22T13:02:50Z</time>
      </trkpt>
      <trkpt lat="43.58416" lon="6.41286">
        <ele>594.2</ele>
        <time>2026-02-22T13:02:51Z</time>
      </trkpt>
      <trkpt lat="43.58416" lon="6.41284">
        <ele>594.3</ele>
        <time>2026-02-22T13:02:52Z</time>
      </trkpt>
      <trkpt lat="43.58417" lon="6.41283">
        <ele>594.3</ele>
        <time>2026-02-22T13:02:53Z</time>
      </trkpt>
      <trkpt lat="43.58417" lon="6.41282">
        <ele>594.4</ele>
        <time>2026-02-22T13:02:54Z</time>
      </trkpt>
      <trkpt lat="43.58418" lon="6.41281">
        <ele>594.5</ele>
        <time>2026-02-22T13:02:55Z</time>
      </trkpt>
      <trkpt lat="43.58418" lon="6.4128">
        <ele>594.6</ele>
        <time>2026-02-22T13:02:56Z</time>
      </trkpt>
      <trkpt lat="43.58419" lon="6.41279">
        <ele>594.7</ele>
        <time>2026-02-22T13:02:57Z</time>
      </trkpt>
      <trkpt lat="43.58419" lon="6.41279">
        <ele>594.8</ele>
        <time>2026-02-22T13:02:58Z</time>
      </trkpt>
      <trkpt lat="43.5842" lon="6.41278">
        <ele>594.9</ele>
        <time>2026-02-22T13:02:59Z</time>
      </trkpt>
      <trkpt lat="43.5842" lon="6.41277">
        <ele>595.1</ele>
        <time>2026-02-22T13:03:00Z</time>
      </trkpt>
      <trkpt lat="43.58421" lon="6.41275">
        <ele>595.3</ele>
        <time>2026-02-22T13:03:01Z</time>
      </trkpt>
      <trkpt lat="43.58421" lon="6.41275">
        <ele>595.4</ele>
        <time>2026-02-22T13:03:02Z</time>
      </trkpt>
      <trkpt lat="43.58421" lon="6.41274">
        <ele>595.5</ele>
        <time>2026-02-22T13:03:03Z</time>
      </trkpt>
      <trkpt lat="43.58421" lon="6.41273">
        <ele>595.6</ele>
        <time>2026-02-22T13:03:04Z</time>
      </trkpt>
      <trkpt lat="43.58421" lon="6.41272">
        <ele>595.6</ele>
        <time>2026-02-22T13:03:05Z</time>
      </trkpt>
      <trkpt lat="43.58422" lon="6.41272">
        <ele>595.6</ele>
        <time>2026-02-22T13:03:06Z</time>
      </trkpt>
      <trkpt lat="43.58422" lon="6.41271">
        <ele>595.6</ele>
        <time>2026-02-22T13:03:07Z</time>
      </trkpt>
      <trkpt lat="43.58422" lon="6.4127">
        <ele>595.7</ele>
        <time>2026-02-22T13:03:08Z</time>
      </trkpt>
      <trkpt lat="43.58423" lon="6.4127">
        <ele>595.7</ele>
        <time>2026-02-22T13:03:09Z</time>
      </trkpt>
      <trkpt lat="43.58423" lon="6.41268">
        <ele>595.7</ele>
        <time>2026-02-22T13:03:10Z</time>
      </trkpt>
      <trkpt lat="43.58423" lon="6.41268">
        <ele>595.9</ele>
        <time>2026-02-22T13:03:11Z</time>
      </trkpt>
      <trkpt lat="43.58423" lon="6.41267">
        <ele>596</ele>
        <time>2026-02-22T13:03:12Z</time>
      </trkpt>
      <trkpt lat="43.58424" lon="6.41266">
        <ele>596</ele>
        <time>2026-02-22T13:03:13Z</time>
      </trkpt>
      <trkpt lat="43.58424" lon="6.41265">
        <ele>596.1</ele>
        <time>2026-02-22T13:03:14Z</time>
      </trkpt>
      <trkpt lat="43.58424" lon="6.41265">
        <ele>596.2</ele>
        <time>2026-02-22T13:03:15Z</time>
      </trkpt>
      <trkpt lat="43.58424" lon="6.41264">
        <ele>596.2</ele>
        <time>2026-02-22T13:03:16Z</time>
      </trkpt>
      <trkpt lat="43.58424" lon="6.41264">
        <ele>596.3</ele>
        <time>2026-02-22T13:03:17Z</time>
      </trkpt>
      <trkpt lat="43.58424" lon="6.41263">
        <ele>596.4</ele>
        <time>2026-02-22T13:03:18Z</time>
      </trkpt>
      <trkpt lat="43.58424" lon="6.41263">
        <ele>596.5</ele>
        <time>2026-02-22T13:03:19Z</time>
      </trkpt>
      <trkpt lat="43.58425" lon="6.41262">
        <ele>596.5</ele>
        <time>2026-02-22T13:03:20Z</time>
      </trkpt>
      <trkpt lat="43.58425" lon="6.41261">
        <ele>596.6</ele>
        <time>2026-02-22T13:03:21Z</time>
      </trkpt>
      <trkpt lat="43.58425" lon="6.4126">
        <ele>596.7</ele>
        <time>2026-02-22T13:03:22Z</time>
      </trkpt>
      <trkpt lat="43.58426" lon="6.41259">
        <ele>596.7</ele>
        <time>2026-02-22T13:03:23Z</time>
      </trkpt>
      <trkpt lat="43.58426" lon="6.41259">
        <ele>596.7</ele>
        <time>2026-02-22T13:03:24Z</time>
      </trkpt>
      <trkpt lat="43.58426" lon="6.41259">
        <ele>596.6</ele>
        <time>2026-02-22T13:03:25Z</time>
      </trkpt>
      <trkpt lat="43.58426" lon="6.41258">
        <ele>596.6</ele>
        <time>2026-02-22T13:03:26Z</time>
      </trkpt>
      <trkpt lat="43.58426" lon="6.41258">
        <ele>596.7</ele>
        <time>2026-02-22T13:03:27Z</time>
      </trkpt>
      <trkpt lat="43.58426" lon="6.41257">
        <ele>596.7</ele>
        <time>2026-02-22T13:03:28Z</time>
      </trkpt>
      <trkpt lat="43.58426" lon="6.41256">
        <ele>596.7</ele>
        <time>2026-02-22T13:03:29Z</time>
      </trkpt>
      <trkpt lat="43.58427" lon="6.41255">
        <ele>596.7</ele>
        <time>2026-02-22T13:03:30Z</time>
      </trkpt>
      <trkpt lat="43.58427" lon="6.41254">
        <ele>596.7</ele>
        <time>2026-02-22T13:03:31Z</time>
      </trkpt>
      <trkpt lat="43.58427" lon="6.41253">
        <ele>596.8</ele>
        <time>2026-02-22T13:03:32Z</time>
      </trkpt>
      <trkpt lat="43.58427" lon="6.41251">
        <ele>596.9</ele>
        <time>2026-02-22T13:03:33Z</time>
      </trkpt>
      <trkpt lat="43.58428" lon="6.4125">
        <ele>596.9</ele>
        <time>2026-02-22T13:03:34Z</time>
      </trkpt>
      <trkpt lat="43.58428" lon="6.41249">
        <ele>597</ele>
        <time>2026-02-22T13:03:35Z</time>
      </trkpt>
      <trkpt lat="43.58429" lon="6.41248">
        <ele>597.1</ele>
        <time>2026-02-22T13:03:36Z</time>
      </trkpt>
      <trkpt lat="43.58429" lon="6.41246">
        <ele>597.1</ele>
        <time>2026-02-22T13:03:37Z</time>
      </trkpt>
      <trkpt lat="43.58429" lon="6.41245">
        <ele>597.2</ele>
        <time>2026-02-22T13:03:38Z</time>
      </trkpt>
      <trkpt lat="43.58429" lon="6.41244">
        <ele>597.2</ele>
        <time>2026-02-22T13:03:39Z</time>
      </trkpt>
      <trkpt lat="43.58429" lon="6.41242">
        <ele>597.4</ele>
        <time>2026-02-22T13:03:40Z</time>
      </trkpt>
      <trkpt lat="43.58429" lon="6.41241">
        <ele>597.5</ele>
        <time>2026-02-22T13:03:41Z</time>
      </trkpt>
      <trkpt lat="43.58429" lon="6.4124">
        <ele>597.5</ele>
        <time>2026-02-22T13:03:42Z</time>
      </trkpt>
      <trkpt lat="43.58429" lon="6.41239">
        <ele>597.6</ele>
        <time>2026-02-22T13:03:43Z</time>
      </trkpt>
      <trkpt lat="43.58429" lon="6.41238">
        <ele>597.6</ele>
        <time>2026-02-22T13:03:44Z</time>
      </trkpt>
      <trkpt lat="43.58429" lon="6.41237">
        <ele>597.7</ele>
        <time>2026-02-22T13:03:45Z</time>
      </trkpt>
      <trkpt lat="43.58429" lon="6.41236">
        <ele>597.7</ele>
        <time>2026-02-22T13:03:46Z</time>
      </trkpt>
      <trkpt lat="43.58429" lon="6.41235">
        <ele>597.7</ele>
        <time>2026-02-22T13:03:47Z</time>
      </trkpt>
      <trkpt lat="43.5843" lon="6.41234">
        <ele>597.7</ele>
        <time>2026-02-22T13:03:48Z</time>
      </trkpt>
      <trkpt lat="43.5843" lon="6.41233">
        <ele>597.7</ele>
        <time>2026-02-22T13:03:49Z</time>
      </trkpt>
      <trkpt lat="43.58431" lon="6.41232">
        <ele>597.7</ele>
        <time>2026-02-22T13:03:50Z</time>
      </trkpt>
      <trkpt lat="43.58432" lon="6.4123">
        <ele>597.7</ele>
        <time>2026-02-22T13:03:51Z</time>
      </trkpt>
      <trkpt lat="43.58433" lon="6.4123">
        <ele>597.6</ele>
        <time>2026-02-22T13:03:52Z</time>
      </trkpt>
      <trkpt lat="43.58433" lon="6.41229">
        <ele>597.7</ele>
        <time>2026-02-22T13:03:53Z</time>
      </trkpt>
      <trkpt lat="43.58433" lon="6.41227">
        <ele>597.8</ele>
        <time>2026-02-22T13:03:54Z</time>
      </trkpt>
      <trkpt lat="43.58433" lon="6.41227">
        <ele>597.8</ele>
        <time>2026-02-22T13:03:55Z</time>
      </trkpt>
      <trkpt lat="43.58434" lon="6.41226">
        <ele>598</ele>
        <time>2026-02-22T13:03:56Z</time>
      </trkpt>
      <trkpt lat="43.58434" lon="6.41225">
        <ele>598</ele>
        <time>2026-02-22T13:03:57Z</time>
      </trkpt>
      <trkpt lat="43.58434" lon="6.41224">
        <ele>598.1</ele>
        <time>2026-02-22T13:03:58Z</time>
      </trkpt>
      <trkpt lat="43.58434" lon="6.41223">
        <ele>598.2</ele>
        <time>2026-02-22T13:03:59Z</time>
      </trkpt>
      <trkpt lat="43.58435" lon="6.41222">
        <ele>598.2</ele>
        <time>2026-02-22T13:04:00Z</time>
      </trkpt>
      <trkpt lat="43.58434" lon="6.41222">
        <ele>598.2</ele>
        <time>2026-02-22T13:04:01Z</time>
      </trkpt>
      <trkpt lat="43.58434" lon="6.41221">
        <ele>598.2</ele>
        <time>2026-02-22T13:04:02Z</time>
      </trkpt>
      <trkpt lat="43.58434" lon="6.4122">
        <ele>598.3</ele>
        <time>2026-02-22T13:04:03Z</time>
      </trkpt>
      <trkpt lat="43.58435" lon="6.41219">
        <ele>598.5</ele>
        <time>2026-02-22T13:04:04Z</time>
      </trkpt>
      <trkpt lat="43.58435" lon="6.41219">
        <ele>598.5</ele>
        <time>2026-02-22T13:04:05Z</time>
      </trkpt>
      <trkpt lat="43.58435" lon="6.41218">
        <ele>598.6</ele>
        <time>2026-02-22T13:04:06Z</time>
      </trkpt>
      <trkpt lat="43.58436" lon="6.41218">
        <ele>598.6</ele>
        <time>2026-02-22T13:04:07Z</time>
      </trkpt>
      <trkpt lat="43.58436" lon="6.41217">
        <ele>598.7</ele>
        <time>2026-02-22T13:04:08Z</time>
      </trkpt>
      <trkpt lat="43.58437" lon="6.41216">
        <ele>598.9</ele>
        <time>2026-02-22T13:04:09Z</time>
      </trkpt>
      <trkpt lat="43.58437" lon="6.41215">
        <ele>599</ele>
        <time>2026-02-22T13:04:10Z</time>
      </trkpt>
      <trkpt lat="43.58438" lon="6.41215">
        <ele>599.1</ele>
        <time>2026-02-22T13:04:11Z</time>
      </trkpt>
      <trkpt lat="43.58439" lon="6.41214">
        <ele>599.3</ele>
        <time>2026-02-22T13:04:12Z</time>
      </trkpt>
      <trkpt lat="43.58439" lon="6.41213">
        <ele>599.5</ele>
        <time>2026-02-22T13:04:13Z</time>
      </trkpt>
      <trkpt lat="43.5844" lon="6.41212">
        <ele>599.6</ele>
        <time>2026-02-22T13:04:14Z</time>
      </trkpt>
      <trkpt lat="43.5844" lon="6.41211">
        <ele>599.7</ele>
        <time>2026-02-22T13:04:15Z</time>
      </trkpt>
      <trkpt lat="43.58441" lon="6.4121">
        <ele>599.7</ele>
        <time>2026-02-22T13:04:16Z</time>
      </trkpt>
      <trkpt lat="43.58441" lon="6.4121">
        <ele>599.8</ele>
        <time>2026-02-22T13:04:17Z</time>
      </trkpt>
      <trkpt lat="43.58441" lon="6.41209">
        <ele>599.8</ele>
        <time>2026-02-22T13:04:18Z</time>
      </trkpt>
      <trkpt lat="43.58442" lon="6.41208">
        <ele>599.8</ele>
        <time>2026-02-22T13:04:19Z</time>
      </trkpt>
      <trkpt lat="43.58442" lon="6.41206">
        <ele>599.9</ele>
        <time>2026-02-22T13:04:20Z</time>
      </trkpt>
      <trkpt lat="43.58443" lon="6.41205">
        <ele>599.9</ele>
        <time>2026-02-22T13:04:21Z</time>
      </trkpt>
      <trkpt lat="43.58443" lon="6.41204">
        <ele>600</ele>
        <time>2026-02-22T13:04:22Z</time>
      </trkpt>
      <trkpt lat="43.58443" lon="6.41203">
        <ele>600</ele>
        <time>2026-02-22T13:04:23Z</time>
      </trkpt>
      <trkpt lat="43.58443" lon="6.41202">
        <ele>600.1</ele>
        <time>2026-02-22T13:04:24Z</time>
      </trkpt>
      <trkpt lat="43.58444" lon="6.41201">
        <ele>600.1</ele>
        <time>2026-02-22T13:04:25Z</time>
      </trkpt>
      <trkpt lat="43.58444" lon="6.412">
        <ele>600.3</ele>
        <time>2026-02-22T13:04:26Z</time>
      </trkpt>
      <trkpt lat="43.58444" lon="6.41198">
        <ele>600.4</ele>
        <time>2026-02-22T13:04:27Z</time>
      </trkpt>
      <trkpt lat="43.58445" lon="6.41196">
        <ele>600.5</ele>
        <time>2026-02-22T13:04:28Z</time>
      </trkpt>
      <trkpt lat="43.58445" lon="6.41195">
        <ele>600.6</ele>
        <time>2026-02-22T13:04:29Z</time>
      </trkpt>
      <trkpt lat="43.58445" lon="6.41193">
        <ele>600.7</ele>
        <time>2026-02-22T13:04:30Z</time>
      </trkpt>
      <trkpt lat="43.58446" lon="6.41192">
        <ele>600.8</ele>
        <time>2026-02-22T13:04:31Z</time>
      </trkpt>
      <trkpt lat="43.58446" lon="6.41191">
        <ele>601</ele>
        <time>2026-02-22T13:04:32Z</time>
      </trkpt>
      <trkpt lat="43.58447" lon="6.4119">
        <ele>601</ele>
        <time>2026-02-22T13:04:33Z</time>
      </trkpt>
      <trkpt lat="43.58448" lon="6.41189">
        <ele>601.1</ele>
        <time>2026-02-22T13:04:34Z</time>
      </trkpt>
      <trkpt lat="43.58448" lon="6.41188">
        <ele>601.2</ele>
        <time>2026-02-22T13:04:35Z</time>
      </trkpt>
      <trkpt lat="43.58449" lon="6.41187">
        <ele>601.3</ele>
        <time>2026-02-22T13:04:36Z</time>
      </trkpt>
      <trkpt lat="43.58449" lon="6.41186">
        <ele>601.4</ele>
        <time>2026-02-22T13:04:37Z</time>
      </trkpt>
      <trkpt lat="43.5845" lon="6.41185">
        <ele>601.4</ele>
        <time>2026-02-22T13:04:38Z</time>
      </trkpt>
      <trkpt lat="43.5845" lon="6.41184">
        <ele>601.6</ele>
        <time>2026-02-22T13:04:39Z</time>
      </trkpt>
      <trkpt lat="43.5845" lon="6.41183">
        <ele>601.7</ele>
        <time>2026-02-22T13:04:40Z</time>
      </trkpt>
      <trkpt lat="43.58451" lon="6.41182">
        <ele>601.8</ele>
        <time>2026-02-22T13:04:41Z</time>
      </trkpt>
      <trkpt lat="43.58451" lon="6.41181">
        <ele>601.9</ele>
        <time>2026-02-22T13:04:42Z</time>
      </trkpt>
      <trkpt lat="43.58452" lon="6.4118">
        <ele>601.9</ele>
        <time>2026-02-22T13:04:43Z</time>
      </trkpt>
      <trkpt lat="43.58452" lon="6.41179">
        <ele>601.9</ele>
        <time>2026-02-22T13:04:44Z</time>
      </trkpt>
      <trkpt lat="43.58452" lon="6.41178">
        <ele>602</ele>
        <time>2026-02-22T13:04:45Z</time>
      </trkpt>
      <trkpt lat="43.58452" lon="6.41177">
        <ele>602.1</ele>
        <time>2026-02-22T13:04:46Z</time>
      </trkpt>
      <trkpt lat="43.58452" lon="6.41176">
        <ele>602.2</ele>
        <time>2026-02-22T13:04:47Z</time>
      </trkpt>
      <trkpt lat="43.58453" lon="6.41175">
        <ele>602.2</ele>
        <time>2026-02-22T13:04:48Z</time>
      </trkpt>
      <trkpt lat="43.58452" lon="6.41175">
        <ele>602.2</ele>
        <time>2026-02-22T13:04:49Z</time>
      </trkpt>
      <trkpt lat="43.58453" lon="6.41173">
        <ele>602.3</ele>
        <time>2026-02-22T13:04:50Z</time>
      </trkpt>
      <trkpt lat="43.58454" lon="6.41172">
        <ele>602.3</ele>
        <time>2026-02-22T13:04:51Z</time>
      </trkpt>
      <trkpt lat="43.58454" lon="6.41171">
        <ele>602.4</ele>
        <time>2026-02-22T13:04:52Z</time>
      </trkpt>
      <trkpt lat="43.58454" lon="6.4117">
        <ele>602.5</ele>
        <time>2026-02-22T13:04:53Z</time>
      </trkpt>
      <trkpt lat="43.58455" lon="6.41169">
        <ele>602.6</ele>
        <time>2026-02-22T13:04:54Z</time>
      </trkpt>
      <trkpt lat="43.58455" lon="6.41168">
        <ele>602.6</ele>
        <time>2026-02-22T13:04:55Z</time>
      </trkpt>
      <trkpt lat="43.58455" lon="6.41167">
        <ele>602.7</ele>
        <time>2026-02-22T13:04:56Z</time>
      </trkpt>
      <trkpt lat="43.58455" lon="6.41166">
        <ele>602.7</ele>
        <time>2026-02-22T13:04:57Z</time>
      </trkpt>
      <trkpt lat="43.58455" lon="6.41165">
        <ele>602.7</ele>
        <time>2026-02-22T13:04:58Z</time>
      </trkpt>
      <trkpt lat="43.58456" lon="6.41164">
        <ele>602.7</ele>
        <time>2026-02-22T13:04:59Z</time>
      </trkpt>
      <trkpt lat="43.58456" lon="6.41164">
        <ele>602.8</ele>
        <time>2026-02-22T13:05:00Z</time>
      </trkpt>
      <trkpt lat="43.58456" lon="6.41163">
        <ele>602.9</ele>
        <time>2026-02-22T13:05:01Z</time>
      </trkpt>
      <trkpt lat="43.58457" lon="6.41162">
        <ele>603</ele>
        <time>2026-02-22T13:05:02Z</time>
      </trkpt>
      <trkpt lat="43.58457" lon="6.41161">
        <ele>603</ele>
        <time>2026-02-22T13:05:03Z</time>
      </trkpt>
      <trkpt lat="43.58458" lon="6.41161">
        <ele>603.1</ele>
        <time>2026-02-22T13:05:04Z</time>
      </trkpt>
      <trkpt lat="43.58459" lon="6.4116">
        <ele>603.1</ele>
        <time>2026-02-22T13:05:05Z</time>
      </trkpt>
      <trkpt lat="43.5846" lon="6.41159">
        <ele>603.2</ele>
        <time>2026-02-22T13:05:06Z</time>
      </trkpt>
      <trkpt lat="43.5846" lon="6.41158">
        <ele>603.2</ele>
        <time>2026-02-22T13:05:07Z</time>
      </trkpt>
      <trkpt lat="43.58459" lon="6.41158">
        <ele>603.3</ele>
        <time>2026-02-22T13:05:08Z</time>
      </trkpt>
      <trkpt lat="43.58459" lon="6.41157">
        <ele>603.3</ele>
        <time>2026-02-22T13:05:09Z</time>
      </trkpt>
      <trkpt lat="43.58459" lon="6.41156">
        <ele>603.5</ele>
        <time>2026-02-22T13:05:10Z</time>
      </trkpt>
      <trkpt lat="43.58459" lon="6.41154">
        <ele>603.6</ele>
        <time>2026-02-22T13:05:11Z</time>
      </trkpt>
      <trkpt lat="43.58459" lon="6.41153">
        <ele>603.7</ele>
        <time>2026-02-22T13:05:12Z</time>
      </trkpt>
      <trkpt lat="43.58459" lon="6.41152">
        <ele>603.7</ele>
        <time>2026-02-22T13:05:13Z</time>
      </trkpt>
      <trkpt lat="43.58459" lon="6.41151">
        <ele>603.8</ele>
        <time>2026-02-22T13:05:14Z</time>
      </trkpt>
      <trkpt lat="43.58459" lon="6.4115">
        <ele>603.9</ele>
        <time>2026-02-22T13:05:15Z</time>
      </trkpt>
      <trkpt lat="43.58459" lon="6.41149">
        <ele>603.9</ele>
        <time>2026-02-22T13:05:16Z</time>
      </trkpt>
      <trkpt lat="43.58459" lon="6.41149">
        <ele>604</ele>
        <time>2026-02-22T13:05:17Z</time>
      </trkpt>
      <trkpt lat="43.5846" lon="6.41148">
        <ele>604</ele>
        <time>2026-02-22T13:05:18Z</time>
      </trkpt>
      <trkpt lat="43.5846" lon="6.41148">
        <ele>604.1</ele>
        <time>2026-02-22T13:05:19Z</time>
      </trkpt>
      <trkpt lat="43.58461" lon="6.41147">
        <ele>604.1</ele>
        <time>2026-02-22T13:05:20Z</time>
      </trkpt>
      <trkpt lat="43.58461" lon="6.41146">
        <ele>604.2</ele>
        <time>2026-02-22T13:05:21Z</time>
      </trkpt>
      <trkpt lat="43.58461" lon="6.41146">
        <ele>604.2</ele>
        <time>2026-02-22T13:05:22Z</time>
      </trkpt>
      <trkpt lat="43.58461" lon="6.41145">
        <ele>604.2</ele>
        <time>2026-02-22T13:05:23Z</time>
      </trkpt>
      <trkpt lat="43.58461" lon="6.41144">
        <ele>604.3</ele>
        <time>2026-02-22T13:05:24Z</time>
      </trkpt>
      <trkpt lat="43.58462" lon="6.41143">
        <ele>604.4</ele>
        <time>2026-02-22T13:05:25Z</time>
      </trkpt>
      <trkpt lat="43.58462" lon="6.41142">
        <ele>604.4</ele>
        <time>2026-02-22T13:05:26Z</time>
      </trkpt>
      <trkpt lat="43.58462" lon="6.41141">
        <ele>604.4</ele>
        <time>2026-02-22T13:05:27Z</time>
      </trkpt>
      <trkpt lat="43.58462" lon="6.4114">
        <ele>604.5</ele>
        <time>2026-02-22T13:05:28Z</time>
      </trkpt>
      <trkpt lat="43.58462" lon="6.41138">
        <ele>604.6</ele>
        <time>2026-02-22T13:05:29Z</time>
      </trkpt>
      <trkpt lat="43.58462" lon="6.41137">
        <ele>604.7</ele>
        <time>2026-02-22T13:05:30Z</time>
      </trkpt>
      <trkpt lat="43.58462" lon="6.41136">
        <ele>604.9</ele>
        <time>2026-02-22T13:05:31Z</time>
      </trkpt>
      <trkpt lat="43.58463" lon="6.41135">
        <ele>605</ele>
        <time>2026-02-22T13:05:32Z</time>
      </trkpt>
      <trkpt lat="43.58463" lon="6.41133">
        <ele>605</ele>
        <time>2026-02-22T13:05:33Z</time>
      </trkpt>
      <trkpt lat="43.58464" lon="6.41132">
        <ele>605.1</ele>
        <time>2026-02-22T13:05:34Z</time>
      </trkpt>
      <trkpt lat="43.58464" lon="6.41131">
        <ele>605.2</ele>
        <time>2026-02-22T13:05:35Z</time>
      </trkpt>
      <trkpt lat="43.58465" lon="6.4113">
        <ele>605.3</ele>
        <time>2026-02-22T13:05:36Z</time>
      </trkpt>
      <trkpt lat="43.58465" lon="6.41128">
        <ele>605.5</ele>
        <time>2026-02-22T13:05:37Z</time>
      </trkpt>
      <trkpt lat="43.58466" lon="6.41127">
        <ele>605.6</ele>
        <time>2026-02-22T13:05:38Z</time>
      </trkpt>
      <trkpt lat="43.58467" lon="6.41125">
        <ele>605.8</ele>
        <time>2026-02-22T13:05:39Z</time>
      </trkpt>
      <trkpt lat="43.58467" lon="6.41124">
        <ele>605.9</ele>
        <time>2026-02-22T13:05:40Z</time>
      </trkpt>
      <trkpt lat="43.58468" lon="6.41123">
        <ele>606.1</ele>
        <time>2026-02-22T13:05:41Z</time>
      </trkpt>
      <trkpt lat="43.58468" lon="6.41121">
        <ele>606.1</ele>
        <time>2026-02-22T13:05:42Z</time>
      </trkpt>
      <trkpt lat="43.58468" lon="6.41119">
        <ele>606.1</ele>
        <time>2026-02-22T13:05:43Z</time>
      </trkpt>
      <trkpt lat="43.58468" lon="6.41118">
        <ele>606.1</ele>
        <time>2026-02-22T13:05:44Z</time>
      </trkpt>
      <trkpt lat="43.58467" lon="6.41117">
        <ele>606.2</ele>
        <time>2026-02-22T13:05:45Z</time>
      </trkpt>
      <trkpt lat="43.58467" lon="6.41116">
        <ele>606.2</ele>
        <time>2026-02-22T13:05:46Z</time>
      </trkpt>
      <trkpt lat="43.58467" lon="6.41115">
        <ele>606.2</ele>
        <time>2026-02-22T13:05:47Z</time>
      </trkpt>
      <trkpt lat="43.58468" lon="6.41114">
        <ele>606.2</ele>
        <time>2026-02-22T13:05:48Z</time>
      </trkpt>
      <trkpt lat="43.58467" lon="6.41113">
        <ele>606.2</ele>
        <time>2026-02-22T13:05:49Z</time>
      </trkpt>
      <trkpt lat="43.58467" lon="6.41112">
        <ele>606.3</ele>
        <time>2026-02-22T13:05:50Z</time>
      </trkpt>
      <trkpt lat="43.58467" lon="6.41111">
        <ele>606.2</ele>
        <time>2026-02-22T13:05:51Z</time>
      </trkpt>
      <trkpt lat="43.58467" lon="6.41111">
        <ele>606.3</ele>
        <time>2026-02-22T13:05:52Z</time>
      </trkpt>
      <trkpt lat="43.58467" lon="6.4111">
        <ele>606.3</ele>
        <time>2026-02-22T13:05:53Z</time>
      </trkpt>
      <trkpt lat="43.58467" lon="6.41109">
        <ele>606.4</ele>
        <time>2026-02-22T13:05:54Z</time>
      </trkpt>
      <trkpt lat="43.58467" lon="6.41108">
        <ele>606.4</ele>
        <time>2026-02-22T13:05:55Z</time>
      </trkpt>
      <trkpt lat="43.58468" lon="6.41108">
        <ele>606.5</ele>
        <time>2026-02-22T13:05:56Z</time>
      </trkpt>
      <trkpt lat="43.58468" lon="6.41107">
        <ele>606.5</ele>
        <time>2026-02-22T13:05:57Z</time>
      </trkpt>
      <trkpt lat="43.58468" lon="6.41106">
        <ele>606.6</ele>
        <time>2026-02-22T13:05:58Z</time>
      </trkpt>
      <trkpt lat="43.58468" lon="6.41105">
        <ele>606.6</ele>
        <time>2026-02-22T13:05:59Z</time>
      </trkpt>
      <trkpt lat="43.58468" lon="6.41104">
        <ele>606.6</ele>
        <time>2026-02-22T13:06:00Z</time>
      </trkpt>
      <trkpt lat="43.58469" lon="6.41103">
        <ele>606.7</ele>
        <time>2026-02-22T13:06:01Z</time>
      </trkpt>
      <trkpt lat="43.58469" lon="6.41102">
        <ele>606.8</ele>
        <time>2026-02-22T13:06:02Z</time>
      </trkpt>
      <trkpt lat="43.58469" lon="6.41102">
        <ele>606.9</ele>
        <time>2026-02-22T13:06:03Z</time>
      </trkpt>
      <trkpt lat="43.58469" lon="6.41101">
        <ele>607</ele>
        <time>2026-02-22T13:06:04Z</time>
      </trkpt>
      <trkpt lat="43.5847" lon="6.411">
        <ele>607.1</ele>
        <time>2026-02-22T13:06:05Z</time>
      </trkpt>
      <trkpt lat="43.5847" lon="6.41098">
        <ele>607.2</ele>
        <time>2026-02-22T13:06:06Z</time>
      </trkpt>
      <trkpt lat="43.58471" lon="6.41097">
        <ele>607.2</ele>
        <time>2026-02-22T13:06:07Z</time>
      </trkpt>
      <trkpt lat="43.58472" lon="6.41096">
        <ele>607.3</ele>
        <time>2026-02-22T13:06:08Z</time>
      </trkpt>
      <trkpt lat="43.58472" lon="6.41095">
        <ele>607.4</ele>
        <time>2026-02-22T13:06:09Z</time>
      </trkpt>
      <trkpt lat="43.58473" lon="6.41093">
        <ele>607.5</ele>
        <time>2026-02-22T13:06:10Z</time>
      </trkpt>
      <trkpt lat="43.58475" lon="6.41092">
        <ele>607.6</ele>
        <time>2026-02-22T13:06:11Z</time>
      </trkpt>
      <trkpt lat="43.58475" lon="6.41091">
        <ele>607.7</ele>
        <time>2026-02-22T13:06:12Z</time>
      </trkpt>
      <trkpt lat="43.58476" lon="6.4109">
        <ele>607.8</ele>
        <time>2026-02-22T13:06:13Z</time>
      </trkpt>
      <trkpt lat="43.58476" lon="6.41089">
        <ele>608.1</ele>
        <time>2026-02-22T13:06:14Z</time>
      </trkpt>
      <trkpt lat="43.58477" lon="6.41088">
        <ele>608.2</ele>
        <time>2026-02-22T13:06:15Z</time>
      </trkpt>
      <trkpt lat="43.58478" lon="6.41087">
        <ele>608.3</ele>
        <time>2026-02-22T13:06:16Z</time>
      </trkpt>
      <trkpt lat="43.58478" lon="6.41086">
        <ele>608.4</ele>
        <time>2026-02-22T13:06:17Z</time>
      </trkpt>
      <trkpt lat="43.58479" lon="6.41085">
        <ele>608.5</ele>
        <time>2026-02-22T13:06:18Z</time>
      </trkpt>
      <trkpt lat="43.5848" lon="6.41083">
        <ele>608.5</ele>
        <time>2026-02-22T13:06:19Z</time>
      </trkpt>
      <trkpt lat="43.5848" lon="6.41083">
        <ele>608.6</ele>
        <time>2026-02-22T13:06:20Z</time>
      </trkpt>
      <trkpt lat="43.58481" lon="6.41082">
        <ele>608.6</ele>
        <time>2026-02-22T13:06:21Z</time>
      </trkpt>
      <trkpt lat="43.58481" lon="6.41081">
        <ele>608.7</ele>
        <time>2026-02-22T13:06:22Z</time>
      </trkpt>
      <trkpt lat="43.58481" lon="6.4108">
        <ele>608.8</ele>
        <time>2026-02-22T13:06:23Z</time>
      </trkpt>
      <trkpt lat="43.58481" lon="6.41079">
        <ele>608.8</ele>
        <time>2026-02-22T13:06:24Z</time>
      </trkpt>
      <trkpt lat="43.58482" lon="6.41078">
        <ele>608.9</ele>
        <time>2026-02-22T13:06:25Z</time>
      </trkpt>
      <trkpt lat="43.58481" lon="6.41077">
        <ele>609</ele>
        <time>2026-02-22T13:06:26Z</time>
      </trkpt>
      <trkpt lat="43.58481" lon="6.41076">
        <ele>609.2</ele>
        <time>2026-02-22T13:06:27Z</time>
      </trkpt>
      <trkpt lat="43.58481" lon="6.41075">
        <ele>609.2</ele>
        <time>2026-02-22T13:06:28Z</time>
      </trkpt>
      <trkpt lat="43.58481" lon="6.41074">
        <ele>609.3</ele>
        <time>2026-02-22T13:06:29Z</time>
      </trkpt>
      <trkpt lat="43.58482" lon="6.41073">
        <ele>609.3</ele>
        <time>2026-02-22T13:06:30Z</time>
      </trkpt>
      <trkpt lat="43.58482" lon="6.41072">
        <ele>609.4</ele>
        <time>2026-02-22T13:06:31Z</time>
      </trkpt>
      <trkpt lat="43.58482" lon="6.41071">
        <ele>609.5</ele>
        <time>2026-02-22T13:06:32Z</time>
      </trkpt>
      <trkpt lat="43.58483" lon="6.4107">
        <ele>609.5</ele>
        <time>2026-02-22T13:06:33Z</time>
      </trkpt>
      <trkpt lat="43.58483" lon="6.41069">
        <ele>609.5</ele>
        <time>2026-02-22T13:06:34Z</time>
      </trkpt>
      <trkpt lat="43.58484" lon="6.41068">
        <ele>609.7</ele>
        <time>2026-02-22T13:06:35Z</time>
      </trkpt>
      <trkpt lat="43.58484" lon="6.41067">
        <ele>609.8</ele>
        <time>2026-02-22T13:06:36Z</time>
      </trkpt>
      <trkpt lat="43.58484" lon="6.41066">
        <ele>609.9</ele>
        <time>2026-02-22T13:06:37Z</time>
      </trkpt>
      <trkpt lat="43.58484" lon="6.41066">
        <ele>609.9</ele>
        <time>2026-02-22T13:06:38Z</time>
      </trkpt>
      <trkpt lat="43.58485" lon="6.41064">
        <ele>609.9</ele>
        <time>2026-02-22T13:06:39Z</time>
      </trkpt>
      <trkpt lat="43.58485" lon="6.41063">
        <ele>609.9</ele>
        <time>2026-02-22T13:06:40Z</time>
      </trkpt>
      <trkpt lat="43.58485" lon="6.41061">
        <ele>609.9</ele>
        <time>2026-02-22T13:06:41Z</time>
      </trkpt>
      <trkpt lat="43.58486" lon="6.41059">
        <ele>610</ele>
        <time>2026-02-22T13:06:42Z</time>
      </trkpt>
      <trkpt lat="43.58486" lon="6.41058">
        <ele>610</ele>
        <time>2026-02-22T13:06:43Z</time>
      </trkpt>
      <trkpt lat="43.58487" lon="6.41056">
        <ele>609.9</ele>
        <time>2026-02-22T13:06:44Z</time>
      </trkpt>
      <trkpt lat="43.58487" lon="6.41055">
        <ele>610</ele>
        <time>2026-02-22T13:06:45Z</time>
      </trkpt>
      <trkpt lat="43.58488" lon="6.41055">
        <ele>610</ele>
        <time>2026-02-22T13:06:46Z</time>
      </trkpt>
      <trkpt lat="43.58488" lon="6.41054">
        <ele>610</ele>
        <time>2026-02-22T13:06:47Z</time>
      </trkpt>
      <trkpt lat="43.58488" lon="6.41054">
        <ele>610</ele>
        <time>2026-02-22T13:06:48Z</time>
      </trkpt>
      <trkpt lat="43.58488" lon="6.41053">
        <ele>610.1</ele>
        <time>2026-02-22T13:06:49Z</time>
      </trkpt>
      <trkpt lat="43.58489" lon="6.41052">
        <ele>610</ele>
        <time>2026-02-22T13:06:50Z</time>
      </trkpt>
      <trkpt lat="43.58489" lon="6.41052">
        <ele>610</ele>
        <time>2026-02-22T13:06:51Z</time>
      </trkpt>
      <trkpt lat="43.58489" lon="6.41051">
        <ele>610</ele>
        <time>2026-02-22T13:06:52Z</time>
      </trkpt>
      <trkpt lat="43.58489" lon="6.41051">
        <ele>609.9</ele>
        <time>2026-02-22T13:06:53Z</time>
      </trkpt>
      <trkpt lat="43.5849" lon="6.41051">
        <ele>609.9</ele>
        <time>2026-02-22T13:06:54Z</time>
      </trkpt>
      <trkpt lat="43.5849" lon="6.41051">
        <ele>609.9</ele>
        <time>2026-02-22T13:06:55Z</time>
      </trkpt>
      <trkpt lat="43.5849" lon="6.41051">
        <ele>609.9</ele>
        <time>2026-02-22T13:06:56Z</time>
      </trkpt>
      <trkpt lat="43.5849" lon="6.4105">
        <ele>609.8</ele>
        <time>2026-02-22T13:06:57Z</time>
      </trkpt>
      <trkpt lat="43.5849" lon="6.41049">
        <ele>609.9</ele>
        <time>2026-02-22T13:06:58Z</time>
      </trkpt>
      <trkpt lat="43.5849" lon="6.41049">
        <ele>609.9</ele>
        <time>2026-02-22T13:06:59Z</time>
      </trkpt>
      <trkpt lat="43.58489" lon="6.41048">
        <ele>609.9</ele>
        <time>2026-02-22T13:07:00Z</time>
      </trkpt>
      <trkpt lat="43.58489" lon="6.41047">
        <ele>609.9</ele>
        <time>2026-02-22T13:07:01Z</time>
      </trkpt>
      <trkpt lat="43.58489" lon="6.41047">
        <ele>609.9</ele>
        <time>2026-02-22T13:07:02Z</time>
      </trkpt>
      <trkpt lat="43.58489" lon="6.41047">
        <ele>609.8</ele>
        <time>2026-02-22T13:07:03Z</time>
      </trkpt>
      <trkpt lat="43.58489" lon="6.41046">
        <ele>609.8</ele>
        <time>2026-02-22T13:07:04Z</time>
      </trkpt>
      <trkpt lat="43.58489" lon="6.41046">
        <ele>609.8</ele>
        <time>2026-02-22T13:07:05Z</time>
      </trkpt>
      <trkpt lat="43.58489" lon="6.41045">
        <ele>609.8</ele>
        <time>2026-02-22T13:07:06Z</time>
      </trkpt>
      <trkpt lat="43.58489" lon="6.41045">
        <ele>609.7</ele>
        <time>2026-02-22T13:07:07Z</time>
      </trkpt>
      <trkpt lat="43.58488" lon="6.41045">
        <ele>609.7</ele>
        <time>2026-02-22T13:07:08Z</time>
      </trkpt>
      <trkpt lat="43.58489" lon="6.41045">
        <ele>609.7</ele>
        <time>2026-02-22T13:07:09Z</time>
      </trkpt>
      <trkpt lat="43.58489" lon="6.41044">
        <ele>609.6</ele>
        <time>2026-02-22T13:07:10Z</time>
      </trkpt>
      <trkpt lat="43.58489" lon="6.41044">
        <ele>609.5</ele>
        <time>2026-02-22T13:07:11Z</time>
      </trkpt>
      <trkpt lat="43.58489" lon="6.41044">
        <ele>609.5</ele>
        <time>2026-02-22T13:07:12Z</time>
      </trkpt>
      <trkpt lat="43.58489" lon="6.41044">
        <ele>609.5</ele>
        <time>2026-02-22T13:07:13Z</time>
      </trkpt>
      <trkpt lat="43.58489" lon="6.41044">
        <ele>609.5</ele>
        <time>2026-02-22T13:07:14Z</time>
      </trkpt>
      <trkpt lat="43.58489" lon="6.41044">
        <ele>609.6</ele>
        <time>2026-02-22T13:07:15Z</time>
      </trkpt>
      <trkpt lat="43.58489" lon="6.41044">
        <ele>609.6</ele>
        <time>2026-02-22T13:07:16Z</time>
      </trkpt>
      <trkpt lat="43.58488" lon="6.41044">
        <ele>609.7</ele>
        <time>2026-02-22T13:07:17Z</time>
      </trkpt>
      <trkpt lat="43.58488" lon="6.41043">
        <ele>609.7</ele>
        <time>2026-02-22T13:07:18Z</time>
      </trkpt>
      <trkpt lat="43.58488" lon="6.41043">
        <ele>609.8</ele>
        <time>2026-02-22T13:07:19Z</time>
      </trkpt>
      <trkpt lat="43.58488" lon="6.41043">
        <ele>609.8</ele>
        <time>2026-02-22T13:07:20Z</time>
      </trkpt>
      <trkpt lat="43.58488" lon="6.41043">
        <ele>609.8</ele>
        <time>2026-02-22T13:07:21Z</time>
      </trkpt>
      <trkpt lat="43.58488" lon="6.41044">
        <ele>609.8</ele>
        <time>2026-02-22T13:07:22Z</time>
      </trkpt>
      <trkpt lat="43.58488" lon="6.41044">
        <ele>609.8</ele>
        <time>2026-02-22T13:07:23Z</time>
      </trkpt>
      <trkpt lat="43.58488" lon="6.41044">
        <ele>609.8</ele>
        <time>2026-02-22T13:07:24Z</time>
      </trkpt>
      <trkpt lat="43.58488" lon="6.41044">
        <ele>609.8</ele>
        <time>2026-02-22T13:07:25Z</time>
      </trkpt>
      <trkpt lat="43.58488" lon="6.41044">
        <ele>609.8</ele>
        <time>2026-02-22T13:07:26Z</time>
      </trkpt>
      <trkpt lat="43.58488" lon="6.41044">
        <ele>609.9</ele>
        <time>2026-02-22T13:07:27Z</time>
      </trkpt>
      <trkpt lat="43.58488" lon="6.41044">
        <ele>610</ele>
        <time>2026-02-22T13:07:28Z</time>
      </trkpt>
      <trkpt lat="43.58488" lon="6.41044">
        <ele>609.9</ele>
        <time>2026-02-22T13:07:29Z</time>
      </trkpt>
      <trkpt lat="43.58488" lon="6.41044">
        <ele>609.9</ele>
        <time>2026-02-22T13:07:30Z</time>
      </trkpt>
      <trkpt lat="43.58488" lon="6.41043">
        <ele>609.8</ele>
        <time>2026-02-22T13:07:31Z</time>
      </trkpt>
      <trkpt lat="43.58488" lon="6.41044">
        <ele>609.8</ele>
        <time>2026-02-22T13:07:32Z</time>
      </trkpt>
      <trkpt lat="43.58488" lon="6.41044">
        <ele>609.8</ele>
        <time>2026-02-22T13:07:33Z</time>
      </trkpt>
      <trkpt lat="43.58488" lon="6.41044">
        <ele>609.9</ele>
        <time>2026-02-22T13:07:34Z</time>
      </trkpt>
      <trkpt lat="43.58488" lon="6.41044">
        <ele>610</ele>
        <time>2026-02-22T13:07:35Z</time>
      </trkpt>
      <trkpt lat="43.58488" lon="6.41044">
        <ele>610</ele>
        <time>2026-02-22T13:07:36Z</time>
      </trkpt>
      <trkpt lat="43.58488" lon="6.41044">
        <ele>610</ele>
        <time>2026-02-22T13:07:37Z</time>
      </trkpt>
      <trkpt lat="43.58488" lon="6.41044">
        <ele>610</ele>
        <time>2026-02-22T13:07:38Z</time>
      </trkpt>
      <trkpt lat="43.58488" lon="6.41044">
        <ele>609.9</ele>
        <time>2026-02-22T13:07:39Z</time>
      </trkpt>
      <trkpt lat="43.58489" lon="6.41044">
        <ele>609.9</ele>
        <time>2026-02-22T13:07:40Z</time>
      </trkpt>
      <trkpt lat="43.58489" lon="6.41044">
        <ele>609.9</ele>
        <time>2026-02-22T13:07:41Z</time>
      </trkpt>
      <trkpt lat="43.58489" lon="6.41045">
        <ele>609.9</ele>
        <time>2026-02-22T13:07:42Z</time>
      </trkpt>
      <trkpt lat="43.58489" lon="6.41045">
        <ele>609.9</ele>
        <time>2026-02-22T13:07:43Z</time>
      </trkpt>
      <trkpt lat="43.58489" lon="6.41045">
        <ele>609.9</ele>
        <time>2026-02-22T13:07:44Z</time>
      </trkpt>
      <trkpt lat="43.58489" lon="6.41045">
        <ele>609.8</ele>
        <time>2026-02-22T13:07:45Z</time>
      </trkpt>
      <trkpt lat="43.58489" lon="6.41045">
        <ele>609.7</ele>
        <time>2026-02-22T13:07:46Z</time>
      </trkpt>
      <trkpt lat="43.58489" lon="6.41045">
        <ele>609.7</ele>
        <time>2026-02-22T13:07:47Z</time>
      </trkpt>
      <trkpt lat="43.58489" lon="6.41045">
        <ele>609.7</ele>
        <time>2026-02-22T13:07:48Z</time>
      </trkpt>
      <trkpt lat="43.58489" lon="6.41045">
        <ele>609.7</ele>
        <time>2026-02-22T13:07:49Z</time>
      </trkpt>
      <trkpt lat="43.5849" lon="6.41046">
        <ele>609.7</ele>
        <time>2026-02-22T13:07:50Z</time>
      </trkpt>
      <trkpt lat="43.5849" lon="6.41046">
        <ele>609.8</ele>
        <time>2026-02-22T13:07:51Z</time>
      </trkpt>
      <trkpt lat="43.5849" lon="6.41046">
        <ele>609.8</ele>
        <time>2026-02-22T13:07:52Z</time>
      </trkpt>
      <trkpt lat="43.5849" lon="6.41046">
        <ele>609.8</ele>
        <time>2026-02-22T13:07:53Z</time>
      </trkpt>
      <trkpt lat="43.5849" lon="6.41046">
        <ele>609.8</ele>
        <time>2026-02-22T13:07:54Z</time>
      </trkpt>
      <trkpt lat="43.5849" lon="6.41046">
        <ele>609.8</ele>
        <time>2026-02-22T13:07:55Z</time>
      </trkpt>
      <trkpt lat="43.5849" lon="6.41046">
        <ele>609.8</ele>
        <time>2026-02-22T13:07:56Z</time>
      </trkpt>
      <trkpt lat="43.5849" lon="6.41046">
        <ele>609.8</ele>
        <time>2026-02-22T13:07:57Z</time>
      </trkpt>
      <trkpt lat="43.5849" lon="6.41047">
        <ele>609.8</ele>
        <time>2026-02-22T13:07:58Z</time>
      </trkpt>
      <trkpt lat="43.58489" lon="6.41047">
        <ele>609.8</ele>
        <time>2026-02-22T13:07:59Z</time>
      </trkpt>
      <trkpt lat="43.58489" lon="6.41047">
        <ele>609.8</ele>
        <time>2026-02-22T13:08:00Z</time>
      </trkpt>
      <trkpt lat="43.58489" lon="6.41047">
        <ele>609.8</ele>
        <time>2026-02-22T13:08:01Z</time>
      </trkpt>
      <trkpt lat="43.58489" lon="6.41047">
        <ele>609.8</ele>
        <time>2026-02-22T13:08:02Z</time>
      </trkpt>
      <trkpt lat="43.58489" lon="6.41047">
        <ele>609.8</ele>
        <time>2026-02-22T13:08:03Z</time>
      </trkpt>
      <trkpt lat="43.58489" lon="6.41047">
        <ele>609.8</ele>
        <time>2026-02-22T13:08:04Z</time>
      </trkpt>
      <trkpt lat="43.58489" lon="6.41047">
        <ele>609.8</ele>
        <time>2026-02-22T13:08:05Z</time>
      </trkpt>
      <trkpt lat="43.58489" lon="6.41048">
        <ele>609.9</ele>
        <time>2026-02-22T13:08:06Z</time>
      </trkpt>
      <trkpt lat="43.58489" lon="6.41048">
        <ele>609.9</ele>
        <time>2026-02-22T13:08:07Z</time>
      </trkpt>
      <trkpt lat="43.58489" lon="6.41048">
        <ele>610</ele>
        <time>2026-02-22T13:08:08Z</time>
      </trkpt>
      <trkpt lat="43.58489" lon="6.41048">
        <ele>610</ele>
        <time>2026-02-22T13:08:09Z</time>
      </trkpt>
      <trkpt lat="43.58489" lon="6.41048">
        <ele>610</ele>
        <time>2026-02-22T13:08:10Z</time>
      </trkpt>
      <trkpt lat="43.58489" lon="6.41048">
        <ele>610</ele>
        <time>2026-02-22T13:08:11Z</time>
      </trkpt>
      <trkpt lat="43.58489" lon="6.41048">
        <ele>610</ele>
        <time>2026-02-22T13:08:12Z</time>
      </trkpt>
      <trkpt lat="43.58489" lon="6.41048">
        <ele>610</ele>
        <time>2026-02-22T13:08:13Z</time>
      </trkpt>
      <trkpt lat="43.58489" lon="6.41048">
        <ele>609.9</ele>
        <time>2026-02-22T13:08:14Z</time>
      </trkpt>
      <trkpt lat="43.58489" lon="6.41048">
        <ele>609.9</ele>
        <time>2026-02-22T13:08:15Z</time>
      </trkpt>
      <trkpt lat="43.58489" lon="6.41048">
        <ele>609.8</ele>
        <time>2026-02-22T13:08:16Z</time>
      </trkpt>
      <trkpt lat="43.58489" lon="6.41048">
        <ele>609.8</ele>
        <time>2026-02-22T13:08:17Z</time>
      </trkpt>
      <trkpt lat="43.58489" lon="6.41048">
        <ele>609.8</ele>
        <time>2026-02-22T13:08:18Z</time>
      </trkpt>
      <trkpt lat="43.58489" lon="6.41048">
        <ele>609.8</ele>
        <time>2026-02-22T13:08:19Z</time>
      </trkpt>
      <trkpt lat="43.58489" lon="6.41048">
        <ele>609.8</ele>
        <time>2026-02-22T13:08:20Z</time>
      </trkpt>
      <trkpt lat="43.58489" lon="6.41048">
        <ele>609.8</ele>
        <time>2026-02-22T13:08:21Z</time>
      </trkpt>
      <trkpt lat="43.58489" lon="6.41048">
        <ele>609.8</ele>
        <time>2026-02-22T13:08:22Z</time>
      </trkpt>
      <trkpt lat="43.58488" lon="6.41048">
        <ele>609.8</ele>
        <time>2026-02-22T13:08:23Z</time>
      </trkpt>
      <trkpt lat="43.58489" lon="6.41048">
        <ele>609.8</ele>
        <time>2026-02-22T13:08:24Z</time>
      </trkpt>
      <trkpt lat="43.58489" lon="6.41048">
        <ele>609.8</ele>
        <time>2026-02-22T13:08:25Z</time>
      </trkpt>
      <trkpt lat="43.58489" lon="6.41048">
        <ele>609.7</ele>
        <time>2026-02-22T13:08:26Z</time>
      </trkpt>
      <trkpt lat="43.58489" lon="6.41048">
        <ele>609.7</ele>
        <time>2026-02-22T13:08:27Z</time>
      </trkpt>
      <trkpt lat="43.58489" lon="6.41048">
        <ele>609.7</ele>
        <time>2026-02-22T13:08:28Z</time>
      </trkpt>
      <trkpt lat="43.58489" lon="6.41048">
        <ele>609.7</ele>
        <time>2026-02-22T13:08:29Z</time>
      </trkpt>
      <trkpt lat="43.58489" lon="6.41048">
        <ele>609.7</ele>
        <time>2026-02-22T13:08:30Z</time>
      </trkpt>
      <trkpt lat="43.58489" lon="6.41048">
        <ele>609.8</ele>
        <time>2026-02-22T13:08:31Z</time>
      </trkpt>
      <trkpt lat="43.58489" lon="6.41048">
        <ele>609.8</ele>
        <time>2026-02-22T13:08:32Z</time>
      </trkpt>
      <trkpt lat="43.58489" lon="6.41048">
        <ele>609.8</ele>
        <time>2026-02-22T13:08:33Z</time>
      </trkpt>
      <trkpt lat="43.58489" lon="6.41048">
        <ele>609.8</ele>
        <time>2026-02-22T13:08:34Z</time>
      </trkpt>
      <trkpt lat="43.58489" lon="6.41048">
        <ele>609.8</ele>
        <time>2026-02-22T13:08:35Z</time>
      </trkpt>
      <trkpt lat="43.58489" lon="6.41047">
        <ele>609.8</ele>
        <time>2026-02-22T13:08:36Z</time>
      </trkpt>
      <trkpt lat="43.58489" lon="6.41047">
        <ele>609.8</ele>
        <time>2026-02-22T13:08:37Z</time>
      </trkpt>
      <trkpt lat="43.58489" lon="6.41046">
        <ele>609.7</ele>
        <time>2026-02-22T13:08:38Z</time>
      </trkpt>
      <trkpt lat="43.58489" lon="6.41045">
        <ele>609.7</ele>
        <time>2026-02-22T13:08:39Z</time>
      </trkpt>
      <trkpt lat="43.58489" lon="6.41045">
        <ele>609.8</ele>
        <time>2026-02-22T13:08:40Z</time>
      </trkpt>
      <trkpt lat="43.58489" lon="6.41044">
        <ele>609.9</ele>
        <time>2026-02-22T13:08:41Z</time>
      </trkpt>
      <trkpt lat="43.58489" lon="6.41043">
        <ele>610</ele>
        <time>2026-02-22T13:08:42Z</time>
      </trkpt>
      <trkpt lat="43.58489" lon="6.41042">
        <ele>610</ele>
        <time>2026-02-22T13:08:43Z</time>
      </trkpt>
      <trkpt lat="43.58489" lon="6.41041">
        <ele>610.1</ele>
        <time>2026-02-22T13:08:44Z</time>
      </trkpt>
      <trkpt lat="43.5849" lon="6.4104">
        <ele>610.1</ele>
        <time>2026-02-22T13:08:45Z</time>
      </trkpt>
      <trkpt lat="43.5849" lon="6.41039">
        <ele>610.1</ele>
        <time>2026-02-22T13:08:46Z</time>
      </trkpt>
      <trkpt lat="43.5849" lon="6.41038">
        <ele>610.2</ele>
        <time>2026-02-22T13:08:47Z</time>
      </trkpt>
      <trkpt lat="43.5849" lon="6.41037">
        <ele>610.3</ele>
        <time>2026-02-22T13:08:48Z</time>
      </trkpt>
      <trkpt lat="43.5849" lon="6.41036">
        <ele>610.4</ele>
        <time>2026-02-22T13:08:49Z</time>
      </trkpt>
      <trkpt lat="43.5849" lon="6.41036">
        <ele>610.4</ele>
        <time>2026-02-22T13:08:50Z</time>
      </trkpt>
      <trkpt lat="43.5849" lon="6.41035">
        <ele>610.5</ele>
        <time>2026-02-22T13:08:51Z</time>
      </trkpt>
      <trkpt lat="43.5849" lon="6.41034">
        <ele>610.6</ele>
        <time>2026-02-22T13:08:52Z</time>
      </trkpt>
      <trkpt lat="43.5849" lon="6.41033">
        <ele>610.7</ele>
        <time>2026-02-22T13:08:53Z</time>
      </trkpt>
      <trkpt lat="43.5849" lon="6.41032">
        <ele>610.7</ele>
        <time>2026-02-22T13:08:54Z</time>
      </trkpt>
      <trkpt lat="43.58491" lon="6.41031">
        <ele>610.8</ele>
        <time>2026-02-22T13:08:55Z</time>
      </trkpt>
      <trkpt lat="43.58491" lon="6.4103">
        <ele>610.9</ele>
        <time>2026-02-22T13:08:56Z</time>
      </trkpt>
      <trkpt lat="43.58491" lon="6.41029">
        <ele>611</ele>
        <time>2026-02-22T13:08:57Z</time>
      </trkpt>
      <trkpt lat="43.58491" lon="6.41029">
        <ele>611.1</ele>
        <time>2026-02-22T13:08:58Z</time>
      </trkpt>
      <trkpt lat="43.58492" lon="6.41027">
        <ele>611.1</ele>
        <time>2026-02-22T13:08:59Z</time>
      </trkpt>
      <trkpt lat="43.58491" lon="6.41027">
        <ele>611.2</ele>
        <time>2026-02-22T13:09:00Z</time>
      </trkpt>
      <trkpt lat="43.58492" lon="6.41026">
        <ele>611.2</ele>
        <time>2026-02-22T13:09:01Z</time>
      </trkpt>
      <trkpt lat="43.58492" lon="6.41026">
        <ele>611.1</ele>
        <time>2026-02-22T13:09:02Z</time>
      </trkpt>
      <trkpt lat="43.58492" lon="6.41025">
        <ele>611.2</ele>
        <time>2026-02-22T13:09:03Z</time>
      </trkpt>
      <trkpt lat="43.58492" lon="6.41024">
        <ele>611.2</ele>
        <time>2026-02-22T13:09:04Z</time>
      </trkpt>
      <trkpt lat="43.58492" lon="6.41023">
        <ele>611.2</ele>
        <time>2026-02-22T13:09:05Z</time>
      </trkpt>
      <trkpt lat="43.58493" lon="6.41022">
        <ele>611.2</ele>
        <time>2026-02-22T13:09:06Z</time>
      </trkpt>
      <trkpt lat="43.58492" lon="6.41021">
        <ele>611.2</ele>
        <time>2026-02-22T13:09:07Z</time>
      </trkpt>
      <trkpt lat="43.58493" lon="6.4102">
        <ele>611.3</ele>
        <time>2026-02-22T13:09:08Z</time>
      </trkpt>
      <trkpt lat="43.58493" lon="6.41018">
        <ele>611.3</ele>
        <time>2026-02-22T13:09:09Z</time>
      </trkpt>
      <trkpt lat="43.58493" lon="6.41018">
        <ele>611.4</ele>
        <time>2026-02-22T13:09:10Z</time>
      </trkpt>
      <trkpt lat="43.58494" lon="6.41016">
        <ele>611.4</ele>
        <time>2026-02-22T13:09:11Z</time>
      </trkpt>
      <trkpt lat="43.58494" lon="6.41014">
        <ele>611.5</ele>
        <time>2026-02-22T13:09:12Z</time>
      </trkpt>
      <trkpt lat="43.58494" lon="6.41013">
        <ele>611.5</ele>
        <time>2026-02-22T13:09:13Z</time>
      </trkpt>
      <trkpt lat="43.58494" lon="6.41012">
        <ele>611.5</ele>
        <time>2026-02-22T13:09:14Z</time>
      </trkpt>
      <trkpt lat="43.58494" lon="6.41011">
        <ele>611.5</ele>
        <time>2026-02-22T13:09:15Z</time>
      </trkpt>
      <trkpt lat="43.58495" lon="6.41009">
        <ele>611.4</ele>
        <time>2026-02-22T13:09:16Z</time>
      </trkpt>
      <trkpt lat="43.58495" lon="6.41008">
        <ele>611.5</ele>
        <time>2026-02-22T13:09:17Z</time>
      </trkpt>
      <trkpt lat="43.58495" lon="6.41007">
        <ele>611.6</ele>
        <time>2026-02-22T13:09:18Z</time>
      </trkpt>
      <trkpt lat="43.58495" lon="6.41007">
        <ele>611.6</ele>
        <time>2026-02-22T13:09:19Z</time>
      </trkpt>
      <trkpt lat="43.58495" lon="6.41005">
        <ele>611.6</ele>
        <time>2026-02-22T13:09:20Z</time>
      </trkpt>
      <trkpt lat="43.58496" lon="6.41004">
        <ele>611.6</ele>
        <time>2026-02-22T13:09:21Z</time>
      </trkpt>
      <trkpt lat="43.58496" lon="6.41003">
        <ele>611.5</ele>
        <time>2026-02-22T13:09:22Z</time>
      </trkpt>
      <trkpt lat="43.58496" lon="6.41002">
        <ele>611.6</ele>
        <time>2026-02-22T13:09:23Z</time>
      </trkpt>
      <trkpt lat="43.58495" lon="6.41001">
        <ele>611.6</ele>
        <time>2026-02-22T13:09:24Z</time>
      </trkpt>
      <trkpt lat="43.58496" lon="6.41001">
        <ele>611.6</ele>
        <time>2026-02-22T13:09:25Z</time>
      </trkpt>
      <trkpt lat="43.58496" lon="6.40999">
        <ele>611.6</ele>
        <time>2026-02-22T13:09:26Z</time>
      </trkpt>
      <trkpt lat="43.58496" lon="6.40998">
        <ele>611.6</ele>
        <time>2026-02-22T13:09:27Z</time>
      </trkpt>
      <trkpt lat="43.58497" lon="6.40996">
        <ele>611.7</ele>
        <time>2026-02-22T13:09:28Z</time>
      </trkpt>
      <trkpt lat="43.58496" lon="6.40994">
        <ele>611.7</ele>
        <time>2026-02-22T13:09:29Z</time>
      </trkpt>
      <trkpt lat="43.58496" lon="6.40993">
        <ele>611.8</ele>
        <time>2026-02-22T13:09:30Z</time>
      </trkpt>
      <trkpt lat="43.58496" lon="6.40992">
        <ele>611.9</ele>
        <time>2026-02-22T13:09:31Z</time>
      </trkpt>
      <trkpt lat="43.58496" lon="6.4099">
        <ele>612</ele>
        <time>2026-02-22T13:09:32Z</time>
      </trkpt>
      <trkpt lat="43.58496" lon="6.40989">
        <ele>612</ele>
        <time>2026-02-22T13:09:33Z</time>
      </trkpt>
      <trkpt lat="43.58497" lon="6.40988">
        <ele>611.9</ele>
        <time>2026-02-22T13:09:34Z</time>
      </trkpt>
      <trkpt lat="43.58497" lon="6.40986">
        <ele>612</ele>
        <time>2026-02-22T13:09:35Z</time>
      </trkpt>
      <trkpt lat="43.58497" lon="6.40984">
        <ele>612.1</ele>
        <time>2026-02-22T13:09:36Z</time>
      </trkpt>
      <trkpt lat="43.58498" lon="6.40983">
        <ele>612.1</ele>
        <time>2026-02-22T13:09:37Z</time>
      </trkpt>
      <trkpt lat="43.58498" lon="6.40982">
        <ele>612.1</ele>
        <time>2026-02-22T13:09:38Z</time>
      </trkpt>
      <trkpt lat="43.58498" lon="6.40981">
        <ele>612.1</ele>
        <time>2026-02-22T13:09:39Z</time>
      </trkpt>
      <trkpt lat="43.58498" lon="6.40979">
        <ele>612.1</ele>
        <time>2026-02-22T13:09:40Z</time>
      </trkpt>
      <trkpt lat="43.58498" lon="6.40978">
        <ele>612.1</ele>
        <time>2026-02-22T13:09:41Z</time>
      </trkpt>
      <trkpt lat="43.58498" lon="6.40976">
        <ele>612.1</ele>
        <time>2026-02-22T13:09:42Z</time>
      </trkpt>
      <trkpt lat="43.58499" lon="6.40974">
        <ele>612.1</ele>
        <time>2026-02-22T13:09:43Z</time>
      </trkpt>
      <trkpt lat="43.58499" lon="6.40973">
        <ele>612.1</ele>
        <time>2026-02-22T13:09:44Z</time>
      </trkpt>
      <trkpt lat="43.58499" lon="6.40971">
        <ele>612.2</ele>
        <time>2026-02-22T13:09:45Z</time>
      </trkpt>
      <trkpt lat="43.58499" lon="6.4097">
        <ele>612.2</ele>
        <time>2026-02-22T13:09:46Z</time>
      </trkpt>
      <trkpt lat="43.58499" lon="6.40968">
        <ele>612.2</ele>
        <time>2026-02-22T13:09:47Z</time>
      </trkpt>
      <trkpt lat="43.58499" lon="6.40967">
        <ele>612.2</ele>
        <time>2026-02-22T13:09:48Z</time>
      </trkpt>
      <trkpt lat="43.58499" lon="6.40966">
        <ele>612.2</ele>
        <time>2026-02-22T13:09:49Z</time>
      </trkpt>
      <trkpt lat="43.58499" lon="6.40965">
        <ele>612.2</ele>
        <time>2026-02-22T13:09:50Z</time>
      </trkpt>
      <trkpt lat="43.58499" lon="6.40963">
        <ele>612.2</ele>
        <time>2026-02-22T13:09:51Z</time>
      </trkpt>
      <trkpt lat="43.585" lon="6.40962">
        <ele>612.2</ele>
        <time>2026-02-22T13:09:52Z</time>
      </trkpt>
      <trkpt lat="43.585" lon="6.40961">
        <ele>612.2</ele>
        <time>2026-02-22T13:09:53Z</time>
      </trkpt>
      <trkpt lat="43.585" lon="6.4096">
        <ele>612.2</ele>
        <time>2026-02-22T13:09:54Z</time>
      </trkpt>
      <trkpt lat="43.585" lon="6.40958">
        <ele>612.3</ele>
        <time>2026-02-22T13:09:55Z</time>
      </trkpt>
      <trkpt lat="43.585" lon="6.40957">
        <ele>612.3</ele>
        <time>2026-02-22T13:09:56Z</time>
      </trkpt>
      <trkpt lat="43.58501" lon="6.40955">
        <ele>612.4</ele>
        <time>2026-02-22T13:09:57Z</time>
      </trkpt>
      <trkpt lat="43.58501" lon="6.40954">
        <ele>612.4</ele>
        <time>2026-02-22T13:09:58Z</time>
      </trkpt>
      <trkpt lat="43.58502" lon="6.40953">
        <ele>612.5</ele>
        <time>2026-02-22T13:09:59Z</time>
      </trkpt>
      <trkpt lat="43.58502" lon="6.40951">
        <ele>612.6</ele>
        <time>2026-02-22T13:10:00Z</time>
      </trkpt>
      <trkpt lat="43.58502" lon="6.4095">
        <ele>612.7</ele>
        <time>2026-02-22T13:10:01Z</time>
      </trkpt>
      <trkpt lat="43.58503" lon="6.40949">
        <ele>612.7</ele>
        <time>2026-02-22T13:10:02Z</time>
      </trkpt>
      <trkpt lat="43.58503" lon="6.40947">
        <ele>612.8</ele>
        <time>2026-02-22T13:10:03Z</time>
      </trkpt>
      <trkpt lat="43.58503" lon="6.40946">
        <ele>612.9</ele>
        <time>2026-02-22T13:10:04Z</time>
      </trkpt>
      <trkpt lat="43.58503" lon="6.40944">
        <ele>613</ele>
        <time>2026-02-22T13:10:05Z</time>
      </trkpt>
      <trkpt lat="43.58504" lon="6.40943">
        <ele>613</ele>
        <time>2026-02-22T13:10:06Z</time>
      </trkpt>
      <trkpt lat="43.58503" lon="6.40941">
        <ele>613.1</ele>
        <time>2026-02-22T13:10:07Z</time>
      </trkpt>
      <trkpt lat="43.58504" lon="6.4094">
        <ele>613.1</ele>
        <time>2026-02-22T13:10:08Z</time>
      </trkpt>
      <trkpt lat="43.58504" lon="6.40939">
        <ele>613.2</ele>
        <time>2026-02-22T13:10:09Z</time>
      </trkpt>
      <trkpt lat="43.58504" lon="6.40938">
        <ele>613.3</ele>
        <time>2026-02-22T13:10:10Z</time>
      </trkpt>
      <trkpt lat="43.58505" lon="6.40937">
        <ele>613.4</ele>
        <time>2026-02-22T13:10:11Z</time>
      </trkpt>
      <trkpt lat="43.58505" lon="6.40936">
        <ele>613.4</ele>
        <time>2026-02-22T13:10:12Z</time>
      </trkpt>
      <trkpt lat="43.58505" lon="6.40934">
        <ele>613.4</ele>
        <time>2026-02-22T13:10:13Z</time>
      </trkpt>
      <trkpt lat="43.58505" lon="6.40933">
        <ele>613.5</ele>
        <time>2026-02-22T13:10:14Z</time>
      </trkpt>
      <trkpt lat="43.58506" lon="6.40932">
        <ele>613.5</ele>
        <time>2026-02-22T13:10:15Z</time>
      </trkpt>
      <trkpt lat="43.58506" lon="6.40931">
        <ele>613.5</ele>
        <time>2026-02-22T13:10:16Z</time>
      </trkpt>
      <trkpt lat="43.58507" lon="6.4093">
        <ele>613.6</ele>
        <time>2026-02-22T13:10:17Z</time>
      </trkpt>
      <trkpt lat="43.58507" lon="6.40929">
        <ele>613.5</ele>
        <time>2026-02-22T13:10:18Z</time>
      </trkpt>
      <trkpt lat="43.58507" lon="6.40928">
        <ele>613.6</ele>
        <time>2026-02-22T13:10:19Z</time>
      </trkpt>
      <trkpt lat="43.58508" lon="6.40927">
        <ele>613.7</ele>
        <time>2026-02-22T13:10:20Z</time>
      </trkpt>
      <trkpt lat="43.58508" lon="6.40926">
        <ele>613.7</ele>
        <time>2026-02-22T13:10:21Z</time>
      </trkpt>
      <trkpt lat="43.58508" lon="6.40925">
        <ele>613.7</ele>
        <time>2026-02-22T13:10:22Z</time>
      </trkpt>
      <trkpt lat="43.58509" lon="6.40924">
        <ele>613.8</ele>
        <time>2026-02-22T13:10:23Z</time>
      </trkpt>
      <trkpt lat="43.58509" lon="6.40923">
        <ele>613.7</ele>
        <time>2026-02-22T13:10:24Z</time>
      </trkpt>
      <trkpt lat="43.58509" lon="6.40922">
        <ele>613.7</ele>
        <time>2026-02-22T13:10:25Z</time>
      </trkpt>
      <trkpt lat="43.5851" lon="6.40921">
        <ele>613.8</ele>
        <time>2026-02-22T13:10:26Z</time>
      </trkpt>
      <trkpt lat="43.58511" lon="6.4092">
        <ele>613.9</ele>
        <time>2026-02-22T13:10:27Z</time>
      </trkpt>
      <trkpt lat="43.58511" lon="6.40919">
        <ele>613.9</ele>
        <time>2026-02-22T13:10:28Z</time>
      </trkpt>
      <trkpt lat="43.58511" lon="6.40918">
        <ele>613.9</ele>
        <time>2026-02-22T13:10:29Z</time>
      </trkpt>
      <trkpt lat="43.58511" lon="6.40917">
        <ele>614</ele>
        <time>2026-02-22T13:10:30Z</time>
      </trkpt>
      <trkpt lat="43.58511" lon="6.40916">
        <ele>614.1</ele>
        <time>2026-02-22T13:10:31Z</time>
      </trkpt>
      <trkpt lat="43.58511" lon="6.40915">
        <ele>614.3</ele>
        <time>2026-02-22T13:10:32Z</time>
      </trkpt>
      <trkpt lat="43.58512" lon="6.40914">
        <ele>614.3</ele>
        <time>2026-02-22T13:10:33Z</time>
      </trkpt>
      <trkpt lat="43.58512" lon="6.40913">
        <ele>614.3</ele>
        <time>2026-02-22T13:10:34Z</time>
      </trkpt>
      <trkpt lat="43.58512" lon="6.40912">
        <ele>614.4</ele>
        <time>2026-02-22T13:10:35Z</time>
      </trkpt>
      <trkpt lat="43.58512" lon="6.4091">
        <ele>614.4</ele>
        <time>2026-02-22T13:10:36Z</time>
      </trkpt>
      <trkpt lat="43.58513" lon="6.40909">
        <ele>614.4</ele>
        <time>2026-02-22T13:10:37Z</time>
      </trkpt>
      <trkpt lat="43.58513" lon="6.40908">
        <ele>614.5</ele>
        <time>2026-02-22T13:10:38Z</time>
      </trkpt>
      <trkpt lat="43.58512" lon="6.40907">
        <ele>614.6</ele>
        <time>2026-02-22T13:10:39Z</time>
      </trkpt>
      <trkpt lat="43.58513" lon="6.40905">
        <ele>614.6</ele>
        <time>2026-02-22T13:10:40Z</time>
      </trkpt>
      <trkpt lat="43.58513" lon="6.40904">
        <ele>614.7</ele>
        <time>2026-02-22T13:10:41Z</time>
      </trkpt>
      <trkpt lat="43.58514" lon="6.40902">
        <ele>614.7</ele>
        <time>2026-02-22T13:10:42Z</time>
      </trkpt>
      <trkpt lat="43.58515" lon="6.40901">
        <ele>614.7</ele>
        <time>2026-02-22T13:10:43Z</time>
      </trkpt>
      <trkpt lat="43.58514" lon="6.40899">
        <ele>614.7</ele>
        <time>2026-02-22T13:10:44Z</time>
      </trkpt>
      <trkpt lat="43.58515" lon="6.40897">
        <ele>614.7</ele>
        <time>2026-02-22T13:10:45Z</time>
      </trkpt>
      <trkpt lat="43.58515" lon="6.40896">
        <ele>614.8</ele>
        <time>2026-02-22T13:10:46Z</time>
      </trkpt>
      <trkpt lat="43.58515" lon="6.40894">
        <ele>614.8</ele>
        <time>2026-02-22T13:10:47Z</time>
      </trkpt>
      <trkpt lat="43.58516" lon="6.40893">
        <ele>614.8</ele>
        <time>2026-02-22T13:10:48Z</time>
      </trkpt>
      <trkpt lat="43.58516" lon="6.40891">
        <ele>614.9</ele>
        <time>2026-02-22T13:10:49Z</time>
      </trkpt>
      <trkpt lat="43.58516" lon="6.4089">
        <ele>615</ele>
        <time>2026-02-22T13:10:50Z</time>
      </trkpt>
      <trkpt lat="43.58516" lon="6.40889">
        <ele>615.1</ele>
        <time>2026-02-22T13:10:51Z</time>
      </trkpt>
      <trkpt lat="43.58516" lon="6.40887">
        <ele>615.1</ele>
        <time>2026-02-22T13:10:52Z</time>
      </trkpt>
      <trkpt lat="43.58516" lon="6.40886">
        <ele>615.2</ele>
        <time>2026-02-22T13:10:53Z</time>
      </trkpt>
      <trkpt lat="43.58517" lon="6.40885">
        <ele>615.2</ele>
        <time>2026-02-22T13:10:54Z</time>
      </trkpt>
      <trkpt lat="43.58517" lon="6.40884">
        <ele>615.3</ele>
        <time>2026-02-22T13:10:55Z</time>
      </trkpt>
      <trkpt lat="43.58518" lon="6.40882">
        <ele>615.4</ele>
        <time>2026-02-22T13:10:56Z</time>
      </trkpt>
      <trkpt lat="43.58518" lon="6.40881">
        <ele>615.4</ele>
        <time>2026-02-22T13:10:57Z</time>
      </trkpt>
      <trkpt lat="43.58519" lon="6.4088">
        <ele>615.5</ele>
        <time>2026-02-22T13:10:58Z</time>
      </trkpt>
      <trkpt lat="43.58519" lon="6.4088">
        <ele>615.4</ele>
        <time>2026-02-22T13:10:59Z</time>
      </trkpt>
      <trkpt lat="43.5852" lon="6.40878">
        <ele>615.5</ele>
        <time>2026-02-22T13:11:00Z</time>
      </trkpt>
      <trkpt lat="43.5852" lon="6.40877">
        <ele>615.5</ele>
        <time>2026-02-22T13:11:01Z</time>
      </trkpt>
      <trkpt lat="43.58521" lon="6.40876">
        <ele>615.5</ele>
        <time>2026-02-22T13:11:02Z</time>
      </trkpt>
      <trkpt lat="43.58521" lon="6.40875">
        <ele>615.6</ele>
        <time>2026-02-22T13:11:03Z</time>
      </trkpt>
      <trkpt lat="43.58522" lon="6.40874">
        <ele>615.6</ele>
        <time>2026-02-22T13:11:04Z</time>
      </trkpt>
      <trkpt lat="43.58522" lon="6.40872">
        <ele>615.6</ele>
        <time>2026-02-22T13:11:05Z</time>
      </trkpt>
      <trkpt lat="43.58523" lon="6.40871">
        <ele>615.6</ele>
        <time>2026-02-22T13:11:06Z</time>
      </trkpt>
      <trkpt lat="43.58524" lon="6.4087">
        <ele>615.7</ele>
        <time>2026-02-22T13:11:07Z</time>
      </trkpt>
      <trkpt lat="43.58524" lon="6.40869">
        <ele>615.8</ele>
        <time>2026-02-22T13:11:08Z</time>
      </trkpt>
      <trkpt lat="43.58524" lon="6.40868">
        <ele>615.8</ele>
        <time>2026-02-22T13:11:09Z</time>
      </trkpt>
      <trkpt lat="43.58524" lon="6.40867">
        <ele>615.9</ele>
        <time>2026-02-22T13:11:10Z</time>
      </trkpt>
      <trkpt lat="43.58525" lon="6.40867">
        <ele>615.9</ele>
        <time>2026-02-22T13:11:11Z</time>
      </trkpt>
      <trkpt lat="43.58525" lon="6.40866">
        <ele>615.9</ele>
        <time>2026-02-22T13:11:12Z</time>
      </trkpt>
      <trkpt lat="43.58526" lon="6.40865">
        <ele>615.9</ele>
        <time>2026-02-22T13:11:13Z</time>
      </trkpt>
      <trkpt lat="43.58526" lon="6.40864">
        <ele>616</ele>
        <time>2026-02-22T13:11:14Z</time>
      </trkpt>
      <trkpt lat="43.58526" lon="6.40862">
        <ele>616</ele>
        <time>2026-02-22T13:11:15Z</time>
      </trkpt>
      <trkpt lat="43.58527" lon="6.40861">
        <ele>616.1</ele>
        <time>2026-02-22T13:11:16Z</time>
      </trkpt>
      <trkpt lat="43.58528" lon="6.40859">
        <ele>616</ele>
        <time>2026-02-22T13:11:17Z</time>
      </trkpt>
      <trkpt lat="43.58528" lon="6.40858">
        <ele>616.1</ele>
        <time>2026-02-22T13:11:18Z</time>
      </trkpt>
      <trkpt lat="43.58529" lon="6.40857">
        <ele>616.1</ele>
        <time>2026-02-22T13:11:19Z</time>
      </trkpt>
      <trkpt lat="43.5853" lon="6.40856">
        <ele>616.1</ele>
        <time>2026-02-22T13:11:20Z</time>
      </trkpt>
      <trkpt lat="43.5853" lon="6.40856">
        <ele>616.2</ele>
        <time>2026-02-22T13:11:21Z</time>
      </trkpt>
      <trkpt lat="43.5853" lon="6.40855">
        <ele>616.2</ele>
        <time>2026-02-22T13:11:22Z</time>
      </trkpt>
      <trkpt lat="43.5853" lon="6.40854">
        <ele>616.2</ele>
        <time>2026-02-22T13:11:23Z</time>
      </trkpt>
      <trkpt lat="43.58531" lon="6.40853">
        <ele>616.2</ele>
        <time>2026-02-22T13:11:24Z</time>
      </trkpt>
      <trkpt lat="43.58531" lon="6.40852">
        <ele>616.2</ele>
        <time>2026-02-22T13:11:25Z</time>
      </trkpt>
      <trkpt lat="43.58531" lon="6.40852">
        <ele>616.3</ele>
        <time>2026-02-22T13:11:26Z</time>
      </trkpt>
      <trkpt lat="43.58532" lon="6.40851">
        <ele>616.4</ele>
        <time>2026-02-22T13:11:27Z</time>
      </trkpt>
      <trkpt lat="43.58532" lon="6.4085">
        <ele>616.4</ele>
        <time>2026-02-22T13:11:28Z</time>
      </trkpt>
      <trkpt lat="43.58533" lon="6.40849">
        <ele>616.5</ele>
        <time>2026-02-22T13:11:29Z</time>
      </trkpt>
      <trkpt lat="43.58533" lon="6.40848">
        <ele>616.5</ele>
        <time>2026-02-22T13:11:30Z</time>
      </trkpt>
      <trkpt lat="43.58534" lon="6.40847">
        <ele>616.7</ele>
        <time>2026-02-22T13:11:31Z</time>
      </trkpt>
      <trkpt lat="43.58533" lon="6.40846">
        <ele>616.8</ele>
        <time>2026-02-22T13:11:32Z</time>
      </trkpt>
      <trkpt lat="43.58534" lon="6.40844">
        <ele>616.9</ele>
        <time>2026-02-22T13:11:33Z</time>
      </trkpt>
      <trkpt lat="43.58534" lon="6.40842">
        <ele>617</ele>
        <time>2026-02-22T13:11:34Z</time>
      </trkpt>
      <trkpt lat="43.58534" lon="6.4084">
        <ele>617.1</ele>
        <time>2026-02-22T13:11:35Z</time>
      </trkpt>
      <trkpt lat="43.58534" lon="6.40839">
        <ele>617.1</ele>
        <time>2026-02-22T13:11:36Z</time>
      </trkpt>
      <trkpt lat="43.58535" lon="6.40837">
        <ele>617.2</ele>
        <time>2026-02-22T13:11:37Z</time>
      </trkpt>
      <trkpt lat="43.58535" lon="6.40836">
        <ele>617.3</ele>
        <time>2026-02-22T13:11:38Z</time>
      </trkpt>
      <trkpt lat="43.58535" lon="6.40835">
        <ele>617.4</ele>
        <time>2026-02-22T13:11:39Z</time>
      </trkpt>
      <trkpt lat="43.58535" lon="6.40834">
        <ele>617.5</ele>
        <time>2026-02-22T13:11:40Z</time>
      </trkpt>
      <trkpt lat="43.58535" lon="6.40833">
        <ele>617.6</ele>
        <time>2026-02-22T13:11:41Z</time>
      </trkpt>
      <trkpt lat="43.58535" lon="6.40832">
        <ele>617.7</ele>
        <time>2026-02-22T13:11:42Z</time>
      </trkpt>
      <trkpt lat="43.58535" lon="6.40831">
        <ele>617.7</ele>
        <time>2026-02-22T13:11:43Z</time>
      </trkpt>
      <trkpt lat="43.58535" lon="6.4083">
        <ele>617.7</ele>
        <time>2026-02-22T13:11:44Z</time>
      </trkpt>
      <trkpt lat="43.58536" lon="6.40829">
        <ele>617.8</ele>
        <time>2026-02-22T13:11:45Z</time>
      </trkpt>
      <trkpt lat="43.58536" lon="6.40828">
        <ele>617.8</ele>
        <time>2026-02-22T13:11:46Z</time>
      </trkpt>
      <trkpt lat="43.58537" lon="6.40826">
        <ele>617.8</ele>
        <time>2026-02-22T13:11:47Z</time>
      </trkpt>
      <trkpt lat="43.58537" lon="6.40825">
        <ele>617.7</ele>
        <time>2026-02-22T13:11:48Z</time>
      </trkpt>
      <trkpt lat="43.58537" lon="6.40824">
        <ele>617.7</ele>
        <time>2026-02-22T13:11:49Z</time>
      </trkpt>
      <trkpt lat="43.58537" lon="6.40822">
        <ele>617.7</ele>
        <time>2026-02-22T13:11:50Z</time>
      </trkpt>
      <trkpt lat="43.58538" lon="6.40821">
        <ele>617.8</ele>
        <time>2026-02-22T13:11:51Z</time>
      </trkpt>
      <trkpt lat="43.58538" lon="6.40819">
        <ele>617.9</ele>
        <time>2026-02-22T13:11:52Z</time>
      </trkpt>
      <trkpt lat="43.58538" lon="6.40818">
        <ele>617.8</ele>
        <time>2026-02-22T13:11:53Z</time>
      </trkpt>
      <trkpt lat="43.58538" lon="6.40816">
        <ele>617.8</ele>
        <time>2026-02-22T13:11:54Z</time>
      </trkpt>
      <trkpt lat="43.5854" lon="6.40814">
        <ele>617.7</ele>
        <time>2026-02-22T13:11:55Z</time>
      </trkpt>
      <trkpt lat="43.5854" lon="6.40813">
        <ele>617.6</ele>
        <time>2026-02-22T13:11:56Z</time>
      </trkpt>
      <trkpt lat="43.5854" lon="6.40812">
        <ele>617.7</ele>
        <time>2026-02-22T13:11:57Z</time>
      </trkpt>
      <trkpt lat="43.5854" lon="6.40811">
        <ele>617.7</ele>
        <time>2026-02-22T13:11:58Z</time>
      </trkpt>
      <trkpt lat="43.5854" lon="6.40809">
        <ele>617.8</ele>
        <time>2026-02-22T13:11:59Z</time>
      </trkpt>
      <trkpt lat="43.5854" lon="6.40808">
        <ele>617.8</ele>
        <time>2026-02-22T13:12:00Z</time>
      </trkpt>
      <trkpt lat="43.5854" lon="6.40806">
        <ele>617.8</ele>
        <time>2026-02-22T13:12:01Z</time>
      </trkpt>
      <trkpt lat="43.5854" lon="6.40805">
        <ele>617.8</ele>
        <time>2026-02-22T13:12:02Z</time>
      </trkpt>
      <trkpt lat="43.5854" lon="6.40804">
        <ele>617.8</ele>
        <time>2026-02-22T13:12:03Z</time>
      </trkpt>
      <trkpt lat="43.58541" lon="6.40802">
        <ele>617.8</ele>
        <time>2026-02-22T13:12:04Z</time>
      </trkpt>
      <trkpt lat="43.58541" lon="6.40801">
        <ele>617.7</ele>
        <time>2026-02-22T13:12:05Z</time>
      </trkpt>
      <trkpt lat="43.58541" lon="6.40799">
        <ele>617.8</ele>
        <time>2026-02-22T13:12:06Z</time>
      </trkpt>
      <trkpt lat="43.58541" lon="6.40798">
        <ele>617.9</ele>
        <time>2026-02-22T13:12:07Z</time>
      </trkpt>
      <trkpt lat="43.58542" lon="6.40796">
        <ele>617.9</ele>
        <time>2026-02-22T13:12:08Z</time>
      </trkpt>
      <trkpt lat="43.58543" lon="6.40794">
        <ele>618</ele>
        <time>2026-02-22T13:12:09Z</time>
      </trkpt>
      <trkpt lat="43.58543" lon="6.40793">
        <ele>618</ele>
        <time>2026-02-22T13:12:10Z</time>
      </trkpt>
      <trkpt lat="43.58543" lon="6.40792">
        <ele>618</ele>
        <time>2026-02-22T13:12:11Z</time>
      </trkpt>
      <trkpt lat="43.58543" lon="6.4079">
        <ele>618</ele>
        <time>2026-02-22T13:12:12Z</time>
      </trkpt>
      <trkpt lat="43.58543" lon="6.40789">
        <ele>618</ele>
        <time>2026-02-22T13:12:13Z</time>
      </trkpt>
      <trkpt lat="43.58544" lon="6.40788">
        <ele>618</ele>
        <time>2026-02-22T13:12:14Z</time>
      </trkpt>
      <trkpt lat="43.58544" lon="6.40788">
        <ele>618.2</ele>
        <time>2026-02-22T13:12:15Z</time>
      </trkpt>
      <trkpt lat="43.58544" lon="6.40787">
        <ele>618.1</ele>
        <time>2026-02-22T13:12:16Z</time>
      </trkpt>
      <trkpt lat="43.58545" lon="6.40786">
        <ele>618</ele>
        <time>2026-02-22T13:12:17Z</time>
      </trkpt>
      <trkpt lat="43.58545" lon="6.40784">
        <ele>618</ele>
        <time>2026-02-22T13:12:18Z</time>
      </trkpt>
      <trkpt lat="43.58545" lon="6.40783">
        <ele>618.1</ele>
        <time>2026-02-22T13:12:19Z</time>
      </trkpt>
      <trkpt lat="43.58546" lon="6.40782">
        <ele>618.2</ele>
        <time>2026-02-22T13:12:20Z</time>
      </trkpt>
      <trkpt lat="43.58546" lon="6.40781">
        <ele>618.3</ele>
        <time>2026-02-22T13:12:21Z</time>
      </trkpt>
      <trkpt lat="43.58547" lon="6.4078">
        <ele>618.4</ele>
        <time>2026-02-22T13:12:22Z</time>
      </trkpt>
      <trkpt lat="43.58547" lon="6.40778">
        <ele>618.3</ele>
        <time>2026-02-22T13:12:23Z</time>
      </trkpt>
      <trkpt lat="43.58547" lon="6.40777">
        <ele>618.3</ele>
        <time>2026-02-22T13:12:24Z</time>
      </trkpt>
      <trkpt lat="43.58547" lon="6.40776">
        <ele>618.4</ele>
        <time>2026-02-22T13:12:25Z</time>
      </trkpt>
      <trkpt lat="43.58548" lon="6.40775">
        <ele>618.3</ele>
        <time>2026-02-22T13:12:26Z</time>
      </trkpt>
      <trkpt lat="43.58548" lon="6.40773">
        <ele>618.3</ele>
        <time>2026-02-22T13:12:27Z</time>
      </trkpt>
      <trkpt lat="43.58549" lon="6.40772">
        <ele>618.3</ele>
        <time>2026-02-22T13:12:28Z</time>
      </trkpt>
      <trkpt lat="43.58549" lon="6.40771">
        <ele>618.3</ele>
        <time>2026-02-22T13:12:29Z</time>
      </trkpt>
      <trkpt lat="43.58549" lon="6.4077">
        <ele>618.3</ele>
        <time>2026-02-22T13:12:30Z</time>
      </trkpt>
      <trkpt lat="43.5855" lon="6.40769">
        <ele>618.3</ele>
        <time>2026-02-22T13:12:31Z</time>
      </trkpt>
      <trkpt lat="43.5855" lon="6.40768">
        <ele>618.3</ele>
        <time>2026-02-22T13:12:32Z</time>
      </trkpt>
      <trkpt lat="43.5855" lon="6.40766">
        <ele>618.3</ele>
        <time>2026-02-22T13:12:33Z</time>
      </trkpt>
      <trkpt lat="43.58551" lon="6.40765">
        <ele>618.4</ele>
        <time>2026-02-22T13:12:34Z</time>
      </trkpt>
      <trkpt lat="43.58551" lon="6.40764">
        <ele>618.5</ele>
        <time>2026-02-22T13:12:35Z</time>
      </trkpt>
      <trkpt lat="43.58552" lon="6.40762">
        <ele>618.5</ele>
        <time>2026-02-22T13:12:36Z</time>
      </trkpt>
      <trkpt lat="43.58552" lon="6.40761">
        <ele>618.5</ele>
        <time>2026-02-22T13:12:37Z</time>
      </trkpt>
      <trkpt lat="43.58551" lon="6.40759">
        <ele>618.6</ele>
        <time>2026-02-22T13:12:38Z</time>
      </trkpt>
      <trkpt lat="43.58551" lon="6.40758">
        <ele>618.6</ele>
        <time>2026-02-22T13:12:39Z</time>
      </trkpt>
      <trkpt lat="43.5855" lon="6.40757">
        <ele>618.7</ele>
        <time>2026-02-22T13:12:40Z</time>
      </trkpt>
      <trkpt lat="43.5855" lon="6.40755">
        <ele>618.7</ele>
        <time>2026-02-22T13:12:41Z</time>
      </trkpt>
      <trkpt lat="43.58549" lon="6.40753">
        <ele>618.7</ele>
        <time>2026-02-22T13:12:42Z</time>
      </trkpt>
      <trkpt lat="43.58549" lon="6.40753">
        <ele>618.8</ele>
        <time>2026-02-22T13:12:43Z</time>
      </trkpt>
      <trkpt lat="43.58548" lon="6.40752">
        <ele>618.8</ele>
        <time>2026-02-22T13:12:44Z</time>
      </trkpt>
      <trkpt lat="43.58548" lon="6.4075">
        <ele>618.8</ele>
        <time>2026-02-22T13:12:45Z</time>
      </trkpt>
      <trkpt lat="43.58547" lon="6.40748">
        <ele>618.9</ele>
        <time>2026-02-22T13:12:46Z</time>
      </trkpt>
      <trkpt lat="43.58547" lon="6.40747">
        <ele>618.9</ele>
        <time>2026-02-22T13:12:47Z</time>
      </trkpt>
      <trkpt lat="43.58547" lon="6.40745">
        <ele>618.9</ele>
        <time>2026-02-22T13:12:48Z</time>
      </trkpt>
      <trkpt lat="43.58547" lon="6.40744">
        <ele>618.9</ele>
        <time>2026-02-22T13:12:49Z</time>
      </trkpt>
      <trkpt lat="43.58547" lon="6.40743">
        <ele>618.9</ele>
        <time>2026-02-22T13:12:50Z</time>
      </trkpt>
      <trkpt lat="43.58546" lon="6.40741">
        <ele>618.9</ele>
        <time>2026-02-22T13:12:51Z</time>
      </trkpt>
      <trkpt lat="43.58547" lon="6.40739">
        <ele>618.9</ele>
        <time>2026-02-22T13:12:52Z</time>
      </trkpt>
      <trkpt lat="43.58546" lon="6.40738">
        <ele>619</ele>
        <time>2026-02-22T13:12:53Z</time>
      </trkpt>
      <trkpt lat="43.58546" lon="6.40736">
        <ele>619</ele>
        <time>2026-02-22T13:12:54Z</time>
      </trkpt>
      <trkpt lat="43.58546" lon="6.40735">
        <ele>619.1</ele>
        <time>2026-02-22T13:12:55Z</time>
      </trkpt>
      <trkpt lat="43.58546" lon="6.40734">
        <ele>619.1</ele>
        <time>2026-02-22T13:12:56Z</time>
      </trkpt>
      <trkpt lat="43.58546" lon="6.40732">
        <ele>619.2</ele>
        <time>2026-02-22T13:12:57Z</time>
      </trkpt>
      <trkpt lat="43.58546" lon="6.40731">
        <ele>619.2</ele>
        <time>2026-02-22T13:12:58Z</time>
      </trkpt>
      <trkpt lat="43.58546" lon="6.40729">
        <ele>619.2</ele>
        <time>2026-02-22T13:12:59Z</time>
      </trkpt>
      <trkpt lat="43.58546" lon="6.40728">
        <ele>619.2</ele>
        <time>2026-02-22T13:13:00Z</time>
      </trkpt>
      <trkpt lat="43.58546" lon="6.40726">
        <ele>619.2</ele>
        <time>2026-02-22T13:13:01Z</time>
      </trkpt>
      <trkpt lat="43.58546" lon="6.40725">
        <ele>619.2</ele>
        <time>2026-02-22T13:13:02Z</time>
      </trkpt>
      <trkpt lat="43.58546" lon="6.40724">
        <ele>619.3</ele>
        <time>2026-02-22T13:13:03Z</time>
      </trkpt>
      <trkpt lat="43.58546" lon="6.40722">
        <ele>619.5</ele>
        <time>2026-02-22T13:13:04Z</time>
      </trkpt>
      <trkpt lat="43.58546" lon="6.40721">
        <ele>619.5</ele>
        <time>2026-02-22T13:13:05Z</time>
      </trkpt>
      <trkpt lat="43.58546" lon="6.4072">
        <ele>619.4</ele>
        <time>2026-02-22T13:13:06Z</time>
      </trkpt>
      <trkpt lat="43.58546" lon="6.40719">
        <ele>619.4</ele>
        <time>2026-02-22T13:13:07Z</time>
      </trkpt>
      <trkpt lat="43.58546" lon="6.40717">
        <ele>619.5</ele>
        <time>2026-02-22T13:13:08Z</time>
      </trkpt>
      <trkpt lat="43.58546" lon="6.40716">
        <ele>619.5</ele>
        <time>2026-02-22T13:13:09Z</time>
      </trkpt>
      <trkpt lat="43.58546" lon="6.40715">
        <ele>619.6</ele>
        <time>2026-02-22T13:13:10Z</time>
      </trkpt>
      <trkpt lat="43.58546" lon="6.40713">
        <ele>619.6</ele>
        <time>2026-02-22T13:13:11Z</time>
      </trkpt>
      <trkpt lat="43.58545" lon="6.40712">
        <ele>619.6</ele>
        <time>2026-02-22T13:13:12Z</time>
      </trkpt>
      <trkpt lat="43.58545" lon="6.40711">
        <ele>619.6</ele>
        <time>2026-02-22T13:13:13Z</time>
      </trkpt>
      <trkpt lat="43.58544" lon="6.4071">
        <ele>619.7</ele>
        <time>2026-02-22T13:13:14Z</time>
      </trkpt>
      <trkpt lat="43.58544" lon="6.40709">
        <ele>619.7</ele>
        <time>2026-02-22T13:13:15Z</time>
      </trkpt>
      <trkpt lat="43.58543" lon="6.40708">
        <ele>619.8</ele>
        <time>2026-02-22T13:13:16Z</time>
      </trkpt>
      <trkpt lat="43.58543" lon="6.40707">
        <ele>619.8</ele>
        <time>2026-02-22T13:13:17Z</time>
      </trkpt>
      <trkpt lat="43.58543" lon="6.40706">
        <ele>619.9</ele>
        <time>2026-02-22T13:13:18Z</time>
      </trkpt>
      <trkpt lat="43.58543" lon="6.40704">
        <ele>619.9</ele>
        <time>2026-02-22T13:13:19Z</time>
      </trkpt>
      <trkpt lat="43.58543" lon="6.40703">
        <ele>620</ele>
        <time>2026-02-22T13:13:20Z</time>
      </trkpt>
      <trkpt lat="43.58542" lon="6.40702">
        <ele>620</ele>
        <time>2026-02-22T13:13:21Z</time>
      </trkpt>
      <trkpt lat="43.58542" lon="6.407">
        <ele>620.1</ele>
        <time>2026-02-22T13:13:22Z</time>
      </trkpt>
      <trkpt lat="43.58542" lon="6.40699">
        <ele>620.2</ele>
        <time>2026-02-22T13:13:23Z</time>
      </trkpt>
      <trkpt lat="43.58541" lon="6.40697">
        <ele>620.3</ele>
        <time>2026-02-22T13:13:24Z</time>
      </trkpt>
      <trkpt lat="43.58541" lon="6.40696">
        <ele>620.3</ele>
        <time>2026-02-22T13:13:25Z</time>
      </trkpt>
      <trkpt lat="43.58541" lon="6.40695">
        <ele>620.5</ele>
        <time>2026-02-22T13:13:26Z</time>
      </trkpt>
      <trkpt lat="43.58542" lon="6.40694">
        <ele>620.6</ele>
        <time>2026-02-22T13:13:27Z</time>
      </trkpt>
      <trkpt lat="43.58542" lon="6.40692">
        <ele>620.6</ele>
        <time>2026-02-22T13:13:28Z</time>
      </trkpt>
      <trkpt lat="43.58542" lon="6.40691">
        <ele>620.8</ele>
        <time>2026-02-22T13:13:29Z</time>
      </trkpt>
      <trkpt lat="43.58543" lon="6.4069">
        <ele>620.9</ele>
        <time>2026-02-22T13:13:30Z</time>
      </trkpt>
      <trkpt lat="43.58543" lon="6.40688">
        <ele>621</ele>
        <time>2026-02-22T13:13:31Z</time>
      </trkpt>
      <trkpt lat="43.58543" lon="6.40687">
        <ele>621</ele>
        <time>2026-02-22T13:13:32Z</time>
      </trkpt>
      <trkpt lat="43.58543" lon="6.40686">
        <ele>621</ele>
        <time>2026-02-22T13:13:33Z</time>
      </trkpt>
      <trkpt lat="43.58543" lon="6.40684">
        <ele>621</ele>
        <time>2026-02-22T13:13:34Z</time>
      </trkpt>
      <trkpt lat="43.58543" lon="6.40683">
        <ele>621.2</ele>
        <time>2026-02-22T13:13:35Z</time>
      </trkpt>
      <trkpt lat="43.58543" lon="6.40682">
        <ele>621.2</ele>
        <time>2026-02-22T13:13:36Z</time>
      </trkpt>
      <trkpt lat="43.58543" lon="6.4068">
        <ele>621.3</ele>
        <time>2026-02-22T13:13:37Z</time>
      </trkpt>
      <trkpt lat="43.58543" lon="6.40679">
        <ele>621.4</ele>
        <time>2026-02-22T13:13:38Z</time>
      </trkpt>
      <trkpt lat="43.58543" lon="6.40678">
        <ele>621.5</ele>
        <time>2026-02-22T13:13:39Z</time>
      </trkpt>
      <trkpt lat="43.58542" lon="6.40677">
        <ele>621.5</ele>
        <time>2026-02-22T13:13:40Z</time>
      </trkpt>
      <trkpt lat="43.58543" lon="6.40675">
        <ele>621.6</ele>
        <time>2026-02-22T13:13:41Z</time>
      </trkpt>
      <trkpt lat="43.58543" lon="6.40674">
        <ele>621.7</ele>
        <time>2026-02-22T13:13:42Z</time>
      </trkpt>
      <trkpt lat="43.58543" lon="6.40672">
        <ele>621.8</ele>
        <time>2026-02-22T13:13:43Z</time>
      </trkpt>
      <trkpt lat="43.58542" lon="6.40671">
        <ele>621.8</ele>
        <time>2026-02-22T13:13:44Z</time>
      </trkpt>
      <trkpt lat="43.58542" lon="6.4067">
        <ele>621.9</ele>
        <time>2026-02-22T13:13:45Z</time>
      </trkpt>
      <trkpt lat="43.58542" lon="6.40669">
        <ele>622</ele>
        <time>2026-02-22T13:13:46Z</time>
      </trkpt>
      <trkpt lat="43.58541" lon="6.40668">
        <ele>621.9</ele>
        <time>2026-02-22T13:13:47Z</time>
      </trkpt>
      <trkpt lat="43.58541" lon="6.40666">
        <ele>621.9</ele>
        <time>2026-02-22T13:13:48Z</time>
      </trkpt>
      <trkpt lat="43.58541" lon="6.40665">
        <ele>622</ele>
        <time>2026-02-22T13:13:49Z</time>
      </trkpt>
      <trkpt lat="43.58541" lon="6.40664">
        <ele>622</ele>
        <time>2026-02-22T13:13:50Z</time>
      </trkpt>
      <trkpt lat="43.58542" lon="6.40662">
        <ele>622.2</ele>
        <time>2026-02-22T13:13:51Z</time>
      </trkpt>
      <trkpt lat="43.58541" lon="6.40661">
        <ele>622.2</ele>
        <time>2026-02-22T13:13:52Z</time>
      </trkpt>
      <trkpt lat="43.58541" lon="6.4066">
        <ele>622.3</ele>
        <time>2026-02-22T13:13:53Z</time>
      </trkpt>
      <trkpt lat="43.58541" lon="6.40659">
        <ele>622.4</ele>
        <time>2026-02-22T13:13:54Z</time>
      </trkpt>
      <trkpt lat="43.5854" lon="6.40658">
        <ele>622.4</ele>
        <time>2026-02-22T13:13:55Z</time>
      </trkpt>
      <trkpt lat="43.5854" lon="6.40657">
        <ele>622.5</ele>
        <time>2026-02-22T13:13:56Z</time>
      </trkpt>
      <trkpt lat="43.5854" lon="6.40655">
        <ele>622.6</ele>
        <time>2026-02-22T13:13:57Z</time>
      </trkpt>
      <trkpt lat="43.5854" lon="6.40654">
        <ele>622.6</ele>
        <time>2026-02-22T13:13:58Z</time>
      </trkpt>
      <trkpt lat="43.5854" lon="6.40654">
        <ele>622.8</ele>
        <time>2026-02-22T13:13:59Z</time>
      </trkpt>
      <trkpt lat="43.5854" lon="6.40653">
        <ele>622.8</ele>
        <time>2026-02-22T13:14:00Z</time>
      </trkpt>
      <trkpt lat="43.58539" lon="6.40652">
        <ele>622.8</ele>
        <time>2026-02-22T13:14:01Z</time>
      </trkpt>
      <trkpt lat="43.58538" lon="6.40651">
        <ele>622.8</ele>
        <time>2026-02-22T13:14:02Z</time>
      </trkpt>
      <trkpt lat="43.58538" lon="6.4065">
        <ele>622.8</ele>
        <time>2026-02-22T13:14:03Z</time>
      </trkpt>
      <trkpt lat="43.58538" lon="6.40649">
        <ele>622.8</ele>
        <time>2026-02-22T13:14:04Z</time>
      </trkpt>
      <trkpt lat="43.58537" lon="6.40648">
        <ele>622.9</ele>
        <time>2026-02-22T13:14:05Z</time>
      </trkpt>
      <trkpt lat="43.58537" lon="6.40647">
        <ele>622.9</ele>
        <time>2026-02-22T13:14:06Z</time>
      </trkpt>
      <trkpt lat="43.58536" lon="6.40646">
        <ele>622.9</ele>
        <time>2026-02-22T13:14:07Z</time>
      </trkpt>
      <trkpt lat="43.58536" lon="6.40645">
        <ele>623</ele>
        <time>2026-02-22T13:14:08Z</time>
      </trkpt>
      <trkpt lat="43.58535" lon="6.40644">
        <ele>623</ele>
        <time>2026-02-22T13:14:09Z</time>
      </trkpt>
      <trkpt lat="43.58534" lon="6.40644">
        <ele>623.1</ele>
        <time>2026-02-22T13:14:10Z</time>
      </trkpt>
      <trkpt lat="43.58534" lon="6.40643">
        <ele>623.2</ele>
        <time>2026-02-22T13:14:11Z</time>
      </trkpt>
      <trkpt lat="43.58533" lon="6.40642">
        <ele>623.4</ele>
        <time>2026-02-22T13:14:12Z</time>
      </trkpt>
      <trkpt lat="43.58533" lon="6.40641">
        <ele>623.5</ele>
        <time>2026-02-22T13:14:13Z</time>
      </trkpt>
      <trkpt lat="43.58533" lon="6.4064">
        <ele>623.5</ele>
        <time>2026-02-22T13:14:14Z</time>
      </trkpt>
      <trkpt lat="43.58532" lon="6.40639">
        <ele>623.6</ele>
        <time>2026-02-22T13:14:15Z</time>
      </trkpt>
      <trkpt lat="43.58532" lon="6.40638">
        <ele>623.6</ele>
        <time>2026-02-22T13:14:16Z</time>
      </trkpt>
      <trkpt lat="43.58531" lon="6.40637">
        <ele>623.7</ele>
        <time>2026-02-22T13:14:17Z</time>
      </trkpt>
      <trkpt lat="43.58531" lon="6.40637">
        <ele>623.8</ele>
        <time>2026-02-22T13:14:18Z</time>
      </trkpt>
      <trkpt lat="43.5853" lon="6.40636">
        <ele>623.8</ele>
        <time>2026-02-22T13:14:19Z</time>
      </trkpt>
      <trkpt lat="43.5853" lon="6.40635">
        <ele>623.9</ele>
        <time>2026-02-22T13:14:20Z</time>
      </trkpt>
      <trkpt lat="43.5853" lon="6.40634">
        <ele>623.9</ele>
        <time>2026-02-22T13:14:21Z</time>
      </trkpt>
      <trkpt lat="43.58529" lon="6.40633">
        <ele>623.9</ele>
        <time>2026-02-22T13:14:22Z</time>
      </trkpt>
      <trkpt lat="43.58529" lon="6.40632">
        <ele>623.9</ele>
        <time>2026-02-22T13:14:23Z</time>
      </trkpt>
      <trkpt lat="43.58528" lon="6.40632">
        <ele>623.9</ele>
        <time>2026-02-22T13:14:24Z</time>
      </trkpt>
      <trkpt lat="43.58528" lon="6.40631">
        <ele>623.9</ele>
        <time>2026-02-22T13:14:25Z</time>
      </trkpt>
      <trkpt lat="43.58527" lon="6.4063">
        <ele>624</ele>
        <time>2026-02-22T13:14:26Z</time>
      </trkpt>
      <trkpt lat="43.58527" lon="6.40629">
        <ele>624</ele>
        <time>2026-02-22T13:14:27Z</time>
      </trkpt>
      <trkpt lat="43.58526" lon="6.40627">
        <ele>623.9</ele>
        <time>2026-02-22T13:14:28Z</time>
      </trkpt>
      <trkpt lat="43.58526" lon="6.40627">
        <ele>623.9</ele>
        <time>2026-02-22T13:14:29Z</time>
      </trkpt>
      <trkpt lat="43.58525" lon="6.40625">
        <ele>623.9</ele>
        <time>2026-02-22T13:14:30Z</time>
      </trkpt>
      <trkpt lat="43.58524" lon="6.40625">
        <ele>623.9</ele>
        <time>2026-02-22T13:14:31Z</time>
      </trkpt>
      <trkpt lat="43.58524" lon="6.40624">
        <ele>623.9</ele>
        <time>2026-02-22T13:14:32Z</time>
      </trkpt>
      <trkpt lat="43.58523" lon="6.40623">
        <ele>623.8</ele>
        <time>2026-02-22T13:14:33Z</time>
      </trkpt>
      <trkpt lat="43.58522" lon="6.40623">
        <ele>623.8</ele>
        <time>2026-02-22T13:14:34Z</time>
      </trkpt>
      <trkpt lat="43.58522" lon="6.40621">
        <ele>623.8</ele>
        <time>2026-02-22T13:14:35Z</time>
      </trkpt>
      <trkpt lat="43.58522" lon="6.4062">
        <ele>623.9</ele>
        <time>2026-02-22T13:14:36Z</time>
      </trkpt>
      <trkpt lat="43.58521" lon="6.40619">
        <ele>623.8</ele>
        <time>2026-02-22T13:14:37Z</time>
      </trkpt>
      <trkpt lat="43.58521" lon="6.40618">
        <ele>623.8</ele>
        <time>2026-02-22T13:14:38Z</time>
      </trkpt>
      <trkpt lat="43.5852" lon="6.40618">
        <ele>623.8</ele>
        <time>2026-02-22T13:14:39Z</time>
      </trkpt>
      <trkpt lat="43.5852" lon="6.40617">
        <ele>623.9</ele>
        <time>2026-02-22T13:14:40Z</time>
      </trkpt>
      <trkpt lat="43.58519" lon="6.40616">
        <ele>623.9</ele>
        <time>2026-02-22T13:14:41Z</time>
      </trkpt>
      <trkpt lat="43.58519" lon="6.40615">
        <ele>624</ele>
        <time>2026-02-22T13:14:42Z</time>
      </trkpt>
      <trkpt lat="43.58518" lon="6.40614">
        <ele>624.2</ele>
        <time>2026-02-22T13:14:43Z</time>
      </trkpt>
      <trkpt lat="43.58518" lon="6.40613">
        <ele>624.3</ele>
        <time>2026-02-22T13:14:44Z</time>
      </trkpt>
      <trkpt lat="43.58517" lon="6.40612">
        <ele>624.4</ele>
        <time>2026-02-22T13:14:45Z</time>
      </trkpt>
      <trkpt lat="43.58516" lon="6.40611">
        <ele>624.5</ele>
        <time>2026-02-22T13:14:46Z</time>
      </trkpt>
      <trkpt lat="43.58516" lon="6.4061">
        <ele>624.5</ele>
        <time>2026-02-22T13:14:47Z</time>
      </trkpt>
      <trkpt lat="43.58515" lon="6.40609">
        <ele>624.6</ele>
        <time>2026-02-22T13:14:48Z</time>
      </trkpt>
      <trkpt lat="43.58515" lon="6.40608">
        <ele>624.6</ele>
        <time>2026-02-22T13:14:49Z</time>
      </trkpt>
      <trkpt lat="43.58514" lon="6.40607">
        <ele>624.6</ele>
        <time>2026-02-22T13:14:50Z</time>
      </trkpt>
      <trkpt lat="43.58513" lon="6.40606">
        <ele>624.6</ele>
        <time>2026-02-22T13:14:51Z</time>
      </trkpt>
      <trkpt lat="43.58513" lon="6.40605">
        <ele>624.6</ele>
        <time>2026-02-22T13:14:52Z</time>
      </trkpt>
      <trkpt lat="43.58513" lon="6.40604">
        <ele>624.6</ele>
        <time>2026-02-22T13:14:53Z</time>
      </trkpt>
      <trkpt lat="43.58512" lon="6.40603">
        <ele>624.7</ele>
        <time>2026-02-22T13:14:54Z</time>
      </trkpt>
      <trkpt lat="43.58512" lon="6.40601">
        <ele>624.8</ele>
        <time>2026-02-22T13:14:55Z</time>
      </trkpt>
      <trkpt lat="43.58511" lon="6.406">
        <ele>624.9</ele>
        <time>2026-02-22T13:14:56Z</time>
      </trkpt>
      <trkpt lat="43.58511" lon="6.40599">
        <ele>625</ele>
        <time>2026-02-22T13:14:57Z</time>
      </trkpt>
      <trkpt lat="43.5851" lon="6.40598">
        <ele>625.1</ele>
        <time>2026-02-22T13:14:58Z</time>
      </trkpt>
      <trkpt lat="43.5851" lon="6.40597">
        <ele>625.3</ele>
        <time>2026-02-22T13:14:59Z</time>
      </trkpt>
      <trkpt lat="43.58509" lon="6.40596">
        <ele>625.4</ele>
        <time>2026-02-22T13:15:00Z</time>
      </trkpt>
      <trkpt lat="43.58509" lon="6.40595">
        <ele>625.5</ele>
        <time>2026-02-22T13:15:01Z</time>
      </trkpt>
      <trkpt lat="43.58508" lon="6.40594">
        <ele>625.6</ele>
        <time>2026-02-22T13:15:02Z</time>
      </trkpt>
      <trkpt lat="43.58507" lon="6.40593">
        <ele>625.7</ele>
        <time>2026-02-22T13:15:03Z</time>
      </trkpt>
      <trkpt lat="43.58506" lon="6.40592">
        <ele>625.9</ele>
        <time>2026-02-22T13:15:04Z</time>
      </trkpt>
      <trkpt lat="43.58506" lon="6.40591">
        <ele>625.9</ele>
        <time>2026-02-22T13:15:05Z</time>
      </trkpt>
      <trkpt lat="43.58505" lon="6.4059">
        <ele>626</ele>
        <time>2026-02-22T13:15:06Z</time>
      </trkpt>
      <trkpt lat="43.58504" lon="6.40589">
        <ele>625.9</ele>
        <time>2026-02-22T13:15:07Z</time>
      </trkpt>
      <trkpt lat="43.58504" lon="6.40587">
        <ele>625.9</ele>
        <time>2026-02-22T13:15:08Z</time>
      </trkpt>
      <trkpt lat="43.58503" lon="6.40586">
        <ele>626.2</ele>
        <time>2026-02-22T13:15:09Z</time>
      </trkpt>
      <trkpt lat="43.58502" lon="6.40585">
        <ele>626.4</ele>
        <time>2026-02-22T13:15:10Z</time>
      </trkpt>
      <trkpt lat="43.58501" lon="6.40584">
        <ele>626.5</ele>
        <time>2026-02-22T13:15:11Z</time>
      </trkpt>
      <trkpt lat="43.585" lon="6.40583">
        <ele>626.6</ele>
        <time>2026-02-22T13:15:12Z</time>
      </trkpt>
      <trkpt lat="43.58499" lon="6.40583">
        <ele>626.8</ele>
        <time>2026-02-22T13:15:13Z</time>
      </trkpt>
      <trkpt lat="43.58499" lon="6.40582">
        <ele>626.9</ele>
        <time>2026-02-22T13:15:14Z</time>
      </trkpt>
      <trkpt lat="43.58498" lon="6.40581">
        <ele>626.9</ele>
        <time>2026-02-22T13:15:15Z</time>
      </trkpt>
      <trkpt lat="43.58497" lon="6.40581">
        <ele>627</ele>
        <time>2026-02-22T13:15:16Z</time>
      </trkpt>
      <trkpt lat="43.58496" lon="6.4058">
        <ele>626.9</ele>
        <time>2026-02-22T13:15:17Z</time>
      </trkpt>
      <trkpt lat="43.58495" lon="6.40579">
        <ele>627</ele>
        <time>2026-02-22T13:15:18Z</time>
      </trkpt>
      <trkpt lat="43.58495" lon="6.40579">
        <ele>627.1</ele>
        <time>2026-02-22T13:15:19Z</time>
      </trkpt>
      <trkpt lat="43.58494" lon="6.40578">
        <ele>627.1</ele>
        <time>2026-02-22T13:15:20Z</time>
      </trkpt>
      <trkpt lat="43.58493" lon="6.40577">
        <ele>627.2</ele>
        <time>2026-02-22T13:15:21Z</time>
      </trkpt>
      <trkpt lat="43.58492" lon="6.40577">
        <ele>627.3</ele>
        <time>2026-02-22T13:15:22Z</time>
      </trkpt>
      <trkpt lat="43.58491" lon="6.40576">
        <ele>627.4</ele>
        <time>2026-02-22T13:15:23Z</time>
      </trkpt>
      <trkpt lat="43.5849" lon="6.40575">
        <ele>627.4</ele>
        <time>2026-02-22T13:15:24Z</time>
      </trkpt>
      <trkpt lat="43.5849" lon="6.40574">
        <ele>627.5</ele>
        <time>2026-02-22T13:15:25Z</time>
      </trkpt>
      <trkpt lat="43.58489" lon="6.40574">
        <ele>627.6</ele>
        <time>2026-02-22T13:15:26Z</time>
      </trkpt>
      <trkpt lat="43.58488" lon="6.40573">
        <ele>627.7</ele>
        <time>2026-02-22T13:15:27Z</time>
      </trkpt>
      <trkpt lat="43.58487" lon="6.40572">
        <ele>627.8</ele>
        <time>2026-02-22T13:15:28Z</time>
      </trkpt>
      <trkpt lat="43.58486" lon="6.40572">
        <ele>627.8</ele>
        <time>2026-02-22T13:15:29Z</time>
      </trkpt>
      <trkpt lat="43.58486" lon="6.40571">
        <ele>627.9</ele>
        <time>2026-02-22T13:15:30Z</time>
      </trkpt>
      <trkpt lat="43.58485" lon="6.4057">
        <ele>628</ele>
        <time>2026-02-22T13:15:31Z</time>
      </trkpt>
      <trkpt lat="43.58484" lon="6.40569">
        <ele>628</ele>
        <time>2026-02-22T13:15:32Z</time>
      </trkpt>
      <trkpt lat="43.58484" lon="6.40568">
        <ele>628.1</ele>
        <time>2026-02-22T13:15:33Z</time>
      </trkpt>
      <trkpt lat="43.58483" lon="6.40568">
        <ele>628.2</ele>
        <time>2026-02-22T13:15:34Z</time>
      </trkpt>
      <trkpt lat="43.58483" lon="6.40567">
        <ele>628.2</ele>
        <time>2026-02-22T13:15:35Z</time>
      </trkpt>
      <trkpt lat="43.58482" lon="6.40566">
        <ele>628.2</ele>
        <time>2026-02-22T13:15:36Z</time>
      </trkpt>
      <trkpt lat="43.58482" lon="6.40565">
        <ele>628.3</ele>
        <time>2026-02-22T13:15:37Z</time>
      </trkpt>
      <trkpt lat="43.58481" lon="6.40564">
        <ele>628.4</ele>
        <time>2026-02-22T13:15:38Z</time>
      </trkpt>
      <trkpt lat="43.58481" lon="6.40563">
        <ele>628.5</ele>
        <time>2026-02-22T13:15:39Z</time>
      </trkpt>
      <trkpt lat="43.5848" lon="6.40562">
        <ele>628.5</ele>
        <time>2026-02-22T13:15:40Z</time>
      </trkpt>
      <trkpt lat="43.58479" lon="6.40561">
        <ele>628.6</ele>
        <time>2026-02-22T13:15:41Z</time>
      </trkpt>
      <trkpt lat="43.58478" lon="6.4056">
        <ele>628.7</ele>
        <time>2026-02-22T13:15:42Z</time>
      </trkpt>
      <trkpt lat="43.58478" lon="6.40559">
        <ele>628.7</ele>
        <time>2026-02-22T13:15:43Z</time>
      </trkpt>
      <trkpt lat="43.58477" lon="6.40559">
        <ele>628.9</ele>
        <time>2026-02-22T13:15:44Z</time>
      </trkpt>
      <trkpt lat="43.58476" lon="6.40558">
        <ele>629</ele>
        <time>2026-02-22T13:15:45Z</time>
      </trkpt>
      <trkpt lat="43.58475" lon="6.40557">
        <ele>629.1</ele>
        <time>2026-02-22T13:15:46Z</time>
      </trkpt>
      <trkpt lat="43.58475" lon="6.40556">
        <ele>629.3</ele>
        <time>2026-02-22T13:15:47Z</time>
      </trkpt>
      <trkpt lat="43.58474" lon="6.40555">
        <ele>629.4</ele>
        <time>2026-02-22T13:15:48Z</time>
      </trkpt>
      <trkpt lat="43.58474" lon="6.40554">
        <ele>629.6</ele>
        <time>2026-02-22T13:15:49Z</time>
      </trkpt>
      <trkpt lat="43.58473" lon="6.40553">
        <ele>629.7</ele>
        <time>2026-02-22T13:15:50Z</time>
      </trkpt>
      <trkpt lat="43.58472" lon="6.40553">
        <ele>629.7</ele>
        <time>2026-02-22T13:15:51Z</time>
      </trkpt>
      <trkpt lat="43.58471" lon="6.40552">
        <ele>629.8</ele>
        <time>2026-02-22T13:15:52Z</time>
      </trkpt>
      <trkpt lat="43.5847" lon="6.40551">
        <ele>629.9</ele>
        <time>2026-02-22T13:15:53Z</time>
      </trkpt>
      <trkpt lat="43.58469" lon="6.40551">
        <ele>630</ele>
        <time>2026-02-22T13:15:54Z</time>
      </trkpt>
      <trkpt lat="43.58469" lon="6.4055">
        <ele>630.1</ele>
        <time>2026-02-22T13:15:55Z</time>
      </trkpt>
      <trkpt lat="43.58468" lon="6.40549">
        <ele>630.2</ele>
        <time>2026-02-22T13:15:56Z</time>
      </trkpt>
      <trkpt lat="43.58467" lon="6.40549">
        <ele>630.3</ele>
        <time>2026-02-22T13:15:57Z</time>
      </trkpt>
      <trkpt lat="43.58467" lon="6.40549">
        <ele>630.3</ele>
        <time>2026-02-22T13:15:58Z</time>
      </trkpt>
      <trkpt lat="43.58466" lon="6.40548">
        <ele>630.4</ele>
        <time>2026-02-22T13:15:59Z</time>
      </trkpt>
      <trkpt lat="43.58466" lon="6.40547">
        <ele>630.5</ele>
        <time>2026-02-22T13:16:00Z</time>
      </trkpt>
      <trkpt lat="43.58465" lon="6.40547">
        <ele>630.5</ele>
        <time>2026-02-22T13:16:01Z</time>
      </trkpt>
      <trkpt lat="43.58465" lon="6.40546">
        <ele>630.7</ele>
        <time>2026-02-22T13:16:02Z</time>
      </trkpt>
      <trkpt lat="43.58465" lon="6.40545">
        <ele>630.8</ele>
        <time>2026-02-22T13:16:03Z</time>
      </trkpt>
      <trkpt lat="43.58465" lon="6.40545">
        <ele>630.7</ele>
        <time>2026-02-22T13:16:04Z</time>
      </trkpt>
      <trkpt lat="43.58465" lon="6.40545">
        <ele>630.8</ele>
        <time>2026-02-22T13:16:05Z</time>
      </trkpt>
      <trkpt lat="43.58465" lon="6.40544">
        <ele>630.8</ele>
        <time>2026-02-22T13:16:06Z</time>
      </trkpt>
      <trkpt lat="43.58465" lon="6.40544">
        <ele>630.8</ele>
        <time>2026-02-22T13:16:07Z</time>
      </trkpt>
      <trkpt lat="43.58465" lon="6.40544">
        <ele>630.9</ele>
        <time>2026-02-22T13:16:08Z</time>
      </trkpt>
      <trkpt lat="43.58465" lon="6.40544">
        <ele>630.8</ele>
        <time>2026-02-22T13:16:09Z</time>
      </trkpt>
      <trkpt lat="43.58465" lon="6.40543">
        <ele>630.9</ele>
        <time>2026-02-22T13:16:10Z</time>
      </trkpt>
      <trkpt lat="43.58465" lon="6.40543">
        <ele>631</ele>
        <time>2026-02-22T13:16:11Z</time>
      </trkpt>
      <trkpt lat="43.58465" lon="6.40543">
        <ele>630.9</ele>
        <time>2026-02-22T13:16:12Z</time>
      </trkpt>
      <trkpt lat="43.58465" lon="6.40543">
        <ele>631</ele>
        <time>2026-02-22T13:16:13Z</time>
      </trkpt>
      <trkpt lat="43.58464" lon="6.40543">
        <ele>631</ele>
        <time>2026-02-22T13:16:14Z</time>
      </trkpt>
      <trkpt lat="43.58464" lon="6.40543">
        <ele>631.1</ele>
        <time>2026-02-22T13:16:15Z</time>
      </trkpt>
      <trkpt lat="43.58464" lon="6.40542">
        <ele>631.1</ele>
        <time>2026-02-22T13:16:16Z</time>
      </trkpt>
      <trkpt lat="43.58464" lon="6.40542">
        <ele>631.1</ele>
        <time>2026-02-22T13:16:17Z</time>
      </trkpt>
      <trkpt lat="43.58464" lon="6.40542">
        <ele>631.2</ele>
        <time>2026-02-22T13:16:18Z</time>
      </trkpt>
      <trkpt lat="43.58464" lon="6.40542">
        <ele>631.2</ele>
        <time>2026-02-22T13:16:19Z</time>
      </trkpt>
      <trkpt lat="43.58464" lon="6.40542">
        <ele>631.2</ele>
        <time>2026-02-22T13:16:20Z</time>
      </trkpt>
      <trkpt lat="43.58464" lon="6.40542">
        <ele>631.2</ele>
        <time>2026-02-22T13:16:21Z</time>
      </trkpt>
      <trkpt lat="43.58464" lon="6.40542">
        <ele>631.2</ele>
        <time>2026-02-22T13:16:22Z</time>
      </trkpt>
      <trkpt lat="43.58464" lon="6.40542">
        <ele>631.2</ele>
        <time>2026-02-22T13:16:23Z</time>
      </trkpt>
      <trkpt lat="43.58464" lon="6.40542">
        <ele>631.2</ele>
        <time>2026-02-22T13:16:24Z</time>
      </trkpt>
      <trkpt lat="43.58464" lon="6.40541">
        <ele>631.1</ele>
        <time>2026-02-22T13:16:25Z</time>
      </trkpt>
      <trkpt lat="43.58464" lon="6.40541">
        <ele>631.1</ele>
        <time>2026-02-22T13:16:26Z</time>
      </trkpt>
      <trkpt lat="43.58464" lon="6.40541">
        <ele>631.1</ele>
        <time>2026-02-22T13:16:27Z</time>
      </trkpt>
      <trkpt lat="43.58463" lon="6.40541">
        <ele>631</ele>
        <time>2026-02-22T13:16:28Z</time>
      </trkpt>
      <trkpt lat="43.58464" lon="6.40541">
        <ele>631</ele>
        <time>2026-02-22T13:16:29Z</time>
      </trkpt>
      <trkpt lat="43.58464" lon="6.40541">
        <ele>630.9</ele>
        <time>2026-02-22T13:16:30Z</time>
      </trkpt>
      <trkpt lat="43.58464" lon="6.40541">
        <ele>631</ele>
        <time>2026-02-22T13:16:31Z</time>
      </trkpt>
      <trkpt lat="43.58464" lon="6.40541">
        <ele>631</ele>
        <time>2026-02-22T13:16:32Z</time>
      </trkpt>
      <trkpt lat="43.58464" lon="6.4054">
        <ele>631</ele>
        <time>2026-02-22T13:16:33Z</time>
      </trkpt>
      <trkpt lat="43.58464" lon="6.4054">
        <ele>631</ele>
        <time>2026-02-22T13:16:34Z</time>
      </trkpt>
      <trkpt lat="43.58464" lon="6.4054">
        <ele>631</ele>
        <time>2026-02-22T13:16:35Z</time>
      </trkpt>
      <trkpt lat="43.58464" lon="6.4054">
        <ele>630.9</ele>
        <time>2026-02-22T13:16:36Z</time>
      </trkpt>
      <trkpt lat="43.58464" lon="6.4054">
        <ele>631</ele>
        <time>2026-02-22T13:16:37Z</time>
      </trkpt>
      <trkpt lat="43.58464" lon="6.4054">
        <ele>631</ele>
        <time>2026-02-22T13:16:38Z</time>
      </trkpt>
      <trkpt lat="43.58464" lon="6.4054">
        <ele>631</ele>
        <time>2026-02-22T13:16:39Z</time>
      </trkpt>
      <trkpt lat="43.58464" lon="6.40539">
        <ele>631</ele>
        <time>2026-02-22T13:16:40Z</time>
      </trkpt>
      <trkpt lat="43.58464" lon="6.40539">
        <ele>631.1</ele>
        <time>2026-02-22T13:16:41Z</time>
      </trkpt>
      <trkpt lat="43.58464" lon="6.40539">
        <ele>631</ele>
        <time>2026-02-22T13:16:42Z</time>
      </trkpt>
      <trkpt lat="43.58464" lon="6.40539">
        <ele>631</ele>
        <time>2026-02-22T13:16:43Z</time>
      </trkpt>
      <trkpt lat="43.58464" lon="6.40539">
        <ele>631</ele>
        <time>2026-02-22T13:16:44Z</time>
      </trkpt>
      <trkpt lat="43.58464" lon="6.40539">
        <ele>631.1</ele>
        <time>2026-02-22T13:16:45Z</time>
      </trkpt>
      <trkpt lat="43.58464" lon="6.40539">
        <ele>631.1</ele>
        <time>2026-02-22T13:16:46Z</time>
      </trkpt>
      <trkpt lat="43.58464" lon="6.40539">
        <ele>631.1</ele>
        <time>2026-02-22T13:16:47Z</time>
      </trkpt>
      <trkpt lat="43.58464" lon="6.40539">
        <ele>631.2</ele>
        <time>2026-02-22T13:16:48Z</time>
      </trkpt>
      <trkpt lat="43.58464" lon="6.40538">
        <ele>631.3</ele>
        <time>2026-02-22T13:16:49Z</time>
      </trkpt>
      <trkpt lat="43.58464" lon="6.40538">
        <ele>631.3</ele>
        <time>2026-02-22T13:16:50Z</time>
      </trkpt>
      <trkpt lat="43.58464" lon="6.40538">
        <ele>631.3</ele>
        <time>2026-02-22T13:16:51Z</time>
      </trkpt>
      <trkpt lat="43.58464" lon="6.40538">
        <ele>631.4</ele>
        <time>2026-02-22T13:16:52Z</time>
      </trkpt>
      <trkpt lat="43.58464" lon="6.40538">
        <ele>631.3</ele>
        <time>2026-02-22T13:16:53Z</time>
      </trkpt>
      <trkpt lat="43.58464" lon="6.40538">
        <ele>631.3</ele>
        <time>2026-02-22T13:16:54Z</time>
      </trkpt>
      <trkpt lat="43.58464" lon="6.40538">
        <ele>631.2</ele>
        <time>2026-02-22T13:16:55Z</time>
      </trkpt>
      <trkpt lat="43.58464" lon="6.40538">
        <ele>631.2</ele>
        <time>2026-02-22T13:16:56Z</time>
      </trkpt>
      <trkpt lat="43.58464" lon="6.40538">
        <ele>631.1</ele>
        <time>2026-02-22T13:16:57Z</time>
      </trkpt>
      <trkpt lat="43.58464" lon="6.40538">
        <ele>631</ele>
        <time>2026-02-22T13:16:58Z</time>
      </trkpt>
      <trkpt lat="43.58464" lon="6.40538">
        <ele>631</ele>
        <time>2026-02-22T13:16:59Z</time>
      </trkpt>
      <trkpt lat="43.58464" lon="6.40538">
        <ele>631</ele>
        <time>2026-02-22T13:17:00Z</time>
      </trkpt>
      <trkpt lat="43.58464" lon="6.40538">
        <ele>631</ele>
        <time>2026-02-22T13:17:01Z</time>
      </trkpt>
      <trkpt lat="43.58464" lon="6.40537">
        <ele>631</ele>
        <time>2026-02-22T13:17:02Z</time>
      </trkpt>
      <trkpt lat="43.58464" lon="6.40537">
        <ele>631</ele>
        <time>2026-02-22T13:17:03Z</time>
      </trkpt>
      <trkpt lat="43.58464" lon="6.40537">
        <ele>631</ele>
        <time>2026-02-22T13:17:04Z</time>
      </trkpt>
      <trkpt lat="43.58464" lon="6.40537">
        <ele>631</ele>
        <time>2026-02-22T13:17:05Z</time>
      </trkpt>
      <trkpt lat="43.58464" lon="6.40537">
        <ele>631</ele>
        <time>2026-02-22T13:17:06Z</time>
      </trkpt>
      <trkpt lat="43.58464" lon="6.40537">
        <ele>631</ele>
        <time>2026-02-22T13:17:07Z</time>
      </trkpt>
      <trkpt lat="43.58464" lon="6.40537">
        <ele>631.1</ele>
        <time>2026-02-22T13:17:08Z</time>
      </trkpt>
      <trkpt lat="43.58464" lon="6.40537">
        <ele>631.2</ele>
        <time>2026-02-22T13:17:09Z</time>
      </trkpt>
      <trkpt lat="43.58464" lon="6.40537">
        <ele>631.2</ele>
        <time>2026-02-22T13:17:10Z</time>
      </trkpt>
      <trkpt lat="43.58464" lon="6.40537">
        <ele>631.1</ele>
        <time>2026-02-22T13:17:11Z</time>
      </trkpt>
      <trkpt lat="43.58464" lon="6.40537">
        <ele>631.1</ele>
        <time>2026-02-22T13:17:12Z</time>
      </trkpt>
      <trkpt lat="43.58464" lon="6.40537">
        <ele>631.1</ele>
        <time>2026-02-22T13:17:13Z</time>
      </trkpt>
      <trkpt lat="43.58464" lon="6.40537">
        <ele>631.2</ele>
        <time>2026-02-22T13:17:14Z</time>
      </trkpt>
      <trkpt lat="43.58464" lon="6.40537">
        <ele>631.2</ele>
        <time>2026-02-22T13:17:15Z</time>
      </trkpt>
      <trkpt lat="43.58464" lon="6.40537">
        <ele>631.2</ele>
        <time>2026-02-22T13:17:16Z</time>
      </trkpt>
      <trkpt lat="43.58463" lon="6.40537">
        <ele>631.3</ele>
        <time>2026-02-22T13:17:17Z</time>
      </trkpt>
      <trkpt lat="43.58463" lon="6.40537">
        <ele>631.4</ele>
        <time>2026-02-22T13:17:18Z</time>
      </trkpt>
      <trkpt lat="43.58463" lon="6.40537">
        <ele>631.4</ele>
        <time>2026-02-22T13:17:19Z</time>
      </trkpt>
      <trkpt lat="43.58463" lon="6.40537">
        <ele>631.4</ele>
        <time>2026-02-22T13:17:20Z</time>
      </trkpt>
      <trkpt lat="43.58463" lon="6.40537">
        <ele>631.3</ele>
        <time>2026-02-22T13:17:21Z</time>
      </trkpt>
      <trkpt lat="43.58463" lon="6.40537">
        <ele>631.3</ele>
        <time>2026-02-22T13:17:22Z</time>
      </trkpt>
      <trkpt lat="43.58463" lon="6.40537">
        <ele>631.3</ele>
        <time>2026-02-22T13:17:23Z</time>
      </trkpt>
      <trkpt lat="43.58463" lon="6.40537">
        <ele>631.3</ele>
        <time>2026-02-22T13:17:24Z</time>
      </trkpt>
      <trkpt lat="43.58464" lon="6.40537">
        <ele>631.4</ele>
        <time>2026-02-22T13:17:25Z</time>
      </trkpt>
      <trkpt lat="43.58463" lon="6.40537">
        <ele>631.3</ele>
        <time>2026-02-22T13:17:26Z</time>
      </trkpt>
      <trkpt lat="43.58463" lon="6.40536">
        <ele>631.3</ele>
        <time>2026-02-22T13:17:27Z</time>
      </trkpt>
      <trkpt lat="43.58463" lon="6.40535">
        <ele>631.2</ele>
        <time>2026-02-22T13:17:28Z</time>
      </trkpt>
      <trkpt lat="43.58462" lon="6.40534">
        <ele>631.2</ele>
        <time>2026-02-22T13:17:29Z</time>
      </trkpt>
      <trkpt lat="43.58462" lon="6.40533">
        <ele>631.2</ele>
        <time>2026-02-22T13:17:30Z</time>
      </trkpt>
      <trkpt lat="43.58461" lon="6.40533">
        <ele>631.3</ele>
        <time>2026-02-22T13:17:31Z</time>
      </trkpt>
      <trkpt lat="43.58461" lon="6.40532">
        <ele>631.6</ele>
        <time>2026-02-22T13:17:32Z</time>
      </trkpt>
      <trkpt lat="43.58461" lon="6.40531">
        <ele>631.7</ele>
        <time>2026-02-22T13:17:33Z</time>
      </trkpt>
      <trkpt lat="43.5846" lon="6.4053">
        <ele>631.7</ele>
        <time>2026-02-22T13:17:34Z</time>
      </trkpt>
      <trkpt lat="43.58459" lon="6.4053">
        <ele>631.7</ele>
        <time>2026-02-22T13:17:35Z</time>
      </trkpt>
      <trkpt lat="43.58459" lon="6.40529">
        <ele>631.7</ele>
        <time>2026-02-22T13:17:36Z</time>
      </trkpt>
      <trkpt lat="43.58459" lon="6.40528">
        <ele>631.8</ele>
        <time>2026-02-22T13:17:37Z</time>
      </trkpt>
      <trkpt lat="43.58459" lon="6.40528">
        <ele>631.8</ele>
        <time>2026-02-22T13:17:38Z</time>
      </trkpt>
      <trkpt lat="43.58459" lon="6.40528">
        <ele>631.8</ele>
        <time>2026-02-22T13:17:39Z</time>
      </trkpt>
      <trkpt lat="43.58459" lon="6.40528">
        <ele>631.9</ele>
        <time>2026-02-22T13:17:40Z</time>
      </trkpt>
      <trkpt lat="43.58459" lon="6.40528">
        <ele>631.9</ele>
        <time>2026-02-22T13:17:41Z</time>
      </trkpt>
      <trkpt lat="43.58459" lon="6.40527">
        <ele>631.9</ele>
        <time>2026-02-22T13:17:42Z</time>
      </trkpt>
      <trkpt lat="43.58459" lon="6.40527">
        <ele>632</ele>
        <time>2026-02-22T13:17:43Z</time>
      </trkpt>
      <trkpt lat="43.58459" lon="6.40527">
        <ele>631.9</ele>
        <time>2026-02-22T13:17:44Z</time>
      </trkpt>
      <trkpt lat="43.58458" lon="6.40526">
        <ele>631.9</ele>
        <time>2026-02-22T13:17:45Z</time>
      </trkpt>
      <trkpt lat="43.58458" lon="6.40525">
        <ele>631.8</ele>
        <time>2026-02-22T13:17:46Z</time>
      </trkpt>
      <trkpt lat="43.58457" lon="6.40524">
        <ele>631.8</ele>
        <time>2026-02-22T13:17:47Z</time>
      </trkpt>
      <trkpt lat="43.58457" lon="6.40524">
        <ele>631.8</ele>
        <time>2026-02-22T13:17:48Z</time>
      </trkpt>
      <trkpt lat="43.58457" lon="6.40523">
        <ele>631.8</ele>
        <time>2026-02-22T13:17:49Z</time>
      </trkpt>
      <trkpt lat="43.58456" lon="6.40522">
        <ele>631.8</ele>
        <time>2026-02-22T13:17:50Z</time>
      </trkpt>
      <trkpt lat="43.58456" lon="6.40521">
        <ele>631.8</ele>
        <time>2026-02-22T13:17:51Z</time>
      </trkpt>
      <trkpt lat="43.58456" lon="6.40521">
        <ele>631.9</ele>
        <time>2026-02-22T13:17:52Z</time>
      </trkpt>
      <trkpt lat="43.58456" lon="6.4052">
        <ele>631.9</ele>
        <time>2026-02-22T13:17:53Z</time>
      </trkpt>
      <trkpt lat="43.58456" lon="6.40519">
        <ele>631.9</ele>
        <time>2026-02-22T13:17:54Z</time>
      </trkpt>
      <trkpt lat="43.58455" lon="6.40518">
        <ele>631.8</ele>
        <time>2026-02-22T13:17:55Z</time>
      </trkpt>
      <trkpt lat="43.58455" lon="6.40517">
        <ele>631.8</ele>
        <time>2026-02-22T13:17:56Z</time>
      </trkpt>
      <trkpt lat="43.58455" lon="6.40516">
        <ele>631.8</ele>
        <time>2026-02-22T13:17:57Z</time>
      </trkpt>
      <trkpt lat="43.58454" lon="6.40515">
        <ele>631.8</ele>
        <time>2026-02-22T13:17:58Z</time>
      </trkpt>
      <trkpt lat="43.58454" lon="6.40514">
        <ele>631.8</ele>
        <time>2026-02-22T13:17:59Z</time>
      </trkpt>
      <trkpt lat="43.58454" lon="6.40513">
        <ele>631.8</ele>
        <time>2026-02-22T13:18:00Z</time>
      </trkpt>
      <trkpt lat="43.58454" lon="6.40512">
        <ele>631.8</ele>
        <time>2026-02-22T13:18:01Z</time>
      </trkpt>
      <trkpt lat="43.58454" lon="6.4051">
        <ele>631.8</ele>
        <time>2026-02-22T13:18:02Z</time>
      </trkpt>
      <trkpt lat="43.58453" lon="6.40509">
        <ele>631.9</ele>
        <time>2026-02-22T13:18:03Z</time>
      </trkpt>
      <trkpt lat="43.58453" lon="6.40508">
        <ele>631.9</ele>
        <time>2026-02-22T13:18:04Z</time>
      </trkpt>
      <trkpt lat="43.58453" lon="6.40507">
        <ele>632</ele>
        <time>2026-02-22T13:18:05Z</time>
      </trkpt>
      <trkpt lat="43.58453" lon="6.40506">
        <ele>632.1</ele>
        <time>2026-02-22T13:18:06Z</time>
      </trkpt>
      <trkpt lat="43.58453" lon="6.40505">
        <ele>632.1</ele>
        <time>2026-02-22T13:18:07Z</time>
      </trkpt>
      <trkpt lat="43.58452" lon="6.40503">
        <ele>632.2</ele>
        <time>2026-02-22T13:18:08Z</time>
      </trkpt>
      <trkpt lat="43.58452" lon="6.40503">
        <ele>632.2</ele>
        <time>2026-02-22T13:18:09Z</time>
      </trkpt>
      <trkpt lat="43.58452" lon="6.40502">
        <ele>632.2</ele>
        <time>2026-02-22T13:18:10Z</time>
      </trkpt>
      <trkpt lat="43.58452" lon="6.40501">
        <ele>632.2</ele>
        <time>2026-02-22T13:18:11Z</time>
      </trkpt>
      <trkpt lat="43.58452" lon="6.405">
        <ele>632.2</ele>
        <time>2026-02-22T13:18:12Z</time>
      </trkpt>
      <trkpt lat="43.58452" lon="6.405">
        <ele>632.2</ele>
        <time>2026-02-22T13:18:13Z</time>
      </trkpt>
      <trkpt lat="43.58452" lon="6.40499">
        <ele>632.2</ele>
        <time>2026-02-22T13:18:14Z</time>
      </trkpt>
      <trkpt lat="43.58451" lon="6.40499">
        <ele>632.2</ele>
        <time>2026-02-22T13:18:15Z</time>
      </trkpt>
      <trkpt lat="43.58451" lon="6.40498">
        <ele>632.3</ele>
        <time>2026-02-22T13:18:16Z</time>
      </trkpt>
      <trkpt lat="43.58451" lon="6.40498">
        <ele>632.4</ele>
        <time>2026-02-22T13:18:17Z</time>
      </trkpt>
      <trkpt lat="43.58451" lon="6.40497">
        <ele>632.3</ele>
        <time>2026-02-22T13:18:18Z</time>
      </trkpt>
      <trkpt lat="43.58451" lon="6.40497">
        <ele>632.3</ele>
        <time>2026-02-22T13:18:19Z</time>
      </trkpt>
      <trkpt lat="43.58451" lon="6.40496">
        <ele>632.2</ele>
        <time>2026-02-22T13:18:20Z</time>
      </trkpt>
      <trkpt lat="43.58451" lon="6.40495">
        <ele>632.2</ele>
        <time>2026-02-22T13:18:21Z</time>
      </trkpt>
      <trkpt lat="43.58452" lon="6.40494">
        <ele>632.2</ele>
        <time>2026-02-22T13:18:22Z</time>
      </trkpt>
      <trkpt lat="43.58452" lon="6.40493">
        <ele>632.2</ele>
        <time>2026-02-22T13:18:23Z</time>
      </trkpt>
      <trkpt lat="43.58452" lon="6.40492">
        <ele>632.2</ele>
        <time>2026-02-22T13:18:24Z</time>
      </trkpt>
      <trkpt lat="43.58452" lon="6.40491">
        <ele>632.2</ele>
        <time>2026-02-22T13:18:25Z</time>
      </trkpt>
      <trkpt lat="43.58451" lon="6.40489">
        <ele>632.2</ele>
        <time>2026-02-22T13:18:26Z</time>
      </trkpt>
      <trkpt lat="43.58451" lon="6.40488">
        <ele>632.2</ele>
        <time>2026-02-22T13:18:27Z</time>
      </trkpt>
      <trkpt lat="43.58451" lon="6.40487">
        <ele>632.1</ele>
        <time>2026-02-22T13:18:28Z</time>
      </trkpt>
      <trkpt lat="43.5845" lon="6.40485">
        <ele>632.1</ele>
        <time>2026-02-22T13:18:29Z</time>
      </trkpt>
      <trkpt lat="43.5845" lon="6.40484">
        <ele>632.2</ele>
        <time>2026-02-22T13:18:30Z</time>
      </trkpt>
      <trkpt lat="43.5845" lon="6.40483">
        <ele>632.1</ele>
        <time>2026-02-22T13:18:31Z</time>
      </trkpt>
      <trkpt lat="43.58449" lon="6.40482">
        <ele>632</ele>
        <time>2026-02-22T13:18:32Z</time>
      </trkpt>
      <trkpt lat="43.58449" lon="6.4048">
        <ele>632</ele>
        <time>2026-02-22T13:18:33Z</time>
      </trkpt>
      <trkpt lat="43.58449" lon="6.40479">
        <ele>632.1</ele>
        <time>2026-02-22T13:18:34Z</time>
      </trkpt>
      <trkpt lat="43.58449" lon="6.40478">
        <ele>632.1</ele>
        <time>2026-02-22T13:18:35Z</time>
      </trkpt>
      <trkpt lat="43.58448" lon="6.40478">
        <ele>632.1</ele>
        <time>2026-02-22T13:18:36Z</time>
      </trkpt>
      <trkpt lat="43.58448" lon="6.40477">
        <ele>632.2</ele>
        <time>2026-02-22T13:18:37Z</time>
      </trkpt>
      <trkpt lat="43.58449" lon="6.40476">
        <ele>632.2</ele>
        <time>2026-02-22T13:18:38Z</time>
      </trkpt>
      <trkpt lat="43.5845" lon="6.40476">
        <ele>632.3</ele>
        <time>2026-02-22T13:18:39Z</time>
      </trkpt>
      <trkpt lat="43.5845" lon="6.40475">
        <ele>632.3</ele>
        <time>2026-02-22T13:18:40Z</time>
      </trkpt>
      <trkpt lat="43.5845" lon="6.40475">
        <ele>632.3</ele>
        <time>2026-02-22T13:18:41Z</time>
      </trkpt>
      <trkpt lat="43.5845" lon="6.40474">
        <ele>632.3</ele>
        <time>2026-02-22T13:18:42Z</time>
      </trkpt>
      <trkpt lat="43.58449" lon="6.40474">
        <ele>632.3</ele>
        <time>2026-02-22T13:18:43Z</time>
      </trkpt>
      <trkpt lat="43.58449" lon="6.40474">
        <ele>632.3</ele>
        <time>2026-02-22T13:18:44Z</time>
      </trkpt>
      <trkpt lat="43.58449" lon="6.40473">
        <ele>632.2</ele>
        <time>2026-02-22T13:18:45Z</time>
      </trkpt>
      <trkpt lat="43.58449" lon="6.40472">
        <ele>632.2</ele>
        <time>2026-02-22T13:18:46Z</time>
      </trkpt>
      <trkpt lat="43.58448" lon="6.40472">
        <ele>632.2</ele>
        <time>2026-02-22T13:18:47Z</time>
      </trkpt>
      <trkpt lat="43.58448" lon="6.40472">
        <ele>632.2</ele>
        <time>2026-02-22T13:18:48Z</time>
      </trkpt>
      <trkpt lat="43.58448" lon="6.40472">
        <ele>632.2</ele>
        <time>2026-02-22T13:18:49Z</time>
      </trkpt>
      <trkpt lat="43.58448" lon="6.40471">
        <ele>632.2</ele>
        <time>2026-02-22T13:18:50Z</time>
      </trkpt>
      <trkpt lat="43.58448" lon="6.40471">
        <ele>632.2</ele>
        <time>2026-02-22T13:18:51Z</time>
      </trkpt>
      <trkpt lat="43.58447" lon="6.40469">
        <ele>632</ele>
        <time>2026-02-22T13:18:52Z</time>
      </trkpt>
      <trkpt lat="43.58447" lon="6.40468">
        <ele>632</ele>
        <time>2026-02-22T13:18:53Z</time>
      </trkpt>
      <trkpt lat="43.58447" lon="6.40467">
        <ele>632</ele>
        <time>2026-02-22T13:18:54Z</time>
      </trkpt>
      <trkpt lat="43.58447" lon="6.40466">
        <ele>632.1</ele>
        <time>2026-02-22T13:18:55Z</time>
      </trkpt>
      <trkpt lat="43.58447" lon="6.40465">
        <ele>632.1</ele>
        <time>2026-02-22T13:18:56Z</time>
      </trkpt>
      <trkpt lat="43.58447" lon="6.40464">
        <ele>632.1</ele>
        <time>2026-02-22T13:18:57Z</time>
      </trkpt>
      <trkpt lat="43.58446" lon="6.40464">
        <ele>632.2</ele>
        <time>2026-02-22T13:18:58Z</time>
      </trkpt>
      <trkpt lat="43.58447" lon="6.40464">
        <ele>632.3</ele>
        <time>2026-02-22T13:18:59Z</time>
      </trkpt>
      <trkpt lat="43.58447" lon="6.40463">
        <ele>632.3</ele>
        <time>2026-02-22T13:19:00Z</time>
      </trkpt>
      <trkpt lat="43.58447" lon="6.40463">
        <ele>632.3</ele>
        <time>2026-02-22T13:19:01Z</time>
      </trkpt>
      <trkpt lat="43.58447" lon="6.40463">
        <ele>632.3</ele>
        <time>2026-02-22T13:19:02Z</time>
      </trkpt>
      <trkpt lat="43.58447" lon="6.40463">
        <ele>632.4</ele>
        <time>2026-02-22T13:19:03Z</time>
      </trkpt>
      <trkpt lat="43.58447" lon="6.40462">
        <ele>632.4</ele>
        <time>2026-02-22T13:19:04Z</time>
      </trkpt>
      <trkpt lat="43.58447" lon="6.40462">
        <ele>632.4</ele>
        <time>2026-02-22T13:19:05Z</time>
      </trkpt>
      <trkpt lat="43.58447" lon="6.40461">
        <ele>632.4</ele>
        <time>2026-02-22T13:19:06Z</time>
      </trkpt>
      <trkpt lat="43.58447" lon="6.4046">
        <ele>632.5</ele>
        <time>2026-02-22T13:19:07Z</time>
      </trkpt>
      <trkpt lat="43.58447" lon="6.40459">
        <ele>632.5</ele>
        <time>2026-02-22T13:19:08Z</time>
      </trkpt>
      <trkpt lat="43.58447" lon="6.40458">
        <ele>632.4</ele>
        <time>2026-02-22T13:19:09Z</time>
      </trkpt>
      <trkpt lat="43.58447" lon="6.40457">
        <ele>632.4</ele>
        <time>2026-02-22T13:19:10Z</time>
      </trkpt>
      <trkpt lat="43.58447" lon="6.40456">
        <ele>632.5</ele>
        <time>2026-02-22T13:19:11Z</time>
      </trkpt>
      <trkpt lat="43.58448" lon="6.40454">
        <ele>632.5</ele>
        <time>2026-02-22T13:19:12Z</time>
      </trkpt>
      <trkpt lat="43.58448" lon="6.40453">
        <ele>632.6</ele>
        <time>2026-02-22T13:19:13Z</time>
      </trkpt>
      <trkpt lat="43.58448" lon="6.40452">
        <ele>632.7</ele>
        <time>2026-02-22T13:19:14Z</time>
      </trkpt>
      <trkpt lat="43.58448" lon="6.40451">
        <ele>632.7</ele>
        <time>2026-02-22T13:19:15Z</time>
      </trkpt>
      <trkpt lat="43.58448" lon="6.40449">
        <ele>632.8</ele>
        <time>2026-02-22T13:19:16Z</time>
      </trkpt>
      <trkpt lat="43.58448" lon="6.40448">
        <ele>632.7</ele>
        <time>2026-02-22T13:19:17Z</time>
      </trkpt>
      <trkpt lat="43.58448" lon="6.40446">
        <ele>632.7</ele>
        <time>2026-02-22T13:19:18Z</time>
      </trkpt>
      <trkpt lat="43.58449" lon="6.40445">
        <ele>632.8</ele>
        <time>2026-02-22T13:19:19Z</time>
      </trkpt>
      <trkpt lat="43.58449" lon="6.40443">
        <ele>632.9</ele>
        <time>2026-02-22T13:19:20Z</time>
      </trkpt>
      <trkpt lat="43.58449" lon="6.40442">
        <ele>632.9</ele>
        <time>2026-02-22T13:19:21Z</time>
      </trkpt>
      <trkpt lat="43.58449" lon="6.40441">
        <ele>633</ele>
        <time>2026-02-22T13:19:22Z</time>
      </trkpt>
      <trkpt lat="43.58449" lon="6.4044">
        <ele>633</ele>
        <time>2026-02-22T13:19:23Z</time>
      </trkpt>
      <trkpt lat="43.58449" lon="6.40439">
        <ele>633</ele>
        <time>2026-02-22T13:19:24Z</time>
      </trkpt>
      <trkpt lat="43.58449" lon="6.40438">
        <ele>633</ele>
        <time>2026-02-22T13:19:25Z</time>
      </trkpt>
      <trkpt lat="43.58449" lon="6.40436">
        <ele>633.2</ele>
        <time>2026-02-22T13:19:26Z</time>
      </trkpt>
      <trkpt lat="43.5845" lon="6.40435">
        <ele>633.3</ele>
        <time>2026-02-22T13:19:27Z</time>
      </trkpt>
      <trkpt lat="43.5845" lon="6.40433">
        <ele>633.4</ele>
        <time>2026-02-22T13:19:28Z</time>
      </trkpt>
      <trkpt lat="43.5845" lon="6.40432">
        <ele>633.4</ele>
        <time>2026-02-22T13:19:29Z</time>
      </trkpt>
      <trkpt lat="43.58451" lon="6.40431">
        <ele>633.4</ele>
        <time>2026-02-22T13:19:30Z</time>
      </trkpt>
      <trkpt lat="43.58451" lon="6.4043">
        <ele>633.4</ele>
        <time>2026-02-22T13:19:31Z</time>
      </trkpt>
      <trkpt lat="43.58451" lon="6.40428">
        <ele>633.5</ele>
        <time>2026-02-22T13:19:32Z</time>
      </trkpt>
      <trkpt lat="43.58451" lon="6.40427">
        <ele>633.5</ele>
        <time>2026-02-22T13:19:33Z</time>
      </trkpt>
      <trkpt lat="43.58451" lon="6.40426">
        <ele>633.7</ele>
        <time>2026-02-22T13:19:34Z</time>
      </trkpt>
      <trkpt lat="43.58451" lon="6.40425">
        <ele>633.8</ele>
        <time>2026-02-22T13:19:35Z</time>
      </trkpt>
      <trkpt lat="43.58451" lon="6.40424">
        <ele>633.9</ele>
        <time>2026-02-22T13:19:36Z</time>
      </trkpt>
      <trkpt lat="43.58451" lon="6.40423">
        <ele>633.9</ele>
        <time>2026-02-22T13:19:37Z</time>
      </trkpt>
      <trkpt lat="43.58451" lon="6.40422">
        <ele>634</ele>
        <time>2026-02-22T13:19:38Z</time>
      </trkpt>
      <trkpt lat="43.58451" lon="6.40421">
        <ele>634.1</ele>
        <time>2026-02-22T13:19:39Z</time>
      </trkpt>
      <trkpt lat="43.58452" lon="6.4042">
        <ele>634.2</ele>
        <time>2026-02-22T13:19:40Z</time>
      </trkpt>
      <trkpt lat="43.58452" lon="6.40419">
        <ele>634.2</ele>
        <time>2026-02-22T13:19:41Z</time>
      </trkpt>
      <trkpt lat="43.58453" lon="6.40418">
        <ele>634.3</ele>
        <time>2026-02-22T13:19:42Z</time>
      </trkpt>
      <trkpt lat="43.58453" lon="6.40417">
        <ele>634.5</ele>
        <time>2026-02-22T13:19:43Z</time>
      </trkpt>
      <trkpt lat="43.58453" lon="6.40417">
        <ele>634.6</ele>
        <time>2026-02-22T13:19:44Z</time>
      </trkpt>
      <trkpt lat="43.58453" lon="6.40416">
        <ele>634.7</ele>
        <time>2026-02-22T13:19:45Z</time>
      </trkpt>
      <trkpt lat="43.58453" lon="6.40415">
        <ele>634.8</ele>
        <time>2026-02-22T13:19:46Z</time>
      </trkpt>
      <trkpt lat="43.58454" lon="6.40414">
        <ele>635</ele>
        <time>2026-02-22T13:19:47Z</time>
      </trkpt>
      <trkpt lat="43.58454" lon="6.40413">
        <ele>635.1</ele>
        <time>2026-02-22T13:19:48Z</time>
      </trkpt>
      <trkpt lat="43.58455" lon="6.40413">
        <ele>635.2</ele>
        <time>2026-02-22T13:19:49Z</time>
      </trkpt>
      <trkpt lat="43.58455" lon="6.40412">
        <ele>635.3</ele>
        <time>2026-02-22T13:19:50Z</time>
      </trkpt>
      <trkpt lat="43.58455" lon="6.40411">
        <ele>635.4</ele>
        <time>2026-02-22T13:19:51Z</time>
      </trkpt>
      <trkpt lat="43.58456" lon="6.40411">
        <ele>635.5</ele>
        <time>2026-02-22T13:19:52Z</time>
      </trkpt>
      <trkpt lat="43.58457" lon="6.4041">
        <ele>635.5</ele>
        <time>2026-02-22T13:19:53Z</time>
      </trkpt>
      <trkpt lat="43.58457" lon="6.4041">
        <ele>635.6</ele>
        <time>2026-02-22T13:19:54Z</time>
      </trkpt>
      <trkpt lat="43.58457" lon="6.40409">
        <ele>635.7</ele>
        <time>2026-02-22T13:19:55Z</time>
      </trkpt>
      <trkpt lat="43.58458" lon="6.40408">
        <ele>635.7</ele>
        <time>2026-02-22T13:19:56Z</time>
      </trkpt>
      <trkpt lat="43.58458" lon="6.40408">
        <ele>635.8</ele>
        <time>2026-02-22T13:19:57Z</time>
      </trkpt>
      <trkpt lat="43.58459" lon="6.40407">
        <ele>635.9</ele>
        <time>2026-02-22T13:19:58Z</time>
      </trkpt>
      <trkpt lat="43.58459" lon="6.40406">
        <ele>636</ele>
        <time>2026-02-22T13:19:59Z</time>
      </trkpt>
      <trkpt lat="43.5846" lon="6.40405">
        <ele>636</ele>
        <time>2026-02-22T13:20:00Z</time>
      </trkpt>
      <trkpt lat="43.5846" lon="6.40405">
        <ele>636.1</ele>
        <time>2026-02-22T13:20:01Z</time>
      </trkpt>
      <trkpt lat="43.58461" lon="6.40404">
        <ele>636.3</ele>
        <time>2026-02-22T13:20:02Z</time>
      </trkpt>
      <trkpt lat="43.58461" lon="6.40403">
        <ele>636.4</ele>
        <time>2026-02-22T13:20:03Z</time>
      </trkpt>
      <trkpt lat="43.58462" lon="6.40402">
        <ele>636.5</ele>
        <time>2026-02-22T13:20:04Z</time>
      </trkpt>
      <trkpt lat="43.58462" lon="6.40401">
        <ele>636.4</ele>
        <time>2026-02-22T13:20:05Z</time>
      </trkpt>
      <trkpt lat="43.58463" lon="6.404">
        <ele>636.5</ele>
        <time>2026-02-22T13:20:06Z</time>
      </trkpt>
      <trkpt lat="43.58463" lon="6.404">
        <ele>636.5</ele>
        <time>2026-02-22T13:20:07Z</time>
      </trkpt>
      <trkpt lat="43.58464" lon="6.40399">
        <ele>636.6</ele>
        <time>2026-02-22T13:20:08Z</time>
      </trkpt>
      <trkpt lat="43.58464" lon="6.40398">
        <ele>636.7</ele>
        <time>2026-02-22T13:20:09Z</time>
      </trkpt>
      <trkpt lat="43.58464" lon="6.40398">
        <ele>636.7</ele>
        <time>2026-02-22T13:20:10Z</time>
      </trkpt>
      <trkpt lat="43.58464" lon="6.40397">
        <ele>636.9</ele>
        <time>2026-02-22T13:20:11Z</time>
      </trkpt>
      <trkpt lat="43.58465" lon="6.40396">
        <ele>636.9</ele>
        <time>2026-02-22T13:20:12Z</time>
      </trkpt>
      <trkpt lat="43.58465" lon="6.40395">
        <ele>637</ele>
        <time>2026-02-22T13:20:13Z</time>
      </trkpt>
      <trkpt lat="43.58466" lon="6.40395">
        <ele>637</ele>
        <time>2026-02-22T13:20:14Z</time>
      </trkpt>
      <trkpt lat="43.58466" lon="6.40394">
        <ele>637.2</ele>
        <time>2026-02-22T13:20:15Z</time>
      </trkpt>
      <trkpt lat="43.58466" lon="6.40394">
        <ele>637.4</ele>
        <time>2026-02-22T13:20:16Z</time>
      </trkpt>
      <trkpt lat="43.58466" lon="6.40393">
        <ele>637.6</ele>
        <time>2026-02-22T13:20:17Z</time>
      </trkpt>
      <trkpt lat="43.58467" lon="6.40392">
        <ele>637.7</ele>
        <time>2026-02-22T13:20:18Z</time>
      </trkpt>
      <trkpt lat="43.58467" lon="6.40391">
        <ele>637.8</ele>
        <time>2026-02-22T13:20:19Z</time>
      </trkpt>
      <trkpt lat="43.58468" lon="6.4039">
        <ele>637.9</ele>
        <time>2026-02-22T13:20:20Z</time>
      </trkpt>
      <trkpt lat="43.58468" lon="6.40388">
        <ele>638</ele>
        <time>2026-02-22T13:20:21Z</time>
      </trkpt>
      <trkpt lat="43.58469" lon="6.40387">
        <ele>638</ele>
        <time>2026-02-22T13:20:22Z</time>
      </trkpt>
      <trkpt lat="43.58469" lon="6.40386">
        <ele>638.1</ele>
        <time>2026-02-22T13:20:23Z</time>
      </trkpt>
      <trkpt lat="43.5847" lon="6.40385">
        <ele>638.3</ele>
        <time>2026-02-22T13:20:24Z</time>
      </trkpt>
      <trkpt lat="43.5847" lon="6.40385">
        <ele>638.5</ele>
        <time>2026-02-22T13:20:25Z</time>
      </trkpt>
      <trkpt lat="43.58471" lon="6.40384">
        <ele>638.5</ele>
        <time>2026-02-22T13:20:26Z</time>
      </trkpt>
      <trkpt lat="43.58471" lon="6.40383">
        <ele>638.9</ele>
        <time>2026-02-22T13:20:27Z</time>
      </trkpt>
      <trkpt lat="43.58472" lon="6.40382">
        <ele>639.1</ele>
        <time>2026-02-22T13:20:28Z</time>
      </trkpt>
      <trkpt lat="43.58473" lon="6.40381">
        <ele>639.3</ele>
        <time>2026-02-22T13:20:29Z</time>
      </trkpt>
      <trkpt lat="43.58473" lon="6.40379">
        <ele>639.4</ele>
        <time>2026-02-22T13:20:30Z</time>
      </trkpt>
      <trkpt lat="43.58474" lon="6.40378">
        <ele>639.5</ele>
        <time>2026-02-22T13:20:31Z</time>
      </trkpt>
      <trkpt lat="43.58474" lon="6.40377">
        <ele>639.6</ele>
        <time>2026-02-22T13:20:32Z</time>
      </trkpt>
      <trkpt lat="43.58475" lon="6.40376">
        <ele>639.6</ele>
        <time>2026-02-22T13:20:33Z</time>
      </trkpt>
      <trkpt lat="43.58476" lon="6.40375">
        <ele>639.6</ele>
        <time>2026-02-22T13:20:34Z</time>
      </trkpt>
      <trkpt lat="43.58476" lon="6.40374">
        <ele>639.6</ele>
        <time>2026-02-22T13:20:35Z</time>
      </trkpt>
      <trkpt lat="43.58477" lon="6.40373">
        <ele>639.7</ele>
        <time>2026-02-22T13:20:36Z</time>
      </trkpt>
      <trkpt lat="43.58478" lon="6.40372">
        <ele>639.8</ele>
        <time>2026-02-22T13:20:37Z</time>
      </trkpt>
      <trkpt lat="43.58478" lon="6.40372">
        <ele>639.8</ele>
        <time>2026-02-22T13:20:38Z</time>
      </trkpt>
      <trkpt lat="43.58479" lon="6.40371">
        <ele>639.9</ele>
        <time>2026-02-22T13:20:39Z</time>
      </trkpt>
      <trkpt lat="43.5848" lon="6.40371">
        <ele>639.9</ele>
        <time>2026-02-22T13:20:40Z</time>
      </trkpt>
      <trkpt lat="43.58481" lon="6.4037">
        <ele>639.9</ele>
        <time>2026-02-22T13:20:41Z</time>
      </trkpt>
      <trkpt lat="43.58482" lon="6.40369">
        <ele>639.9</ele>
        <time>2026-02-22T13:20:42Z</time>
      </trkpt>
      <trkpt lat="43.58483" lon="6.40368">
        <ele>639.9</ele>
        <time>2026-02-22T13:20:43Z</time>
      </trkpt>
      <trkpt lat="43.58484" lon="6.40368">
        <ele>639.9</ele>
        <time>2026-02-22T13:20:44Z</time>
      </trkpt>
      <trkpt lat="43.58484" lon="6.40367">
        <ele>640</ele>
        <time>2026-02-22T13:20:45Z</time>
      </trkpt>
      <trkpt lat="43.58485" lon="6.40367">
        <ele>640</ele>
        <time>2026-02-22T13:20:46Z</time>
      </trkpt>
      <trkpt lat="43.58486" lon="6.40366">
        <ele>640</ele>
        <time>2026-02-22T13:20:47Z</time>
      </trkpt>
      <trkpt lat="43.58487" lon="6.40366">
        <ele>640</ele>
        <time>2026-02-22T13:20:48Z</time>
      </trkpt>
      <trkpt lat="43.58488" lon="6.40365">
        <ele>639.9</ele>
        <time>2026-02-22T13:20:49Z</time>
      </trkpt>
      <trkpt lat="43.58488" lon="6.40364">
        <ele>639.8</ele>
        <time>2026-02-22T13:20:50Z</time>
      </trkpt>
      <trkpt lat="43.58489" lon="6.40363">
        <ele>639.9</ele>
        <time>2026-02-22T13:20:51Z</time>
      </trkpt>
      <trkpt lat="43.5849" lon="6.40362">
        <ele>639.8</ele>
        <time>2026-02-22T13:20:52Z</time>
      </trkpt>
      <trkpt lat="43.58491" lon="6.4036">
        <ele>639.7</ele>
        <time>2026-02-22T13:20:53Z</time>
      </trkpt>
      <trkpt lat="43.58492" lon="6.40358">
        <ele>639.6</ele>
        <time>2026-02-22T13:20:54Z</time>
      </trkpt>
      <trkpt lat="43.58492" lon="6.40357">
        <ele>639.5</ele>
        <time>2026-02-22T13:20:55Z</time>
      </trkpt>
      <trkpt lat="43.58493" lon="6.40356">
        <ele>639.5</ele>
        <time>2026-02-22T13:20:56Z</time>
      </trkpt>
      <trkpt lat="43.58494" lon="6.40355">
        <ele>639.4</ele>
        <time>2026-02-22T13:20:57Z</time>
      </trkpt>
      <trkpt lat="43.58494" lon="6.40354">
        <ele>639.4</ele>
        <time>2026-02-22T13:20:58Z</time>
      </trkpt>
      <trkpt lat="43.58495" lon="6.40353">
        <ele>639.4</ele>
        <time>2026-02-22T13:20:59Z</time>
      </trkpt>
      <trkpt lat="43.58495" lon="6.40352">
        <ele>639.4</ele>
        <time>2026-02-22T13:21:00Z</time>
      </trkpt>
      <trkpt lat="43.58496" lon="6.40351">
        <ele>639.3</ele>
        <time>2026-02-22T13:21:01Z</time>
      </trkpt>
      <trkpt lat="43.58497" lon="6.4035">
        <ele>639.3</ele>
        <time>2026-02-22T13:21:02Z</time>
      </trkpt>
      <trkpt lat="43.58498" lon="6.40349">
        <ele>639.2</ele>
        <time>2026-02-22T13:21:03Z</time>
      </trkpt>
      <trkpt lat="43.58498" lon="6.40348">
        <ele>639.1</ele>
        <time>2026-02-22T13:21:04Z</time>
      </trkpt>
      <trkpt lat="43.58498" lon="6.40347">
        <ele>639</ele>
        <time>2026-02-22T13:21:05Z</time>
      </trkpt>
      <trkpt lat="43.58499" lon="6.40346">
        <ele>639</ele>
        <time>2026-02-22T13:21:06Z</time>
      </trkpt>
      <trkpt lat="43.585" lon="6.40345">
        <ele>638.8</ele>
        <time>2026-02-22T13:21:07Z</time>
      </trkpt>
      <trkpt lat="43.585" lon="6.40344">
        <ele>638.8</ele>
        <time>2026-02-22T13:21:08Z</time>
      </trkpt>
      <trkpt lat="43.58501" lon="6.40342">
        <ele>638.8</ele>
        <time>2026-02-22T13:21:09Z</time>
      </trkpt>
      <trkpt lat="43.58502" lon="6.40341">
        <ele>638.8</ele>
        <time>2026-02-22T13:21:10Z</time>
      </trkpt>
      <trkpt lat="43.58503" lon="6.4034">
        <ele>638.7</ele>
        <time>2026-02-22T13:21:11Z</time>
      </trkpt>
      <trkpt lat="43.58504" lon="6.40339">
        <ele>638.6</ele>
        <time>2026-02-22T13:21:12Z</time>
      </trkpt>
      <trkpt lat="43.58504" lon="6.40338">
        <ele>638.5</ele>
        <time>2026-02-22T13:21:13Z</time>
      </trkpt>
      <trkpt lat="43.58505" lon="6.40337">
        <ele>638.5</ele>
        <time>2026-02-22T13:21:14Z</time>
      </trkpt>
      <trkpt lat="43.58506" lon="6.40335">
        <ele>638.4</ele>
        <time>2026-02-22T13:21:15Z</time>
      </trkpt>
      <trkpt lat="43.58506" lon="6.40334">
        <ele>638.2</ele>
        <time>2026-02-22T13:21:16Z</time>
      </trkpt>
      <trkpt lat="43.58507" lon="6.40333">
        <ele>638.1</ele>
        <time>2026-02-22T13:21:17Z</time>
      </trkpt>
      <trkpt lat="43.58507" lon="6.40332">
        <ele>638.2</ele>
        <time>2026-02-22T13:21:18Z</time>
      </trkpt>
      <trkpt lat="43.58508" lon="6.40331">
        <ele>638.2</ele>
        <time>2026-02-22T13:21:19Z</time>
      </trkpt>
      <trkpt lat="43.58508" lon="6.4033">
        <ele>638.2</ele>
        <time>2026-02-22T13:21:20Z</time>
      </trkpt>
      <trkpt lat="43.58509" lon="6.40329">
        <ele>638.1</ele>
        <time>2026-02-22T13:21:21Z</time>
      </trkpt>
      <trkpt lat="43.58509" lon="6.40327">
        <ele>638.1</ele>
        <time>2026-02-22T13:21:22Z</time>
      </trkpt>
      <trkpt lat="43.58509" lon="6.40326">
        <ele>638.1</ele>
        <time>2026-02-22T13:21:23Z</time>
      </trkpt>
      <trkpt lat="43.5851" lon="6.40325">
        <ele>638.1</ele>
        <time>2026-02-22T13:21:24Z</time>
      </trkpt>
      <trkpt lat="43.5851" lon="6.40324">
        <ele>638.1</ele>
        <time>2026-02-22T13:21:25Z</time>
      </trkpt>
      <trkpt lat="43.58511" lon="6.40323">
        <ele>638.1</ele>
        <time>2026-02-22T13:21:26Z</time>
      </trkpt>
      <trkpt lat="43.58511" lon="6.40321">
        <ele>638.1</ele>
        <time>2026-02-22T13:21:27Z</time>
      </trkpt>
      <trkpt lat="43.58512" lon="6.4032">
        <ele>638.1</ele>
        <time>2026-02-22T13:21:28Z</time>
      </trkpt>
      <trkpt lat="43.58513" lon="6.40319">
        <ele>638.2</ele>
        <time>2026-02-22T13:21:29Z</time>
      </trkpt>
      <trkpt lat="43.58513" lon="6.40318">
        <ele>638.2</ele>
        <time>2026-02-22T13:21:30Z</time>
      </trkpt>
      <trkpt lat="43.58514" lon="6.40316">
        <ele>638.2</ele>
        <time>2026-02-22T13:21:31Z</time>
      </trkpt>
      <trkpt lat="43.58515" lon="6.40315">
        <ele>638.3</ele>
        <time>2026-02-22T13:21:32Z</time>
      </trkpt>
      <trkpt lat="43.58515" lon="6.40314">
        <ele>638.3</ele>
        <time>2026-02-22T13:21:33Z</time>
      </trkpt>
      <trkpt lat="43.58515" lon="6.40313">
        <ele>638.3</ele>
        <time>2026-02-22T13:21:34Z</time>
      </trkpt>
      <trkpt lat="43.58516" lon="6.40312">
        <ele>638.5</ele>
        <time>2026-02-22T13:21:35Z</time>
      </trkpt>
      <trkpt lat="43.58516" lon="6.40311">
        <ele>638.6</ele>
        <time>2026-02-22T13:21:36Z</time>
      </trkpt>
      <trkpt lat="43.58517" lon="6.40309">
        <ele>638.6</ele>
        <time>2026-02-22T13:21:37Z</time>
      </trkpt>
      <trkpt lat="43.58517" lon="6.40307">
        <ele>638.6</ele>
        <time>2026-02-22T13:21:38Z</time>
      </trkpt>
      <trkpt lat="43.58518" lon="6.40306">
        <ele>638.5</ele>
        <time>2026-02-22T13:21:39Z</time>
      </trkpt>
      <trkpt lat="43.58518" lon="6.40305">
        <ele>638.6</ele>
        <time>2026-02-22T13:21:40Z</time>
      </trkpt>
      <trkpt lat="43.58519" lon="6.40304">
        <ele>638.6</ele>
        <time>2026-02-22T13:21:41Z</time>
      </trkpt>
      <trkpt lat="43.58519" lon="6.40303">
        <ele>638.6</ele>
        <time>2026-02-22T13:21:42Z</time>
      </trkpt>
      <trkpt lat="43.58519" lon="6.40302">
        <ele>638.7</ele>
        <time>2026-02-22T13:21:43Z</time>
      </trkpt>
      <trkpt lat="43.5852" lon="6.403">
        <ele>638.7</ele>
        <time>2026-02-22T13:21:44Z</time>
      </trkpt>
      <trkpt lat="43.5852" lon="6.40299">
        <ele>638.8</ele>
        <time>2026-02-22T13:21:45Z</time>
      </trkpt>
      <trkpt lat="43.58521" lon="6.40298">
        <ele>638.8</ele>
        <time>2026-02-22T13:21:46Z</time>
      </trkpt>
      <trkpt lat="43.58521" lon="6.40296">
        <ele>638.9</ele>
        <time>2026-02-22T13:21:47Z</time>
      </trkpt>
      <trkpt lat="43.58521" lon="6.40295">
        <ele>639</ele>
        <time>2026-02-22T13:21:48Z</time>
      </trkpt>
      <trkpt lat="43.58522" lon="6.40294">
        <ele>639.1</ele>
        <time>2026-02-22T13:21:49Z</time>
      </trkpt>
      <trkpt lat="43.58523" lon="6.40292">
        <ele>639</ele>
        <time>2026-02-22T13:21:50Z</time>
      </trkpt>
      <trkpt lat="43.58523" lon="6.40291">
        <ele>639</ele>
        <time>2026-02-22T13:21:51Z</time>
      </trkpt>
      <trkpt lat="43.58523" lon="6.4029">
        <ele>639</ele>
        <time>2026-02-22T13:21:52Z</time>
      </trkpt>
      <trkpt lat="43.58524" lon="6.40288">
        <ele>639</ele>
        <time>2026-02-22T13:21:53Z</time>
      </trkpt>
      <trkpt lat="43.58525" lon="6.40287">
        <ele>639</ele>
        <time>2026-02-22T13:21:54Z</time>
      </trkpt>
      <trkpt lat="43.58526" lon="6.40286">
        <ele>639</ele>
        <time>2026-02-22T13:21:55Z</time>
      </trkpt>
      <trkpt lat="43.58526" lon="6.40285">
        <ele>639</ele>
        <time>2026-02-22T13:21:56Z</time>
      </trkpt>
      <trkpt lat="43.58527" lon="6.40284">
        <ele>639.1</ele>
        <time>2026-02-22T13:21:57Z</time>
      </trkpt>
      <trkpt lat="43.58527" lon="6.40284">
        <ele>639.2</ele>
        <time>2026-02-22T13:21:58Z</time>
      </trkpt>
      <trkpt lat="43.58528" lon="6.40283">
        <ele>639.2</ele>
        <time>2026-02-22T13:21:59Z</time>
      </trkpt>
      <trkpt lat="43.58528" lon="6.40282">
        <ele>639.3</ele>
        <time>2026-02-22T13:22:00Z</time>
      </trkpt>
      <trkpt lat="43.58529" lon="6.40281">
        <ele>639.3</ele>
        <time>2026-02-22T13:22:01Z</time>
      </trkpt>
      <trkpt lat="43.5853" lon="6.4028">
        <ele>639.3</ele>
        <time>2026-02-22T13:22:02Z</time>
      </trkpt>
      <trkpt lat="43.5853" lon="6.40278">
        <ele>639.3</ele>
        <time>2026-02-22T13:22:03Z</time>
      </trkpt>
      <trkpt lat="43.58531" lon="6.40277">
        <ele>639.4</ele>
        <time>2026-02-22T13:22:04Z</time>
      </trkpt>
      <trkpt lat="43.58531" lon="6.40276">
        <ele>639.3</ele>
        <time>2026-02-22T13:22:05Z</time>
      </trkpt>
      <trkpt lat="43.58532" lon="6.40274">
        <ele>639.3</ele>
        <time>2026-02-22T13:22:06Z</time>
      </trkpt>
      <trkpt lat="43.58533" lon="6.40273">
        <ele>639.4</ele>
        <time>2026-02-22T13:22:07Z</time>
      </trkpt>
      <trkpt lat="43.58534" lon="6.40272">
        <ele>639.4</ele>
        <time>2026-02-22T13:22:08Z</time>
      </trkpt>
      <trkpt lat="43.58534" lon="6.4027">
        <ele>639.4</ele>
        <time>2026-02-22T13:22:09Z</time>
      </trkpt>
      <trkpt lat="43.58534" lon="6.40268">
        <ele>639.5</ele>
        <time>2026-02-22T13:22:10Z</time>
      </trkpt>
      <trkpt lat="43.58535" lon="6.40267">
        <ele>639.5</ele>
        <time>2026-02-22T13:22:11Z</time>
      </trkpt>
      <trkpt lat="43.58535" lon="6.40266">
        <ele>639.4</ele>
        <time>2026-02-22T13:22:12Z</time>
      </trkpt>
      <trkpt lat="43.58535" lon="6.40264">
        <ele>639.4</ele>
        <time>2026-02-22T13:22:13Z</time>
      </trkpt>
      <trkpt lat="43.58535" lon="6.40262">
        <ele>639.4</ele>
        <time>2026-02-22T13:22:14Z</time>
      </trkpt>
      <trkpt lat="43.58536" lon="6.40261">
        <ele>639.3</ele>
        <time>2026-02-22T13:22:15Z</time>
      </trkpt>
      <trkpt lat="43.58536" lon="6.40259">
        <ele>639.3</ele>
        <time>2026-02-22T13:22:16Z</time>
      </trkpt>
      <trkpt lat="43.58536" lon="6.40257">
        <ele>639.4</ele>
        <time>2026-02-22T13:22:17Z</time>
      </trkpt>
      <trkpt lat="43.58536" lon="6.40256">
        <ele>639.4</ele>
        <time>2026-02-22T13:22:18Z</time>
      </trkpt>
      <trkpt lat="43.58536" lon="6.40254">
        <ele>639.4</ele>
        <time>2026-02-22T13:22:19Z</time>
      </trkpt>
      <trkpt lat="43.58536" lon="6.40253">
        <ele>639.4</ele>
        <time>2026-02-22T13:22:20Z</time>
      </trkpt>
      <trkpt lat="43.58537" lon="6.40251">
        <ele>639.4</ele>
        <time>2026-02-22T13:22:21Z</time>
      </trkpt>
      <trkpt lat="43.58537" lon="6.4025">
        <ele>639.5</ele>
        <time>2026-02-22T13:22:22Z</time>
      </trkpt>
      <trkpt lat="43.58537" lon="6.40249">
        <ele>639.5</ele>
        <time>2026-02-22T13:22:23Z</time>
      </trkpt>
      <trkpt lat="43.58537" lon="6.40247">
        <ele>639.5</ele>
        <time>2026-02-22T13:22:24Z</time>
      </trkpt>
      <trkpt lat="43.58537" lon="6.40246">
        <ele>639.4</ele>
        <time>2026-02-22T13:22:25Z</time>
      </trkpt>
      <trkpt lat="43.58537" lon="6.40244">
        <ele>639.4</ele>
        <time>2026-02-22T13:22:26Z</time>
      </trkpt>
      <trkpt lat="43.58537" lon="6.40242">
        <ele>639.5</ele>
        <time>2026-02-22T13:22:27Z</time>
      </trkpt>
      <trkpt lat="43.58537" lon="6.40241">
        <ele>639.5</ele>
        <time>2026-02-22T13:22:28Z</time>
      </trkpt>
      <trkpt lat="43.58537" lon="6.4024">
        <ele>639.6</ele>
        <time>2026-02-22T13:22:29Z</time>
      </trkpt>
      <trkpt lat="43.58538" lon="6.40238">
        <ele>639.3</ele>
        <time>2026-02-22T13:22:30Z</time>
      </trkpt>
      <trkpt lat="43.58538" lon="6.40237">
        <ele>639.4</ele>
        <time>2026-02-22T13:22:31Z</time>
      </trkpt>
      <trkpt lat="43.58538" lon="6.40236">
        <ele>639.7</ele>
        <time>2026-02-22T13:22:32Z</time>
      </trkpt>
      <trkpt lat="43.58538" lon="6.40234">
        <ele>639.9</ele>
        <time>2026-02-22T13:22:33Z</time>
      </trkpt>
      <trkpt lat="43.58538" lon="6.40232">
        <ele>640.1</ele>
        <time>2026-02-22T13:22:34Z</time>
      </trkpt>
      <trkpt lat="43.58538" lon="6.40231">
        <ele>640.1</ele>
        <time>2026-02-22T13:22:35Z</time>
      </trkpt>
      <trkpt lat="43.58538" lon="6.40229">
        <ele>640.2</ele>
        <time>2026-02-22T13:22:36Z</time>
      </trkpt>
      <trkpt lat="43.58538" lon="6.40228">
        <ele>640.3</ele>
        <time>2026-02-22T13:22:37Z</time>
      </trkpt>
      <trkpt lat="43.58539" lon="6.40227">
        <ele>640.3</ele>
        <time>2026-02-22T13:22:38Z</time>
      </trkpt>
      <trkpt lat="43.58538" lon="6.40225">
        <ele>640.4</ele>
        <time>2026-02-22T13:22:39Z</time>
      </trkpt>
      <trkpt lat="43.58538" lon="6.40224">
        <ele>640.5</ele>
        <time>2026-02-22T13:22:40Z</time>
      </trkpt>
      <trkpt lat="43.58539" lon="6.40222">
        <ele>640.5</ele>
        <time>2026-02-22T13:22:41Z</time>
      </trkpt>
      <trkpt lat="43.58539" lon="6.40221">
        <ele>640.5</ele>
        <time>2026-02-22T13:22:42Z</time>
      </trkpt>
      <trkpt lat="43.58539" lon="6.40219">
        <ele>640.5</ele>
        <time>2026-02-22T13:22:43Z</time>
      </trkpt>
      <trkpt lat="43.58539" lon="6.40218">
        <ele>640.5</ele>
        <time>2026-02-22T13:22:44Z</time>
      </trkpt>
      <trkpt lat="43.58539" lon="6.40216">
        <ele>640.5</ele>
        <time>2026-02-22T13:22:45Z</time>
      </trkpt>
      <trkpt lat="43.58539" lon="6.40214">
        <ele>640.5</ele>
        <time>2026-02-22T13:22:46Z</time>
      </trkpt>
      <trkpt lat="43.58539" lon="6.40213">
        <ele>640.5</ele>
        <time>2026-02-22T13:22:47Z</time>
      </trkpt>
      <trkpt lat="43.58539" lon="6.40211">
        <ele>640.6</ele>
        <time>2026-02-22T13:22:48Z</time>
      </trkpt>
      <trkpt lat="43.58539" lon="6.40209">
        <ele>640.6</ele>
        <time>2026-02-22T13:22:49Z</time>
      </trkpt>
      <trkpt lat="43.58539" lon="6.40208">
        <ele>640.7</ele>
        <time>2026-02-22T13:22:50Z</time>
      </trkpt>
      <trkpt lat="43.58539" lon="6.40206">
        <ele>640.7</ele>
        <time>2026-02-22T13:22:51Z</time>
      </trkpt>
      <trkpt lat="43.58539" lon="6.40205">
        <ele>640.8</ele>
        <time>2026-02-22T13:22:52Z</time>
      </trkpt>
      <trkpt lat="43.58539" lon="6.40203">
        <ele>640.9</ele>
        <time>2026-02-22T13:22:53Z</time>
      </trkpt>
      <trkpt lat="43.5854" lon="6.40202">
        <ele>640.9</ele>
        <time>2026-02-22T13:22:54Z</time>
      </trkpt>
      <trkpt lat="43.5854" lon="6.402">
        <ele>640.9</ele>
        <time>2026-02-22T13:22:55Z</time>
      </trkpt>
      <trkpt lat="43.5854" lon="6.40198">
        <ele>641</ele>
        <time>2026-02-22T13:22:56Z</time>
      </trkpt>
      <trkpt lat="43.5854" lon="6.40197">
        <ele>641</ele>
        <time>2026-02-22T13:22:57Z</time>
      </trkpt>
      <trkpt lat="43.58541" lon="6.40196">
        <ele>641</ele>
        <time>2026-02-22T13:22:58Z</time>
      </trkpt>
      <trkpt lat="43.58541" lon="6.40195">
        <ele>641</ele>
        <time>2026-02-22T13:22:59Z</time>
      </trkpt>
      <trkpt lat="43.58541" lon="6.40194">
        <ele>641.1</ele>
        <time>2026-02-22T13:23:00Z</time>
      </trkpt>
      <trkpt lat="43.58542" lon="6.40193">
        <ele>641.1</ele>
        <time>2026-02-22T13:23:01Z</time>
      </trkpt>
      <trkpt lat="43.58542" lon="6.40191">
        <ele>641.1</ele>
        <time>2026-02-22T13:23:02Z</time>
      </trkpt>
      <trkpt lat="43.58542" lon="6.4019">
        <ele>641.2</ele>
        <time>2026-02-22T13:23:03Z</time>
      </trkpt>
      <trkpt lat="43.58542" lon="6.40188">
        <ele>641.1</ele>
        <time>2026-02-22T13:23:04Z</time>
      </trkpt>
      <trkpt lat="43.58543" lon="6.40187">
        <ele>641.1</ele>
        <time>2026-02-22T13:23:05Z</time>
      </trkpt>
      <trkpt lat="43.58543" lon="6.40186">
        <ele>641.1</ele>
        <time>2026-02-22T13:23:06Z</time>
      </trkpt>
      <trkpt lat="43.58544" lon="6.40185">
        <ele>641</ele>
        <time>2026-02-22T13:23:07Z</time>
      </trkpt>
      <trkpt lat="43.58544" lon="6.40183">
        <ele>640.9</ele>
        <time>2026-02-22T13:23:08Z</time>
      </trkpt>
      <trkpt lat="43.58544" lon="6.40182">
        <ele>640.9</ele>
        <time>2026-02-22T13:23:09Z</time>
      </trkpt>
      <trkpt lat="43.58545" lon="6.4018">
        <ele>640.9</ele>
        <time>2026-02-22T13:23:10Z</time>
      </trkpt>
      <trkpt lat="43.58545" lon="6.40179">
        <ele>640.9</ele>
        <time>2026-02-22T13:23:11Z</time>
      </trkpt>
      <trkpt lat="43.58545" lon="6.40178">
        <ele>640.9</ele>
        <time>2026-02-22T13:23:12Z</time>
      </trkpt>
      <trkpt lat="43.58545" lon="6.40177">
        <ele>640.8</ele>
        <time>2026-02-22T13:23:13Z</time>
      </trkpt>
      <trkpt lat="43.58545" lon="6.40175">
        <ele>640.8</ele>
        <time>2026-02-22T13:23:14Z</time>
      </trkpt>
      <trkpt lat="43.58545" lon="6.40174">
        <ele>640.9</ele>
        <time>2026-02-22T13:23:15Z</time>
      </trkpt>
      <trkpt lat="43.58545" lon="6.40173">
        <ele>640.9</ele>
        <time>2026-02-22T13:23:16Z</time>
      </trkpt>
      <trkpt lat="43.58546" lon="6.40172">
        <ele>641</ele>
        <time>2026-02-22T13:23:17Z</time>
      </trkpt>
      <trkpt lat="43.58546" lon="6.4017">
        <ele>641</ele>
        <time>2026-02-22T13:23:18Z</time>
      </trkpt>
      <trkpt lat="43.58546" lon="6.40169">
        <ele>641.1</ele>
        <time>2026-02-22T13:23:19Z</time>
      </trkpt>
      <trkpt lat="43.58546" lon="6.40167">
        <ele>640.9</ele>
        <time>2026-02-22T13:23:20Z</time>
      </trkpt>
      <trkpt lat="43.58545" lon="6.40166">
        <ele>640.9</ele>
        <time>2026-02-22T13:23:21Z</time>
      </trkpt>
      <trkpt lat="43.58545" lon="6.40165">
        <ele>641</ele>
        <time>2026-02-22T13:23:22Z</time>
      </trkpt>
      <trkpt lat="43.58545" lon="6.40164">
        <ele>641</ele>
        <time>2026-02-22T13:23:23Z</time>
      </trkpt>
      <trkpt lat="43.58545" lon="6.40162">
        <ele>641</ele>
        <time>2026-02-22T13:23:24Z</time>
      </trkpt>
      <trkpt lat="43.58545" lon="6.40161">
        <ele>641</ele>
        <time>2026-02-22T13:23:25Z</time>
      </trkpt>
      <trkpt lat="43.58545" lon="6.4016">
        <ele>641</ele>
        <time>2026-02-22T13:23:26Z</time>
      </trkpt>
      <trkpt lat="43.58545" lon="6.40158">
        <ele>641</ele>
        <time>2026-02-22T13:23:27Z</time>
      </trkpt>
      <trkpt lat="43.58545" lon="6.40157">
        <ele>641.1</ele>
        <time>2026-02-22T13:23:28Z</time>
      </trkpt>
      <trkpt lat="43.58546" lon="6.40156">
        <ele>641.1</ele>
        <time>2026-02-22T13:23:29Z</time>
      </trkpt>
      <trkpt lat="43.58546" lon="6.40154">
        <ele>641.1</ele>
        <time>2026-02-22T13:23:30Z</time>
      </trkpt>
      <trkpt lat="43.58546" lon="6.40153">
        <ele>641</ele>
        <time>2026-02-22T13:23:31Z</time>
      </trkpt>
      <trkpt lat="43.58546" lon="6.40152">
        <ele>641</ele>
        <time>2026-02-22T13:23:32Z</time>
      </trkpt>
      <trkpt lat="43.58546" lon="6.40151">
        <ele>640.9</ele>
        <time>2026-02-22T13:23:33Z</time>
      </trkpt>
      <trkpt lat="43.58546" lon="6.4015">
        <ele>640.9</ele>
        <time>2026-02-22T13:23:34Z</time>
      </trkpt>
      <trkpt lat="43.58547" lon="6.40149">
        <ele>640.8</ele>
        <time>2026-02-22T13:23:35Z</time>
      </trkpt>
      <trkpt lat="43.58547" lon="6.40148">
        <ele>640.8</ele>
        <time>2026-02-22T13:23:36Z</time>
      </trkpt>
      <trkpt lat="43.58548" lon="6.40146">
        <ele>640.8</ele>
        <time>2026-02-22T13:23:37Z</time>
      </trkpt>
      <trkpt lat="43.58548" lon="6.40145">
        <ele>640.8</ele>
        <time>2026-02-22T13:23:38Z</time>
      </trkpt>
      <trkpt lat="43.58549" lon="6.40143">
        <ele>640.7</ele>
        <time>2026-02-22T13:23:39Z</time>
      </trkpt>
      <trkpt lat="43.58549" lon="6.40142">
        <ele>640.7</ele>
        <time>2026-02-22T13:23:40Z</time>
      </trkpt>
      <trkpt lat="43.58549" lon="6.40141">
        <ele>640.7</ele>
        <time>2026-02-22T13:23:41Z</time>
      </trkpt>
      <trkpt lat="43.58549" lon="6.4014">
        <ele>640.7</ele>
        <time>2026-02-22T13:23:42Z</time>
      </trkpt>
      <trkpt lat="43.5855" lon="6.40138">
        <ele>640.8</ele>
        <time>2026-02-22T13:23:43Z</time>
      </trkpt>
      <trkpt lat="43.5855" lon="6.40136">
        <ele>640.8</ele>
        <time>2026-02-22T13:23:44Z</time>
      </trkpt>
      <trkpt lat="43.5855" lon="6.40135">
        <ele>640.8</ele>
        <time>2026-02-22T13:23:45Z</time>
      </trkpt>
      <trkpt lat="43.58551" lon="6.40134">
        <ele>640.9</ele>
        <time>2026-02-22T13:23:46Z</time>
      </trkpt>
      <trkpt lat="43.58551" lon="6.40133">
        <ele>640.9</ele>
        <time>2026-02-22T13:23:47Z</time>
      </trkpt>
      <trkpt lat="43.58551" lon="6.40131">
        <ele>641.1</ele>
        <time>2026-02-22T13:23:48Z</time>
      </trkpt>
      <trkpt lat="43.58552" lon="6.40131">
        <ele>641</ele>
        <time>2026-02-22T13:23:49Z</time>
      </trkpt>
      <trkpt lat="43.58552" lon="6.4013">
        <ele>641</ele>
        <time>2026-02-22T13:23:50Z</time>
      </trkpt>
      <trkpt lat="43.58553" lon="6.40128">
        <ele>640.9</ele>
        <time>2026-02-22T13:23:51Z</time>
      </trkpt>
      <trkpt lat="43.58554" lon="6.40127">
        <ele>641.1</ele>
        <time>2026-02-22T13:23:52Z</time>
      </trkpt>
      <trkpt lat="43.58554" lon="6.40126">
        <ele>641.1</ele>
        <time>2026-02-22T13:23:53Z</time>
      </trkpt>
      <trkpt lat="43.58555" lon="6.40125">
        <ele>641.1</ele>
        <time>2026-02-22T13:23:54Z</time>
      </trkpt>
      <trkpt lat="43.58555" lon="6.40123">
        <ele>641.1</ele>
        <time>2026-02-22T13:23:55Z</time>
      </trkpt>
      <trkpt lat="43.58556" lon="6.40122">
        <ele>641.1</ele>
        <time>2026-02-22T13:23:56Z</time>
      </trkpt>
      <trkpt lat="43.58556" lon="6.4012">
        <ele>641.2</ele>
        <time>2026-02-22T13:23:57Z</time>
      </trkpt>
      <trkpt lat="43.58557" lon="6.40118">
        <ele>641.2</ele>
        <time>2026-02-22T13:23:58Z</time>
      </trkpt>
      <trkpt lat="43.58558" lon="6.40117">
        <ele>641.3</ele>
        <time>2026-02-22T13:23:59Z</time>
      </trkpt>
      <trkpt lat="43.58558" lon="6.40115">
        <ele>641.3</ele>
        <time>2026-02-22T13:24:00Z</time>
      </trkpt>
      <trkpt lat="43.58558" lon="6.40114">
        <ele>641.4</ele>
        <time>2026-02-22T13:24:01Z</time>
      </trkpt>
      <trkpt lat="43.58559" lon="6.40112">
        <ele>641.4</ele>
        <time>2026-02-22T13:24:02Z</time>
      </trkpt>
      <trkpt lat="43.5856" lon="6.40111">
        <ele>641.4</ele>
        <time>2026-02-22T13:24:03Z</time>
      </trkpt>
      <trkpt lat="43.5856" lon="6.40109">
        <ele>641.4</ele>
        <time>2026-02-22T13:24:04Z</time>
      </trkpt>
      <trkpt lat="43.5856" lon="6.40108">
        <ele>641.4</ele>
        <time>2026-02-22T13:24:05Z</time>
      </trkpt>
      <trkpt lat="43.58561" lon="6.40107">
        <ele>641.4</ele>
        <time>2026-02-22T13:24:06Z</time>
      </trkpt>
      <trkpt lat="43.58561" lon="6.40105">
        <ele>641.4</ele>
        <time>2026-02-22T13:24:07Z</time>
      </trkpt>
      <trkpt lat="43.58562" lon="6.40103">
        <ele>641.5</ele>
        <time>2026-02-22T13:24:08Z</time>
      </trkpt>
      <trkpt lat="43.58562" lon="6.40102">
        <ele>641.5</ele>
        <time>2026-02-22T13:24:09Z</time>
      </trkpt>
      <trkpt lat="43.58563" lon="6.401">
        <ele>641.5</ele>
        <time>2026-02-22T13:24:10Z</time>
      </trkpt>
      <trkpt lat="43.58563" lon="6.40099">
        <ele>641.5</ele>
        <time>2026-02-22T13:24:11Z</time>
      </trkpt>
      <trkpt lat="43.58563" lon="6.40098">
        <ele>641.5</ele>
        <time>2026-02-22T13:24:12Z</time>
      </trkpt>
      <trkpt lat="43.58564" lon="6.40097">
        <ele>641.5</ele>
        <time>2026-02-22T13:24:13Z</time>
      </trkpt>
      <trkpt lat="43.58565" lon="6.40096">
        <ele>641.5</ele>
        <time>2026-02-22T13:24:14Z</time>
      </trkpt>
      <trkpt lat="43.58565" lon="6.40095">
        <ele>641.5</ele>
        <time>2026-02-22T13:24:15Z</time>
      </trkpt>
      <trkpt lat="43.58566" lon="6.40094">
        <ele>641.5</ele>
        <time>2026-02-22T13:24:16Z</time>
      </trkpt>
      <trkpt lat="43.58567" lon="6.40093">
        <ele>641.6</ele>
        <time>2026-02-22T13:24:17Z</time>
      </trkpt>
      <trkpt lat="43.58568" lon="6.40092">
        <ele>641.7</ele>
        <time>2026-02-22T13:24:18Z</time>
      </trkpt>
      <trkpt lat="43.58569" lon="6.40091">
        <ele>641.6</ele>
        <time>2026-02-22T13:24:19Z</time>
      </trkpt>
      <trkpt lat="43.5857" lon="6.4009">
        <ele>641.6</ele>
        <time>2026-02-22T13:24:20Z</time>
      </trkpt>
      <trkpt lat="43.58571" lon="6.40089">
        <ele>641.6</ele>
        <time>2026-02-22T13:24:21Z</time>
      </trkpt>
      <trkpt lat="43.58571" lon="6.40088">
        <ele>641.6</ele>
        <time>2026-02-22T13:24:22Z</time>
      </trkpt>
      <trkpt lat="43.58572" lon="6.40088">
        <ele>641.6</ele>
        <time>2026-02-22T13:24:23Z</time>
      </trkpt>
      <trkpt lat="43.58573" lon="6.40087">
        <ele>641.6</ele>
        <time>2026-02-22T13:24:24Z</time>
      </trkpt>
      <trkpt lat="43.58574" lon="6.40086">
        <ele>641.6</ele>
        <time>2026-02-22T13:24:25Z</time>
      </trkpt>
      <trkpt lat="43.58575" lon="6.40086">
        <ele>641.6</ele>
        <time>2026-02-22T13:24:26Z</time>
      </trkpt>
      <trkpt lat="43.58576" lon="6.40085">
        <ele>641.7</ele>
        <time>2026-02-22T13:24:27Z</time>
      </trkpt>
      <trkpt lat="43.58577" lon="6.40085">
        <ele>641.8</ele>
        <time>2026-02-22T13:24:28Z</time>
      </trkpt>
      <trkpt lat="43.58578" lon="6.40084">
        <ele>641.8</ele>
        <time>2026-02-22T13:24:29Z</time>
      </trkpt>
      <trkpt lat="43.58578" lon="6.40083">
        <ele>641.9</ele>
        <time>2026-02-22T13:24:30Z</time>
      </trkpt>
      <trkpt lat="43.58579" lon="6.40082">
        <ele>641.9</ele>
        <time>2026-02-22T13:24:31Z</time>
      </trkpt>
      <trkpt lat="43.5858" lon="6.40081">
        <ele>642</ele>
        <time>2026-02-22T13:24:32Z</time>
      </trkpt>
      <trkpt lat="43.5858" lon="6.4008">
        <ele>642</ele>
        <time>2026-02-22T13:24:33Z</time>
      </trkpt>
      <trkpt lat="43.58581" lon="6.40079">
        <ele>642.1</ele>
        <time>2026-02-22T13:24:34Z</time>
      </trkpt>
      <trkpt lat="43.58581" lon="6.40077">
        <ele>642.1</ele>
        <time>2026-02-22T13:24:35Z</time>
      </trkpt>
      <trkpt lat="43.58582" lon="6.40076">
        <ele>642.2</ele>
        <time>2026-02-22T13:24:36Z</time>
      </trkpt>
      <trkpt lat="43.58583" lon="6.40075">
        <ele>642.3</ele>
        <time>2026-02-22T13:24:37Z</time>
      </trkpt>
      <trkpt lat="43.58583" lon="6.40074">
        <ele>642.4</ele>
        <time>2026-02-22T13:24:38Z</time>
      </trkpt>
      <trkpt lat="43.58584" lon="6.40073">
        <ele>642.5</ele>
        <time>2026-02-22T13:24:39Z</time>
      </trkpt>
      <trkpt lat="43.58584" lon="6.40072">
        <ele>642.5</ele>
        <time>2026-02-22T13:24:40Z</time>
      </trkpt>
      <trkpt lat="43.58585" lon="6.40071">
        <ele>642.2</ele>
        <time>2026-02-22T13:24:41Z</time>
      </trkpt>
      <trkpt lat="43.58585" lon="6.4007">
        <ele>642.3</ele>
        <time>2026-02-22T13:24:42Z</time>
      </trkpt>
      <trkpt lat="43.58587" lon="6.40069">
        <ele>642.4</ele>
        <time>2026-02-22T13:24:43Z</time>
      </trkpt>
      <trkpt lat="43.58587" lon="6.40068">
        <ele>642.5</ele>
        <time>2026-02-22T13:24:44Z</time>
      </trkpt>
      <trkpt lat="43.58588" lon="6.40067">
        <ele>642.6</ele>
        <time>2026-02-22T13:24:45Z</time>
      </trkpt>
      <trkpt lat="43.58588" lon="6.40066">
        <ele>642.7</ele>
        <time>2026-02-22T13:24:46Z</time>
      </trkpt>
      <trkpt lat="43.58589" lon="6.40065">
        <ele>642.8</ele>
        <time>2026-02-22T13:24:47Z</time>
      </trkpt>
      <trkpt lat="43.58589" lon="6.40064">
        <ele>642.8</ele>
        <time>2026-02-22T13:24:48Z</time>
      </trkpt>
      <trkpt lat="43.58589" lon="6.40062">
        <ele>642.9</ele>
        <time>2026-02-22T13:24:49Z</time>
      </trkpt>
      <trkpt lat="43.5859" lon="6.40061">
        <ele>643</ele>
        <time>2026-02-22T13:24:50Z</time>
      </trkpt>
      <trkpt lat="43.58591" lon="6.4006">
        <ele>643</ele>
        <time>2026-02-22T13:24:51Z</time>
      </trkpt>
      <trkpt lat="43.58591" lon="6.40059">
        <ele>643.1</ele>
        <time>2026-02-22T13:24:52Z</time>
      </trkpt>
      <trkpt lat="43.58592" lon="6.40058">
        <ele>643.2</ele>
        <time>2026-02-22T13:24:53Z</time>
      </trkpt>
      <trkpt lat="43.58593" lon="6.40056">
        <ele>643.3</ele>
        <time>2026-02-22T13:24:54Z</time>
      </trkpt>
      <trkpt lat="43.58593" lon="6.40055">
        <ele>643.4</ele>
        <time>2026-02-22T13:24:55Z</time>
      </trkpt>
      <trkpt lat="43.58594" lon="6.40054">
        <ele>643.5</ele>
        <time>2026-02-22T13:24:56Z</time>
      </trkpt>
      <trkpt lat="43.58595" lon="6.40052">
        <ele>643.6</ele>
        <time>2026-02-22T13:24:57Z</time>
      </trkpt>
      <trkpt lat="43.58595" lon="6.40051">
        <ele>643.6</ele>
        <time>2026-02-22T13:24:58Z</time>
      </trkpt>
      <trkpt lat="43.58596" lon="6.40049">
        <ele>643.7</ele>
        <time>2026-02-22T13:24:59Z</time>
      </trkpt>
      <trkpt lat="43.58596" lon="6.40048">
        <ele>643.7</ele>
        <time>2026-02-22T13:25:00Z</time>
      </trkpt>
      <trkpt lat="43.58597" lon="6.40047">
        <ele>643.7</ele>
        <time>2026-02-22T13:25:01Z</time>
      </trkpt>
      <trkpt lat="43.58597" lon="6.40045">
        <ele>643.8</ele>
        <time>2026-02-22T13:25:02Z</time>
      </trkpt>
      <trkpt lat="43.58598" lon="6.40044">
        <ele>643.8</ele>
        <time>2026-02-22T13:25:03Z</time>
      </trkpt>
      <trkpt lat="43.58598" lon="6.40042">
        <ele>643.8</ele>
        <time>2026-02-22T13:25:04Z</time>
      </trkpt>
      <trkpt lat="43.58599" lon="6.40041">
        <ele>643.9</ele>
        <time>2026-02-22T13:25:05Z</time>
      </trkpt>
      <trkpt lat="43.586" lon="6.40039">
        <ele>643.9</ele>
        <time>2026-02-22T13:25:06Z</time>
      </trkpt>
      <trkpt lat="43.586" lon="6.40038">
        <ele>644</ele>
        <time>2026-02-22T13:25:07Z</time>
      </trkpt>
      <trkpt lat="43.58601" lon="6.40037">
        <ele>643.9</ele>
        <time>2026-02-22T13:25:08Z</time>
      </trkpt>
      <trkpt lat="43.58602" lon="6.40036">
        <ele>643.9</ele>
        <time>2026-02-22T13:25:09Z</time>
      </trkpt>
      <trkpt lat="43.58602" lon="6.40034">
        <ele>644</ele>
        <time>2026-02-22T13:25:10Z</time>
      </trkpt>
      <trkpt lat="43.58602" lon="6.40032">
        <ele>644</ele>
        <time>2026-02-22T13:25:11Z</time>
      </trkpt>
      <trkpt lat="43.58603" lon="6.40031">
        <ele>644</ele>
        <time>2026-02-22T13:25:12Z</time>
      </trkpt>
      <trkpt lat="43.58603" lon="6.4003">
        <ele>643.9</ele>
        <time>2026-02-22T13:25:13Z</time>
      </trkpt>
      <trkpt lat="43.58603" lon="6.40029">
        <ele>643.9</ele>
        <time>2026-02-22T13:25:14Z</time>
      </trkpt>
      <trkpt lat="43.58604" lon="6.40027">
        <ele>643.8</ele>
        <time>2026-02-22T13:25:15Z</time>
      </trkpt>
      <trkpt lat="43.58604" lon="6.40026">
        <ele>643.8</ele>
        <time>2026-02-22T13:25:16Z</time>
      </trkpt>
      <trkpt lat="43.58605" lon="6.40025">
        <ele>643.7</ele>
        <time>2026-02-22T13:25:17Z</time>
      </trkpt>
      <trkpt lat="43.58605" lon="6.40024">
        <ele>643.5</ele>
        <time>2026-02-22T13:25:18Z</time>
      </trkpt>
      <trkpt lat="43.58606" lon="6.40022">
        <ele>643.4</ele>
        <time>2026-02-22T13:25:19Z</time>
      </trkpt>
      <trkpt lat="43.58606" lon="6.4002">
        <ele>643.3</ele>
        <time>2026-02-22T13:25:20Z</time>
      </trkpt>
      <trkpt lat="43.58607" lon="6.40018">
        <ele>643.2</ele>
        <time>2026-02-22T13:25:21Z</time>
      </trkpt>
      <trkpt lat="43.58607" lon="6.40016">
        <ele>643</ele>
        <time>2026-02-22T13:25:22Z</time>
      </trkpt>
      <trkpt lat="43.58607" lon="6.40015">
        <ele>643</ele>
        <time>2026-02-22T13:25:23Z</time>
      </trkpt>
      <trkpt lat="43.58608" lon="6.40013">
        <ele>643</ele>
        <time>2026-02-22T13:25:24Z</time>
      </trkpt>
      <trkpt lat="43.58609" lon="6.40012">
        <ele>642.9</ele>
        <time>2026-02-22T13:25:25Z</time>
      </trkpt>
      <trkpt lat="43.58609" lon="6.40011">
        <ele>642.8</ele>
        <time>2026-02-22T13:25:26Z</time>
      </trkpt>
      <trkpt lat="43.5861" lon="6.4001">
        <ele>642.8</ele>
        <time>2026-02-22T13:25:27Z</time>
      </trkpt>
      <trkpt lat="43.5861" lon="6.40008">
        <ele>642.7</ele>
        <time>2026-02-22T13:25:28Z</time>
      </trkpt>
      <trkpt lat="43.5861" lon="6.40007">
        <ele>642.6</ele>
        <time>2026-02-22T13:25:29Z</time>
      </trkpt>
      <trkpt lat="43.58611" lon="6.40005">
        <ele>642.6</ele>
        <time>2026-02-22T13:25:30Z</time>
      </trkpt>
      <trkpt lat="43.58612" lon="6.40004">
        <ele>642.5</ele>
        <time>2026-02-22T13:25:31Z</time>
      </trkpt>
      <trkpt lat="43.58612" lon="6.40003">
        <ele>642.5</ele>
        <time>2026-02-22T13:25:32Z</time>
      </trkpt>
      <trkpt lat="43.58613" lon="6.40001">
        <ele>642.4</ele>
        <time>2026-02-22T13:25:33Z</time>
      </trkpt>
      <trkpt lat="43.58613" lon="6.39999">
        <ele>642.3</ele>
        <time>2026-02-22T13:25:34Z</time>
      </trkpt>
      <trkpt lat="43.58613" lon="6.39998">
        <ele>642.3</ele>
        <time>2026-02-22T13:25:35Z</time>
      </trkpt>
      <trkpt lat="43.58613" lon="6.39997">
        <ele>642.2</ele>
        <time>2026-02-22T13:25:36Z</time>
      </trkpt>
      <trkpt lat="43.58614" lon="6.39996">
        <ele>642.1</ele>
        <time>2026-02-22T13:25:37Z</time>
      </trkpt>
      <trkpt lat="43.58614" lon="6.39994">
        <ele>642</ele>
        <time>2026-02-22T13:25:38Z</time>
      </trkpt>
      <trkpt lat="43.58614" lon="6.39993">
        <ele>641.9</ele>
        <time>2026-02-22T13:25:39Z</time>
      </trkpt>
      <trkpt lat="43.58615" lon="6.39992">
        <ele>641.9</ele>
        <time>2026-02-22T13:25:40Z</time>
      </trkpt>
      <trkpt lat="43.58615" lon="6.3999">
        <ele>642</ele>
        <time>2026-02-22T13:25:41Z</time>
      </trkpt>
      <trkpt lat="43.58616" lon="6.39989">
        <ele>642</ele>
        <time>2026-02-22T13:25:42Z</time>
      </trkpt>
      <trkpt lat="43.58616" lon="6.39988">
        <ele>641.9</ele>
        <time>2026-02-22T13:25:43Z</time>
      </trkpt>
      <trkpt lat="43.58616" lon="6.39986">
        <ele>641.9</ele>
        <time>2026-02-22T13:25:44Z</time>
      </trkpt>
      <trkpt lat="43.58617" lon="6.39985">
        <ele>641.8</ele>
        <time>2026-02-22T13:25:45Z</time>
      </trkpt>
      <trkpt lat="43.58617" lon="6.39983">
        <ele>641.7</ele>
        <time>2026-02-22T13:25:46Z</time>
      </trkpt>
      <trkpt lat="43.58617" lon="6.39981">
        <ele>641.7</ele>
        <time>2026-02-22T13:25:47Z</time>
      </trkpt>
      <trkpt lat="43.58618" lon="6.3998">
        <ele>641.7</ele>
        <time>2026-02-22T13:25:48Z</time>
      </trkpt>
      <trkpt lat="43.58618" lon="6.39979">
        <ele>641.6</ele>
        <time>2026-02-22T13:25:49Z</time>
      </trkpt>
      <trkpt lat="43.58618" lon="6.39978">
        <ele>641.5</ele>
        <time>2026-02-22T13:25:50Z</time>
      </trkpt>
      <trkpt lat="43.58618" lon="6.39977">
        <ele>641.5</ele>
        <time>2026-02-22T13:25:51Z</time>
      </trkpt>
      <trkpt lat="43.58619" lon="6.39976">
        <ele>641.4</ele>
        <time>2026-02-22T13:25:52Z</time>
      </trkpt>
      <trkpt lat="43.58619" lon="6.39975">
        <ele>641.4</ele>
        <time>2026-02-22T13:25:53Z</time>
      </trkpt>
      <trkpt lat="43.58619" lon="6.39974">
        <ele>641.4</ele>
        <time>2026-02-22T13:25:54Z</time>
      </trkpt>
      <trkpt lat="43.5862" lon="6.39973">
        <ele>641.4</ele>
        <time>2026-02-22T13:25:55Z</time>
      </trkpt>
      <trkpt lat="43.5862" lon="6.39972">
        <ele>641.4</ele>
        <time>2026-02-22T13:25:56Z</time>
      </trkpt>
      <trkpt lat="43.5862" lon="6.3997">
        <ele>641.4</ele>
        <time>2026-02-22T13:25:57Z</time>
      </trkpt>
      <trkpt lat="43.58621" lon="6.39969">
        <ele>641.3</ele>
        <time>2026-02-22T13:25:58Z</time>
      </trkpt>
      <trkpt lat="43.58621" lon="6.39968">
        <ele>641.3</ele>
        <time>2026-02-22T13:25:59Z</time>
      </trkpt>
      <trkpt lat="43.58621" lon="6.39967">
        <ele>641.3</ele>
        <time>2026-02-22T13:26:00Z</time>
      </trkpt>
      <trkpt lat="43.58622" lon="6.39966">
        <ele>641.3</ele>
        <time>2026-02-22T13:26:01Z</time>
      </trkpt>
      <trkpt lat="43.58622" lon="6.39964">
        <ele>641.2</ele>
        <time>2026-02-22T13:26:02Z</time>
      </trkpt>
      <trkpt lat="43.58623" lon="6.39963">
        <ele>641.3</ele>
        <time>2026-02-22T13:26:03Z</time>
      </trkpt>
      <trkpt lat="43.58623" lon="6.39961">
        <ele>641.2</ele>
        <time>2026-02-22T13:26:04Z</time>
      </trkpt>
      <trkpt lat="43.58623" lon="6.3996">
        <ele>641.2</ele>
        <time>2026-02-22T13:26:05Z</time>
      </trkpt>
      <trkpt lat="43.58624" lon="6.39959">
        <ele>641.2</ele>
        <time>2026-02-22T13:26:06Z</time>
      </trkpt>
      <trkpt lat="43.58624" lon="6.39958">
        <ele>641.1</ele>
        <time>2026-02-22T13:26:07Z</time>
      </trkpt>
      <trkpt lat="43.58625" lon="6.39957">
        <ele>641.2</ele>
        <time>2026-02-22T13:26:08Z</time>
      </trkpt>
      <trkpt lat="43.58625" lon="6.39956">
        <ele>641.1</ele>
        <time>2026-02-22T13:26:09Z</time>
      </trkpt>
      <trkpt lat="43.58625" lon="6.39954">
        <ele>641.1</ele>
        <time>2026-02-22T13:26:10Z</time>
      </trkpt>
      <trkpt lat="43.58626" lon="6.39953">
        <ele>641</ele>
        <time>2026-02-22T13:26:11Z</time>
      </trkpt>
      <trkpt lat="43.58626" lon="6.39952">
        <ele>641</ele>
        <time>2026-02-22T13:26:12Z</time>
      </trkpt>
      <trkpt lat="43.58626" lon="6.39952">
        <ele>641</ele>
        <time>2026-02-22T13:26:13Z</time>
      </trkpt>
      <trkpt lat="43.58627" lon="6.39951">
        <ele>641</ele>
        <time>2026-02-22T13:26:14Z</time>
      </trkpt>
      <trkpt lat="43.58627" lon="6.39949">
        <ele>641.1</ele>
        <time>2026-02-22T13:26:15Z</time>
      </trkpt>
      <trkpt lat="43.58627" lon="6.39948">
        <ele>641.1</ele>
        <time>2026-02-22T13:26:16Z</time>
      </trkpt>
      <trkpt lat="43.58627" lon="6.39947">
        <ele>641</ele>
        <time>2026-02-22T13:26:17Z</time>
      </trkpt>
      <trkpt lat="43.58628" lon="6.39946">
        <ele>640.9</ele>
        <time>2026-02-22T13:26:18Z</time>
      </trkpt>
      <trkpt lat="43.58628" lon="6.39944">
        <ele>640.9</ele>
        <time>2026-02-22T13:26:19Z</time>
      </trkpt>
      <trkpt lat="43.58628" lon="6.39943">
        <ele>640.9</ele>
        <time>2026-02-22T13:26:20Z</time>
      </trkpt>
      <trkpt lat="43.58628" lon="6.39942">
        <ele>640.9</ele>
        <time>2026-02-22T13:26:21Z</time>
      </trkpt>
      <trkpt lat="43.58629" lon="6.3994">
        <ele>640.9</ele>
        <time>2026-02-22T13:26:22Z</time>
      </trkpt>
      <trkpt lat="43.58629" lon="6.39939">
        <ele>641</ele>
        <time>2026-02-22T13:26:23Z</time>
      </trkpt>
      <trkpt lat="43.58629" lon="6.39938">
        <ele>641</ele>
        <time>2026-02-22T13:26:24Z</time>
      </trkpt>
      <trkpt lat="43.58629" lon="6.39936">
        <ele>640.9</ele>
        <time>2026-02-22T13:26:25Z</time>
      </trkpt>
      <trkpt lat="43.58629" lon="6.39935">
        <ele>640.9</ele>
        <time>2026-02-22T13:26:26Z</time>
      </trkpt>
      <trkpt lat="43.58629" lon="6.39934">
        <ele>640.9</ele>
        <time>2026-02-22T13:26:27Z</time>
      </trkpt>
      <trkpt lat="43.58629" lon="6.39932">
        <ele>640.9</ele>
        <time>2026-02-22T13:26:28Z</time>
      </trkpt>
      <trkpt lat="43.5863" lon="6.39931">
        <ele>640.9</ele>
        <time>2026-02-22T13:26:29Z</time>
      </trkpt>
      <trkpt lat="43.5863" lon="6.39929">
        <ele>641</ele>
        <time>2026-02-22T13:26:30Z</time>
      </trkpt>
      <trkpt lat="43.5863" lon="6.39928">
        <ele>641</ele>
        <time>2026-02-22T13:26:31Z</time>
      </trkpt>
      <trkpt lat="43.5863" lon="6.39926">
        <ele>641.1</ele>
        <time>2026-02-22T13:26:32Z</time>
      </trkpt>
      <trkpt lat="43.5863" lon="6.39925">
        <ele>641.1</ele>
        <time>2026-02-22T13:26:33Z</time>
      </trkpt>
      <trkpt lat="43.58631" lon="6.39924">
        <ele>641.1</ele>
        <time>2026-02-22T13:26:34Z</time>
      </trkpt>
      <trkpt lat="43.58632" lon="6.39922">
        <ele>641.1</ele>
        <time>2026-02-22T13:26:35Z</time>
      </trkpt>
      <trkpt lat="43.58632" lon="6.39921">
        <ele>641.2</ele>
        <time>2026-02-22T13:26:36Z</time>
      </trkpt>
      <trkpt lat="43.58632" lon="6.39919">
        <ele>641.3</ele>
        <time>2026-02-22T13:26:37Z</time>
      </trkpt>
      <trkpt lat="43.58632" lon="6.39918">
        <ele>641.3</ele>
        <time>2026-02-22T13:26:38Z</time>
      </trkpt>
      <trkpt lat="43.58633" lon="6.39917">
        <ele>641.3</ele>
        <time>2026-02-22T13:26:39Z</time>
      </trkpt>
      <trkpt lat="43.58633" lon="6.39915">
        <ele>641.3</ele>
        <time>2026-02-22T13:26:40Z</time>
      </trkpt>
      <trkpt lat="43.58633" lon="6.39914">
        <ele>641.2</ele>
        <time>2026-02-22T13:26:41Z</time>
      </trkpt>
      <trkpt lat="43.58634" lon="6.39913">
        <ele>641.1</ele>
        <time>2026-02-22T13:26:42Z</time>
      </trkpt>
      <trkpt lat="43.58634" lon="6.39911">
        <ele>641</ele>
        <time>2026-02-22T13:26:43Z</time>
      </trkpt>
      <trkpt lat="43.58635" lon="6.3991">
        <ele>641</ele>
        <time>2026-02-22T13:26:44Z</time>
      </trkpt>
      <trkpt lat="43.58636" lon="6.39908">
        <ele>641</ele>
        <time>2026-02-22T13:26:45Z</time>
      </trkpt>
      <trkpt lat="43.58636" lon="6.39907">
        <ele>641</ele>
        <time>2026-02-22T13:26:46Z</time>
      </trkpt>
      <trkpt lat="43.58637" lon="6.39906">
        <ele>640.9</ele>
        <time>2026-02-22T13:26:47Z</time>
      </trkpt>
      <trkpt lat="43.58638" lon="6.39905">
        <ele>640.8</ele>
        <time>2026-02-22T13:26:48Z</time>
      </trkpt>
      <trkpt lat="43.58638" lon="6.39904">
        <ele>640.9</ele>
        <time>2026-02-22T13:26:49Z</time>
      </trkpt>
      <trkpt lat="43.58639" lon="6.39902">
        <ele>640.9</ele>
        <time>2026-02-22T13:26:50Z</time>
      </trkpt>
      <trkpt lat="43.58639" lon="6.39901">
        <ele>640.8</ele>
        <time>2026-02-22T13:26:51Z</time>
      </trkpt>
      <trkpt lat="43.58639" lon="6.399">
        <ele>640.7</ele>
        <time>2026-02-22T13:26:52Z</time>
      </trkpt>
      <trkpt lat="43.5864" lon="6.39899">
        <ele>640.6</ele>
        <time>2026-02-22T13:26:53Z</time>
      </trkpt>
      <trkpt lat="43.58641" lon="6.39898">
        <ele>640.5</ele>
        <time>2026-02-22T13:26:54Z</time>
      </trkpt>
      <trkpt lat="43.58642" lon="6.39897">
        <ele>640.5</ele>
        <time>2026-02-22T13:26:55Z</time>
      </trkpt>
      <trkpt lat="43.58643" lon="6.39896">
        <ele>640.3</ele>
        <time>2026-02-22T13:26:56Z</time>
      </trkpt>
      <trkpt lat="43.58643" lon="6.39894">
        <ele>640.2</ele>
        <time>2026-02-22T13:26:57Z</time>
      </trkpt>
      <trkpt lat="43.58644" lon="6.39893">
        <ele>640.1</ele>
        <time>2026-02-22T13:26:58Z</time>
      </trkpt>
      <trkpt lat="43.58644" lon="6.39892">
        <ele>640.1</ele>
        <time>2026-02-22T13:26:59Z</time>
      </trkpt>
      <trkpt lat="43.58644" lon="6.39891">
        <ele>640</ele>
        <time>2026-02-22T13:27:00Z</time>
      </trkpt>
      <trkpt lat="43.58646" lon="6.3989">
        <ele>639.9</ele>
        <time>2026-02-22T13:27:01Z</time>
      </trkpt>
      <trkpt lat="43.58646" lon="6.39889">
        <ele>639.8</ele>
        <time>2026-02-22T13:27:02Z</time>
      </trkpt>
      <trkpt lat="43.58647" lon="6.39888">
        <ele>639.8</ele>
        <time>2026-02-22T13:27:03Z</time>
      </trkpt>
      <trkpt lat="43.58647" lon="6.39887">
        <ele>639.7</ele>
        <time>2026-02-22T13:27:04Z</time>
      </trkpt>
      <trkpt lat="43.58647" lon="6.39886">
        <ele>639.6</ele>
        <time>2026-02-22T13:27:05Z</time>
      </trkpt>
      <trkpt lat="43.58647" lon="6.39885">
        <ele>639.6</ele>
        <time>2026-02-22T13:27:06Z</time>
      </trkpt>
      <trkpt lat="43.58648" lon="6.39884">
        <ele>639.4</ele>
        <time>2026-02-22T13:27:07Z</time>
      </trkpt>
      <trkpt lat="43.58649" lon="6.39883">
        <ele>639.4</ele>
        <time>2026-02-22T13:27:08Z</time>
      </trkpt>
      <trkpt lat="43.58649" lon="6.39882">
        <ele>639.3</ele>
        <time>2026-02-22T13:27:09Z</time>
      </trkpt>
      <trkpt lat="43.58649" lon="6.39881">
        <ele>639.1</ele>
        <time>2026-02-22T13:27:10Z</time>
      </trkpt>
      <trkpt lat="43.58649" lon="6.3988">
        <ele>639</ele>
        <time>2026-02-22T13:27:11Z</time>
      </trkpt>
      <trkpt lat="43.5865" lon="6.39879">
        <ele>638.9</ele>
        <time>2026-02-22T13:27:12Z</time>
      </trkpt>
      <trkpt lat="43.5865" lon="6.39878">
        <ele>638.8</ele>
        <time>2026-02-22T13:27:13Z</time>
      </trkpt>
      <trkpt lat="43.58651" lon="6.39877">
        <ele>638.7</ele>
        <time>2026-02-22T13:27:14Z</time>
      </trkpt>
      <trkpt lat="43.58652" lon="6.39876">
        <ele>638.6</ele>
        <time>2026-02-22T13:27:15Z</time>
      </trkpt>
      <trkpt lat="43.58653" lon="6.39875">
        <ele>638.5</ele>
        <time>2026-02-22T13:27:16Z</time>
      </trkpt>
      <trkpt lat="43.58653" lon="6.39874">
        <ele>638.5</ele>
        <time>2026-02-22T13:27:17Z</time>
      </trkpt>
      <trkpt lat="43.58654" lon="6.39873">
        <ele>638.5</ele>
        <time>2026-02-22T13:27:18Z</time>
      </trkpt>
      <trkpt lat="43.58655" lon="6.39872">
        <ele>638.4</ele>
        <time>2026-02-22T13:27:19Z</time>
      </trkpt>
      <trkpt lat="43.58656" lon="6.3987">
        <ele>638.3</ele>
        <time>2026-02-22T13:27:20Z</time>
      </trkpt>
      <trkpt lat="43.58656" lon="6.39869">
        <ele>638.1</ele>
        <time>2026-02-22T13:27:21Z</time>
      </trkpt>
      <trkpt lat="43.58657" lon="6.39867">
        <ele>638</ele>
        <time>2026-02-22T13:27:22Z</time>
      </trkpt>
      <trkpt lat="43.58658" lon="6.39867">
        <ele>637.9</ele>
        <time>2026-02-22T13:27:23Z</time>
      </trkpt>
      <trkpt lat="43.58658" lon="6.39866">
        <ele>637.8</ele>
        <time>2026-02-22T13:27:24Z</time>
      </trkpt>
      <trkpt lat="43.58658" lon="6.39865">
        <ele>637.8</ele>
        <time>2026-02-22T13:27:25Z</time>
      </trkpt>
      <trkpt lat="43.58659" lon="6.39864">
        <ele>637.8</ele>
        <time>2026-02-22T13:27:26Z</time>
      </trkpt>
      <trkpt lat="43.58659" lon="6.39862">
        <ele>637.8</ele>
        <time>2026-02-22T13:27:27Z</time>
      </trkpt>
      <trkpt lat="43.5866" lon="6.3986">
        <ele>637.7</ele>
        <time>2026-02-22T13:27:28Z</time>
      </trkpt>
      <trkpt lat="43.5866" lon="6.39858">
        <ele>637.9</ele>
        <time>2026-02-22T13:27:29Z</time>
      </trkpt>
      <trkpt lat="43.5866" lon="6.39857">
        <ele>637.9</ele>
        <time>2026-02-22T13:27:30Z</time>
      </trkpt>
      <trkpt lat="43.58661" lon="6.39855">
        <ele>637.9</ele>
        <time>2026-02-22T13:27:31Z</time>
      </trkpt>
      <trkpt lat="43.58661" lon="6.39854">
        <ele>637.9</ele>
        <time>2026-02-22T13:27:32Z</time>
      </trkpt>
      <trkpt lat="43.58661" lon="6.39853">
        <ele>637.9</ele>
        <time>2026-02-22T13:27:33Z</time>
      </trkpt>
      <trkpt lat="43.58661" lon="6.39851">
        <ele>637.9</ele>
        <time>2026-02-22T13:27:34Z</time>
      </trkpt>
      <trkpt lat="43.58662" lon="6.3985">
        <ele>638</ele>
        <time>2026-02-22T13:27:35Z</time>
      </trkpt>
      <trkpt lat="43.58662" lon="6.39849">
        <ele>638</ele>
        <time>2026-02-22T13:27:36Z</time>
      </trkpt>
      <trkpt lat="43.58662" lon="6.39848">
        <ele>638</ele>
        <time>2026-02-22T13:27:37Z</time>
      </trkpt>
      <trkpt lat="43.58663" lon="6.39847">
        <ele>638</ele>
        <time>2026-02-22T13:27:38Z</time>
      </trkpt>
      <trkpt lat="43.58663" lon="6.39845">
        <ele>638</ele>
        <time>2026-02-22T13:27:39Z</time>
      </trkpt>
      <trkpt lat="43.58663" lon="6.39844">
        <ele>638</ele>
        <time>2026-02-22T13:27:40Z</time>
      </trkpt>
      <trkpt lat="43.58663" lon="6.39842">
        <ele>638</ele>
        <time>2026-02-22T13:27:41Z</time>
      </trkpt>
      <trkpt lat="43.58664" lon="6.39841">
        <ele>638</ele>
        <time>2026-02-22T13:27:42Z</time>
      </trkpt>
      <trkpt lat="43.58664" lon="6.3984">
        <ele>638.1</ele>
        <time>2026-02-22T13:27:43Z</time>
      </trkpt>
      <trkpt lat="43.58664" lon="6.39838">
        <ele>638</ele>
        <time>2026-02-22T13:27:44Z</time>
      </trkpt>
      <trkpt lat="43.58664" lon="6.39837">
        <ele>638</ele>
        <time>2026-02-22T13:27:45Z</time>
      </trkpt>
      <trkpt lat="43.58665" lon="6.39836">
        <ele>638.1</ele>
        <time>2026-02-22T13:27:46Z</time>
      </trkpt>
      <trkpt lat="43.58664" lon="6.39834">
        <ele>638.1</ele>
        <time>2026-02-22T13:27:47Z</time>
      </trkpt>
      <trkpt lat="43.58664" lon="6.39833">
        <ele>638.1</ele>
        <time>2026-02-22T13:27:48Z</time>
      </trkpt>
      <trkpt lat="43.58665" lon="6.39832">
        <ele>638.1</ele>
        <time>2026-02-22T13:27:49Z</time>
      </trkpt>
      <trkpt lat="43.58665" lon="6.39831">
        <ele>638.1</ele>
        <time>2026-02-22T13:27:50Z</time>
      </trkpt>
      <trkpt lat="43.58665" lon="6.39829">
        <ele>638</ele>
        <time>2026-02-22T13:27:51Z</time>
      </trkpt>
      <trkpt lat="43.58666" lon="6.39827">
        <ele>638</ele>
        <time>2026-02-22T13:27:52Z</time>
      </trkpt>
      <trkpt lat="43.58666" lon="6.39826">
        <ele>638</ele>
        <time>2026-02-22T13:27:53Z</time>
      </trkpt>
      <trkpt lat="43.58666" lon="6.39825">
        <ele>638</ele>
        <time>2026-02-22T13:27:54Z</time>
      </trkpt>
      <trkpt lat="43.58666" lon="6.39823">
        <ele>638</ele>
        <time>2026-02-22T13:27:55Z</time>
      </trkpt>
      <trkpt lat="43.58667" lon="6.39822">
        <ele>637.9</ele>
        <time>2026-02-22T13:27:56Z</time>
      </trkpt>
      <trkpt lat="43.58667" lon="6.3982">
        <ele>637.9</ele>
        <time>2026-02-22T13:27:57Z</time>
      </trkpt>
      <trkpt lat="43.58667" lon="6.39819">
        <ele>637.8</ele>
        <time>2026-02-22T13:27:58Z</time>
      </trkpt>
      <trkpt lat="43.58668" lon="6.39818">
        <ele>637.7</ele>
        <time>2026-02-22T13:27:59Z</time>
      </trkpt>
      <trkpt lat="43.58668" lon="6.39817">
        <ele>637.6</ele>
        <time>2026-02-22T13:28:00Z</time>
      </trkpt>
      <trkpt lat="43.58668" lon="6.39816">
        <ele>637.5</ele>
        <time>2026-02-22T13:28:01Z</time>
      </trkpt>
      <trkpt lat="43.58668" lon="6.39814">
        <ele>637.4</ele>
        <time>2026-02-22T13:28:02Z</time>
      </trkpt>
      <trkpt lat="43.58668" lon="6.39813">
        <ele>637.3</ele>
        <time>2026-02-22T13:28:03Z</time>
      </trkpt>
      <trkpt lat="43.58668" lon="6.39811">
        <ele>637.2</ele>
        <time>2026-02-22T13:28:04Z</time>
      </trkpt>
      <trkpt lat="43.58668" lon="6.3981">
        <ele>637</ele>
        <time>2026-02-22T13:28:05Z</time>
      </trkpt>
      <trkpt lat="43.58668" lon="6.39808">
        <ele>636.9</ele>
        <time>2026-02-22T13:28:06Z</time>
      </trkpt>
      <trkpt lat="43.58668" lon="6.39807">
        <ele>636.7</ele>
        <time>2026-02-22T13:28:07Z</time>
      </trkpt>
      <trkpt lat="43.58668" lon="6.39806">
        <ele>636.6</ele>
        <time>2026-02-22T13:28:08Z</time>
      </trkpt>
      <trkpt lat="43.58668" lon="6.39805">
        <ele>636.5</ele>
        <time>2026-02-22T13:28:09Z</time>
      </trkpt>
      <trkpt lat="43.58668" lon="6.39803">
        <ele>636.4</ele>
        <time>2026-02-22T13:28:10Z</time>
      </trkpt>
      <trkpt lat="43.58668" lon="6.39802">
        <ele>636.4</ele>
        <time>2026-02-22T13:28:11Z</time>
      </trkpt>
      <trkpt lat="43.58668" lon="6.398">
        <ele>636.3</ele>
        <time>2026-02-22T13:28:12Z</time>
      </trkpt>
      <trkpt lat="43.58668" lon="6.39799">
        <ele>636.2</ele>
        <time>2026-02-22T13:28:13Z</time>
      </trkpt>
      <trkpt lat="43.58668" lon="6.39798">
        <ele>636.2</ele>
        <time>2026-02-22T13:28:14Z</time>
      </trkpt>
      <trkpt lat="43.58668" lon="6.39797">
        <ele>636.2</ele>
        <time>2026-02-22T13:28:15Z</time>
      </trkpt>
      <trkpt lat="43.58669" lon="6.39795">
        <ele>636</ele>
        <time>2026-02-22T13:28:16Z</time>
      </trkpt>
      <trkpt lat="43.58669" lon="6.39793">
        <ele>635.9</ele>
        <time>2026-02-22T13:28:17Z</time>
      </trkpt>
      <trkpt lat="43.58669" lon="6.39792">
        <ele>635.8</ele>
        <time>2026-02-22T13:28:18Z</time>
      </trkpt>
      <trkpt lat="43.58669" lon="6.3979">
        <ele>635.8</ele>
        <time>2026-02-22T13:28:19Z</time>
      </trkpt>
      <trkpt lat="43.58669" lon="6.39789">
        <ele>635.8</ele>
        <time>2026-02-22T13:28:20Z</time>
      </trkpt>
      <trkpt lat="43.5867" lon="6.39788">
        <ele>635.7</ele>
        <time>2026-02-22T13:28:21Z</time>
      </trkpt>
      <trkpt lat="43.5867" lon="6.39787">
        <ele>635.5</ele>
        <time>2026-02-22T13:28:22Z</time>
      </trkpt>
      <trkpt lat="43.58671" lon="6.39785">
        <ele>635.3</ele>
        <time>2026-02-22T13:28:23Z</time>
      </trkpt>
      <trkpt lat="43.58671" lon="6.39784">
        <ele>635.2</ele>
        <time>2026-02-22T13:28:24Z</time>
      </trkpt>
      <trkpt lat="43.58671" lon="6.39783">
        <ele>635.1</ele>
        <time>2026-02-22T13:28:25Z</time>
      </trkpt>
      <trkpt lat="43.58671" lon="6.39782">
        <ele>635</ele>
        <time>2026-02-22T13:28:26Z</time>
      </trkpt>
      <trkpt lat="43.58672" lon="6.39781">
        <ele>634.8</ele>
        <time>2026-02-22T13:28:27Z</time>
      </trkpt>
      <trkpt lat="43.58672" lon="6.3978">
        <ele>634.8</ele>
        <time>2026-02-22T13:28:28Z</time>
      </trkpt>
      <trkpt lat="43.58673" lon="6.39778">
        <ele>634.8</ele>
        <time>2026-02-22T13:28:29Z</time>
      </trkpt>
      <trkpt lat="43.58673" lon="6.39776">
        <ele>634.8</ele>
        <time>2026-02-22T13:28:30Z</time>
      </trkpt>
      <trkpt lat="43.58673" lon="6.39775">
        <ele>634.6</ele>
        <time>2026-02-22T13:28:31Z</time>
      </trkpt>
      <trkpt lat="43.58673" lon="6.39773">
        <ele>634.6</ele>
        <time>2026-02-22T13:28:32Z</time>
      </trkpt>
      <trkpt lat="43.58673" lon="6.39772">
        <ele>634.6</ele>
        <time>2026-02-22T13:28:33Z</time>
      </trkpt>
      <trkpt lat="43.58673" lon="6.3977">
        <ele>634.6</ele>
        <time>2026-02-22T13:28:34Z</time>
      </trkpt>
      <trkpt lat="43.58673" lon="6.39769">
        <ele>634.6</ele>
        <time>2026-02-22T13:28:35Z</time>
      </trkpt>
      <trkpt lat="43.58673" lon="6.39768">
        <ele>634.6</ele>
        <time>2026-02-22T13:28:36Z</time>
      </trkpt>
      <trkpt lat="43.58674" lon="6.39767">
        <ele>634.6</ele>
        <time>2026-02-22T13:28:37Z</time>
      </trkpt>
      <trkpt lat="43.58674" lon="6.39765">
        <ele>634.7</ele>
        <time>2026-02-22T13:28:38Z</time>
      </trkpt>
      <trkpt lat="43.58673" lon="6.39764">
        <ele>634.7</ele>
        <time>2026-02-22T13:28:39Z</time>
      </trkpt>
      <trkpt lat="43.58673" lon="6.39762">
        <ele>634.7</ele>
        <time>2026-02-22T13:28:40Z</time>
      </trkpt>
      <trkpt lat="43.58673" lon="6.39761">
        <ele>634.7</ele>
        <time>2026-02-22T13:28:41Z</time>
      </trkpt>
      <trkpt lat="43.58673" lon="6.3976">
        <ele>634.8</ele>
        <time>2026-02-22T13:28:42Z</time>
      </trkpt>
      <trkpt lat="43.58673" lon="6.39759">
        <ele>634.9</ele>
        <time>2026-02-22T13:28:43Z</time>
      </trkpt>
      <trkpt lat="43.58673" lon="6.39758">
        <ele>635</ele>
        <time>2026-02-22T13:28:44Z</time>
      </trkpt>
      <trkpt lat="43.58673" lon="6.39757">
        <ele>635</ele>
        <time>2026-02-22T13:28:45Z</time>
      </trkpt>
      <trkpt lat="43.58674" lon="6.39755">
        <ele>635.1</ele>
        <time>2026-02-22T13:28:46Z</time>
      </trkpt>
      <trkpt lat="43.58674" lon="6.39754">
        <ele>635.1</ele>
        <time>2026-02-22T13:28:47Z</time>
      </trkpt>
      <trkpt lat="43.58674" lon="6.39752">
        <ele>635.1</ele>
        <time>2026-02-22T13:28:48Z</time>
      </trkpt>
      <trkpt lat="43.58673" lon="6.3975">
        <ele>635.1</ele>
        <time>2026-02-22T13:28:49Z</time>
      </trkpt>
      <trkpt lat="43.58673" lon="6.39749">
        <ele>635.1</ele>
        <time>2026-02-22T13:28:50Z</time>
      </trkpt>
      <trkpt lat="43.58673" lon="6.39747">
        <ele>635.1</ele>
        <time>2026-02-22T13:28:51Z</time>
      </trkpt>
      <trkpt lat="43.58673" lon="6.39746">
        <ele>635.1</ele>
        <time>2026-02-22T13:28:52Z</time>
      </trkpt>
      <trkpt lat="43.58673" lon="6.39744">
        <ele>635.1</ele>
        <time>2026-02-22T13:28:53Z</time>
      </trkpt>
      <trkpt lat="43.58673" lon="6.39743">
        <ele>635.3</ele>
        <time>2026-02-22T13:28:54Z</time>
      </trkpt>
      <trkpt lat="43.58673" lon="6.39741">
        <ele>635.4</ele>
        <time>2026-02-22T13:28:55Z</time>
      </trkpt>
      <trkpt lat="43.58674" lon="6.3974">
        <ele>635.5</ele>
        <time>2026-02-22T13:28:56Z</time>
      </trkpt>
      <trkpt lat="43.58674" lon="6.39739">
        <ele>635.4</ele>
        <time>2026-02-22T13:28:57Z</time>
      </trkpt>
      <trkpt lat="43.58674" lon="6.39738">
        <ele>635.4</ele>
        <time>2026-02-22T13:28:58Z</time>
      </trkpt>
      <trkpt lat="43.58674" lon="6.39736">
        <ele>635.3</ele>
        <time>2026-02-22T13:28:59Z</time>
      </trkpt>
      <trkpt lat="43.58674" lon="6.39735">
        <ele>635.3</ele>
        <time>2026-02-22T13:29:00Z</time>
      </trkpt>
      <trkpt lat="43.58674" lon="6.39733">
        <ele>635.2</ele>
        <time>2026-02-22T13:29:01Z</time>
      </trkpt>
      <trkpt lat="43.58674" lon="6.39732">
        <ele>635.1</ele>
        <time>2026-02-22T13:29:02Z</time>
      </trkpt>
      <trkpt lat="43.58675" lon="6.39731">
        <ele>635.1</ele>
        <time>2026-02-22T13:29:03Z</time>
      </trkpt>
      <trkpt lat="43.58675" lon="6.39729">
        <ele>635</ele>
        <time>2026-02-22T13:29:04Z</time>
      </trkpt>
      <trkpt lat="43.58675" lon="6.39728">
        <ele>634.9</ele>
        <time>2026-02-22T13:29:05Z</time>
      </trkpt>
      <trkpt lat="43.58675" lon="6.39726">
        <ele>634.8</ele>
        <time>2026-02-22T13:29:06Z</time>
      </trkpt>
      <trkpt lat="43.58675" lon="6.39724">
        <ele>634.8</ele>
        <time>2026-02-22T13:29:07Z</time>
      </trkpt>
      <trkpt lat="43.58675" lon="6.39723">
        <ele>634.7</ele>
        <time>2026-02-22T13:29:08Z</time>
      </trkpt>
      <trkpt lat="43.58674" lon="6.39721">
        <ele>634.7</ele>
        <time>2026-02-22T13:29:09Z</time>
      </trkpt>
      <trkpt lat="43.58675" lon="6.3972">
        <ele>634.6</ele>
        <time>2026-02-22T13:29:10Z</time>
      </trkpt>
      <trkpt lat="43.58675" lon="6.39718">
        <ele>634.5</ele>
        <time>2026-02-22T13:29:11Z</time>
      </trkpt>
      <trkpt lat="43.58676" lon="6.39716">
        <ele>634.4</ele>
        <time>2026-02-22T13:29:12Z</time>
      </trkpt>
      <trkpt lat="43.58676" lon="6.39715">
        <ele>634.5</ele>
        <time>2026-02-22T13:29:13Z</time>
      </trkpt>
      <trkpt lat="43.58676" lon="6.39713">
        <ele>634.5</ele>
        <time>2026-02-22T13:29:14Z</time>
      </trkpt>
      <trkpt lat="43.58676" lon="6.39712">
        <ele>634.4</ele>
        <time>2026-02-22T13:29:15Z</time>
      </trkpt>
      <trkpt lat="43.58676" lon="6.3971">
        <ele>634.4</ele>
        <time>2026-02-22T13:29:16Z</time>
      </trkpt>
      <trkpt lat="43.58677" lon="6.39709">
        <ele>634.3</ele>
        <time>2026-02-22T13:29:17Z</time>
      </trkpt>
      <trkpt lat="43.58677" lon="6.39707">
        <ele>634.4</ele>
        <time>2026-02-22T13:29:18Z</time>
      </trkpt>
      <trkpt lat="43.58678" lon="6.39706">
        <ele>634.4</ele>
        <time>2026-02-22T13:29:19Z</time>
      </trkpt>
      <trkpt lat="43.58678" lon="6.39705">
        <ele>634.4</ele>
        <time>2026-02-22T13:29:20Z</time>
      </trkpt>
      <trkpt lat="43.58677" lon="6.39703">
        <ele>634.4</ele>
        <time>2026-02-22T13:29:21Z</time>
      </trkpt>
      <trkpt lat="43.58677" lon="6.39701">
        <ele>634.4</ele>
        <time>2026-02-22T13:29:22Z</time>
      </trkpt>
      <trkpt lat="43.58676" lon="6.397">
        <ele>634.4</ele>
        <time>2026-02-22T13:29:23Z</time>
      </trkpt>
      <trkpt lat="43.58677" lon="6.39698">
        <ele>634.4</ele>
        <time>2026-02-22T13:29:24Z</time>
      </trkpt>
      <trkpt lat="43.58677" lon="6.39697">
        <ele>634.4</ele>
        <time>2026-02-22T13:29:25Z</time>
      </trkpt>
      <trkpt lat="43.58678" lon="6.39695">
        <ele>634.4</ele>
        <time>2026-02-22T13:29:26Z</time>
      </trkpt>
      <trkpt lat="43.58677" lon="6.39694">
        <ele>634.4</ele>
        <time>2026-02-22T13:29:27Z</time>
      </trkpt>
      <trkpt lat="43.58677" lon="6.39692">
        <ele>634.4</ele>
        <time>2026-02-22T13:29:28Z</time>
      </trkpt>
      <trkpt lat="43.58677" lon="6.39691">
        <ele>634.4</ele>
        <time>2026-02-22T13:29:29Z</time>
      </trkpt>
      <trkpt lat="43.58678" lon="6.39689">
        <ele>634.3</ele>
        <time>2026-02-22T13:29:30Z</time>
      </trkpt>
      <trkpt lat="43.58677" lon="6.39688">
        <ele>634.3</ele>
        <time>2026-02-22T13:29:31Z</time>
      </trkpt>
      <trkpt lat="43.58677" lon="6.39686">
        <ele>634.2</ele>
        <time>2026-02-22T13:29:32Z</time>
      </trkpt>
      <trkpt lat="43.58677" lon="6.39686">
        <ele>634.3</ele>
        <time>2026-02-22T13:29:33Z</time>
      </trkpt>
      <trkpt lat="43.58676" lon="6.39685">
        <ele>634.4</ele>
        <time>2026-02-22T13:29:34Z</time>
      </trkpt>
      <trkpt lat="43.58675" lon="6.39685">
        <ele>634.4</ele>
        <time>2026-02-22T13:29:35Z</time>
      </trkpt>
      <trkpt lat="43.58674" lon="6.39684">
        <ele>634.4</ele>
        <time>2026-02-22T13:29:36Z</time>
      </trkpt>
      <trkpt lat="43.58674" lon="6.39684">
        <ele>634.3</ele>
        <time>2026-02-22T13:29:37Z</time>
      </trkpt>
      <trkpt lat="43.58673" lon="6.39684">
        <ele>634.2</ele>
        <time>2026-02-22T13:29:38Z</time>
      </trkpt>
      <trkpt lat="43.58673" lon="6.39684">
        <ele>634.1</ele>
        <time>2026-02-22T13:29:39Z</time>
      </trkpt>
      <trkpt lat="43.58673" lon="6.39684">
        <ele>634.2</ele>
        <time>2026-02-22T13:29:40Z</time>
      </trkpt>
      <trkpt lat="43.58673" lon="6.39683">
        <ele>634.2</ele>
        <time>2026-02-22T13:29:41Z</time>
      </trkpt>
      <trkpt lat="43.58673" lon="6.39682">
        <ele>634.2</ele>
        <time>2026-02-22T13:29:42Z</time>
      </trkpt>
      <trkpt lat="43.58673" lon="6.39681">
        <ele>634.3</ele>
        <time>2026-02-22T13:29:43Z</time>
      </trkpt>
      <trkpt lat="43.58672" lon="6.3968">
        <ele>634.2</ele>
        <time>2026-02-22T13:29:44Z</time>
      </trkpt>
      <trkpt lat="43.58672" lon="6.39678">
        <ele>634.2</ele>
        <time>2026-02-22T13:29:45Z</time>
      </trkpt>
      <trkpt lat="43.58671" lon="6.39677">
        <ele>634.1</ele>
        <time>2026-02-22T13:29:46Z</time>
      </trkpt>
      <trkpt lat="43.58672" lon="6.39676">
        <ele>634.1</ele>
        <time>2026-02-22T13:29:47Z</time>
      </trkpt>
      <trkpt lat="43.58672" lon="6.39674">
        <ele>634.1</ele>
        <time>2026-02-22T13:29:48Z</time>
      </trkpt>
      <trkpt lat="43.58671" lon="6.39673">
        <ele>634.1</ele>
        <time>2026-02-22T13:29:49Z</time>
      </trkpt>
      <trkpt lat="43.58671" lon="6.39671">
        <ele>633.9</ele>
        <time>2026-02-22T13:29:50Z</time>
      </trkpt>
      <trkpt lat="43.58671" lon="6.39669">
        <ele>633.7</ele>
        <time>2026-02-22T13:29:51Z</time>
      </trkpt>
      <trkpt lat="43.58669" lon="6.39668">
        <ele>633.7</ele>
        <time>2026-02-22T13:29:52Z</time>
      </trkpt>
      <trkpt lat="43.58669" lon="6.39667">
        <ele>633.6</ele>
        <time>2026-02-22T13:29:53Z</time>
      </trkpt>
      <trkpt lat="43.58668" lon="6.39666">
        <ele>633.6</ele>
        <time>2026-02-22T13:29:54Z</time>
      </trkpt>
      <trkpt lat="43.58668" lon="6.39664">
        <ele>633.7</ele>
        <time>2026-02-22T13:29:55Z</time>
      </trkpt>
      <trkpt lat="43.58668" lon="6.39663">
        <ele>633.7</ele>
        <time>2026-02-22T13:29:56Z</time>
      </trkpt>
      <trkpt lat="43.58667" lon="6.39661">
        <ele>633.8</ele>
        <time>2026-02-22T13:29:57Z</time>
      </trkpt>
      <trkpt lat="43.58667" lon="6.3966">
        <ele>633.8</ele>
        <time>2026-02-22T13:29:58Z</time>
      </trkpt>
      <trkpt lat="43.58666" lon="6.39658">
        <ele>633.7</ele>
        <time>2026-02-22T13:29:59Z</time>
      </trkpt>
      <trkpt lat="43.58666" lon="6.39656">
        <ele>633.7</ele>
        <time>2026-02-22T13:30:00Z</time>
      </trkpt>
      <trkpt lat="43.58665" lon="6.39654">
        <ele>633.7</ele>
        <time>2026-02-22T13:30:01Z</time>
      </trkpt>
      <trkpt lat="43.58665" lon="6.39654">
        <ele>633.8</ele>
        <time>2026-02-22T13:30:02Z</time>
      </trkpt>
      <trkpt lat="43.58664" lon="6.39652">
        <ele>633.8</ele>
        <time>2026-02-22T13:30:03Z</time>
      </trkpt>
      <trkpt lat="43.58663" lon="6.39651">
        <ele>633.8</ele>
        <time>2026-02-22T13:30:04Z</time>
      </trkpt>
      <trkpt lat="43.58663" lon="6.3965">
        <ele>633.8</ele>
        <time>2026-02-22T13:30:05Z</time>
      </trkpt>
      <trkpt lat="43.58662" lon="6.39649">
        <ele>633.8</ele>
        <time>2026-02-22T13:30:06Z</time>
      </trkpt>
      <trkpt lat="43.58661" lon="6.39648">
        <ele>633.8</ele>
        <time>2026-02-22T13:30:07Z</time>
      </trkpt>
      <trkpt lat="43.58661" lon="6.39647">
        <ele>633.8</ele>
        <time>2026-02-22T13:30:08Z</time>
      </trkpt>
      <trkpt lat="43.5866" lon="6.39646">
        <ele>633.8</ele>
        <time>2026-02-22T13:30:09Z</time>
      </trkpt>
      <trkpt lat="43.58659" lon="6.39645">
        <ele>634</ele>
        <time>2026-02-22T13:30:10Z</time>
      </trkpt>
      <trkpt lat="43.58658" lon="6.39644">
        <ele>634</ele>
        <time>2026-02-22T13:30:11Z</time>
      </trkpt>
      <trkpt lat="43.58658" lon="6.39643">
        <ele>633.9</ele>
        <time>2026-02-22T13:30:12Z</time>
      </trkpt>
      <trkpt lat="43.58657" lon="6.39642">
        <ele>633.9</ele>
        <time>2026-02-22T13:30:13Z</time>
      </trkpt>
      <trkpt lat="43.58656" lon="6.39641">
        <ele>633.9</ele>
        <time>2026-02-22T13:30:14Z</time>
      </trkpt>
      <trkpt lat="43.58656" lon="6.39641">
        <ele>633.8</ele>
        <time>2026-02-22T13:30:15Z</time>
      </trkpt>
      <trkpt lat="43.58656" lon="6.39639">
        <ele>633.8</ele>
        <time>2026-02-22T13:30:16Z</time>
      </trkpt>
      <trkpt lat="43.58657" lon="6.39638">
        <ele>633.8</ele>
        <time>2026-02-22T13:30:17Z</time>
      </trkpt>
      <trkpt lat="43.58657" lon="6.39637">
        <ele>633.8</ele>
        <time>2026-02-22T13:30:18Z</time>
      </trkpt>
      <trkpt lat="43.58657" lon="6.39636">
        <ele>633.7</ele>
        <time>2026-02-22T13:30:19Z</time>
      </trkpt>
      <trkpt lat="43.58656" lon="6.39635">
        <ele>633.7</ele>
        <time>2026-02-22T13:30:20Z</time>
      </trkpt>
      <trkpt lat="43.58656" lon="6.39633">
        <ele>633.7</ele>
        <time>2026-02-22T13:30:21Z</time>
      </trkpt>
      <trkpt lat="43.58656" lon="6.39632">
        <ele>633.8</ele>
        <time>2026-02-22T13:30:22Z</time>
      </trkpt>
      <trkpt lat="43.58656" lon="6.3963">
        <ele>633.8</ele>
        <time>2026-02-22T13:30:23Z</time>
      </trkpt>
      <trkpt lat="43.58656" lon="6.39629">
        <ele>633.8</ele>
        <time>2026-02-22T13:30:24Z</time>
      </trkpt>
      <trkpt lat="43.58656" lon="6.39627">
        <ele>633.9</ele>
        <time>2026-02-22T13:30:25Z</time>
      </trkpt>
      <trkpt lat="43.58656" lon="6.39626">
        <ele>634</ele>
        <time>2026-02-22T13:30:26Z</time>
      </trkpt>
      <trkpt lat="43.58655" lon="6.39625">
        <ele>634</ele>
        <time>2026-02-22T13:30:27Z</time>
      </trkpt>
      <trkpt lat="43.58655" lon="6.39623">
        <ele>634.1</ele>
        <time>2026-02-22T13:30:28Z</time>
      </trkpt>
      <trkpt lat="43.58655" lon="6.39622">
        <ele>634.2</ele>
        <time>2026-02-22T13:30:29Z</time>
      </trkpt>
      <trkpt lat="43.58656" lon="6.3962">
        <ele>634.2</ele>
        <time>2026-02-22T13:30:30Z</time>
      </trkpt>
      <trkpt lat="43.58655" lon="6.39619">
        <ele>634.3</ele>
        <time>2026-02-22T13:30:31Z</time>
      </trkpt>
      <trkpt lat="43.58655" lon="6.39618">
        <ele>634.3</ele>
        <time>2026-02-22T13:30:32Z</time>
      </trkpt>
      <trkpt lat="43.58655" lon="6.39616">
        <ele>634.3</ele>
        <time>2026-02-22T13:30:33Z</time>
      </trkpt>
      <trkpt lat="43.58655" lon="6.39615">
        <ele>634.4</ele>
        <time>2026-02-22T13:30:34Z</time>
      </trkpt>
      <trkpt lat="43.58655" lon="6.39613">
        <ele>634.5</ele>
        <time>2026-02-22T13:30:35Z</time>
      </trkpt>
      <trkpt lat="43.58655" lon="6.39612">
        <ele>634.5</ele>
        <time>2026-02-22T13:30:36Z</time>
      </trkpt>
      <trkpt lat="43.58655" lon="6.39611">
        <ele>634.6</ele>
        <time>2026-02-22T13:30:37Z</time>
      </trkpt>
      <trkpt lat="43.58655" lon="6.39609">
        <ele>634.7</ele>
        <time>2026-02-22T13:30:38Z</time>
      </trkpt>
      <trkpt lat="43.58654" lon="6.39607">
        <ele>634.8</ele>
        <time>2026-02-22T13:30:39Z</time>
      </trkpt>
      <trkpt lat="43.58654" lon="6.39605">
        <ele>634.9</ele>
        <time>2026-02-22T13:30:40Z</time>
      </trkpt>
      <trkpt lat="43.58654" lon="6.39604">
        <ele>635</ele>
        <time>2026-02-22T13:30:41Z</time>
      </trkpt>
      <trkpt lat="43.58653" lon="6.39602">
        <ele>635</ele>
        <time>2026-02-22T13:30:42Z</time>
      </trkpt>
      <trkpt lat="43.58653" lon="6.39602">
        <ele>635</ele>
        <time>2026-02-22T13:30:43Z</time>
      </trkpt>
      <trkpt lat="43.58653" lon="6.396">
        <ele>635.1</ele>
        <time>2026-02-22T13:30:44Z</time>
      </trkpt>
      <trkpt lat="43.58652" lon="6.39599">
        <ele>635.2</ele>
        <time>2026-02-22T13:30:45Z</time>
      </trkpt>
      <trkpt lat="43.58652" lon="6.39598">
        <ele>635.3</ele>
        <time>2026-02-22T13:30:46Z</time>
      </trkpt>
      <trkpt lat="43.58652" lon="6.39596">
        <ele>635.3</ele>
        <time>2026-02-22T13:30:47Z</time>
      </trkpt>
      <trkpt lat="43.58652" lon="6.39595">
        <ele>635.3</ele>
        <time>2026-02-22T13:30:48Z</time>
      </trkpt>
      <trkpt lat="43.58652" lon="6.39594">
        <ele>635.3</ele>
        <time>2026-02-22T13:30:49Z</time>
      </trkpt>
      <trkpt lat="43.58652" lon="6.39592">
        <ele>635.3</ele>
        <time>2026-02-22T13:30:50Z</time>
      </trkpt>
      <trkpt lat="43.58653" lon="6.39591">
        <ele>635.3</ele>
        <time>2026-02-22T13:30:51Z</time>
      </trkpt>
      <trkpt lat="43.58653" lon="6.3959">
        <ele>635.5</ele>
        <time>2026-02-22T13:30:52Z</time>
      </trkpt>
      <trkpt lat="43.58652" lon="6.39588">
        <ele>635.6</ele>
        <time>2026-02-22T13:30:53Z</time>
      </trkpt>
      <trkpt lat="43.58652" lon="6.39587">
        <ele>635.6</ele>
        <time>2026-02-22T13:30:54Z</time>
      </trkpt>
      <trkpt lat="43.58652" lon="6.39585">
        <ele>635.7</ele>
        <time>2026-02-22T13:30:55Z</time>
      </trkpt>
      <trkpt lat="43.58651" lon="6.39584">
        <ele>635.8</ele>
        <time>2026-02-22T13:30:56Z</time>
      </trkpt>
      <trkpt lat="43.58651" lon="6.39583">
        <ele>635.8</ele>
        <time>2026-02-22T13:30:57Z</time>
      </trkpt>
      <trkpt lat="43.58651" lon="6.39581">
        <ele>635.9</ele>
        <time>2026-02-22T13:30:58Z</time>
      </trkpt>
      <trkpt lat="43.58651" lon="6.3958">
        <ele>636</ele>
        <time>2026-02-22T13:30:59Z</time>
      </trkpt>
      <trkpt lat="43.58651" lon="6.39578">
        <ele>636</ele>
        <time>2026-02-22T13:31:00Z</time>
      </trkpt>
      <trkpt lat="43.58651" lon="6.39576">
        <ele>636.1</ele>
        <time>2026-02-22T13:31:01Z</time>
      </trkpt>
      <trkpt lat="43.58651" lon="6.39575">
        <ele>636.2</ele>
        <time>2026-02-22T13:31:02Z</time>
      </trkpt>
      <trkpt lat="43.58651" lon="6.39573">
        <ele>636.3</ele>
        <time>2026-02-22T13:31:03Z</time>
      </trkpt>
      <trkpt lat="43.58652" lon="6.39571">
        <ele>636.2</ele>
        <time>2026-02-22T13:31:04Z</time>
      </trkpt>
      <trkpt lat="43.58652" lon="6.3957">
        <ele>636.2</ele>
        <time>2026-02-22T13:31:05Z</time>
      </trkpt>
      <trkpt lat="43.58652" lon="6.39569">
        <ele>636.2</ele>
        <time>2026-02-22T13:31:06Z</time>
      </trkpt>
      <trkpt lat="43.58652" lon="6.39567">
        <ele>636.3</ele>
        <time>2026-02-22T13:31:07Z</time>
      </trkpt>
      <trkpt lat="43.58652" lon="6.39565">
        <ele>636.3</ele>
        <time>2026-02-22T13:31:08Z</time>
      </trkpt>
      <trkpt lat="43.58652" lon="6.39564">
        <ele>636.1</ele>
        <time>2026-02-22T13:31:09Z</time>
      </trkpt>
      <trkpt lat="43.58652" lon="6.39562">
        <ele>636.1</ele>
        <time>2026-02-22T13:31:10Z</time>
      </trkpt>
      <trkpt lat="43.58652" lon="6.3956">
        <ele>636.2</ele>
        <time>2026-02-22T13:31:11Z</time>
      </trkpt>
      <trkpt lat="43.58652" lon="6.39559">
        <ele>636.2</ele>
        <time>2026-02-22T13:31:12Z</time>
      </trkpt>
      <trkpt lat="43.58652" lon="6.39557">
        <ele>636.1</ele>
        <time>2026-02-22T13:31:13Z</time>
      </trkpt>
      <trkpt lat="43.58652" lon="6.39556">
        <ele>636.2</ele>
        <time>2026-02-22T13:31:14Z</time>
      </trkpt>
      <trkpt lat="43.58652" lon="6.39555">
        <ele>636.1</ele>
        <time>2026-02-22T13:31:15Z</time>
      </trkpt>
      <trkpt lat="43.58653" lon="6.39553">
        <ele>636.2</ele>
        <time>2026-02-22T13:31:16Z</time>
      </trkpt>
      <trkpt lat="43.58653" lon="6.39552">
        <ele>636.3</ele>
        <time>2026-02-22T13:31:17Z</time>
      </trkpt>
      <trkpt lat="43.58652" lon="6.39551">
        <ele>636.4</ele>
        <time>2026-02-22T13:31:18Z</time>
      </trkpt>
      <trkpt lat="43.58651" lon="6.39549">
        <ele>636.5</ele>
        <time>2026-02-22T13:31:19Z</time>
      </trkpt>
      <trkpt lat="43.5865" lon="6.39548">
        <ele>636.6</ele>
        <time>2026-02-22T13:31:20Z</time>
      </trkpt>
      <trkpt lat="43.5865" lon="6.39546">
        <ele>636.8</ele>
        <time>2026-02-22T13:31:21Z</time>
      </trkpt>
      <trkpt lat="43.58649" lon="6.39545">
        <ele>636.9</ele>
        <time>2026-02-22T13:31:22Z</time>
      </trkpt>
      <trkpt lat="43.58649" lon="6.39543">
        <ele>636.9</ele>
        <time>2026-02-22T13:31:23Z</time>
      </trkpt>
      <trkpt lat="43.58648" lon="6.39542">
        <ele>636.9</ele>
        <time>2026-02-22T13:31:24Z</time>
      </trkpt>
      <trkpt lat="43.58648" lon="6.3954">
        <ele>637</ele>
        <time>2026-02-22T13:31:25Z</time>
      </trkpt>
      <trkpt lat="43.58647" lon="6.39539">
        <ele>637</ele>
        <time>2026-02-22T13:31:26Z</time>
      </trkpt>
      <trkpt lat="43.58647" lon="6.39537">
        <ele>637.1</ele>
        <time>2026-02-22T13:31:27Z</time>
      </trkpt>
      <trkpt lat="43.58647" lon="6.39536">
        <ele>637.1</ele>
        <time>2026-02-22T13:31:28Z</time>
      </trkpt>
      <trkpt lat="43.58647" lon="6.39535">
        <ele>637.1</ele>
        <time>2026-02-22T13:31:29Z</time>
      </trkpt>
      <trkpt lat="43.58647" lon="6.39534">
        <ele>637.1</ele>
        <time>2026-02-22T13:31:30Z</time>
      </trkpt>
      <trkpt lat="43.58647" lon="6.39533">
        <ele>637.1</ele>
        <time>2026-02-22T13:31:31Z</time>
      </trkpt>
      <trkpt lat="43.58647" lon="6.39532">
        <ele>637</ele>
        <time>2026-02-22T13:31:32Z</time>
      </trkpt>
      <trkpt lat="43.58646" lon="6.3953">
        <ele>637.1</ele>
        <time>2026-02-22T13:31:33Z</time>
      </trkpt>
      <trkpt lat="43.58646" lon="6.39529">
        <ele>637.1</ele>
        <time>2026-02-22T13:31:34Z</time>
      </trkpt>
      <trkpt lat="43.58646" lon="6.39528">
        <ele>637.1</ele>
        <time>2026-02-22T13:31:35Z</time>
      </trkpt>
      <trkpt lat="43.58645" lon="6.39527">
        <ele>637.1</ele>
        <time>2026-02-22T13:31:36Z</time>
      </trkpt>
      <trkpt lat="43.58644" lon="6.39525">
        <ele>637.2</ele>
        <time>2026-02-22T13:31:37Z</time>
      </trkpt>
      <trkpt lat="43.58643" lon="6.39524">
        <ele>637.2</ele>
        <time>2026-02-22T13:31:38Z</time>
      </trkpt>
      <trkpt lat="43.58642" lon="6.39523">
        <ele>637.1</ele>
        <time>2026-02-22T13:31:39Z</time>
      </trkpt>
      <trkpt lat="43.58643" lon="6.39522">
        <ele>637.1</ele>
        <time>2026-02-22T13:31:40Z</time>
      </trkpt>
      <trkpt lat="43.58643" lon="6.39521">
        <ele>637.1</ele>
        <time>2026-02-22T13:31:41Z</time>
      </trkpt>
      <trkpt lat="43.58642" lon="6.39519">
        <ele>637.1</ele>
        <time>2026-02-22T13:31:42Z</time>
      </trkpt>
      <trkpt lat="43.58642" lon="6.39517">
        <ele>637.1</ele>
        <time>2026-02-22T13:31:43Z</time>
      </trkpt>
      <trkpt lat="43.58642" lon="6.39516">
        <ele>637.1</ele>
        <time>2026-02-22T13:31:44Z</time>
      </trkpt>
      <trkpt lat="43.58641" lon="6.39514">
        <ele>637</ele>
        <time>2026-02-22T13:31:45Z</time>
      </trkpt>
      <trkpt lat="43.58641" lon="6.39514">
        <ele>637</ele>
        <time>2026-02-22T13:31:46Z</time>
      </trkpt>
      <trkpt lat="43.58641" lon="6.39513">
        <ele>637</ele>
        <time>2026-02-22T13:31:47Z</time>
      </trkpt>
      <trkpt lat="43.58641" lon="6.39511">
        <ele>637</ele>
        <time>2026-02-22T13:31:48Z</time>
      </trkpt>
      <trkpt lat="43.5864" lon="6.39509">
        <ele>637</ele>
        <time>2026-02-22T13:31:49Z</time>
      </trkpt>
      <trkpt lat="43.5864" lon="6.39508">
        <ele>637</ele>
        <time>2026-02-22T13:31:50Z</time>
      </trkpt>
      <trkpt lat="43.5864" lon="6.39506">
        <ele>637</ele>
        <time>2026-02-22T13:31:51Z</time>
      </trkpt>
      <trkpt lat="43.58639" lon="6.39505">
        <ele>637</ele>
        <time>2026-02-22T13:31:52Z</time>
      </trkpt>
      <trkpt lat="43.58638" lon="6.39503">
        <ele>637</ele>
        <time>2026-02-22T13:31:53Z</time>
      </trkpt>
      <trkpt lat="43.58638" lon="6.39502">
        <ele>636.9</ele>
        <time>2026-02-22T13:31:54Z</time>
      </trkpt>
      <trkpt lat="43.58637" lon="6.395">
        <ele>636.8</ele>
        <time>2026-02-22T13:31:55Z</time>
      </trkpt>
      <trkpt lat="43.58637" lon="6.39499">
        <ele>636.7</ele>
        <time>2026-02-22T13:31:56Z</time>
      </trkpt>
      <trkpt lat="43.58637" lon="6.39497">
        <ele>636.7</ele>
        <time>2026-02-22T13:31:57Z</time>
      </trkpt>
      <trkpt lat="43.58636" lon="6.39496">
        <ele>636.6</ele>
        <time>2026-02-22T13:31:58Z</time>
      </trkpt>
      <trkpt lat="43.58636" lon="6.39495">
        <ele>636.6</ele>
        <time>2026-02-22T13:31:59Z</time>
      </trkpt>
      <trkpt lat="43.58636" lon="6.39493">
        <ele>636.6</ele>
        <time>2026-02-22T13:32:00Z</time>
      </trkpt>
      <trkpt lat="43.58635" lon="6.39492">
        <ele>636.6</ele>
        <time>2026-02-22T13:32:01Z</time>
      </trkpt>
      <trkpt lat="43.58635" lon="6.3949">
        <ele>636.5</ele>
        <time>2026-02-22T13:32:02Z</time>
      </trkpt>
      <trkpt lat="43.58634" lon="6.39489">
        <ele>636.5</ele>
        <time>2026-02-22T13:32:03Z</time>
      </trkpt>
      <trkpt lat="43.58634" lon="6.39488">
        <ele>636.4</ele>
        <time>2026-02-22T13:32:04Z</time>
      </trkpt>
      <trkpt lat="43.58633" lon="6.39486">
        <ele>636.5</ele>
        <time>2026-02-22T13:32:05Z</time>
      </trkpt>
      <trkpt lat="43.58633" lon="6.39485">
        <ele>636.6</ele>
        <time>2026-02-22T13:32:06Z</time>
      </trkpt>
      <trkpt lat="43.58633" lon="6.39483">
        <ele>636.7</ele>
        <time>2026-02-22T13:32:07Z</time>
      </trkpt>
      <trkpt lat="43.58633" lon="6.39482">
        <ele>636.7</ele>
        <time>2026-02-22T13:32:08Z</time>
      </trkpt>
      <trkpt lat="43.58633" lon="6.39481">
        <ele>636.7</ele>
        <time>2026-02-22T13:32:09Z</time>
      </trkpt>
      <trkpt lat="43.58632" lon="6.39479">
        <ele>636.6</ele>
        <time>2026-02-22T13:32:10Z</time>
      </trkpt>
      <trkpt lat="43.58631" lon="6.39477">
        <ele>636.6</ele>
        <time>2026-02-22T13:32:11Z</time>
      </trkpt>
      <trkpt lat="43.58631" lon="6.39476">
        <ele>636.7</ele>
        <time>2026-02-22T13:32:12Z</time>
      </trkpt>
      <trkpt lat="43.58631" lon="6.39474">
        <ele>636.7</ele>
        <time>2026-02-22T13:32:13Z</time>
      </trkpt>
      <trkpt lat="43.58631" lon="6.39473">
        <ele>636.7</ele>
        <time>2026-02-22T13:32:14Z</time>
      </trkpt>
      <trkpt lat="43.58631" lon="6.39472">
        <ele>636.6</ele>
        <time>2026-02-22T13:32:15Z</time>
      </trkpt>
      <trkpt lat="43.5863" lon="6.3947">
        <ele>636.5</ele>
        <time>2026-02-22T13:32:16Z</time>
      </trkpt>
      <trkpt lat="43.5863" lon="6.39469">
        <ele>636.5</ele>
        <time>2026-02-22T13:32:17Z</time>
      </trkpt>
      <trkpt lat="43.5863" lon="6.39467">
        <ele>636.4</ele>
        <time>2026-02-22T13:32:18Z</time>
      </trkpt>
      <trkpt lat="43.58629" lon="6.39467">
        <ele>636.4</ele>
        <time>2026-02-22T13:32:19Z</time>
      </trkpt>
      <trkpt lat="43.58629" lon="6.39465">
        <ele>636.3</ele>
        <time>2026-02-22T13:32:20Z</time>
      </trkpt>
      <trkpt lat="43.58629" lon="6.39463">
        <ele>636.3</ele>
        <time>2026-02-22T13:32:21Z</time>
      </trkpt>
      <trkpt lat="43.58628" lon="6.39462">
        <ele>636.2</ele>
        <time>2026-02-22T13:32:22Z</time>
      </trkpt>
      <trkpt lat="43.58629" lon="6.3946">
        <ele>636.1</ele>
        <time>2026-02-22T13:32:23Z</time>
      </trkpt>
      <trkpt lat="43.58629" lon="6.39459">
        <ele>636.1</ele>
        <time>2026-02-22T13:32:24Z</time>
      </trkpt>
      <trkpt lat="43.58629" lon="6.39457">
        <ele>636.1</ele>
        <time>2026-02-22T13:32:25Z</time>
      </trkpt>
      <trkpt lat="43.58629" lon="6.39455">
        <ele>636</ele>
        <time>2026-02-22T13:32:26Z</time>
      </trkpt>
      <trkpt lat="43.58628" lon="6.39453">
        <ele>636</ele>
        <time>2026-02-22T13:32:27Z</time>
      </trkpt>
      <trkpt lat="43.58628" lon="6.39452">
        <ele>636</ele>
        <time>2026-02-22T13:32:28Z</time>
      </trkpt>
      <trkpt lat="43.58628" lon="6.39451">
        <ele>635.8</ele>
        <time>2026-02-22T13:32:29Z</time>
      </trkpt>
      <trkpt lat="43.58628" lon="6.39449">
        <ele>635.7</ele>
        <time>2026-02-22T13:32:30Z</time>
      </trkpt>
      <trkpt lat="43.58627" lon="6.39448">
        <ele>635.6</ele>
        <time>2026-02-22T13:32:31Z</time>
      </trkpt>
      <trkpt lat="43.58627" lon="6.39447">
        <ele>635.6</ele>
        <time>2026-02-22T13:32:32Z</time>
      </trkpt>
      <trkpt lat="43.58626" lon="6.39445">
        <ele>635.6</ele>
        <time>2026-02-22T13:32:33Z</time>
      </trkpt>
      <trkpt lat="43.58626" lon="6.39444">
        <ele>635.6</ele>
        <time>2026-02-22T13:32:34Z</time>
      </trkpt>
      <trkpt lat="43.58626" lon="6.39442">
        <ele>635.5</ele>
        <time>2026-02-22T13:32:35Z</time>
      </trkpt>
      <trkpt lat="43.58626" lon="6.39441">
        <ele>635.5</ele>
        <time>2026-02-22T13:32:36Z</time>
      </trkpt>
      <trkpt lat="43.58626" lon="6.3944">
        <ele>635.4</ele>
        <time>2026-02-22T13:32:37Z</time>
      </trkpt>
      <trkpt lat="43.58626" lon="6.39439">
        <ele>635.3</ele>
        <time>2026-02-22T13:32:38Z</time>
      </trkpt>
      <trkpt lat="43.58626" lon="6.39437">
        <ele>635.3</ele>
        <time>2026-02-22T13:32:39Z</time>
      </trkpt>
      <trkpt lat="43.58625" lon="6.39436">
        <ele>635.2</ele>
        <time>2026-02-22T13:32:40Z</time>
      </trkpt>
      <trkpt lat="43.58625" lon="6.39434">
        <ele>635.2</ele>
        <time>2026-02-22T13:32:41Z</time>
      </trkpt>
      <trkpt lat="43.58624" lon="6.39433">
        <ele>635</ele>
        <time>2026-02-22T13:32:42Z</time>
      </trkpt>
      <trkpt lat="43.58624" lon="6.39432">
        <ele>635.1</ele>
        <time>2026-02-22T13:32:43Z</time>
      </trkpt>
      <trkpt lat="43.58623" lon="6.3943">
        <ele>635.1</ele>
        <time>2026-02-22T13:32:44Z</time>
      </trkpt>
      <trkpt lat="43.58623" lon="6.39429">
        <ele>635.1</ele>
        <time>2026-02-22T13:32:45Z</time>
      </trkpt>
      <trkpt lat="43.58624" lon="6.39427">
        <ele>635</ele>
        <time>2026-02-22T13:32:46Z</time>
      </trkpt>
      <trkpt lat="43.58623" lon="6.39426">
        <ele>635</ele>
        <time>2026-02-22T13:32:47Z</time>
      </trkpt>
      <trkpt lat="43.58623" lon="6.39424">
        <ele>634.9</ele>
        <time>2026-02-22T13:32:48Z</time>
      </trkpt>
      <trkpt lat="43.58623" lon="6.39423">
        <ele>634.8</ele>
        <time>2026-02-22T13:32:49Z</time>
      </trkpt>
      <trkpt lat="43.58623" lon="6.39422">
        <ele>634.8</ele>
        <time>2026-02-22T13:32:50Z</time>
      </trkpt>
      <trkpt lat="43.58624" lon="6.39421">
        <ele>634.8</ele>
        <time>2026-02-22T13:32:51Z</time>
      </trkpt>
      <trkpt lat="43.58623" lon="6.39419">
        <ele>634.7</ele>
        <time>2026-02-22T13:32:52Z</time>
      </trkpt>
      <trkpt lat="43.58623" lon="6.39417">
        <ele>634.6</ele>
        <time>2026-02-22T13:32:53Z</time>
      </trkpt>
      <trkpt lat="43.58623" lon="6.39415">
        <ele>634.5</ele>
        <time>2026-02-22T13:32:54Z</time>
      </trkpt>
      <trkpt lat="43.58623" lon="6.39414">
        <ele>634.4</ele>
        <time>2026-02-22T13:32:55Z</time>
      </trkpt>
      <trkpt lat="43.58623" lon="6.39412">
        <ele>634.4</ele>
        <time>2026-02-22T13:32:56Z</time>
      </trkpt>
      <trkpt lat="43.58623" lon="6.39411">
        <ele>634.4</ele>
        <time>2026-02-22T13:32:57Z</time>
      </trkpt>
      <trkpt lat="43.58622" lon="6.3941">
        <ele>634.4</ele>
        <time>2026-02-22T13:32:58Z</time>
      </trkpt>
      <trkpt lat="43.58622" lon="6.39408">
        <ele>634.4</ele>
        <time>2026-02-22T13:32:59Z</time>
      </trkpt>
      <trkpt lat="43.58622" lon="6.39407">
        <ele>634.4</ele>
        <time>2026-02-22T13:33:00Z</time>
      </trkpt>
      <trkpt lat="43.58621" lon="6.39405">
        <ele>634.5</ele>
        <time>2026-02-22T13:33:01Z</time>
      </trkpt>
      <trkpt lat="43.58621" lon="6.39403">
        <ele>634.5</ele>
        <time>2026-02-22T13:33:02Z</time>
      </trkpt>
      <trkpt lat="43.58621" lon="6.39402">
        <ele>634.5</ele>
        <time>2026-02-22T13:33:03Z</time>
      </trkpt>
      <trkpt lat="43.58621" lon="6.39401">
        <ele>634.5</ele>
        <time>2026-02-22T13:33:04Z</time>
      </trkpt>
      <trkpt lat="43.58621" lon="6.39399">
        <ele>634.5</ele>
        <time>2026-02-22T13:33:05Z</time>
      </trkpt>
      <trkpt lat="43.58621" lon="6.39398">
        <ele>634.5</ele>
        <time>2026-02-22T13:33:06Z</time>
      </trkpt>
      <trkpt lat="43.58621" lon="6.39396">
        <ele>634.6</ele>
        <time>2026-02-22T13:33:07Z</time>
      </trkpt>
      <trkpt lat="43.58621" lon="6.39395">
        <ele>634.7</ele>
        <time>2026-02-22T13:33:08Z</time>
      </trkpt>
      <trkpt lat="43.5862" lon="6.39394">
        <ele>634.7</ele>
        <time>2026-02-22T13:33:09Z</time>
      </trkpt>
      <trkpt lat="43.5862" lon="6.39393">
        <ele>634.8</ele>
        <time>2026-02-22T13:33:10Z</time>
      </trkpt>
      <trkpt lat="43.5862" lon="6.39391">
        <ele>634.8</ele>
        <time>2026-02-22T13:33:11Z</time>
      </trkpt>
      <trkpt lat="43.58619" lon="6.3939">
        <ele>634.9</ele>
        <time>2026-02-22T13:33:12Z</time>
      </trkpt>
      <trkpt lat="43.58619" lon="6.39388">
        <ele>635</ele>
        <time>2026-02-22T13:33:13Z</time>
      </trkpt>
      <trkpt lat="43.58619" lon="6.39387">
        <ele>634.9</ele>
        <time>2026-02-22T13:33:14Z</time>
      </trkpt>
      <trkpt lat="43.58618" lon="6.39385">
        <ele>635.1</ele>
        <time>2026-02-22T13:33:15Z</time>
      </trkpt>
      <trkpt lat="43.58617" lon="6.39383">
        <ele>635</ele>
        <time>2026-02-22T13:33:16Z</time>
      </trkpt>
      <trkpt lat="43.58617" lon="6.39382">
        <ele>635.1</ele>
        <time>2026-02-22T13:33:17Z</time>
      </trkpt>
      <trkpt lat="43.58617" lon="6.3938">
        <ele>635.1</ele>
        <time>2026-02-22T13:33:18Z</time>
      </trkpt>
      <trkpt lat="43.58616" lon="6.39379">
        <ele>635.1</ele>
        <time>2026-02-22T13:33:19Z</time>
      </trkpt>
      <trkpt lat="43.58616" lon="6.39376">
        <ele>635.2</ele>
        <time>2026-02-22T13:33:20Z</time>
      </trkpt>
      <trkpt lat="43.58616" lon="6.39375">
        <ele>635</ele>
        <time>2026-02-22T13:33:21Z</time>
      </trkpt>
      <trkpt lat="43.58616" lon="6.39373">
        <ele>634.8</ele>
        <time>2026-02-22T13:33:22Z</time>
      </trkpt>
      <trkpt lat="43.58616" lon="6.39371">
        <ele>634.8</ele>
        <time>2026-02-22T13:33:23Z</time>
      </trkpt>
      <trkpt lat="43.58616" lon="6.39369">
        <ele>634.8</ele>
        <time>2026-02-22T13:33:24Z</time>
      </trkpt>
      <trkpt lat="43.58616" lon="6.39368">
        <ele>634.8</ele>
        <time>2026-02-22T13:33:25Z</time>
      </trkpt>
      <trkpt lat="43.58616" lon="6.39367">
        <ele>634.8</ele>
        <time>2026-02-22T13:33:26Z</time>
      </trkpt>
      <trkpt lat="43.58616" lon="6.39365">
        <ele>634.9</ele>
        <time>2026-02-22T13:33:27Z</time>
      </trkpt>
      <trkpt lat="43.58616" lon="6.39365">
        <ele>634.9</ele>
        <time>2026-02-22T13:33:28Z</time>
      </trkpt>
      <trkpt lat="43.58616" lon="6.39363">
        <ele>634.9</ele>
        <time>2026-02-22T13:33:29Z</time>
      </trkpt>
      <trkpt lat="43.58616" lon="6.39361">
        <ele>634.7</ele>
        <time>2026-02-22T13:33:30Z</time>
      </trkpt>
      <trkpt lat="43.58616" lon="6.3936">
        <ele>634.7</ele>
        <time>2026-02-22T13:33:31Z</time>
      </trkpt>
      <trkpt lat="43.58616" lon="6.39359">
        <ele>634.6</ele>
        <time>2026-02-22T13:33:32Z</time>
      </trkpt>
      <trkpt lat="43.58617" lon="6.39357">
        <ele>634.6</ele>
        <time>2026-02-22T13:33:33Z</time>
      </trkpt>
      <trkpt lat="43.58617" lon="6.39356">
        <ele>634.5</ele>
        <time>2026-02-22T13:33:34Z</time>
      </trkpt>
      <trkpt lat="43.58617" lon="6.39354">
        <ele>634.5</ele>
        <time>2026-02-22T13:33:35Z</time>
      </trkpt>
      <trkpt lat="43.58617" lon="6.39353">
        <ele>634.4</ele>
        <time>2026-02-22T13:33:36Z</time>
      </trkpt>
      <trkpt lat="43.58617" lon="6.39351">
        <ele>634.5</ele>
        <time>2026-02-22T13:33:37Z</time>
      </trkpt>
      <trkpt lat="43.58618" lon="6.3935">
        <ele>634.6</ele>
        <time>2026-02-22T13:33:38Z</time>
      </trkpt>
      <trkpt lat="43.58618" lon="6.39348">
        <ele>634.6</ele>
        <time>2026-02-22T13:33:39Z</time>
      </trkpt>
      <trkpt lat="43.58617" lon="6.39346">
        <ele>634.6</ele>
        <time>2026-02-22T13:33:40Z</time>
      </trkpt>
      <trkpt lat="43.58616" lon="6.39345">
        <ele>634.5</ele>
        <time>2026-02-22T13:33:41Z</time>
      </trkpt>
      <trkpt lat="43.58616" lon="6.39344">
        <ele>634.5</ele>
        <time>2026-02-22T13:33:42Z</time>
      </trkpt>
      <trkpt lat="43.58617" lon="6.39342">
        <ele>634.5</ele>
        <time>2026-02-22T13:33:43Z</time>
      </trkpt>
      <trkpt lat="43.58617" lon="6.3934">
        <ele>634.5</ele>
        <time>2026-02-22T13:33:44Z</time>
      </trkpt>
      <trkpt lat="43.58617" lon="6.39339">
        <ele>634.5</ele>
        <time>2026-02-22T13:33:45Z</time>
      </trkpt>
      <trkpt lat="43.58617" lon="6.39338">
        <ele>634.5</ele>
        <time>2026-02-22T13:33:46Z</time>
      </trkpt>
      <trkpt lat="43.58618" lon="6.39337">
        <ele>634.5</ele>
        <time>2026-02-22T13:33:47Z</time>
      </trkpt>
      <trkpt lat="43.58618" lon="6.39335">
        <ele>634.5</ele>
        <time>2026-02-22T13:33:48Z</time>
      </trkpt>
      <trkpt lat="43.58618" lon="6.39334">
        <ele>634.4</ele>
        <time>2026-02-22T13:33:49Z</time>
      </trkpt>
      <trkpt lat="43.58619" lon="6.39332">
        <ele>634.4</ele>
        <time>2026-02-22T13:33:50Z</time>
      </trkpt>
      <trkpt lat="43.58619" lon="6.3933">
        <ele>634.4</ele>
        <time>2026-02-22T13:33:51Z</time>
      </trkpt>
      <trkpt lat="43.58619" lon="6.39328">
        <ele>634.4</ele>
        <time>2026-02-22T13:33:52Z</time>
      </trkpt>
      <trkpt lat="43.58619" lon="6.39327">
        <ele>634.3</ele>
        <time>2026-02-22T13:33:53Z</time>
      </trkpt>
      <trkpt lat="43.5862" lon="6.39326">
        <ele>634.3</ele>
        <time>2026-02-22T13:33:54Z</time>
      </trkpt>
      <trkpt lat="43.58621" lon="6.39324">
        <ele>634.2</ele>
        <time>2026-02-22T13:33:55Z</time>
      </trkpt>
      <trkpt lat="43.58621" lon="6.39322">
        <ele>634.2</ele>
        <time>2026-02-22T13:33:56Z</time>
      </trkpt>
      <trkpt lat="43.58621" lon="6.3932">
        <ele>634.1</ele>
        <time>2026-02-22T13:33:57Z</time>
      </trkpt>
      <trkpt lat="43.58621" lon="6.39318">
        <ele>634</ele>
        <time>2026-02-22T13:33:58Z</time>
      </trkpt>
      <trkpt lat="43.58621" lon="6.39317">
        <ele>634</ele>
        <time>2026-02-22T13:33:59Z</time>
      </trkpt>
      <trkpt lat="43.5862" lon="6.39315">
        <ele>634.1</ele>
        <time>2026-02-22T13:34:00Z</time>
      </trkpt>
      <trkpt lat="43.5862" lon="6.39314">
        <ele>634.1</ele>
        <time>2026-02-22T13:34:01Z</time>
      </trkpt>
      <trkpt lat="43.5862" lon="6.39313">
        <ele>634</ele>
        <time>2026-02-22T13:34:02Z</time>
      </trkpt>
      <trkpt lat="43.58621" lon="6.39311">
        <ele>633.9</ele>
        <time>2026-02-22T13:34:03Z</time>
      </trkpt>
      <trkpt lat="43.58621" lon="6.39309">
        <ele>633.9</ele>
        <time>2026-02-22T13:34:04Z</time>
      </trkpt>
      <trkpt lat="43.58621" lon="6.39307">
        <ele>633.8</ele>
        <time>2026-02-22T13:34:05Z</time>
      </trkpt>
      <trkpt lat="43.58621" lon="6.39306">
        <ele>633.7</ele>
        <time>2026-02-22T13:34:06Z</time>
      </trkpt>
      <trkpt lat="43.58621" lon="6.39304">
        <ele>633.7</ele>
        <time>2026-02-22T13:34:07Z</time>
      </trkpt>
      <trkpt lat="43.58621" lon="6.39303">
        <ele>633.7</ele>
        <time>2026-02-22T13:34:08Z</time>
      </trkpt>
      <trkpt lat="43.58621" lon="6.39302">
        <ele>633.6</ele>
        <time>2026-02-22T13:34:09Z</time>
      </trkpt>
      <trkpt lat="43.58621" lon="6.39301">
        <ele>633.6</ele>
        <time>2026-02-22T13:34:10Z</time>
      </trkpt>
      <trkpt lat="43.5862" lon="6.39299">
        <ele>633.5</ele>
        <time>2026-02-22T13:34:11Z</time>
      </trkpt>
      <trkpt lat="43.58619" lon="6.39298">
        <ele>633.4</ele>
        <time>2026-02-22T13:34:12Z</time>
      </trkpt>
      <trkpt lat="43.58618" lon="6.39296">
        <ele>633.4</ele>
        <time>2026-02-22T13:34:13Z</time>
      </trkpt>
      <trkpt lat="43.58618" lon="6.39294">
        <ele>633.4</ele>
        <time>2026-02-22T13:34:14Z</time>
      </trkpt>
      <trkpt lat="43.58618" lon="6.39293">
        <ele>633.3</ele>
        <time>2026-02-22T13:34:15Z</time>
      </trkpt>
      <trkpt lat="43.58617" lon="6.39292">
        <ele>633.2</ele>
        <time>2026-02-22T13:34:16Z</time>
      </trkpt>
      <trkpt lat="43.58616" lon="6.39291">
        <ele>633.3</ele>
        <time>2026-02-22T13:34:17Z</time>
      </trkpt>
      <trkpt lat="43.58616" lon="6.39289">
        <ele>633.3</ele>
        <time>2026-02-22T13:34:18Z</time>
      </trkpt>
      <trkpt lat="43.58615" lon="6.39288">
        <ele>633.4</ele>
        <time>2026-02-22T13:34:19Z</time>
      </trkpt>
      <trkpt lat="43.58615" lon="6.39286">
        <ele>633.3</ele>
        <time>2026-02-22T13:34:20Z</time>
      </trkpt>
      <trkpt lat="43.58616" lon="6.39285">
        <ele>633.2</ele>
        <time>2026-02-22T13:34:21Z</time>
      </trkpt>
      <trkpt lat="43.58616" lon="6.39284">
        <ele>633.2</ele>
        <time>2026-02-22T13:34:22Z</time>
      </trkpt>
      <trkpt lat="43.58616" lon="6.39282">
        <ele>633.2</ele>
        <time>2026-02-22T13:34:23Z</time>
      </trkpt>
      <trkpt lat="43.58616" lon="6.39281">
        <ele>633.2</ele>
        <time>2026-02-22T13:34:24Z</time>
      </trkpt>
      <trkpt lat="43.58616" lon="6.3928">
        <ele>633.1</ele>
        <time>2026-02-22T13:34:25Z</time>
      </trkpt>
      <trkpt lat="43.58617" lon="6.39279">
        <ele>633</ele>
        <time>2026-02-22T13:34:26Z</time>
      </trkpt>
      <trkpt lat="43.58617" lon="6.39277">
        <ele>632.9</ele>
        <time>2026-02-22T13:34:27Z</time>
      </trkpt>
      <trkpt lat="43.58617" lon="6.39275">
        <ele>632.8</ele>
        <time>2026-02-22T13:34:28Z</time>
      </trkpt>
      <trkpt lat="43.58617" lon="6.39274">
        <ele>632.7</ele>
        <time>2026-02-22T13:34:29Z</time>
      </trkpt>
      <trkpt lat="43.58617" lon="6.39272">
        <ele>632.8</ele>
        <time>2026-02-22T13:34:30Z</time>
      </trkpt>
      <trkpt lat="43.58617" lon="6.39271">
        <ele>632.8</ele>
        <time>2026-02-22T13:34:31Z</time>
      </trkpt>
      <trkpt lat="43.58616" lon="6.39269">
        <ele>632.8</ele>
        <time>2026-02-22T13:34:32Z</time>
      </trkpt>
      <trkpt lat="43.58617" lon="6.39267">
        <ele>632.8</ele>
        <time>2026-02-22T13:34:33Z</time>
      </trkpt>
      <trkpt lat="43.58616" lon="6.39266">
        <ele>632.7</ele>
        <time>2026-02-22T13:34:34Z</time>
      </trkpt>
      <trkpt lat="43.58616" lon="6.39265">
        <ele>632.6</ele>
        <time>2026-02-22T13:34:35Z</time>
      </trkpt>
      <trkpt lat="43.58615" lon="6.39263">
        <ele>632.6</ele>
        <time>2026-02-22T13:34:36Z</time>
      </trkpt>
      <trkpt lat="43.58615" lon="6.39262">
        <ele>632.7</ele>
        <time>2026-02-22T13:34:37Z</time>
      </trkpt>
      <trkpt lat="43.58615" lon="6.3926">
        <ele>632.8</ele>
        <time>2026-02-22T13:34:38Z</time>
      </trkpt>
      <trkpt lat="43.58615" lon="6.39259">
        <ele>632.7</ele>
        <time>2026-02-22T13:34:39Z</time>
      </trkpt>
      <trkpt lat="43.58614" lon="6.39257">
        <ele>632.7</ele>
        <time>2026-02-22T13:34:40Z</time>
      </trkpt>
      <trkpt lat="43.58614" lon="6.39255">
        <ele>632.8</ele>
        <time>2026-02-22T13:34:41Z</time>
      </trkpt>
      <trkpt lat="43.58614" lon="6.39254">
        <ele>632.8</ele>
        <time>2026-02-22T13:34:42Z</time>
      </trkpt>
      <trkpt lat="43.58614" lon="6.39252">
        <ele>632.8</ele>
        <time>2026-02-22T13:34:43Z</time>
      </trkpt>
      <trkpt lat="43.58614" lon="6.39251">
        <ele>632.8</ele>
        <time>2026-02-22T13:34:44Z</time>
      </trkpt>
      <trkpt lat="43.58614" lon="6.3925">
        <ele>632.9</ele>
        <time>2026-02-22T13:34:45Z</time>
      </trkpt>
      <trkpt lat="43.58613" lon="6.39249">
        <ele>632.9</ele>
        <time>2026-02-22T13:34:46Z</time>
      </trkpt>
      <trkpt lat="43.58613" lon="6.39247">
        <ele>632.8</ele>
        <time>2026-02-22T13:34:47Z</time>
      </trkpt>
      <trkpt lat="43.58613" lon="6.39245">
        <ele>632.9</ele>
        <time>2026-02-22T13:34:48Z</time>
      </trkpt>
      <trkpt lat="43.58613" lon="6.39244">
        <ele>633</ele>
        <time>2026-02-22T13:34:49Z</time>
      </trkpt>
      <trkpt lat="43.58613" lon="6.39243">
        <ele>633</ele>
        <time>2026-02-22T13:34:50Z</time>
      </trkpt>
      <trkpt lat="43.58613" lon="6.39241">
        <ele>633</ele>
        <time>2026-02-22T13:34:51Z</time>
      </trkpt>
      <trkpt lat="43.58613" lon="6.3924">
        <ele>633</ele>
        <time>2026-02-22T13:34:52Z</time>
      </trkpt>
      <trkpt lat="43.58613" lon="6.39238">
        <ele>632.9</ele>
        <time>2026-02-22T13:34:53Z</time>
      </trkpt>
      <trkpt lat="43.58613" lon="6.39237">
        <ele>632.9</ele>
        <time>2026-02-22T13:34:54Z</time>
      </trkpt>
      <trkpt lat="43.58613" lon="6.39236">
        <ele>632.9</ele>
        <time>2026-02-22T13:34:55Z</time>
      </trkpt>
      <trkpt lat="43.58613" lon="6.39235">
        <ele>632.9</ele>
        <time>2026-02-22T13:34:56Z</time>
      </trkpt>
      <trkpt lat="43.58613" lon="6.39234">
        <ele>632.9</ele>
        <time>2026-02-22T13:34:57Z</time>
      </trkpt>
      <trkpt lat="43.58614" lon="6.39233">
        <ele>633</ele>
        <time>2026-02-22T13:34:58Z</time>
      </trkpt>
      <trkpt lat="43.58614" lon="6.39232">
        <ele>632.9</ele>
        <time>2026-02-22T13:34:59Z</time>
      </trkpt>
      <trkpt lat="43.58614" lon="6.39231">
        <ele>632.9</ele>
        <time>2026-02-22T13:35:00Z</time>
      </trkpt>
      <trkpt lat="43.58614" lon="6.39231">
        <ele>632.8</ele>
        <time>2026-02-22T13:35:01Z</time>
      </trkpt>
      <trkpt lat="43.58614" lon="6.39231">
        <ele>632.7</ele>
        <time>2026-02-22T13:35:02Z</time>
      </trkpt>
      <trkpt lat="43.58614" lon="6.39231">
        <ele>632.7</ele>
        <time>2026-02-22T13:35:03Z</time>
      </trkpt>
      <trkpt lat="43.58614" lon="6.39231">
        <ele>632.7</ele>
        <time>2026-02-22T13:35:04Z</time>
      </trkpt>
      <trkpt lat="43.58614" lon="6.39231">
        <ele>632.6</ele>
        <time>2026-02-22T13:35:05Z</time>
      </trkpt>
      <trkpt lat="43.58614" lon="6.39231">
        <ele>632.6</ele>
        <time>2026-02-22T13:35:06Z</time>
      </trkpt>
      <trkpt lat="43.58614" lon="6.39231">
        <ele>632.6</ele>
        <time>2026-02-22T13:35:07Z</time>
      </trkpt>
      <trkpt lat="43.58614" lon="6.39231">
        <ele>632.6</ele>
        <time>2026-02-22T13:35:08Z</time>
      </trkpt>
      <trkpt lat="43.58615" lon="6.39231">
        <ele>632.6</ele>
        <time>2026-02-22T13:35:09Z</time>
      </trkpt>
      <trkpt lat="43.58615" lon="6.39231">
        <ele>632.7</ele>
        <time>2026-02-22T13:35:10Z</time>
      </trkpt>
      <trkpt lat="43.58616" lon="6.39231">
        <ele>632.6</ele>
        <time>2026-02-22T13:35:11Z</time>
      </trkpt>
      <trkpt lat="43.58616" lon="6.39231">
        <ele>632.7</ele>
        <time>2026-02-22T13:35:12Z</time>
      </trkpt>
      <trkpt lat="43.58616" lon="6.39231">
        <ele>632.7</ele>
        <time>2026-02-22T13:35:13Z</time>
      </trkpt>
      <trkpt lat="43.58616" lon="6.39231">
        <ele>632.7</ele>
        <time>2026-02-22T13:35:14Z</time>
      </trkpt>
      <trkpt lat="43.58616" lon="6.39231">
        <ele>632.7</ele>
        <time>2026-02-22T13:35:15Z</time>
      </trkpt>
      <trkpt lat="43.58616" lon="6.39231">
        <ele>632.8</ele>
        <time>2026-02-22T13:35:16Z</time>
      </trkpt>
      <trkpt lat="43.58616" lon="6.39231">
        <ele>632.8</ele>
        <time>2026-02-22T13:35:17Z</time>
      </trkpt>
      <trkpt lat="43.58616" lon="6.39231">
        <ele>632.8</ele>
        <time>2026-02-22T13:35:18Z</time>
      </trkpt>
      <trkpt lat="43.58616" lon="6.39231">
        <ele>632.9</ele>
        <time>2026-02-22T13:35:19Z</time>
      </trkpt>
      <trkpt lat="43.58616" lon="6.39231">
        <ele>632.9</ele>
        <time>2026-02-22T13:35:20Z</time>
      </trkpt>
      <trkpt lat="43.58616" lon="6.39231">
        <ele>633</ele>
        <time>2026-02-22T13:35:21Z</time>
      </trkpt>
      <trkpt lat="43.58616" lon="6.3923">
        <ele>633</ele>
        <time>2026-02-22T13:35:22Z</time>
      </trkpt>
      <trkpt lat="43.58616" lon="6.3923">
        <ele>633</ele>
        <time>2026-02-22T13:35:23Z</time>
      </trkpt>
      <trkpt lat="43.58616" lon="6.3923">
        <ele>632.9</ele>
        <time>2026-02-22T13:35:24Z</time>
      </trkpt>
      <trkpt lat="43.58616" lon="6.3923">
        <ele>632.8</ele>
        <time>2026-02-22T13:35:25Z</time>
      </trkpt>
      <trkpt lat="43.58616" lon="6.3923">
        <ele>632.8</ele>
        <time>2026-02-22T13:35:26Z</time>
      </trkpt>
      <trkpt lat="43.58616" lon="6.3923">
        <ele>632.8</ele>
        <time>2026-02-22T13:35:27Z</time>
      </trkpt>
      <trkpt lat="43.58616" lon="6.3923">
        <ele>632.7</ele>
        <time>2026-02-22T13:35:28Z</time>
      </trkpt>
      <trkpt lat="43.58616" lon="6.3923">
        <ele>632.7</ele>
        <time>2026-02-22T13:35:29Z</time>
      </trkpt>
      <trkpt lat="43.58616" lon="6.3923">
        <ele>632.6</ele>
        <time>2026-02-22T13:35:30Z</time>
      </trkpt>
      <trkpt lat="43.58615" lon="6.39231">
        <ele>632.7</ele>
        <time>2026-02-22T13:35:31Z</time>
      </trkpt>
      <trkpt lat="43.58615" lon="6.39231">
        <ele>632.7</ele>
        <time>2026-02-22T13:35:32Z</time>
      </trkpt>
      <trkpt lat="43.58615" lon="6.39231">
        <ele>632.8</ele>
        <time>2026-02-22T13:35:33Z</time>
      </trkpt>
      <trkpt lat="43.58615" lon="6.39231">
        <ele>632.7</ele>
        <time>2026-02-22T13:35:34Z</time>
      </trkpt>
      <trkpt lat="43.58615" lon="6.39231">
        <ele>632.7</ele>
        <time>2026-02-22T13:35:35Z</time>
      </trkpt>
      <trkpt lat="43.58615" lon="6.3923">
        <ele>632.8</ele>
        <time>2026-02-22T13:35:36Z</time>
      </trkpt>
      <trkpt lat="43.58614" lon="6.3923">
        <ele>632.8</ele>
        <time>2026-02-22T13:35:37Z</time>
      </trkpt>
      <trkpt lat="43.58614" lon="6.3923">
        <ele>632.7</ele>
        <time>2026-02-22T13:35:38Z</time>
      </trkpt>
      <trkpt lat="43.58614" lon="6.3923">
        <ele>632.6</ele>
        <time>2026-02-22T13:35:39Z</time>
      </trkpt>
      <trkpt lat="43.58614" lon="6.3923">
        <ele>632.7</ele>
        <time>2026-02-22T13:35:40Z</time>
      </trkpt>
      <trkpt lat="43.58614" lon="6.3923">
        <ele>632.6</ele>
        <time>2026-02-22T13:35:41Z</time>
      </trkpt>
      <trkpt lat="43.58614" lon="6.3923">
        <ele>632.6</ele>
        <time>2026-02-22T13:35:42Z</time>
      </trkpt>
      <trkpt lat="43.58614" lon="6.3923">
        <ele>632.6</ele>
        <time>2026-02-22T13:35:43Z</time>
      </trkpt>
      <trkpt lat="43.58614" lon="6.3923">
        <ele>632.6</ele>
        <time>2026-02-22T13:35:44Z</time>
      </trkpt>
      <trkpt lat="43.58613" lon="6.3923">
        <ele>632.6</ele>
        <time>2026-02-22T13:35:45Z</time>
      </trkpt>
      <trkpt lat="43.58613" lon="6.3923">
        <ele>632.5</ele>
        <time>2026-02-22T13:35:46Z</time>
      </trkpt>
      <trkpt lat="43.58613" lon="6.3923">
        <ele>632.5</ele>
        <time>2026-02-22T13:35:47Z</time>
      </trkpt>
      <trkpt lat="43.58613" lon="6.3923">
        <ele>632.4</ele>
        <time>2026-02-22T13:35:48Z</time>
      </trkpt>
      <trkpt lat="43.58613" lon="6.3923">
        <ele>632.6</ele>
        <time>2026-02-22T13:35:49Z</time>
      </trkpt>
      <trkpt lat="43.58613" lon="6.3923">
        <ele>632.7</ele>
        <time>2026-02-22T13:35:50Z</time>
      </trkpt>
      <trkpt lat="43.58613" lon="6.3923">
        <ele>632.7</ele>
        <time>2026-02-22T13:35:51Z</time>
      </trkpt>
      <trkpt lat="43.58613" lon="6.3923">
        <ele>632.8</ele>
        <time>2026-02-22T13:35:52Z</time>
      </trkpt>
      <trkpt lat="43.58613" lon="6.3923">
        <ele>632.9</ele>
        <time>2026-02-22T13:35:53Z</time>
      </trkpt>
      <trkpt lat="43.58613" lon="6.3923">
        <ele>632.9</ele>
        <time>2026-02-22T13:35:54Z</time>
      </trkpt>
      <trkpt lat="43.58613" lon="6.3923">
        <ele>633</ele>
        <time>2026-02-22T13:35:55Z</time>
      </trkpt>
      <trkpt lat="43.58613" lon="6.3923">
        <ele>633</ele>
        <time>2026-02-22T13:35:56Z</time>
      </trkpt>
      <trkpt lat="43.58613" lon="6.3923">
        <ele>633</ele>
        <time>2026-02-22T13:35:57Z</time>
      </trkpt>
      <trkpt lat="43.58613" lon="6.3923">
        <ele>633</ele>
        <time>2026-02-22T13:35:58Z</time>
      </trkpt>
      <trkpt lat="43.58612" lon="6.3923">
        <ele>633</ele>
        <time>2026-02-22T13:35:59Z</time>
      </trkpt>
      <trkpt lat="43.58612" lon="6.3923">
        <ele>633</ele>
        <time>2026-02-22T13:36:00Z</time>
      </trkpt>
      <trkpt lat="43.58612" lon="6.3923">
        <ele>633</ele>
        <time>2026-02-22T13:36:01Z</time>
      </trkpt>
      <trkpt lat="43.58612" lon="6.3923">
        <ele>633</ele>
        <time>2026-02-22T13:36:02Z</time>
      </trkpt>
      <trkpt lat="43.58612" lon="6.39229">
        <ele>632.9</ele>
        <time>2026-02-22T13:36:03Z</time>
      </trkpt>
      <trkpt lat="43.58613" lon="6.39228">
        <ele>632.8</ele>
        <time>2026-02-22T13:36:04Z</time>
      </trkpt>
      <trkpt lat="43.58613" lon="6.39227">
        <ele>632.8</ele>
        <time>2026-02-22T13:36:05Z</time>
      </trkpt>
      <trkpt lat="43.58613" lon="6.39226">
        <ele>632.7</ele>
        <time>2026-02-22T13:36:06Z</time>
      </trkpt>
      <trkpt lat="43.58614" lon="6.39225">
        <ele>632.8</ele>
        <time>2026-02-22T13:36:07Z</time>
      </trkpt>
      <trkpt lat="43.58614" lon="6.39225">
        <ele>632.8</ele>
        <time>2026-02-22T13:36:08Z</time>
      </trkpt>
      <trkpt lat="43.58614" lon="6.39224">
        <ele>632.8</ele>
        <time>2026-02-22T13:36:09Z</time>
      </trkpt>
      <trkpt lat="43.58614" lon="6.39224">
        <ele>632.7</ele>
        <time>2026-02-22T13:36:10Z</time>
      </trkpt>
      <trkpt lat="43.58614" lon="6.39224">
        <ele>632.7</ele>
        <time>2026-02-22T13:36:11Z</time>
      </trkpt>
      <trkpt lat="43.58614" lon="6.39224">
        <ele>632.6</ele>
        <time>2026-02-22T13:36:12Z</time>
      </trkpt>
      <trkpt lat="43.58614" lon="6.39224">
        <ele>632.6</ele>
        <time>2026-02-22T13:36:13Z</time>
      </trkpt>
      <trkpt lat="43.58614" lon="6.39224">
        <ele>632.5</ele>
        <time>2026-02-22T13:36:14Z</time>
      </trkpt>
      <trkpt lat="43.58614" lon="6.39224">
        <ele>632.5</ele>
        <time>2026-02-22T13:36:15Z</time>
      </trkpt>
      <trkpt lat="43.58614" lon="6.39224">
        <ele>632.4</ele>
        <time>2026-02-22T13:36:16Z</time>
      </trkpt>
      <trkpt lat="43.58614" lon="6.39224">
        <ele>632.4</ele>
        <time>2026-02-22T13:36:17Z</time>
      </trkpt>
      <trkpt lat="43.58614" lon="6.39224">
        <ele>632.6</ele>
        <time>2026-02-22T13:36:18Z</time>
      </trkpt>
      <trkpt lat="43.58614" lon="6.39224">
        <ele>632.6</ele>
        <time>2026-02-22T13:36:19Z</time>
      </trkpt>
      <trkpt lat="43.58614" lon="6.39224">
        <ele>632.5</ele>
        <time>2026-02-22T13:36:20Z</time>
      </trkpt>
      <trkpt lat="43.58614" lon="6.39224">
        <ele>632.5</ele>
        <time>2026-02-22T13:36:21Z</time>
      </trkpt>
      <trkpt lat="43.58614" lon="6.39224">
        <ele>632.6</ele>
        <time>2026-02-22T13:36:22Z</time>
      </trkpt>
      <trkpt lat="43.58615" lon="6.39224">
        <ele>632.7</ele>
        <time>2026-02-22T13:36:23Z</time>
      </trkpt>
      <trkpt lat="43.58615" lon="6.39224">
        <ele>632.7</ele>
        <time>2026-02-22T13:36:24Z</time>
      </trkpt>
      <trkpt lat="43.58615" lon="6.39224">
        <ele>632.7</ele>
        <time>2026-02-22T13:36:25Z</time>
      </trkpt>
      <trkpt lat="43.58615" lon="6.39224">
        <ele>632.7</ele>
        <time>2026-02-22T13:36:26Z</time>
      </trkpt>
      <trkpt lat="43.58615" lon="6.39224">
        <ele>632.8</ele>
        <time>2026-02-22T13:36:27Z</time>
      </trkpt>
      <trkpt lat="43.58615" lon="6.39224">
        <ele>632.8</ele>
        <time>2026-02-22T13:36:28Z</time>
      </trkpt>
      <trkpt lat="43.58615" lon="6.39223">
        <ele>632.8</ele>
        <time>2026-02-22T13:36:29Z</time>
      </trkpt>
      <trkpt lat="43.58615" lon="6.39223">
        <ele>632.8</ele>
        <time>2026-02-22T13:36:30Z</time>
      </trkpt>
      <trkpt lat="43.58614" lon="6.39222">
        <ele>632.9</ele>
        <time>2026-02-22T13:36:31Z</time>
      </trkpt>
      <trkpt lat="43.58614" lon="6.39222">
        <ele>633</ele>
        <time>2026-02-22T13:36:32Z</time>
      </trkpt>
      <trkpt lat="43.58614" lon="6.39222">
        <ele>632.9</ele>
        <time>2026-02-22T13:36:33Z</time>
      </trkpt>
      <trkpt lat="43.58615" lon="6.39222">
        <ele>632.8</ele>
        <time>2026-02-22T13:36:34Z</time>
      </trkpt>
      <trkpt lat="43.58614" lon="6.39221">
        <ele>632.7</ele>
        <time>2026-02-22T13:36:35Z</time>
      </trkpt>
      <trkpt lat="43.58614" lon="6.39221">
        <ele>632.6</ele>
        <time>2026-02-22T13:36:36Z</time>
      </trkpt>
      <trkpt lat="43.58614" lon="6.39221">
        <ele>632.6</ele>
        <time>2026-02-22T13:36:37Z</time>
      </trkpt>
      <trkpt lat="43.58614" lon="6.39221">
        <ele>632.5</ele>
        <time>2026-02-22T13:36:38Z</time>
      </trkpt>
      <trkpt lat="43.58614" lon="6.39221">
        <ele>632.5</ele>
        <time>2026-02-22T13:36:39Z</time>
      </trkpt>
      <trkpt lat="43.58613" lon="6.39221">
        <ele>632.4</ele>
        <time>2026-02-22T13:36:40Z</time>
      </trkpt>
      <trkpt lat="43.58613" lon="6.3922">
        <ele>632.4</ele>
        <time>2026-02-22T13:36:41Z</time>
      </trkpt>
      <trkpt lat="43.58613" lon="6.3922">
        <ele>632.3</ele>
        <time>2026-02-22T13:36:42Z</time>
      </trkpt>
      <trkpt lat="43.58613" lon="6.3922">
        <ele>632.3</ele>
        <time>2026-02-22T13:36:43Z</time>
      </trkpt>
      <trkpt lat="43.58613" lon="6.3922">
        <ele>632.3</ele>
        <time>2026-02-22T13:36:44Z</time>
      </trkpt>
      <trkpt lat="43.58613" lon="6.3922">
        <ele>632.3</ele>
        <time>2026-02-22T13:36:45Z</time>
      </trkpt>
      <trkpt lat="43.58613" lon="6.3922">
        <ele>632.3</ele>
        <time>2026-02-22T13:36:46Z</time>
      </trkpt>
      <trkpt lat="43.58612" lon="6.3922">
        <ele>632.4</ele>
        <time>2026-02-22T13:36:47Z</time>
      </trkpt>
      <trkpt lat="43.58612" lon="6.3922">
        <ele>632.4</ele>
        <time>2026-02-22T13:36:48Z</time>
      </trkpt>
      <trkpt lat="43.58612" lon="6.3922">
        <ele>632.4</ele>
        <time>2026-02-22T13:36:49Z</time>
      </trkpt>
      <trkpt lat="43.58612" lon="6.39221">
        <ele>632.5</ele>
        <time>2026-02-22T13:36:50Z</time>
      </trkpt>
      <trkpt lat="43.58612" lon="6.39221">
        <ele>632.5</ele>
        <time>2026-02-22T13:36:51Z</time>
      </trkpt>
      <trkpt lat="43.58612" lon="6.39221">
        <ele>632.5</ele>
        <time>2026-02-22T13:36:52Z</time>
      </trkpt>
      <trkpt lat="43.58612" lon="6.39221">
        <ele>632.4</ele>
        <time>2026-02-22T13:36:53Z</time>
      </trkpt>
      <trkpt lat="43.58612" lon="6.39221">
        <ele>632.3</ele>
        <time>2026-02-22T13:36:54Z</time>
      </trkpt>
      <trkpt lat="43.58612" lon="6.39221">
        <ele>632.3</ele>
        <time>2026-02-22T13:36:55Z</time>
      </trkpt>
      <trkpt lat="43.58611" lon="6.39221">
        <ele>632.3</ele>
        <time>2026-02-22T13:36:56Z</time>
      </trkpt>
      <trkpt lat="43.58611" lon="6.39221">
        <ele>632.3</ele>
        <time>2026-02-22T13:36:57Z</time>
      </trkpt>
      <trkpt lat="43.58611" lon="6.39221">
        <ele>632.3</ele>
        <time>2026-02-22T13:36:58Z</time>
      </trkpt>
      <trkpt lat="43.58611" lon="6.39221">
        <ele>632.3</ele>
        <time>2026-02-22T13:36:59Z</time>
      </trkpt>
      <trkpt lat="43.58611" lon="6.39221">
        <ele>632.4</ele>
        <time>2026-02-22T13:37:00Z</time>
      </trkpt>
      <trkpt lat="43.58611" lon="6.39221">
        <ele>632.3</ele>
        <time>2026-02-22T13:37:01Z</time>
      </trkpt>
      <trkpt lat="43.5861" lon="6.39221">
        <ele>632.4</ele>
        <time>2026-02-22T13:37:02Z</time>
      </trkpt>
      <trkpt lat="43.5861" lon="6.39221">
        <ele>632.4</ele>
        <time>2026-02-22T13:37:03Z</time>
      </trkpt>
      <trkpt lat="43.5861" lon="6.39221">
        <ele>632.3</ele>
        <time>2026-02-22T13:37:04Z</time>
      </trkpt>
      <trkpt lat="43.5861" lon="6.39221">
        <ele>632.4</ele>
        <time>2026-02-22T13:37:05Z</time>
      </trkpt>
      <trkpt lat="43.5861" lon="6.39221">
        <ele>632.4</ele>
        <time>2026-02-22T13:37:06Z</time>
      </trkpt>
      <trkpt lat="43.58609" lon="6.39221">
        <ele>632.3</ele>
        <time>2026-02-22T13:37:07Z</time>
      </trkpt>
      <trkpt lat="43.58609" lon="6.39221">
        <ele>632.3</ele>
        <time>2026-02-22T13:37:08Z</time>
      </trkpt>
      <trkpt lat="43.58609" lon="6.39222">
        <ele>632.3</ele>
        <time>2026-02-22T13:37:09Z</time>
      </trkpt>
      <trkpt lat="43.58609" lon="6.39222">
        <ele>632.2</ele>
        <time>2026-02-22T13:37:10Z</time>
      </trkpt>
      <trkpt lat="43.58609" lon="6.39222">
        <ele>632.3</ele>
        <time>2026-02-22T13:37:11Z</time>
      </trkpt>
      <trkpt lat="43.58609" lon="6.39222">
        <ele>632.4</ele>
        <time>2026-02-22T13:37:12Z</time>
      </trkpt>
      <trkpt lat="43.58609" lon="6.39222">
        <ele>632.3</ele>
        <time>2026-02-22T13:37:13Z</time>
      </trkpt>
      <trkpt lat="43.58609" lon="6.39222">
        <ele>632.5</ele>
        <time>2026-02-22T13:37:14Z</time>
      </trkpt>
      <trkpt lat="43.58609" lon="6.39222">
        <ele>632.4</ele>
        <time>2026-02-22T13:37:15Z</time>
      </trkpt>
      <trkpt lat="43.58609" lon="6.39222">
        <ele>632.5</ele>
        <time>2026-02-22T13:37:16Z</time>
      </trkpt>
      <trkpt lat="43.58609" lon="6.39222">
        <ele>632.5</ele>
        <time>2026-02-22T13:37:17Z</time>
      </trkpt>
      <trkpt lat="43.58609" lon="6.39222">
        <ele>632.5</ele>
        <time>2026-02-22T13:37:18Z</time>
      </trkpt>
      <trkpt lat="43.58609" lon="6.39222">
        <ele>632.4</ele>
        <time>2026-02-22T13:37:19Z</time>
      </trkpt>
      <trkpt lat="43.58609" lon="6.39222">
        <ele>632.5</ele>
        <time>2026-02-22T13:37:20Z</time>
      </trkpt>
      <trkpt lat="43.58609" lon="6.39223">
        <ele>632.6</ele>
        <time>2026-02-22T13:37:21Z</time>
      </trkpt>
      <trkpt lat="43.58609" lon="6.39223">
        <ele>632.6</ele>
        <time>2026-02-22T13:37:22Z</time>
      </trkpt>
      <trkpt lat="43.58609" lon="6.39223">
        <ele>632.6</ele>
        <time>2026-02-22T13:37:23Z</time>
      </trkpt>
      <trkpt lat="43.58609" lon="6.39223">
        <ele>632.6</ele>
        <time>2026-02-22T13:37:24Z</time>
      </trkpt>
      <trkpt lat="43.58609" lon="6.39224">
        <ele>632.7</ele>
        <time>2026-02-22T13:37:25Z</time>
      </trkpt>
      <trkpt lat="43.58609" lon="6.39224">
        <ele>632.6</ele>
        <time>2026-02-22T13:37:26Z</time>
      </trkpt>
      <trkpt lat="43.5861" lon="6.39224">
        <ele>632.6</ele>
        <time>2026-02-22T13:37:27Z</time>
      </trkpt>
      <trkpt lat="43.5861" lon="6.39224">
        <ele>632.7</ele>
        <time>2026-02-22T13:37:28Z</time>
      </trkpt>
      <trkpt lat="43.5861" lon="6.39224">
        <ele>632.6</ele>
        <time>2026-02-22T13:37:29Z</time>
      </trkpt>
      <trkpt lat="43.5861" lon="6.39224">
        <ele>632.6</ele>
        <time>2026-02-22T13:37:30Z</time>
      </trkpt>
      <trkpt lat="43.5861" lon="6.39224">
        <ele>632.6</ele>
        <time>2026-02-22T13:37:31Z</time>
      </trkpt>
      <trkpt lat="43.5861" lon="6.39224">
        <ele>632.5</ele>
        <time>2026-02-22T13:37:32Z</time>
      </trkpt>
      <trkpt lat="43.5861" lon="6.39224">
        <ele>632.5</ele>
        <time>2026-02-22T13:37:33Z</time>
      </trkpt>
      <trkpt lat="43.5861" lon="6.39224">
        <ele>632.4</ele>
        <time>2026-02-22T13:37:34Z</time>
      </trkpt>
      <trkpt lat="43.5861" lon="6.39224">
        <ele>632.4</ele>
        <time>2026-02-22T13:37:35Z</time>
      </trkpt>
      <trkpt lat="43.5861" lon="6.39224">
        <ele>632.4</ele>
        <time>2026-02-22T13:37:36Z</time>
      </trkpt>
      <trkpt lat="43.58609" lon="6.39224">
        <ele>632.3</ele>
        <time>2026-02-22T13:37:37Z</time>
      </trkpt>
      <trkpt lat="43.58609" lon="6.39224">
        <ele>632.4</ele>
        <time>2026-02-22T13:37:38Z</time>
      </trkpt>
      <trkpt lat="43.5861" lon="6.39224">
        <ele>632.4</ele>
        <time>2026-02-22T13:37:39Z</time>
      </trkpt>
      <trkpt lat="43.58609" lon="6.39224">
        <ele>632.5</ele>
        <time>2026-02-22T13:37:40Z</time>
      </trkpt>
      <trkpt lat="43.58609" lon="6.39224">
        <ele>632.4</ele>
        <time>2026-02-22T13:37:41Z</time>
      </trkpt>
      <trkpt lat="43.58609" lon="6.39224">
        <ele>632.4</ele>
        <time>2026-02-22T13:37:42Z</time>
      </trkpt>
      <trkpt lat="43.58609" lon="6.39224">
        <ele>632.3</ele>
        <time>2026-02-22T13:37:43Z</time>
      </trkpt>
      <trkpt lat="43.58609" lon="6.39223">
        <ele>632.3</ele>
        <time>2026-02-22T13:37:44Z</time>
      </trkpt>
      <trkpt lat="43.58609" lon="6.39223">
        <ele>632.3</ele>
        <time>2026-02-22T13:37:45Z</time>
      </trkpt>
      <trkpt lat="43.58609" lon="6.39223">
        <ele>632.3</ele>
        <time>2026-02-22T13:37:46Z</time>
      </trkpt>
      <trkpt lat="43.58609" lon="6.39223">
        <ele>632.3</ele>
        <time>2026-02-22T13:37:47Z</time>
      </trkpt>
      <trkpt lat="43.58609" lon="6.39222">
        <ele>632.3</ele>
        <time>2026-02-22T13:37:48Z</time>
      </trkpt>
      <trkpt lat="43.5861" lon="6.39222">
        <ele>632.3</ele>
        <time>2026-02-22T13:37:49Z</time>
      </trkpt>
      <trkpt lat="43.5861" lon="6.39223">
        <ele>632.3</ele>
        <time>2026-02-22T13:37:50Z</time>
      </trkpt>
      <trkpt lat="43.5861" lon="6.39223">
        <ele>632.3</ele>
        <time>2026-02-22T13:37:51Z</time>
      </trkpt>
      <trkpt lat="43.5861" lon="6.39223">
        <ele>632.3</ele>
        <time>2026-02-22T13:37:52Z</time>
      </trkpt>
      <trkpt lat="43.5861" lon="6.39223">
        <ele>632.4</ele>
        <time>2026-02-22T13:37:53Z</time>
      </trkpt>
      <trkpt lat="43.5861" lon="6.39222">
        <ele>632.5</ele>
        <time>2026-02-22T13:37:54Z</time>
      </trkpt>
      <trkpt lat="43.5861" lon="6.39222">
        <ele>632.5</ele>
        <time>2026-02-22T13:37:55Z</time>
      </trkpt>
      <trkpt lat="43.5861" lon="6.39222">
        <ele>632.5</ele>
        <time>2026-02-22T13:37:56Z</time>
      </trkpt>
      <trkpt lat="43.5861" lon="6.39222">
        <ele>632.5</ele>
        <time>2026-02-22T13:37:57Z</time>
      </trkpt>
      <trkpt lat="43.5861" lon="6.39222">
        <ele>632.4</ele>
        <time>2026-02-22T13:37:58Z</time>
      </trkpt>
      <trkpt lat="43.5861" lon="6.39222">
        <ele>632.3</ele>
        <time>2026-02-22T13:37:59Z</time>
      </trkpt>
      <trkpt lat="43.5861" lon="6.39222">
        <ele>632.4</ele>
        <time>2026-02-22T13:38:00Z</time>
      </trkpt>
      <trkpt lat="43.5861" lon="6.39222">
        <ele>632.4</ele>
        <time>2026-02-22T13:38:01Z</time>
      </trkpt>
      <trkpt lat="43.5861" lon="6.39222">
        <ele>632.4</ele>
        <time>2026-02-22T13:38:02Z</time>
      </trkpt>
      <trkpt lat="43.5861" lon="6.39222">
        <ele>632.4</ele>
        <time>2026-02-22T13:38:03Z</time>
      </trkpt>
      <trkpt lat="43.5861" lon="6.39222">
        <ele>632.5</ele>
        <time>2026-02-22T13:38:04Z</time>
      </trkpt>
      <trkpt lat="43.5861" lon="6.39222">
        <ele>632.5</ele>
        <time>2026-02-22T13:38:05Z</time>
      </trkpt>
      <trkpt lat="43.5861" lon="6.39222">
        <ele>632.6</ele>
        <time>2026-02-22T13:38:06Z</time>
      </trkpt>
      <trkpt lat="43.58609" lon="6.39223">
        <ele>632.6</ele>
        <time>2026-02-22T13:38:07Z</time>
      </trkpt>
      <trkpt lat="43.58609" lon="6.39223">
        <ele>632.6</ele>
        <time>2026-02-22T13:38:08Z</time>
      </trkpt>
      <trkpt lat="43.58609" lon="6.39223">
        <ele>632.5</ele>
        <time>2026-02-22T13:38:09Z</time>
      </trkpt>
      <trkpt lat="43.58609" lon="6.39223">
        <ele>632.5</ele>
        <time>2026-02-22T13:38:10Z</time>
      </trkpt>
      <trkpt lat="43.58609" lon="6.39223">
        <ele>632.6</ele>
        <time>2026-02-22T13:38:11Z</time>
      </trkpt>
      <trkpt lat="43.58609" lon="6.39223">
        <ele>632.6</ele>
        <time>2026-02-22T13:38:12Z</time>
      </trkpt>
      <trkpt lat="43.58609" lon="6.39223">
        <ele>632.6</ele>
        <time>2026-02-22T13:38:13Z</time>
      </trkpt>
      <trkpt lat="43.58609" lon="6.39224">
        <ele>632.6</ele>
        <time>2026-02-22T13:38:14Z</time>
      </trkpt>
      <trkpt lat="43.58608" lon="6.39224">
        <ele>632.6</ele>
        <time>2026-02-22T13:38:15Z</time>
      </trkpt>
      <trkpt lat="43.58608" lon="6.39224">
        <ele>632.6</ele>
        <time>2026-02-22T13:38:16Z</time>
      </trkpt>
      <trkpt lat="43.58608" lon="6.39224">
        <ele>632.6</ele>
        <time>2026-02-22T13:38:17Z</time>
      </trkpt>
      <trkpt lat="43.58608" lon="6.39224">
        <ele>632.6</ele>
        <time>2026-02-22T13:38:18Z</time>
      </trkpt>
      <trkpt lat="43.58608" lon="6.39224">
        <ele>632.6</ele>
        <time>2026-02-22T13:38:19Z</time>
      </trkpt>
      <trkpt lat="43.58608" lon="6.39224">
        <ele>632.6</ele>
        <time>2026-02-22T13:38:20Z</time>
      </trkpt>
      <trkpt lat="43.58608" lon="6.39224">
        <ele>632.5</ele>
        <time>2026-02-22T13:38:21Z</time>
      </trkpt>
      <trkpt lat="43.58608" lon="6.39225">
        <ele>632.4</ele>
        <time>2026-02-22T13:38:22Z</time>
      </trkpt>
      <trkpt lat="43.58608" lon="6.39225">
        <ele>632.5</ele>
        <time>2026-02-22T13:38:23Z</time>
      </trkpt>
      <trkpt lat="43.58608" lon="6.39225">
        <ele>632.5</ele>
        <time>2026-02-22T13:38:24Z</time>
      </trkpt>
      <trkpt lat="43.58608" lon="6.39225">
        <ele>632.6</ele>
        <time>2026-02-22T13:38:25Z</time>
      </trkpt>
      <trkpt lat="43.58608" lon="6.39226">
        <ele>632.6</ele>
        <time>2026-02-22T13:38:26Z</time>
      </trkpt>
      <trkpt lat="43.58608" lon="6.39226">
        <ele>632.6</ele>
        <time>2026-02-22T13:38:27Z</time>
      </trkpt>
      <trkpt lat="43.58608" lon="6.39226">
        <ele>632.6</ele>
        <time>2026-02-22T13:38:28Z</time>
      </trkpt>
      <trkpt lat="43.58608" lon="6.39226">
        <ele>632.7</ele>
        <time>2026-02-22T13:38:29Z</time>
      </trkpt>
      <trkpt lat="43.58608" lon="6.39226">
        <ele>632.6</ele>
        <time>2026-02-22T13:38:30Z</time>
      </trkpt>
      <trkpt lat="43.58608" lon="6.39226">
        <ele>632.5</ele>
        <time>2026-02-22T13:38:31Z</time>
      </trkpt>
      <trkpt lat="43.58608" lon="6.39226">
        <ele>632.5</ele>
        <time>2026-02-22T13:38:32Z</time>
      </trkpt>
      <trkpt lat="43.58608" lon="6.39226">
        <ele>632.6</ele>
        <time>2026-02-22T13:38:33Z</time>
      </trkpt>
      <trkpt lat="43.58608" lon="6.39226">
        <ele>632.6</ele>
        <time>2026-02-22T13:38:34Z</time>
      </trkpt>
      <trkpt lat="43.58608" lon="6.39226">
        <ele>632.6</ele>
        <time>2026-02-22T13:38:35Z</time>
      </trkpt>
      <trkpt lat="43.58608" lon="6.39226">
        <ele>632.6</ele>
        <time>2026-02-22T13:38:36Z</time>
      </trkpt>
      <trkpt lat="43.58608" lon="6.39226">
        <ele>632.6</ele>
        <time>2026-02-22T13:38:37Z</time>
      </trkpt>
      <trkpt lat="43.58608" lon="6.39226">
        <ele>632.5</ele>
        <time>2026-02-22T13:38:38Z</time>
      </trkpt>
      <trkpt lat="43.58608" lon="6.39226">
        <ele>632.5</ele>
        <time>2026-02-22T13:38:39Z</time>
      </trkpt>
      <trkpt lat="43.58608" lon="6.39226">
        <ele>632.5</ele>
        <time>2026-02-22T13:38:40Z</time>
      </trkpt>
      <trkpt lat="43.58608" lon="6.39226">
        <ele>632.6</ele>
        <time>2026-02-22T13:38:41Z</time>
      </trkpt>
      <trkpt lat="43.58608" lon="6.39226">
        <ele>632.5</ele>
        <time>2026-02-22T13:38:42Z</time>
      </trkpt>
      <trkpt lat="43.58608" lon="6.39226">
        <ele>632.6</ele>
        <time>2026-02-22T13:38:43Z</time>
      </trkpt>
      <trkpt lat="43.58608" lon="6.39226">
        <ele>632.6</ele>
        <time>2026-02-22T13:38:44Z</time>
      </trkpt>
      <trkpt lat="43.58608" lon="6.39226">
        <ele>632.6</ele>
        <time>2026-02-22T13:38:45Z</time>
      </trkpt>
      <trkpt lat="43.58608" lon="6.39226">
        <ele>632.6</ele>
        <time>2026-02-22T13:38:46Z</time>
      </trkpt>
      <trkpt lat="43.58608" lon="6.39226">
        <ele>632.7</ele>
        <time>2026-02-22T13:38:47Z</time>
      </trkpt>
      <trkpt lat="43.58608" lon="6.39226">
        <ele>632.7</ele>
        <time>2026-02-22T13:38:48Z</time>
      </trkpt>
      <trkpt lat="43.58608" lon="6.39226">
        <ele>632.8</ele>
        <time>2026-02-22T13:38:49Z</time>
      </trkpt>
      <trkpt lat="43.58608" lon="6.39226">
        <ele>632.9</ele>
        <time>2026-02-22T13:38:50Z</time>
      </trkpt>
      <trkpt lat="43.58608" lon="6.39225">
        <ele>632.8</ele>
        <time>2026-02-22T13:38:51Z</time>
      </trkpt>
      <trkpt lat="43.58608" lon="6.39225">
        <ele>632.7</ele>
        <time>2026-02-22T13:38:52Z</time>
      </trkpt>
      <trkpt lat="43.58608" lon="6.39225">
        <ele>632.6</ele>
        <time>2026-02-22T13:38:53Z</time>
      </trkpt>
      <trkpt lat="43.58608" lon="6.39225">
        <ele>632.6</ele>
        <time>2026-02-22T13:38:54Z</time>
      </trkpt>
      <trkpt lat="43.58608" lon="6.39225">
        <ele>632.8</ele>
        <time>2026-02-22T13:38:55Z</time>
      </trkpt>
      <trkpt lat="43.58608" lon="6.39224">
        <ele>632.9</ele>
        <time>2026-02-22T13:38:56Z</time>
      </trkpt>
      <trkpt lat="43.58609" lon="6.39225">
        <ele>632.9</ele>
        <time>2026-02-22T13:38:57Z</time>
      </trkpt>
      <trkpt lat="43.58608" lon="6.39225">
        <ele>633</ele>
        <time>2026-02-22T13:38:58Z</time>
      </trkpt>
      <trkpt lat="43.58608" lon="6.39224">
        <ele>632.9</ele>
        <time>2026-02-22T13:38:59Z</time>
      </trkpt>
      <trkpt lat="43.58608" lon="6.39224">
        <ele>632.8</ele>
        <time>2026-02-22T13:39:00Z</time>
      </trkpt>
      <trkpt lat="43.58608" lon="6.39224">
        <ele>632.8</ele>
        <time>2026-02-22T13:39:01Z</time>
      </trkpt>
      <trkpt lat="43.58608" lon="6.39224">
        <ele>632.8</ele>
        <time>2026-02-22T13:39:02Z</time>
      </trkpt>
      <trkpt lat="43.58608" lon="6.39224">
        <ele>632.9</ele>
        <time>2026-02-22T13:39:03Z</time>
      </trkpt>
      <trkpt lat="43.58608" lon="6.39225">
        <ele>632.9</ele>
        <time>2026-02-22T13:39:04Z</time>
      </trkpt>
      <trkpt lat="43.58608" lon="6.39225">
        <ele>632.8</ele>
        <time>2026-02-22T13:39:05Z</time>
      </trkpt>
      <trkpt lat="43.58608" lon="6.39225">
        <ele>632.8</ele>
        <time>2026-02-22T13:39:06Z</time>
      </trkpt>
      <trkpt lat="43.58608" lon="6.39225">
        <ele>632.8</ele>
        <time>2026-02-22T13:39:07Z</time>
      </trkpt>
      <trkpt lat="43.58608" lon="6.39225">
        <ele>632.7</ele>
        <time>2026-02-22T13:39:08Z</time>
      </trkpt>
      <trkpt lat="43.58608" lon="6.39225">
        <ele>632.7</ele>
        <time>2026-02-22T13:39:09Z</time>
      </trkpt>
      <trkpt lat="43.58608" lon="6.39225">
        <ele>632.7</ele>
        <time>2026-02-22T13:39:10Z</time>
      </trkpt>
      <trkpt lat="43.58608" lon="6.39225">
        <ele>632.7</ele>
        <time>2026-02-22T13:39:11Z</time>
      </trkpt>
      <trkpt lat="43.58609" lon="6.39226">
        <ele>632.8</ele>
        <time>2026-02-22T13:39:12Z</time>
      </trkpt>
      <trkpt lat="43.58609" lon="6.39226">
        <ele>632.8</ele>
        <time>2026-02-22T13:39:13Z</time>
      </trkpt>
      <trkpt lat="43.58609" lon="6.39226">
        <ele>632.8</ele>
        <time>2026-02-22T13:39:14Z</time>
      </trkpt>
      <trkpt lat="43.58609" lon="6.39225">
        <ele>632.8</ele>
        <time>2026-02-22T13:39:15Z</time>
      </trkpt>
      <trkpt lat="43.58609" lon="6.39225">
        <ele>632.8</ele>
        <time>2026-02-22T13:39:16Z</time>
      </trkpt>
      <trkpt lat="43.58609" lon="6.39225">
        <ele>632.8</ele>
        <time>2026-02-22T13:39:17Z</time>
      </trkpt>
      <trkpt lat="43.58609" lon="6.39225">
        <ele>632.9</ele>
        <time>2026-02-22T13:39:18Z</time>
      </trkpt>
      <trkpt lat="43.5861" lon="6.39224">
        <ele>632.9</ele>
        <time>2026-02-22T13:39:19Z</time>
      </trkpt>
      <trkpt lat="43.5861" lon="6.39224">
        <ele>632.9</ele>
        <time>2026-02-22T13:39:20Z</time>
      </trkpt>
      <trkpt lat="43.5861" lon="6.39224">
        <ele>632.9</ele>
        <time>2026-02-22T13:39:21Z</time>
      </trkpt>
      <trkpt lat="43.5861" lon="6.39223">
        <ele>632.8</ele>
        <time>2026-02-22T13:39:22Z</time>
      </trkpt>
      <trkpt lat="43.5861" lon="6.39223">
        <ele>632.8</ele>
        <time>2026-02-22T13:39:23Z</time>
      </trkpt>
      <trkpt lat="43.5861" lon="6.39223">
        <ele>632.8</ele>
        <time>2026-02-22T13:39:24Z</time>
      </trkpt>
      <trkpt lat="43.5861" lon="6.39223">
        <ele>632.9</ele>
        <time>2026-02-22T13:39:25Z</time>
      </trkpt>
      <trkpt lat="43.5861" lon="6.39223">
        <ele>632.9</ele>
        <time>2026-02-22T13:39:26Z</time>
      </trkpt>
      <trkpt lat="43.5861" lon="6.39223">
        <ele>632.8</ele>
        <time>2026-02-22T13:39:27Z</time>
      </trkpt>
      <trkpt lat="43.5861" lon="6.39223">
        <ele>632.9</ele>
        <time>2026-02-22T13:39:28Z</time>
      </trkpt>
      <trkpt lat="43.58611" lon="6.39223">
        <ele>632.9</ele>
        <time>2026-02-22T13:39:29Z</time>
      </trkpt>
      <trkpt lat="43.58611" lon="6.39223">
        <ele>632.9</ele>
        <time>2026-02-22T13:39:30Z</time>
      </trkpt>
      <trkpt lat="43.58611" lon="6.39223">
        <ele>633</ele>
        <time>2026-02-22T13:39:31Z</time>
      </trkpt>
      <trkpt lat="43.58611" lon="6.39223">
        <ele>633</ele>
        <time>2026-02-22T13:39:32Z</time>
      </trkpt>
      <trkpt lat="43.58611" lon="6.39222">
        <ele>633</ele>
        <time>2026-02-22T13:39:33Z</time>
      </trkpt>
      <trkpt lat="43.58611" lon="6.39222">
        <ele>633.1</ele>
        <time>2026-02-22T13:39:34Z</time>
      </trkpt>
      <trkpt lat="43.58611" lon="6.39222">
        <ele>633</ele>
        <time>2026-02-22T13:39:35Z</time>
      </trkpt>
      <trkpt lat="43.58611" lon="6.39222">
        <ele>632.9</ele>
        <time>2026-02-22T13:39:36Z</time>
      </trkpt>
      <trkpt lat="43.58611" lon="6.39222">
        <ele>632.9</ele>
        <time>2026-02-22T13:39:37Z</time>
      </trkpt>
      <trkpt lat="43.58611" lon="6.39222">
        <ele>632.9</ele>
        <time>2026-02-22T13:39:38Z</time>
      </trkpt>
      <trkpt lat="43.58611" lon="6.39222">
        <ele>632.9</ele>
        <time>2026-02-22T13:39:39Z</time>
      </trkpt>
      <trkpt lat="43.58611" lon="6.39223">
        <ele>632.8</ele>
        <time>2026-02-22T13:39:40Z</time>
      </trkpt>
      <trkpt lat="43.58611" lon="6.39223">
        <ele>632.8</ele>
        <time>2026-02-22T13:39:41Z</time>
      </trkpt>
      <trkpt lat="43.58611" lon="6.39222">
        <ele>632.8</ele>
        <time>2026-02-22T13:39:42Z</time>
      </trkpt>
      <trkpt lat="43.58611" lon="6.39223">
        <ele>632.7</ele>
        <time>2026-02-22T13:39:43Z</time>
      </trkpt>
      <trkpt lat="43.58611" lon="6.39223">
        <ele>632.7</ele>
        <time>2026-02-22T13:39:44Z</time>
      </trkpt>
      <trkpt lat="43.58611" lon="6.39223">
        <ele>632.8</ele>
        <time>2026-02-22T13:39:45Z</time>
      </trkpt>
      <trkpt lat="43.58611" lon="6.39223">
        <ele>632.8</ele>
        <time>2026-02-22T13:39:46Z</time>
      </trkpt>
      <trkpt lat="43.58611" lon="6.39223">
        <ele>632.8</ele>
        <time>2026-02-22T13:39:47Z</time>
      </trkpt>
      <trkpt lat="43.58611" lon="6.39223">
        <ele>632.9</ele>
        <time>2026-02-22T13:39:48Z</time>
      </trkpt>
      <trkpt lat="43.58611" lon="6.39223">
        <ele>632.9</ele>
        <time>2026-02-22T13:39:49Z</time>
      </trkpt>
      <trkpt lat="43.58611" lon="6.39223">
        <ele>632.8</ele>
        <time>2026-02-22T13:39:50Z</time>
      </trkpt>
      <trkpt lat="43.58611" lon="6.39223">
        <ele>632.8</ele>
        <time>2026-02-22T13:39:51Z</time>
      </trkpt>
      <trkpt lat="43.58611" lon="6.39223">
        <ele>632.7</ele>
        <time>2026-02-22T13:39:52Z</time>
      </trkpt>
      <trkpt lat="43.58611" lon="6.39223">
        <ele>632.7</ele>
        <time>2026-02-22T13:39:53Z</time>
      </trkpt>
      <trkpt lat="43.58611" lon="6.39223">
        <ele>632.6</ele>
        <time>2026-02-22T13:39:54Z</time>
      </trkpt>
      <trkpt lat="43.58611" lon="6.39223">
        <ele>632.6</ele>
        <time>2026-02-22T13:39:55Z</time>
      </trkpt>
      <trkpt lat="43.58611" lon="6.39222">
        <ele>632.6</ele>
        <time>2026-02-22T13:39:56Z</time>
      </trkpt>
      <trkpt lat="43.58611" lon="6.39222">
        <ele>632.6</ele>
        <time>2026-02-22T13:39:57Z</time>
      </trkpt>
      <trkpt lat="43.58611" lon="6.39222">
        <ele>632.6</ele>
        <time>2026-02-22T13:39:58Z</time>
      </trkpt>
      <trkpt lat="43.58611" lon="6.39223">
        <ele>632.6</ele>
        <time>2026-02-22T13:39:59Z</time>
      </trkpt>
      <trkpt lat="43.58612" lon="6.39223">
        <ele>632.6</ele>
        <time>2026-02-22T13:40:00Z</time>
      </trkpt>
      <trkpt lat="43.58612" lon="6.39222">
        <ele>632.6</ele>
        <time>2026-02-22T13:40:01Z</time>
      </trkpt>
      <trkpt lat="43.58613" lon="6.39222">
        <ele>632.6</ele>
        <time>2026-02-22T13:40:02Z</time>
      </trkpt>
      <trkpt lat="43.58613" lon="6.39222">
        <ele>632.7</ele>
        <time>2026-02-22T13:40:03Z</time>
      </trkpt>
      <trkpt lat="43.58613" lon="6.39221">
        <ele>632.7</ele>
        <time>2026-02-22T13:40:04Z</time>
      </trkpt>
      <trkpt lat="43.58613" lon="6.39221">
        <ele>632.5</ele>
        <time>2026-02-22T13:40:05Z</time>
      </trkpt>
      <trkpt lat="43.58613" lon="6.39221">
        <ele>632.4</ele>
        <time>2026-02-22T13:40:06Z</time>
      </trkpt>
      <trkpt lat="43.58613" lon="6.39221">
        <ele>632.3</ele>
        <time>2026-02-22T13:40:07Z</time>
      </trkpt>
      <trkpt lat="43.58613" lon="6.39221">
        <ele>632.3</ele>
        <time>2026-02-22T13:40:08Z</time>
      </trkpt>
      <trkpt lat="43.58613" lon="6.3922">
        <ele>632.3</ele>
        <time>2026-02-22T13:40:09Z</time>
      </trkpt>
      <trkpt lat="43.58614" lon="6.3922">
        <ele>632.3</ele>
        <time>2026-02-22T13:40:10Z</time>
      </trkpt>
      <trkpt lat="43.58614" lon="6.3922">
        <ele>632.3</ele>
        <time>2026-02-22T13:40:11Z</time>
      </trkpt>
      <trkpt lat="43.58614" lon="6.3922">
        <ele>632.4</ele>
        <time>2026-02-22T13:40:12Z</time>
      </trkpt>
      <trkpt lat="43.58614" lon="6.3922">
        <ele>632.4</ele>
        <time>2026-02-22T13:40:13Z</time>
      </trkpt>
      <trkpt lat="43.58614" lon="6.39219">
        <ele>632.5</ele>
        <time>2026-02-22T13:40:14Z</time>
      </trkpt>
      <trkpt lat="43.58614" lon="6.39218">
        <ele>632.5</ele>
        <time>2026-02-22T13:40:15Z</time>
      </trkpt>
      <trkpt lat="43.58614" lon="6.39218">
        <ele>632.4</ele>
        <time>2026-02-22T13:40:16Z</time>
      </trkpt>
      <trkpt lat="43.58615" lon="6.39217">
        <ele>632.4</ele>
        <time>2026-02-22T13:40:17Z</time>
      </trkpt>
      <trkpt lat="43.58615" lon="6.39216">
        <ele>632.5</ele>
        <time>2026-02-22T13:40:18Z</time>
      </trkpt>
      <trkpt lat="43.58615" lon="6.39216">
        <ele>632.5</ele>
        <time>2026-02-22T13:40:19Z</time>
      </trkpt>
      <trkpt lat="43.58615" lon="6.39215">
        <ele>632.5</ele>
        <time>2026-02-22T13:40:20Z</time>
      </trkpt>
      <trkpt lat="43.58615" lon="6.39214">
        <ele>632.4</ele>
        <time>2026-02-22T13:40:21Z</time>
      </trkpt>
      <trkpt lat="43.58615" lon="6.39214">
        <ele>632.4</ele>
        <time>2026-02-22T13:40:22Z</time>
      </trkpt>
      <trkpt lat="43.58615" lon="6.39213">
        <ele>632.5</ele>
        <time>2026-02-22T13:40:23Z</time>
      </trkpt>
      <trkpt lat="43.58615" lon="6.39212">
        <ele>632.5</ele>
        <time>2026-02-22T13:40:24Z</time>
      </trkpt>
      <trkpt lat="43.58614" lon="6.39211">
        <ele>632.5</ele>
        <time>2026-02-22T13:40:25Z</time>
      </trkpt>
      <trkpt lat="43.58614" lon="6.3921">
        <ele>632.5</ele>
        <time>2026-02-22T13:40:26Z</time>
      </trkpt>
      <trkpt lat="43.58614" lon="6.3921">
        <ele>632.5</ele>
        <time>2026-02-22T13:40:27Z</time>
      </trkpt>
      <trkpt lat="43.58614" lon="6.3921">
        <ele>632.5</ele>
        <time>2026-02-22T13:40:28Z</time>
      </trkpt>
      <trkpt lat="43.58614" lon="6.3921">
        <ele>632.4</ele>
        <time>2026-02-22T13:40:29Z</time>
      </trkpt>
      <trkpt lat="43.58614" lon="6.3921">
        <ele>632.4</ele>
        <time>2026-02-22T13:40:30Z</time>
      </trkpt>
      <trkpt lat="43.58615" lon="6.3921">
        <ele>632.3</ele>
        <time>2026-02-22T13:40:31Z</time>
      </trkpt>
      <trkpt lat="43.58615" lon="6.3921">
        <ele>632.3</ele>
        <time>2026-02-22T13:40:32Z</time>
      </trkpt>
      <trkpt lat="43.58615" lon="6.39209">
        <ele>632.3</ele>
        <time>2026-02-22T13:40:33Z</time>
      </trkpt>
      <trkpt lat="43.58615" lon="6.39209">
        <ele>632.3</ele>
        <time>2026-02-22T13:40:34Z</time>
      </trkpt>
      <trkpt lat="43.58615" lon="6.39209">
        <ele>632.3</ele>
        <time>2026-02-22T13:40:35Z</time>
      </trkpt>
      <trkpt lat="43.58615" lon="6.39209">
        <ele>632.3</ele>
        <time>2026-02-22T13:40:36Z</time>
      </trkpt>
      <trkpt lat="43.58615" lon="6.39209">
        <ele>632.3</ele>
        <time>2026-02-22T13:40:37Z</time>
      </trkpt>
      <trkpt lat="43.58615" lon="6.39208">
        <ele>632.3</ele>
        <time>2026-02-22T13:40:38Z</time>
      </trkpt>
      <trkpt lat="43.58615" lon="6.39208">
        <ele>632.3</ele>
        <time>2026-02-22T13:40:39Z</time>
      </trkpt>
      <trkpt lat="43.58615" lon="6.39206">
        <ele>632.3</ele>
        <time>2026-02-22T13:40:40Z</time>
      </trkpt>
      <trkpt lat="43.58614" lon="6.39205">
        <ele>632.4</ele>
        <time>2026-02-22T13:40:41Z</time>
      </trkpt>
      <trkpt lat="43.58614" lon="6.39205">
        <ele>632.4</ele>
        <time>2026-02-22T13:40:42Z</time>
      </trkpt>
      <trkpt lat="43.58614" lon="6.39204">
        <ele>632.5</ele>
        <time>2026-02-22T13:40:43Z</time>
      </trkpt>
      <trkpt lat="43.58613" lon="6.39204">
        <ele>632.5</ele>
        <time>2026-02-22T13:40:44Z</time>
      </trkpt>
      <trkpt lat="43.58613" lon="6.39203">
        <ele>632.6</ele>
        <time>2026-02-22T13:40:45Z</time>
      </trkpt>
      <trkpt lat="43.58613" lon="6.39202">
        <ele>632.5</ele>
        <time>2026-02-22T13:40:46Z</time>
      </trkpt>
      <trkpt lat="43.58612" lon="6.392">
        <ele>632.5</ele>
        <time>2026-02-22T13:40:47Z</time>
      </trkpt>
      <trkpt lat="43.58612" lon="6.392">
        <ele>632.5</ele>
        <time>2026-02-22T13:40:48Z</time>
      </trkpt>
      <trkpt lat="43.58612" lon="6.39199">
        <ele>632.6</ele>
        <time>2026-02-22T13:40:49Z</time>
      </trkpt>
      <trkpt lat="43.5861" lon="6.39198">
        <ele>632.5</ele>
        <time>2026-02-22T13:40:50Z</time>
      </trkpt>
      <trkpt lat="43.5861" lon="6.39197">
        <ele>632.6</ele>
        <time>2026-02-22T13:40:51Z</time>
      </trkpt>
      <trkpt lat="43.58609" lon="6.39197">
        <ele>632.6</ele>
        <time>2026-02-22T13:40:52Z</time>
      </trkpt>
      <trkpt lat="43.58609" lon="6.39196">
        <ele>632.7</ele>
        <time>2026-02-22T13:40:53Z</time>
      </trkpt>
      <trkpt lat="43.5861" lon="6.39195">
        <ele>632.7</ele>
        <time>2026-02-22T13:40:54Z</time>
      </trkpt>
      <trkpt lat="43.5861" lon="6.39194">
        <ele>632.8</ele>
        <time>2026-02-22T13:40:55Z</time>
      </trkpt>
      <trkpt lat="43.5861" lon="6.39193">
        <ele>632.8</ele>
        <time>2026-02-22T13:40:56Z</time>
      </trkpt>
      <trkpt lat="43.58609" lon="6.39192">
        <ele>632.9</ele>
        <time>2026-02-22T13:40:57Z</time>
      </trkpt>
      <trkpt lat="43.58609" lon="6.39191">
        <ele>633</ele>
        <time>2026-02-22T13:40:58Z</time>
      </trkpt>
      <trkpt lat="43.58609" lon="6.3919">
        <ele>633.1</ele>
        <time>2026-02-22T13:40:59Z</time>
      </trkpt>
      <trkpt lat="43.5861" lon="6.39188">
        <ele>633.1</ele>
        <time>2026-02-22T13:41:00Z</time>
      </trkpt>
      <trkpt lat="43.5861" lon="6.39187">
        <ele>632.8</ele>
        <time>2026-02-22T13:41:01Z</time>
      </trkpt>
      <trkpt lat="43.58609" lon="6.39186">
        <ele>632.8</ele>
        <time>2026-02-22T13:41:02Z</time>
      </trkpt>
      <trkpt lat="43.58609" lon="6.39185">
        <ele>632.9</ele>
        <time>2026-02-22T13:41:03Z</time>
      </trkpt>
      <trkpt lat="43.58608" lon="6.39184">
        <ele>632.9</ele>
        <time>2026-02-22T13:41:04Z</time>
      </trkpt>
      <trkpt lat="43.58608" lon="6.39184">
        <ele>633.1</ele>
        <time>2026-02-22T13:41:05Z</time>
      </trkpt>
      <trkpt lat="43.58608" lon="6.39182">
        <ele>633.2</ele>
        <time>2026-02-22T13:41:06Z</time>
      </trkpt>
      <trkpt lat="43.58608" lon="6.3918">
        <ele>633.3</ele>
        <time>2026-02-22T13:41:07Z</time>
      </trkpt>
      <trkpt lat="43.58608" lon="6.39179">
        <ele>633.4</ele>
        <time>2026-02-22T13:41:08Z</time>
      </trkpt>
      <trkpt lat="43.58608" lon="6.39178">
        <ele>633.4</ele>
        <time>2026-02-22T13:41:09Z</time>
      </trkpt>
      <trkpt lat="43.58608" lon="6.39177">
        <ele>633.4</ele>
        <time>2026-02-22T13:41:10Z</time>
      </trkpt>
      <trkpt lat="43.58608" lon="6.39177">
        <ele>633.4</ele>
        <time>2026-02-22T13:41:11Z</time>
      </trkpt>
      <trkpt lat="43.58608" lon="6.39176">
        <ele>633.4</ele>
        <time>2026-02-22T13:41:12Z</time>
      </trkpt>
      <trkpt lat="43.58608" lon="6.39175">
        <ele>633.4</ele>
        <time>2026-02-22T13:41:13Z</time>
      </trkpt>
      <trkpt lat="43.58608" lon="6.39175">
        <ele>633.5</ele>
        <time>2026-02-22T13:41:14Z</time>
      </trkpt>
      <trkpt lat="43.58608" lon="6.39174">
        <ele>633.4</ele>
        <time>2026-02-22T13:41:15Z</time>
      </trkpt>
      <trkpt lat="43.58607" lon="6.39173">
        <ele>633.3</ele>
        <time>2026-02-22T13:41:16Z</time>
      </trkpt>
      <trkpt lat="43.58607" lon="6.39172">
        <ele>633.3</ele>
        <time>2026-02-22T13:41:17Z</time>
      </trkpt>
      <trkpt lat="43.58607" lon="6.39171">
        <ele>633.3</ele>
        <time>2026-02-22T13:41:18Z</time>
      </trkpt>
      <trkpt lat="43.58606" lon="6.3917">
        <ele>633.1</ele>
        <time>2026-02-22T13:41:19Z</time>
      </trkpt>
      <trkpt lat="43.58606" lon="6.39168">
        <ele>633.1</ele>
        <time>2026-02-22T13:41:20Z</time>
      </trkpt>
      <trkpt lat="43.58606" lon="6.39167">
        <ele>632.9</ele>
        <time>2026-02-22T13:41:21Z</time>
      </trkpt>
      <trkpt lat="43.58606" lon="6.39166">
        <ele>633</ele>
        <time>2026-02-22T13:41:22Z</time>
      </trkpt>
      <trkpt lat="43.58605" lon="6.39164">
        <ele>633</ele>
        <time>2026-02-22T13:41:23Z</time>
      </trkpt>
      <trkpt lat="43.58605" lon="6.39163">
        <ele>633</ele>
        <time>2026-02-22T13:41:24Z</time>
      </trkpt>
      <trkpt lat="43.58604" lon="6.39162">
        <ele>632.9</ele>
        <time>2026-02-22T13:41:25Z</time>
      </trkpt>
      <trkpt lat="43.58603" lon="6.39162">
        <ele>632.8</ele>
        <time>2026-02-22T13:41:26Z</time>
      </trkpt>
      <trkpt lat="43.58602" lon="6.39162">
        <ele>632.9</ele>
        <time>2026-02-22T13:41:27Z</time>
      </trkpt>
      <trkpt lat="43.58602" lon="6.39161">
        <ele>633</ele>
        <time>2026-02-22T13:41:28Z</time>
      </trkpt>
      <trkpt lat="43.58602" lon="6.39161">
        <ele>633.1</ele>
        <time>2026-02-22T13:41:29Z</time>
      </trkpt>
      <trkpt lat="43.58602" lon="6.39161">
        <ele>633.1</ele>
        <time>2026-02-22T13:41:30Z</time>
      </trkpt>
      <trkpt lat="43.58602" lon="6.39161">
        <ele>633.2</ele>
        <time>2026-02-22T13:41:31Z</time>
      </trkpt>
      <trkpt lat="43.58602" lon="6.39161">
        <ele>633.2</ele>
        <time>2026-02-22T13:41:32Z</time>
      </trkpt>
      <trkpt lat="43.58602" lon="6.39161">
        <ele>633.1</ele>
        <time>2026-02-22T13:41:33Z</time>
      </trkpt>
      <trkpt lat="43.58601" lon="6.3916">
        <ele>633.1</ele>
        <time>2026-02-22T13:41:34Z</time>
      </trkpt>
      <trkpt lat="43.58601" lon="6.39161">
        <ele>633.1</ele>
        <time>2026-02-22T13:41:35Z</time>
      </trkpt>
      <trkpt lat="43.586" lon="6.39161">
        <ele>633.1</ele>
        <time>2026-02-22T13:41:36Z</time>
      </trkpt>
      <trkpt lat="43.586" lon="6.39161">
        <ele>633.1</ele>
        <time>2026-02-22T13:41:37Z</time>
      </trkpt>
      <trkpt lat="43.586" lon="6.39161">
        <ele>633</ele>
        <time>2026-02-22T13:41:38Z</time>
      </trkpt>
      <trkpt lat="43.586" lon="6.39162">
        <ele>633.1</ele>
        <time>2026-02-22T13:41:39Z</time>
      </trkpt>
      <trkpt lat="43.586" lon="6.39162">
        <ele>633.1</ele>
        <time>2026-02-22T13:41:40Z</time>
      </trkpt>
      <trkpt lat="43.586" lon="6.39162">
        <ele>633.1</ele>
        <time>2026-02-22T13:41:41Z</time>
      </trkpt>
      <trkpt lat="43.586" lon="6.39161">
        <ele>633.1</ele>
        <time>2026-02-22T13:41:42Z</time>
      </trkpt>
      <trkpt lat="43.58599" lon="6.3916">
        <ele>633.1</ele>
        <time>2026-02-22T13:41:43Z</time>
      </trkpt>
      <trkpt lat="43.58599" lon="6.39159">
        <ele>633.1</ele>
        <time>2026-02-22T13:41:44Z</time>
      </trkpt>
      <trkpt lat="43.58598" lon="6.39159">
        <ele>632.9</ele>
        <time>2026-02-22T13:41:45Z</time>
      </trkpt>
      <trkpt lat="43.58598" lon="6.39158">
        <ele>633</ele>
        <time>2026-02-22T13:41:46Z</time>
      </trkpt>
      <trkpt lat="43.58598" lon="6.39157">
        <ele>633</ele>
        <time>2026-02-22T13:41:47Z</time>
      </trkpt>
      <trkpt lat="43.58598" lon="6.39156">
        <ele>633</ele>
        <time>2026-02-22T13:41:48Z</time>
      </trkpt>
      <trkpt lat="43.58598" lon="6.39154">
        <ele>633.1</ele>
        <time>2026-02-22T13:41:49Z</time>
      </trkpt>
      <trkpt lat="43.58597" lon="6.39154">
        <ele>633.1</ele>
        <time>2026-02-22T13:41:50Z</time>
      </trkpt>
      <trkpt lat="43.58597" lon="6.39153">
        <ele>633.2</ele>
        <time>2026-02-22T13:41:51Z</time>
      </trkpt>
      <trkpt lat="43.58597" lon="6.39152">
        <ele>633.1</ele>
        <time>2026-02-22T13:41:52Z</time>
      </trkpt>
      <trkpt lat="43.58597" lon="6.39152">
        <ele>633.1</ele>
        <time>2026-02-22T13:41:53Z</time>
      </trkpt>
      <trkpt lat="43.58597" lon="6.39152">
        <ele>633.1</ele>
        <time>2026-02-22T13:41:54Z</time>
      </trkpt>
      <trkpt lat="43.58597" lon="6.39151">
        <ele>633.1</ele>
        <time>2026-02-22T13:41:55Z</time>
      </trkpt>
      <trkpt lat="43.58597" lon="6.39151">
        <ele>633.1</ele>
        <time>2026-02-22T13:41:56Z</time>
      </trkpt>
      <trkpt lat="43.58597" lon="6.39151">
        <ele>633</ele>
        <time>2026-02-22T13:41:57Z</time>
      </trkpt>
      <trkpt lat="43.58597" lon="6.39151">
        <ele>633.1</ele>
        <time>2026-02-22T13:41:58Z</time>
      </trkpt>
      <trkpt lat="43.58597" lon="6.3915">
        <ele>633</ele>
        <time>2026-02-22T13:41:59Z</time>
      </trkpt>
      <trkpt lat="43.58596" lon="6.39149">
        <ele>632.9</ele>
        <time>2026-02-22T13:42:00Z</time>
      </trkpt>
      <trkpt lat="43.58596" lon="6.39149">
        <ele>632.9</ele>
        <time>2026-02-22T13:42:01Z</time>
      </trkpt>
      <trkpt lat="43.58596" lon="6.39148">
        <ele>632.7</ele>
        <time>2026-02-22T13:42:02Z</time>
      </trkpt>
      <trkpt lat="43.58596" lon="6.39147">
        <ele>632.6</ele>
        <time>2026-02-22T13:42:03Z</time>
      </trkpt>
      <trkpt lat="43.58595" lon="6.39146">
        <ele>632.5</ele>
        <time>2026-02-22T13:42:04Z</time>
      </trkpt>
      <trkpt lat="43.58595" lon="6.39144">
        <ele>632.4</ele>
        <time>2026-02-22T13:42:05Z</time>
      </trkpt>
      <trkpt lat="43.58594" lon="6.39143">
        <ele>632.5</ele>
        <time>2026-02-22T13:42:06Z</time>
      </trkpt>
      <trkpt lat="43.58595" lon="6.39141">
        <ele>632.6</ele>
        <time>2026-02-22T13:42:07Z</time>
      </trkpt>
      <trkpt lat="43.58595" lon="6.3914">
        <ele>632.7</ele>
        <time>2026-02-22T13:42:08Z</time>
      </trkpt>
      <trkpt lat="43.58595" lon="6.39139">
        <ele>632.8</ele>
        <time>2026-02-22T13:42:09Z</time>
      </trkpt>
      <trkpt lat="43.58594" lon="6.39138">
        <ele>633</ele>
        <time>2026-02-22T13:42:10Z</time>
      </trkpt>
      <trkpt lat="43.58594" lon="6.39138">
        <ele>633.1</ele>
        <time>2026-02-22T13:42:11Z</time>
      </trkpt>
      <trkpt lat="43.58593" lon="6.39137">
        <ele>633.2</ele>
        <time>2026-02-22T13:42:12Z</time>
      </trkpt>
      <trkpt lat="43.58592" lon="6.39136">
        <ele>633.3</ele>
        <time>2026-02-22T13:42:13Z</time>
      </trkpt>
      <trkpt lat="43.58591" lon="6.39135">
        <ele>633.5</ele>
        <time>2026-02-22T13:42:14Z</time>
      </trkpt>
      <trkpt lat="43.5859" lon="6.39134">
        <ele>633.6</ele>
        <time>2026-02-22T13:42:15Z</time>
      </trkpt>
      <trkpt lat="43.58589" lon="6.39134">
        <ele>633.8</ele>
        <time>2026-02-22T13:42:16Z</time>
      </trkpt>
      <trkpt lat="43.58588" lon="6.39134">
        <ele>634</ele>
        <time>2026-02-22T13:42:17Z</time>
      </trkpt>
      <trkpt lat="43.58587" lon="6.39133">
        <ele>634.1</ele>
        <time>2026-02-22T13:42:18Z</time>
      </trkpt>
      <trkpt lat="43.58587" lon="6.39132">
        <ele>634.2</ele>
        <time>2026-02-22T13:42:19Z</time>
      </trkpt>
      <trkpt lat="43.58586" lon="6.39132">
        <ele>634.3</ele>
        <time>2026-02-22T13:42:20Z</time>
      </trkpt>
      <trkpt lat="43.58586" lon="6.39131">
        <ele>634.5</ele>
        <time>2026-02-22T13:42:21Z</time>
      </trkpt>
      <trkpt lat="43.58586" lon="6.3913">
        <ele>634.6</ele>
        <time>2026-02-22T13:42:22Z</time>
      </trkpt>
      <trkpt lat="43.58585" lon="6.39129">
        <ele>634.6</ele>
        <time>2026-02-22T13:42:23Z</time>
      </trkpt>
      <trkpt lat="43.58585" lon="6.39128">
        <ele>634.6</ele>
        <time>2026-02-22T13:42:24Z</time>
      </trkpt>
      <trkpt lat="43.58585" lon="6.39128">
        <ele>634.7</ele>
        <time>2026-02-22T13:42:25Z</time>
      </trkpt>
      <trkpt lat="43.58584" lon="6.39127">
        <ele>634.8</ele>
        <time>2026-02-22T13:42:26Z</time>
      </trkpt>
      <trkpt lat="43.58583" lon="6.39126">
        <ele>634.9</ele>
        <time>2026-02-22T13:42:27Z</time>
      </trkpt>
      <trkpt lat="43.58582" lon="6.39126">
        <ele>635</ele>
        <time>2026-02-22T13:42:28Z</time>
      </trkpt>
      <trkpt lat="43.58582" lon="6.39126">
        <ele>635</ele>
        <time>2026-02-22T13:42:29Z</time>
      </trkpt>
      <trkpt lat="43.58581" lon="6.39125">
        <ele>634.9</ele>
        <time>2026-02-22T13:42:30Z</time>
      </trkpt>
      <trkpt lat="43.58581" lon="6.39124">
        <ele>635.1</ele>
        <time>2026-02-22T13:42:31Z</time>
      </trkpt>
      <trkpt lat="43.58581" lon="6.39124">
        <ele>635.2</ele>
        <time>2026-02-22T13:42:32Z</time>
      </trkpt>
      <trkpt lat="43.5858" lon="6.39123">
        <ele>635.3</ele>
        <time>2026-02-22T13:42:33Z</time>
      </trkpt>
      <trkpt lat="43.5858" lon="6.39123">
        <ele>635.3</ele>
        <time>2026-02-22T13:42:34Z</time>
      </trkpt>
      <trkpt lat="43.5858" lon="6.39122">
        <ele>635.4</ele>
        <time>2026-02-22T13:42:35Z</time>
      </trkpt>
      <trkpt lat="43.5858" lon="6.39121">
        <ele>635.4</ele>
        <time>2026-02-22T13:42:36Z</time>
      </trkpt>
      <trkpt lat="43.5858" lon="6.3912">
        <ele>635.5</ele>
        <time>2026-02-22T13:42:37Z</time>
      </trkpt>
      <trkpt lat="43.5858" lon="6.3912">
        <ele>635.4</ele>
        <time>2026-02-22T13:42:38Z</time>
      </trkpt>
      <trkpt lat="43.5858" lon="6.39119">
        <ele>635.3</ele>
        <time>2026-02-22T13:42:39Z</time>
      </trkpt>
      <trkpt lat="43.5858" lon="6.39119">
        <ele>635.4</ele>
        <time>2026-02-22T13:42:40Z</time>
      </trkpt>
      <trkpt lat="43.58579" lon="6.39118">
        <ele>635.4</ele>
        <time>2026-02-22T13:42:41Z</time>
      </trkpt>
      <trkpt lat="43.58579" lon="6.39117">
        <ele>635.4</ele>
        <time>2026-02-22T13:42:42Z</time>
      </trkpt>
      <trkpt lat="43.58578" lon="6.39117">
        <ele>635.4</ele>
        <time>2026-02-22T13:42:43Z</time>
      </trkpt>
      <trkpt lat="43.58578" lon="6.39116">
        <ele>635.4</ele>
        <time>2026-02-22T13:42:44Z</time>
      </trkpt>
      <trkpt lat="43.58578" lon="6.39116">
        <ele>635.3</ele>
        <time>2026-02-22T13:42:45Z</time>
      </trkpt>
      <trkpt lat="43.58578" lon="6.39116">
        <ele>635.4</ele>
        <time>2026-02-22T13:42:46Z</time>
      </trkpt>
      <trkpt lat="43.58578" lon="6.39116">
        <ele>635.4</ele>
        <time>2026-02-22T13:42:47Z</time>
      </trkpt>
      <trkpt lat="43.58578" lon="6.39116">
        <ele>635.4</ele>
        <time>2026-02-22T13:42:48Z</time>
      </trkpt>
      <trkpt lat="43.58578" lon="6.39116">
        <ele>635.4</ele>
        <time>2026-02-22T13:42:49Z</time>
      </trkpt>
      <trkpt lat="43.58578" lon="6.39116">
        <ele>635.5</ele>
        <time>2026-02-22T13:42:50Z</time>
      </trkpt>
      <trkpt lat="43.58577" lon="6.39116">
        <ele>635.6</ele>
        <time>2026-02-22T13:42:51Z</time>
      </trkpt>
      <trkpt lat="43.58577" lon="6.39116">
        <ele>635.6</ele>
        <time>2026-02-22T13:42:52Z</time>
      </trkpt>
      <trkpt lat="43.58577" lon="6.39116">
        <ele>635.6</ele>
        <time>2026-02-22T13:42:53Z</time>
      </trkpt>
      <trkpt lat="43.58577" lon="6.39115">
        <ele>635.6</ele>
        <time>2026-02-22T13:42:54Z</time>
      </trkpt>
      <trkpt lat="43.58577" lon="6.39115">
        <ele>635.6</ele>
        <time>2026-02-22T13:42:55Z</time>
      </trkpt>
      <trkpt lat="43.58577" lon="6.39115">
        <ele>635.7</ele>
        <time>2026-02-22T13:42:56Z</time>
      </trkpt>
      <trkpt lat="43.58577" lon="6.39115">
        <ele>635.7</ele>
        <time>2026-02-22T13:42:57Z</time>
      </trkpt>
      <trkpt lat="43.58577" lon="6.39115">
        <ele>635.7</ele>
        <time>2026-02-22T13:42:58Z</time>
      </trkpt>
      <trkpt lat="43.58577" lon="6.39115">
        <ele>635.7</ele>
        <time>2026-02-22T13:42:59Z</time>
      </trkpt>
      <trkpt lat="43.58577" lon="6.39115">
        <ele>635.7</ele>
        <time>2026-02-22T13:43:00Z</time>
      </trkpt>
      <trkpt lat="43.58577" lon="6.39115">
        <ele>635.7</ele>
        <time>2026-02-22T13:43:01Z</time>
      </trkpt>
      <trkpt lat="43.58577" lon="6.39115">
        <ele>635.7</ele>
        <time>2026-02-22T13:43:02Z</time>
      </trkpt>
      <trkpt lat="43.58577" lon="6.39115">
        <ele>635.6</ele>
        <time>2026-02-22T13:43:03Z</time>
      </trkpt>
      <trkpt lat="43.58577" lon="6.39115">
        <ele>635.6</ele>
        <time>2026-02-22T13:43:04Z</time>
      </trkpt>
      <trkpt lat="43.58576" lon="6.39114">
        <ele>635.6</ele>
        <time>2026-02-22T13:43:05Z</time>
      </trkpt>
      <trkpt lat="43.58576" lon="6.39115">
        <ele>635.5</ele>
        <time>2026-02-22T13:43:06Z</time>
      </trkpt>
      <trkpt lat="43.58576" lon="6.39115">
        <ele>635.5</ele>
        <time>2026-02-22T13:43:07Z</time>
      </trkpt>
      <trkpt lat="43.58576" lon="6.39115">
        <ele>635.5</ele>
        <time>2026-02-22T13:43:08Z</time>
      </trkpt>
      <trkpt lat="43.58576" lon="6.39115">
        <ele>635.5</ele>
        <time>2026-02-22T13:43:09Z</time>
      </trkpt>
      <trkpt lat="43.58576" lon="6.39115">
        <ele>635.5</ele>
        <time>2026-02-22T13:43:10Z</time>
      </trkpt>
      <trkpt lat="43.58576" lon="6.39115">
        <ele>635.5</ele>
        <time>2026-02-22T13:43:11Z</time>
      </trkpt>
      <trkpt lat="43.58576" lon="6.39115">
        <ele>635.5</ele>
        <time>2026-02-22T13:43:12Z</time>
      </trkpt>
      <trkpt lat="43.58576" lon="6.39115">
        <ele>635.6</ele>
        <time>2026-02-22T13:43:13Z</time>
      </trkpt>
      <trkpt lat="43.58576" lon="6.39115">
        <ele>635.6</ele>
        <time>2026-02-22T13:43:14Z</time>
      </trkpt>
      <trkpt lat="43.58576" lon="6.39115">
        <ele>635.7</ele>
        <time>2026-02-22T13:43:15Z</time>
      </trkpt>
      <trkpt lat="43.58576" lon="6.39115">
        <ele>635.6</ele>
        <time>2026-02-22T13:43:16Z</time>
      </trkpt>
      <trkpt lat="43.58576" lon="6.39116">
        <ele>635.7</ele>
        <time>2026-02-22T13:43:17Z</time>
      </trkpt>
      <trkpt lat="43.58576" lon="6.39117">
        <ele>635.7</ele>
        <time>2026-02-22T13:43:18Z</time>
      </trkpt>
      <trkpt lat="43.58577" lon="6.39118">
        <ele>635.7</ele>
        <time>2026-02-22T13:43:19Z</time>
      </trkpt>
      <trkpt lat="43.58576" lon="6.39119">
        <ele>635.7</ele>
        <time>2026-02-22T13:43:20Z</time>
      </trkpt>
      <trkpt lat="43.58576" lon="6.39119">
        <ele>635.8</ele>
        <time>2026-02-22T13:43:21Z</time>
      </trkpt>
      <trkpt lat="43.58576" lon="6.39119">
        <ele>635.7</ele>
        <time>2026-02-22T13:43:22Z</time>
      </trkpt>
      <trkpt lat="43.58576" lon="6.39118">
        <ele>635.7</ele>
        <time>2026-02-22T13:43:23Z</time>
      </trkpt>
      <trkpt lat="43.58576" lon="6.39117">
        <ele>635.7</ele>
        <time>2026-02-22T13:43:24Z</time>
      </trkpt>
      <trkpt lat="43.58576" lon="6.39117">
        <ele>635.8</ele>
        <time>2026-02-22T13:43:25Z</time>
      </trkpt>
      <trkpt lat="43.58576" lon="6.39116">
        <ele>635.8</ele>
        <time>2026-02-22T13:43:26Z</time>
      </trkpt>
      <trkpt lat="43.58576" lon="6.39115">
        <ele>635.8</ele>
        <time>2026-02-22T13:43:27Z</time>
      </trkpt>
      <trkpt lat="43.58576" lon="6.39115">
        <ele>635.8</ele>
        <time>2026-02-22T13:43:28Z</time>
      </trkpt>
      <trkpt lat="43.58576" lon="6.39115">
        <ele>635.8</ele>
        <time>2026-02-22T13:43:29Z</time>
      </trkpt>
      <trkpt lat="43.58577" lon="6.39115">
        <ele>635.8</ele>
        <time>2026-02-22T13:43:30Z</time>
      </trkpt>
      <trkpt lat="43.58577" lon="6.39115">
        <ele>635.8</ele>
        <time>2026-02-22T13:43:31Z</time>
      </trkpt>
      <trkpt lat="43.58576" lon="6.39115">
        <ele>635.8</ele>
        <time>2026-02-22T13:43:32Z</time>
      </trkpt>
      <trkpt lat="43.58576" lon="6.39115">
        <ele>635.8</ele>
        <time>2026-02-22T13:43:33Z</time>
      </trkpt>
      <trkpt lat="43.58576" lon="6.39115">
        <ele>635.8</ele>
        <time>2026-02-22T13:43:34Z</time>
      </trkpt>
      <trkpt lat="43.58576" lon="6.39115">
        <ele>635.8</ele>
        <time>2026-02-22T13:43:35Z</time>
      </trkpt>
      <trkpt lat="43.58576" lon="6.39115">
        <ele>635.8</ele>
        <time>2026-02-22T13:43:36Z</time>
      </trkpt>
      <trkpt lat="43.58576" lon="6.39114">
        <ele>635.8</ele>
        <time>2026-02-22T13:43:37Z</time>
      </trkpt>
      <trkpt lat="43.58576" lon="6.39114">
        <ele>635.7</ele>
        <time>2026-02-22T13:43:38Z</time>
      </trkpt>
      <trkpt lat="43.58576" lon="6.39113">
        <ele>635.7</ele>
        <time>2026-02-22T13:43:39Z</time>
      </trkpt>
      <trkpt lat="43.58576" lon="6.39113">
        <ele>635.7</ele>
        <time>2026-02-22T13:43:40Z</time>
      </trkpt>
      <trkpt lat="43.58576" lon="6.39113">
        <ele>635.6</ele>
        <time>2026-02-22T13:43:41Z</time>
      </trkpt>
      <trkpt lat="43.58576" lon="6.39113">
        <ele>635.6</ele>
        <time>2026-02-22T13:43:42Z</time>
      </trkpt>
      <trkpt lat="43.58576" lon="6.39113">
        <ele>635.6</ele>
        <time>2026-02-22T13:43:43Z</time>
      </trkpt>
      <trkpt lat="43.58577" lon="6.39113">
        <ele>635.5</ele>
        <time>2026-02-22T13:43:44Z</time>
      </trkpt>
      <trkpt lat="43.58577" lon="6.39113">
        <ele>635.6</ele>
        <time>2026-02-22T13:43:45Z</time>
      </trkpt>
      <trkpt lat="43.58577" lon="6.39113">
        <ele>635.6</ele>
        <time>2026-02-22T13:43:46Z</time>
      </trkpt>
      <trkpt lat="43.58577" lon="6.39113">
        <ele>635.6</ele>
        <time>2026-02-22T13:43:47Z</time>
      </trkpt>
      <trkpt lat="43.58577" lon="6.39113">
        <ele>635.6</ele>
        <time>2026-02-22T13:43:48Z</time>
      </trkpt>
      <trkpt lat="43.58577" lon="6.39113">
        <ele>635.6</ele>
        <time>2026-02-22T13:43:49Z</time>
      </trkpt>
      <trkpt lat="43.58577" lon="6.39113">
        <ele>635.5</ele>
        <time>2026-02-22T13:43:50Z</time>
      </trkpt>
      <trkpt lat="43.58577" lon="6.39113">
        <ele>635.4</ele>
        <time>2026-02-22T13:43:51Z</time>
      </trkpt>
      <trkpt lat="43.58577" lon="6.39113">
        <ele>635.3</ele>
        <time>2026-02-22T13:43:52Z</time>
      </trkpt>
      <trkpt lat="43.58577" lon="6.39113">
        <ele>635.3</ele>
        <time>2026-02-22T13:43:53Z</time>
      </trkpt>
      <trkpt lat="43.58577" lon="6.39112">
        <ele>635.3</ele>
        <time>2026-02-22T13:43:54Z</time>
      </trkpt>
      <trkpt lat="43.58577" lon="6.39113">
        <ele>635.3</ele>
        <time>2026-02-22T13:43:55Z</time>
      </trkpt>
      <trkpt lat="43.58577" lon="6.39113">
        <ele>635.3</ele>
        <time>2026-02-22T13:43:56Z</time>
      </trkpt>
      <trkpt lat="43.58577" lon="6.39113">
        <ele>635.3</ele>
        <time>2026-02-22T13:43:57Z</time>
      </trkpt>
      <trkpt lat="43.58577" lon="6.39113">
        <ele>635.4</ele>
        <time>2026-02-22T13:43:58Z</time>
      </trkpt>
      <trkpt lat="43.58577" lon="6.39113">
        <ele>635.4</ele>
        <time>2026-02-22T13:43:59Z</time>
      </trkpt>
      <trkpt lat="43.58577" lon="6.39113">
        <ele>635.4</ele>
        <time>2026-02-22T13:44:00Z</time>
      </trkpt>
      <trkpt lat="43.58577" lon="6.39113">
        <ele>635.5</ele>
        <time>2026-02-22T13:44:01Z</time>
      </trkpt>
      <trkpt lat="43.58577" lon="6.39113">
        <ele>635.5</ele>
        <time>2026-02-22T13:44:02Z</time>
      </trkpt>
      <trkpt lat="43.58577" lon="6.39113">
        <ele>635.6</ele>
        <time>2026-02-22T13:44:03Z</time>
      </trkpt>
      <trkpt lat="43.58577" lon="6.39113">
        <ele>635.7</ele>
        <time>2026-02-22T13:44:04Z</time>
      </trkpt>
      <trkpt lat="43.58577" lon="6.39113">
        <ele>635.7</ele>
        <time>2026-02-22T13:44:05Z</time>
      </trkpt>
      <trkpt lat="43.58577" lon="6.39113">
        <ele>635.8</ele>
        <time>2026-02-22T13:44:06Z</time>
      </trkpt>
      <trkpt lat="43.58577" lon="6.39113">
        <ele>635.8</ele>
        <time>2026-02-22T13:44:07Z</time>
      </trkpt>
      <trkpt lat="43.58577" lon="6.39113">
        <ele>635.8</ele>
        <time>2026-02-22T13:44:08Z</time>
      </trkpt>
      <trkpt lat="43.58577" lon="6.39112">
        <ele>635.7</ele>
        <time>2026-02-22T13:44:09Z</time>
      </trkpt>
      <trkpt lat="43.58577" lon="6.39112">
        <ele>635.7</ele>
        <time>2026-02-22T13:44:10Z</time>
      </trkpt>
      <trkpt lat="43.58577" lon="6.39112">
        <ele>635.6</ele>
        <time>2026-02-22T13:44:11Z</time>
      </trkpt>
      <trkpt lat="43.58577" lon="6.39112">
        <ele>635.6</ele>
        <time>2026-02-22T13:44:12Z</time>
      </trkpt>
      <trkpt lat="43.58577" lon="6.39112">
        <ele>635.6</ele>
        <time>2026-02-22T13:44:13Z</time>
      </trkpt>
      <trkpt lat="43.58577" lon="6.39112">
        <ele>635.7</ele>
        <time>2026-02-22T13:44:14Z</time>
      </trkpt>
      <trkpt lat="43.58577" lon="6.39112">
        <ele>635.7</ele>
        <time>2026-02-22T13:44:15Z</time>
      </trkpt>
      <trkpt lat="43.58578" lon="6.39112">
        <ele>635.7</ele>
        <time>2026-02-22T13:44:16Z</time>
      </trkpt>
      <trkpt lat="43.58577" lon="6.39112">
        <ele>635.6</ele>
        <time>2026-02-22T13:44:17Z</time>
      </trkpt>
      <trkpt lat="43.58577" lon="6.39112">
        <ele>635.6</ele>
        <time>2026-02-22T13:44:18Z</time>
      </trkpt>
      <trkpt lat="43.58577" lon="6.39112">
        <ele>635.6</ele>
        <time>2026-02-22T13:44:19Z</time>
      </trkpt>
      <trkpt lat="43.58577" lon="6.39112">
        <ele>635.6</ele>
        <time>2026-02-22T13:44:20Z</time>
      </trkpt>
      <trkpt lat="43.58577" lon="6.39112">
        <ele>635.5</ele>
        <time>2026-02-22T13:44:21Z</time>
      </trkpt>
      <trkpt lat="43.58577" lon="6.39111">
        <ele>635.5</ele>
        <time>2026-02-22T13:44:22Z</time>
      </trkpt>
      <trkpt lat="43.58577" lon="6.39111">
        <ele>635.4</ele>
        <time>2026-02-22T13:44:23Z</time>
      </trkpt>
      <trkpt lat="43.58577" lon="6.39111">
        <ele>635.3</ele>
        <time>2026-02-22T13:44:24Z</time>
      </trkpt>
      <trkpt lat="43.58577" lon="6.39111">
        <ele>635.3</ele>
        <time>2026-02-22T13:44:25Z</time>
      </trkpt>
      <trkpt lat="43.58577" lon="6.39111">
        <ele>635.3</ele>
        <time>2026-02-22T13:44:26Z</time>
      </trkpt>
      <trkpt lat="43.58577" lon="6.39111">
        <ele>635.2</ele>
        <time>2026-02-22T13:44:27Z</time>
      </trkpt>
      <trkpt lat="43.58577" lon="6.39112">
        <ele>635.2</ele>
        <time>2026-02-22T13:44:28Z</time>
      </trkpt>
      <trkpt lat="43.58577" lon="6.39112">
        <ele>635.2</ele>
        <time>2026-02-22T13:44:29Z</time>
      </trkpt>
      <trkpt lat="43.58577" lon="6.39112">
        <ele>635.2</ele>
        <time>2026-02-22T13:44:30Z</time>
      </trkpt>
      <trkpt lat="43.58576" lon="6.39111">
        <ele>635.1</ele>
        <time>2026-02-22T13:44:31Z</time>
      </trkpt>
      <trkpt lat="43.58576" lon="6.39111">
        <ele>635.1</ele>
        <time>2026-02-22T13:44:32Z</time>
      </trkpt>
      <trkpt lat="43.58576" lon="6.39111">
        <ele>635</ele>
        <time>2026-02-22T13:44:33Z</time>
      </trkpt>
      <trkpt lat="43.58576" lon="6.39111">
        <ele>634.9</ele>
        <time>2026-02-22T13:44:34Z</time>
      </trkpt>
      <trkpt lat="43.58576" lon="6.39111">
        <ele>634.9</ele>
        <time>2026-02-22T13:44:35Z</time>
      </trkpt>
      <trkpt lat="43.58576" lon="6.39111">
        <ele>634.9</ele>
        <time>2026-02-22T13:44:36Z</time>
      </trkpt>
      <trkpt lat="43.58576" lon="6.39111">
        <ele>635</ele>
        <time>2026-02-22T13:44:37Z</time>
      </trkpt>
      <trkpt lat="43.58576" lon="6.39112">
        <ele>635.1</ele>
        <time>2026-02-22T13:44:38Z</time>
      </trkpt>
      <trkpt lat="43.58576" lon="6.39112">
        <ele>635.1</ele>
        <time>2026-02-22T13:44:39Z</time>
      </trkpt>
      <trkpt lat="43.58576" lon="6.39113">
        <ele>635.1</ele>
        <time>2026-02-22T13:44:40Z</time>
      </trkpt>
      <trkpt lat="43.58576" lon="6.39113">
        <ele>635.1</ele>
        <time>2026-02-22T13:44:41Z</time>
      </trkpt>
      <trkpt lat="43.58577" lon="6.39113">
        <ele>635.1</ele>
        <time>2026-02-22T13:44:42Z</time>
      </trkpt>
      <trkpt lat="43.58577" lon="6.39113">
        <ele>635.1</ele>
        <time>2026-02-22T13:44:43Z</time>
      </trkpt>
      <trkpt lat="43.58577" lon="6.39113">
        <ele>635.1</ele>
        <time>2026-02-22T13:44:44Z</time>
      </trkpt>
      <trkpt lat="43.58577" lon="6.39113">
        <ele>635.1</ele>
        <time>2026-02-22T13:44:45Z</time>
      </trkpt>
      <trkpt lat="43.58577" lon="6.39114">
        <ele>635.1</ele>
        <time>2026-02-22T13:44:46Z</time>
      </trkpt>
      <trkpt lat="43.58576" lon="6.39113">
        <ele>635.1</ele>
        <time>2026-02-22T13:44:47Z</time>
      </trkpt>
      <trkpt lat="43.58576" lon="6.39113">
        <ele>635</ele>
        <time>2026-02-22T13:44:48Z</time>
      </trkpt>
      <trkpt lat="43.58576" lon="6.39113">
        <ele>635</ele>
        <time>2026-02-22T13:44:49Z</time>
      </trkpt>
      <trkpt lat="43.58576" lon="6.39113">
        <ele>635</ele>
        <time>2026-02-22T13:44:50Z</time>
      </trkpt>
      <trkpt lat="43.58576" lon="6.39113">
        <ele>635.1</ele>
        <time>2026-02-22T13:44:51Z</time>
      </trkpt>
      <trkpt lat="43.58576" lon="6.39113">
        <ele>635.1</ele>
        <time>2026-02-22T13:44:52Z</time>
      </trkpt>
      <trkpt lat="43.58576" lon="6.39113">
        <ele>635.1</ele>
        <time>2026-02-22T13:44:53Z</time>
      </trkpt>
      <trkpt lat="43.58576" lon="6.39113">
        <ele>635.2</ele>
        <time>2026-02-22T13:44:54Z</time>
      </trkpt>
      <trkpt lat="43.58576" lon="6.39113">
        <ele>635.2</ele>
        <time>2026-02-22T13:44:55Z</time>
      </trkpt>
      <trkpt lat="43.58576" lon="6.39113">
        <ele>635.2</ele>
        <time>2026-02-22T13:44:56Z</time>
      </trkpt>
      <trkpt lat="43.58576" lon="6.39113">
        <ele>635.2</ele>
        <time>2026-02-22T13:44:57Z</time>
      </trkpt>
      <trkpt lat="43.58576" lon="6.39113">
        <ele>635.2</ele>
        <time>2026-02-22T13:44:58Z</time>
      </trkpt>
      <trkpt lat="43.58575" lon="6.39112">
        <ele>635.1</ele>
        <time>2026-02-22T13:44:59Z</time>
      </trkpt>
      <trkpt lat="43.58575" lon="6.39112">
        <ele>635</ele>
        <time>2026-02-22T13:45:00Z</time>
      </trkpt>
      <trkpt lat="43.58575" lon="6.39112">
        <ele>635</ele>
        <time>2026-02-22T13:45:01Z</time>
      </trkpt>
      <trkpt lat="43.58575" lon="6.39112">
        <ele>634.9</ele>
        <time>2026-02-22T13:45:02Z</time>
      </trkpt>
      <trkpt lat="43.58575" lon="6.39112">
        <ele>635</ele>
        <time>2026-02-22T13:45:03Z</time>
      </trkpt>
      <trkpt lat="43.58575" lon="6.39112">
        <ele>635</ele>
        <time>2026-02-22T13:45:04Z</time>
      </trkpt>
      <trkpt lat="43.58575" lon="6.39112">
        <ele>635</ele>
        <time>2026-02-22T13:45:05Z</time>
      </trkpt>
      <trkpt lat="43.58575" lon="6.39112">
        <ele>635</ele>
        <time>2026-02-22T13:45:06Z</time>
      </trkpt>
      <trkpt lat="43.58575" lon="6.39112">
        <ele>635</ele>
        <time>2026-02-22T13:45:07Z</time>
      </trkpt>
      <trkpt lat="43.58575" lon="6.39113">
        <ele>635</ele>
        <time>2026-02-22T13:45:08Z</time>
      </trkpt>
      <trkpt lat="43.58575" lon="6.39112">
        <ele>635</ele>
        <time>2026-02-22T13:45:09Z</time>
      </trkpt>
      <trkpt lat="43.58575" lon="6.39112">
        <ele>635</ele>
        <time>2026-02-22T13:45:10Z</time>
      </trkpt>
      <trkpt lat="43.58575" lon="6.39113">
        <ele>634.9</ele>
        <time>2026-02-22T13:45:11Z</time>
      </trkpt>
      <trkpt lat="43.58575" lon="6.39113">
        <ele>634.9</ele>
        <time>2026-02-22T13:45:12Z</time>
      </trkpt>
      <trkpt lat="43.58575" lon="6.39113">
        <ele>634.8</ele>
        <time>2026-02-22T13:45:13Z</time>
      </trkpt>
      <trkpt lat="43.58575" lon="6.39113">
        <ele>634.8</ele>
        <time>2026-02-22T13:45:14Z</time>
      </trkpt>
      <trkpt lat="43.58575" lon="6.39112">
        <ele>634.8</ele>
        <time>2026-02-22T13:45:15Z</time>
      </trkpt>
      <trkpt lat="43.58575" lon="6.39112">
        <ele>634.8</ele>
        <time>2026-02-22T13:45:16Z</time>
      </trkpt>
      <trkpt lat="43.58575" lon="6.39111">
        <ele>634.8</ele>
        <time>2026-02-22T13:45:17Z</time>
      </trkpt>
      <trkpt lat="43.58575" lon="6.39111">
        <ele>634.8</ele>
        <time>2026-02-22T13:45:18Z</time>
      </trkpt>
      <trkpt lat="43.58575" lon="6.39111">
        <ele>634.8</ele>
        <time>2026-02-22T13:45:19Z</time>
      </trkpt>
      <trkpt lat="43.58575" lon="6.39111">
        <ele>634.9</ele>
        <time>2026-02-22T13:45:20Z</time>
      </trkpt>
      <trkpt lat="43.58575" lon="6.39111">
        <ele>634.8</ele>
        <time>2026-02-22T13:45:21Z</time>
      </trkpt>
      <trkpt lat="43.58575" lon="6.39111">
        <ele>634.6</ele>
        <time>2026-02-22T13:45:22Z</time>
      </trkpt>
      <trkpt lat="43.58575" lon="6.39111">
        <ele>634.5</ele>
        <time>2026-02-22T13:45:23Z</time>
      </trkpt>
      <trkpt lat="43.58575" lon="6.3911">
        <ele>634.3</ele>
        <time>2026-02-22T13:45:24Z</time>
      </trkpt>
      <trkpt lat="43.58575" lon="6.3911">
        <ele>634.2</ele>
        <time>2026-02-22T13:45:25Z</time>
      </trkpt>
      <trkpt lat="43.58575" lon="6.3911">
        <ele>634.1</ele>
        <time>2026-02-22T13:45:26Z</time>
      </trkpt>
      <trkpt lat="43.58575" lon="6.3911">
        <ele>634</ele>
        <time>2026-02-22T13:45:27Z</time>
      </trkpt>
      <trkpt lat="43.58575" lon="6.3911">
        <ele>633.9</ele>
        <time>2026-02-22T13:45:28Z</time>
      </trkpt>
      <trkpt lat="43.58575" lon="6.3911">
        <ele>633.8</ele>
        <time>2026-02-22T13:45:29Z</time>
      </trkpt>
      <trkpt lat="43.58574" lon="6.39109">
        <ele>633.7</ele>
        <time>2026-02-22T13:45:30Z</time>
      </trkpt>
      <trkpt lat="43.58575" lon="6.39108">
        <ele>633.6</ele>
        <time>2026-02-22T13:45:31Z</time>
      </trkpt>
      <trkpt lat="43.58575" lon="6.39108">
        <ele>633.5</ele>
        <time>2026-02-22T13:45:32Z</time>
      </trkpt>
      <trkpt lat="43.58575" lon="6.39107">
        <ele>633.4</ele>
        <time>2026-02-22T13:45:33Z</time>
      </trkpt>
      <trkpt lat="43.58575" lon="6.39107">
        <ele>633.3</ele>
        <time>2026-02-22T13:45:34Z</time>
      </trkpt>
      <trkpt lat="43.58575" lon="6.39107">
        <ele>633.2</ele>
        <time>2026-02-22T13:45:35Z</time>
      </trkpt>
      <trkpt lat="43.58576" lon="6.39106">
        <ele>633.1</ele>
        <time>2026-02-22T13:45:36Z</time>
      </trkpt>
      <trkpt lat="43.58576" lon="6.39106">
        <ele>633.1</ele>
        <time>2026-02-22T13:45:37Z</time>
      </trkpt>
      <trkpt lat="43.58576" lon="6.39105">
        <ele>632.9</ele>
        <time>2026-02-22T13:45:38Z</time>
      </trkpt>
      <trkpt lat="43.58575" lon="6.39105">
        <ele>632.8</ele>
        <time>2026-02-22T13:45:39Z</time>
      </trkpt>
      <trkpt lat="43.58575" lon="6.39105">
        <ele>632.6</ele>
        <time>2026-02-22T13:45:40Z</time>
      </trkpt>
      <trkpt lat="43.58575" lon="6.39105">
        <ele>632.5</ele>
        <time>2026-02-22T13:45:41Z</time>
      </trkpt>
      <trkpt lat="43.58575" lon="6.39104">
        <ele>632.4</ele>
        <time>2026-02-22T13:45:42Z</time>
      </trkpt>
      <trkpt lat="43.58575" lon="6.39104">
        <ele>632.3</ele>
        <time>2026-02-22T13:45:43Z</time>
      </trkpt>
      <trkpt lat="43.58575" lon="6.39103">
        <ele>632.2</ele>
        <time>2026-02-22T13:45:44Z</time>
      </trkpt>
      <trkpt lat="43.58575" lon="6.39102">
        <ele>632.1</ele>
        <time>2026-02-22T13:45:45Z</time>
      </trkpt>
      <trkpt lat="43.58575" lon="6.39102">
        <ele>631.9</ele>
        <time>2026-02-22T13:45:46Z</time>
      </trkpt>
      <trkpt lat="43.58576" lon="6.39102">
        <ele>631.7</ele>
        <time>2026-02-22T13:45:47Z</time>
      </trkpt>
      <trkpt lat="43.58575" lon="6.39102">
        <ele>631.5</ele>
        <time>2026-02-22T13:45:48Z</time>
      </trkpt>
      <trkpt lat="43.58576" lon="6.39101">
        <ele>631.4</ele>
        <time>2026-02-22T13:45:49Z</time>
      </trkpt>
      <trkpt lat="43.58576" lon="6.39102">
        <ele>631.3</ele>
        <time>2026-02-22T13:45:50Z</time>
      </trkpt>
      <trkpt lat="43.58576" lon="6.39101">
        <ele>631.2</ele>
        <time>2026-02-22T13:45:51Z</time>
      </trkpt>
      <trkpt lat="43.58576" lon="6.391">
        <ele>631</ele>
        <time>2026-02-22T13:45:52Z</time>
      </trkpt>
      <trkpt lat="43.58576" lon="6.391">
        <ele>630.9</ele>
        <time>2026-02-22T13:45:53Z</time>
      </trkpt>
      <trkpt lat="43.58576" lon="6.39099">
        <ele>630.7</ele>
        <time>2026-02-22T13:45:54Z</time>
      </trkpt>
      <trkpt lat="43.58576" lon="6.39099">
        <ele>630.6</ele>
        <time>2026-02-22T13:45:55Z</time>
      </trkpt>
      <trkpt lat="43.58576" lon="6.39098">
        <ele>630.4</ele>
        <time>2026-02-22T13:45:56Z</time>
      </trkpt>
      <trkpt lat="43.58576" lon="6.39097">
        <ele>630.1</ele>
        <time>2026-02-22T13:45:57Z</time>
      </trkpt>
      <trkpt lat="43.58576" lon="6.39096">
        <ele>630</ele>
        <time>2026-02-22T13:45:58Z</time>
      </trkpt>
      <trkpt lat="43.58575" lon="6.39095">
        <ele>629.9</ele>
        <time>2026-02-22T13:45:59Z</time>
      </trkpt>
      <trkpt lat="43.58575" lon="6.39094">
        <ele>629.7</ele>
        <time>2026-02-22T13:46:00Z</time>
      </trkpt>
      <trkpt lat="43.58574" lon="6.39093">
        <ele>629.6</ele>
        <time>2026-02-22T13:46:01Z</time>
      </trkpt>
      <trkpt lat="43.58574" lon="6.39092">
        <ele>629.5</ele>
        <time>2026-02-22T13:46:02Z</time>
      </trkpt>
      <trkpt lat="43.58573" lon="6.39091">
        <ele>629.4</ele>
        <time>2026-02-22T13:46:03Z</time>
      </trkpt>
      <trkpt lat="43.58572" lon="6.3909">
        <ele>629.2</ele>
        <time>2026-02-22T13:46:04Z</time>
      </trkpt>
      <trkpt lat="43.58572" lon="6.39089">
        <ele>629</ele>
        <time>2026-02-22T13:46:05Z</time>
      </trkpt>
      <trkpt lat="43.58572" lon="6.39089">
        <ele>628.9</ele>
        <time>2026-02-22T13:46:06Z</time>
      </trkpt>
      <trkpt lat="43.58572" lon="6.39088">
        <ele>628.8</ele>
        <time>2026-02-22T13:46:07Z</time>
      </trkpt>
      <trkpt lat="43.58572" lon="6.39088">
        <ele>628.8</ele>
        <time>2026-02-22T13:46:08Z</time>
      </trkpt>
      <trkpt lat="43.58571" lon="6.39087">
        <ele>628.7</ele>
        <time>2026-02-22T13:46:09Z</time>
      </trkpt>
      <trkpt lat="43.58571" lon="6.39086">
        <ele>628.7</ele>
        <time>2026-02-22T13:46:10Z</time>
      </trkpt>
      <trkpt lat="43.58571" lon="6.39085">
        <ele>628.6</ele>
        <time>2026-02-22T13:46:11Z</time>
      </trkpt>
      <trkpt lat="43.58571" lon="6.39085">
        <ele>628.5</ele>
        <time>2026-02-22T13:46:12Z</time>
      </trkpt>
      <trkpt lat="43.5857" lon="6.39085">
        <ele>628.4</ele>
        <time>2026-02-22T13:46:13Z</time>
      </trkpt>
      <trkpt lat="43.5857" lon="6.39084">
        <ele>628.3</ele>
        <time>2026-02-22T13:46:14Z</time>
      </trkpt>
      <trkpt lat="43.5857" lon="6.39083">
        <ele>628.3</ele>
        <time>2026-02-22T13:46:15Z</time>
      </trkpt>
      <trkpt lat="43.58569" lon="6.39082">
        <ele>628.3</ele>
        <time>2026-02-22T13:46:16Z</time>
      </trkpt>
      <trkpt lat="43.58569" lon="6.39082">
        <ele>628.3</ele>
        <time>2026-02-22T13:46:17Z</time>
      </trkpt>
      <trkpt lat="43.58569" lon="6.39082">
        <ele>628.3</ele>
        <time>2026-02-22T13:46:18Z</time>
      </trkpt>
      <trkpt lat="43.58568" lon="6.39081">
        <ele>628.3</ele>
        <time>2026-02-22T13:46:19Z</time>
      </trkpt>
      <trkpt lat="43.58568" lon="6.39079">
        <ele>628.3</ele>
        <time>2026-02-22T13:46:20Z</time>
      </trkpt>
      <trkpt lat="43.58568" lon="6.39079">
        <ele>628.3</ele>
        <time>2026-02-22T13:46:21Z</time>
      </trkpt>
      <trkpt lat="43.58567" lon="6.39079">
        <ele>628.3</ele>
        <time>2026-02-22T13:46:22Z</time>
      </trkpt>
      <trkpt lat="43.58567" lon="6.39078">
        <ele>628.3</ele>
        <time>2026-02-22T13:46:23Z</time>
      </trkpt>
      <trkpt lat="43.58567" lon="6.39078">
        <ele>628.3</ele>
        <time>2026-02-22T13:46:24Z</time>
      </trkpt>
      <trkpt lat="43.58567" lon="6.39078">
        <ele>628.3</ele>
        <time>2026-02-22T13:46:25Z</time>
      </trkpt>
      <trkpt lat="43.58567" lon="6.39077">
        <ele>628.1</ele>
        <time>2026-02-22T13:46:26Z</time>
      </trkpt>
      <trkpt lat="43.58566" lon="6.39076">
        <ele>628</ele>
        <time>2026-02-22T13:46:27Z</time>
      </trkpt>
      <trkpt lat="43.58566" lon="6.39074">
        <ele>627.9</ele>
        <time>2026-02-22T13:46:28Z</time>
      </trkpt>
      <trkpt lat="43.58565" lon="6.39073">
        <ele>627.8</ele>
        <time>2026-02-22T13:46:29Z</time>
      </trkpt>
      <trkpt lat="43.58565" lon="6.39073">
        <ele>627.8</ele>
        <time>2026-02-22T13:46:30Z</time>
      </trkpt>
      <trkpt lat="43.58565" lon="6.39072">
        <ele>627.7</ele>
        <time>2026-02-22T13:46:31Z</time>
      </trkpt>
      <trkpt lat="43.58565" lon="6.39071">
        <ele>627.7</ele>
        <time>2026-02-22T13:46:32Z</time>
      </trkpt>
      <trkpt lat="43.58564" lon="6.39069">
        <ele>627.5</ele>
        <time>2026-02-22T13:46:33Z</time>
      </trkpt>
      <trkpt lat="43.58564" lon="6.39068">
        <ele>627.4</ele>
        <time>2026-02-22T13:46:34Z</time>
      </trkpt>
      <trkpt lat="43.58563" lon="6.39067">
        <ele>627.4</ele>
        <time>2026-02-22T13:46:35Z</time>
      </trkpt>
      <trkpt lat="43.58563" lon="6.39066">
        <ele>627.3</ele>
        <time>2026-02-22T13:46:36Z</time>
      </trkpt>
      <trkpt lat="43.58563" lon="6.39065">
        <ele>627.3</ele>
        <time>2026-02-22T13:46:37Z</time>
      </trkpt>
      <trkpt lat="43.58562" lon="6.39064">
        <ele>627.2</ele>
        <time>2026-02-22T13:46:38Z</time>
      </trkpt>
      <trkpt lat="43.58562" lon="6.39063">
        <ele>627.1</ele>
        <time>2026-02-22T13:46:39Z</time>
      </trkpt>
      <trkpt lat="43.58561" lon="6.39062">
        <ele>627</ele>
        <time>2026-02-22T13:46:40Z</time>
      </trkpt>
      <trkpt lat="43.58561" lon="6.39062">
        <ele>626.8</ele>
        <time>2026-02-22T13:46:41Z</time>
      </trkpt>
      <trkpt lat="43.58561" lon="6.39062">
        <ele>626.7</ele>
        <time>2026-02-22T13:46:42Z</time>
      </trkpt>
      <trkpt lat="43.5856" lon="6.39061">
        <ele>626.5</ele>
        <time>2026-02-22T13:46:43Z</time>
      </trkpt>
      <trkpt lat="43.58559" lon="6.39061">
        <ele>626.3</ele>
        <time>2026-02-22T13:46:44Z</time>
      </trkpt>
      <trkpt lat="43.58559" lon="6.3906">
        <ele>626.2</ele>
        <time>2026-02-22T13:46:45Z</time>
      </trkpt>
      <trkpt lat="43.58558" lon="6.39061">
        <ele>626.1</ele>
        <time>2026-02-22T13:46:46Z</time>
      </trkpt>
      <trkpt lat="43.58557" lon="6.39061">
        <ele>626</ele>
        <time>2026-02-22T13:46:47Z</time>
      </trkpt>
      <trkpt lat="43.58556" lon="6.39061">
        <ele>625.8</ele>
        <time>2026-02-22T13:46:48Z</time>
      </trkpt>
      <trkpt lat="43.58555" lon="6.39061">
        <ele>625.6</ele>
        <time>2026-02-22T13:46:49Z</time>
      </trkpt>
      <trkpt lat="43.58555" lon="6.39061">
        <ele>625.5</ele>
        <time>2026-02-22T13:46:50Z</time>
      </trkpt>
      <trkpt lat="43.58555" lon="6.39061">
        <ele>625.2</ele>
        <time>2026-02-22T13:46:51Z</time>
      </trkpt>
      <trkpt lat="43.58554" lon="6.3906">
        <ele>625</ele>
        <time>2026-02-22T13:46:52Z</time>
      </trkpt>
      <trkpt lat="43.58552" lon="6.39059">
        <ele>624.8</ele>
        <time>2026-02-22T13:46:53Z</time>
      </trkpt>
      <trkpt lat="43.58552" lon="6.3906">
        <ele>624.6</ele>
        <time>2026-02-22T13:46:54Z</time>
      </trkpt>
      <trkpt lat="43.58552" lon="6.39059">
        <ele>624.5</ele>
        <time>2026-02-22T13:46:55Z</time>
      </trkpt>
      <trkpt lat="43.58552" lon="6.39059">
        <ele>624.4</ele>
        <time>2026-02-22T13:46:56Z</time>
      </trkpt>
      <trkpt lat="43.58551" lon="6.39058">
        <ele>624</ele>
        <time>2026-02-22T13:46:57Z</time>
      </trkpt>
      <trkpt lat="43.58551" lon="6.39057">
        <ele>623.8</ele>
        <time>2026-02-22T13:46:58Z</time>
      </trkpt>
      <trkpt lat="43.5855" lon="6.39056">
        <ele>623.5</ele>
        <time>2026-02-22T13:46:59Z</time>
      </trkpt>
      <trkpt lat="43.5855" lon="6.39056">
        <ele>623.3</ele>
        <time>2026-02-22T13:47:00Z</time>
      </trkpt>
      <trkpt lat="43.5855" lon="6.39056">
        <ele>623.1</ele>
        <time>2026-02-22T13:47:01Z</time>
      </trkpt>
      <trkpt lat="43.5855" lon="6.39055">
        <ele>623</ele>
        <time>2026-02-22T13:47:02Z</time>
      </trkpt>
      <trkpt lat="43.58551" lon="6.39054">
        <ele>622.9</ele>
        <time>2026-02-22T13:47:03Z</time>
      </trkpt>
      <trkpt lat="43.58551" lon="6.39053">
        <ele>622.8</ele>
        <time>2026-02-22T13:47:04Z</time>
      </trkpt>
      <trkpt lat="43.58552" lon="6.39052">
        <ele>622.7</ele>
        <time>2026-02-22T13:47:05Z</time>
      </trkpt>
      <trkpt lat="43.58553" lon="6.39051">
        <ele>622.4</ele>
        <time>2026-02-22T13:47:06Z</time>
      </trkpt>
      <trkpt lat="43.58553" lon="6.39049">
        <ele>622.3</ele>
        <time>2026-02-22T13:47:07Z</time>
      </trkpt>
      <trkpt lat="43.58553" lon="6.39048">
        <ele>622.3</ele>
        <time>2026-02-22T13:47:08Z</time>
      </trkpt>
      <trkpt lat="43.58553" lon="6.39047">
        <ele>622.4</ele>
        <time>2026-02-22T13:47:09Z</time>
      </trkpt>
      <trkpt lat="43.58553" lon="6.39045">
        <ele>622.4</ele>
        <time>2026-02-22T13:47:10Z</time>
      </trkpt>
      <trkpt lat="43.58553" lon="6.39044">
        <ele>622.2</ele>
        <time>2026-02-22T13:47:11Z</time>
      </trkpt>
      <trkpt lat="43.58553" lon="6.39044">
        <ele>622</ele>
        <time>2026-02-22T13:47:12Z</time>
      </trkpt>
      <trkpt lat="43.58554" lon="6.39043">
        <ele>621.9</ele>
        <time>2026-02-22T13:47:13Z</time>
      </trkpt>
      <trkpt lat="43.58554" lon="6.39042">
        <ele>622</ele>
        <time>2026-02-22T13:47:14Z</time>
      </trkpt>
      <trkpt lat="43.58555" lon="6.3904">
        <ele>621.8</ele>
        <time>2026-02-22T13:47:15Z</time>
      </trkpt>
      <trkpt lat="43.58555" lon="6.39039">
        <ele>621.7</ele>
        <time>2026-02-22T13:47:16Z</time>
      </trkpt>
      <trkpt lat="43.58556" lon="6.39038">
        <ele>621.7</ele>
        <time>2026-02-22T13:47:17Z</time>
      </trkpt>
      <trkpt lat="43.58556" lon="6.39037">
        <ele>621.8</ele>
        <time>2026-02-22T13:47:18Z</time>
      </trkpt>
      <trkpt lat="43.58556" lon="6.39036">
        <ele>621.7</ele>
        <time>2026-02-22T13:47:19Z</time>
      </trkpt>
      <trkpt lat="43.58556" lon="6.39035">
        <ele>621.7</ele>
        <time>2026-02-22T13:47:20Z</time>
      </trkpt>
      <trkpt lat="43.58556" lon="6.39034">
        <ele>621.6</ele>
        <time>2026-02-22T13:47:21Z</time>
      </trkpt>
      <trkpt lat="43.58557" lon="6.39034">
        <ele>621.5</ele>
        <time>2026-02-22T13:47:22Z</time>
      </trkpt>
      <trkpt lat="43.58557" lon="6.39032">
        <ele>621.5</ele>
        <time>2026-02-22T13:47:23Z</time>
      </trkpt>
      <trkpt lat="43.58558" lon="6.39032">
        <ele>621.4</ele>
        <time>2026-02-22T13:47:24Z</time>
      </trkpt>
      <trkpt lat="43.58558" lon="6.3903">
        <ele>621.5</ele>
        <time>2026-02-22T13:47:25Z</time>
      </trkpt>
      <trkpt lat="43.58559" lon="6.39029">
        <ele>621.4</ele>
        <time>2026-02-22T13:47:26Z</time>
      </trkpt>
      <trkpt lat="43.5856" lon="6.39028">
        <ele>621.4</ele>
        <time>2026-02-22T13:47:27Z</time>
      </trkpt>
      <trkpt lat="43.5856" lon="6.39026">
        <ele>621.4</ele>
        <time>2026-02-22T13:47:28Z</time>
      </trkpt>
      <trkpt lat="43.58561" lon="6.39025">
        <ele>621.4</ele>
        <time>2026-02-22T13:47:29Z</time>
      </trkpt>
      <trkpt lat="43.58562" lon="6.39024">
        <ele>621.4</ele>
        <time>2026-02-22T13:47:30Z</time>
      </trkpt>
      <trkpt lat="43.58563" lon="6.39023">
        <ele>621.5</ele>
        <time>2026-02-22T13:47:31Z</time>
      </trkpt>
      <trkpt lat="43.58563" lon="6.39021">
        <ele>621.5</ele>
        <time>2026-02-22T13:47:32Z</time>
      </trkpt>
      <trkpt lat="43.58564" lon="6.3902">
        <ele>621.5</ele>
        <time>2026-02-22T13:47:33Z</time>
      </trkpt>
      <trkpt lat="43.58565" lon="6.39019">
        <ele>621.5</ele>
        <time>2026-02-22T13:47:34Z</time>
      </trkpt>
      <trkpt lat="43.58565" lon="6.39018">
        <ele>621.4</ele>
        <time>2026-02-22T13:47:35Z</time>
      </trkpt>
      <trkpt lat="43.58566" lon="6.39017">
        <ele>621.4</ele>
        <time>2026-02-22T13:47:36Z</time>
      </trkpt>
      <trkpt lat="43.58566" lon="6.39016">
        <ele>621.5</ele>
        <time>2026-02-22T13:47:37Z</time>
      </trkpt>
      <trkpt lat="43.58567" lon="6.39015">
        <ele>621.4</ele>
        <time>2026-02-22T13:47:38Z</time>
      </trkpt>
      <trkpt lat="43.58568" lon="6.39014">
        <ele>621.4</ele>
        <time>2026-02-22T13:47:39Z</time>
      </trkpt>
      <trkpt lat="43.58568" lon="6.39013">
        <ele>621.4</ele>
        <time>2026-02-22T13:47:40Z</time>
      </trkpt>
      <trkpt lat="43.58569" lon="6.39012">
        <ele>621.4</ele>
        <time>2026-02-22T13:47:41Z</time>
      </trkpt>
      <trkpt lat="43.5857" lon="6.39011">
        <ele>621.4</ele>
        <time>2026-02-22T13:47:42Z</time>
      </trkpt>
      <trkpt lat="43.5857" lon="6.3901">
        <ele>621.4</ele>
        <time>2026-02-22T13:47:43Z</time>
      </trkpt>
      <trkpt lat="43.5857" lon="6.39009">
        <ele>621.5</ele>
        <time>2026-02-22T13:47:44Z</time>
      </trkpt>
      <trkpt lat="43.58571" lon="6.39008">
        <ele>621.5</ele>
        <time>2026-02-22T13:47:45Z</time>
      </trkpt>
      <trkpt lat="43.58571" lon="6.39008">
        <ele>621.5</ele>
        <time>2026-02-22T13:47:46Z</time>
      </trkpt>
      <trkpt lat="43.58572" lon="6.39007">
        <ele>621.6</ele>
        <time>2026-02-22T13:47:47Z</time>
      </trkpt>
      <trkpt lat="43.58573" lon="6.39007">
        <ele>621.6</ele>
        <time>2026-02-22T13:47:48Z</time>
      </trkpt>
      <trkpt lat="43.58573" lon="6.39006">
        <ele>621.6</ele>
        <time>2026-02-22T13:47:49Z</time>
      </trkpt>
      <trkpt lat="43.58574" lon="6.39005">
        <ele>621.6</ele>
        <time>2026-02-22T13:47:50Z</time>
      </trkpt>
      <trkpt lat="43.58575" lon="6.39004">
        <ele>621.7</ele>
        <time>2026-02-22T13:47:51Z</time>
      </trkpt>
      <trkpt lat="43.58576" lon="6.39003">
        <ele>621.8</ele>
        <time>2026-02-22T13:47:52Z</time>
      </trkpt>
      <trkpt lat="43.58576" lon="6.39002">
        <ele>621.8</ele>
        <time>2026-02-22T13:47:53Z</time>
      </trkpt>
      <trkpt lat="43.58577" lon="6.39001">
        <ele>621.7</ele>
        <time>2026-02-22T13:47:54Z</time>
      </trkpt>
      <trkpt lat="43.58577" lon="6.39001">
        <ele>621.7</ele>
        <time>2026-02-22T13:47:55Z</time>
      </trkpt>
      <trkpt lat="43.58577" lon="6.39">
        <ele>621.7</ele>
        <time>2026-02-22T13:47:56Z</time>
      </trkpt>
      <trkpt lat="43.58578" lon="6.38999">
        <ele>621.6</ele>
        <time>2026-02-22T13:47:57Z</time>
      </trkpt>
      <trkpt lat="43.58578" lon="6.38997">
        <ele>621.7</ele>
        <time>2026-02-22T13:47:58Z</time>
      </trkpt>
      <trkpt lat="43.58578" lon="6.38996">
        <ele>621.7</ele>
        <time>2026-02-22T13:47:59Z</time>
      </trkpt>
      <trkpt lat="43.58578" lon="6.38995">
        <ele>621.5</ele>
        <time>2026-02-22T13:48:00Z</time>
      </trkpt>
      <trkpt lat="43.58578" lon="6.38994">
        <ele>621.6</ele>
        <time>2026-02-22T13:48:01Z</time>
      </trkpt>
      <trkpt lat="43.58577" lon="6.38993">
        <ele>621.6</ele>
        <time>2026-02-22T13:48:02Z</time>
      </trkpt>
      <trkpt lat="43.58578" lon="6.38992">
        <ele>621.6</ele>
        <time>2026-02-22T13:48:03Z</time>
      </trkpt>
      <trkpt lat="43.58578" lon="6.3899">
        <ele>621.6</ele>
        <time>2026-02-22T13:48:04Z</time>
      </trkpt>
      <trkpt lat="43.58578" lon="6.38989">
        <ele>621.7</ele>
        <time>2026-02-22T13:48:05Z</time>
      </trkpt>
      <trkpt lat="43.58579" lon="6.38988">
        <ele>621.6</ele>
        <time>2026-02-22T13:48:06Z</time>
      </trkpt>
      <trkpt lat="43.5858" lon="6.38986">
        <ele>621.5</ele>
        <time>2026-02-22T13:48:07Z</time>
      </trkpt>
      <trkpt lat="43.5858" lon="6.38985">
        <ele>621.6</ele>
        <time>2026-02-22T13:48:08Z</time>
      </trkpt>
      <trkpt lat="43.58581" lon="6.38984">
        <ele>621.6</ele>
        <time>2026-02-22T13:48:09Z</time>
      </trkpt>
      <trkpt lat="43.58581" lon="6.38983">
        <ele>621.6</ele>
        <time>2026-02-22T13:48:10Z</time>
      </trkpt>
      <trkpt lat="43.58582" lon="6.38982">
        <ele>621.6</ele>
        <time>2026-02-22T13:48:11Z</time>
      </trkpt>
      <trkpt lat="43.58582" lon="6.38981">
        <ele>621.6</ele>
        <time>2026-02-22T13:48:12Z</time>
      </trkpt>
      <trkpt lat="43.58583" lon="6.3898">
        <ele>621.7</ele>
        <time>2026-02-22T13:48:13Z</time>
      </trkpt>
      <trkpt lat="43.58583" lon="6.38978">
        <ele>621.8</ele>
        <time>2026-02-22T13:48:14Z</time>
      </trkpt>
      <trkpt lat="43.58584" lon="6.38977">
        <ele>621.8</ele>
        <time>2026-02-22T13:48:15Z</time>
      </trkpt>
      <trkpt lat="43.58584" lon="6.38976">
        <ele>621.9</ele>
        <time>2026-02-22T13:48:16Z</time>
      </trkpt>
      <trkpt lat="43.58585" lon="6.38974">
        <ele>621.9</ele>
        <time>2026-02-22T13:48:17Z</time>
      </trkpt>
      <trkpt lat="43.58586" lon="6.38973">
        <ele>621.9</ele>
        <time>2026-02-22T13:48:18Z</time>
      </trkpt>
      <trkpt lat="43.58586" lon="6.38971">
        <ele>621.9</ele>
        <time>2026-02-22T13:48:19Z</time>
      </trkpt>
      <trkpt lat="43.58587" lon="6.38969">
        <ele>621.9</ele>
        <time>2026-02-22T13:48:20Z</time>
      </trkpt>
      <trkpt lat="43.58587" lon="6.38967">
        <ele>621.9</ele>
        <time>2026-02-22T13:48:21Z</time>
      </trkpt>
      <trkpt lat="43.58588" lon="6.38965">
        <ele>621.9</ele>
        <time>2026-02-22T13:48:22Z</time>
      </trkpt>
      <trkpt lat="43.58588" lon="6.38963">
        <ele>621.9</ele>
        <time>2026-02-22T13:48:23Z</time>
      </trkpt>
      <trkpt lat="43.58589" lon="6.38962">
        <ele>621.9</ele>
        <time>2026-02-22T13:48:24Z</time>
      </trkpt>
      <trkpt lat="43.5859" lon="6.3896">
        <ele>621.9</ele>
        <time>2026-02-22T13:48:25Z</time>
      </trkpt>
      <trkpt lat="43.5859" lon="6.38959">
        <ele>621.8</ele>
        <time>2026-02-22T13:48:26Z</time>
      </trkpt>
      <trkpt lat="43.5859" lon="6.38957">
        <ele>621.8</ele>
        <time>2026-02-22T13:48:27Z</time>
      </trkpt>
      <trkpt lat="43.58591" lon="6.38956">
        <ele>621.8</ele>
        <time>2026-02-22T13:48:28Z</time>
      </trkpt>
      <trkpt lat="43.58591" lon="6.38954">
        <ele>621.9</ele>
        <time>2026-02-22T13:48:29Z</time>
      </trkpt>
      <trkpt lat="43.58591" lon="6.38952">
        <ele>621.9</ele>
        <time>2026-02-22T13:48:30Z</time>
      </trkpt>
      <trkpt lat="43.58592" lon="6.38951">
        <ele>621.9</ele>
        <time>2026-02-22T13:48:31Z</time>
      </trkpt>
      <trkpt lat="43.58592" lon="6.38949">
        <ele>621.9</ele>
        <time>2026-02-22T13:48:32Z</time>
      </trkpt>
      <trkpt lat="43.58593" lon="6.38948">
        <ele>621.8</ele>
        <time>2026-02-22T13:48:33Z</time>
      </trkpt>
      <trkpt lat="43.58593" lon="6.38946">
        <ele>621.8</ele>
        <time>2026-02-22T13:48:34Z</time>
      </trkpt>
      <trkpt lat="43.58593" lon="6.38944">
        <ele>621.7</ele>
        <time>2026-02-22T13:48:35Z</time>
      </trkpt>
      <trkpt lat="43.58594" lon="6.38942">
        <ele>621.7</ele>
        <time>2026-02-22T13:48:36Z</time>
      </trkpt>
      <trkpt lat="43.58594" lon="6.3894">
        <ele>621.8</ele>
        <time>2026-02-22T13:48:37Z</time>
      </trkpt>
      <trkpt lat="43.58595" lon="6.38939">
        <ele>621.8</ele>
        <time>2026-02-22T13:48:38Z</time>
      </trkpt>
      <trkpt lat="43.58595" lon="6.38937">
        <ele>621.7</ele>
        <time>2026-02-22T13:48:39Z</time>
      </trkpt>
      <trkpt lat="43.58595" lon="6.38935">
        <ele>621.8</ele>
        <time>2026-02-22T13:48:40Z</time>
      </trkpt>
      <trkpt lat="43.58596" lon="6.38934">
        <ele>621.9</ele>
        <time>2026-02-22T13:48:41Z</time>
      </trkpt>
      <trkpt lat="43.58597" lon="6.38933">
        <ele>622</ele>
        <time>2026-02-22T13:48:42Z</time>
      </trkpt>
      <trkpt lat="43.58597" lon="6.38932">
        <ele>622.1</ele>
        <time>2026-02-22T13:48:43Z</time>
      </trkpt>
      <trkpt lat="43.58598" lon="6.38931">
        <ele>622.2</ele>
        <time>2026-02-22T13:48:44Z</time>
      </trkpt>
      <trkpt lat="43.58598" lon="6.38929">
        <ele>622.3</ele>
        <time>2026-02-22T13:48:45Z</time>
      </trkpt>
      <trkpt lat="43.58598" lon="6.38927">
        <ele>622.3</ele>
        <time>2026-02-22T13:48:46Z</time>
      </trkpt>
      <trkpt lat="43.58598" lon="6.38926">
        <ele>622.3</ele>
        <time>2026-02-22T13:48:47Z</time>
      </trkpt>
      <trkpt lat="43.58599" lon="6.38924">
        <ele>622.3</ele>
        <time>2026-02-22T13:48:48Z</time>
      </trkpt>
      <trkpt lat="43.58599" lon="6.38923">
        <ele>622.3</ele>
        <time>2026-02-22T13:48:49Z</time>
      </trkpt>
      <trkpt lat="43.58599" lon="6.38922">
        <ele>622.3</ele>
        <time>2026-02-22T13:48:50Z</time>
      </trkpt>
      <trkpt lat="43.58599" lon="6.3892">
        <ele>622.3</ele>
        <time>2026-02-22T13:48:51Z</time>
      </trkpt>
      <trkpt lat="43.58599" lon="6.38919">
        <ele>622.3</ele>
        <time>2026-02-22T13:48:52Z</time>
      </trkpt>
      <trkpt lat="43.58599" lon="6.38917">
        <ele>622.3</ele>
        <time>2026-02-22T13:48:53Z</time>
      </trkpt>
      <trkpt lat="43.586" lon="6.38916">
        <ele>622.3</ele>
        <time>2026-02-22T13:48:54Z</time>
      </trkpt>
      <trkpt lat="43.586" lon="6.38914">
        <ele>622.3</ele>
        <time>2026-02-22T13:48:55Z</time>
      </trkpt>
      <trkpt lat="43.586" lon="6.38913">
        <ele>622.4</ele>
        <time>2026-02-22T13:48:56Z</time>
      </trkpt>
      <trkpt lat="43.586" lon="6.38911">
        <ele>622.3</ele>
        <time>2026-02-22T13:48:57Z</time>
      </trkpt>
      <trkpt lat="43.586" lon="6.38909">
        <ele>622.4</ele>
        <time>2026-02-22T13:48:58Z</time>
      </trkpt>
      <trkpt lat="43.58601" lon="6.38907">
        <ele>622.5</ele>
        <time>2026-02-22T13:48:59Z</time>
      </trkpt>
      <trkpt lat="43.58601" lon="6.38905">
        <ele>622.4</ele>
        <time>2026-02-22T13:49:00Z</time>
      </trkpt>
      <trkpt lat="43.58601" lon="6.38903">
        <ele>622.4</ele>
        <time>2026-02-22T13:49:01Z</time>
      </trkpt>
      <trkpt lat="43.58601" lon="6.38901">
        <ele>622.4</ele>
        <time>2026-02-22T13:49:02Z</time>
      </trkpt>
      <trkpt lat="43.586" lon="6.38899">
        <ele>622.4</ele>
        <time>2026-02-22T13:49:03Z</time>
      </trkpt>
      <trkpt lat="43.586" lon="6.38897">
        <ele>622.4</ele>
        <time>2026-02-22T13:49:04Z</time>
      </trkpt>
      <trkpt lat="43.586" lon="6.38896">
        <ele>622.5</ele>
        <time>2026-02-22T13:49:05Z</time>
      </trkpt>
      <trkpt lat="43.586" lon="6.38894">
        <ele>622.6</ele>
        <time>2026-02-22T13:49:06Z</time>
      </trkpt>
      <trkpt lat="43.586" lon="6.38892">
        <ele>622.7</ele>
        <time>2026-02-22T13:49:07Z</time>
      </trkpt>
      <trkpt lat="43.58601" lon="6.3889">
        <ele>622.8</ele>
        <time>2026-02-22T13:49:08Z</time>
      </trkpt>
      <trkpt lat="43.58601" lon="6.38888">
        <ele>622.9</ele>
        <time>2026-02-22T13:49:09Z</time>
      </trkpt>
      <trkpt lat="43.58601" lon="6.38886">
        <ele>623</ele>
        <time>2026-02-22T13:49:10Z</time>
      </trkpt>
      <trkpt lat="43.58601" lon="6.38884">
        <ele>623.2</ele>
        <time>2026-02-22T13:49:11Z</time>
      </trkpt>
      <trkpt lat="43.586" lon="6.38882">
        <ele>623.3</ele>
        <time>2026-02-22T13:49:12Z</time>
      </trkpt>
      <trkpt lat="43.586" lon="6.38881">
        <ele>623.3</ele>
        <time>2026-02-22T13:49:13Z</time>
      </trkpt>
      <trkpt lat="43.58599" lon="6.3888">
        <ele>623.2</ele>
        <time>2026-02-22T13:49:14Z</time>
      </trkpt>
      <trkpt lat="43.58598" lon="6.38878">
        <ele>623.3</ele>
        <time>2026-02-22T13:49:15Z</time>
      </trkpt>
      <trkpt lat="43.58597" lon="6.38877">
        <ele>623.5</ele>
        <time>2026-02-22T13:49:16Z</time>
      </trkpt>
      <trkpt lat="43.58597" lon="6.38876">
        <ele>623.5</ele>
        <time>2026-02-22T13:49:17Z</time>
      </trkpt>
      <trkpt lat="43.58595" lon="6.38875">
        <ele>623.6</ele>
        <time>2026-02-22T13:49:18Z</time>
      </trkpt>
      <trkpt lat="43.58594" lon="6.38875">
        <ele>623.6</ele>
        <time>2026-02-22T13:49:19Z</time>
      </trkpt>
      <trkpt lat="43.58593" lon="6.38874">
        <ele>623.8</ele>
        <time>2026-02-22T13:49:20Z</time>
      </trkpt>
      <trkpt lat="43.58592" lon="6.38873">
        <ele>623.8</ele>
        <time>2026-02-22T13:49:21Z</time>
      </trkpt>
      <trkpt lat="43.58591" lon="6.38873">
        <ele>623.9</ele>
        <time>2026-02-22T13:49:22Z</time>
      </trkpt>
      <trkpt lat="43.5859" lon="6.38872">
        <ele>624</ele>
        <time>2026-02-22T13:49:23Z</time>
      </trkpt>
      <trkpt lat="43.58589" lon="6.38871">
        <ele>624</ele>
        <time>2026-02-22T13:49:24Z</time>
      </trkpt>
      <trkpt lat="43.58588" lon="6.38871">
        <ele>624.1</ele>
        <time>2026-02-22T13:49:25Z</time>
      </trkpt>
      <trkpt lat="43.58587" lon="6.38871">
        <ele>624.2</ele>
        <time>2026-02-22T13:49:26Z</time>
      </trkpt>
      <trkpt lat="43.58585" lon="6.3887">
        <ele>624.1</ele>
        <time>2026-02-22T13:49:27Z</time>
      </trkpt>
      <trkpt lat="43.58584" lon="6.3887">
        <ele>624</ele>
        <time>2026-02-22T13:49:28Z</time>
      </trkpt>
      <trkpt lat="43.58584" lon="6.3887">
        <ele>623.9</ele>
        <time>2026-02-22T13:49:29Z</time>
      </trkpt>
      <trkpt lat="43.58584" lon="6.3887">
        <ele>623.8</ele>
        <time>2026-02-22T13:49:30Z</time>
      </trkpt>
      <trkpt lat="43.58584" lon="6.3887">
        <ele>623.7</ele>
        <time>2026-02-22T13:49:31Z</time>
      </trkpt>
      <trkpt lat="43.58584" lon="6.3887">
        <ele>623.6</ele>
        <time>2026-02-22T13:49:32Z</time>
      </trkpt>
      <trkpt lat="43.58584" lon="6.3887">
        <ele>623.6</ele>
        <time>2026-02-22T13:49:33Z</time>
      </trkpt>
      <trkpt lat="43.58584" lon="6.3887">
        <ele>623.6</ele>
        <time>2026-02-22T13:49:34Z</time>
      </trkpt>
      <trkpt lat="43.58584" lon="6.3887">
        <ele>623.6</ele>
        <time>2026-02-22T13:49:35Z</time>
      </trkpt>
      <trkpt lat="43.58584" lon="6.3887">
        <ele>623.6</ele>
        <time>2026-02-22T13:49:36Z</time>
      </trkpt>
      <trkpt lat="43.58584" lon="6.3887">
        <ele>623.6</ele>
        <time>2026-02-22T13:49:37Z</time>
      </trkpt>
      <trkpt lat="43.58584" lon="6.3887">
        <ele>623.6</ele>
        <time>2026-02-22T13:49:38Z</time>
      </trkpt>
      <trkpt lat="43.58584" lon="6.3887">
        <ele>623.6</ele>
        <time>2026-02-22T13:49:39Z</time>
      </trkpt>
      <trkpt lat="43.58584" lon="6.3887">
        <ele>623.5</ele>
        <time>2026-02-22T13:49:40Z</time>
      </trkpt>
      <trkpt lat="43.58584" lon="6.3887">
        <ele>623.5</ele>
        <time>2026-02-22T13:49:41Z</time>
      </trkpt>
      <trkpt lat="43.58584" lon="6.3887">
        <ele>623.6</ele>
        <time>2026-02-22T13:49:42Z</time>
      </trkpt>
      <trkpt lat="43.58584" lon="6.3887">
        <ele>623.6</ele>
        <time>2026-02-22T13:49:43Z</time>
      </trkpt>
      <trkpt lat="43.58583" lon="6.3887">
        <ele>623.6</ele>
        <time>2026-02-22T13:49:44Z</time>
      </trkpt>
      <trkpt lat="43.58583" lon="6.3887">
        <ele>623.6</ele>
        <time>2026-02-22T13:49:45Z</time>
      </trkpt>
      <trkpt lat="43.58583" lon="6.3887">
        <ele>623.6</ele>
        <time>2026-02-22T13:49:46Z</time>
      </trkpt>
      <trkpt lat="43.58583" lon="6.3887">
        <ele>623.6</ele>
        <time>2026-02-22T13:49:47Z</time>
      </trkpt>
      <trkpt lat="43.58583" lon="6.3887">
        <ele>623.7</ele>
        <time>2026-02-22T13:49:48Z</time>
      </trkpt>
      <trkpt lat="43.58583" lon="6.3887">
        <ele>623.7</ele>
        <time>2026-02-22T13:49:49Z</time>
      </trkpt>
      <trkpt lat="43.58583" lon="6.3887">
        <ele>623.7</ele>
        <time>2026-02-22T13:49:50Z</time>
      </trkpt>
      <trkpt lat="43.58583" lon="6.3887">
        <ele>623.7</ele>
        <time>2026-02-22T13:49:51Z</time>
      </trkpt>
      <trkpt lat="43.58583" lon="6.3887">
        <ele>623.7</ele>
        <time>2026-02-22T13:49:52Z</time>
      </trkpt>
      <trkpt lat="43.58583" lon="6.3887">
        <ele>623.8</ele>
        <time>2026-02-22T13:49:53Z</time>
      </trkpt>
      <trkpt lat="43.58583" lon="6.3887">
        <ele>623.7</ele>
        <time>2026-02-22T13:49:54Z</time>
      </trkpt>
      <trkpt lat="43.58583" lon="6.3887">
        <ele>623.7</ele>
        <time>2026-02-22T13:49:55Z</time>
      </trkpt>
      <trkpt lat="43.58583" lon="6.3887">
        <ele>623.7</ele>
        <time>2026-02-22T13:49:56Z</time>
      </trkpt>
      <trkpt lat="43.58583" lon="6.38869">
        <ele>623.7</ele>
        <time>2026-02-22T13:49:57Z</time>
      </trkpt>
      <trkpt lat="43.58583" lon="6.38869">
        <ele>623.7</ele>
        <time>2026-02-22T13:49:58Z</time>
      </trkpt>
      <trkpt lat="43.58583" lon="6.38869">
        <ele>623.7</ele>
        <time>2026-02-22T13:49:59Z</time>
      </trkpt>
      <trkpt lat="43.58583" lon="6.38869">
        <ele>623.6</ele>
        <time>2026-02-22T13:50:00Z</time>
      </trkpt>
      <trkpt lat="43.58583" lon="6.38869">
        <ele>623.5</ele>
        <time>2026-02-22T13:50:01Z</time>
      </trkpt>
      <trkpt lat="43.58583" lon="6.38869">
        <ele>623.5</ele>
        <time>2026-02-22T13:50:02Z</time>
      </trkpt>
      <trkpt lat="43.58583" lon="6.38869">
        <ele>623.5</ele>
        <time>2026-02-22T13:50:03Z</time>
      </trkpt>
      <trkpt lat="43.58583" lon="6.38869">
        <ele>623.5</ele>
        <time>2026-02-22T13:50:04Z</time>
      </trkpt>
      <trkpt lat="43.58584" lon="6.38869">
        <ele>623.6</ele>
        <time>2026-02-22T13:50:05Z</time>
      </trkpt>
      <trkpt lat="43.58585" lon="6.38869">
        <ele>623.6</ele>
        <time>2026-02-22T13:50:06Z</time>
      </trkpt>
      <trkpt lat="43.58586" lon="6.3887">
        <ele>623.6</ele>
        <time>2026-02-22T13:50:07Z</time>
      </trkpt>
      <trkpt lat="43.58587" lon="6.38869">
        <ele>623.7</ele>
        <time>2026-02-22T13:50:08Z</time>
      </trkpt>
      <trkpt lat="43.58589" lon="6.38869">
        <ele>623.7</ele>
        <time>2026-02-22T13:50:09Z</time>
      </trkpt>
      <trkpt lat="43.5859" lon="6.38869">
        <ele>623.8</ele>
        <time>2026-02-22T13:50:10Z</time>
      </trkpt>
      <trkpt lat="43.58591" lon="6.38869">
        <ele>623.9</ele>
        <time>2026-02-22T13:50:11Z</time>
      </trkpt>
      <trkpt lat="43.58593" lon="6.38869">
        <ele>623.9</ele>
        <time>2026-02-22T13:50:12Z</time>
      </trkpt>
      <trkpt lat="43.58594" lon="6.38869">
        <ele>624</ele>
        <time>2026-02-22T13:50:13Z</time>
      </trkpt>
      <trkpt lat="43.58595" lon="6.38869">
        <ele>624</ele>
        <time>2026-02-22T13:50:14Z</time>
      </trkpt>
      <trkpt lat="43.58596" lon="6.38869">
        <ele>623.9</ele>
        <time>2026-02-22T13:50:15Z</time>
      </trkpt>
      <trkpt lat="43.58597" lon="6.38869">
        <ele>623.9</ele>
        <time>2026-02-22T13:50:16Z</time>
      </trkpt>
      <trkpt lat="43.58599" lon="6.38869">
        <ele>623.9</ele>
        <time>2026-02-22T13:50:17Z</time>
      </trkpt>
      <trkpt lat="43.586" lon="6.38869">
        <ele>623.9</ele>
        <time>2026-02-22T13:50:18Z</time>
      </trkpt>
      <trkpt lat="43.58601" lon="6.38869">
        <ele>623.8</ele>
        <time>2026-02-22T13:50:19Z</time>
      </trkpt>
      <trkpt lat="43.58603" lon="6.38869">
        <ele>623.8</ele>
        <time>2026-02-22T13:50:20Z</time>
      </trkpt>
      <trkpt lat="43.58604" lon="6.38869">
        <ele>623.8</ele>
        <time>2026-02-22T13:50:21Z</time>
      </trkpt>
      <trkpt lat="43.58605" lon="6.38869">
        <ele>623.8</ele>
        <time>2026-02-22T13:50:22Z</time>
      </trkpt>
      <trkpt lat="43.58606" lon="6.38869">
        <ele>623.8</ele>
        <time>2026-02-22T13:50:23Z</time>
      </trkpt>
      <trkpt lat="43.58608" lon="6.38869">
        <ele>623.7</ele>
        <time>2026-02-22T13:50:24Z</time>
      </trkpt>
      <trkpt lat="43.58609" lon="6.3887">
        <ele>623.8</ele>
        <time>2026-02-22T13:50:25Z</time>
      </trkpt>
      <trkpt lat="43.5861" lon="6.3887">
        <ele>623.9</ele>
        <time>2026-02-22T13:50:26Z</time>
      </trkpt>
      <trkpt lat="43.58611" lon="6.38869">
        <ele>624</ele>
        <time>2026-02-22T13:50:27Z</time>
      </trkpt>
      <trkpt lat="43.58612" lon="6.3887">
        <ele>624.1</ele>
        <time>2026-02-22T13:50:28Z</time>
      </trkpt>
      <trkpt lat="43.58613" lon="6.3887">
        <ele>624.1</ele>
        <time>2026-02-22T13:50:29Z</time>
      </trkpt>
      <trkpt lat="43.58614" lon="6.38869">
        <ele>624.2</ele>
        <time>2026-02-22T13:50:30Z</time>
      </trkpt>
      <trkpt lat="43.58615" lon="6.38868">
        <ele>624.2</ele>
        <time>2026-02-22T13:50:31Z</time>
      </trkpt>
      <trkpt lat="43.58616" lon="6.38867">
        <ele>624.2</ele>
        <time>2026-02-22T13:50:32Z</time>
      </trkpt>
      <trkpt lat="43.58617" lon="6.38865">
        <ele>624.1</ele>
        <time>2026-02-22T13:50:33Z</time>
      </trkpt>
      <trkpt lat="43.58619" lon="6.38863">
        <ele>624.1</ele>
        <time>2026-02-22T13:50:34Z</time>
      </trkpt>
      <trkpt lat="43.58619" lon="6.38861">
        <ele>624.2</ele>
        <time>2026-02-22T13:50:35Z</time>
      </trkpt>
      <trkpt lat="43.5862" lon="6.3886">
        <ele>624.1</ele>
        <time>2026-02-22T13:50:36Z</time>
      </trkpt>
      <trkpt lat="43.58621" lon="6.38859">
        <ele>624.2</ele>
        <time>2026-02-22T13:50:37Z</time>
      </trkpt>
      <trkpt lat="43.58622" lon="6.38858">
        <ele>624.4</ele>
        <time>2026-02-22T13:50:38Z</time>
      </trkpt>
      <trkpt lat="43.58622" lon="6.38857">
        <ele>624.7</ele>
        <time>2026-02-22T13:50:39Z</time>
      </trkpt>
      <trkpt lat="43.58623" lon="6.38856">
        <ele>624.8</ele>
        <time>2026-02-22T13:50:40Z</time>
      </trkpt>
      <trkpt lat="43.58623" lon="6.38855">
        <ele>624.9</ele>
        <time>2026-02-22T13:50:41Z</time>
      </trkpt>
      <trkpt lat="43.58624" lon="6.38853">
        <ele>625.1</ele>
        <time>2026-02-22T13:50:42Z</time>
      </trkpt>
      <trkpt lat="43.58625" lon="6.38852">
        <ele>625.2</ele>
        <time>2026-02-22T13:50:43Z</time>
      </trkpt>
      <trkpt lat="43.58625" lon="6.3885">
        <ele>625.3</ele>
        <time>2026-02-22T13:50:44Z</time>
      </trkpt>
      <trkpt lat="43.58626" lon="6.38849">
        <ele>625.4</ele>
        <time>2026-02-22T13:50:45Z</time>
      </trkpt>
      <trkpt lat="43.58627" lon="6.38848">
        <ele>625.5</ele>
        <time>2026-02-22T13:50:46Z</time>
      </trkpt>
      <trkpt lat="43.58627" lon="6.38848">
        <ele>625.8</ele>
        <time>2026-02-22T13:50:47Z</time>
      </trkpt>
      <trkpt lat="43.58628" lon="6.38847">
        <ele>625.9</ele>
        <time>2026-02-22T13:50:48Z</time>
      </trkpt>
      <trkpt lat="43.58628" lon="6.38846">
        <ele>625.9</ele>
        <time>2026-02-22T13:50:49Z</time>
      </trkpt>
      <trkpt lat="43.58628" lon="6.38845">
        <ele>626</ele>
        <time>2026-02-22T13:50:50Z</time>
      </trkpt>
      <trkpt lat="43.58629" lon="6.38844">
        <ele>626.1</ele>
        <time>2026-02-22T13:50:51Z</time>
      </trkpt>
      <trkpt lat="43.58629" lon="6.38843">
        <ele>626.3</ele>
        <time>2026-02-22T13:50:52Z</time>
      </trkpt>
      <trkpt lat="43.5863" lon="6.38842">
        <ele>626.4</ele>
        <time>2026-02-22T13:50:53Z</time>
      </trkpt>
      <trkpt lat="43.5863" lon="6.38841">
        <ele>626.5</ele>
        <time>2026-02-22T13:50:54Z</time>
      </trkpt>
      <trkpt lat="43.58631" lon="6.3884">
        <ele>626.6</ele>
        <time>2026-02-22T13:50:55Z</time>
      </trkpt>
      <trkpt lat="43.5863" lon="6.38839">
        <ele>626.7</ele>
        <time>2026-02-22T13:50:56Z</time>
      </trkpt>
      <trkpt lat="43.58631" lon="6.38838">
        <ele>626.9</ele>
        <time>2026-02-22T13:50:57Z</time>
      </trkpt>
      <trkpt lat="43.58631" lon="6.38837">
        <ele>627.2</ele>
        <time>2026-02-22T13:50:58Z</time>
      </trkpt>
      <trkpt lat="43.5863" lon="6.38836">
        <ele>627.4</ele>
        <time>2026-02-22T13:50:59Z</time>
      </trkpt>
      <trkpt lat="43.5863" lon="6.38836">
        <ele>627.6</ele>
        <time>2026-02-22T13:51:00Z</time>
      </trkpt>
      <trkpt lat="43.5863" lon="6.38834">
        <ele>627.8</ele>
        <time>2026-02-22T13:51:01Z</time>
      </trkpt>
      <trkpt lat="43.58629" lon="6.38834">
        <ele>627.9</ele>
        <time>2026-02-22T13:51:02Z</time>
      </trkpt>
      <trkpt lat="43.58629" lon="6.38834">
        <ele>628.2</ele>
        <time>2026-02-22T13:51:03Z</time>
      </trkpt>
      <trkpt lat="43.58629" lon="6.38833">
        <ele>628.3</ele>
        <time>2026-02-22T13:51:04Z</time>
      </trkpt>
      <trkpt lat="43.58628" lon="6.38832">
        <ele>628.5</ele>
        <time>2026-02-22T13:51:05Z</time>
      </trkpt>
      <trkpt lat="43.58628" lon="6.38832">
        <ele>628.7</ele>
        <time>2026-02-22T13:51:06Z</time>
      </trkpt>
      <trkpt lat="43.58628" lon="6.38831">
        <ele>628.8</ele>
        <time>2026-02-22T13:51:07Z</time>
      </trkpt>
      <trkpt lat="43.58627" lon="6.38831">
        <ele>628.9</ele>
        <time>2026-02-22T13:51:08Z</time>
      </trkpt>
      <trkpt lat="43.58626" lon="6.3883">
        <ele>629</ele>
        <time>2026-02-22T13:51:09Z</time>
      </trkpt>
      <trkpt lat="43.58625" lon="6.3883">
        <ele>629.1</ele>
        <time>2026-02-22T13:51:10Z</time>
      </trkpt>
      <trkpt lat="43.58624" lon="6.38829">
        <ele>629.2</ele>
        <time>2026-02-22T13:51:11Z</time>
      </trkpt>
      <trkpt lat="43.58624" lon="6.38829">
        <ele>629.3</ele>
        <time>2026-02-22T13:51:12Z</time>
      </trkpt>
      <trkpt lat="43.58623" lon="6.38828">
        <ele>629.4</ele>
        <time>2026-02-22T13:51:13Z</time>
      </trkpt>
      <trkpt lat="43.58622" lon="6.38828">
        <ele>629.6</ele>
        <time>2026-02-22T13:51:14Z</time>
      </trkpt>
      <trkpt lat="43.58622" lon="6.38827">
        <ele>629.7</ele>
        <time>2026-02-22T13:51:15Z</time>
      </trkpt>
      <trkpt lat="43.58622" lon="6.38826">
        <ele>629.9</ele>
        <time>2026-02-22T13:51:16Z</time>
      </trkpt>
      <trkpt lat="43.58621" lon="6.38825">
        <ele>630.1</ele>
        <time>2026-02-22T13:51:17Z</time>
      </trkpt>
      <trkpt lat="43.58621" lon="6.38825">
        <ele>630.2</ele>
        <time>2026-02-22T13:51:18Z</time>
      </trkpt>
      <trkpt lat="43.5862" lon="6.38824">
        <ele>630.4</ele>
        <time>2026-02-22T13:51:19Z</time>
      </trkpt>
      <trkpt lat="43.5862" lon="6.38824">
        <ele>630.5</ele>
        <time>2026-02-22T13:51:20Z</time>
      </trkpt>
      <trkpt lat="43.5862" lon="6.38824">
        <ele>630.6</ele>
        <time>2026-02-22T13:51:21Z</time>
      </trkpt>
      <trkpt lat="43.58619" lon="6.38823">
        <ele>630.7</ele>
        <time>2026-02-22T13:51:22Z</time>
      </trkpt>
      <trkpt lat="43.58619" lon="6.38822">
        <ele>630.9</ele>
        <time>2026-02-22T13:51:23Z</time>
      </trkpt>
      <trkpt lat="43.58619" lon="6.38821">
        <ele>631</ele>
        <time>2026-02-22T13:51:24Z</time>
      </trkpt>
      <trkpt lat="43.58618" lon="6.38821">
        <ele>631.2</ele>
        <time>2026-02-22T13:51:25Z</time>
      </trkpt>
      <trkpt lat="43.58618" lon="6.3882">
        <ele>631.2</ele>
        <time>2026-02-22T13:51:26Z</time>
      </trkpt>
      <trkpt lat="43.58618" lon="6.38819">
        <ele>631.3</ele>
        <time>2026-02-22T13:51:27Z</time>
      </trkpt>
      <trkpt lat="43.58617" lon="6.38819">
        <ele>631.4</ele>
        <time>2026-02-22T13:51:28Z</time>
      </trkpt>
      <trkpt lat="43.58618" lon="6.38818">
        <ele>631.6</ele>
        <time>2026-02-22T13:51:29Z</time>
      </trkpt>
      <trkpt lat="43.58618" lon="6.38817">
        <ele>631.6</ele>
        <time>2026-02-22T13:51:30Z</time>
      </trkpt>
      <trkpt lat="43.58618" lon="6.38816">
        <ele>631.6</ele>
        <time>2026-02-22T13:51:31Z</time>
      </trkpt>
      <trkpt lat="43.58617" lon="6.38816">
        <ele>631.7</ele>
        <time>2026-02-22T13:51:32Z</time>
      </trkpt>
      <trkpt lat="43.58617" lon="6.38816">
        <ele>632</ele>
        <time>2026-02-22T13:51:33Z</time>
      </trkpt>
      <trkpt lat="43.58617" lon="6.38815">
        <ele>632.2</ele>
        <time>2026-02-22T13:51:34Z</time>
      </trkpt>
      <trkpt lat="43.58617" lon="6.38814">
        <ele>632.3</ele>
        <time>2026-02-22T13:51:35Z</time>
      </trkpt>
      <trkpt lat="43.58617" lon="6.38814">
        <ele>632.5</ele>
        <time>2026-02-22T13:51:36Z</time>
      </trkpt>
      <trkpt lat="43.58616" lon="6.38813">
        <ele>632.7</ele>
        <time>2026-02-22T13:51:37Z</time>
      </trkpt>
      <trkpt lat="43.58616" lon="6.38812">
        <ele>632.8</ele>
        <time>2026-02-22T13:51:38Z</time>
      </trkpt>
      <trkpt lat="43.58616" lon="6.38811">
        <ele>632.9</ele>
        <time>2026-02-22T13:51:39Z</time>
      </trkpt>
      <trkpt lat="43.58616" lon="6.38811">
        <ele>633.1</ele>
        <time>2026-02-22T13:51:40Z</time>
      </trkpt>
      <trkpt lat="43.58616" lon="6.38811">
        <ele>633.2</ele>
        <time>2026-02-22T13:51:41Z</time>
      </trkpt>
      <trkpt lat="43.58616" lon="6.3881">
        <ele>633.3</ele>
        <time>2026-02-22T13:51:42Z</time>
      </trkpt>
      <trkpt lat="43.58616" lon="6.3881">
        <ele>633.5</ele>
        <time>2026-02-22T13:51:43Z</time>
      </trkpt>
      <trkpt lat="43.58616" lon="6.38808">
        <ele>633.6</ele>
        <time>2026-02-22T13:51:44Z</time>
      </trkpt>
      <trkpt lat="43.58616" lon="6.38807">
        <ele>633.6</ele>
        <time>2026-02-22T13:51:45Z</time>
      </trkpt>
      <trkpt lat="43.58616" lon="6.38806">
        <ele>633.7</ele>
        <time>2026-02-22T13:51:46Z</time>
      </trkpt>
      <trkpt lat="43.58616" lon="6.38805">
        <ele>633.7</ele>
        <time>2026-02-22T13:51:47Z</time>
      </trkpt>
      <trkpt lat="43.58616" lon="6.38803">
        <ele>633.9</ele>
        <time>2026-02-22T13:51:48Z</time>
      </trkpt>
      <trkpt lat="43.58616" lon="6.38802">
        <ele>634</ele>
        <time>2026-02-22T13:51:49Z</time>
      </trkpt>
      <trkpt lat="43.58616" lon="6.38801">
        <ele>634.2</ele>
        <time>2026-02-22T13:51:50Z</time>
      </trkpt>
      <trkpt lat="43.58616" lon="6.38799">
        <ele>634.3</ele>
        <time>2026-02-22T13:51:51Z</time>
      </trkpt>
      <trkpt lat="43.58617" lon="6.38798">
        <ele>634.3</ele>
        <time>2026-02-22T13:51:52Z</time>
      </trkpt>
      <trkpt lat="43.58617" lon="6.38797">
        <ele>634.4</ele>
        <time>2026-02-22T13:51:53Z</time>
      </trkpt>
      <trkpt lat="43.58617" lon="6.38796">
        <ele>634.5</ele>
        <time>2026-02-22T13:51:54Z</time>
      </trkpt>
      <trkpt lat="43.58617" lon="6.38794">
        <ele>634.5</ele>
        <time>2026-02-22T13:51:55Z</time>
      </trkpt>
      <trkpt lat="43.58617" lon="6.38793">
        <ele>634.7</ele>
        <time>2026-02-22T13:51:56Z</time>
      </trkpt>
      <trkpt lat="43.58617" lon="6.38791">
        <ele>634.9</ele>
        <time>2026-02-22T13:51:57Z</time>
      </trkpt>
      <trkpt lat="43.58616" lon="6.3879">
        <ele>635.1</ele>
        <time>2026-02-22T13:51:58Z</time>
      </trkpt>
      <trkpt lat="43.58616" lon="6.38789">
        <ele>635.2</ele>
        <time>2026-02-22T13:51:59Z</time>
      </trkpt>
      <trkpt lat="43.58616" lon="6.38788">
        <ele>635.3</ele>
        <time>2026-02-22T13:52:00Z</time>
      </trkpt>
      <trkpt lat="43.58616" lon="6.38788">
        <ele>635.4</ele>
        <time>2026-02-22T13:52:01Z</time>
      </trkpt>
      <trkpt lat="43.58616" lon="6.38786">
        <ele>635.5</ele>
        <time>2026-02-22T13:52:02Z</time>
      </trkpt>
      <trkpt lat="43.58615" lon="6.38785">
        <ele>635.7</ele>
        <time>2026-02-22T13:52:03Z</time>
      </trkpt>
      <trkpt lat="43.58616" lon="6.38784">
        <ele>635.8</ele>
        <time>2026-02-22T13:52:04Z</time>
      </trkpt>
      <trkpt lat="43.58615" lon="6.38783">
        <ele>635.9</ele>
        <time>2026-02-22T13:52:05Z</time>
      </trkpt>
      <trkpt lat="43.58615" lon="6.38782">
        <ele>636</ele>
        <time>2026-02-22T13:52:06Z</time>
      </trkpt>
      <trkpt lat="43.58615" lon="6.3878">
        <ele>636.1</ele>
        <time>2026-02-22T13:52:07Z</time>
      </trkpt>
      <trkpt lat="43.58615" lon="6.38779">
        <ele>636.3</ele>
        <time>2026-02-22T13:52:08Z</time>
      </trkpt>
      <trkpt lat="43.58615" lon="6.38778">
        <ele>636.3</ele>
        <time>2026-02-22T13:52:09Z</time>
      </trkpt>
      <trkpt lat="43.58615" lon="6.38777">
        <ele>636.4</ele>
        <time>2026-02-22T13:52:10Z</time>
      </trkpt>
      <trkpt lat="43.58614" lon="6.38775">
        <ele>636.4</ele>
        <time>2026-02-22T13:52:11Z</time>
      </trkpt>
      <trkpt lat="43.58614" lon="6.38774">
        <ele>636.4</ele>
        <time>2026-02-22T13:52:12Z</time>
      </trkpt>
      <trkpt lat="43.58615" lon="6.38773">
        <ele>636.4</ele>
        <time>2026-02-22T13:52:13Z</time>
      </trkpt>
      <trkpt lat="43.58615" lon="6.38772">
        <ele>636.3</ele>
        <time>2026-02-22T13:52:14Z</time>
      </trkpt>
      <trkpt lat="43.58615" lon="6.3877">
        <ele>636.4</ele>
        <time>2026-02-22T13:52:15Z</time>
      </trkpt>
      <trkpt lat="43.58616" lon="6.38769">
        <ele>636.5</ele>
        <time>2026-02-22T13:52:16Z</time>
      </trkpt>
      <trkpt lat="43.58616" lon="6.38768">
        <ele>636.6</ele>
        <time>2026-02-22T13:52:17Z</time>
      </trkpt>
      <trkpt lat="43.58616" lon="6.38766">
        <ele>636.8</ele>
        <time>2026-02-22T13:52:18Z</time>
      </trkpt>
      <trkpt lat="43.58616" lon="6.38765">
        <ele>636.9</ele>
        <time>2026-02-22T13:52:19Z</time>
      </trkpt>
      <trkpt lat="43.58616" lon="6.38764">
        <ele>637</ele>
        <time>2026-02-22T13:52:20Z</time>
      </trkpt>
      <trkpt lat="43.58616" lon="6.38762">
        <ele>637</ele>
        <time>2026-02-22T13:52:21Z</time>
      </trkpt>
      <trkpt lat="43.58616" lon="6.38761">
        <ele>637.1</ele>
        <time>2026-02-22T13:52:22Z</time>
      </trkpt>
      <trkpt lat="43.58616" lon="6.3876">
        <ele>637.2</ele>
        <time>2026-02-22T13:52:23Z</time>
      </trkpt>
      <trkpt lat="43.58616" lon="6.38759">
        <ele>637.3</ele>
        <time>2026-02-22T13:52:24Z</time>
      </trkpt>
      <trkpt lat="43.58616" lon="6.38758">
        <ele>637.3</ele>
        <time>2026-02-22T13:52:25Z</time>
      </trkpt>
      <trkpt lat="43.58616" lon="6.38757">
        <ele>637.3</ele>
        <time>2026-02-22T13:52:26Z</time>
      </trkpt>
      <trkpt lat="43.58616" lon="6.38756">
        <ele>637.3</ele>
        <time>2026-02-22T13:52:27Z</time>
      </trkpt>
      <trkpt lat="43.58617" lon="6.38755">
        <ele>637.2</ele>
        <time>2026-02-22T13:52:28Z</time>
      </trkpt>
      <trkpt lat="43.58617" lon="6.38754">
        <ele>637.1</ele>
        <time>2026-02-22T13:52:29Z</time>
      </trkpt>
      <trkpt lat="43.58617" lon="6.38753">
        <ele>637</ele>
        <time>2026-02-22T13:52:30Z</time>
      </trkpt>
      <trkpt lat="43.58618" lon="6.38752">
        <ele>637</ele>
        <time>2026-02-22T13:52:31Z</time>
      </trkpt>
      <trkpt lat="43.58618" lon="6.38751">
        <ele>636.9</ele>
        <time>2026-02-22T13:52:32Z</time>
      </trkpt>
      <trkpt lat="43.58619" lon="6.38749">
        <ele>636.9</ele>
        <time>2026-02-22T13:52:33Z</time>
      </trkpt>
      <trkpt lat="43.58619" lon="6.38748">
        <ele>636.8</ele>
        <time>2026-02-22T13:52:34Z</time>
      </trkpt>
      <trkpt lat="43.58619" lon="6.38747">
        <ele>636.7</ele>
        <time>2026-02-22T13:52:35Z</time>
      </trkpt>
      <trkpt lat="43.58619" lon="6.38746">
        <ele>636.7</ele>
        <time>2026-02-22T13:52:36Z</time>
      </trkpt>
      <trkpt lat="43.58619" lon="6.38744">
        <ele>636.6</ele>
        <time>2026-02-22T13:52:37Z</time>
      </trkpt>
      <trkpt lat="43.58618" lon="6.38744">
        <ele>636.5</ele>
        <time>2026-02-22T13:52:38Z</time>
      </trkpt>
      <trkpt lat="43.58618" lon="6.38743">
        <ele>636.4</ele>
        <time>2026-02-22T13:52:39Z</time>
      </trkpt>
      <trkpt lat="43.58619" lon="6.38742">
        <ele>636.4</ele>
        <time>2026-02-22T13:52:40Z</time>
      </trkpt>
      <trkpt lat="43.58619" lon="6.3874">
        <ele>636.4</ele>
        <time>2026-02-22T13:52:41Z</time>
      </trkpt>
      <trkpt lat="43.58619" lon="6.38738">
        <ele>636.3</ele>
        <time>2026-02-22T13:52:42Z</time>
      </trkpt>
      <trkpt lat="43.5862" lon="6.38736">
        <ele>636.2</ele>
        <time>2026-02-22T13:52:43Z</time>
      </trkpt>
      <trkpt lat="43.5862" lon="6.38734">
        <ele>636.1</ele>
        <time>2026-02-22T13:52:44Z</time>
      </trkpt>
      <trkpt lat="43.5862" lon="6.38733">
        <ele>636</ele>
        <time>2026-02-22T13:52:45Z</time>
      </trkpt>
      <trkpt lat="43.58621" lon="6.38731">
        <ele>636</ele>
        <time>2026-02-22T13:52:46Z</time>
      </trkpt>
      <trkpt lat="43.58621" lon="6.38731">
        <ele>635.9</ele>
        <time>2026-02-22T13:52:47Z</time>
      </trkpt>
      <trkpt lat="43.58621" lon="6.38729">
        <ele>635.9</ele>
        <time>2026-02-22T13:52:48Z</time>
      </trkpt>
      <trkpt lat="43.58622" lon="6.38728">
        <ele>635.9</ele>
        <time>2026-02-22T13:52:49Z</time>
      </trkpt>
      <trkpt lat="43.58622" lon="6.38727">
        <ele>635.8</ele>
        <time>2026-02-22T13:52:50Z</time>
      </trkpt>
      <trkpt lat="43.58622" lon="6.38725">
        <ele>635.8</ele>
        <time>2026-02-22T13:52:51Z</time>
      </trkpt>
      <trkpt lat="43.58622" lon="6.38723">
        <ele>635.8</ele>
        <time>2026-02-22T13:52:52Z</time>
      </trkpt>
      <trkpt lat="43.58622" lon="6.38721">
        <ele>635.8</ele>
        <time>2026-02-22T13:52:53Z</time>
      </trkpt>
      <trkpt lat="43.58621" lon="6.3872">
        <ele>635.8</ele>
        <time>2026-02-22T13:52:54Z</time>
      </trkpt>
      <trkpt lat="43.58621" lon="6.38719">
        <ele>635.8</ele>
        <time>2026-02-22T13:52:55Z</time>
      </trkpt>
      <trkpt lat="43.58621" lon="6.38717">
        <ele>635.6</ele>
        <time>2026-02-22T13:52:56Z</time>
      </trkpt>
      <trkpt lat="43.58621" lon="6.38715">
        <ele>635.6</ele>
        <time>2026-02-22T13:52:57Z</time>
      </trkpt>
      <trkpt lat="43.58621" lon="6.38713">
        <ele>635.6</ele>
        <time>2026-02-22T13:52:58Z</time>
      </trkpt>
      <trkpt lat="43.58621" lon="6.38712">
        <ele>635.6</ele>
        <time>2026-02-22T13:52:59Z</time>
      </trkpt>
      <trkpt lat="43.58621" lon="6.3871">
        <ele>635.6</ele>
        <time>2026-02-22T13:53:00Z</time>
      </trkpt>
      <trkpt lat="43.58622" lon="6.38708">
        <ele>635.6</ele>
        <time>2026-02-22T13:53:01Z</time>
      </trkpt>
      <trkpt lat="43.58622" lon="6.38707">
        <ele>635.7</ele>
        <time>2026-02-22T13:53:02Z</time>
      </trkpt>
      <trkpt lat="43.58622" lon="6.38705">
        <ele>635.8</ele>
        <time>2026-02-22T13:53:03Z</time>
      </trkpt>
      <trkpt lat="43.58622" lon="6.38703">
        <ele>635.8</ele>
        <time>2026-02-22T13:53:04Z</time>
      </trkpt>
      <trkpt lat="43.58622" lon="6.38702">
        <ele>635.9</ele>
        <time>2026-02-22T13:53:05Z</time>
      </trkpt>
      <trkpt lat="43.58622" lon="6.387">
        <ele>635.9</ele>
        <time>2026-02-22T13:53:06Z</time>
      </trkpt>
      <trkpt lat="43.58622" lon="6.38699">
        <ele>635.9</ele>
        <time>2026-02-22T13:53:07Z</time>
      </trkpt>
      <trkpt lat="43.58621" lon="6.38698">
        <ele>635.9</ele>
        <time>2026-02-22T13:53:08Z</time>
      </trkpt>
      <trkpt lat="43.58621" lon="6.38696">
        <ele>636</ele>
        <time>2026-02-22T13:53:09Z</time>
      </trkpt>
      <trkpt lat="43.5862" lon="6.38695">
        <ele>636</ele>
        <time>2026-02-22T13:53:10Z</time>
      </trkpt>
      <trkpt lat="43.58621" lon="6.38693">
        <ele>635.9</ele>
        <time>2026-02-22T13:53:11Z</time>
      </trkpt>
      <trkpt lat="43.58621" lon="6.38691">
        <ele>635.8</ele>
        <time>2026-02-22T13:53:12Z</time>
      </trkpt>
      <trkpt lat="43.58621" lon="6.3869">
        <ele>635.8</ele>
        <time>2026-02-22T13:53:13Z</time>
      </trkpt>
      <trkpt lat="43.58621" lon="6.38688">
        <ele>635.8</ele>
        <time>2026-02-22T13:53:14Z</time>
      </trkpt>
      <trkpt lat="43.58619" lon="6.38686">
        <ele>635.8</ele>
        <time>2026-02-22T13:53:15Z</time>
      </trkpt>
      <trkpt lat="43.58619" lon="6.38685">
        <ele>635.8</ele>
        <time>2026-02-22T13:53:16Z</time>
      </trkpt>
      <trkpt lat="43.58619" lon="6.38684">
        <ele>635.7</ele>
        <time>2026-02-22T13:53:17Z</time>
      </trkpt>
      <trkpt lat="43.58619" lon="6.38683">
        <ele>635.7</ele>
        <time>2026-02-22T13:53:18Z</time>
      </trkpt>
      <trkpt lat="43.58619" lon="6.38681">
        <ele>635.8</ele>
        <time>2026-02-22T13:53:19Z</time>
      </trkpt>
      <trkpt lat="43.58618" lon="6.3868">
        <ele>635.7</ele>
        <time>2026-02-22T13:53:20Z</time>
      </trkpt>
      <trkpt lat="43.58618" lon="6.38678">
        <ele>635.6</ele>
        <time>2026-02-22T13:53:21Z</time>
      </trkpt>
      <trkpt lat="43.58617" lon="6.38677">
        <ele>635.5</ele>
        <time>2026-02-22T13:53:22Z</time>
      </trkpt>
      <trkpt lat="43.58617" lon="6.38675">
        <ele>635.5</ele>
        <time>2026-02-22T13:53:23Z</time>
      </trkpt>
      <trkpt lat="43.58617" lon="6.38674">
        <ele>635.6</ele>
        <time>2026-02-22T13:53:24Z</time>
      </trkpt>
      <trkpt lat="43.58617" lon="6.38672">
        <ele>635.5</ele>
        <time>2026-02-22T13:53:25Z</time>
      </trkpt>
      <trkpt lat="43.58617" lon="6.38671">
        <ele>635.5</ele>
        <time>2026-02-22T13:53:26Z</time>
      </trkpt>
      <trkpt lat="43.58617" lon="6.3867">
        <ele>635.5</ele>
        <time>2026-02-22T13:53:27Z</time>
      </trkpt>
      <trkpt lat="43.58618" lon="6.38668">
        <ele>635.5</ele>
        <time>2026-02-22T13:53:28Z</time>
      </trkpt>
      <trkpt lat="43.58618" lon="6.38667">
        <ele>635.5</ele>
        <time>2026-02-22T13:53:29Z</time>
      </trkpt>
      <trkpt lat="43.58617" lon="6.38664">
        <ele>635.5</ele>
        <time>2026-02-22T13:53:30Z</time>
      </trkpt>
      <trkpt lat="43.58618" lon="6.38663">
        <ele>635.7</ele>
        <time>2026-02-22T13:53:31Z</time>
      </trkpt>
      <trkpt lat="43.58618" lon="6.38661">
        <ele>635.7</ele>
        <time>2026-02-22T13:53:32Z</time>
      </trkpt>
      <trkpt lat="43.58617" lon="6.38659">
        <ele>635.7</ele>
        <time>2026-02-22T13:53:33Z</time>
      </trkpt>
      <trkpt lat="43.58617" lon="6.38658">
        <ele>635.7</ele>
        <time>2026-02-22T13:53:34Z</time>
      </trkpt>
      <trkpt lat="43.58617" lon="6.38656">
        <ele>635.8</ele>
        <time>2026-02-22T13:53:35Z</time>
      </trkpt>
      <trkpt lat="43.58617" lon="6.38655">
        <ele>635.9</ele>
        <time>2026-02-22T13:53:36Z</time>
      </trkpt>
      <trkpt lat="43.58617" lon="6.38653">
        <ele>635.9</ele>
        <time>2026-02-22T13:53:37Z</time>
      </trkpt>
      <trkpt lat="43.58617" lon="6.38652">
        <ele>635.9</ele>
        <time>2026-02-22T13:53:38Z</time>
      </trkpt>
      <trkpt lat="43.58617" lon="6.3865">
        <ele>635.9</ele>
        <time>2026-02-22T13:53:39Z</time>
      </trkpt>
      <trkpt lat="43.58618" lon="6.38648">
        <ele>635.9</ele>
        <time>2026-02-22T13:53:40Z</time>
      </trkpt>
      <trkpt lat="43.58618" lon="6.38647">
        <ele>635.9</ele>
        <time>2026-02-22T13:53:41Z</time>
      </trkpt>
      <trkpt lat="43.58617" lon="6.38645">
        <ele>636</ele>
        <time>2026-02-22T13:53:42Z</time>
      </trkpt>
      <trkpt lat="43.58618" lon="6.38644">
        <ele>636</ele>
        <time>2026-02-22T13:53:43Z</time>
      </trkpt>
      <trkpt lat="43.58618" lon="6.38642">
        <ele>636.1</ele>
        <time>2026-02-22T13:53:44Z</time>
      </trkpt>
      <trkpt lat="43.58618" lon="6.38641">
        <ele>636.2</ele>
        <time>2026-02-22T13:53:45Z</time>
      </trkpt>
      <trkpt lat="43.58618" lon="6.38639">
        <ele>636.2</ele>
        <time>2026-02-22T13:53:46Z</time>
      </trkpt>
      <trkpt lat="43.58618" lon="6.38638">
        <ele>636.1</ele>
        <time>2026-02-22T13:53:47Z</time>
      </trkpt>
      <trkpt lat="43.58617" lon="6.38636">
        <ele>636.2</ele>
        <time>2026-02-22T13:53:48Z</time>
      </trkpt>
      <trkpt lat="43.58616" lon="6.38635">
        <ele>636.2</ele>
        <time>2026-02-22T13:53:49Z</time>
      </trkpt>
      <trkpt lat="43.58616" lon="6.38633">
        <ele>636.2</ele>
        <time>2026-02-22T13:53:50Z</time>
      </trkpt>
      <trkpt lat="43.58617" lon="6.38632">
        <ele>636.2</ele>
        <time>2026-02-22T13:53:51Z</time>
      </trkpt>
      <trkpt lat="43.58617" lon="6.38631">
        <ele>636.4</ele>
        <time>2026-02-22T13:53:52Z</time>
      </trkpt>
      <trkpt lat="43.58617" lon="6.38629">
        <ele>636.5</ele>
        <time>2026-02-22T13:53:53Z</time>
      </trkpt>
      <trkpt lat="43.58617" lon="6.38628">
        <ele>636.6</ele>
        <time>2026-02-22T13:53:54Z</time>
      </trkpt>
      <trkpt lat="43.58617" lon="6.38627">
        <ele>636.7</ele>
        <time>2026-02-22T13:53:55Z</time>
      </trkpt>
      <trkpt lat="43.58617" lon="6.38626">
        <ele>636.8</ele>
        <time>2026-02-22T13:53:56Z</time>
      </trkpt>
      <trkpt lat="43.58617" lon="6.38624">
        <ele>636.8</ele>
        <time>2026-02-22T13:53:57Z</time>
      </trkpt>
      <trkpt lat="43.58618" lon="6.38623">
        <ele>636.9</ele>
        <time>2026-02-22T13:53:58Z</time>
      </trkpt>
      <trkpt lat="43.58618" lon="6.38621">
        <ele>636.9</ele>
        <time>2026-02-22T13:53:59Z</time>
      </trkpt>
      <trkpt lat="43.58618" lon="6.3862">
        <ele>637</ele>
        <time>2026-02-22T13:54:00Z</time>
      </trkpt>
      <trkpt lat="43.58618" lon="6.38619">
        <ele>637.1</ele>
        <time>2026-02-22T13:54:01Z</time>
      </trkpt>
      <trkpt lat="43.58618" lon="6.38618">
        <ele>637.2</ele>
        <time>2026-02-22T13:54:02Z</time>
      </trkpt>
      <trkpt lat="43.58618" lon="6.38616">
        <ele>637.3</ele>
        <time>2026-02-22T13:54:03Z</time>
      </trkpt>
      <trkpt lat="43.58618" lon="6.38615">
        <ele>637.4</ele>
        <time>2026-02-22T13:54:04Z</time>
      </trkpt>
      <trkpt lat="43.58618" lon="6.38614">
        <ele>637.6</ele>
        <time>2026-02-22T13:54:05Z</time>
      </trkpt>
      <trkpt lat="43.58618" lon="6.38613">
        <ele>637.7</ele>
        <time>2026-02-22T13:54:06Z</time>
      </trkpt>
      <trkpt lat="43.58619" lon="6.38612">
        <ele>637.8</ele>
        <time>2026-02-22T13:54:07Z</time>
      </trkpt>
      <trkpt lat="43.58619" lon="6.38611">
        <ele>637.9</ele>
        <time>2026-02-22T13:54:08Z</time>
      </trkpt>
      <trkpt lat="43.58619" lon="6.3861">
        <ele>637.8</ele>
        <time>2026-02-22T13:54:09Z</time>
      </trkpt>
      <trkpt lat="43.58619" lon="6.38608">
        <ele>637.9</ele>
        <time>2026-02-22T13:54:10Z</time>
      </trkpt>
      <trkpt lat="43.58619" lon="6.38607">
        <ele>638</ele>
        <time>2026-02-22T13:54:11Z</time>
      </trkpt>
      <trkpt lat="43.58618" lon="6.38606">
        <ele>638</ele>
        <time>2026-02-22T13:54:12Z</time>
      </trkpt>
      <trkpt lat="43.58618" lon="6.38604">
        <ele>638.1</ele>
        <time>2026-02-22T13:54:13Z</time>
      </trkpt>
      <trkpt lat="43.58619" lon="6.38603">
        <ele>638.1</ele>
        <time>2026-02-22T13:54:14Z</time>
      </trkpt>
      <trkpt lat="43.58618" lon="6.38601">
        <ele>638.2</ele>
        <time>2026-02-22T13:54:15Z</time>
      </trkpt>
      <trkpt lat="43.58619" lon="6.386">
        <ele>638.3</ele>
        <time>2026-02-22T13:54:16Z</time>
      </trkpt>
      <trkpt lat="43.58618" lon="6.38599">
        <ele>638.4</ele>
        <time>2026-02-22T13:54:17Z</time>
      </trkpt>
      <trkpt lat="43.58619" lon="6.38597">
        <ele>638.4</ele>
        <time>2026-02-22T13:54:18Z</time>
      </trkpt>
      <trkpt lat="43.58619" lon="6.38596">
        <ele>638.5</ele>
        <time>2026-02-22T13:54:19Z</time>
      </trkpt>
      <trkpt lat="43.58619" lon="6.38595">
        <ele>638.6</ele>
        <time>2026-02-22T13:54:20Z</time>
      </trkpt>
      <trkpt lat="43.58619" lon="6.38593">
        <ele>638.9</ele>
        <time>2026-02-22T13:54:21Z</time>
      </trkpt>
      <trkpt lat="43.58619" lon="6.38592">
        <ele>639.1</ele>
        <time>2026-02-22T13:54:22Z</time>
      </trkpt>
      <trkpt lat="43.58619" lon="6.38591">
        <ele>639.3</ele>
        <time>2026-02-22T13:54:23Z</time>
      </trkpt>
      <trkpt lat="43.58618" lon="6.3859">
        <ele>639.4</ele>
        <time>2026-02-22T13:54:24Z</time>
      </trkpt>
      <trkpt lat="43.58618" lon="6.38589">
        <ele>639.6</ele>
        <time>2026-02-22T13:54:25Z</time>
      </trkpt>
      <trkpt lat="43.58618" lon="6.38588">
        <ele>639.7</ele>
        <time>2026-02-22T13:54:26Z</time>
      </trkpt>
      <trkpt lat="43.58618" lon="6.38587">
        <ele>639.8</ele>
        <time>2026-02-22T13:54:27Z</time>
      </trkpt>
      <trkpt lat="43.58618" lon="6.38586">
        <ele>639.8</ele>
        <time>2026-02-22T13:54:28Z</time>
      </trkpt>
      <trkpt lat="43.58618" lon="6.38585">
        <ele>639.8</ele>
        <time>2026-02-22T13:54:29Z</time>
      </trkpt>
      <trkpt lat="43.58618" lon="6.38583">
        <ele>639.9</ele>
        <time>2026-02-22T13:54:30Z</time>
      </trkpt>
      <trkpt lat="43.58618" lon="6.38582">
        <ele>639.8</ele>
        <time>2026-02-22T13:54:31Z</time>
      </trkpt>
      <trkpt lat="43.58618" lon="6.38581">
        <ele>639.8</ele>
        <time>2026-02-22T13:54:32Z</time>
      </trkpt>
      <trkpt lat="43.58617" lon="6.38579">
        <ele>640</ele>
        <time>2026-02-22T13:54:33Z</time>
      </trkpt>
      <trkpt lat="43.58617" lon="6.38578">
        <ele>640.2</ele>
        <time>2026-02-22T13:54:34Z</time>
      </trkpt>
      <trkpt lat="43.58617" lon="6.38577">
        <ele>640.3</ele>
        <time>2026-02-22T13:54:35Z</time>
      </trkpt>
      <trkpt lat="43.58617" lon="6.38575">
        <ele>640.2</ele>
        <time>2026-02-22T13:54:36Z</time>
      </trkpt>
      <trkpt lat="43.58617" lon="6.38574">
        <ele>640.3</ele>
        <time>2026-02-22T13:54:37Z</time>
      </trkpt>
      <trkpt lat="43.58618" lon="6.38572">
        <ele>640.5</ele>
        <time>2026-02-22T13:54:38Z</time>
      </trkpt>
      <trkpt lat="43.58618" lon="6.38571">
        <ele>640.5</ele>
        <time>2026-02-22T13:54:39Z</time>
      </trkpt>
      <trkpt lat="43.58618" lon="6.38569">
        <ele>640.6</ele>
        <time>2026-02-22T13:54:40Z</time>
      </trkpt>
      <trkpt lat="43.58618" lon="6.38568">
        <ele>640.7</ele>
        <time>2026-02-22T13:54:41Z</time>
      </trkpt>
      <trkpt lat="43.58618" lon="6.38566">
        <ele>640.8</ele>
        <time>2026-02-22T13:54:42Z</time>
      </trkpt>
      <trkpt lat="43.58618" lon="6.38565">
        <ele>640.9</ele>
        <time>2026-02-22T13:54:43Z</time>
      </trkpt>
      <trkpt lat="43.58618" lon="6.38564">
        <ele>641</ele>
        <time>2026-02-22T13:54:44Z</time>
      </trkpt>
      <trkpt lat="43.58619" lon="6.38562">
        <ele>641.1</ele>
        <time>2026-02-22T13:54:45Z</time>
      </trkpt>
      <trkpt lat="43.58618" lon="6.38561">
        <ele>641.1</ele>
        <time>2026-02-22T13:54:46Z</time>
      </trkpt>
      <trkpt lat="43.58619" lon="6.38559">
        <ele>641.2</ele>
        <time>2026-02-22T13:54:47Z</time>
      </trkpt>
      <trkpt lat="43.58619" lon="6.38558">
        <ele>641.1</ele>
        <time>2026-02-22T13:54:48Z</time>
      </trkpt>
      <trkpt lat="43.58619" lon="6.38556">
        <ele>641.2</ele>
        <time>2026-02-22T13:54:49Z</time>
      </trkpt>
      <trkpt lat="43.58619" lon="6.38555">
        <ele>641.4</ele>
        <time>2026-02-22T13:54:50Z</time>
      </trkpt>
      <trkpt lat="43.58619" lon="6.38553">
        <ele>641.5</ele>
        <time>2026-02-22T13:54:51Z</time>
      </trkpt>
      <trkpt lat="43.58619" lon="6.38552">
        <ele>641.7</ele>
        <time>2026-02-22T13:54:52Z</time>
      </trkpt>
      <trkpt lat="43.58619" lon="6.3855">
        <ele>641.8</ele>
        <time>2026-02-22T13:54:53Z</time>
      </trkpt>
      <trkpt lat="43.58619" lon="6.38549">
        <ele>641.9</ele>
        <time>2026-02-22T13:54:54Z</time>
      </trkpt>
      <trkpt lat="43.58619" lon="6.38547">
        <ele>641.9</ele>
        <time>2026-02-22T13:54:55Z</time>
      </trkpt>
      <trkpt lat="43.58619" lon="6.38546">
        <ele>642</ele>
        <time>2026-02-22T13:54:56Z</time>
      </trkpt>
      <trkpt lat="43.58619" lon="6.38545">
        <ele>642</ele>
        <time>2026-02-22T13:54:57Z</time>
      </trkpt>
      <trkpt lat="43.58619" lon="6.38543">
        <ele>642</ele>
        <time>2026-02-22T13:54:58Z</time>
      </trkpt>
      <trkpt lat="43.58618" lon="6.38542">
        <ele>642</ele>
        <time>2026-02-22T13:54:59Z</time>
      </trkpt>
      <trkpt lat="43.58619" lon="6.3854">
        <ele>642</ele>
        <time>2026-02-22T13:55:00Z</time>
      </trkpt>
      <trkpt lat="43.58619" lon="6.38539">
        <ele>642.1</ele>
        <time>2026-02-22T13:55:01Z</time>
      </trkpt>
      <trkpt lat="43.58619" lon="6.38537">
        <ele>642.1</ele>
        <time>2026-02-22T13:55:02Z</time>
      </trkpt>
      <trkpt lat="43.58619" lon="6.38536">
        <ele>642.1</ele>
        <time>2026-02-22T13:55:03Z</time>
      </trkpt>
      <trkpt lat="43.58618" lon="6.38534">
        <ele>642.1</ele>
        <time>2026-02-22T13:55:04Z</time>
      </trkpt>
      <trkpt lat="43.58618" lon="6.38533">
        <ele>642</ele>
        <time>2026-02-22T13:55:05Z</time>
      </trkpt>
      <trkpt lat="43.58618" lon="6.38531">
        <ele>642</ele>
        <time>2026-02-22T13:55:06Z</time>
      </trkpt>
      <trkpt lat="43.58618" lon="6.3853">
        <ele>642</ele>
        <time>2026-02-22T13:55:07Z</time>
      </trkpt>
      <trkpt lat="43.58618" lon="6.38529">
        <ele>642</ele>
        <time>2026-02-22T13:55:08Z</time>
      </trkpt>
      <trkpt lat="43.58618" lon="6.38527">
        <ele>642.1</ele>
        <time>2026-02-22T13:55:09Z</time>
      </trkpt>
      <trkpt lat="43.58619" lon="6.38526">
        <ele>642.1</ele>
        <time>2026-02-22T13:55:10Z</time>
      </trkpt>
      <trkpt lat="43.58618" lon="6.38524">
        <ele>642.2</ele>
        <time>2026-02-22T13:55:11Z</time>
      </trkpt>
      <trkpt lat="43.58619" lon="6.38523">
        <ele>642.2</ele>
        <time>2026-02-22T13:55:12Z</time>
      </trkpt>
      <trkpt lat="43.58619" lon="6.38521">
        <ele>642.2</ele>
        <time>2026-02-22T13:55:13Z</time>
      </trkpt>
      <trkpt lat="43.58619" lon="6.3852">
        <ele>642.3</ele>
        <time>2026-02-22T13:55:14Z</time>
      </trkpt>
      <trkpt lat="43.58618" lon="6.38519">
        <ele>642.4</ele>
        <time>2026-02-22T13:55:15Z</time>
      </trkpt>
      <trkpt lat="43.58618" lon="6.38517">
        <ele>642.3</ele>
        <time>2026-02-22T13:55:16Z</time>
      </trkpt>
      <trkpt lat="43.58618" lon="6.38515">
        <ele>642.3</ele>
        <time>2026-02-22T13:55:17Z</time>
      </trkpt>
      <trkpt lat="43.58618" lon="6.38514">
        <ele>642.4</ele>
        <time>2026-02-22T13:55:18Z</time>
      </trkpt>
      <trkpt lat="43.58618" lon="6.38513">
        <ele>642.3</ele>
        <time>2026-02-22T13:55:19Z</time>
      </trkpt>
      <trkpt lat="43.58618" lon="6.38512">
        <ele>642.3</ele>
        <time>2026-02-22T13:55:20Z</time>
      </trkpt>
      <trkpt lat="43.58618" lon="6.38511">
        <ele>642.3</ele>
        <time>2026-02-22T13:55:21Z</time>
      </trkpt>
      <trkpt lat="43.58619" lon="6.38509">
        <ele>642.3</ele>
        <time>2026-02-22T13:55:22Z</time>
      </trkpt>
      <trkpt lat="43.5862" lon="6.38508">
        <ele>642.2</ele>
        <time>2026-02-22T13:55:23Z</time>
      </trkpt>
      <trkpt lat="43.58619" lon="6.38506">
        <ele>642.2</ele>
        <time>2026-02-22T13:55:24Z</time>
      </trkpt>
      <trkpt lat="43.5862" lon="6.38505">
        <ele>642.2</ele>
        <time>2026-02-22T13:55:25Z</time>
      </trkpt>
      <trkpt lat="43.5862" lon="6.38503">
        <ele>642.3</ele>
        <time>2026-02-22T13:55:26Z</time>
      </trkpt>
      <trkpt lat="43.5862" lon="6.38502">
        <ele>642.3</ele>
        <time>2026-02-22T13:55:27Z</time>
      </trkpt>
      <trkpt lat="43.5862" lon="6.38501">
        <ele>642.4</ele>
        <time>2026-02-22T13:55:28Z</time>
      </trkpt>
      <trkpt lat="43.5862" lon="6.385">
        <ele>642.4</ele>
        <time>2026-02-22T13:55:29Z</time>
      </trkpt>
      <trkpt lat="43.5862" lon="6.38499">
        <ele>642.4</ele>
        <time>2026-02-22T13:55:30Z</time>
      </trkpt>
      <trkpt lat="43.5862" lon="6.38499">
        <ele>642.3</ele>
        <time>2026-02-22T13:55:31Z</time>
      </trkpt>
      <trkpt lat="43.5862" lon="6.38498">
        <ele>642.3</ele>
        <time>2026-02-22T13:55:32Z</time>
      </trkpt>
      <trkpt lat="43.58619" lon="6.38497">
        <ele>642.3</ele>
        <time>2026-02-22T13:55:33Z</time>
      </trkpt>
      <trkpt lat="43.58617" lon="6.38497">
        <ele>642.3</ele>
        <time>2026-02-22T13:55:34Z</time>
      </trkpt>
      <trkpt lat="43.58617" lon="6.38497">
        <ele>642.4</ele>
        <time>2026-02-22T13:55:35Z</time>
      </trkpt>
      <trkpt lat="43.58618" lon="6.38496">
        <ele>642.5</ele>
        <time>2026-02-22T13:55:36Z</time>
      </trkpt>
      <trkpt lat="43.58617" lon="6.38496">
        <ele>642.6</ele>
        <time>2026-02-22T13:55:37Z</time>
      </trkpt>
      <trkpt lat="43.58617" lon="6.38495">
        <ele>642.7</ele>
        <time>2026-02-22T13:55:38Z</time>
      </trkpt>
      <trkpt lat="43.58617" lon="6.38495">
        <ele>642.7</ele>
        <time>2026-02-22T13:55:39Z</time>
      </trkpt>
      <trkpt lat="43.58618" lon="6.38495">
        <ele>642.7</ele>
        <time>2026-02-22T13:55:40Z</time>
      </trkpt>
      <trkpt lat="43.58618" lon="6.38495">
        <ele>642.8</ele>
        <time>2026-02-22T13:55:41Z</time>
      </trkpt>
      <trkpt lat="43.58618" lon="6.38495">
        <ele>642.8</ele>
        <time>2026-02-22T13:55:42Z</time>
      </trkpt>
      <trkpt lat="43.58618" lon="6.38495">
        <ele>642.8</ele>
        <time>2026-02-22T13:55:43Z</time>
      </trkpt>
      <trkpt lat="43.58618" lon="6.38495">
        <ele>642.8</ele>
        <time>2026-02-22T13:55:44Z</time>
      </trkpt>
      <trkpt lat="43.58617" lon="6.38495">
        <ele>642.8</ele>
        <time>2026-02-22T13:55:45Z</time>
      </trkpt>
      <trkpt lat="43.58617" lon="6.38495">
        <ele>642.7</ele>
        <time>2026-02-22T13:55:46Z</time>
      </trkpt>
      <trkpt lat="43.58617" lon="6.38494">
        <ele>642.7</ele>
        <time>2026-02-22T13:55:47Z</time>
      </trkpt>
      <trkpt lat="43.58617" lon="6.38494">
        <ele>642.7</ele>
        <time>2026-02-22T13:55:48Z</time>
      </trkpt>
      <trkpt lat="43.58617" lon="6.38494">
        <ele>642.7</ele>
        <time>2026-02-22T13:55:49Z</time>
      </trkpt>
      <trkpt lat="43.58617" lon="6.38493">
        <ele>642.7</ele>
        <time>2026-02-22T13:55:50Z</time>
      </trkpt>
      <trkpt lat="43.58617" lon="6.38493">
        <ele>642.7</ele>
        <time>2026-02-22T13:55:51Z</time>
      </trkpt>
      <trkpt lat="43.58616" lon="6.38493">
        <ele>642.5</ele>
        <time>2026-02-22T13:55:52Z</time>
      </trkpt>
      <trkpt lat="43.58616" lon="6.38493">
        <ele>642.5</ele>
        <time>2026-02-22T13:55:53Z</time>
      </trkpt>
      <trkpt lat="43.58615" lon="6.38493">
        <ele>642.6</ele>
        <time>2026-02-22T13:55:54Z</time>
      </trkpt>
      <trkpt lat="43.58615" lon="6.38493">
        <ele>642.6</ele>
        <time>2026-02-22T13:55:55Z</time>
      </trkpt>
      <trkpt lat="43.58615" lon="6.38493">
        <ele>642.6</ele>
        <time>2026-02-22T13:55:56Z</time>
      </trkpt>
      <trkpt lat="43.58615" lon="6.38493">
        <ele>642.7</ele>
        <time>2026-02-22T13:55:57Z</time>
      </trkpt>
      <trkpt lat="43.58615" lon="6.38493">
        <ele>642.7</ele>
        <time>2026-02-22T13:55:58Z</time>
      </trkpt>
      <trkpt lat="43.58615" lon="6.38493">
        <ele>642.7</ele>
        <time>2026-02-22T13:55:59Z</time>
      </trkpt>
      <trkpt lat="43.58614" lon="6.38493">
        <ele>642.7</ele>
        <time>2026-02-22T13:56:00Z</time>
      </trkpt>
      <trkpt lat="43.58615" lon="6.38493">
        <ele>642.8</ele>
        <time>2026-02-22T13:56:01Z</time>
      </trkpt>
      <trkpt lat="43.58615" lon="6.38493">
        <ele>642.8</ele>
        <time>2026-02-22T13:56:02Z</time>
      </trkpt>
      <trkpt lat="43.58615" lon="6.38493">
        <ele>642.8</ele>
        <time>2026-02-22T13:56:03Z</time>
      </trkpt>
      <trkpt lat="43.58615" lon="6.38492">
        <ele>642.7</ele>
        <time>2026-02-22T13:56:04Z</time>
      </trkpt>
      <trkpt lat="43.58615" lon="6.38492">
        <ele>642.7</ele>
        <time>2026-02-22T13:56:05Z</time>
      </trkpt>
      <trkpt lat="43.58615" lon="6.38492">
        <ele>642.7</ele>
        <time>2026-02-22T13:56:06Z</time>
      </trkpt>
      <trkpt lat="43.58615" lon="6.38493">
        <ele>642.8</ele>
        <time>2026-02-22T13:56:07Z</time>
      </trkpt>
      <trkpt lat="43.58615" lon="6.38493">
        <ele>642.7</ele>
        <time>2026-02-22T13:56:08Z</time>
      </trkpt>
      <trkpt lat="43.58614" lon="6.38493">
        <ele>642.8</ele>
        <time>2026-02-22T13:56:09Z</time>
      </trkpt>
      <trkpt lat="43.58614" lon="6.38493">
        <ele>642.7</ele>
        <time>2026-02-22T13:56:10Z</time>
      </trkpt>
      <trkpt lat="43.58614" lon="6.38493">
        <ele>642.8</ele>
        <time>2026-02-22T13:56:11Z</time>
      </trkpt>
      <trkpt lat="43.58614" lon="6.38493">
        <ele>642.8</ele>
        <time>2026-02-22T13:56:12Z</time>
      </trkpt>
      <trkpt lat="43.58614" lon="6.38493">
        <ele>642.8</ele>
        <time>2026-02-22T13:56:13Z</time>
      </trkpt>
      <trkpt lat="43.58614" lon="6.38493">
        <ele>642.8</ele>
        <time>2026-02-22T13:56:14Z</time>
      </trkpt>
      <trkpt lat="43.58614" lon="6.38493">
        <ele>642.8</ele>
        <time>2026-02-22T13:56:15Z</time>
      </trkpt>
      <trkpt lat="43.58614" lon="6.38493">
        <ele>642.8</ele>
        <time>2026-02-22T13:56:16Z</time>
      </trkpt>
      <trkpt lat="43.58615" lon="6.38493">
        <ele>642.8</ele>
        <time>2026-02-22T13:56:17Z</time>
      </trkpt>
      <trkpt lat="43.58615" lon="6.38493">
        <ele>642.9</ele>
        <time>2026-02-22T13:56:18Z</time>
      </trkpt>
      <trkpt lat="43.58615" lon="6.38493">
        <ele>642.9</ele>
        <time>2026-02-22T13:56:19Z</time>
      </trkpt>
      <trkpt lat="43.58615" lon="6.38493">
        <ele>643</ele>
        <time>2026-02-22T13:56:20Z</time>
      </trkpt>
      <trkpt lat="43.58616" lon="6.38493">
        <ele>643</ele>
        <time>2026-02-22T13:56:21Z</time>
      </trkpt>
      <trkpt lat="43.58616" lon="6.38493">
        <ele>643</ele>
        <time>2026-02-22T13:56:22Z</time>
      </trkpt>
      <trkpt lat="43.58616" lon="6.38493">
        <ele>643</ele>
        <time>2026-02-22T13:56:23Z</time>
      </trkpt>
      <trkpt lat="43.58616" lon="6.38493">
        <ele>643</ele>
        <time>2026-02-22T13:56:24Z</time>
      </trkpt>
      <trkpt lat="43.58616" lon="6.38494">
        <ele>642.9</ele>
        <time>2026-02-22T13:56:25Z</time>
      </trkpt>
      <trkpt lat="43.58616" lon="6.38494">
        <ele>642.8</ele>
        <time>2026-02-22T13:56:26Z</time>
      </trkpt>
      <trkpt lat="43.58616" lon="6.38494">
        <ele>642.8</ele>
        <time>2026-02-22T13:56:27Z</time>
      </trkpt>
      <trkpt lat="43.58616" lon="6.38494">
        <ele>642.7</ele>
        <time>2026-02-22T13:56:28Z</time>
      </trkpt>
      <trkpt lat="43.58616" lon="6.38494">
        <ele>642.7</ele>
        <time>2026-02-22T13:56:29Z</time>
      </trkpt>
      <trkpt lat="43.58616" lon="6.38494">
        <ele>642.7</ele>
        <time>2026-02-22T13:56:30Z</time>
      </trkpt>
      <trkpt lat="43.58616" lon="6.38494">
        <ele>642.8</ele>
        <time>2026-02-22T13:56:31Z</time>
      </trkpt>
      <trkpt lat="43.58617" lon="6.38494">
        <ele>642.9</ele>
        <time>2026-02-22T13:56:32Z</time>
      </trkpt>
      <trkpt lat="43.58617" lon="6.38494">
        <ele>643</ele>
        <time>2026-02-22T13:56:33Z</time>
      </trkpt>
      <trkpt lat="43.58617" lon="6.38494">
        <ele>643</ele>
        <time>2026-02-22T13:56:34Z</time>
      </trkpt>
      <trkpt lat="43.58618" lon="6.38494">
        <ele>643.1</ele>
        <time>2026-02-22T13:56:35Z</time>
      </trkpt>
      <trkpt lat="43.58618" lon="6.38494">
        <ele>643.1</ele>
        <time>2026-02-22T13:56:36Z</time>
      </trkpt>
      <trkpt lat="43.58618" lon="6.38494">
        <ele>643.2</ele>
        <time>2026-02-22T13:56:37Z</time>
      </trkpt>
      <trkpt lat="43.58619" lon="6.38494">
        <ele>643.4</ele>
        <time>2026-02-22T13:56:38Z</time>
      </trkpt>
      <trkpt lat="43.5862" lon="6.38494">
        <ele>643.6</ele>
        <time>2026-02-22T13:56:39Z</time>
      </trkpt>
      <trkpt lat="43.5862" lon="6.38494">
        <ele>643.7</ele>
        <time>2026-02-22T13:56:40Z</time>
      </trkpt>
      <trkpt lat="43.5862" lon="6.38494">
        <ele>643.8</ele>
        <time>2026-02-22T13:56:41Z</time>
      </trkpt>
      <trkpt lat="43.58621" lon="6.38494">
        <ele>643.9</ele>
        <time>2026-02-22T13:56:42Z</time>
      </trkpt>
      <trkpt lat="43.58621" lon="6.38494">
        <ele>644</ele>
        <time>2026-02-22T13:56:43Z</time>
      </trkpt>
      <trkpt lat="43.58622" lon="6.38493">
        <ele>644.1</ele>
        <time>2026-02-22T13:56:44Z</time>
      </trkpt>
      <trkpt lat="43.58622" lon="6.38493">
        <ele>644.3</ele>
        <time>2026-02-22T13:56:45Z</time>
      </trkpt>
      <trkpt lat="43.58622" lon="6.38493">
        <ele>644.4</ele>
        <time>2026-02-22T13:56:46Z</time>
      </trkpt>
      <trkpt lat="43.58622" lon="6.38493">
        <ele>644.5</ele>
        <time>2026-02-22T13:56:47Z</time>
      </trkpt>
      <trkpt lat="43.58622" lon="6.38493">
        <ele>644.7</ele>
        <time>2026-02-22T13:56:48Z</time>
      </trkpt>
      <trkpt lat="43.58622" lon="6.38493">
        <ele>644.8</ele>
        <time>2026-02-22T13:56:49Z</time>
      </trkpt>
      <trkpt lat="43.58623" lon="6.38493">
        <ele>645</ele>
        <time>2026-02-22T13:56:50Z</time>
      </trkpt>
      <trkpt lat="43.58624" lon="6.38493">
        <ele>645</ele>
        <time>2026-02-22T13:56:51Z</time>
      </trkpt>
      <trkpt lat="43.58624" lon="6.38493">
        <ele>645.1</ele>
        <time>2026-02-22T13:56:52Z</time>
      </trkpt>
      <trkpt lat="43.58624" lon="6.38492">
        <ele>645.2</ele>
        <time>2026-02-22T13:56:53Z</time>
      </trkpt>
      <trkpt lat="43.58625" lon="6.38492">
        <ele>645.3</ele>
        <time>2026-02-22T13:56:54Z</time>
      </trkpt>
      <trkpt lat="43.58626" lon="6.38492">
        <ele>645.4</ele>
        <time>2026-02-22T13:56:55Z</time>
      </trkpt>
      <trkpt lat="43.58626" lon="6.38492">
        <ele>645.5</ele>
        <time>2026-02-22T13:56:56Z</time>
      </trkpt>
      <trkpt lat="43.58627" lon="6.38492">
        <ele>645.7</ele>
        <time>2026-02-22T13:56:57Z</time>
      </trkpt>
      <trkpt lat="43.58627" lon="6.38493">
        <ele>645.7</ele>
        <time>2026-02-22T13:56:58Z</time>
      </trkpt>
      <trkpt lat="43.58628" lon="6.38493">
        <ele>645.7</ele>
        <time>2026-02-22T13:56:59Z</time>
      </trkpt>
      <trkpt lat="43.58628" lon="6.38494">
        <ele>645.8</ele>
        <time>2026-02-22T13:57:00Z</time>
      </trkpt>
      <trkpt lat="43.58629" lon="6.38494">
        <ele>645.8</ele>
        <time>2026-02-22T13:57:01Z</time>
      </trkpt>
      <trkpt lat="43.58629" lon="6.38495">
        <ele>646</ele>
        <time>2026-02-22T13:57:02Z</time>
      </trkpt>
      <trkpt lat="43.58629" lon="6.38495">
        <ele>646.1</ele>
        <time>2026-02-22T13:57:03Z</time>
      </trkpt>
      <trkpt lat="43.58629" lon="6.38495">
        <ele>646.2</ele>
        <time>2026-02-22T13:57:04Z</time>
      </trkpt>
      <trkpt lat="43.58629" lon="6.38496">
        <ele>646.3</ele>
        <time>2026-02-22T13:57:05Z</time>
      </trkpt>
      <trkpt lat="43.5863" lon="6.38496">
        <ele>646.4</ele>
        <time>2026-02-22T13:57:06Z</time>
      </trkpt>
      <trkpt lat="43.5863" lon="6.38496">
        <ele>646.4</ele>
        <time>2026-02-22T13:57:07Z</time>
      </trkpt>
      <trkpt lat="43.5863" lon="6.38496">
        <ele>646.5</ele>
        <time>2026-02-22T13:57:08Z</time>
      </trkpt>
      <trkpt lat="43.58631" lon="6.38497">
        <ele>646.6</ele>
        <time>2026-02-22T13:57:09Z</time>
      </trkpt>
      <trkpt lat="43.58631" lon="6.38497">
        <ele>646.6</ele>
        <time>2026-02-22T13:57:10Z</time>
      </trkpt>
      <trkpt lat="43.58631" lon="6.38497">
        <ele>646.6</ele>
        <time>2026-02-22T13:57:11Z</time>
      </trkpt>
      <trkpt lat="43.58632" lon="6.38497">
        <ele>646.8</ele>
        <time>2026-02-22T13:57:12Z</time>
      </trkpt>
      <trkpt lat="43.58632" lon="6.38498">
        <ele>646.9</ele>
        <time>2026-02-22T13:57:13Z</time>
      </trkpt>
      <trkpt lat="43.58632" lon="6.38498">
        <ele>647.1</ele>
        <time>2026-02-22T13:57:14Z</time>
      </trkpt>
      <trkpt lat="43.58634" lon="6.38496">
        <ele>647.3</ele>
        <time>2026-02-22T13:57:15Z</time>
      </trkpt>
      <trkpt lat="43.58634" lon="6.38495">
        <ele>647.5</ele>
        <time>2026-02-22T13:57:16Z</time>
      </trkpt>
      <trkpt lat="43.58634" lon="6.38494">
        <ele>647.7</ele>
        <time>2026-02-22T13:57:17Z</time>
      </trkpt>
      <trkpt lat="43.58635" lon="6.38494">
        <ele>647.8</ele>
        <time>2026-02-22T13:57:18Z</time>
      </trkpt>
      <trkpt lat="43.58635" lon="6.38495">
        <ele>647.9</ele>
        <time>2026-02-22T13:57:19Z</time>
      </trkpt>
      <trkpt lat="43.58636" lon="6.38495">
        <ele>648</ele>
        <time>2026-02-22T13:57:20Z</time>
      </trkpt>
      <trkpt lat="43.58636" lon="6.38495">
        <ele>648.1</ele>
        <time>2026-02-22T13:57:21Z</time>
      </trkpt>
      <trkpt lat="43.58636" lon="6.38495">
        <ele>648.3</ele>
        <time>2026-02-22T13:57:22Z</time>
      </trkpt>
      <trkpt lat="43.58637" lon="6.38496">
        <ele>648.4</ele>
        <time>2026-02-22T13:57:23Z</time>
      </trkpt>
      <trkpt lat="43.58637" lon="6.38496">
        <ele>648.5</ele>
        <time>2026-02-22T13:57:24Z</time>
      </trkpt>
      <trkpt lat="43.58637" lon="6.38496">
        <ele>648.6</ele>
        <time>2026-02-22T13:57:25Z</time>
      </trkpt>
      <trkpt lat="43.58637" lon="6.38496">
        <ele>648.6</ele>
        <time>2026-02-22T13:57:26Z</time>
      </trkpt>
      <trkpt lat="43.58637" lon="6.38496">
        <ele>648.7</ele>
        <time>2026-02-22T13:57:27Z</time>
      </trkpt>
      <trkpt lat="43.58637" lon="6.38496">
        <ele>648.7</ele>
        <time>2026-02-22T13:57:28Z</time>
      </trkpt>
      <trkpt lat="43.58637" lon="6.38496">
        <ele>648.7</ele>
        <time>2026-02-22T13:57:29Z</time>
      </trkpt>
      <trkpt lat="43.58637" lon="6.38496">
        <ele>648.8</ele>
        <time>2026-02-22T13:57:30Z</time>
      </trkpt>
      <trkpt lat="43.58637" lon="6.38496">
        <ele>648.8</ele>
        <time>2026-02-22T13:57:31Z</time>
      </trkpt>
      <trkpt lat="43.58638" lon="6.38495">
        <ele>648.8</ele>
        <time>2026-02-22T13:57:32Z</time>
      </trkpt>
      <trkpt lat="43.58638" lon="6.38495">
        <ele>648.8</ele>
        <time>2026-02-22T13:57:33Z</time>
      </trkpt>
      <trkpt lat="43.58638" lon="6.38494">
        <ele>648.8</ele>
        <time>2026-02-22T13:57:34Z</time>
      </trkpt>
      <trkpt lat="43.58638" lon="6.38494">
        <ele>648.8</ele>
        <time>2026-02-22T13:57:35Z</time>
      </trkpt>
      <trkpt lat="43.58638" lon="6.38494">
        <ele>648.8</ele>
        <time>2026-02-22T13:57:36Z</time>
      </trkpt>
      <trkpt lat="43.58638" lon="6.38494">
        <ele>648.9</ele>
        <time>2026-02-22T13:57:37Z</time>
      </trkpt>
      <trkpt lat="43.58637" lon="6.38494">
        <ele>648.8</ele>
        <time>2026-02-22T13:57:38Z</time>
      </trkpt>
      <trkpt lat="43.58637" lon="6.38494">
        <ele>648.8</ele>
        <time>2026-02-22T13:57:39Z</time>
      </trkpt>
      <trkpt lat="43.58637" lon="6.38494">
        <ele>648.8</ele>
        <time>2026-02-22T13:57:40Z</time>
      </trkpt>
      <trkpt lat="43.58637" lon="6.38494">
        <ele>648.8</ele>
        <time>2026-02-22T13:57:41Z</time>
      </trkpt>
      <trkpt lat="43.58637" lon="6.38494">
        <ele>648.8</ele>
        <time>2026-02-22T13:57:42Z</time>
      </trkpt>
      <trkpt lat="43.58636" lon="6.38494">
        <ele>648.9</ele>
        <time>2026-02-22T13:57:43Z</time>
      </trkpt>
      <trkpt lat="43.58637" lon="6.38494">
        <ele>648.9</ele>
        <time>2026-02-22T13:57:44Z</time>
      </trkpt>
      <trkpt lat="43.58637" lon="6.38494">
        <ele>649</ele>
        <time>2026-02-22T13:57:45Z</time>
      </trkpt>
      <trkpt lat="43.58637" lon="6.38495">
        <ele>649</ele>
        <time>2026-02-22T13:57:46Z</time>
      </trkpt>
      <trkpt lat="43.58638" lon="6.38495">
        <ele>649</ele>
        <time>2026-02-22T13:57:47Z</time>
      </trkpt>
      <trkpt lat="43.58638" lon="6.38495">
        <ele>649</ele>
        <time>2026-02-22T13:57:48Z</time>
      </trkpt>
      <trkpt lat="43.58638" lon="6.38495">
        <ele>649</ele>
        <time>2026-02-22T13:57:49Z</time>
      </trkpt>
      <trkpt lat="43.58639" lon="6.38496">
        <ele>649</ele>
        <time>2026-02-22T13:57:50Z</time>
      </trkpt>
      <trkpt lat="43.58639" lon="6.38496">
        <ele>649.1</ele>
        <time>2026-02-22T13:57:51Z</time>
      </trkpt>
      <trkpt lat="43.58639" lon="6.38496">
        <ele>649.2</ele>
        <time>2026-02-22T13:57:52Z</time>
      </trkpt>
      <trkpt lat="43.58639" lon="6.38496">
        <ele>649.3</ele>
        <time>2026-02-22T13:57:53Z</time>
      </trkpt>
      <trkpt lat="43.58639" lon="6.38496">
        <ele>649.3</ele>
        <time>2026-02-22T13:57:54Z</time>
      </trkpt>
      <trkpt lat="43.58639" lon="6.38496">
        <ele>649.4</ele>
        <time>2026-02-22T13:57:55Z</time>
      </trkpt>
      <trkpt lat="43.58639" lon="6.38495">
        <ele>649.5</ele>
        <time>2026-02-22T13:57:56Z</time>
      </trkpt>
      <trkpt lat="43.5864" lon="6.38495">
        <ele>649.6</ele>
        <time>2026-02-22T13:57:57Z</time>
      </trkpt>
      <trkpt lat="43.5864" lon="6.38494">
        <ele>649.6</ele>
        <time>2026-02-22T13:57:58Z</time>
      </trkpt>
      <trkpt lat="43.5864" lon="6.38494">
        <ele>649.7</ele>
        <time>2026-02-22T13:57:59Z</time>
      </trkpt>
      <trkpt lat="43.5864" lon="6.38493">
        <ele>649.9</ele>
        <time>2026-02-22T13:58:00Z</time>
      </trkpt>
      <trkpt lat="43.5864" lon="6.38493">
        <ele>649.9</ele>
        <time>2026-02-22T13:58:01Z</time>
      </trkpt>
      <trkpt lat="43.58641" lon="6.38493">
        <ele>649.9</ele>
        <time>2026-02-22T13:58:02Z</time>
      </trkpt>
      <trkpt lat="43.58641" lon="6.38492">
        <ele>649.9</ele>
        <time>2026-02-22T13:58:03Z</time>
      </trkpt>
      <trkpt lat="43.58641" lon="6.38492">
        <ele>649.8</ele>
        <time>2026-02-22T13:58:04Z</time>
      </trkpt>
      <trkpt lat="43.58641" lon="6.38492">
        <ele>649.8</ele>
        <time>2026-02-22T13:58:05Z</time>
      </trkpt>
      <trkpt lat="43.58641" lon="6.38492">
        <ele>649.8</ele>
        <time>2026-02-22T13:58:06Z</time>
      </trkpt>
      <trkpt lat="43.58641" lon="6.38492">
        <ele>649.9</ele>
        <time>2026-02-22T13:58:07Z</time>
      </trkpt>
      <trkpt lat="43.58642" lon="6.38492">
        <ele>649.9</ele>
        <time>2026-02-22T13:58:08Z</time>
      </trkpt>
      <trkpt lat="43.58642" lon="6.38492">
        <ele>649.8</ele>
        <time>2026-02-22T13:58:09Z</time>
      </trkpt>
      <trkpt lat="43.58642" lon="6.38492">
        <ele>649.8</ele>
        <time>2026-02-22T13:58:10Z</time>
      </trkpt>
      <trkpt lat="43.58642" lon="6.38492">
        <ele>649.7</ele>
        <time>2026-02-22T13:58:11Z</time>
      </trkpt>
      <trkpt lat="43.58642" lon="6.38492">
        <ele>649.7</ele>
        <time>2026-02-22T13:58:12Z</time>
      </trkpt>
      <trkpt lat="43.58642" lon="6.38492">
        <ele>649.7</ele>
        <time>2026-02-22T13:58:13Z</time>
      </trkpt>
      <trkpt lat="43.58642" lon="6.38492">
        <ele>649.7</ele>
        <time>2026-02-22T13:58:14Z</time>
      </trkpt>
      <trkpt lat="43.58642" lon="6.38492">
        <ele>649.7</ele>
        <time>2026-02-22T13:58:15Z</time>
      </trkpt>
      <trkpt lat="43.58642" lon="6.38491">
        <ele>649.6</ele>
        <time>2026-02-22T13:58:16Z</time>
      </trkpt>
      <trkpt lat="43.58642" lon="6.38491">
        <ele>649.6</ele>
        <time>2026-02-22T13:58:17Z</time>
      </trkpt>
      <trkpt lat="43.58642" lon="6.38491">
        <ele>649.6</ele>
        <time>2026-02-22T13:58:18Z</time>
      </trkpt>
      <trkpt lat="43.58642" lon="6.38491">
        <ele>649.6</ele>
        <time>2026-02-22T13:58:19Z</time>
      </trkpt>
      <trkpt lat="43.58643" lon="6.38491">
        <ele>649.7</ele>
        <time>2026-02-22T13:58:20Z</time>
      </trkpt>
      <trkpt lat="43.58643" lon="6.38491">
        <ele>649.8</ele>
        <time>2026-02-22T13:58:21Z</time>
      </trkpt>
      <trkpt lat="43.58643" lon="6.38491">
        <ele>649.9</ele>
        <time>2026-02-22T13:58:22Z</time>
      </trkpt>
      <trkpt lat="43.58643" lon="6.38491">
        <ele>650</ele>
        <time>2026-02-22T13:58:23Z</time>
      </trkpt>
      <trkpt lat="43.58643" lon="6.38491">
        <ele>649.9</ele>
        <time>2026-02-22T13:58:24Z</time>
      </trkpt>
      <trkpt lat="43.58643" lon="6.38491">
        <ele>649.9</ele>
        <time>2026-02-22T13:58:25Z</time>
      </trkpt>
      <trkpt lat="43.58643" lon="6.38491">
        <ele>649.9</ele>
        <time>2026-02-22T13:58:26Z</time>
      </trkpt>
      <trkpt lat="43.58643" lon="6.38491">
        <ele>650</ele>
        <time>2026-02-22T13:58:27Z</time>
      </trkpt>
      <trkpt lat="43.58642" lon="6.38491">
        <ele>650</ele>
        <time>2026-02-22T13:58:28Z</time>
      </trkpt>
      <trkpt lat="43.58643" lon="6.38491">
        <ele>650</ele>
        <time>2026-02-22T13:58:29Z</time>
      </trkpt>
      <trkpt lat="43.58643" lon="6.38492">
        <ele>650</ele>
        <time>2026-02-22T13:58:30Z</time>
      </trkpt>
      <trkpt lat="43.58643" lon="6.38492">
        <ele>650.1</ele>
        <time>2026-02-22T13:58:31Z</time>
      </trkpt>
      <trkpt lat="43.58643" lon="6.38492">
        <ele>650.1</ele>
        <time>2026-02-22T13:58:32Z</time>
      </trkpt>
      <trkpt lat="43.58644" lon="6.38492">
        <ele>650.2</ele>
        <time>2026-02-22T13:58:33Z</time>
      </trkpt>
      <trkpt lat="43.58644" lon="6.38491">
        <ele>650.3</ele>
        <time>2026-02-22T13:58:34Z</time>
      </trkpt>
      <trkpt lat="43.58644" lon="6.38491">
        <ele>650.4</ele>
        <time>2026-02-22T13:58:35Z</time>
      </trkpt>
      <trkpt lat="43.58644" lon="6.38491">
        <ele>650.4</ele>
        <time>2026-02-22T13:58:36Z</time>
      </trkpt>
      <trkpt lat="43.58644" lon="6.38491">
        <ele>650.3</ele>
        <time>2026-02-22T13:58:37Z</time>
      </trkpt>
      <trkpt lat="43.58645" lon="6.38491">
        <ele>650.3</ele>
        <time>2026-02-22T13:58:38Z</time>
      </trkpt>
      <trkpt lat="43.58644" lon="6.38491">
        <ele>650.3</ele>
        <time>2026-02-22T13:58:39Z</time>
      </trkpt>
      <trkpt lat="43.58644" lon="6.38491">
        <ele>650.3</ele>
        <time>2026-02-22T13:58:40Z</time>
      </trkpt>
      <trkpt lat="43.58644" lon="6.38491">
        <ele>650.3</ele>
        <time>2026-02-22T13:58:41Z</time>
      </trkpt>
      <trkpt lat="43.58644" lon="6.38491">
        <ele>650.4</ele>
        <time>2026-02-22T13:58:42Z</time>
      </trkpt>
      <trkpt lat="43.58644" lon="6.38491">
        <ele>650.4</ele>
        <time>2026-02-22T13:58:43Z</time>
      </trkpt>
      <trkpt lat="43.58644" lon="6.38491">
        <ele>650.4</ele>
        <time>2026-02-22T13:58:44Z</time>
      </trkpt>
      <trkpt lat="43.58644" lon="6.38491">
        <ele>650.4</ele>
        <time>2026-02-22T13:58:45Z</time>
      </trkpt>
      <trkpt lat="43.58644" lon="6.38491">
        <ele>650.5</ele>
        <time>2026-02-22T13:58:46Z</time>
      </trkpt>
      <trkpt lat="43.58644" lon="6.38491">
        <ele>650.5</ele>
        <time>2026-02-22T13:58:47Z</time>
      </trkpt>
      <trkpt lat="43.58644" lon="6.38491">
        <ele>650.6</ele>
        <time>2026-02-22T13:58:48Z</time>
      </trkpt>
      <trkpt lat="43.58644" lon="6.38491">
        <ele>650.7</ele>
        <time>2026-02-22T13:58:49Z</time>
      </trkpt>
      <trkpt lat="43.58644" lon="6.3849">
        <ele>650.8</ele>
        <time>2026-02-22T13:58:50Z</time>
      </trkpt>
      <trkpt lat="43.58644" lon="6.3849">
        <ele>650.7</ele>
        <time>2026-02-22T13:58:51Z</time>
      </trkpt>
      <trkpt lat="43.58644" lon="6.3849">
        <ele>650.7</ele>
        <time>2026-02-22T13:58:52Z</time>
      </trkpt>
      <trkpt lat="43.58644" lon="6.3849">
        <ele>650.6</ele>
        <time>2026-02-22T13:58:53Z</time>
      </trkpt>
      <trkpt lat="43.58644" lon="6.3849">
        <ele>650.6</ele>
        <time>2026-02-22T13:58:54Z</time>
      </trkpt>
      <trkpt lat="43.58644" lon="6.3849">
        <ele>650.5</ele>
        <time>2026-02-22T13:58:55Z</time>
      </trkpt>
      <trkpt lat="43.58644" lon="6.3849">
        <ele>650.5</ele>
        <time>2026-02-22T13:58:56Z</time>
      </trkpt>
      <trkpt lat="43.58644" lon="6.3849">
        <ele>650.4</ele>
        <time>2026-02-22T13:58:57Z</time>
      </trkpt>
      <trkpt lat="43.58644" lon="6.3849">
        <ele>650.3</ele>
        <time>2026-02-22T13:58:58Z</time>
      </trkpt>
      <trkpt lat="43.58644" lon="6.3849">
        <ele>650.2</ele>
        <time>2026-02-22T13:58:59Z</time>
      </trkpt>
      <trkpt lat="43.58644" lon="6.3849">
        <ele>650.2</ele>
        <time>2026-02-22T13:59:00Z</time>
      </trkpt>
      <trkpt lat="43.58644" lon="6.3849">
        <ele>650.2</ele>
        <time>2026-02-22T13:59:01Z</time>
      </trkpt>
      <trkpt lat="43.58644" lon="6.38491">
        <ele>650.2</ele>
        <time>2026-02-22T13:59:02Z</time>
      </trkpt>
      <trkpt lat="43.58644" lon="6.38491">
        <ele>650.1</ele>
        <time>2026-02-22T13:59:03Z</time>
      </trkpt>
      <trkpt lat="43.58644" lon="6.38491">
        <ele>650.1</ele>
        <time>2026-02-22T13:59:04Z</time>
      </trkpt>
      <trkpt lat="43.58644" lon="6.38491">
        <ele>650.1</ele>
        <time>2026-02-22T13:59:05Z</time>
      </trkpt>
      <trkpt lat="43.58644" lon="6.38491">
        <ele>650.2</ele>
        <time>2026-02-22T13:59:06Z</time>
      </trkpt>
      <trkpt lat="43.58645" lon="6.38491">
        <ele>650.2</ele>
        <time>2026-02-22T13:59:07Z</time>
      </trkpt>
      <trkpt lat="43.58645" lon="6.38491">
        <ele>650.3</ele>
        <time>2026-02-22T13:59:08Z</time>
      </trkpt>
      <trkpt lat="43.58645" lon="6.38491">
        <ele>650.3</ele>
        <time>2026-02-22T13:59:09Z</time>
      </trkpt>
      <trkpt lat="43.58645" lon="6.38491">
        <ele>650.3</ele>
        <time>2026-02-22T13:59:10Z</time>
      </trkpt>
      <trkpt lat="43.58645" lon="6.38491">
        <ele>650.4</ele>
        <time>2026-02-22T13:59:11Z</time>
      </trkpt>
      <trkpt lat="43.58645" lon="6.38491">
        <ele>650.4</ele>
        <time>2026-02-22T13:59:12Z</time>
      </trkpt>
      <trkpt lat="43.58645" lon="6.38491">
        <ele>650.4</ele>
        <time>2026-02-22T13:59:13Z</time>
      </trkpt>
      <trkpt lat="43.58645" lon="6.38491">
        <ele>650.4</ele>
        <time>2026-02-22T13:59:14Z</time>
      </trkpt>
      <trkpt lat="43.58645" lon="6.38491">
        <ele>650.4</ele>
        <time>2026-02-22T13:59:15Z</time>
      </trkpt>
      <trkpt lat="43.58645" lon="6.38491">
        <ele>650.4</ele>
        <time>2026-02-22T13:59:16Z</time>
      </trkpt>
      <trkpt lat="43.58645" lon="6.38491">
        <ele>650.4</ele>
        <time>2026-02-22T13:59:17Z</time>
      </trkpt>
      <trkpt lat="43.58646" lon="6.38491">
        <ele>650.4</ele>
        <time>2026-02-22T13:59:18Z</time>
      </trkpt>
      <trkpt lat="43.58646" lon="6.38491">
        <ele>650.4</ele>
        <time>2026-02-22T13:59:19Z</time>
      </trkpt>
      <trkpt lat="43.58646" lon="6.38491">
        <ele>650.4</ele>
        <time>2026-02-22T13:59:20Z</time>
      </trkpt>
      <trkpt lat="43.58646" lon="6.38491">
        <ele>650.4</ele>
        <time>2026-02-22T13:59:21Z</time>
      </trkpt>
      <trkpt lat="43.58646" lon="6.38491">
        <ele>650.4</ele>
        <time>2026-02-22T13:59:22Z</time>
      </trkpt>
      <trkpt lat="43.58646" lon="6.38491">
        <ele>650.3</ele>
        <time>2026-02-22T13:59:23Z</time>
      </trkpt>
      <trkpt lat="43.58646" lon="6.38491">
        <ele>650.4</ele>
        <time>2026-02-22T13:59:24Z</time>
      </trkpt>
      <trkpt lat="43.58646" lon="6.38491">
        <ele>650.4</ele>
        <time>2026-02-22T13:59:25Z</time>
      </trkpt>
      <trkpt lat="43.58646" lon="6.38491">
        <ele>650.4</ele>
        <time>2026-02-22T13:59:26Z</time>
      </trkpt>
      <trkpt lat="43.58646" lon="6.38491">
        <ele>650.4</ele>
        <time>2026-02-22T13:59:27Z</time>
      </trkpt>
      <trkpt lat="43.58646" lon="6.38491">
        <ele>650.4</ele>
        <time>2026-02-22T13:59:28Z</time>
      </trkpt>
      <trkpt lat="43.58646" lon="6.38491">
        <ele>650.4</ele>
        <time>2026-02-22T13:59:29Z</time>
      </trkpt>
      <trkpt lat="43.58646" lon="6.38491">
        <ele>650.5</ele>
        <time>2026-02-22T13:59:30Z</time>
      </trkpt>
      <trkpt lat="43.58646" lon="6.38491">
        <ele>650.4</ele>
        <time>2026-02-22T13:59:31Z</time>
      </trkpt>
      <trkpt lat="43.58646" lon="6.38491">
        <ele>650.4</ele>
        <time>2026-02-22T13:59:32Z</time>
      </trkpt>
      <trkpt lat="43.58646" lon="6.38491">
        <ele>650.4</ele>
        <time>2026-02-22T13:59:33Z</time>
      </trkpt>
      <trkpt lat="43.58646" lon="6.38491">
        <ele>650.4</ele>
        <time>2026-02-22T13:59:34Z</time>
      </trkpt>
      <trkpt lat="43.58646" lon="6.38491">
        <ele>650.4</ele>
        <time>2026-02-22T13:59:35Z</time>
      </trkpt>
      <trkpt lat="43.58646" lon="6.38491">
        <ele>650.5</ele>
        <time>2026-02-22T13:59:36Z</time>
      </trkpt>
      <trkpt lat="43.58646" lon="6.38491">
        <ele>650.4</ele>
        <time>2026-02-22T13:59:37Z</time>
      </trkpt>
      <trkpt lat="43.58646" lon="6.38491">
        <ele>650.5</ele>
        <time>2026-02-22T13:59:38Z</time>
      </trkpt>
      <trkpt lat="43.58646" lon="6.3849">
        <ele>650.5</ele>
        <time>2026-02-22T13:59:39Z</time>
      </trkpt>
      <trkpt lat="43.58646" lon="6.3849">
        <ele>650.5</ele>
        <time>2026-02-22T13:59:40Z</time>
      </trkpt>
      <trkpt lat="43.58645" lon="6.3849">
        <ele>650.5</ele>
        <time>2026-02-22T13:59:41Z</time>
      </trkpt>
      <trkpt lat="43.58645" lon="6.3849">
        <ele>650.5</ele>
        <time>2026-02-22T13:59:42Z</time>
      </trkpt>
      <trkpt lat="43.58645" lon="6.3849">
        <ele>650.5</ele>
        <time>2026-02-22T13:59:43Z</time>
      </trkpt>
      <trkpt lat="43.58645" lon="6.3849">
        <ele>650.6</ele>
        <time>2026-02-22T13:59:44Z</time>
      </trkpt>
      <trkpt lat="43.58645" lon="6.3849">
        <ele>650.6</ele>
        <time>2026-02-22T13:59:45Z</time>
      </trkpt>
      <trkpt lat="43.58645" lon="6.3849">
        <ele>650.6</ele>
        <time>2026-02-22T13:59:46Z</time>
      </trkpt>
      <trkpt lat="43.58645" lon="6.38489">
        <ele>650.5</ele>
        <time>2026-02-22T13:59:47Z</time>
      </trkpt>
      <trkpt lat="43.58645" lon="6.38489">
        <ele>650.5</ele>
        <time>2026-02-22T13:59:48Z</time>
      </trkpt>
      <trkpt lat="43.58645" lon="6.38489">
        <ele>650.6</ele>
        <time>2026-02-22T13:59:49Z</time>
      </trkpt>
      <trkpt lat="43.58645" lon="6.38489">
        <ele>650.6</ele>
        <time>2026-02-22T13:59:50Z</time>
      </trkpt>
      <trkpt lat="43.58645" lon="6.38489">
        <ele>650.6</ele>
        <time>2026-02-22T13:59:51Z</time>
      </trkpt>
      <trkpt lat="43.58645" lon="6.38489">
        <ele>650.5</ele>
        <time>2026-02-22T13:59:52Z</time>
      </trkpt>
      <trkpt lat="43.58645" lon="6.3849">
        <ele>650.4</ele>
        <time>2026-02-22T13:59:53Z</time>
      </trkpt>
      <trkpt lat="43.58645" lon="6.3849">
        <ele>650.4</ele>
        <time>2026-02-22T13:59:54Z</time>
      </trkpt>
      <trkpt lat="43.58645" lon="6.3849">
        <ele>650.4</ele>
        <time>2026-02-22T13:59:55Z</time>
      </trkpt>
      <trkpt lat="43.58645" lon="6.38489">
        <ele>650.3</ele>
        <time>2026-02-22T13:59:56Z</time>
      </trkpt>
      <trkpt lat="43.58645" lon="6.38489">
        <ele>650.3</ele>
        <time>2026-02-22T13:59:57Z</time>
      </trkpt>
      <trkpt lat="43.58645" lon="6.38489">
        <ele>650.3</ele>
        <time>2026-02-22T13:59:58Z</time>
      </trkpt>
      <trkpt lat="43.58645" lon="6.38489">
        <ele>650.2</ele>
        <time>2026-02-22T13:59:59Z</time>
      </trkpt>
      <trkpt lat="43.58644" lon="6.38489">
        <ele>650.2</ele>
        <time>2026-02-22T14:00:00Z</time>
      </trkpt>
      <trkpt lat="43.58644" lon="6.38489">
        <ele>650.2</ele>
        <time>2026-02-22T14:00:01Z</time>
      </trkpt>
      <trkpt lat="43.58644" lon="6.38489">
        <ele>650.2</ele>
        <time>2026-02-22T14:00:02Z</time>
      </trkpt>
      <trkpt lat="43.58644" lon="6.38489">
        <ele>650.2</ele>
        <time>2026-02-22T14:00:03Z</time>
      </trkpt>
      <trkpt lat="43.58644" lon="6.38489">
        <ele>650.1</ele>
        <time>2026-02-22T14:00:04Z</time>
      </trkpt>
      <trkpt lat="43.58644" lon="6.38489">
        <ele>650.2</ele>
        <time>2026-02-22T14:00:05Z</time>
      </trkpt>
      <trkpt lat="43.58644" lon="6.3849">
        <ele>650.2</ele>
        <time>2026-02-22T14:00:06Z</time>
      </trkpt>
      <trkpt lat="43.58644" lon="6.3849">
        <ele>650.2</ele>
        <time>2026-02-22T14:00:07Z</time>
      </trkpt>
      <trkpt lat="43.58644" lon="6.38489">
        <ele>650.3</ele>
        <time>2026-02-22T14:00:08Z</time>
      </trkpt>
      <trkpt lat="43.58644" lon="6.3849">
        <ele>650.4</ele>
        <time>2026-02-22T14:00:09Z</time>
      </trkpt>
      <trkpt lat="43.58644" lon="6.3849">
        <ele>650.5</ele>
        <time>2026-02-22T14:00:10Z</time>
      </trkpt>
      <trkpt lat="43.58644" lon="6.3849">
        <ele>650.5</ele>
        <time>2026-02-22T14:00:11Z</time>
      </trkpt>
      <trkpt lat="43.58644" lon="6.3849">
        <ele>650.5</ele>
        <time>2026-02-22T14:00:12Z</time>
      </trkpt>
      <trkpt lat="43.58644" lon="6.3849">
        <ele>650.5</ele>
        <time>2026-02-22T14:00:13Z</time>
      </trkpt>
      <trkpt lat="43.58644" lon="6.3849">
        <ele>650.6</ele>
        <time>2026-02-22T14:00:14Z</time>
      </trkpt>
      <trkpt lat="43.58644" lon="6.3849">
        <ele>650.6</ele>
        <time>2026-02-22T14:00:15Z</time>
      </trkpt>
      <trkpt lat="43.58644" lon="6.3849">
        <ele>650.6</ele>
        <time>2026-02-22T14:00:16Z</time>
      </trkpt>
      <trkpt lat="43.58644" lon="6.3849">
        <ele>650.7</ele>
        <time>2026-02-22T14:00:17Z</time>
      </trkpt>
      <trkpt lat="43.58644" lon="6.3849">
        <ele>650.7</ele>
        <time>2026-02-22T14:00:18Z</time>
      </trkpt>
      <trkpt lat="43.58644" lon="6.3849">
        <ele>650.7</ele>
        <time>2026-02-22T14:00:19Z</time>
      </trkpt>
      <trkpt lat="43.58644" lon="6.3849">
        <ele>650.7</ele>
        <time>2026-02-22T14:00:20Z</time>
      </trkpt>
      <trkpt lat="43.58644" lon="6.3849">
        <ele>650.6</ele>
        <time>2026-02-22T14:00:21Z</time>
      </trkpt>
      <trkpt lat="43.58644" lon="6.3849">
        <ele>650.6</ele>
        <time>2026-02-22T14:00:22Z</time>
      </trkpt>
      <trkpt lat="43.58644" lon="6.3849">
        <ele>650.6</ele>
        <time>2026-02-22T14:00:23Z</time>
      </trkpt>
      <trkpt lat="43.58644" lon="6.3849">
        <ele>650.6</ele>
        <time>2026-02-22T14:00:24Z</time>
      </trkpt>
      <trkpt lat="43.58644" lon="6.3849">
        <ele>650.6</ele>
        <time>2026-02-22T14:00:25Z</time>
      </trkpt>
      <trkpt lat="43.58644" lon="6.3849">
        <ele>650.6</ele>
        <time>2026-02-22T14:00:26Z</time>
      </trkpt>
      <trkpt lat="43.58644" lon="6.3849">
        <ele>650.7</ele>
        <time>2026-02-22T14:00:27Z</time>
      </trkpt>
      <trkpt lat="43.58644" lon="6.3849">
        <ele>650.7</ele>
        <time>2026-02-22T14:00:28Z</time>
      </trkpt>
      <trkpt lat="43.58644" lon="6.3849">
        <ele>650.7</ele>
        <time>2026-02-22T14:00:29Z</time>
      </trkpt>
      <trkpt lat="43.58644" lon="6.3849">
        <ele>650.7</ele>
        <time>2026-02-22T14:00:30Z</time>
      </trkpt>
      <trkpt lat="43.58644" lon="6.3849">
        <ele>650.8</ele>
        <time>2026-02-22T14:00:31Z</time>
      </trkpt>
      <trkpt lat="43.58643" lon="6.3849">
        <ele>650.7</ele>
        <time>2026-02-22T14:00:32Z</time>
      </trkpt>
      <trkpt lat="43.58643" lon="6.3849">
        <ele>650.6</ele>
        <time>2026-02-22T14:00:33Z</time>
      </trkpt>
      <trkpt lat="43.58643" lon="6.3849">
        <ele>650.6</ele>
        <time>2026-02-22T14:00:34Z</time>
      </trkpt>
      <trkpt lat="43.58643" lon="6.3849">
        <ele>650.6</ele>
        <time>2026-02-22T14:00:35Z</time>
      </trkpt>
      <trkpt lat="43.58643" lon="6.38489">
        <ele>650.6</ele>
        <time>2026-02-22T14:00:36Z</time>
      </trkpt>
      <trkpt lat="43.58643" lon="6.38489">
        <ele>650.5</ele>
        <time>2026-02-22T14:00:37Z</time>
      </trkpt>
      <trkpt lat="43.58643" lon="6.38489">
        <ele>650.5</ele>
        <time>2026-02-22T14:00:38Z</time>
      </trkpt>
      <trkpt lat="43.58643" lon="6.38489">
        <ele>650.4</ele>
        <time>2026-02-22T14:00:39Z</time>
      </trkpt>
      <trkpt lat="43.58643" lon="6.38489">
        <ele>650.3</ele>
        <time>2026-02-22T14:00:40Z</time>
      </trkpt>
      <trkpt lat="43.58643" lon="6.38489">
        <ele>650.3</ele>
        <time>2026-02-22T14:00:41Z</time>
      </trkpt>
      <trkpt lat="43.58643" lon="6.38489">
        <ele>650.3</ele>
        <time>2026-02-22T14:00:42Z</time>
      </trkpt>
      <trkpt lat="43.58643" lon="6.38489">
        <ele>650.3</ele>
        <time>2026-02-22T14:00:43Z</time>
      </trkpt>
      <trkpt lat="43.58643" lon="6.38489">
        <ele>650.3</ele>
        <time>2026-02-22T14:00:44Z</time>
      </trkpt>
      <trkpt lat="43.58643" lon="6.38489">
        <ele>650.3</ele>
        <time>2026-02-22T14:00:45Z</time>
      </trkpt>
      <trkpt lat="43.58643" lon="6.38489">
        <ele>650.4</ele>
        <time>2026-02-22T14:00:46Z</time>
      </trkpt>
      <trkpt lat="43.58643" lon="6.38489">
        <ele>650.4</ele>
        <time>2026-02-22T14:00:47Z</time>
      </trkpt>
      <trkpt lat="43.58643" lon="6.38489">
        <ele>650.5</ele>
        <time>2026-02-22T14:00:48Z</time>
      </trkpt>
      <trkpt lat="43.58643" lon="6.38489">
        <ele>650.4</ele>
        <time>2026-02-22T14:00:49Z</time>
      </trkpt>
      <trkpt lat="43.58643" lon="6.38489">
        <ele>650.4</ele>
        <time>2026-02-22T14:00:50Z</time>
      </trkpt>
      <trkpt lat="43.58643" lon="6.38489">
        <ele>650.5</ele>
        <time>2026-02-22T14:00:51Z</time>
      </trkpt>
      <trkpt lat="43.58643" lon="6.38489">
        <ele>650.5</ele>
        <time>2026-02-22T14:00:52Z</time>
      </trkpt>
      <trkpt lat="43.58642" lon="6.38489">
        <ele>650.4</ele>
        <time>2026-02-22T14:00:53Z</time>
      </trkpt>
      <trkpt lat="43.58642" lon="6.3849">
        <ele>650.3</ele>
        <time>2026-02-22T14:00:54Z</time>
      </trkpt>
      <trkpt lat="43.58642" lon="6.3849">
        <ele>650.2</ele>
        <time>2026-02-22T14:00:55Z</time>
      </trkpt>
      <trkpt lat="43.58642" lon="6.38491">
        <ele>650.2</ele>
        <time>2026-02-22T14:00:56Z</time>
      </trkpt>
      <trkpt lat="43.58642" lon="6.3849">
        <ele>650.2</ele>
        <time>2026-02-22T14:00:57Z</time>
      </trkpt>
      <trkpt lat="43.58641" lon="6.3849">
        <ele>650.1</ele>
        <time>2026-02-22T14:00:58Z</time>
      </trkpt>
      <trkpt lat="43.58641" lon="6.38491">
        <ele>650.1</ele>
        <time>2026-02-22T14:00:59Z</time>
      </trkpt>
      <trkpt lat="43.58641" lon="6.38491">
        <ele>650</ele>
        <time>2026-02-22T14:01:00Z</time>
      </trkpt>
      <trkpt lat="43.58641" lon="6.38492">
        <ele>650.1</ele>
        <time>2026-02-22T14:01:01Z</time>
      </trkpt>
      <trkpt lat="43.5864" lon="6.38491">
        <ele>650</ele>
        <time>2026-02-22T14:01:02Z</time>
      </trkpt>
      <trkpt lat="43.5864" lon="6.38491">
        <ele>649.9</ele>
        <time>2026-02-22T14:01:03Z</time>
      </trkpt>
      <trkpt lat="43.58641" lon="6.38492">
        <ele>649.9</ele>
        <time>2026-02-22T14:01:04Z</time>
      </trkpt>
      <trkpt lat="43.58641" lon="6.38492">
        <ele>650</ele>
        <time>2026-02-22T14:01:05Z</time>
      </trkpt>
      <trkpt lat="43.58641" lon="6.38492">
        <ele>650.1</ele>
        <time>2026-02-22T14:01:06Z</time>
      </trkpt>
      <trkpt lat="43.58641" lon="6.38492">
        <ele>650</ele>
        <time>2026-02-22T14:01:07Z</time>
      </trkpt>
      <trkpt lat="43.58641" lon="6.38492">
        <ele>650</ele>
        <time>2026-02-22T14:01:08Z</time>
      </trkpt>
      <trkpt lat="43.58642" lon="6.38491">
        <ele>650</ele>
        <time>2026-02-22T14:01:09Z</time>
      </trkpt>
      <trkpt lat="43.58642" lon="6.38491">
        <ele>650</ele>
        <time>2026-02-22T14:01:10Z</time>
      </trkpt>
      <trkpt lat="43.58642" lon="6.38491">
        <ele>650.1</ele>
        <time>2026-02-22T14:01:11Z</time>
      </trkpt>
      <trkpt lat="43.58642" lon="6.3849">
        <ele>650.1</ele>
        <time>2026-02-22T14:01:12Z</time>
      </trkpt>
      <trkpt lat="43.58642" lon="6.38491">
        <ele>650.1</ele>
        <time>2026-02-22T14:01:13Z</time>
      </trkpt>
      <trkpt lat="43.58642" lon="6.38491">
        <ele>650.2</ele>
        <time>2026-02-22T14:01:14Z</time>
      </trkpt>
      <trkpt lat="43.58642" lon="6.38491">
        <ele>650.1</ele>
        <time>2026-02-22T14:01:15Z</time>
      </trkpt>
      <trkpt lat="43.58642" lon="6.38491">
        <ele>650.1</ele>
        <time>2026-02-22T14:01:16Z</time>
      </trkpt>
      <trkpt lat="43.58642" lon="6.38491">
        <ele>650</ele>
        <time>2026-02-22T14:01:17Z</time>
      </trkpt>
      <trkpt lat="43.58642" lon="6.38491">
        <ele>650</ele>
        <time>2026-02-22T14:01:18Z</time>
      </trkpt>
      <trkpt lat="43.58641" lon="6.38491">
        <ele>649.9</ele>
        <time>2026-02-22T14:01:19Z</time>
      </trkpt>
      <trkpt lat="43.58641" lon="6.38491">
        <ele>649.9</ele>
        <time>2026-02-22T14:01:20Z</time>
      </trkpt>
      <trkpt lat="43.58641" lon="6.38491">
        <ele>649.8</ele>
        <time>2026-02-22T14:01:21Z</time>
      </trkpt>
      <trkpt lat="43.5864" lon="6.38491">
        <ele>649.8</ele>
        <time>2026-02-22T14:01:22Z</time>
      </trkpt>
      <trkpt lat="43.5864" lon="6.38491">
        <ele>649.8</ele>
        <time>2026-02-22T14:01:23Z</time>
      </trkpt>
      <trkpt lat="43.5864" lon="6.3849">
        <ele>649.7</ele>
        <time>2026-02-22T14:01:24Z</time>
      </trkpt>
      <trkpt lat="43.5864" lon="6.3849">
        <ele>649.6</ele>
        <time>2026-02-22T14:01:25Z</time>
      </trkpt>
      <trkpt lat="43.5864" lon="6.3849">
        <ele>649.5</ele>
        <time>2026-02-22T14:01:26Z</time>
      </trkpt>
      <trkpt lat="43.5864" lon="6.3849">
        <ele>649.6</ele>
        <time>2026-02-22T14:01:27Z</time>
      </trkpt>
      <trkpt lat="43.5864" lon="6.3849">
        <ele>649.6</ele>
        <time>2026-02-22T14:01:28Z</time>
      </trkpt>
      <trkpt lat="43.5864" lon="6.38489">
        <ele>649.6</ele>
        <time>2026-02-22T14:01:29Z</time>
      </trkpt>
      <trkpt lat="43.5864" lon="6.38489">
        <ele>649.6</ele>
        <time>2026-02-22T14:01:30Z</time>
      </trkpt>
      <trkpt lat="43.5864" lon="6.38489">
        <ele>649.6</ele>
        <time>2026-02-22T14:01:31Z</time>
      </trkpt>
      <trkpt lat="43.58639" lon="6.38489">
        <ele>649.6</ele>
        <time>2026-02-22T14:01:32Z</time>
      </trkpt>
      <trkpt lat="43.58639" lon="6.38489">
        <ele>649.6</ele>
        <time>2026-02-22T14:01:33Z</time>
      </trkpt>
      <trkpt lat="43.58639" lon="6.38489">
        <ele>649.6</ele>
        <time>2026-02-22T14:01:34Z</time>
      </trkpt>
      <trkpt lat="43.58639" lon="6.38489">
        <ele>649.6</ele>
        <time>2026-02-22T14:01:35Z</time>
      </trkpt>
      <trkpt lat="43.58639" lon="6.38488">
        <ele>649.6</ele>
        <time>2026-02-22T14:01:36Z</time>
      </trkpt>
      <trkpt lat="43.58639" lon="6.38488">
        <ele>649.7</ele>
        <time>2026-02-22T14:01:37Z</time>
      </trkpt>
      <trkpt lat="43.58639" lon="6.38488">
        <ele>649.8</ele>
        <time>2026-02-22T14:01:38Z</time>
      </trkpt>
      <trkpt lat="43.58639" lon="6.38488">
        <ele>649.8</ele>
        <time>2026-02-22T14:01:39Z</time>
      </trkpt>
      <trkpt lat="43.58639" lon="6.38488">
        <ele>649.8</ele>
        <time>2026-02-22T14:01:40Z</time>
      </trkpt>
      <trkpt lat="43.58639" lon="6.38487">
        <ele>649.9</ele>
        <time>2026-02-22T14:01:41Z</time>
      </trkpt>
      <trkpt lat="43.58639" lon="6.38487">
        <ele>649.9</ele>
        <time>2026-02-22T14:01:42Z</time>
      </trkpt>
      <trkpt lat="43.58639" lon="6.38487">
        <ele>649.9</ele>
        <time>2026-02-22T14:01:43Z</time>
      </trkpt>
      <trkpt lat="43.58639" lon="6.38487">
        <ele>649.9</ele>
        <time>2026-02-22T14:01:44Z</time>
      </trkpt>
      <trkpt lat="43.58639" lon="6.38487">
        <ele>649.8</ele>
        <time>2026-02-22T14:01:45Z</time>
      </trkpt>
      <trkpt lat="43.58639" lon="6.38487">
        <ele>649.8</ele>
        <time>2026-02-22T14:01:46Z</time>
      </trkpt>
      <trkpt lat="43.58639" lon="6.38487">
        <ele>649.8</ele>
        <time>2026-02-22T14:01:47Z</time>
      </trkpt>
      <trkpt lat="43.58639" lon="6.38487">
        <ele>649.8</ele>
        <time>2026-02-22T14:01:48Z</time>
      </trkpt>
      <trkpt lat="43.58639" lon="6.38487">
        <ele>649.7</ele>
        <time>2026-02-22T14:01:49Z</time>
      </trkpt>
      <trkpt lat="43.58639" lon="6.38488">
        <ele>649.7</ele>
        <time>2026-02-22T14:01:50Z</time>
      </trkpt>
      <trkpt lat="43.58639" lon="6.38488">
        <ele>649.7</ele>
        <time>2026-02-22T14:01:51Z</time>
      </trkpt>
      <trkpt lat="43.58639" lon="6.38488">
        <ele>649.6</ele>
        <time>2026-02-22T14:01:52Z</time>
      </trkpt>
      <trkpt lat="43.58639" lon="6.38488">
        <ele>649.7</ele>
        <time>2026-02-22T14:01:53Z</time>
      </trkpt>
      <trkpt lat="43.58639" lon="6.38487">
        <ele>649.7</ele>
        <time>2026-02-22T14:01:54Z</time>
      </trkpt>
      <trkpt lat="43.58638" lon="6.38487">
        <ele>649.8</ele>
        <time>2026-02-22T14:01:55Z</time>
      </trkpt>
      <trkpt lat="43.58638" lon="6.38487">
        <ele>649.8</ele>
        <time>2026-02-22T14:01:56Z</time>
      </trkpt>
      <trkpt lat="43.58637" lon="6.38487">
        <ele>649.9</ele>
        <time>2026-02-22T14:01:57Z</time>
      </trkpt>
      <trkpt lat="43.58637" lon="6.38487">
        <ele>649.8</ele>
        <time>2026-02-22T14:01:58Z</time>
      </trkpt>
      <trkpt lat="43.58637" lon="6.38487">
        <ele>649.8</ele>
        <time>2026-02-22T14:01:59Z</time>
      </trkpt>
      <trkpt lat="43.58638" lon="6.38487">
        <ele>649.9</ele>
        <time>2026-02-22T14:02:00Z</time>
      </trkpt>
      <trkpt lat="43.58638" lon="6.38487">
        <ele>649.9</ele>
        <time>2026-02-22T14:02:01Z</time>
      </trkpt>
      <trkpt lat="43.58638" lon="6.38487">
        <ele>649.9</ele>
        <time>2026-02-22T14:02:02Z</time>
      </trkpt>
      <trkpt lat="43.58639" lon="6.38487">
        <ele>649.9</ele>
        <time>2026-02-22T14:02:03Z</time>
      </trkpt>
      <trkpt lat="43.58639" lon="6.38487">
        <ele>649.9</ele>
        <time>2026-02-22T14:02:04Z</time>
      </trkpt>
      <trkpt lat="43.5864" lon="6.38487">
        <ele>649.8</ele>
        <time>2026-02-22T14:02:05Z</time>
      </trkpt>
      <trkpt lat="43.5864" lon="6.38487">
        <ele>649.8</ele>
        <time>2026-02-22T14:02:06Z</time>
      </trkpt>
      <trkpt lat="43.5864" lon="6.38487">
        <ele>649.8</ele>
        <time>2026-02-22T14:02:07Z</time>
      </trkpt>
      <trkpt lat="43.58641" lon="6.38488">
        <ele>649.9</ele>
        <time>2026-02-22T14:02:08Z</time>
      </trkpt>
      <trkpt lat="43.58641" lon="6.38488">
        <ele>649.9</ele>
        <time>2026-02-22T14:02:09Z</time>
      </trkpt>
      <trkpt lat="43.58641" lon="6.38488">
        <ele>649.8</ele>
        <time>2026-02-22T14:02:10Z</time>
      </trkpt>
      <trkpt lat="43.58641" lon="6.38488">
        <ele>649.8</ele>
        <time>2026-02-22T14:02:11Z</time>
      </trkpt>
      <trkpt lat="43.5864" lon="6.38489">
        <ele>649.7</ele>
        <time>2026-02-22T14:02:12Z</time>
      </trkpt>
      <trkpt lat="43.5864" lon="6.38488">
        <ele>649.7</ele>
        <time>2026-02-22T14:02:13Z</time>
      </trkpt>
      <trkpt lat="43.5864" lon="6.38489">
        <ele>649.7</ele>
        <time>2026-02-22T14:02:14Z</time>
      </trkpt>
      <trkpt lat="43.5864" lon="6.38488">
        <ele>649.6</ele>
        <time>2026-02-22T14:02:15Z</time>
      </trkpt>
      <trkpt lat="43.58639" lon="6.38488">
        <ele>649.5</ele>
        <time>2026-02-22T14:02:16Z</time>
      </trkpt>
      <trkpt lat="43.58639" lon="6.38488">
        <ele>649.5</ele>
        <time>2026-02-22T14:02:17Z</time>
      </trkpt>
      <trkpt lat="43.58638" lon="6.38488">
        <ele>649.3</ele>
        <time>2026-02-22T14:02:18Z</time>
      </trkpt>
      <trkpt lat="43.58638" lon="6.38488">
        <ele>649.2</ele>
        <time>2026-02-22T14:02:19Z</time>
      </trkpt>
      <trkpt lat="43.58638" lon="6.38488">
        <ele>649.1</ele>
        <time>2026-02-22T14:02:20Z</time>
      </trkpt>
      <trkpt lat="43.58638" lon="6.38488">
        <ele>649</ele>
        <time>2026-02-22T14:02:21Z</time>
      </trkpt>
      <trkpt lat="43.58637" lon="6.38488">
        <ele>648.9</ele>
        <time>2026-02-22T14:02:22Z</time>
      </trkpt>
      <trkpt lat="43.58637" lon="6.38488">
        <ele>648.9</ele>
        <time>2026-02-22T14:02:23Z</time>
      </trkpt>
      <trkpt lat="43.58636" lon="6.38488">
        <ele>648.8</ele>
        <time>2026-02-22T14:02:24Z</time>
      </trkpt>
      <trkpt lat="43.58636" lon="6.38487">
        <ele>648.7</ele>
        <time>2026-02-22T14:02:25Z</time>
      </trkpt>
      <trkpt lat="43.58636" lon="6.38487">
        <ele>648.5</ele>
        <time>2026-02-22T14:02:26Z</time>
      </trkpt>
      <trkpt lat="43.58635" lon="6.38487">
        <ele>648.3</ele>
        <time>2026-02-22T14:02:27Z</time>
      </trkpt>
      <trkpt lat="43.58635" lon="6.38487">
        <ele>648.2</ele>
        <time>2026-02-22T14:02:28Z</time>
      </trkpt>
      <trkpt lat="43.58635" lon="6.38486">
        <ele>648.1</ele>
        <time>2026-02-22T14:02:29Z</time>
      </trkpt>
      <trkpt lat="43.58635" lon="6.38486">
        <ele>648</ele>
        <time>2026-02-22T14:02:30Z</time>
      </trkpt>
      <trkpt lat="43.58635" lon="6.38486">
        <ele>648</ele>
        <time>2026-02-22T14:02:31Z</time>
      </trkpt>
      <trkpt lat="43.58636" lon="6.38486">
        <ele>647.9</ele>
        <time>2026-02-22T14:02:32Z</time>
      </trkpt>
      <trkpt lat="43.58636" lon="6.38486">
        <ele>647.9</ele>
        <time>2026-02-22T14:02:33Z</time>
      </trkpt>
      <trkpt lat="43.58636" lon="6.38486">
        <ele>647.9</ele>
        <time>2026-02-22T14:02:34Z</time>
      </trkpt>
      <trkpt lat="43.58636" lon="6.38486">
        <ele>647.9</ele>
        <time>2026-02-22T14:02:35Z</time>
      </trkpt>
      <trkpt lat="43.58636" lon="6.38486">
        <ele>647.9</ele>
        <time>2026-02-22T14:02:36Z</time>
      </trkpt>
      <trkpt lat="43.58636" lon="6.38486">
        <ele>648</ele>
        <time>2026-02-22T14:02:37Z</time>
      </trkpt>
      <trkpt lat="43.58636" lon="6.38486">
        <ele>647.9</ele>
        <time>2026-02-22T14:02:38Z</time>
      </trkpt>
      <trkpt lat="43.58636" lon="6.38487">
        <ele>647.9</ele>
        <time>2026-02-22T14:02:39Z</time>
      </trkpt>
      <trkpt lat="43.58636" lon="6.38486">
        <ele>647.8</ele>
        <time>2026-02-22T14:02:40Z</time>
      </trkpt>
      <trkpt lat="43.58636" lon="6.38487">
        <ele>647.8</ele>
        <time>2026-02-22T14:02:41Z</time>
      </trkpt>
      <trkpt lat="43.58635" lon="6.38487">
        <ele>647.8</ele>
        <time>2026-02-22T14:02:42Z</time>
      </trkpt>
      <trkpt lat="43.58635" lon="6.38487">
        <ele>647.7</ele>
        <time>2026-02-22T14:02:43Z</time>
      </trkpt>
      <trkpt lat="43.58635" lon="6.38487">
        <ele>647.7</ele>
        <time>2026-02-22T14:02:44Z</time>
      </trkpt>
      <trkpt lat="43.58635" lon="6.38487">
        <ele>647.8</ele>
        <time>2026-02-22T14:02:45Z</time>
      </trkpt>
      <trkpt lat="43.58634" lon="6.38486">
        <ele>647.8</ele>
        <time>2026-02-22T14:02:46Z</time>
      </trkpt>
      <trkpt lat="43.58634" lon="6.38486">
        <ele>647.8</ele>
        <time>2026-02-22T14:02:47Z</time>
      </trkpt>
      <trkpt lat="43.58634" lon="6.38486">
        <ele>647.8</ele>
        <time>2026-02-22T14:02:48Z</time>
      </trkpt>
      <trkpt lat="43.58634" lon="6.38486">
        <ele>647.8</ele>
        <time>2026-02-22T14:02:49Z</time>
      </trkpt>
      <trkpt lat="43.58634" lon="6.38486">
        <ele>647.8</ele>
        <time>2026-02-22T14:02:50Z</time>
      </trkpt>
      <trkpt lat="43.58634" lon="6.38486">
        <ele>647.8</ele>
        <time>2026-02-22T14:02:51Z</time>
      </trkpt>
      <trkpt lat="43.58635" lon="6.38486">
        <ele>647.8</ele>
        <time>2026-02-22T14:02:52Z</time>
      </trkpt>
      <trkpt lat="43.58635" lon="6.38486">
        <ele>647.8</ele>
        <time>2026-02-22T14:02:53Z</time>
      </trkpt>
      <trkpt lat="43.58635" lon="6.38485">
        <ele>647.7</ele>
        <time>2026-02-22T14:02:54Z</time>
      </trkpt>
      <trkpt lat="43.58635" lon="6.38485">
        <ele>647.7</ele>
        <time>2026-02-22T14:02:55Z</time>
      </trkpt>
      <trkpt lat="43.58635" lon="6.38485">
        <ele>647.6</ele>
        <time>2026-02-22T14:02:56Z</time>
      </trkpt>
      <trkpt lat="43.58635" lon="6.38485">
        <ele>647.6</ele>
        <time>2026-02-22T14:02:57Z</time>
      </trkpt>
      <trkpt lat="43.58635" lon="6.38485">
        <ele>647.5</ele>
        <time>2026-02-22T14:02:58Z</time>
      </trkpt>
      <trkpt lat="43.58634" lon="6.38485">
        <ele>647.5</ele>
        <time>2026-02-22T14:02:59Z</time>
      </trkpt>
      <trkpt lat="43.58634" lon="6.38485">
        <ele>647.4</ele>
        <time>2026-02-22T14:03:00Z</time>
      </trkpt>
      <trkpt lat="43.58633" lon="6.38485">
        <ele>647.4</ele>
        <time>2026-02-22T14:03:01Z</time>
      </trkpt>
      <trkpt lat="43.58632" lon="6.38485">
        <ele>647.3</ele>
        <time>2026-02-22T14:03:02Z</time>
      </trkpt>
      <trkpt lat="43.58632" lon="6.38485">
        <ele>647.2</ele>
        <time>2026-02-22T14:03:03Z</time>
      </trkpt>
      <trkpt lat="43.58631" lon="6.38485">
        <ele>647.1</ele>
        <time>2026-02-22T14:03:04Z</time>
      </trkpt>
      <trkpt lat="43.58631" lon="6.38486">
        <ele>646.9</ele>
        <time>2026-02-22T14:03:05Z</time>
      </trkpt>
      <trkpt lat="43.5863" lon="6.38485">
        <ele>646.8</ele>
        <time>2026-02-22T14:03:06Z</time>
      </trkpt>
      <trkpt lat="43.5863" lon="6.38485">
        <ele>646.6</ele>
        <time>2026-02-22T14:03:07Z</time>
      </trkpt>
      <trkpt lat="43.58629" lon="6.38486">
        <ele>646.5</ele>
        <time>2026-02-22T14:03:08Z</time>
      </trkpt>
      <trkpt lat="43.58629" lon="6.38485">
        <ele>646.4</ele>
        <time>2026-02-22T14:03:09Z</time>
      </trkpt>
      <trkpt lat="43.58629" lon="6.38485">
        <ele>646.3</ele>
        <time>2026-02-22T14:03:10Z</time>
      </trkpt>
      <trkpt lat="43.58628" lon="6.38485">
        <ele>646.2</ele>
        <time>2026-02-22T14:03:11Z</time>
      </trkpt>
      <trkpt lat="43.58627" lon="6.38485">
        <ele>646.1</ele>
        <time>2026-02-22T14:03:12Z</time>
      </trkpt>
      <trkpt lat="43.58626" lon="6.38484">
        <ele>645.9</ele>
        <time>2026-02-22T14:03:13Z</time>
      </trkpt>
      <trkpt lat="43.58625" lon="6.38484">
        <ele>645.7</ele>
        <time>2026-02-22T14:03:14Z</time>
      </trkpt>
      <trkpt lat="43.58624" lon="6.38484">
        <ele>645.6</ele>
        <time>2026-02-22T14:03:15Z</time>
      </trkpt>
      <trkpt lat="43.58624" lon="6.38483">
        <ele>645.5</ele>
        <time>2026-02-22T14:03:16Z</time>
      </trkpt>
      <trkpt lat="43.58623" lon="6.38483">
        <ele>645.2</ele>
        <time>2026-02-22T14:03:17Z</time>
      </trkpt>
      <trkpt lat="43.58622" lon="6.38483">
        <ele>645.1</ele>
        <time>2026-02-22T14:03:18Z</time>
      </trkpt>
      <trkpt lat="43.58622" lon="6.38483">
        <ele>644.9</ele>
        <time>2026-02-22T14:03:19Z</time>
      </trkpt>
      <trkpt lat="43.58622" lon="6.38483">
        <ele>644.7</ele>
        <time>2026-02-22T14:03:20Z</time>
      </trkpt>
      <trkpt lat="43.58622" lon="6.38483">
        <ele>644.5</ele>
        <time>2026-02-22T14:03:21Z</time>
      </trkpt>
      <trkpt lat="43.58621" lon="6.38482">
        <ele>644.4</ele>
        <time>2026-02-22T14:03:22Z</time>
      </trkpt>
      <trkpt lat="43.5862" lon="6.38481">
        <ele>644.3</ele>
        <time>2026-02-22T14:03:23Z</time>
      </trkpt>
      <trkpt lat="43.5862" lon="6.38481">
        <ele>644.1</ele>
        <time>2026-02-22T14:03:24Z</time>
      </trkpt>
      <trkpt lat="43.5862" lon="6.38481">
        <ele>643.9</ele>
        <time>2026-02-22T14:03:25Z</time>
      </trkpt>
      <trkpt lat="43.58619" lon="6.38481">
        <ele>643.8</ele>
        <time>2026-02-22T14:03:26Z</time>
      </trkpt>
      <trkpt lat="43.58618" lon="6.3848">
        <ele>643.7</ele>
        <time>2026-02-22T14:03:27Z</time>
      </trkpt>
      <trkpt lat="43.58619" lon="6.3848">
        <ele>643.6</ele>
        <time>2026-02-22T14:03:28Z</time>
      </trkpt>
      <trkpt lat="43.58619" lon="6.38479">
        <ele>643.7</ele>
        <time>2026-02-22T14:03:29Z</time>
      </trkpt>
      <trkpt lat="43.58618" lon="6.38478">
        <ele>643.7</ele>
        <time>2026-02-22T14:03:30Z</time>
      </trkpt>
      <trkpt lat="43.58618" lon="6.38477">
        <ele>643.7</ele>
        <time>2026-02-22T14:03:31Z</time>
      </trkpt>
      <trkpt lat="43.58618" lon="6.38477">
        <ele>643.7</ele>
        <time>2026-02-22T14:03:32Z</time>
      </trkpt>
      <trkpt lat="43.58618" lon="6.38476">
        <ele>643.7</ele>
        <time>2026-02-22T14:03:33Z</time>
      </trkpt>
      <trkpt lat="43.58618" lon="6.38476">
        <ele>643.6</ele>
        <time>2026-02-22T14:03:34Z</time>
      </trkpt>
      <trkpt lat="43.58618" lon="6.38476">
        <ele>643.6</ele>
        <time>2026-02-22T14:03:35Z</time>
      </trkpt>
      <trkpt lat="43.58618" lon="6.38475">
        <ele>643.6</ele>
        <time>2026-02-22T14:03:36Z</time>
      </trkpt>
      <trkpt lat="43.58617" lon="6.38474">
        <ele>643.5</ele>
        <time>2026-02-22T14:03:37Z</time>
      </trkpt>
      <trkpt lat="43.58617" lon="6.38473">
        <ele>643.3</ele>
        <time>2026-02-22T14:03:38Z</time>
      </trkpt>
      <trkpt lat="43.58617" lon="6.38473">
        <ele>643.1</ele>
        <time>2026-02-22T14:03:39Z</time>
      </trkpt>
      <trkpt lat="43.58617" lon="6.38472">
        <ele>642.9</ele>
        <time>2026-02-22T14:03:40Z</time>
      </trkpt>
      <trkpt lat="43.58617" lon="6.38471">
        <ele>642.7</ele>
        <time>2026-02-22T14:03:41Z</time>
      </trkpt>
      <trkpt lat="43.58618" lon="6.3847">
        <ele>642.6</ele>
        <time>2026-02-22T14:03:42Z</time>
      </trkpt>
      <trkpt lat="43.58619" lon="6.3847">
        <ele>642.4</ele>
        <time>2026-02-22T14:03:43Z</time>
      </trkpt>
      <trkpt lat="43.58619" lon="6.38469">
        <ele>642.3</ele>
        <time>2026-02-22T14:03:44Z</time>
      </trkpt>
      <trkpt lat="43.5862" lon="6.38468">
        <ele>642.3</ele>
        <time>2026-02-22T14:03:45Z</time>
      </trkpt>
      <trkpt lat="43.58621" lon="6.38468">
        <ele>642.3</ele>
        <time>2026-02-22T14:03:46Z</time>
      </trkpt>
      <trkpt lat="43.58622" lon="6.38468">
        <ele>642.2</ele>
        <time>2026-02-22T14:03:47Z</time>
      </trkpt>
      <trkpt lat="43.58622" lon="6.38467">
        <ele>642.2</ele>
        <time>2026-02-22T14:03:48Z</time>
      </trkpt>
      <trkpt lat="43.58622" lon="6.38467">
        <ele>642.2</ele>
        <time>2026-02-22T14:03:49Z</time>
      </trkpt>
      <trkpt lat="43.58623" lon="6.38467">
        <ele>642.3</ele>
        <time>2026-02-22T14:03:50Z</time>
      </trkpt>
      <trkpt lat="43.58624" lon="6.38466">
        <ele>642.2</ele>
        <time>2026-02-22T14:03:51Z</time>
      </trkpt>
      <trkpt lat="43.58625" lon="6.38466">
        <ele>642.1</ele>
        <time>2026-02-22T14:03:52Z</time>
      </trkpt>
      <trkpt lat="43.58626" lon="6.38465">
        <ele>642.1</ele>
        <time>2026-02-22T14:03:53Z</time>
      </trkpt>
      <trkpt lat="43.58626" lon="6.38464">
        <ele>642</ele>
        <time>2026-02-22T14:03:54Z</time>
      </trkpt>
      <trkpt lat="43.58627" lon="6.38464">
        <ele>642</ele>
        <time>2026-02-22T14:03:55Z</time>
      </trkpt>
      <trkpt lat="43.58627" lon="6.38463">
        <ele>641.9</ele>
        <time>2026-02-22T14:03:56Z</time>
      </trkpt>
      <trkpt lat="43.58628" lon="6.38462">
        <ele>641.9</ele>
        <time>2026-02-22T14:03:57Z</time>
      </trkpt>
      <trkpt lat="43.58629" lon="6.38462">
        <ele>641.8</ele>
        <time>2026-02-22T14:03:58Z</time>
      </trkpt>
      <trkpt lat="43.5863" lon="6.38461">
        <ele>642</ele>
        <time>2026-02-22T14:03:59Z</time>
      </trkpt>
      <trkpt lat="43.58631" lon="6.3846">
        <ele>642</ele>
        <time>2026-02-22T14:04:00Z</time>
      </trkpt>
      <trkpt lat="43.58631" lon="6.3846">
        <ele>642</ele>
        <time>2026-02-22T14:04:01Z</time>
      </trkpt>
      <trkpt lat="43.58631" lon="6.3846">
        <ele>642</ele>
        <time>2026-02-22T14:04:02Z</time>
      </trkpt>
      <trkpt lat="43.58632" lon="6.3846">
        <ele>642</ele>
        <time>2026-02-22T14:04:03Z</time>
      </trkpt>
      <trkpt lat="43.58633" lon="6.38459">
        <ele>642.1</ele>
        <time>2026-02-22T14:04:04Z</time>
      </trkpt>
      <trkpt lat="43.58634" lon="6.38459">
        <ele>642.1</ele>
        <time>2026-02-22T14:04:05Z</time>
      </trkpt>
      <trkpt lat="43.58635" lon="6.38459">
        <ele>642.1</ele>
        <time>2026-02-22T14:04:06Z</time>
      </trkpt>
      <trkpt lat="43.58636" lon="6.38458">
        <ele>642.1</ele>
        <time>2026-02-22T14:04:07Z</time>
      </trkpt>
      <trkpt lat="43.58637" lon="6.38458">
        <ele>642.1</ele>
        <time>2026-02-22T14:04:08Z</time>
      </trkpt>
      <trkpt lat="43.58637" lon="6.38457">
        <ele>642.1</ele>
        <time>2026-02-22T14:04:09Z</time>
      </trkpt>
      <trkpt lat="43.58638" lon="6.38457">
        <ele>642.1</ele>
        <time>2026-02-22T14:04:10Z</time>
      </trkpt>
      <trkpt lat="43.58639" lon="6.38456">
        <ele>642.1</ele>
        <time>2026-02-22T14:04:11Z</time>
      </trkpt>
      <trkpt lat="43.58639" lon="6.38455">
        <ele>642</ele>
        <time>2026-02-22T14:04:12Z</time>
      </trkpt>
      <trkpt lat="43.5864" lon="6.38455">
        <ele>642</ele>
        <time>2026-02-22T14:04:13Z</time>
      </trkpt>
      <trkpt lat="43.58641" lon="6.38455">
        <ele>641.9</ele>
        <time>2026-02-22T14:04:14Z</time>
      </trkpt>
      <trkpt lat="43.58643" lon="6.38454">
        <ele>641.8</ele>
        <time>2026-02-22T14:04:15Z</time>
      </trkpt>
      <trkpt lat="43.58644" lon="6.38454">
        <ele>641.8</ele>
        <time>2026-02-22T14:04:16Z</time>
      </trkpt>
      <trkpt lat="43.58645" lon="6.38453">
        <ele>641.8</ele>
        <time>2026-02-22T14:04:17Z</time>
      </trkpt>
      <trkpt lat="43.58646" lon="6.38452">
        <ele>641.8</ele>
        <time>2026-02-22T14:04:18Z</time>
      </trkpt>
      <trkpt lat="43.58647" lon="6.38452">
        <ele>641.8</ele>
        <time>2026-02-22T14:04:19Z</time>
      </trkpt>
      <trkpt lat="43.58648" lon="6.38451">
        <ele>641.7</ele>
        <time>2026-02-22T14:04:20Z</time>
      </trkpt>
      <trkpt lat="43.58648" lon="6.38451">
        <ele>641.7</ele>
        <time>2026-02-22T14:04:21Z</time>
      </trkpt>
      <trkpt lat="43.58649" lon="6.38451">
        <ele>641.7</ele>
        <time>2026-02-22T14:04:22Z</time>
      </trkpt>
      <trkpt lat="43.58649" lon="6.3845">
        <ele>641.6</ele>
        <time>2026-02-22T14:04:23Z</time>
      </trkpt>
      <trkpt lat="43.5865" lon="6.38449">
        <ele>641.6</ele>
        <time>2026-02-22T14:04:24Z</time>
      </trkpt>
      <trkpt lat="43.58651" lon="6.38449">
        <ele>641.6</ele>
        <time>2026-02-22T14:04:25Z</time>
      </trkpt>
      <trkpt lat="43.58652" lon="6.38449">
        <ele>641.5</ele>
        <time>2026-02-22T14:04:26Z</time>
      </trkpt>
      <trkpt lat="43.58653" lon="6.38449">
        <ele>641.4</ele>
        <time>2026-02-22T14:04:27Z</time>
      </trkpt>
      <trkpt lat="43.58653" lon="6.38449">
        <ele>641.4</ele>
        <time>2026-02-22T14:04:28Z</time>
      </trkpt>
      <trkpt lat="43.58654" lon="6.38448">
        <ele>641.2</ele>
        <time>2026-02-22T14:04:29Z</time>
      </trkpt>
      <trkpt lat="43.58655" lon="6.38447">
        <ele>641.1</ele>
        <time>2026-02-22T14:04:30Z</time>
      </trkpt>
      <trkpt lat="43.58656" lon="6.38447">
        <ele>640.9</ele>
        <time>2026-02-22T14:04:31Z</time>
      </trkpt>
      <trkpt lat="43.58657" lon="6.38446">
        <ele>640.9</ele>
        <time>2026-02-22T14:04:32Z</time>
      </trkpt>
      <trkpt lat="43.58658" lon="6.38446">
        <ele>640.8</ele>
        <time>2026-02-22T14:04:33Z</time>
      </trkpt>
      <trkpt lat="43.58659" lon="6.38445">
        <ele>640.9</ele>
        <time>2026-02-22T14:04:34Z</time>
      </trkpt>
      <trkpt lat="43.58659" lon="6.38445">
        <ele>640.9</ele>
        <time>2026-02-22T14:04:35Z</time>
      </trkpt>
      <trkpt lat="43.5866" lon="6.38444">
        <ele>641</ele>
        <time>2026-02-22T14:04:36Z</time>
      </trkpt>
      <trkpt lat="43.58661" lon="6.38444">
        <ele>641</ele>
        <time>2026-02-22T14:04:37Z</time>
      </trkpt>
      <trkpt lat="43.58662" lon="6.38443">
        <ele>640.9</ele>
        <time>2026-02-22T14:04:38Z</time>
      </trkpt>
      <trkpt lat="43.58663" lon="6.38442">
        <ele>640.9</ele>
        <time>2026-02-22T14:04:39Z</time>
      </trkpt>
      <trkpt lat="43.58664" lon="6.38441">
        <ele>641</ele>
        <time>2026-02-22T14:04:40Z</time>
      </trkpt>
      <trkpt lat="43.58665" lon="6.38441">
        <ele>641</ele>
        <time>2026-02-22T14:04:41Z</time>
      </trkpt>
      <trkpt lat="43.58665" lon="6.3844">
        <ele>641</ele>
        <time>2026-02-22T14:04:42Z</time>
      </trkpt>
      <trkpt lat="43.58666" lon="6.38439">
        <ele>640.9</ele>
        <time>2026-02-22T14:04:43Z</time>
      </trkpt>
      <trkpt lat="43.58667" lon="6.38439">
        <ele>640.9</ele>
        <time>2026-02-22T14:04:44Z</time>
      </trkpt>
      <trkpt lat="43.58668" lon="6.38439">
        <ele>640.9</ele>
        <time>2026-02-22T14:04:45Z</time>
      </trkpt>
      <trkpt lat="43.58669" lon="6.38439">
        <ele>640.9</ele>
        <time>2026-02-22T14:04:46Z</time>
      </trkpt>
      <trkpt lat="43.5867" lon="6.38438">
        <ele>641</ele>
        <time>2026-02-22T14:04:47Z</time>
      </trkpt>
      <trkpt lat="43.58671" lon="6.38437">
        <ele>641</ele>
        <time>2026-02-22T14:04:48Z</time>
      </trkpt>
      <trkpt lat="43.58672" lon="6.38436">
        <ele>640.9</ele>
        <time>2026-02-22T14:04:49Z</time>
      </trkpt>
      <trkpt lat="43.58673" lon="6.38436">
        <ele>640.9</ele>
        <time>2026-02-22T14:04:50Z</time>
      </trkpt>
      <trkpt lat="43.58675" lon="6.38435">
        <ele>640.9</ele>
        <time>2026-02-22T14:04:51Z</time>
      </trkpt>
      <trkpt lat="43.58675" lon="6.38434">
        <ele>641</ele>
        <time>2026-02-22T14:04:52Z</time>
      </trkpt>
      <trkpt lat="43.58675" lon="6.38434">
        <ele>640.9</ele>
        <time>2026-02-22T14:04:53Z</time>
      </trkpt>
      <trkpt lat="43.58677" lon="6.38434">
        <ele>640.8</ele>
        <time>2026-02-22T14:04:54Z</time>
      </trkpt>
      <trkpt lat="43.58677" lon="6.38434">
        <ele>640.8</ele>
        <time>2026-02-22T14:04:55Z</time>
      </trkpt>
      <trkpt lat="43.58678" lon="6.38433">
        <ele>640.7</ele>
        <time>2026-02-22T14:04:56Z</time>
      </trkpt>
      <trkpt lat="43.58679" lon="6.38433">
        <ele>640.8</ele>
        <time>2026-02-22T14:04:57Z</time>
      </trkpt>
      <trkpt lat="43.58679" lon="6.38432">
        <ele>640.8</ele>
        <time>2026-02-22T14:04:58Z</time>
      </trkpt>
      <trkpt lat="43.5868" lon="6.38432">
        <ele>640.8</ele>
        <time>2026-02-22T14:04:59Z</time>
      </trkpt>
      <trkpt lat="43.58681" lon="6.38431">
        <ele>640.9</ele>
        <time>2026-02-22T14:05:00Z</time>
      </trkpt>
      <trkpt lat="43.58682" lon="6.38431">
        <ele>640.9</ele>
        <time>2026-02-22T14:05:01Z</time>
      </trkpt>
      <trkpt lat="43.58683" lon="6.38429">
        <ele>640.9</ele>
        <time>2026-02-22T14:05:02Z</time>
      </trkpt>
      <trkpt lat="43.58684" lon="6.38429">
        <ele>640.8</ele>
        <time>2026-02-22T14:05:03Z</time>
      </trkpt>
      <trkpt lat="43.58685" lon="6.38428">
        <ele>640.8</ele>
        <time>2026-02-22T14:05:04Z</time>
      </trkpt>
      <trkpt lat="43.58686" lon="6.38427">
        <ele>640.7</ele>
        <time>2026-02-22T14:05:05Z</time>
      </trkpt>
      <trkpt lat="43.58687" lon="6.38427">
        <ele>640.7</ele>
        <time>2026-02-22T14:05:06Z</time>
      </trkpt>
      <trkpt lat="43.58688" lon="6.38426">
        <ele>640.6</ele>
        <time>2026-02-22T14:05:07Z</time>
      </trkpt>
      <trkpt lat="43.58688" lon="6.38426">
        <ele>640.5</ele>
        <time>2026-02-22T14:05:08Z</time>
      </trkpt>
      <trkpt lat="43.5869" lon="6.38425">
        <ele>640.5</ele>
        <time>2026-02-22T14:05:09Z</time>
      </trkpt>
      <trkpt lat="43.58691" lon="6.38424">
        <ele>640.5</ele>
        <time>2026-02-22T14:05:10Z</time>
      </trkpt>
      <trkpt lat="43.58691" lon="6.38424">
        <ele>640.5</ele>
        <time>2026-02-22T14:05:11Z</time>
      </trkpt>
      <trkpt lat="43.58692" lon="6.38423">
        <ele>640.5</ele>
        <time>2026-02-22T14:05:12Z</time>
      </trkpt>
      <trkpt lat="43.58693" lon="6.38422">
        <ele>640.5</ele>
        <time>2026-02-22T14:05:13Z</time>
      </trkpt>
      <trkpt lat="43.58694" lon="6.38422">
        <ele>640.6</ele>
        <time>2026-02-22T14:05:14Z</time>
      </trkpt>
      <trkpt lat="43.58695" lon="6.38421">
        <ele>640.5</ele>
        <time>2026-02-22T14:05:15Z</time>
      </trkpt>
      <trkpt lat="43.58696" lon="6.3842">
        <ele>640.5</ele>
        <time>2026-02-22T14:05:16Z</time>
      </trkpt>
      <trkpt lat="43.58697" lon="6.3842">
        <ele>640.5</ele>
        <time>2026-02-22T14:05:17Z</time>
      </trkpt>
      <trkpt lat="43.58698" lon="6.3842">
        <ele>640.5</ele>
        <time>2026-02-22T14:05:18Z</time>
      </trkpt>
      <trkpt lat="43.58699" lon="6.38419">
        <ele>640.5</ele>
        <time>2026-02-22T14:05:19Z</time>
      </trkpt>
      <trkpt lat="43.58701" lon="6.38419">
        <ele>640.6</ele>
        <time>2026-02-22T14:05:20Z</time>
      </trkpt>
      <trkpt lat="43.58701" lon="6.38418">
        <ele>640.5</ele>
        <time>2026-02-22T14:05:21Z</time>
      </trkpt>
      <trkpt lat="43.58703" lon="6.38418">
        <ele>640.6</ele>
        <time>2026-02-22T14:05:22Z</time>
      </trkpt>
      <trkpt lat="43.58704" lon="6.38417">
        <ele>640.7</ele>
        <time>2026-02-22T14:05:23Z</time>
      </trkpt>
      <trkpt lat="43.58706" lon="6.38416">
        <ele>640.7</ele>
        <time>2026-02-22T14:05:24Z</time>
      </trkpt>
      <trkpt lat="43.58707" lon="6.38415">
        <ele>640.7</ele>
        <time>2026-02-22T14:05:25Z</time>
      </trkpt>
      <trkpt lat="43.58708" lon="6.38414">
        <ele>640.8</ele>
        <time>2026-02-22T14:05:26Z</time>
      </trkpt>
      <trkpt lat="43.58709" lon="6.38413">
        <ele>640.8</ele>
        <time>2026-02-22T14:05:27Z</time>
      </trkpt>
      <trkpt lat="43.5871" lon="6.38413">
        <ele>640.8</ele>
        <time>2026-02-22T14:05:28Z</time>
      </trkpt>
      <trkpt lat="43.58711" lon="6.38412">
        <ele>640.8</ele>
        <time>2026-02-22T14:05:29Z</time>
      </trkpt>
      <trkpt lat="43.58712" lon="6.38411">
        <ele>640.8</ele>
        <time>2026-02-22T14:05:30Z</time>
      </trkpt>
      <trkpt lat="43.58712" lon="6.3841">
        <ele>640.8</ele>
        <time>2026-02-22T14:05:31Z</time>
      </trkpt>
      <trkpt lat="43.58713" lon="6.3841">
        <ele>640.8</ele>
        <time>2026-02-22T14:05:32Z</time>
      </trkpt>
      <trkpt lat="43.58714" lon="6.38409">
        <ele>640.8</ele>
        <time>2026-02-22T14:05:33Z</time>
      </trkpt>
      <trkpt lat="43.58715" lon="6.38409">
        <ele>640.8</ele>
        <time>2026-02-22T14:05:34Z</time>
      </trkpt>
      <trkpt lat="43.58716" lon="6.38408">
        <ele>640.8</ele>
        <time>2026-02-22T14:05:35Z</time>
      </trkpt>
      <trkpt lat="43.58717" lon="6.38407">
        <ele>640.8</ele>
        <time>2026-02-22T14:05:36Z</time>
      </trkpt>
      <trkpt lat="43.58718" lon="6.38407">
        <ele>640.8</ele>
        <time>2026-02-22T14:05:37Z</time>
      </trkpt>
      <trkpt lat="43.58719" lon="6.38406">
        <ele>640.8</ele>
        <time>2026-02-22T14:05:38Z</time>
      </trkpt>
      <trkpt lat="43.5872" lon="6.38406">
        <ele>640.8</ele>
        <time>2026-02-22T14:05:39Z</time>
      </trkpt>
      <trkpt lat="43.58722" lon="6.38406">
        <ele>640.8</ele>
        <time>2026-02-22T14:05:40Z</time>
      </trkpt>
      <trkpt lat="43.58722" lon="6.38405">
        <ele>640.7</ele>
        <time>2026-02-22T14:05:41Z</time>
      </trkpt>
      <trkpt lat="43.58723" lon="6.38405">
        <ele>640.6</ele>
        <time>2026-02-22T14:05:42Z</time>
      </trkpt>
      <trkpt lat="43.58724" lon="6.38404">
        <ele>640.6</ele>
        <time>2026-02-22T14:05:43Z</time>
      </trkpt>
      <trkpt lat="43.58725" lon="6.38403">
        <ele>640.7</ele>
        <time>2026-02-22T14:05:44Z</time>
      </trkpt>
      <trkpt lat="43.58726" lon="6.38403">
        <ele>640.7</ele>
        <time>2026-02-22T14:05:45Z</time>
      </trkpt>
      <trkpt lat="43.58727" lon="6.38402">
        <ele>640.7</ele>
        <time>2026-02-22T14:05:46Z</time>
      </trkpt>
      <trkpt lat="43.58727" lon="6.38402">
        <ele>640.7</ele>
        <time>2026-02-22T14:05:47Z</time>
      </trkpt>
      <trkpt lat="43.58728" lon="6.38401">
        <ele>640.7</ele>
        <time>2026-02-22T14:05:48Z</time>
      </trkpt>
      <trkpt lat="43.58728" lon="6.38401">
        <ele>640.6</ele>
        <time>2026-02-22T14:05:49Z</time>
      </trkpt>
      <trkpt lat="43.5873" lon="6.38399">
        <ele>640.6</ele>
        <time>2026-02-22T14:05:50Z</time>
      </trkpt>
      <trkpt lat="43.58731" lon="6.38398">
        <ele>640.5</ele>
        <time>2026-02-22T14:05:51Z</time>
      </trkpt>
      <trkpt lat="43.58731" lon="6.38397">
        <ele>640.5</ele>
        <time>2026-02-22T14:05:52Z</time>
      </trkpt>
      <trkpt lat="43.58731" lon="6.38397">
        <ele>640.5</ele>
        <time>2026-02-22T14:05:53Z</time>
      </trkpt>
      <trkpt lat="43.58732" lon="6.38397">
        <ele>640.4</ele>
        <time>2026-02-22T14:05:54Z</time>
      </trkpt>
      <trkpt lat="43.58732" lon="6.38397">
        <ele>640.5</ele>
        <time>2026-02-22T14:05:55Z</time>
      </trkpt>
      <trkpt lat="43.58733" lon="6.38395">
        <ele>640.5</ele>
        <time>2026-02-22T14:05:56Z</time>
      </trkpt>
      <trkpt lat="43.58733" lon="6.38395">
        <ele>640.5</ele>
        <time>2026-02-22T14:05:57Z</time>
      </trkpt>
      <trkpt lat="43.58734" lon="6.38394">
        <ele>640.6</ele>
        <time>2026-02-22T14:05:58Z</time>
      </trkpt>
      <trkpt lat="43.58734" lon="6.38394">
        <ele>640.6</ele>
        <time>2026-02-22T14:05:59Z</time>
      </trkpt>
      <trkpt lat="43.58734" lon="6.38394">
        <ele>640.7</ele>
        <time>2026-02-22T14:06:00Z</time>
      </trkpt>
      <trkpt lat="43.58734" lon="6.38393">
        <ele>640.6</ele>
        <time>2026-02-22T14:06:01Z</time>
      </trkpt>
      <trkpt lat="43.58733" lon="6.38393">
        <ele>640.6</ele>
        <time>2026-02-22T14:06:02Z</time>
      </trkpt>
      <trkpt lat="43.58734" lon="6.38392">
        <ele>640.6</ele>
        <time>2026-02-22T14:06:03Z</time>
      </trkpt>
      <trkpt lat="43.58735" lon="6.38392">
        <ele>640.6</ele>
        <time>2026-02-22T14:06:04Z</time>
      </trkpt>
      <trkpt lat="43.58735" lon="6.38391">
        <ele>640.6</ele>
        <time>2026-02-22T14:06:05Z</time>
      </trkpt>
      <trkpt lat="43.58735" lon="6.3839">
        <ele>640.6</ele>
        <time>2026-02-22T14:06:06Z</time>
      </trkpt>
      <trkpt lat="43.58736" lon="6.3839">
        <ele>640.6</ele>
        <time>2026-02-22T14:06:07Z</time>
      </trkpt>
      <trkpt lat="43.58736" lon="6.38389">
        <ele>640.6</ele>
        <time>2026-02-22T14:06:08Z</time>
      </trkpt>
      <trkpt lat="43.58736" lon="6.38389">
        <ele>640.7</ele>
        <time>2026-02-22T14:06:09Z</time>
      </trkpt>
      <trkpt lat="43.58736" lon="6.38388">
        <ele>640.7</ele>
        <time>2026-02-22T14:06:10Z</time>
      </trkpt>
      <trkpt lat="43.58737" lon="6.38388">
        <ele>640.7</ele>
        <time>2026-02-22T14:06:11Z</time>
      </trkpt>
      <trkpt lat="43.58737" lon="6.38387">
        <ele>640.7</ele>
        <time>2026-02-22T14:06:12Z</time>
      </trkpt>
      <trkpt lat="43.58737" lon="6.38385">
        <ele>640.7</ele>
        <time>2026-02-22T14:06:13Z</time>
      </trkpt>
      <trkpt lat="43.58737" lon="6.38385">
        <ele>640.8</ele>
        <time>2026-02-22T14:06:14Z</time>
      </trkpt>
      <trkpt lat="43.58737" lon="6.38384">
        <ele>640.8</ele>
        <time>2026-02-22T14:06:15Z</time>
      </trkpt>
      <trkpt lat="43.58738" lon="6.38384">
        <ele>640.9</ele>
        <time>2026-02-22T14:06:16Z</time>
      </trkpt>
      <trkpt lat="43.58738" lon="6.38385">
        <ele>640.9</ele>
        <time>2026-02-22T14:06:17Z</time>
      </trkpt>
      <trkpt lat="43.58738" lon="6.38385">
        <ele>641</ele>
        <time>2026-02-22T14:06:17Z</time>
      </trkpt>
      <trkpt lat="43.58738" lon="6.38385">
        <ele>641</ele>
        <time>2026-02-22T14:06:18Z</time>
      </trkpt>
      <trkpt lat="43.58738" lon="6.38385">
        <ele>641.1</ele>
        <time>2026-02-22T14:06:18Z</time>
      </trkpt>
    </trkseg>
  </trk>
</gpx>